﻿<?xml version="1.0" encoding="utf-8"?><gpx creator="Garmin Desktop App" version="1.1" xsi:schemaLocation="http://www.topografix.com/GPX/1/1 http://www.topografix.com/GPX/1/1/gpx.xsd http://www.garmin.com/xmlschemas/WaypointExtension/v1 http://www8.garmin.com/xmlschemas/WaypointExtensionv1.xsd http://www.garmin.com/xmlschemas/TrackPointExtension/v1 http://www.garmin.com/xmlschemas/TrackPointExtensionv1.xsd http://www.garmin.com/xmlschemas/GpxExtensions/v3 http://www8.garmin.com/xmlschemas/GpxExtensionsv3.xsd http://www.garmin.com/xmlschemas/ActivityExtension/v1 http://www8.garmin.com/xmlschemas/ActivityExtensionv1.xsd http://www.garmin.com/xmlschemas/AdventuresExtensions/v1 http://www8.garmin.com/xmlschemas/AdventuresExtensionv1.xsd http://www.garmin.com/xmlschemas/PressureExtension/v1 http://www.garmin.com/xmlschemas/PressureExtensionv1.xsd http://www.garmin.com/xmlschemas/TripExtensions/v1 http://www.garmin.com/xmlschemas/TripExtensionsv1.xsd http://www.garmin.com/xmlschemas/TripMetaDataExtensions/v1 http://www.garmin.com/xmlschemas/TripMetaDataExtensionsv1.xsd http://www.garmin.com/xmlschemas/ViaPointTransportationModeExtensions/v1 http://www.garmin.com/xmlschemas/ViaPointTransportationModeExtensionsv1.xsd http://www.garmin.com/xmlschemas/CreationTimeExtension/v1 http://www.garmin.com/xmlschemas/CreationTimeExtensionsv1.xsd http://www.garmin.com/xmlschemas/AccelerationExtension/v1 http://www.garmin.com/xmlschemas/AccelerationExtensionv1.xsd http://www.garmin.com/xmlschemas/PowerExtension/v1 http://www.garmin.com/xmlschemas/PowerExtensionv1.xsd http://www.garmin.com/xmlschemas/VideoExtension/v1 http://www.garmin.com/xmlschemas/VideoExtensionv1.xsd" xmlns="http://www.topografix.com/GPX/1/1" xmlns:xsi="http://www.w3.org/2001/XMLSchema-instance" xmlns:wptx1="http://www.garmin.com/xmlschemas/WaypointExtension/v1" xmlns:gpxtrx="http://www.garmin.com/xmlschemas/GpxExtensions/v3" xmlns:gpxtpx="http://www.garmin.com/xmlschemas/TrackPointExtension/v1" xmlns:gpxx="http://www.garmin.com/xmlschemas/GpxExtensions/v3" xmlns:trp="http://www.garmin.com/xmlschemas/TripExtensions/v1" xmlns:adv="http://www.garmin.com/xmlschemas/AdventuresExtensions/v1" xmlns:prs="http://www.garmin.com/xmlschemas/PressureExtension/v1" xmlns:tmd="http://www.garmin.com/xmlschemas/TripMetaDataExtensions/v1" xmlns:vptm="http://www.garmin.com/xmlschemas/ViaPointTransportationModeExtensions/v1" xmlns:ctx="http://www.garmin.com/xmlschemas/CreationTimeExtension/v1" xmlns:gpxacc="http://www.garmin.com/xmlschemas/AccelerationExtension/v1" xmlns:gpxpx="http://www.garmin.com/xmlschemas/PowerExtension/v1" xmlns:vidx1="http://www.garmin.com/xmlschemas/VideoExtension/v1">

  <metadata>
    <link href="http://www.garmin.com">
      <text>Garmin International</text>
    </link>
    <time>2017-06-19T19:05:34Z</time>
    <bounds maxlat="61.234253961592913" maxlon="7.816131999716163" minlat="60.051160985603929" minlon="5.304044019430876" />
  </metadata>

  <trk>
    <name>Track vom: 19 JUN 2017 09:16</name>
    <extensions>
      <gpxx:TrackExtension>
        <gpxx:DisplayColor>DarkGray</gpxx:DisplayColor>
      </gpxx:TrackExtension>
    </extensions>
    <trkseg>
      <trkpt lat="60.133218979462981" lon="6.625904012471438">
        <ele>436.57999999999998</ele>
        <time>2017-06-19T07:16:50Z</time>
      </trkpt>
      <trkpt lat="60.133309001103044" lon="6.625877022743225">
        <ele>427.92000000000002</ele>
        <time>2017-06-19T07:17:56Z</time>
      </trkpt>
      <trkpt lat="60.133306989446282" lon="6.625875011086464">
        <ele>427.92000000000002</ele>
        <time>2017-06-19T07:18:05Z</time>
      </trkpt>
      <trkpt lat="60.133324004709721" lon="6.626420002430677">
        <ele>426.95999999999998</ele>
        <time>2017-06-19T07:18:14Z</time>
      </trkpt>
      <trkpt lat="60.13304497115314" lon="6.626880001276732">
        <ele>421.19</ele>
        <time>2017-06-19T07:18:25Z</time>
      </trkpt>
      <trkpt lat="60.132836010307074" lon="6.62679098546505">
        <ele>418.79000000000002</ele>
        <time>2017-06-19T07:18:31Z</time>
      </trkpt>
      <trkpt lat="60.132822012528777" lon="6.625875011086464">
        <ele>415.91000000000003</ele>
        <time>2017-06-19T07:18:44Z</time>
      </trkpt>
      <trkpt lat="60.13282997533679" lon="6.625578040257096">
        <ele>416.87</ele>
        <time>2017-06-19T07:18:47Z</time>
      </trkpt>
      <trkpt lat="60.132930977270007" lon="6.624530972912908">
        <ele>417.82999999999998</ele>
        <time>2017-06-19T07:18:57Z</time>
      </trkpt>
      <trkpt lat="60.133169023320079" lon="6.623620027676225">
        <ele>415.91000000000003</ele>
        <time>2017-06-19T07:19:08Z</time>
      </trkpt>
      <trkpt lat="60.133250998333097" lon="6.623393967747688">
        <ele>415.43000000000001</ele>
        <time>2017-06-19T07:19:10Z</time>
      </trkpt>
      <trkpt lat="60.133600020781159" lon="6.622453015297651">
        <ele>415.43000000000001</ele>
        <time>2017-06-19T07:19:17Z</time>
      </trkpt>
      <trkpt lat="60.133628016337752" lon="6.622310020029545">
        <ele>414.94999999999999</ele>
        <time>2017-06-19T07:19:18Z</time>
      </trkpt>
      <trkpt lat="60.133705968037248" lon="6.621498987078667">
        <ele>414.94999999999999</ele>
        <time>2017-06-19T07:19:24Z</time>
      </trkpt>
      <trkpt lat="60.133663974702358" lon="6.619730992242694">
        <ele>414.94999999999999</ele>
        <time>2017-06-19T07:19:37Z</time>
      </trkpt>
      <trkpt lat="60.133387036621571" lon="6.617739032953978">
        <ele>415.91000000000003</ele>
        <time>2017-06-19T07:19:49Z</time>
      </trkpt>
      <trkpt lat="60.133070033043623" lon="6.616101041436195">
        <ele>417.82999999999998</ele>
        <time>2017-06-19T07:20:02Z</time>
      </trkpt>
      <trkpt lat="60.132965007796884" lon="6.615680018439889">
        <ele>418.31</ele>
        <time>2017-06-19T07:20:05Z</time>
      </trkpt>
      <trkpt lat="60.132940029725432" lon="6.615528976544738">
        <ele>418.79000000000002</ele>
        <time>2017-06-19T07:20:06Z</time>
      </trkpt>
      <trkpt lat="60.132873980328441" lon="6.615097979083657">
        <ele>419.75</ele>
        <time>2017-06-19T07:20:09Z</time>
      </trkpt>
      <trkpt lat="60.132841961458325" lon="6.614960012957454">
        <ele>420.23000000000002</ele>
        <time>2017-06-19T07:20:10Z</time>
      </trkpt>
      <trkpt lat="60.132555970922112" lon="6.61387899890542">
        <ele>422.63999999999999</ele>
        <time>2017-06-19T07:20:18Z</time>
      </trkpt>
      <trkpt lat="60.132550019770861" lon="6.613716976717114">
        <ele>422.63999999999999</ele>
        <time>2017-06-19T07:20:19Z</time>
      </trkpt>
      <trkpt lat="60.132559994235635" lon="6.613550009205937">
        <ele>422.63999999999999</ele>
        <time>2017-06-19T07:20:20Z</time>
      </trkpt>
      <trkpt lat="60.132587989792228" lon="6.61338304169476">
        <ele>423.12</ele>
        <time>2017-06-19T07:20:21Z</time>
      </trkpt>
      <trkpt lat="60.132623026147485" lon="6.613211967051029">
        <ele>422.63999999999999</ele>
        <time>2017-06-19T07:20:22Z</time>
      </trkpt>
      <trkpt lat="60.132682034745812" lon="6.612844001501799">
        <ele>422.63999999999999</ele>
        <time>2017-06-19T07:20:24Z</time>
      </trkpt>
      <trkpt lat="60.132693015038967" lon="6.612650966271758">
        <ele>422.16000000000003</ele>
        <time>2017-06-19T07:20:25Z</time>
      </trkpt>
      <trkpt lat="60.132682034745812" lon="6.612454997375608">
        <ele>421.68000000000001</ele>
        <time>2017-06-19T07:20:26Z</time>
      </trkpt>
      <trkpt lat="60.132644986733794" lon="6.612255005165935">
        <ele>420.70999999999998</ele>
        <time>2017-06-19T07:20:27Z</time>
      </trkpt>
      <trkpt lat="60.132597964257002" lon="6.612060964107513">
        <ele>419.75</ele>
        <time>2017-06-19T07:20:28Z</time>
      </trkpt>
      <trkpt lat="60.132540967315435" lon="6.611884022131562">
        <ele>418.79000000000002</ele>
        <time>2017-06-19T07:20:29Z</time>
      </trkpt>
      <trkpt lat="60.132481958717108" lon="6.611717976629734">
        <ele>418.31</ele>
        <time>2017-06-19T07:20:30Z</time>
      </trkpt>
      <trkpt lat="60.132407024502754" lon="6.611581016331911">
        <ele>416.87</ele>
        <time>2017-06-19T07:20:31Z</time>
      </trkpt>
      <trkpt lat="60.132318008691072" lon="6.611457969993353">
        <ele>416.38999999999999</ele>
        <time>2017-06-19T07:20:32Z</time>
      </trkpt>
      <trkpt lat="60.132228992879391" lon="6.611350011080504">
        <ele>415.91000000000003</ele>
        <time>2017-06-19T07:20:33Z</time>
      </trkpt>
      <trkpt lat="60.131618035957217" lon="6.610141005367041">
        <ele>409.18000000000001</ele>
        <time>2017-06-19T07:20:42Z</time>
      </trkpt>
      <trkpt lat="60.131501024588943" lon="6.609643958508968">
        <ele>406.76999999999998</ele>
        <time>2017-06-19T07:20:45Z</time>
      </trkpt>
      <trkpt lat="60.131486020982265" lon="6.609455030411482">
        <ele>406.29000000000002</ele>
        <time>2017-06-19T07:20:46Z</time>
      </trkpt>
      <trkpt lat="60.131492977961898" lon="6.609263001009822">
        <ele>405.81</ele>
        <time>2017-06-19T07:20:47Z</time>
      </trkpt>
      <trkpt lat="60.131607977673411" lon="6.6085509583354">
        <ele>402.93000000000001</ele>
        <time>2017-06-19T07:20:51Z</time>
      </trkpt>
      <trkpt lat="60.131758013740182" lon="6.608101017773151">
        <ele>400.05000000000001</ele>
        <time>2017-06-19T07:20:54Z</time>
      </trkpt>
      <trkpt lat="60.131789026781917" lon="6.607928015291691">
        <ele>399.56999999999999</ele>
        <time>2017-06-19T07:20:55Z</time>
      </trkpt>
      <trkpt lat="60.131793972104788" lon="6.607737997546792">
        <ele>399.07999999999998</ele>
        <time>2017-06-19T07:20:56Z</time>
      </trkpt>
      <trkpt lat="60.131791038438678" lon="6.607550997287035">
        <ele>399.07999999999998</ele>
        <time>2017-06-19T07:20:57Z</time>
      </trkpt>
      <trkpt lat="60.131780980154872" lon="6.607355028390884">
        <ele>399.07999999999998</ele>
        <time>2017-06-19T07:20:58Z</time>
      </trkpt>
      <trkpt lat="60.13175399042666" lon="6.607135003432632">
        <ele>398.60000000000002</ele>
        <time>2017-06-19T07:20:59Z</time>
      </trkpt>
      <trkpt lat="60.13119600713253" lon="6.604901980608702">
        <ele>389.47000000000003</ele>
        <time>2017-06-19T07:21:11Z</time>
      </trkpt>
      <trkpt lat="60.130468038842082" lon="6.603356022387743">
        <ele>383.22000000000003</ele>
        <time>2017-06-19T07:21:22Z</time>
      </trkpt>
      <trkpt lat="60.130145000293851" lon="6.60268203355372">
        <ele>380.33999999999997</ele>
        <time>2017-06-19T07:21:27Z</time>
      </trkpt>
      <trkpt lat="60.130076017230749" lon="6.602569967508316">
        <ele>379.86000000000001</ele>
        <time>2017-06-19T07:21:28Z</time>
      </trkpt>
      <trkpt lat="60.12999496422708" lon="6.60249100998044">
        <ele>379.38</ele>
        <time>2017-06-19T07:21:29Z</time>
      </trkpt>
      <trkpt lat="60.129902008920908" lon="6.602432001382113">
        <ele>378.89999999999998</ele>
        <time>2017-06-19T07:21:30Z</time>
      </trkpt>
      <trkpt lat="60.129806958138943" lon="6.602385984733701">
        <ele>378.42000000000002</ele>
        <time>2017-06-19T07:21:31Z</time>
      </trkpt>
      <trkpt lat="60.129527002573013" lon="6.602159002795816">
        <ele>376.49000000000001</ele>
        <time>2017-06-19T07:21:34Z</time>
      </trkpt>
      <trkpt lat="60.129444021731615" lon="6.602047020569444">
        <ele>376.00999999999999</ele>
        <time>2017-06-19T07:21:35Z</time>
      </trkpt>
      <trkpt lat="60.129275964573026" lon="6.601854991167784">
        <ele>374.56999999999999</ele>
        <time>2017-06-19T07:21:37Z</time>
      </trkpt>
      <trkpt lat="60.129184015095234" lon="6.601800005882978">
        <ele>374.56999999999999</ele>
        <time>2017-06-19T07:21:38Z</time>
      </trkpt>
      <trkpt lat="60.129099022597075" lon="6.60176002420485">
        <ele>374.56999999999999</ele>
        <time>2017-06-19T07:21:39Z</time>
      </trkpt>
      <trkpt lat="60.128183970227838" lon="6.601062985137105">
        <ele>370.73000000000002</ele>
        <time>2017-06-19T07:21:50Z</time>
      </trkpt>
      <trkpt lat="60.127365980297327" lon="6.600509025156498">
        <ele>371.20999999999998</ele>
        <time>2017-06-19T07:22:00Z</time>
      </trkpt>
      <trkpt lat="60.127299008890986" lon="6.600436018779874">
        <ele>371.20999999999998</ele>
        <time>2017-06-19T07:22:01Z</time>
      </trkpt>
      <trkpt lat="60.127243017777801" lon="6.600338034331799">
        <ele>371.20999999999998</ele>
        <time>2017-06-19T07:22:02Z</time>
      </trkpt>
      <trkpt lat="60.127197001129389" lon="6.600221022963524">
        <ele>371.20999999999998</ele>
        <time>2017-06-19T07:22:03Z</time>
      </trkpt>
      <trkpt lat="60.127167999744415" lon="6.600099988281727">
        <ele>371.20999999999998</ele>
        <time>2017-06-19T07:22:04Z</time>
      </trkpt>
      <trkpt lat="60.127159031108022" lon="6.60002295859158">
        <ele>371.69</ele>
        <time>2017-06-19T07:22:09Z</time>
      </trkpt>
      <trkpt lat="60.127148972824216" lon="6.599803017452359">
        <ele>372.17000000000002</ele>
        <time>2017-06-19T07:22:23Z</time>
      </trkpt>
      <trkpt lat="60.127123994752765" lon="6.599424993619323">
        <ele>372.64999999999998</ele>
        <time>2017-06-19T07:22:26Z</time>
      </trkpt>
      <trkpt lat="60.127136986702681" lon="6.599295996129513">
        <ele>372.64999999999998</ele>
        <time>2017-06-19T07:22:27Z</time>
      </trkpt>
      <trkpt lat="60.12715601362288" lon="6.599171021953225">
        <ele>372.64999999999998</ele>
        <time>2017-06-19T07:22:28Z</time>
      </trkpt>
      <trkpt lat="60.127150984480977" lon="6.598907997831702">
        <ele>373.13</ele>
        <time>2017-06-19T07:22:31Z</time>
      </trkpt>
      <trkpt lat="60.127148972824216" lon="6.598819987848401">
        <ele>373.13</ele>
        <time>2017-06-19T07:22:32Z</time>
      </trkpt>
      <trkpt lat="60.127059035003185" lon="6.598815964534879">
        <ele>373.13</ele>
        <time>2017-06-19T07:22:33Z</time>
      </trkpt>
      <trkpt lat="60.126892989501357" lon="6.59877497702837">
        <ele>373.61000000000001</ele>
        <time>2017-06-19T07:22:34Z</time>
      </trkpt>
      <trkpt lat="60.126768015325069" lon="6.598656959831715">
        <ele>373.61000000000001</ele>
        <time>2017-06-19T07:22:35Z</time>
      </trkpt>
      <trkpt lat="60.126694003120065" lon="6.598685039207339">
        <ele>373.61000000000001</ele>
        <time>2017-06-19T07:22:36Z</time>
      </trkpt>
      <trkpt lat="60.126614039763808" lon="6.598717980086803">
        <ele>374.08999999999997</ele>
        <time>2017-06-19T07:22:37Z</time>
      </trkpt>
      <trkpt lat="60.126246996223927" lon="6.598519999533892">
        <ele>374.08999999999997</ele>
        <time>2017-06-19T07:22:42Z</time>
      </trkpt>
      <trkpt lat="60.126183964312077" lon="6.598343979567289">
        <ele>374.56999999999999</ele>
        <time>2017-06-19T07:22:43Z</time>
      </trkpt>
      <trkpt lat="60.125476028770208" lon="6.597251985222101">
        <ele>374.56999999999999</ele>
        <time>2017-06-19T07:22:55Z</time>
      </trkpt>
      <trkpt lat="60.125248963013291" lon="6.596929030492902">
        <ele>372.64999999999998</ele>
        <time>2017-06-19T07:22:59Z</time>
      </trkpt>
      <trkpt lat="60.125196995213628" lon="6.596881002187729">
        <ele>372.17000000000002</ele>
        <time>2017-06-19T07:23:00Z</time>
      </trkpt>
      <trkpt lat="60.125142009928823" lon="6.596856024116278">
        <ele>372.17000000000002</ele>
        <time>2017-06-19T07:23:01Z</time>
      </trkpt>
      <trkpt lat="60.12464496307075" lon="6.596547989174724">
        <ele>368.80000000000001</ele>
        <time>2017-06-19T07:23:09Z</time>
      </trkpt>
      <trkpt lat="60.124573968350887" lon="6.596455033868551">
        <ele>368.31999999999999</ele>
        <time>2017-06-19T07:23:10Z</time>
      </trkpt>
      <trkpt lat="60.124506996944547" lon="6.596339028328657">
        <ele>368.31999999999999</ele>
        <time>2017-06-19T07:23:11Z</time>
      </trkpt>
      <trkpt lat="60.124103995040059" lon="6.595389023423195">
        <ele>364.95999999999998</ele>
        <time>2017-06-19T07:23:18Z</time>
      </trkpt>
      <trkpt lat="60.123947001993656" lon="6.594966994598508">
        <ele>363.51999999999998</ele>
        <time>2017-06-19T07:23:21Z</time>
      </trkpt>
      <trkpt lat="60.123881036415696" lon="6.594865992665291">
        <ele>363.04000000000002</ele>
        <time>2017-06-19T07:23:22Z</time>
      </trkpt>
      <trkpt lat="60.123808030039072" lon="6.594787035137415">
        <ele>362.55000000000001</ele>
        <time>2017-06-19T07:23:23Z</time>
      </trkpt>
      <trkpt lat="60.123222973197699" lon="6.594327036291361">
        <ele>359.67000000000002</ele>
        <time>2017-06-19T07:23:30Z</time>
      </trkpt>
      <trkpt lat="60.123146027326584" lon="6.594236008822918">
        <ele>359.19</ele>
        <time>2017-06-19T07:23:31Z</time>
      </trkpt>
      <trkpt lat="60.123072015121579" lon="6.594146993011236">
        <ele>359.19</ele>
        <time>2017-06-19T07:23:32Z</time>
      </trkpt>
      <trkpt lat="60.12300998903811" lon="6.594045991078019">
        <ele>358.23000000000002</ele>
        <time>2017-06-19T07:23:33Z</time>
      </trkpt>
      <trkpt lat="60.122951986268163" lon="6.593931997194886">
        <ele>357.75</ele>
        <time>2017-06-19T07:23:34Z</time>
      </trkpt>
      <trkpt lat="60.12290203012526" lon="6.593797970563173">
        <ele>357.26999999999998</ele>
        <time>2017-06-19T07:23:35Z</time>
      </trkpt>
      <trkpt lat="60.12285802513361" lon="6.593647012487054">
        <ele>357.26999999999998</ele>
        <time>2017-06-19T07:23:36Z</time>
      </trkpt>
      <trkpt lat="60.122814020141959" lon="6.593478033319116">
        <ele>356.79000000000002</ele>
        <time>2017-06-19T07:23:37Z</time>
      </trkpt>
      <trkpt lat="60.122763980180025" lon="6.593318022787571">
        <ele>356.31</ele>
        <time>2017-06-19T07:23:38Z</time>
      </trkpt>
      <trkpt lat="60.122703965753317" lon="6.593182990327478">
        <ele>355.33999999999997</ele>
        <time>2017-06-19T07:23:39Z</time>
      </trkpt>
      <trkpt lat="60.122631965205073" lon="6.593071008101106">
        <ele>355.33999999999997</ele>
        <time>2017-06-19T07:23:40Z</time>
      </trkpt>
      <trkpt lat="60.122554013505578" lon="6.592980986461043">
        <ele>354.86000000000001</ele>
        <time>2017-06-19T07:23:41Z</time>
      </trkpt>
      <trkpt lat="60.122470026835799" lon="6.592901023104787">
        <ele>354.38</ele>
        <time>2017-06-19T07:23:42Z</time>
      </trkpt>
      <trkpt lat="60.122244972735643" lon="6.592602040618658">
        <ele>353.42000000000002</ele>
        <time>2017-06-19T07:23:45Z</time>
      </trkpt>
      <trkpt lat="60.122198034077883" lon="6.592450998723507">
        <ele>352.45999999999998</ele>
        <time>2017-06-19T07:23:46Z</time>
      </trkpt>
      <trkpt lat="60.122162997722626" lon="6.592277996242046">
        <ele>351.5</ele>
        <time>2017-06-19T07:23:47Z</time>
      </trkpt>
      <trkpt lat="60.122014973312616" lon="6.591787990182638">
        <ele>349.10000000000002</ele>
        <time>2017-06-19T07:23:50Z</time>
      </trkpt>
      <trkpt lat="60.121662011370063" lon="6.591042000800371">
        <ele>344.76999999999998</ele>
        <time>2017-06-19T07:23:55Z</time>
      </trkpt>
      <trkpt lat="60.121599985286593" lon="6.590864975005388">
        <ele>343.81</ele>
        <time>2017-06-19T07:23:56Z</time>
      </trkpt>
      <trkpt lat="60.120945023372769" lon="6.588981980457902">
        <ele>337.07999999999998</ele>
        <time>2017-06-19T07:24:06Z</time>
      </trkpt>
      <trkpt lat="60.120727010071278" lon="6.588434977456927">
        <ele>334.68000000000001</ele>
        <time>2017-06-19T07:24:09Z</time>
      </trkpt>
      <trkpt lat="60.120636988431215" lon="6.588305979967117">
        <ele>334.19999999999999</ele>
        <time>2017-06-19T07:24:10Z</time>
      </trkpt>
      <trkpt lat="60.120546966791153" lon="6.588206989690661">
        <ele>333.70999999999998</ele>
        <time>2017-06-19T07:24:11Z</time>
      </trkpt>
      <trkpt lat="60.120182018727064" lon="6.587813040241599">
        <ele>332.75</ele>
        <time>2017-06-19T07:24:15Z</time>
      </trkpt>
      <trkpt lat="60.120103983208537" lon="6.587695023044944">
        <ele>332.26999999999998</ele>
        <time>2017-06-19T07:24:16Z</time>
      </trkpt>
      <trkpt lat="60.120033994317055" lon="6.587565019726753">
        <ele>331.79000000000002</ele>
        <time>2017-06-19T07:24:17Z</time>
      </trkpt>
      <trkpt lat="60.119971968233585" lon="6.587426969781518">
        <ele>331.79000000000002</ele>
        <time>2017-06-19T07:24:18Z</time>
      </trkpt>
      <trkpt lat="60.119922012090683" lon="6.587267965078354">
        <ele>330.82999999999998</ele>
        <time>2017-06-19T07:24:19Z</time>
      </trkpt>
      <trkpt lat="60.119899967685342" lon="6.587080964818597">
        <ele>329.87</ele>
        <time>2017-06-19T07:24:20Z</time>
      </trkpt>
      <trkpt lat="60.119892004877329" lon="6.58689396455884">
        <ele>328.91000000000003</ele>
        <time>2017-06-19T07:24:21Z</time>
      </trkpt>
      <trkpt lat="60.119901979342103" lon="6.586702018976212">
        <ele>327.94999999999999</ele>
        <time>2017-06-19T07:24:22Z</time>
      </trkpt>
      <trkpt lat="60.119932992383838" lon="6.586504960432649">
        <ele>326.99000000000001</ele>
        <time>2017-06-19T07:24:23Z</time>
      </trkpt>
      <trkpt lat="60.119973979890347" lon="6.586311003193259">
        <ele>326.5</ele>
        <time>2017-06-19T07:24:24Z</time>
      </trkpt>
      <trkpt lat="60.120052015408874" lon="6.585930967703462">
        <ele>325.06</ele>
        <time>2017-06-19T07:24:26Z</time>
      </trkpt>
      <trkpt lat="60.120072970166802" lon="6.585734998807311">
        <ele>324.57999999999998</ele>
        <time>2017-06-19T07:24:27Z</time>
      </trkpt>
      <trkpt lat="60.120085962116718" lon="6.585509022697806">
        <ele>325.06</ele>
        <time>2017-06-19T07:24:28Z</time>
      </trkpt>
      <trkpt lat="60.120087973773479" lon="6.585290003567934">
        <ele>324.57999999999998</ele>
        <time>2017-06-19T07:24:29Z</time>
      </trkpt>
      <trkpt lat="60.120084034278989" lon="6.585063021630049">
        <ele>324.10000000000002</ele>
        <time>2017-06-19T07:24:30Z</time>
      </trkpt>
      <trkpt lat="60.120130972936749" lon="6.582334963604808">
        <ele>311.12</ele>
        <time>2017-06-19T07:24:42Z</time>
      </trkpt>
      <trkpt lat="60.120065007358789" lon="6.581686958670616">
        <ele>308.24000000000001</ele>
        <time>2017-06-19T07:24:45Z</time>
      </trkpt>
      <trkpt lat="60.119975991547108" lon="6.58096301369369">
        <ele>304.88</ele>
        <time>2017-06-19T07:24:49Z</time>
      </trkpt>
      <trkpt lat="60.119909020140767" lon="6.580508965998888">
        <ele>303.43000000000001</ele>
        <time>2017-06-19T07:24:52Z</time>
      </trkpt>
      <trkpt lat="60.119895022362471" lon="6.580392038449645">
        <ele>303.43000000000001</ele>
        <time>2017-06-19T07:24:53Z</time>
      </trkpt>
      <trkpt lat="60.119845988228917" lon="6.58029799349606">
        <ele>302.47000000000003</ele>
        <time>2017-06-19T07:24:54Z</time>
      </trkpt>
      <trkpt lat="60.119779016822577" lon="6.58023102208972">
        <ele>301.50999999999999</ele>
        <time>2017-06-19T07:24:55Z</time>
      </trkpt>
      <trkpt lat="60.119702992960811" lon="6.580178970471025">
        <ele>301.02999999999997</ele>
        <time>2017-06-19T07:24:56Z</time>
      </trkpt>
      <trkpt lat="60.119619006291032" lon="6.580137982964516">
        <ele>299.58999999999997</ele>
        <time>2017-06-19T07:24:57Z</time>
      </trkpt>
      <trkpt lat="60.119408033788204" lon="6.579975038766861">
        <ele>297.18000000000001</ele>
        <time>2017-06-19T07:25:00Z</time>
      </trkpt>
      <trkpt lat="60.119353970512748" lon="6.579902032390237">
        <ele>296.69999999999999</ele>
        <time>2017-06-19T07:25:01Z</time>
      </trkpt>
      <trkpt lat="60.119312983006239" lon="6.579806981608272">
        <ele>296.22000000000003</ele>
        <time>2017-06-19T07:25:02Z</time>
      </trkpt>
      <trkpt lat="60.119286999106407" lon="6.5796759724617">
        <ele>295.74000000000001</ele>
        <time>2017-06-19T07:25:03Z</time>
      </trkpt>
      <trkpt lat="60.119288004934788" lon="6.579517973586917">
        <ele>294.77999999999997</ele>
        <time>2017-06-19T07:25:04Z</time>
      </trkpt>
      <trkpt lat="60.119303008541465" lon="6.579340025782585">
        <ele>294.30000000000001</ele>
        <time>2017-06-19T07:25:05Z</time>
      </trkpt>
      <trkpt lat="60.119331004098058" lon="6.579144978895783">
        <ele>293.33999999999997</ele>
        <time>2017-06-19T07:25:06Z</time>
      </trkpt>
      <trkpt lat="60.119576007127762" lon="6.578016020357609">
        <ele>286.61000000000001</ele>
        <time>2017-06-19T07:25:12Z</time>
      </trkpt>
      <trkpt lat="60.119604002684355" lon="6.577847041189671">
        <ele>285.64999999999998</ele>
        <time>2017-06-19T07:25:13Z</time>
      </trkpt>
      <trkpt lat="60.119605008512735" lon="6.577680995687842">
        <ele>284.69</ele>
        <time>2017-06-19T07:25:14Z</time>
      </trkpt>
      <trkpt lat="60.119582964107394" lon="6.577534982934594">
        <ele>284.20999999999998</ele>
        <time>2017-06-19T07:25:15Z</time>
      </trkpt>
      <trkpt lat="60.119541976600885" lon="6.577405985444784">
        <ele>283.25</ele>
        <time>2017-06-19T07:25:16Z</time>
      </trkpt>
      <trkpt lat="60.119484979659319" lon="6.577290985733271">
        <ele>282.76999999999998</ele>
        <time>2017-06-19T07:25:17Z</time>
      </trkpt>
      <trkpt lat="60.119431000202894" lon="6.577186966314912">
        <ele>282.27999999999997</ele>
        <time>2017-06-19T07:25:18Z</time>
      </trkpt>
      <trkpt lat="60.119389006868005" lon="6.577066015452147">
        <ele>281.80000000000001</ele>
        <time>2017-06-19T07:25:19Z</time>
      </trkpt>
      <trkpt lat="60.119372997432947" lon="6.576931988820434">
        <ele>281.31999999999999</ele>
        <time>2017-06-19T07:25:20Z</time>
      </trkpt>
      <trkpt lat="60.119376014918089" lon="6.57679402269423">
        <ele>280.83999999999997</ele>
        <time>2017-06-19T07:25:21Z</time>
      </trkpt>
      <trkpt lat="60.11939998716116" lon="6.576658990234137">
        <ele>279.88</ele>
        <time>2017-06-19T07:25:22Z</time>
      </trkpt>
      <trkpt lat="60.11944298632443" lon="6.576534016057849">
        <ele>279.39999999999998</ele>
        <time>2017-06-19T07:25:23Z</time>
      </trkpt>
      <trkpt lat="60.119493026286364" lon="6.576421028003097">
        <ele>278.44</ele>
        <time>2017-06-19T07:25:24Z</time>
      </trkpt>
      <trkpt lat="60.119563015177846" lon="6.576319020241499">
        <ele>277.48000000000002</ele>
        <time>2017-06-19T07:25:25Z</time>
      </trkpt>
      <trkpt lat="60.119635015726089" lon="6.576211983337998">
        <ele>276.51999999999998</ele>
        <time>2017-06-19T07:25:26Z</time>
      </trkpt>
      <trkpt lat="60.119767030701041" lon="6.575937978923321">
        <ele>274.11000000000001</ele>
        <time>2017-06-19T07:25:28Z</time>
      </trkpt>
      <trkpt lat="60.119967022910714" lon="6.575478985905647">
        <ele>269.79000000000002</ele>
        <time>2017-06-19T07:25:31Z</time>
      </trkpt>
      <trkpt lat="60.120048997923732" lon="6.575331967324019">
        <ele>268.82999999999998</ele>
        <time>2017-06-19T07:25:32Z</time>
      </trkpt>
      <trkpt lat="60.120138013735414" lon="6.575196012854576">
        <ele>267.38</ele>
        <time>2017-06-19T07:25:33Z</time>
      </trkpt>
      <trkpt lat="60.120593989267945" lon="6.574621014297009">
        <ele>261.13999999999999</ele>
        <time>2017-06-19T07:25:38Z</time>
      </trkpt>
      <trkpt lat="60.120665989816189" lon="6.574487993493676">
        <ele>260.17000000000002</ele>
        <time>2017-06-19T07:25:39Z</time>
      </trkpt>
      <trkpt lat="60.120727010071278" lon="6.574337035417557">
        <ele>259.20999999999998</ele>
        <time>2017-06-19T07:25:40Z</time>
      </trkpt>
      <trkpt lat="60.120780989527702" lon="6.574175013229251">
        <ele>258.25</ele>
        <time>2017-06-19T07:25:41Z</time>
      </trkpt>
      <trkpt lat="60.120818037539721" lon="6.57400201074779">
        <ele>257.29000000000002</ele>
        <time>2017-06-19T07:25:42Z</time>
      </trkpt>
      <trkpt lat="60.120833963155746" lon="6.573822973296046">
        <ele>256.32999999999998</ele>
        <time>2017-06-19T07:25:43Z</time>
      </trkpt>
      <trkpt lat="60.120828012004495" lon="6.573656005784869">
        <ele>255.37</ele>
        <time>2017-06-19T07:25:44Z</time>
      </trkpt>
      <trkpt lat="60.120804039761424" lon="6.57348602078855">
        <ele>254.41</ele>
        <time>2017-06-19T07:25:45Z</time>
      </trkpt>
      <trkpt lat="60.120775038376451" lon="6.573330033570528">
        <ele>252.96000000000001</ele>
        <time>2017-06-19T07:25:46Z</time>
      </trkpt>
      <trkpt lat="60.120745031163096" lon="6.572896018624306">
        <ele>250.56</ele>
        <time>2017-06-19T07:25:49Z</time>
      </trkpt>
      <trkpt lat="60.120771015062928" lon="6.572760986164212">
        <ele>249.59999999999999</ele>
        <time>2017-06-19T07:25:50Z</time>
      </trkpt>
      <trkpt lat="60.120816025882959" lon="6.572630982846022">
        <ele>249.12</ele>
        <time>2017-06-19T07:25:51Z</time>
      </trkpt>
      <trkpt lat="60.120874028652906" lon="6.572491005063057">
        <ele>248.16</ele>
        <time>2017-06-19T07:25:52Z</time>
      </trkpt>
      <trkpt lat="60.120935970917344" lon="6.572354966774583">
        <ele>247.19999999999999</ele>
        <time>2017-06-19T07:25:53Z</time>
      </trkpt>
      <trkpt lat="60.120991040021181" lon="6.572201997041702">
        <ele>246.22999999999999</ele>
        <time>2017-06-19T07:25:54Z</time>
      </trkpt>
      <trkpt lat="60.1210349611938" lon="6.572031006217003">
        <ele>244.78999999999999</ele>
        <time>2017-06-19T07:25:55Z</time>
      </trkpt>
      <trkpt lat="60.121069997549057" lon="6.571843000128865">
        <ele>243.83000000000001</ele>
        <time>2017-06-19T07:25:56Z</time>
      </trkpt>
      <trkpt lat="60.121162030845881" lon="6.571031967177987">
        <ele>239.99000000000001</ele>
        <time>2017-06-19T07:26:00Z</time>
      </trkpt>
      <trkpt lat="60.121159013360739" lon="6.570835998281837">
        <ele>239.02000000000001</ele>
        <time>2017-06-19T07:26:01Z</time>
      </trkpt>
      <trkpt lat="60.121144009754062" lon="6.570643968880177">
        <ele>238.06</ele>
        <time>2017-06-19T07:26:02Z</time>
      </trkpt>
      <trkpt lat="60.121123977005482" lon="6.570297041907907">
        <ele>235.66</ele>
        <time>2017-06-19T07:26:04Z</time>
      </trkpt>
      <trkpt lat="60.121125988662243" lon="6.570115992799401">
        <ele>234.69999999999999</ele>
        <time>2017-06-19T07:26:05Z</time>
      </trkpt>
      <trkpt lat="60.121144009754062" lon="6.569923041388392">
        <ele>233.74000000000001</ele>
        <time>2017-06-19T07:26:06Z</time>
      </trkpt>
      <trkpt lat="60.121350958943367" lon="6.56762296333909">
        <ele>222.19999999999999</ele>
        <time>2017-06-19T07:26:18Z</time>
      </trkpt>
      <trkpt lat="60.121414996683598" lon="6.56712600030005">
        <ele>220.28</ele>
        <time>2017-06-19T07:26:22Z</time>
      </trkpt>
      <trkpt lat="60.121390018612146" lon="6.567055005580187">
        <ele>220.28</ele>
        <time>2017-06-19T07:26:23Z</time>
      </trkpt>
      <trkpt lat="60.121354982256889" lon="6.567005971446633">
        <ele>219.80000000000001</ele>
        <time>2017-06-19T07:26:24Z</time>
      </trkpt>
      <trkpt lat="60.121309971436858" lon="6.566989040002227">
        <ele>219.31999999999999</ele>
        <time>2017-06-19T07:26:25Z</time>
      </trkpt>
      <trkpt lat="60.121261021122336" lon="6.567006977275014">
        <ele>218.84</ele>
        <time>2017-06-19T07:26:26Z</time>
      </trkpt>
      <trkpt lat="60.121221961453557" lon="6.567076966166496">
        <ele>217.88</ele>
        <time>2017-06-19T07:26:27Z</time>
      </trkpt>
      <trkpt lat="60.121196983382106" lon="6.567193977534771">
        <ele>216.91</ele>
        <time>2017-06-19T07:26:28Z</time>
      </trkpt>
      <trkpt lat="60.121190026402473" lon="6.567331021651626">
        <ele>216.43000000000001</ele>
        <time>2017-06-19T07:26:29Z</time>
      </trkpt>
      <trkpt lat="60.121189020574093" lon="6.567487008869648">
        <ele>215.94999999999999</ele>
        <time>2017-06-19T07:26:30Z</time>
      </trkpt>
      <trkpt lat="60.121180973947048" lon="6.56783502548933">
        <ele>214.50999999999999</ele>
        <time>2017-06-19T07:26:32Z</time>
      </trkpt>
      <trkpt lat="60.121155995875597" lon="6.568013979122043">
        <ele>214.03</ele>
        <time>2017-06-19T07:26:33Z</time>
      </trkpt>
      <trkpt lat="60.12111802585423" lon="6.568191004917026">
        <ele>213.06999999999999</ele>
        <time>2017-06-19T07:26:34Z</time>
      </trkpt>
      <trkpt lat="60.121072009205818" lon="6.568364007398486">
        <ele>212.59</ele>
        <time>2017-06-19T07:26:35Z</time>
      </trkpt>
      <trkpt lat="60.121022975072265" lon="6.568529969081283">
        <ele>212.11000000000001</ele>
        <time>2017-06-19T07:26:36Z</time>
      </trkpt>
      <trkpt lat="60.120391985401511" lon="6.570929037407041">
        <ele>201.05000000000001</ele>
        <time>2017-06-19T07:26:51Z</time>
      </trkpt>
      <trkpt lat="60.120344962924719" lon="6.571061974391341">
        <ele>200.56999999999999</ele>
        <time>2017-06-19T07:26:52Z</time>
      </trkpt>
      <trkpt lat="60.120300035923719" lon="6.571157025173307">
        <ele>199.61000000000001</ele>
        <time>2017-06-19T07:26:53Z</time>
      </trkpt>
      <trkpt lat="60.120060984045267" lon="6.571557009592652">
        <ele>197.21000000000001</ele>
        <time>2017-06-19T07:26:57Z</time>
      </trkpt>
      <trkpt lat="60.119985966011882" lon="6.571647031232715">
        <ele>196.25</ele>
        <time>2017-06-19T07:26:58Z</time>
      </trkpt>
      <trkpt lat="60.11942395940423" lon="6.572172995656729">
        <ele>190.96000000000001</ele>
        <time>2017-06-19T07:27:06Z</time>
      </trkpt>
      <trkpt lat="60.11886103078723" lon="6.572696026414633">
        <ele>184.71000000000001</ele>
        <time>2017-06-19T07:27:13Z</time>
      </trkpt>
      <trkpt lat="60.118802022188902" lon="6.572804991155863">
        <ele>183.75</ele>
        <time>2017-06-19T07:27:14Z</time>
      </trkpt>
      <trkpt lat="60.118751982226968" lon="6.572936000302434">
        <ele>183.27000000000001</ele>
        <time>2017-06-19T07:27:15Z</time>
      </trkpt>
      <trkpt lat="60.118717029690742" lon="6.573088970035315">
        <ele>182.31</ele>
        <time>2017-06-19T07:27:16Z</time>
      </trkpt>
      <trkpt lat="60.11868903413415" lon="6.573259960860014">
        <ele>181.34999999999999</ele>
        <time>2017-06-19T07:27:17Z</time>
      </trkpt>
      <trkpt lat="60.118662966415286" lon="6.573436986654997">
        <ele>180.38</ele>
        <time>2017-06-19T07:27:18Z</time>
      </trkpt>
      <trkpt lat="60.118446964770555" lon="6.574462009593844">
        <ele>175.58000000000001</ele>
        <time>2017-06-19T07:27:24Z</time>
      </trkpt>
      <trkpt lat="60.118386028334498" lon="6.574609028175473">
        <ele>174.62</ele>
        <time>2017-06-19T07:27:25Z</time>
      </trkpt>
      <trkpt lat="60.118319978937507" lon="6.574743976816535">
        <ele>174.13999999999999</ele>
        <time>2017-06-19T07:27:26Z</time>
      </trkpt>
      <trkpt lat="60.117449015378952" lon="6.576506020501256">
        <ele>164.52000000000001</ele>
        <time>2017-06-19T07:27:41Z</time>
      </trkpt>
      <trkpt lat="60.117304008454084" lon="6.576980017125607">
        <ele>162.12</ele>
        <time>2017-06-19T07:27:45Z</time>
      </trkpt>
      <trkpt lat="60.117252040654421" lon="6.577033996582031">
        <ele>161.16</ele>
        <time>2017-06-19T07:27:46Z</time>
      </trkpt>
      <trkpt lat="60.117194959893823" lon="6.577017987146974">
        <ele>159.72</ele>
        <time>2017-06-19T07:27:47Z</time>
      </trkpt>
      <trkpt lat="60.117153972387314" lon="6.576947998255491">
        <ele>158.75</ele>
        <time>2017-06-19T07:27:48Z</time>
      </trkpt>
      <trkpt lat="60.117137962952256" lon="6.576838027685881">
        <ele>157.78999999999999</ele>
        <time>2017-06-19T07:27:49Z</time>
      </trkpt>
      <trkpt lat="60.117150032892823" lon="6.576715987175703">
        <ele>156.83000000000001</ele>
        <time>2017-06-19T07:27:50Z</time>
      </trkpt>
      <trkpt lat="60.117190014570951" lon="6.576586989685893">
        <ele>155.87</ele>
        <time>2017-06-19T07:27:51Z</time>
      </trkpt>
      <trkpt lat="60.117247011512518" lon="6.576451035216451">
        <ele>154.91</ele>
        <time>2017-06-19T07:27:52Z</time>
      </trkpt>
      <trkpt lat="60.117309959605336" lon="6.576314996927977">
        <ele>153.94999999999999</ele>
        <time>2017-06-19T07:27:53Z</time>
      </trkpt>
      <trkpt lat="60.117599973455071" lon="6.575597003102303">
        <ele>150.09999999999999</ele>
        <time>2017-06-19T07:27:58Z</time>
      </trkpt>
      <trkpt lat="60.117620006203651" lon="6.575437998399139">
        <ele>149.62</ele>
        <time>2017-06-19T07:27:59Z</time>
      </trkpt>
      <trkpt lat="60.117619000375271" lon="6.575279999524355">
        <ele>149.13999999999999</ele>
        <time>2017-06-19T07:28:00Z</time>
      </trkpt>
      <trkpt lat="60.117601985111833" lon="6.575125018134713">
        <ele>148.66</ele>
        <time>2017-06-19T07:28:01Z</time>
      </trkpt>
      <trkpt lat="60.117567032575607" lon="6.574970036745071">
        <ele>147.69999999999999</ele>
        <time>2017-06-19T07:28:02Z</time>
      </trkpt>
      <trkpt lat="60.117534007877111" lon="6.574821006506681">
        <ele>147.22</ele>
        <time>2017-06-19T07:28:03Z</time>
      </trkpt>
      <trkpt lat="60.117519004270434" lon="6.574680022895336">
        <ele>146.25999999999999</ele>
        <time>2017-06-19T07:28:04Z</time>
      </trkpt>
      <trkpt lat="60.117525961250067" lon="6.574551025405526">
        <ele>145.78</ele>
        <time>2017-06-19T07:28:05Z</time>
      </trkpt>
      <trkpt lat="60.117558985948563" lon="6.574418004602194">
        <ele>145.30000000000001</ele>
        <time>2017-06-19T07:28:06Z</time>
      </trkpt>
      <trkpt lat="60.117606008425355" lon="6.5742829721421">
        <ele>143.84999999999999</ele>
        <time>2017-06-19T07:28:07Z</time>
      </trkpt>
      <trkpt lat="60.117666022852063" lon="6.574156992137432">
        <ele>142.88999999999999</ele>
        <time>2017-06-19T07:28:08Z</time>
      </trkpt>
      <trkpt lat="60.117726037278771" lon="6.574033023789525">
        <ele>141.93000000000001</ele>
        <time>2017-06-19T07:28:09Z</time>
      </trkpt>
      <trkpt lat="60.117781022563577" lon="6.573906959965825">
        <ele>140.97</ele>
        <time>2017-06-19T07:28:10Z</time>
      </trkpt>
      <trkpt lat="60.117818992584944" lon="6.573771005496383">
        <ele>140.49000000000001</ele>
        <time>2017-06-19T07:28:11Z</time>
      </trkpt>
      <trkpt lat="60.117837013676763" lon="6.573632033541799">
        <ele>139.53</ele>
        <time>2017-06-19T07:28:12Z</time>
      </trkpt>
      <trkpt lat="60.117833996191621" lon="6.573499012738466">
        <ele>139.05000000000001</ele>
        <time>2017-06-19T07:28:13Z</time>
      </trkpt>
      <trkpt lat="60.117812035605311" lon="6.573383007198572">
        <ele>138.56999999999999</ele>
        <time>2017-06-19T07:28:14Z</time>
      </trkpt>
      <trkpt lat="60.117782028391957" lon="6.573275970295072">
        <ele>138.09</ele>
        <time>2017-06-19T07:28:15Z</time>
      </trkpt>
      <trkpt lat="60.117741040885448" lon="6.573173040524125">
        <ele>137.61000000000001</ele>
        <time>2017-06-19T07:28:16Z</time>
      </trkpt>
      <trkpt lat="60.117696030065417" lon="6.573071032762528">
        <ele>137.61000000000001</ele>
        <time>2017-06-19T07:28:17Z</time>
      </trkpt>
      <trkpt lat="60.117611037567258" lon="6.572832986712456">
        <ele>137.61000000000001</ele>
        <time>2017-06-19T07:28:19Z</time>
      </trkpt>
      <trkpt lat="60.117581030353904" lon="6.572698038071394">
        <ele>137.13</ele>
        <time>2017-06-19T07:28:20Z</time>
      </trkpt>
      <trkpt lat="60.117567032575607" lon="6.572560993954539">
        <ele>137.13</ele>
        <time>2017-06-19T07:28:21Z</time>
      </trkpt>
      <trkpt lat="60.117567032575607" lon="6.572428978979588">
        <ele>136.63999999999999</ele>
        <time>2017-06-19T07:28:22Z</time>
      </trkpt>
      <trkpt lat="60.117589998990297" lon="6.572299981489778">
        <ele>136.63999999999999</ele>
        <time>2017-06-19T07:28:23Z</time>
      </trkpt>
      <trkpt lat="60.117632998153567" lon="6.572186993435025">
        <ele>135.68000000000001</ele>
        <time>2017-06-19T07:28:24Z</time>
      </trkpt>
      <trkpt lat="60.117684965953231" lon="6.572079034522176">
        <ele>135.19999999999999</ele>
        <time>2017-06-19T07:28:25Z</time>
      </trkpt>
      <trkpt lat="60.117743974551558" lon="6.571969985961914">
        <ele>134.72</ele>
        <time>2017-06-19T07:28:26Z</time>
      </trkpt>
      <trkpt lat="60.118034994229674" lon="6.571349976584315">
        <ele>131.84</ele>
        <time>2017-06-19T07:28:31Z</time>
      </trkpt>
      <trkpt lat="60.118077993392944" lon="6.571213016286492">
        <ele>131.36000000000001</ele>
        <time>2017-06-19T07:28:32Z</time>
      </trkpt>
      <trkpt lat="60.118114035576582" lon="6.571069015190005">
        <ele>130.40000000000001</ele>
        <time>2017-06-19T07:28:33Z</time>
      </trkpt>
      <trkpt lat="60.118144964799285" lon="6.570918979123235">
        <ele>129.91999999999999</ele>
        <time>2017-06-19T07:28:34Z</time>
      </trkpt>
      <trkpt lat="60.118173966184258" lon="6.570766009390354">
        <ele>129.91999999999999</ele>
        <time>2017-06-19T07:28:35Z</time>
      </trkpt>
      <trkpt lat="60.118235992267728" lon="6.570453029125929">
        <ele>128.94999999999999</ele>
        <time>2017-06-19T07:28:37Z</time>
      </trkpt>
      <trkpt lat="60.118276979774237" lon="6.570303998887539">
        <ele>127.98999999999999</ele>
        <time>2017-06-19T07:28:38Z</time>
      </trkpt>
      <trkpt lat="60.11832500807941" lon="6.570170978084207">
        <ele>127.51000000000001</ele>
        <time>2017-06-19T07:28:39Z</time>
      </trkpt>
      <trkpt lat="60.118380999192595" lon="6.570057990029454">
        <ele>127.03</ele>
        <time>2017-06-19T07:28:40Z</time>
      </trkpt>
      <trkpt lat="60.118441013619304" lon="6.569951958954334">
        <ele>127.03</ele>
        <time>2017-06-19T07:28:41Z</time>
      </trkpt>
      <trkpt lat="60.118531035259366" lon="6.569712990894914">
        <ele>126.06999999999999</ele>
        <time>2017-06-19T07:28:43Z</time>
      </trkpt>
      <trkpt lat="60.118546038866043" lon="6.569565972313285">
        <ele>125.59</ele>
        <time>2017-06-19T07:28:44Z</time>
      </trkpt>
      <trkpt lat="60.118546960875392" lon="6.569411996752024">
        <ele>125.11</ele>
        <time>2017-06-19T07:28:45Z</time>
      </trkpt>
      <trkpt lat="60.118523994460702" lon="6.569259027019143">
        <ele>125.11</ele>
        <time>2017-06-19T07:28:46Z</time>
      </trkpt>
      <trkpt lat="60.118487030267715" lon="6.569118965417147">
        <ele>124.15000000000001</ele>
        <time>2017-06-19T07:28:47Z</time>
      </trkpt>
      <trkpt lat="60.11843497864902" lon="6.568985022604466">
        <ele>123.67</ele>
        <time>2017-06-19T07:28:48Z</time>
      </trkpt>
      <trkpt lat="60.118376975879073" lon="6.568863987922669">
        <ele>123.19</ele>
        <time>2017-06-19T07:28:49Z</time>
      </trkpt>
      <trkpt lat="60.118311010301113" lon="6.56875804066658">
        <ele>122.70999999999999</ele>
        <time>2017-06-19T07:28:50Z</time>
      </trkpt>
      <trkpt lat="60.11823900975287" lon="6.568666007369757">
        <ele>121.73999999999999</ele>
        <time>2017-06-19T07:28:51Z</time>
      </trkpt>
      <trkpt lat="60.118163991719484" lon="6.568603981286287">
        <ele>120.78</ele>
        <time>2017-06-19T07:28:52Z</time>
      </trkpt>
      <trkpt lat="60.118086040019989" lon="6.568571040406823">
        <ele>119.81999999999999</ele>
        <time>2017-06-19T07:28:53Z</time>
      </trkpt>
      <trkpt lat="60.118008004501462" lon="6.56856601126492">
        <ele>119.34</ele>
        <time>2017-06-19T07:28:54Z</time>
      </trkpt>
      <trkpt lat="60.117928963154554" lon="6.568584032356739">
        <ele>118.38</ele>
        <time>2017-06-19T07:28:55Z</time>
      </trkpt>
      <trkpt lat="60.11785302311182" lon="6.5686309710145">
        <ele>117.90000000000001</ele>
        <time>2017-06-19T07:28:56Z</time>
      </trkpt>
      <trkpt lat="60.117781022563577" lon="6.568713029846549">
        <ele>117.42</ele>
        <time>2017-06-19T07:28:57Z</time>
      </trkpt>
      <trkpt lat="60.117718996480107" lon="6.568831969052553">
        <ele>115.98</ele>
        <time>2017-06-19T07:28:58Z</time>
      </trkpt>
      <trkpt lat="60.117666022852063" lon="6.568965995684266">
        <ele>115.5</ele>
        <time>2017-06-19T07:28:59Z</time>
      </trkpt>
      <trkpt lat="60.117614977061749" lon="6.569089964032173">
        <ele>114.05</ele>
        <time>2017-06-19T07:29:00Z</time>
      </trkpt>
      <trkpt lat="60.117492014542222" lon="6.569246035069227">
        <ele>112.61</ele>
        <time>2017-06-19T07:29:02Z</time>
      </trkpt>
      <trkpt lat="60.117414984852076" lon="6.56927696429193">
        <ele>112.13</ele>
        <time>2017-06-19T07:29:03Z</time>
      </trkpt>
      <trkpt lat="60.117326974868774" lon="6.569290962070227">
        <ele>111.17</ele>
        <time>2017-06-19T07:29:04Z</time>
      </trkpt>
      <trkpt lat="60.117237037047744" lon="6.56927403062582">
        <ele>110.69</ele>
        <time>2017-06-19T07:29:05Z</time>
      </trkpt>
      <trkpt lat="60.117148021236062" lon="6.569243017584086">
        <ele>110.69</ele>
        <time>2017-06-19T07:29:06Z</time>
      </trkpt>
      <trkpt lat="60.116981975734234" lon="6.56920999288559">
        <ele>109.73</ele>
        <time>2017-06-19T07:29:08Z</time>
      </trkpt>
      <trkpt lat="60.116903018206358" lon="6.569232037290931">
        <ele>109.25</ele>
        <time>2017-06-19T07:29:09Z</time>
      </trkpt>
      <trkpt lat="60.116824982687831" lon="6.569272018969059">
        <ele>108.77</ele>
        <time>2017-06-19T07:29:10Z</time>
      </trkpt>
      <trkpt lat="60.116579979658127" lon="6.56936002895236">
        <ele>107.31999999999999</ele>
        <time>2017-06-19T07:29:13Z</time>
      </trkpt>
      <trkpt lat="60.116510996595025" lon="6.569330021739006">
        <ele>105.88</ele>
        <time>2017-06-19T07:29:14Z</time>
      </trkpt>
      <trkpt lat="60.116450982168317" lon="6.569247040897608">
        <ele>104.92</ele>
        <time>2017-06-19T07:29:15Z</time>
      </trkpt>
      <trkpt lat="60.116401026025414" lon="6.569130029529333">
        <ele>104.44</ele>
        <time>2017-06-19T07:29:16Z</time>
      </trkpt>
      <trkpt lat="60.116368001326919" lon="6.568986028432846">
        <ele>103.48</ele>
        <time>2017-06-19T07:29:17Z</time>
      </trkpt>
      <trkpt lat="60.116357021033764" lon="6.568821994587779">
        <ele>103</ele>
        <time>2017-06-19T07:29:18Z</time>
      </trkpt>
      <trkpt lat="60.116366995498538" lon="6.568657038733363">
        <ele>102.52</ele>
        <time>2017-06-19T07:29:19Z</time>
      </trkpt>
      <trkpt lat="60.116384010761976" lon="6.56850297935307">
        <ele>100.11</ele>
        <time>2017-06-19T07:29:20Z</time>
      </trkpt>
      <trkpt lat="60.116441007703543" lon="6.568152029067278">
        <ele>97.709999999999994</ele>
        <time>2017-06-19T07:29:22Z</time>
      </trkpt>
      <trkpt lat="60.116769997403026" lon="6.566631970927119">
        <ele>88.579999999999998</ele>
        <time>2017-06-19T07:29:32Z</time>
      </trkpt>
      <trkpt lat="60.116788018494844" lon="6.566475983709097">
        <ele>87.620000000000005</ele>
        <time>2017-06-19T07:29:33Z</time>
      </trkpt>
      <trkpt lat="60.116797992959619" lon="6.566313961520791">
        <ele>86.659999999999997</ele>
        <time>2017-06-19T07:29:34Z</time>
      </trkpt>
      <trkpt lat="60.116798998787999" lon="6.565589010715485">
        <ele>83.769999999999996</ele>
        <time>2017-06-19T07:29:39Z</time>
      </trkpt>
      <trkpt lat="60.116789024323225" lon="6.565462024882436">
        <ele>83.290000000000006</ele>
        <time>2017-06-19T07:29:40Z</time>
      </trkpt>
      <trkpt lat="60.116704031825066" lon="6.563483979552984">
        <ele>75.599999999999994</ele>
        <time>2017-06-19T07:29:54Z</time>
      </trkpt>
      <trkpt lat="60.11678097769618" lon="6.562066012993455">
        <ele>70.790000000000006</ele>
        <time>2017-06-19T07:30:03Z</time>
      </trkpt>
      <trkpt lat="60.116809979081154" lon="6.561921006068587">
        <ele>69.829999999999998</ele>
        <time>2017-06-19T07:30:04Z</time>
      </trkpt>
      <trkpt lat="60.116847027093172" lon="6.561783961951733">
        <ele>69.349999999999994</ele>
        <time>2017-06-19T07:30:05Z</time>
      </trkpt>
      <trkpt lat="60.116893965750933" lon="6.561652030795813">
        <ele>68.390000000000001</ele>
        <time>2017-06-19T07:30:06Z</time>
      </trkpt>
      <trkpt lat="60.11695196852088" lon="6.561536025255919">
        <ele>67.909999999999997</ele>
        <time>2017-06-19T07:30:07Z</time>
      </trkpt>
      <trkpt lat="60.117002008482814" lon="6.561414990574122">
        <ele>67.430000000000007</ele>
        <time>2017-06-19T07:30:08Z</time>
      </trkpt>
      <trkpt lat="60.117083983495831" lon="6.561176022514701">
        <ele>65.989999999999995</ele>
        <time>2017-06-19T07:30:10Z</time>
      </trkpt>
      <trkpt lat="60.117085995152593" lon="6.561030009761453">
        <ele>65.510000000000005</ele>
        <time>2017-06-19T07:30:11Z</time>
      </trkpt>
      <trkpt lat="60.117090018466115" lon="6.560948034748435">
        <ele>63.579999999999998</ele>
        <time>2017-06-19T07:30:12Z</time>
      </trkpt>
      <trkpt lat="60.117061017081141" lon="6.560819037258625">
        <ele>63.579999999999998</ele>
        <time>2017-06-19T07:30:13Z</time>
      </trkpt>
      <trkpt lat="60.117017012089491" lon="6.560730021446943">
        <ele>63.100000000000001</ele>
        <time>2017-06-19T07:30:14Z</time>
      </trkpt>
      <trkpt lat="60.116954986006021" lon="6.560682998970151">
        <ele>62.140000000000001</ele>
        <time>2017-06-19T07:30:15Z</time>
      </trkpt>
      <trkpt lat="60.116891032084823" lon="6.560688028112054">
        <ele>61.18</ele>
        <time>2017-06-19T07:30:16Z</time>
      </trkpt>
      <trkpt lat="60.116829006001353" lon="6.560751982033253">
        <ele>60.219999999999999</ele>
        <time>2017-06-19T07:30:17Z</time>
      </trkpt>
      <trkpt lat="60.116766979917884" lon="6.560827000066638">
        <ele>59.740000000000002</ele>
        <time>2017-06-19T07:30:18Z</time>
      </trkpt>
      <trkpt lat="60.116701014339924" lon="6.5609170217067">
        <ele>59.740000000000002</ele>
        <time>2017-06-19T07:30:19Z</time>
      </trkpt>
      <trkpt lat="60.116141019389033" lon="6.561922011896968">
        <ele>57.82</ele>
        <time>2017-06-19T07:30:30Z</time>
      </trkpt>
      <trkpt lat="60.115902973338962" lon="6.562603041529656">
        <ele>57.82</ele>
        <time>2017-06-19T07:30:36Z</time>
      </trkpt>
      <trkpt lat="60.115658976137638" lon="6.563303014263511">
        <ele>56.369999999999997</ele>
        <time>2017-06-19T07:30:43Z</time>
      </trkpt>
      <trkpt lat="60.115440962836146" lon="6.563459001481533">
        <ele>55.409999999999997</ele>
        <time>2017-06-19T07:30:47Z</time>
      </trkpt>
      <trkpt lat="60.11538103222847" lon="6.56340996734798">
        <ele>54.93</ele>
        <time>2017-06-19T07:30:48Z</time>
      </trkpt>
      <trkpt lat="60.115334009751678" lon="6.563330003991723">
        <ele>53.490000000000002</ele>
        <time>2017-06-19T07:30:49Z</time>
      </trkpt>
      <trkpt lat="60.115300985053182" lon="6.563212992623448">
        <ele>53.009999999999998</ele>
        <time>2017-06-19T07:30:50Z</time>
      </trkpt>
      <trkpt lat="60.115290004760027" lon="6.563073014840484">
        <ele>51.57</ele>
        <time>2017-06-19T07:30:51Z</time>
      </trkpt>
      <trkpt lat="60.11529503390193" lon="6.562923984602094">
        <ele>51.090000000000003</ele>
        <time>2017-06-19T07:30:52Z</time>
      </trkpt>
      <trkpt lat="60.115312971174717" lon="6.562773026525974">
        <ele>50.130000000000003</ele>
        <time>2017-06-19T07:30:53Z</time>
      </trkpt>
      <trkpt lat="60.115342978388071" lon="6.562623996287584">
        <ele>49.159999999999997</ele>
        <time>2017-06-19T07:30:54Z</time>
      </trkpt>
      <trkpt lat="60.115371979773045" lon="6.562482006847858">
        <ele>48.200000000000003</ele>
        <time>2017-06-19T07:30:55Z</time>
      </trkpt>
      <trkpt lat="60.11563902720809" lon="6.561136962845922">
        <ele>44.840000000000003</ele>
        <time>2017-06-19T07:31:05Z</time>
      </trkpt>
      <trkpt lat="60.115641038864851" lon="6.561050964519382">
        <ele>44.359999999999999</ele>
        <time>2017-06-19T07:31:06Z</time>
      </trkpt>
      <trkpt lat="60.11563902720809" lon="6.560993967577815">
        <ele>43.880000000000003</ele>
        <time>2017-06-19T07:31:07Z</time>
      </trkpt>
      <trkpt lat="60.115630980581045" lon="6.560955997556448">
        <ele>43.880000000000003</ele>
        <time>2017-06-19T07:31:08Z</time>
      </trkpt>
      <trkpt lat="60.115603990852833" lon="6.560914004221559">
        <ele>42.920000000000002</ele>
        <time>2017-06-19T07:31:14Z</time>
      </trkpt>
      <trkpt lat="60.115570966154337" lon="6.560889026150107">
        <ele>42.920000000000002</ele>
        <time>2017-06-19T07:31:15Z</time>
      </trkpt>
      <trkpt lat="60.115509023889899" lon="6.560881985351443">
        <ele>42.920000000000002</ele>
        <time>2017-06-19T07:31:16Z</time>
      </trkpt>
      <trkpt lat="60.115433000028133" lon="6.560903023928404">
        <ele>42.920000000000002</ele>
        <time>2017-06-19T07:31:17Z</time>
      </trkpt>
      <trkpt lat="60.115349013358355" lon="6.560937976464629">
        <ele>42.920000000000002</ele>
        <time>2017-06-19T07:31:18Z</time>
      </trkpt>
      <trkpt lat="60.115259997546673" lon="6.560979969799519">
        <ele>42.920000000000002</ele>
        <time>2017-06-19T07:31:19Z</time>
      </trkpt>
      <trkpt lat="60.114988004788756" lon="6.561069991439581">
        <ele>42.920000000000002</ele>
        <time>2017-06-19T07:31:22Z</time>
      </trkpt>
      <trkpt lat="60.101629011332989" lon="6.550338976085186">
        <ele>18.879999999999999</ele>
        <time>2017-06-19T07:32:46Z</time>
      </trkpt>
      <trkpt lat="60.101506970822811" lon="6.550100008025765">
        <ele>18.399999999999999</ele>
        <time>2017-06-19T07:32:47Z</time>
      </trkpt>
      <trkpt lat="60.101367998868227" lon="6.549934968352318">
        <ele>17.920000000000002</ele>
        <time>2017-06-19T07:32:48Z</time>
      </trkpt>
      <trkpt lat="60.101212011650205" lon="6.54978702776134">
        <ele>18.399999999999999</ele>
        <time>2017-06-19T07:32:49Z</time>
      </trkpt>
      <trkpt lat="60.101054012775421" lon="6.549656018614769">
        <ele>18.399999999999999</ele>
        <time>2017-06-19T07:32:50Z</time>
      </trkpt>
      <trkpt lat="60.09838798083365" lon="6.547579988837242">
        <ele>15.52</ele>
        <time>2017-06-19T07:33:06Z</time>
      </trkpt>
      <trkpt lat="60.098032001405954" lon="6.5474250074476">
        <ele>14.56</ele>
        <time>2017-06-19T07:33:08Z</time>
      </trkpt>
      <trkpt lat="60.097856987267733" lon="6.547393994405866">
        <ele>14.56</ele>
        <time>2017-06-19T07:33:09Z</time>
      </trkpt>
      <trkpt lat="60.097682978957891" lon="6.547391982749105">
        <ele>14.56</ele>
        <time>2017-06-19T07:33:10Z</time>
      </trkpt>
      <trkpt lat="60.097509976476431" lon="6.547417966648936">
        <ele>14.08</ele>
        <time>2017-06-19T07:33:11Z</time>
      </trkpt>
      <trkpt lat="60.097337979823351" lon="6.547462977468967">
        <ele>13.6</ele>
        <time>2017-06-19T07:33:12Z</time>
      </trkpt>
      <trkpt lat="60.097175035625696" lon="6.54753003269434">
        <ele>14.08</ele>
        <time>2017-06-19T07:33:13Z</time>
      </trkpt>
      <trkpt lat="60.097011001780629" lon="6.547607984393835">
        <ele>13.6</ele>
        <time>2017-06-19T07:33:14Z</time>
      </trkpt>
      <trkpt lat="60.09101701900363" lon="6.54862797819078">
        <ele>10.710000000000001</ele>
        <time>2017-06-19T07:33:47Z</time>
      </trkpt>
      <trkpt lat="60.089166965335608" lon="6.549136005342007">
        <ele>6.39</ele>
        <time>2017-06-19T07:33:57Z</time>
      </trkpt>
      <trkpt lat="60.087693007662892" lon="6.550033036619425">
        <ele>8.310000000000001</ele>
        <time>2017-06-19T07:34:05Z</time>
      </trkpt>
      <trkpt lat="60.087503995746374" lon="6.550059020519257">
        <ele>7.83</ele>
        <time>2017-06-19T07:34:06Z</time>
      </trkpt>
      <trkpt lat="60.085670035332441" lon="6.550280973315239">
        <ele>7.83</ele>
        <time>2017-06-19T07:34:16Z</time>
      </trkpt>
      <trkpt lat="60.085034016519785" lon="6.550406031310558">
        <ele>8.310000000000001</ele>
        <time>2017-06-19T07:34:20Z</time>
      </trkpt>
      <trkpt lat="60.084889009594917" lon="6.55051801353693">
        <ele>8.310000000000001</ele>
        <time>2017-06-19T07:34:21Z</time>
      </trkpt>
      <trkpt lat="60.084747020155191" lon="6.550677018240094">
        <ele>8.310000000000001</ele>
        <time>2017-06-19T07:34:22Z</time>
      </trkpt>
      <trkpt lat="60.084325997158885" lon="6.551178004592657">
        <ele>8.310000000000001</ele>
        <time>2017-06-19T07:34:25Z</time>
      </trkpt>
      <trkpt lat="60.084189036861062" lon="6.5512690320611">
        <ele>6.87</ele>
        <time>2017-06-19T07:34:26Z</time>
      </trkpt>
      <trkpt lat="60.084042018279433" lon="6.551303984597325">
        <ele>6.87</ele>
        <time>2017-06-19T07:34:27Z</time>
      </trkpt>
      <trkpt lat="60.083899023011327" lon="6.551285041496158">
        <ele>6.87</ele>
        <time>2017-06-19T07:34:28Z</time>
      </trkpt>
      <trkpt lat="60.08375602774322" lon="6.551213040947914">
        <ele>6.87</ele>
        <time>2017-06-19T07:34:29Z</time>
      </trkpt>
      <trkpt lat="60.083618983626366" lon="6.551104998216033">
        <ele>6.87</ele>
        <time>2017-06-19T07:34:30Z</time>
      </trkpt>
      <trkpt lat="60.083489986136556" lon="6.550983963534236">
        <ele>5.91</ele>
        <time>2017-06-19T07:34:31Z</time>
      </trkpt>
      <trkpt lat="60.083357971161604" lon="6.55084096826613">
        <ele>5.91</ele>
        <time>2017-06-19T07:34:32Z</time>
      </trkpt>
      <trkpt lat="60.082760006189346" lon="6.550056003034115">
        <ele>5.42</ele>
        <time>2017-06-19T07:34:37Z</time>
      </trkpt>
      <trkpt lat="60.082616005092859" lon="6.549946032464504">
        <ele>5.42</ele>
        <time>2017-06-19T07:34:38Z</time>
      </trkpt>
      <trkpt lat="60.082466974854469" lon="6.549888029694557">
        <ele>4.94</ele>
        <time>2017-06-19T07:34:39Z</time>
      </trkpt>
      <trkpt lat="60.08231702260673" lon="6.54989599250257">
        <ele>5.42</ele>
        <time>2017-06-19T07:34:40Z</time>
      </trkpt>
      <trkpt lat="60.082172015681863" lon="6.549968998879194">
        <ele>4.94</ele>
        <time>2017-06-19T07:34:41Z</time>
      </trkpt>
      <trkpt lat="60.082034971565008" lon="6.55008701607585">
        <ele>4.94</ele>
        <time>2017-06-19T07:34:42Z</time>
      </trkpt>
      <trkpt lat="60.081892982125282" lon="6.550223976373673">
        <ele>4.46</ele>
        <time>2017-06-19T07:34:43Z</time>
      </trkpt>
      <trkpt lat="60.081740012392402" lon="6.550341993570328">
        <ele>4.46</ele>
        <time>2017-06-19T07:34:44Z</time>
      </trkpt>
      <trkpt lat="60.080964015796781" lon="6.550869969651103">
        <ele>3.98</ele>
        <time>2017-06-19T07:34:49Z</time>
      </trkpt>
      <trkpt lat="60.080830994993448" lon="6.551057975739241">
        <ele>3.98</ele>
        <time>2017-06-19T07:34:50Z</time>
      </trkpt>
      <trkpt lat="60.08070501498878" lon="6.551267020404339">
        <ele>3.98</ele>
        <time>2017-06-19T07:34:51Z</time>
      </trkpt>
      <trkpt lat="60.07960899733007" lon="6.552614998072386">
        <ele>5.42</ele>
        <time>2017-06-19T07:34:59Z</time>
      </trkpt>
      <trkpt lat="60.079456027597189" lon="6.552680041640997">
        <ele>5.91</ele>
        <time>2017-06-19T07:35:00Z</time>
      </trkpt>
      <trkpt lat="60.078391022980213" lon="6.552840974181891">
        <ele>6.87</ele>
        <time>2017-06-19T07:35:07Z</time>
      </trkpt>
      <trkpt lat="60.078253978863358" lon="6.552797975018621">
        <ele>6.87</ele>
        <time>2017-06-19T07:35:08Z</time>
      </trkpt>
      <trkpt lat="60.078121041879058" lon="6.552698984742165">
        <ele>6.87</ele>
        <time>2017-06-19T07:35:09Z</time>
      </trkpt>
      <trkpt lat="60.078001013025641" lon="6.552556995302439">
        <ele>7.83</ele>
        <time>2017-06-19T07:35:10Z</time>
      </trkpt>
      <trkpt lat="60.077888024970889" lon="6.552398996427655">
        <ele>7.83</ele>
        <time>2017-06-19T07:35:11Z</time>
      </trkpt>
      <trkpt lat="60.077769001945853" lon="6.552267987281084">
        <ele>7.83</ele>
        <time>2017-06-19T07:35:12Z</time>
      </trkpt>
      <trkpt lat="60.077640004456043" lon="6.552177965641022">
        <ele>8.310000000000001</ele>
        <time>2017-06-19T07:35:13Z</time>
      </trkpt>
      <trkpt lat="60.07750203832984" lon="6.552132032811642">
        <ele>8.310000000000001</ele>
        <time>2017-06-19T07:35:14Z</time>
      </trkpt>
      <trkpt lat="60.077359965071082" lon="6.552119040861726">
        <ele>8.789999999999999</ele>
        <time>2017-06-19T07:35:15Z</time>
      </trkpt>
      <trkpt lat="60.077215963974595" lon="6.552115017548204">
        <ele>8.789999999999999</ele>
        <time>2017-06-19T07:35:16Z</time>
      </trkpt>
      <trkpt lat="60.076662003993988" lon="6.552176037803292">
        <ele>9.75</ele>
        <time>2017-06-19T07:35:20Z</time>
      </trkpt>
      <trkpt lat="60.076522026211023" lon="6.552243009209633">
        <ele>10.23</ele>
        <time>2017-06-19T07:35:21Z</time>
      </trkpt>
      <trkpt lat="60.07623603567481" lon="6.552380975335836">
        <ele>10.23</ele>
        <time>2017-06-19T07:35:23Z</time>
      </trkpt>
      <trkpt lat="60.076091028749943" lon="6.552406037226319">
        <ele>10.710000000000001</ele>
        <time>2017-06-19T07:35:24Z</time>
      </trkpt>
      <trkpt lat="60.075941998511553" lon="6.552392961457372">
        <ele>11.19</ele>
        <time>2017-06-19T07:35:25Z</time>
      </trkpt>
      <trkpt lat="60.075010014697909" lon="6.552542997524142">
        <ele>12.630000000000001</ele>
        <time>2017-06-19T07:35:32Z</time>
      </trkpt>
      <trkpt lat="60.074558984488249" lon="6.552740978077054">
        <ele>13.119999999999999</ele>
        <time>2017-06-19T07:35:36Z</time>
      </trkpt>
      <trkpt lat="60.074445996433496" lon="6.552724968641996">
        <ele>13.6</ele>
        <time>2017-06-19T07:35:37Z</time>
      </trkpt>
      <trkpt lat="60.074332002550364" lon="6.552671995013952">
        <ele>13.6</ele>
        <time>2017-06-19T07:35:38Z</time>
      </trkpt>
      <trkpt lat="60.073274960741401" lon="6.552339987829328">
        <ele>15.52</ele>
        <time>2017-06-19T07:35:46Z</time>
      </trkpt>
      <trkpt lat="60.073140012100339" lon="6.552371000871062">
        <ele>15.52</ele>
        <time>2017-06-19T07:35:47Z</time>
      </trkpt>
      <trkpt lat="60.073005985468626" lon="6.552443001419306">
        <ele>15.52</ele>
        <time>2017-06-19T07:35:48Z</time>
      </trkpt>
      <trkpt lat="60.072317998856306" lon="6.552894031628966">
        <ele>14.08</ele>
        <time>2017-06-19T07:35:54Z</time>
      </trkpt>
      <trkpt lat="60.072207022458315" lon="6.552922027185559">
        <ele>13.6</ele>
        <time>2017-06-19T07:35:55Z</time>
      </trkpt>
      <trkpt lat="60.07208900526166" lon="6.552898976951838">
        <ele>13.119999999999999</ele>
        <time>2017-06-19T07:35:56Z</time>
      </trkpt>
      <trkpt lat="60.07198004052043" lon="6.5528370346874">
        <ele>13.119999999999999</ele>
        <time>2017-06-19T07:35:57Z</time>
      </trkpt>
      <trkpt lat="60.071878032758832" lon="6.552737038582563">
        <ele>13.119999999999999</ele>
        <time>2017-06-19T07:35:58Z</time>
      </trkpt>
      <trkpt lat="60.071780970320106" lon="6.552605023607612">
        <ele>13.119999999999999</ele>
        <time>2017-06-19T07:35:59Z</time>
      </trkpt>
      <trkpt lat="60.071692038327456" lon="6.552464962005615">
        <ele>13.119999999999999</ele>
        <time>2017-06-19T07:36:00Z</time>
      </trkpt>
      <trkpt lat="60.07058403454721" lon="6.551547981798649">
        <ele>7.35</ele>
        <time>2017-06-19T07:36:10Z</time>
      </trkpt>
      <trkpt lat="60.069807032123208" lon="6.551351007074118">
        <ele>4.94</ele>
        <time>2017-06-19T07:36:19Z</time>
      </trkpt>
      <trkpt lat="60.0694689899683" lon="6.551253022626042">
        <ele>4.94</ele>
        <time>2017-06-19T07:36:24Z</time>
      </trkpt>
      <trkpt lat="60.069399001076818" lon="6.551188984885812">
        <ele>5.42</ele>
        <time>2017-06-19T07:36:25Z</time>
      </trkpt>
      <trkpt lat="60.069329012185335" lon="6.551116984337568">
        <ele>5.42</ele>
        <time>2017-06-19T07:36:26Z</time>
      </trkpt>
      <trkpt lat="60.069273021072149" lon="6.551027968525887">
        <ele>5.42</ele>
        <time>2017-06-19T07:36:27Z</time>
      </trkpt>
      <trkpt lat="60.069220969453454" lon="6.550921015441418">
        <ele>5.42</ele>
        <time>2017-06-19T07:36:28Z</time>
      </trkpt>
      <trkpt lat="60.069175036624074" lon="6.550806015729904">
        <ele>4.94</ele>
        <time>2017-06-19T07:36:29Z</time>
      </trkpt>
      <trkpt lat="60.069140000268817" lon="6.550670983269811">
        <ele>4.94</ele>
        <time>2017-06-19T07:36:30Z</time>
      </trkpt>
      <trkpt lat="60.069123990833759" lon="6.550509966909885">
        <ele>3.98</ele>
        <time>2017-06-19T07:36:31Z</time>
      </trkpt>
      <trkpt lat="60.069117033854127" lon="6.550340987741947">
        <ele>3.5</ele>
        <time>2017-06-19T07:36:32Z</time>
      </trkpt>
      <trkpt lat="60.069108987227082" lon="6.550169996917248">
        <ele>3.5</ele>
        <time>2017-06-19T07:36:33Z</time>
      </trkpt>
      <trkpt lat="60.069100018590689" lon="6.549108009785414">
        <ele>2.54</ele>
        <time>2017-06-19T07:36:39Z</time>
      </trkpt>
      <trkpt lat="60.069117033854127" lon="6.54895001091063">
        <ele>2.54</ele>
        <time>2017-06-19T07:36:40Z</time>
      </trkpt>
      <trkpt lat="60.069141006097198" lon="6.548809027299285">
        <ele>2.54</ele>
        <time>2017-06-19T07:36:41Z</time>
      </trkpt>
      <trkpt lat="60.069195991382003" lon="6.548705007880926">
        <ele>2.06</ele>
        <time>2017-06-19T07:36:42Z</time>
      </trkpt>
      <trkpt lat="60.069263968616724" lon="6.548624038696289">
        <ele>2.06</ele>
        <time>2017-06-19T07:36:43Z</time>
      </trkpt>
      <trkpt lat="60.069322977215052" lon="6.54854298569262">
        <ele>2.06</ele>
        <time>2017-06-19T07:36:44Z</time>
      </trkpt>
      <trkpt lat="60.069367988035083" lon="6.548428991809487">
        <ele>2.06</ele>
        <time>2017-06-19T07:36:45Z</time>
      </trkpt>
      <trkpt lat="60.069391960278153" lon="6.548279039561749">
        <ele>2.54</ele>
        <time>2017-06-19T07:36:46Z</time>
      </trkpt>
      <trkpt lat="60.069408975541592" lon="6.54811198823154">
        <ele>2.06</ele>
        <time>2017-06-19T07:36:47Z</time>
      </trkpt>
      <trkpt lat="60.069420961663127" lon="6.547932028770447">
        <ele>2.54</ele>
        <time>2017-06-19T07:36:48Z</time>
      </trkpt>
      <trkpt lat="60.069423979148269" lon="6.54774896800518">
        <ele>2.54</ele>
        <time>2017-06-19T07:36:49Z</time>
      </trkpt>
      <trkpt lat="60.069416016340256" lon="6.547570014372468">
        <ele>2.06</ele>
        <time>2017-06-19T07:36:50Z</time>
      </trkpt>
      <trkpt lat="60.069405036047101" lon="6.547389971092343">
        <ele>2.06</ele>
        <time>2017-06-19T07:36:51Z</time>
      </trkpt>
      <trkpt lat="60.069387014955282" lon="6.547215962782502">
        <ele>1.58</ele>
        <time>2017-06-19T07:36:52Z</time>
      </trkpt>
      <trkpt lat="60.069143017753959" lon="6.545862033963203">
        <ele>1.58</ele>
        <time>2017-06-19T07:37:02Z</time>
      </trkpt>
      <trkpt lat="60.069129019975662" lon="6.545665981248021">
        <ele>1.58</ele>
        <time>2017-06-19T07:37:04Z</time>
      </trkpt>
      <trkpt lat="60.069122985005379" lon="6.545567996799946">
        <ele>1.58</ele>
        <time>2017-06-19T07:37:05Z</time>
      </trkpt>
      <trkpt lat="60.069127008318901" lon="6.545452997088432">
        <ele>1.1</ele>
        <time>2017-06-19T07:37:06Z</time>
      </trkpt>
      <trkpt lat="60.069347033277154" lon="6.543723978102207">
        <ele>2.06</ele>
        <time>2017-06-19T07:37:18Z</time>
      </trkpt>
      <trkpt lat="60.069607961922884" lon="6.542789982631803">
        <ele>4.46</ele>
        <time>2017-06-19T07:37:26Z</time>
      </trkpt>
      <trkpt lat="60.069642998278141" lon="6.542751006782055">
        <ele>3.98</ele>
        <time>2017-06-19T07:37:27Z</time>
      </trkpt>
      <trkpt lat="60.069682979956269" lon="6.542777996510267">
        <ele>4.46</ele>
        <time>2017-06-19T07:37:28Z</time>
      </trkpt>
      <trkpt lat="60.069734025746584" lon="6.542897019535303">
        <ele>3.98</ele>
        <time>2017-06-19T07:37:30Z</time>
      </trkpt>
      <trkpt lat="60.069774007424712" lon="6.542969020083547">
        <ele>3.98</ele>
        <time>2017-06-19T07:37:31Z</time>
      </trkpt>
      <trkpt lat="60.069818012416363" lon="6.543017970398068">
        <ele>4.46</ele>
        <time>2017-06-19T07:37:32Z</time>
      </trkpt>
      <trkpt lat="60.069943992421031" lon="6.543189967051148">
        <ele>4.94</ele>
        <time>2017-06-19T07:37:35Z</time>
      </trkpt>
      <trkpt lat="60.069991014897823" lon="6.543231038376689">
        <ele>4.94</ele>
        <time>2017-06-19T07:37:36Z</time>
      </trkpt>
      <trkpt lat="60.070038037374616" lon="6.543260039761663">
        <ele>5.42</ele>
        <time>2017-06-19T07:37:37Z</time>
      </trkpt>
      <trkpt lat="60.070085981860757" lon="6.543276971206069">
        <ele>5.42</ele>
        <time>2017-06-19T07:37:38Z</time>
      </trkpt>
      <trkpt lat="60.070138033479452" lon="6.543275965377688">
        <ele>5.42</ele>
        <time>2017-06-19T07:37:39Z</time>
      </trkpt>
      <trkpt lat="60.070185977965593" lon="6.543245958164334">
        <ele>5.91</ele>
        <time>2017-06-19T07:37:40Z</time>
      </trkpt>
      <trkpt lat="60.070234006270766" lon="6.543198013678193">
        <ele>5.91</ele>
        <time>2017-06-19T07:37:41Z</time>
      </trkpt>
      <trkpt lat="60.070271976292133" lon="6.54312601312995">
        <ele>5.91</ele>
        <time>2017-06-19T07:37:42Z</time>
      </trkpt>
      <trkpt lat="60.070315981283784" lon="6.543045965954661">
        <ele>6.39</ele>
        <time>2017-06-19T07:37:43Z</time>
      </trkpt>
      <trkpt lat="60.070355040952563" lon="6.542956028133631">
        <ele>6.39</ele>
        <time>2017-06-19T07:37:44Z</time>
      </trkpt>
      <trkpt lat="60.070834988728166" lon="6.541735036298633">
        <ele>5.42</ele>
        <time>2017-06-19T07:37:56Z</time>
      </trkpt>
      <trkpt lat="60.070854015648365" lon="6.541615007445216">
        <ele>4.94</ele>
        <time>2017-06-19T07:37:57Z</time>
      </trkpt>
      <trkpt lat="60.070857033133507" lon="6.541499001905322">
        <ele>4.94</ele>
        <time>2017-06-19T07:37:58Z</time>
      </trkpt>
      <trkpt lat="60.070852003991604" lon="6.541393976658583">
        <ele>4.94</ele>
        <time>2017-06-19T07:37:59Z</time>
      </trkpt>
      <trkpt lat="60.070841023698449" lon="6.54130001552403">
        <ele>5.42</ele>
        <time>2017-06-19T07:38:00Z</time>
      </trkpt>
      <trkpt lat="60.070825014263391" lon="6.541209993883967">
        <ele>5.91</ele>
        <time>2017-06-19T07:38:01Z</time>
      </trkpt>
      <trkpt lat="60.070833982899785" lon="6.540878992527723">
        <ele>6.39</ele>
        <time>2017-06-19T07:38:04Z</time>
      </trkpt>
      <trkpt lat="60.070868013426661" lon="6.540769021958113">
        <ele>6.39</ele>
        <time>2017-06-19T07:38:05Z</time>
      </trkpt>
      <trkpt lat="60.07090900093317" lon="6.540649998933077">
        <ele>6.39</ele>
        <time>2017-06-19T07:38:06Z</time>
      </trkpt>
      <trkpt lat="60.0711440294981" lon="6.539921024814248">
        <ele>6.39</ele>
        <time>2017-06-19T07:38:11Z</time>
      </trkpt>
      <trkpt lat="60.071204965934157" lon="6.539785992354155">
        <ele>6.39</ele>
        <time>2017-06-19T07:38:12Z</time>
      </trkpt>
      <trkpt lat="60.071275038644671" lon="6.539678033441305">
        <ele>6.39</ele>
        <time>2017-06-19T07:38:13Z</time>
      </trkpt>
      <trkpt lat="60.071367993950844" lon="6.539609972387552">
        <ele>7.35</ele>
        <time>2017-06-19T07:38:14Z</time>
      </trkpt>
      <trkpt lat="60.071448041126132" lon="6.539555992931128">
        <ele>7.83</ele>
        <time>2017-06-19T07:38:15Z</time>
      </trkpt>
      <trkpt lat="60.071539990603924" lon="6.539516011252999">
        <ele>9.27</ele>
        <time>2017-06-19T07:38:16Z</time>
      </trkpt>
      <trkpt lat="60.071633029729128" lon="6.539500001817942">
        <ele>9.75</ele>
        <time>2017-06-19T07:38:17Z</time>
      </trkpt>
      <trkpt lat="60.071739982813597" lon="6.539502013474703">
        <ele>10.710000000000001</ele>
        <time>2017-06-19T07:38:18Z</time>
      </trkpt>
      <trkpt lat="60.071845008060336" lon="6.539537971839309">
        <ele>11.67</ele>
        <time>2017-06-19T07:38:19Z</time>
      </trkpt>
      <trkpt lat="60.071935029700398" lon="6.539613995701075">
        <ele>12.15</ele>
        <time>2017-06-19T07:38:20Z</time>
      </trkpt>
      <trkpt lat="60.072027985006571" lon="6.539680967107415">
        <ele>13.119999999999999</ele>
        <time>2017-06-19T07:38:21Z</time>
      </trkpt>
      <trkpt lat="60.072214985266328" lon="6.539691025391221">
        <ele>14.56</ele>
        <time>2017-06-19T07:38:23Z</time>
      </trkpt>
      <trkpt lat="60.072310036048293" lon="6.539608966559172">
        <ele>15.039999999999999</ele>
        <time>2017-06-19T07:38:24Z</time>
      </trkpt>
      <trkpt lat="60.072396034374833" lon="6.539490027353168">
        <ele>15.52</ele>
        <time>2017-06-19T07:38:25Z</time>
      </trkpt>
      <trkpt lat="60.072470968589187" lon="6.539353989064694">
        <ele>16</ele>
        <time>2017-06-19T07:38:26Z</time>
      </trkpt>
      <trkpt lat="60.072529977187514" lon="6.539219040423632">
        <ele>15.52</ele>
        <time>2017-06-19T07:38:27Z</time>
      </trkpt>
      <trkpt lat="60.072592003270984" lon="6.539081996306777">
        <ele>15.52</ele>
        <time>2017-06-19T07:38:28Z</time>
      </trkpt>
      <trkpt lat="60.072751007974148" lon="6.538805980235338">
        <ele>15.039999999999999</ele>
        <time>2017-06-19T07:38:30Z</time>
      </trkpt>
      <trkpt lat="60.07284002378583" lon="6.538687041029334">
        <ele>15.52</ele>
        <time>2017-06-19T07:38:31Z</time>
      </trkpt>
      <trkpt lat="60.072932979092002" lon="6.538586961105466">
        <ele>15.52</ele>
        <time>2017-06-19T07:38:32Z</time>
      </trkpt>
      <trkpt lat="60.073032975196838" lon="6.538501968607307">
        <ele>15.52</ele>
        <time>2017-06-19T07:38:33Z</time>
      </trkpt>
      <trkpt lat="60.073130959644914" lon="6.538437008857727">
        <ele>15.52</ele>
        <time>2017-06-19T07:38:34Z</time>
      </trkpt>
      <trkpt lat="60.074636014178395" lon="6.537763020023704">
        <ele>18.399999999999999</ele>
        <time>2017-06-19T07:38:47Z</time>
      </trkpt>
      <trkpt lat="60.074743973091245" lon="6.537672998383641">
        <ele>18.399999999999999</ele>
        <time>2017-06-19T07:38:48Z</time>
      </trkpt>
      <trkpt lat="60.074835000559688" lon="6.537552969530225">
        <ele>18.879999999999999</ele>
        <time>2017-06-19T07:38:49Z</time>
      </trkpt>
      <trkpt lat="60.07492502219975" lon="6.537396982312203">
        <ele>19.359999999999999</ele>
        <time>2017-06-19T07:38:50Z</time>
      </trkpt>
      <trkpt lat="60.075000962242484" lon="6.537201013416052">
        <ele>19.359999999999999</ele>
        <time>2017-06-19T07:38:51Z</time>
      </trkpt>
      <trkpt lat="60.075067011639476" lon="6.537000015377998">
        <ele>18.879999999999999</ele>
        <time>2017-06-19T07:38:52Z</time>
      </trkpt>
      <trkpt lat="60.075129037722945" lon="6.536776972934604">
        <ele>18.879999999999999</ele>
        <time>2017-06-19T07:38:53Z</time>
      </trkpt>
      <trkpt lat="60.075176982209086" lon="6.536556025967002">
        <ele>18.399999999999999</ele>
        <time>2017-06-19T07:38:54Z</time>
      </trkpt>
      <trkpt lat="60.075224004685879" lon="6.536326026543975">
        <ele>19.359999999999999</ele>
        <time>2017-06-19T07:38:55Z</time>
      </trkpt>
      <trkpt lat="60.075256023555994" lon="6.536084963008761">
        <ele>19.84</ele>
        <time>2017-06-19T07:38:56Z</time>
      </trkpt>
      <trkpt lat="60.075278989970684" lon="6.535840965807438">
        <ele>19.84</ele>
        <time>2017-06-19T07:38:57Z</time>
      </trkpt>
      <trkpt lat="60.075327018275857" lon="6.535379039123654">
        <ele>19.359999999999999</ele>
        <time>2017-06-19T07:38:59Z</time>
      </trkpt>
      <trkpt lat="60.075359959155321" lon="6.535180974751711">
        <ele>17.920000000000002</ele>
        <time>2017-06-19T07:39:00Z</time>
      </trkpt>
      <trkpt lat="60.075423996895552" lon="6.535014007240534">
        <ele>16</ele>
        <time>2017-06-19T07:39:01Z</time>
      </trkpt>
      <trkpt lat="60.075515024363995" lon="6.534867994487286">
        <ele>15.52</ele>
        <time>2017-06-19T07:39:02Z</time>
      </trkpt>
      <trkpt lat="60.07561300881207" lon="6.534731034189463">
        <ele>16</ele>
        <time>2017-06-19T07:39:03Z</time>
      </trkpt>
      <trkpt lat="60.075714010745287" lon="6.534571023657918">
        <ele>16.48</ele>
        <time>2017-06-19T07:39:04Z</time>
      </trkpt>
      <trkpt lat="60.075794979929924" lon="6.534391986206174">
        <ele>15.52</ele>
        <time>2017-06-19T07:39:05Z</time>
      </trkpt>
      <trkpt lat="60.075866980478168" lon="6.534191993996501">
        <ele>15.52</ele>
        <time>2017-06-19T07:39:06Z</time>
      </trkpt>
      <trkpt lat="60.07662302814424" lon="6.532114958390594">
        <ele>12.630000000000001</ele>
        <time>2017-06-19T07:39:16Z</time>
      </trkpt>
      <trkpt lat="60.077609997242689" lon="6.530780978500843">
        <ele>7.83</ele>
        <time>2017-06-19T07:39:25Z</time>
      </trkpt>
      <trkpt lat="60.079272966831923" lon="6.529569961130619">
        <ele>9.75</ele>
        <time>2017-06-19T07:39:37Z</time>
      </trkpt>
      <trkpt lat="60.079427026212215" lon="6.529563004150987">
        <ele>9.75</ele>
        <time>2017-06-19T07:39:38Z</time>
      </trkpt>
      <trkpt lat="60.079577984288335" lon="6.529589993879199">
        <ele>9.75</ele>
        <time>2017-06-19T07:39:39Z</time>
      </trkpt>
      <trkpt lat="60.079728020355105" lon="6.529640033841133">
        <ele>9.75</ele>
        <time>2017-06-19T07:39:40Z</time>
      </trkpt>
      <trkpt lat="60.079876966774464" lon="6.529708011075854">
        <ele>9.75</ele>
        <time>2017-06-19T07:39:41Z</time>
      </trkpt>
      <trkpt lat="60.080019040033221" lon="6.529802978038788">
        <ele>9.75</ele>
        <time>2017-06-19T07:39:42Z</time>
      </trkpt>
      <trkpt lat="60.080163963139057" lon="6.529906997457147">
        <ele>9.27</ele>
        <time>2017-06-19T07:39:43Z</time>
      </trkpt>
      <trkpt lat="60.081358971074224" lon="6.530721969902515">
        <ele>8.789999999999999</ele>
        <time>2017-06-19T07:39:53Z</time>
      </trkpt>
      <trkpt lat="60.082478038966656" lon="6.531042996793985">
        <ele>10.710000000000001</ele>
        <time>2017-06-19T07:40:04Z</time>
      </trkpt>
      <trkpt lat="60.082899983972311" lon="6.530895978212357">
        <ele>11.19</ele>
        <time>2017-06-19T07:40:08Z</time>
      </trkpt>
      <trkpt lat="60.083009032532573" lon="6.530808974057436">
        <ele>11.67</ele>
        <time>2017-06-19T07:40:09Z</time>
      </trkpt>
      <trkpt lat="60.083447992801666" lon="6.530446037650108">
        <ele>11.19</ele>
        <time>2017-06-19T07:40:13Z</time>
      </trkpt>
      <trkpt lat="60.08356299251318" lon="6.530400021001697">
        <ele>11.19</ele>
        <time>2017-06-19T07:40:14Z</time>
      </trkpt>
      <trkpt lat="60.083684027194977" lon="6.530378982424736">
        <ele>10.710000000000001</ele>
        <time>2017-06-19T07:40:15Z</time>
      </trkpt>
      <trkpt lat="60.083803972229362" lon="6.530387029051781">
        <ele>10.710000000000001</ele>
        <time>2017-06-19T07:40:16Z</time>
      </trkpt>
      <trkpt lat="60.083926012739539" lon="6.530418964102864">
        <ele>10.23</ele>
        <time>2017-06-19T07:40:17Z</time>
      </trkpt>
      <trkpt lat="60.084049981087446" lon="6.530458023771644">
        <ele>10.23</ele>
        <time>2017-06-19T07:40:18Z</time>
      </trkpt>
      <trkpt lat="60.084172021597624" lon="6.530512003228068">
        <ele>10.710000000000001</ele>
        <time>2017-06-19T07:40:19Z</time>
      </trkpt>
      <trkpt lat="60.085255969315767" lon="6.53107400983572">
        <ele>9.75</ele>
        <time>2017-06-19T07:40:28Z</time>
      </trkpt>
      <trkpt lat="60.085385972633958" lon="6.531085995957255">
        <ele>9.75</ele>
        <time>2017-06-19T07:40:29Z</time>
      </trkpt>
      <trkpt lat="60.085522010922432" lon="6.531076021492481">
        <ele>9.75</ele>
        <time>2017-06-19T07:40:30Z</time>
      </trkpt>
      <trkpt lat="60.085656959563494" lon="6.531044002622366">
        <ele>9.75</ele>
        <time>2017-06-19T07:40:31Z</time>
      </trkpt>
      <trkpt lat="60.085787968710065" lon="6.5309870056808">
        <ele>9.75</ele>
        <time>2017-06-19T07:40:32Z</time>
      </trkpt>
      <trkpt lat="60.085917972028255" lon="6.530904024839401">
        <ele>9.75</ele>
        <time>2017-06-19T07:40:33Z</time>
      </trkpt>
      <trkpt lat="60.086045041680336" lon="6.530798999592662">
        <ele>9.75</ele>
        <time>2017-06-19T07:40:34Z</time>
      </trkpt>
      <trkpt lat="60.086166998371482" lon="6.530667990446091">
        <ele>9.27</ele>
        <time>2017-06-19T07:40:35Z</time>
      </trkpt>
      <trkpt lat="60.086283003911376" lon="6.530521977692843">
        <ele>8.789999999999999</ele>
        <time>2017-06-19T07:40:36Z</time>
      </trkpt>
      <trkpt lat="60.088374959304929" lon="6.528060967102647">
        <ele>7.35</ele>
        <time>2017-06-19T07:40:53Z</time>
      </trkpt>
      <trkpt lat="60.090789031237364" lon="6.52630596421659">
        <ele>7.35</ele>
        <time>2017-06-19T07:41:11Z</time>
      </trkpt>
      <trkpt lat="60.091181974858046" lon="6.526193981990218">
        <ele>6.87</ele>
        <time>2017-06-19T07:41:14Z</time>
      </trkpt>
      <trkpt lat="60.09129898622632" lon="6.526204962283373">
        <ele>7.35</ele>
        <time>2017-06-19T07:41:15Z</time>
      </trkpt>
      <trkpt lat="60.091400993987918" lon="6.526247039437294">
        <ele>7.35</ele>
        <time>2017-06-19T07:41:16Z</time>
      </trkpt>
      <trkpt lat="60.091492021456361" lon="6.526293978095055">
        <ele>7.35</ele>
        <time>2017-06-19T07:41:17Z</time>
      </trkpt>
      <trkpt lat="60.091568967327476" lon="6.526313005015254">
        <ele>7.83</ele>
        <time>2017-06-19T07:41:18Z</time>
      </trkpt>
      <trkpt lat="60.091614983975887" lon="6.526290960609913">
        <ele>7.83</ele>
        <time>2017-06-19T07:41:19Z</time>
      </trkpt>
      <trkpt lat="60.09164297953248" lon="6.526235975325108">
        <ele>8.310000000000001</ele>
        <time>2017-06-19T07:41:20Z</time>
      </trkpt>
      <trkpt lat="60.091651026159525" lon="6.526150982826948">
        <ele>8.310000000000001</ele>
        <time>2017-06-19T07:41:21Z</time>
      </trkpt>
      <trkpt lat="60.091651026159525" lon="6.52604503557086">
        <ele>8.789999999999999</ele>
        <time>2017-06-19T07:41:22Z</time>
      </trkpt>
      <trkpt lat="60.091645997017622" lon="6.525925006717444">
        <ele>8.789999999999999</ele>
        <time>2017-06-19T07:41:23Z</time>
      </trkpt>
      <trkpt lat="60.091644991189241" lon="6.525622000917792">
        <ele>9.27</ele>
        <time>2017-06-19T07:41:25Z</time>
      </trkpt>
      <trkpt lat="60.091657983139157" lon="6.525443969294429">
        <ele>9.75</ele>
        <time>2017-06-19T07:41:26Z</time>
      </trkpt>
      <trkpt lat="60.091676004230976" lon="6.525260992348194">
        <ele>9.75</ele>
        <time>2017-06-19T07:41:27Z</time>
      </trkpt>
      <trkpt lat="60.134691009297967" lon="6.343520041555166">
        <ele>85.689999999999998</ele>
        <time>2017-06-19T07:50:12Z</time>
      </trkpt>
      <trkpt lat="60.134654967114329" lon="6.340695004910231">
        <ele>77.040000000000006</ele>
        <time>2017-06-19T07:50:20Z</time>
      </trkpt>
      <trkpt lat="60.134049961343408" lon="6.338326027616859">
        <ele>68.390000000000001</ele>
        <time>2017-06-19T07:50:27Z</time>
      </trkpt>
      <trkpt lat="60.133522991091013" lon="6.335865017026663">
        <ele>58.299999999999997</ele>
        <time>2017-06-19T07:50:34Z</time>
      </trkpt>
      <trkpt lat="60.133531037718058" lon="6.332831019535661">
        <ele>51.090000000000003</ele>
        <time>2017-06-19T07:50:42Z</time>
      </trkpt>
      <trkpt lat="60.133563978597522" lon="6.330964034423232">
        <ele>47.719999999999999</ele>
        <time>2017-06-19T07:50:47Z</time>
      </trkpt>
      <trkpt lat="60.133531037718058" lon="6.330591039732099">
        <ele>46.759999999999998</ele>
        <time>2017-06-19T07:50:48Z</time>
      </trkpt>
      <trkpt lat="60.133478986099362" lon="6.330222990363836">
        <ele>45.32</ele>
        <time>2017-06-19T07:50:49Z</time>
      </trkpt>
      <trkpt lat="60.133405979722738" lon="6.329860975965858">
        <ele>43.880000000000003</ele>
        <time>2017-06-19T07:50:50Z</time>
      </trkpt>
      <trkpt lat="60.133317969739437" lon="6.329507008194923">
        <ele>42.439999999999998</ele>
        <time>2017-06-19T07:50:51Z</time>
      </trkpt>
      <trkpt lat="60.133215961977839" lon="6.329167960211635">
        <ele>40.990000000000002</ele>
        <time>2017-06-19T07:50:52Z</time>
      </trkpt>
      <trkpt lat="60.133104985579848" lon="6.328863026574254">
        <ele>39.549999999999997</ele>
        <time>2017-06-19T07:50:53Z</time>
      </trkpt>
      <trkpt lat="60.132985040545464" lon="6.328593967482448">
        <ele>37.630000000000003</ele>
        <time>2017-06-19T07:50:54Z</time>
      </trkpt>
      <trkpt lat="60.132857970893383" lon="6.32836002856493">
        <ele>36.189999999999998</ele>
        <time>2017-06-19T07:50:55Z</time>
      </trkpt>
      <trkpt lat="60.132725033909082" lon="6.328162970021367">
        <ele>35.229999999999997</ele>
        <time>2017-06-19T07:50:56Z</time>
      </trkpt>
      <trkpt lat="60.132587989792228" lon="6.32799600251019">
        <ele>33.780000000000001</ele>
        <time>2017-06-19T07:50:57Z</time>
      </trkpt>
      <trkpt lat="60.131348976865411" lon="6.326107978820801">
        <ele>25.129999999999999</ele>
        <time>2017-06-19T07:51:07Z</time>
      </trkpt>
      <trkpt lat="60.130540039390326" lon="6.324033038690686">
        <ele>18.399999999999999</ele>
        <time>2017-06-19T07:51:16Z</time>
      </trkpt>
      <trkpt lat="60.130115998908877" lon="6.323222005739808">
        <ele>15.52</ele>
        <time>2017-06-19T07:51:20Z</time>
      </trkpt>
      <trkpt lat="60.130040980875492" lon="6.32298999466002">
        <ele>15.039999999999999</ele>
        <time>2017-06-19T07:51:21Z</time>
      </trkpt>
      <trkpt lat="60.129981972277164" lon="6.322739040479064">
        <ele>14.56</ele>
        <time>2017-06-19T07:51:22Z</time>
      </trkpt>
      <trkpt lat="60.129933021962643" lon="6.322466963902116">
        <ele>13.6</ele>
        <time>2017-06-19T07:51:23Z</time>
      </trkpt>
      <trkpt lat="60.129887005314231" lon="6.322179967537522">
        <ele>13.119999999999999</ele>
        <time>2017-06-19T07:51:24Z</time>
      </trkpt>
      <trkpt lat="60.129122994840145" lon="6.317387027665973">
        <ele>3.5</ele>
        <time>2017-06-19T07:51:41Z</time>
      </trkpt>
      <trkpt lat="60.128970025107265" lon="6.316666016355157">
        <ele>2.06</ele>
        <time>2017-06-19T07:51:44Z</time>
      </trkpt>
      <trkpt lat="60.12889701873064" lon="6.316485973075032">
        <ele>1.58</ele>
        <time>2017-06-19T07:51:45Z</time>
      </trkpt>
      <trkpt lat="60.128802973777056" lon="6.316339960321784">
        <ele>1.58</ele>
        <time>2017-06-19T07:51:46Z</time>
      </trkpt>
      <trkpt lat="60.128689985722303" lon="6.31624398753047">
        <ele>1.1</ele>
        <time>2017-06-19T07:51:47Z</time>
      </trkpt>
      <trkpt lat="60.128566017374396" lon="6.316195959225297">
        <ele>1.1</ele>
        <time>2017-06-19T07:51:48Z</time>
      </trkpt>
      <trkpt lat="60.128429979085922" lon="6.316170981153846">
        <ele>1.1</ele>
        <time>2017-06-19T07:51:49Z</time>
      </trkpt>
      <trkpt lat="60.128285977989435" lon="6.316166035830975">
        <ele>0.62</ele>
        <time>2017-06-19T07:51:50Z</time>
      </trkpt>
      <trkpt lat="60.127165988087654" lon="6.316062016412616">
        <ele>1.1</ele>
        <time>2017-06-19T07:51:59Z</time>
      </trkpt>
      <trkpt lat="60.127071021124721" lon="6.315993033349514">
        <ele>1.58</ele>
        <time>2017-06-19T07:52:00Z</time>
      </trkpt>
      <trkpt lat="60.126986028626561" lon="6.315884990617633">
        <ele>1.58</ele>
        <time>2017-06-19T07:52:01Z</time>
      </trkpt>
      <trkpt lat="60.126911010593176" lon="6.315733026713133">
        <ele>2.06</ele>
        <time>2017-06-19T07:52:02Z</time>
      </trkpt>
      <trkpt lat="60.126854013651609" lon="6.315539991483092">
        <ele>2.06</ele>
        <time>2017-06-19T07:52:03Z</time>
      </trkpt>
      <trkpt lat="60.126814031973481" lon="6.315310997888446">
        <ele>2.54</ele>
        <time>2017-06-19T07:52:04Z</time>
      </trkpt>
      <trkpt lat="60.126788970082998" lon="6.315068006515503">
        <ele>3.02</ele>
        <time>2017-06-19T07:52:05Z</time>
      </trkpt>
      <trkpt lat="60.126784024760127" lon="6.314799031242728">
        <ele>3.5</ele>
        <time>2017-06-19T07:52:06Z</time>
      </trkpt>
      <trkpt lat="60.126789975911379" lon="6.314510023221374">
        <ele>3.5</ele>
        <time>2017-06-19T07:52:07Z</time>
      </trkpt>
      <trkpt lat="60.126801962032914" lon="6.314212968572974">
        <ele>3.98</ele>
        <time>2017-06-19T07:52:08Z</time>
      </trkpt>
      <trkpt lat="60.126940011978149" lon="6.31035503000021">
        <ele>3.5</ele>
        <time>2017-06-19T07:52:20Z</time>
      </trkpt>
      <trkpt lat="60.126914028078318" lon="6.309394966810942">
        <ele>3.98</ele>
        <time>2017-06-19T07:52:23Z</time>
      </trkpt>
      <trkpt lat="60.12687798589468" lon="6.309079974889755">
        <ele>3.98</ele>
        <time>2017-06-19T07:52:24Z</time>
      </trkpt>
      <trkpt lat="60.126826018095016" lon="6.308768000453711">
        <ele>4.46</ele>
        <time>2017-06-19T07:52:25Z</time>
      </trkpt>
      <trkpt lat="60.12588900513947" lon="6.304368004202843">
        <ele>4.94</ele>
        <time>2017-06-19T07:52:39Z</time>
      </trkpt>
      <trkpt lat="60.125435963273048" lon="6.302517028525472">
        <ele>6.87</ele>
        <time>2017-06-19T07:52:45Z</time>
      </trkpt>
      <trkpt lat="60.125334961339831" lon="6.302248975262046">
        <ele>6.87</ele>
        <time>2017-06-19T07:52:46Z</time>
      </trkpt>
      <trkpt lat="60.124109024181962" lon="6.299719987437129">
        <ele>8.310000000000001</ele>
        <time>2017-06-19T07:52:56Z</time>
      </trkpt>
      <trkpt lat="60.123370997607708" lon="6.297150012105703">
        <ele>11.67</ele>
        <time>2017-06-19T07:53:04Z</time>
      </trkpt>
      <trkpt lat="60.123124988749623" lon="6.294957976788282">
        <ele>15.039999999999999</ele>
        <time>2017-06-19T07:53:10Z</time>
      </trkpt>
      <trkpt lat="60.122828017920256" lon="6.289719035848975">
        <ele>10.23</ele>
        <time>2017-06-19T07:53:24Z</time>
      </trkpt>
      <trkpt lat="60.122894989326596" lon="6.286093024536967">
        <ele>14.08</ele>
        <time>2017-06-19T07:53:34Z</time>
      </trkpt>
      <trkpt lat="60.122938994318247" lon="6.28360603004694">
        <ele>19.359999999999999</ele>
        <time>2017-06-19T07:53:41Z</time>
      </trkpt>
      <trkpt lat="60.122909992933273" lon="6.282558962702751">
        <ele>19.359999999999999</ele>
        <time>2017-06-19T07:53:44Z</time>
      </trkpt>
      <trkpt lat="60.122869005426764" lon="6.282245982438326">
        <ele>19.359999999999999</ele>
        <time>2017-06-19T07:53:45Z</time>
      </trkpt>
      <trkpt lat="60.122803039848804" lon="6.281945994123817">
        <ele>18.879999999999999</ele>
        <time>2017-06-19T07:53:46Z</time>
      </trkpt>
      <trkpt lat="60.122718969359994" lon="6.281656986102462">
        <ele>18.879999999999999</ele>
        <time>2017-06-19T07:53:47Z</time>
      </trkpt>
      <trkpt lat="60.12262400239706" lon="6.281379964202642">
        <ele>18.399999999999999</ele>
        <time>2017-06-19T07:53:48Z</time>
      </trkpt>
      <trkpt lat="60.122515959665179" lon="6.281130015850067">
        <ele>17.920000000000002</ele>
        <time>2017-06-19T07:53:49Z</time>
      </trkpt>
      <trkpt lat="60.122397020459175" lon="6.280908985063434">
        <ele>16.960000000000001</ele>
        <time>2017-06-19T07:53:50Z</time>
      </trkpt>
      <trkpt lat="60.122261987999082" lon="6.280735982581973">
        <ele>16.960000000000001</ele>
        <time>2017-06-19T07:53:51Z</time>
      </trkpt>
      <trkpt lat="60.122113963589072" lon="6.28057798370719">
        <ele>16.48</ele>
        <time>2017-06-19T07:53:52Z</time>
      </trkpt>
      <trkpt lat="60.121953031048179" lon="6.280425013974309">
        <ele>16.48</ele>
        <time>2017-06-19T07:53:53Z</time>
      </trkpt>
      <trkpt lat="60.121132023632526" lon="6.279169991612434">
        <ele>16.48</ele>
        <time>2017-06-19T07:53:59Z</time>
      </trkpt>
      <trkpt lat="60.120652997866273" lon="6.277299989014864">
        <ele>17.440000000000001</ele>
        <time>2017-06-19T07:54:06Z</time>
      </trkpt>
      <trkpt lat="60.1203010417521" lon="6.275320015847683">
        <ele>19.359999999999999</ele>
        <time>2017-06-19T07:54:13Z</time>
      </trkpt>
      <trkpt lat="60.120225017890334" lon="6.275086998939514">
        <ele>19.359999999999999</ele>
        <time>2017-06-19T07:54:14Z</time>
      </trkpt>
      <trkpt lat="60.119439968839288" lon="6.273009041324258">
        <ele>20.32</ele>
        <time>2017-06-19T07:54:24Z</time>
      </trkpt>
      <trkpt lat="60.11933502741158" lon="6.272841989994049">
        <ele>20.32</ele>
        <time>2017-06-19T07:54:25Z</time>
      </trkpt>
      <trkpt lat="60.119221033528447" lon="6.272705029696226">
        <ele>19.84</ele>
        <time>2017-06-19T07:54:26Z</time>
      </trkpt>
      <trkpt lat="60.119095975533128" lon="6.272588018327951">
        <ele>19.84</ele>
        <time>2017-06-19T07:54:27Z</time>
      </trkpt>
      <trkpt lat="60.118963038548827" lon="6.272487016394734">
        <ele>19.359999999999999</ele>
        <time>2017-06-19T07:54:28Z</time>
      </trkpt>
      <trkpt lat="60.117951007559896" lon="6.271480014547706">
        <ele>16.960000000000001</ele>
        <time>2017-06-19T07:54:36Z</time>
      </trkpt>
      <trkpt lat="60.117847993969917" lon="6.271294020116329">
        <ele>16.960000000000001</ele>
        <time>2017-06-19T07:54:37Z</time>
      </trkpt>
      <trkpt lat="60.117758978158236" lon="6.271085981279612">
        <ele>16.48</ele>
        <time>2017-06-19T07:54:38Z</time>
      </trkpt>
      <trkpt lat="60.11768002063036" lon="6.270863022655249">
        <ele>16</ele>
        <time>2017-06-19T07:54:39Z</time>
      </trkpt>
      <trkpt lat="60.117611037567258" lon="6.270622964948416">
        <ele>15.52</ele>
        <time>2017-06-19T07:54:40Z</time>
      </trkpt>
      <trkpt lat="60.117553034797311" lon="6.270361030474305">
        <ele>14.56</ele>
        <time>2017-06-19T07:54:41Z</time>
      </trkpt>
      <trkpt lat="60.117507018148899" lon="6.270075039938092">
        <ele>12.630000000000001</ele>
        <time>2017-06-19T07:54:42Z</time>
      </trkpt>
      <trkpt lat="60.117478016763926" lon="6.269777985289693">
        <ele>11.19</ele>
        <time>2017-06-19T07:54:43Z</time>
      </trkpt>
      <trkpt lat="60.117461001500487" lon="6.269479002803564">
        <ele>9.75</ele>
        <time>2017-06-19T07:54:44Z</time>
      </trkpt>
      <trkpt lat="60.117457984015346" lon="6.269180020317435">
        <ele>8.310000000000001</ele>
        <time>2017-06-19T07:54:45Z</time>
      </trkpt>
      <trkpt lat="60.117457984015346" lon="6.268895035609603">
        <ele>7.83</ele>
        <time>2017-06-19T07:54:46Z</time>
      </trkpt>
      <trkpt lat="60.117522021755576" lon="6.267394004389644">
        <ele>5.42</ele>
        <time>2017-06-19T07:54:52Z</time>
      </trkpt>
      <trkpt lat="60.117559991776943" lon="6.267140032723546">
        <ele>5.42</ele>
        <time>2017-06-19T07:54:53Z</time>
      </trkpt>
      <trkpt lat="60.117870960384607" lon="6.264597969129682">
        <ele>2.06</ele>
        <time>2017-06-19T07:55:02Z</time>
      </trkpt>
      <trkpt lat="60.117923012003303" lon="6.264319019392133">
        <ele>2.06</ele>
        <time>2017-06-19T07:55:03Z</time>
      </trkpt>
      <trkpt lat="60.117985038086772" lon="6.264040991663933">
        <ele>2.54</ele>
        <time>2017-06-19T07:55:04Z</time>
      </trkpt>
      <trkpt lat="60.118056032806635" lon="6.263767993077636">
        <ele>3.02</ele>
        <time>2017-06-19T07:55:05Z</time>
      </trkpt>
      <trkpt lat="60.118135996162891" lon="6.263496000319719">
        <ele>3.02</ele>
        <time>2017-06-19T07:55:06Z</time>
      </trkpt>
      <trkpt lat="60.118779977783561" lon="6.26089601777494">
        <ele>8.310000000000001</ele>
        <time>2017-06-19T07:55:15Z</time>
      </trkpt>
      <trkpt lat="60.11909999884665" lon="6.257983976975083">
        <ele>7.83</ele>
        <time>2017-06-19T07:55:24Z</time>
      </trkpt>
      <trkpt lat="60.119083989411592" lon="6.257353993132711">
        <ele>7.83</ele>
        <time>2017-06-19T07:55:26Z</time>
      </trkpt>
      <trkpt lat="60.119049036875367" lon="6.257061967626214">
        <ele>7.83</ele>
        <time>2017-06-19T07:55:27Z</time>
      </trkpt>
      <trkpt lat="60.118992039933801" lon="6.256787041202188">
        <ele>7.35</ele>
        <time>2017-06-19T07:55:28Z</time>
      </trkpt>
      <trkpt lat="60.118911992758512" lon="6.256519993767142">
        <ele>7.35</ele>
        <time>2017-06-19T07:55:29Z</time>
      </trkpt>
      <trkpt lat="60.118816019967198" lon="6.256269961595535">
        <ele>7.35</ele>
        <time>2017-06-19T07:55:30Z</time>
      </trkpt>
      <trkpt lat="60.118717029690742" lon="6.256018001586199">
        <ele>7.35</ele>
        <time>2017-06-19T07:55:31Z</time>
      </trkpt>
      <trkpt lat="60.118223000317812" lon="6.253733010962606">
        <ele>6.39</ele>
        <time>2017-06-19T07:55:38Z</time>
      </trkpt>
      <trkpt lat="60.117750009521842" lon="6.249778009951115">
        <ele>11.19</ele>
        <time>2017-06-19T07:55:49Z</time>
      </trkpt>
      <trkpt lat="60.117566026747227" lon="6.246277978643775">
        <ele>15.039999999999999</ele>
        <time>2017-06-19T07:55:59Z</time>
      </trkpt>
      <trkpt lat="60.116996979340911" lon="6.242813989520073">
        <ele>13.6</ele>
        <time>2017-06-19T07:56:09Z</time>
      </trkpt>
      <trkpt lat="60.116581991314888" lon="6.240630000829697">
        <ele>19.359999999999999</ele>
        <time>2017-06-19T07:56:16Z</time>
      </trkpt>
      <trkpt lat="60.115755032747984" lon="6.237636990845203">
        <ele>20.809999999999999</ele>
        <time>2017-06-19T07:56:26Z</time>
      </trkpt>
      <trkpt lat="60.114995967596769" lon="6.235128035768867">
        <ele>20.32</ele>
        <time>2017-06-19T07:56:35Z</time>
      </trkpt>
      <trkpt lat="60.114454999566078" lon="6.233477974310517">
        <ele>19.84</ele>
        <time>2017-06-19T07:56:41Z</time>
      </trkpt>
      <trkpt lat="60.114390961825848" lon="6.233195001259446">
        <ele>19.84</ele>
        <time>2017-06-19T07:56:42Z</time>
      </trkpt>
      <trkpt lat="60.114263975992799" lon="6.232672976329923">
        <ele>20.32</ele>
        <time>2017-06-19T07:56:44Z</time>
      </trkpt>
      <trkpt lat="60.114171020686626" lon="6.232439037412405">
        <ele>20.32</ele>
        <time>2017-06-19T07:56:45Z</time>
      </trkpt>
      <trkpt lat="60.113503988832235" lon="6.230642041191459">
        <ele>19.359999999999999</ele>
        <time>2017-06-19T07:56:52Z</time>
      </trkpt>
      <trkpt lat="60.113389994949102" lon="6.23040902428329">
        <ele>18.879999999999999</ele>
        <time>2017-06-19T07:56:53Z</time>
      </trkpt>
      <trkpt lat="60.113265020772815" lon="6.230199979618192">
        <ele>18.399999999999999</ele>
        <time>2017-06-19T07:56:54Z</time>
      </trkpt>
      <trkpt lat="60.113128982484341" lon="6.230004010722041">
        <ele>17.920000000000002</ele>
        <time>2017-06-19T07:56:55Z</time>
      </trkpt>
      <trkpt lat="60.112985987216234" lon="6.229817010462284">
        <ele>17.440000000000001</ele>
        <time>2017-06-19T07:56:56Z</time>
      </trkpt>
      <trkpt lat="60.111757032573223" lon="6.227857992053032">
        <ele>13.6</ele>
        <time>2017-06-19T07:57:05Z</time>
      </trkpt>
      <trkpt lat="60.111136017367244" lon="6.226977976039052">
        <ele>10.710000000000001</ele>
        <time>2017-06-19T07:57:10Z</time>
      </trkpt>
      <trkpt lat="60.111009031534195" lon="6.226874962449074">
        <ele>10.23</ele>
        <time>2017-06-19T07:57:11Z</time>
      </trkpt>
      <trkpt lat="60.11087198741734" lon="6.226798016577959">
        <ele>10.23</ele>
        <time>2017-06-19T07:57:12Z</time>
      </trkpt>
      <trkpt lat="60.110729997977614" lon="6.226726016029716">
        <ele>9.75</ele>
        <time>2017-06-19T07:57:13Z</time>
      </trkpt>
      <trkpt lat="60.110592031851411" lon="6.226629037410021">
        <ele>9.27</ele>
        <time>2017-06-19T07:57:14Z</time>
      </trkpt>
      <trkpt lat="60.110463034361601" lon="6.226495010778308">
        <ele>8.789999999999999</ele>
        <time>2017-06-19T07:57:15Z</time>
      </trkpt>
      <trkpt lat="60.110351974144578" lon="6.22632997110486">
        <ele>8.310000000000001</ele>
        <time>2017-06-19T07:57:16Z</time>
      </trkpt>
      <trkpt lat="60.11024996638298" lon="6.226128973066807">
        <ele>7.83</ele>
        <time>2017-06-19T07:57:17Z</time>
      </trkpt>
      <trkpt lat="60.110164973884821" lon="6.225906014442444">
        <ele>7.35</ele>
        <time>2017-06-19T07:57:18Z</time>
      </trkpt>
      <trkpt lat="60.110078975558281" lon="6.225688001140952">
        <ele>6.87</ele>
        <time>2017-06-19T07:57:19Z</time>
      </trkpt>
      <trkpt lat="60.10998903773725" lon="6.225487003102899">
        <ele>6.39</ele>
        <time>2017-06-19T07:57:20Z</time>
      </trkpt>
      <trkpt lat="60.109889963641763" lon="6.225311988964677">
        <ele>5.91</ele>
        <time>2017-06-19T07:57:21Z</time>
      </trkpt>
      <trkpt lat="60.109785022214055" lon="6.225139992311597">
        <ele>5.42</ele>
        <time>2017-06-19T07:57:22Z</time>
      </trkpt>
      <trkpt lat="60.10854902677238" lon="6.223413990810514">
        <ele>3.02</ele>
        <time>2017-06-19T07:57:32Z</time>
      </trkpt>
      <trkpt lat="60.107832960784435" lon="6.222281008958817">
        <ele>3.5</ele>
        <time>2017-06-19T07:57:38Z</time>
      </trkpt>
      <trkpt lat="60.107733970507979" lon="6.222055032849312">
        <ele>3.5</ele>
        <time>2017-06-19T07:57:39Z</time>
      </trkpt>
      <trkpt lat="60.106841968372464" lon="6.21994698420167">
        <ele>4.46</ele>
        <time>2017-06-19T07:57:48Z</time>
      </trkpt>
      <trkpt lat="60.106724034994841" lon="6.219758978113532">
        <ele>4.46</ele>
        <time>2017-06-19T07:57:49Z</time>
      </trkpt>
      <trkpt lat="60.106595037505031" lon="6.219588993117213">
        <ele>4.46</ele>
        <time>2017-06-19T07:57:50Z</time>
      </trkpt>
      <trkpt lat="60.106192035600543" lon="6.219113990664482">
        <ele>3.98</ele>
        <time>2017-06-19T07:57:53Z</time>
      </trkpt>
      <trkpt lat="60.106073012575507" lon="6.218913998454809">
        <ele>3.98</ele>
        <time>2017-06-19T07:57:54Z</time>
      </trkpt>
      <trkpt lat="60.105969998985529" lon="6.218672012910247">
        <ele>4.46</ele>
        <time>2017-06-19T07:57:55Z</time>
      </trkpt>
      <trkpt lat="60.105882994830608" lon="6.218405971303582">
        <ele>4.46</ele>
        <time>2017-06-19T07:57:56Z</time>
      </trkpt>
      <trkpt lat="60.105816023424268" lon="6.218111012130976">
        <ele>4.94</ele>
        <time>2017-06-19T07:57:57Z</time>
      </trkpt>
      <trkpt lat="60.105760032311082" lon="6.217800965532661">
        <ele>4.94</ele>
        <time>2017-06-19T07:57:58Z</time>
      </trkpt>
      <trkpt lat="60.10569398291409" lon="6.217487985268235">
        <ele>5.42</ele>
        <time>2017-06-19T07:57:59Z</time>
      </trkpt>
      <trkpt lat="60.105608990415931" lon="6.217183973640204">
        <ele>5.42</ele>
        <time>2017-06-19T07:58:00Z</time>
      </trkpt>
      <trkpt lat="60.105036003515124" lon="6.214921027421951">
        <ele>6.39</ele>
        <time>2017-06-19T07:58:07Z</time>
      </trkpt>
      <trkpt lat="60.104524958878756" lon="6.213543964549899">
        <ele>6.87</ele>
        <time>2017-06-19T07:58:12Z</time>
      </trkpt>
      <trkpt lat="60.104451030492783" lon="6.213231990113854">
        <ele>6.87</ele>
        <time>2017-06-19T07:58:13Z</time>
      </trkpt>
      <trkpt lat="60.10401701554656" lon="6.2105149962008">
        <ele>8.789999999999999</ele>
        <time>2017-06-19T07:58:21Z</time>
      </trkpt>
      <trkpt lat="60.103575959801674" lon="6.20842999778688">
        <ele>8.789999999999999</ele>
        <time>2017-06-19T07:58:28Z</time>
      </trkpt>
      <trkpt lat="60.103551987558603" lon="6.208177031949163">
        <ele>8.310000000000001</ele>
        <time>2017-06-19T07:58:29Z</time>
      </trkpt>
      <trkpt lat="60.103558022528887" lon="6.207946026697755">
        <ele>8.789999999999999</ele>
        <time>2017-06-19T07:58:30Z</time>
      </trkpt>
      <trkpt lat="60.103579983115196" lon="6.20774201117456">
        <ele>8.789999999999999</ele>
        <time>2017-06-19T07:58:31Z</time>
      </trkpt>
      <trkpt lat="60.103599010035396" lon="6.207544030621648">
        <ele>9.27</ele>
        <time>2017-06-19T07:58:32Z</time>
      </trkpt>
      <trkpt lat="60.103588029742241" lon="6.20716298930347">
        <ele>9.27</ele>
        <time>2017-06-19T07:58:34Z</time>
      </trkpt>
      <trkpt lat="60.103564979508519" lon="6.206972971558571">
        <ele>8.789999999999999</ele>
        <time>2017-06-19T07:58:35Z</time>
      </trkpt>
      <trkpt lat="60.103527009487152" lon="6.206782031804323">
        <ele>8.789999999999999</ele>
        <time>2017-06-19T07:58:36Z</time>
      </trkpt>
      <trkpt lat="60.103475041687489" lon="6.206596037372947">
        <ele>8.789999999999999</ele>
        <time>2017-06-19T07:58:37Z</time>
      </trkpt>
      <trkpt lat="60.103412009775639" lon="6.206410964950919">
        <ele>8.789999999999999</ele>
        <time>2017-06-19T07:58:38Z</time>
      </trkpt>
      <trkpt lat="60.103339003399014" lon="6.206223964691162">
        <ele>8.789999999999999</ele>
        <time>2017-06-19T07:58:39Z</time>
      </trkpt>
      <trkpt lat="60.103258034214377" lon="6.20604601688683">
        <ele>8.789999999999999</ele>
        <time>2017-06-19T07:58:40Z</time>
      </trkpt>
      <trkpt lat="60.103164995089173" lon="6.205864967778325">
        <ele>8.789999999999999</ele>
        <time>2017-06-19T07:58:41Z</time>
      </trkpt>
      <trkpt lat="60.103068016469479" lon="6.205690037459135">
        <ele>8.789999999999999</ele>
        <time>2017-06-19T07:58:42Z</time>
      </trkpt>
      <trkpt lat="60.102957962080836" lon="6.205519968643785">
        <ele>8.789999999999999</ele>
        <time>2017-06-19T07:58:43Z</time>
      </trkpt>
      <trkpt lat="60.102745983749628" lon="6.205147979781032">
        <ele>8.789999999999999</ele>
        <time>2017-06-19T07:58:45Z</time>
      </trkpt>
      <trkpt lat="60.10266400873661" lon="6.204924015328288">
        <ele>8.789999999999999</ele>
        <time>2017-06-19T07:58:46Z</time>
      </trkpt>
      <trkpt lat="60.102602988481522" lon="6.204672977328301">
        <ele>8.789999999999999</ele>
        <time>2017-06-19T07:58:47Z</time>
      </trkpt>
      <trkpt lat="60.10255797766149" lon="6.204396039247513">
        <ele>8.310000000000001</ele>
        <time>2017-06-19T07:58:48Z</time>
      </trkpt>
      <trkpt lat="60.102521013468504" lon="6.204102002084255">
        <ele>8.310000000000001</ele>
        <time>2017-06-19T07:58:49Z</time>
      </trkpt>
      <trkpt lat="60.102450018748641" lon="6.203188961371779">
        <ele>9.27</ele>
        <time>2017-06-19T07:58:52Z</time>
      </trkpt>
      <trkpt lat="60.102456975728273" lon="6.202869024127722">
        <ele>9.75</ele>
        <time>2017-06-19T07:58:53Z</time>
      </trkpt>
      <trkpt lat="60.102531993761659" lon="6.201222985982895">
        <ele>15.039999999999999</ele>
        <time>2017-06-19T07:58:58Z</time>
      </trkpt>
      <trkpt lat="60.102530987933278" lon="6.200892990455031">
        <ele>16</ele>
        <time>2017-06-19T07:58:59Z</time>
      </trkpt>
      <trkpt lat="60.102548003196716" lon="6.199917001649737">
        <ele>18.399999999999999</ele>
        <time>2017-06-19T07:59:02Z</time>
      </trkpt>
      <trkpt lat="60.102582033723593" lon="6.199595974758267">
        <ele>19.359999999999999</ele>
        <time>2017-06-19T07:59:03Z</time>
      </trkpt>
      <trkpt lat="60.102635007351637" lon="6.199287017807365">
        <ele>19.84</ele>
        <time>2017-06-19T07:59:04Z</time>
      </trkpt>
      <trkpt lat="60.102918986231089" lon="6.19820399209857">
        <ele>21.289999999999999</ele>
        <time>2017-06-19T07:59:08Z</time>
      </trkpt>
      <trkpt lat="60.103015964850783" lon="6.197997964918613">
        <ele>22.25</ele>
        <time>2017-06-19T07:59:09Z</time>
      </trkpt>
      <trkpt lat="60.103125013411045" lon="6.197812976315618">
        <ele>23.210000000000001</ele>
        <time>2017-06-19T07:59:10Z</time>
      </trkpt>
      <trkpt lat="60.103239007294178" lon="6.197626981884241">
        <ele>24.170000000000002</ele>
        <time>2017-06-19T07:59:11Z</time>
      </trkpt>
      <trkpt lat="60.103344032540917" lon="6.197406034916639">
        <ele>24.649999999999999</ele>
        <time>2017-06-19T07:59:12Z</time>
      </trkpt>
      <trkpt lat="60.103438999503851" lon="6.197152985259891">
        <ele>25.129999999999999</ele>
        <time>2017-06-19T07:59:13Z</time>
      </trkpt>
      <trkpt lat="60.10352298617363" lon="6.196865988895297">
        <ele>26.09</ele>
        <time>2017-06-19T07:59:14Z</time>
      </trkpt>
      <trkpt lat="60.103604039177299" lon="6.196564994752407">
        <ele>26.09</ele>
        <time>2017-06-19T07:59:15Z</time>
      </trkpt>
      <trkpt lat="60.104007963091135" lon="6.195134036242962">
        <ele>29.460000000000001</ele>
        <time>2017-06-19T07:59:20Z</time>
      </trkpt>
      <trkpt lat="60.104061020538211" lon="6.194847961887717">
        <ele>29.460000000000001</ele>
        <time>2017-06-19T07:59:21Z</time>
      </trkpt>
      <trkpt lat="60.104088010266423" lon="6.194567000493407">
        <ele>29.460000000000001</ele>
        <time>2017-06-19T07:59:22Z</time>
      </trkpt>
      <trkpt lat="60.104087004438043" lon="6.19429299607873">
        <ele>29.460000000000001</ele>
        <time>2017-06-19T07:59:23Z</time>
      </trkpt>
      <trkpt lat="60.104062026366591" lon="6.194013962522149">
        <ele>28.98</ele>
        <time>2017-06-19T07:59:24Z</time>
      </trkpt>
      <trkpt lat="60.104019027203321" lon="6.193717997521162">
        <ele>28.98</ele>
        <time>2017-06-19T07:59:25Z</time>
      </trkpt>
      <trkpt lat="60.103401029482484" lon="6.189920995384455">
        <ele>26.57</ele>
        <time>2017-06-19T07:59:37Z</time>
      </trkpt>
      <trkpt lat="60.103187039494514" lon="6.188782984390855">
        <ele>24.649999999999999</ele>
        <time>2017-06-19T07:59:41Z</time>
      </trkpt>
      <trkpt lat="60.103160971775651" lon="6.188487019389868">
        <ele>23.690000000000001</ele>
        <time>2017-06-19T07:59:42Z</time>
      </trkpt>
      <trkpt lat="60.103162983432412" lon="6.188175966963172">
        <ele>22.73</ele>
        <time>2017-06-19T07:59:43Z</time>
      </trkpt>
      <trkpt lat="60.103184022009373" lon="6.187856029719114">
        <ele>21.289999999999999</ele>
        <time>2017-06-19T07:59:44Z</time>
      </trkpt>
      <trkpt lat="60.103216040879488" lon="6.187526034191251">
        <ele>20.32</ele>
        <time>2017-06-19T07:59:45Z</time>
      </trkpt>
      <trkpt lat="60.103275971487164" lon="6.186102032661438">
        <ele>18.399999999999999</ele>
        <time>2017-06-19T07:59:49Z</time>
      </trkpt>
      <trkpt lat="60.103256022557616" lon="6.185738006606698">
        <ele>18.399999999999999</ele>
        <time>2017-06-19T07:59:50Z</time>
      </trkpt>
      <trkpt lat="60.102947987616062" lon="6.18215398862958">
        <ele>22.73</ele>
        <time>2017-06-19T08:00:00Z</time>
      </trkpt>
      <trkpt lat="60.102902976796031" lon="6.181453010067344">
        <ele>26.09</ele>
        <time>2017-06-19T08:00:02Z</time>
      </trkpt>
      <trkpt lat="60.10290096513927" lon="6.1811029817909">
        <ele>28.02</ele>
        <time>2017-06-19T08:00:03Z</time>
      </trkpt>
      <trkpt lat="60.102870035916567" lon="6.177782993763685">
        <ele>33.299999999999997</ele>
        <time>2017-06-19T08:00:13Z</time>
      </trkpt>
      <trkpt lat="60.10281597264111" lon="6.17747001349926">
        <ele>32.340000000000003</ele>
        <time>2017-06-19T08:00:14Z</time>
      </trkpt>
      <trkpt lat="60.102746989578009" lon="6.177147980779409">
        <ele>30.899999999999999</ele>
        <time>2017-06-19T08:00:15Z</time>
      </trkpt>
      <trkpt lat="60.10266400873661" lon="6.176830977201462">
        <ele>29.460000000000001</ele>
        <time>2017-06-19T08:00:16Z</time>
      </trkpt>
      <trkpt lat="60.102565018460155" lon="6.17652595974505">
        <ele>28.02</ele>
        <time>2017-06-19T08:00:17Z</time>
      </trkpt>
      <trkpt lat="60.102456975728273" lon="6.176252039149404">
        <ele>27.050000000000001</ele>
        <time>2017-06-19T08:00:18Z</time>
      </trkpt>
      <trkpt lat="60.102336024865508" lon="6.175999995321035">
        <ele>26.09</ele>
        <time>2017-06-19T08:00:19Z</time>
      </trkpt>
      <trkpt lat="60.102218007668853" lon="6.175763960927725">
        <ele>25.609999999999999</ele>
        <time>2017-06-19T08:00:20Z</time>
      </trkpt>
      <trkpt lat="60.102112982422113" lon="6.175519041717053">
        <ele>25.129999999999999</ele>
        <time>2017-06-19T08:00:21Z</time>
      </trkpt>
      <trkpt lat="60.102030001580715" lon="6.175253000110388">
        <ele>25.129999999999999</ele>
        <time>2017-06-19T08:00:22Z</time>
      </trkpt>
      <trkpt lat="60.101965041831136" lon="6.174948988482356">
        <ele>24.649999999999999</ele>
        <time>2017-06-19T08:00:23Z</time>
      </trkpt>
      <trkpt lat="60.101910978555679" lon="6.174627039581537">
        <ele>24.170000000000002</ele>
        <time>2017-06-19T08:00:24Z</time>
      </trkpt>
      <trkpt lat="60.101867979392409" lon="6.174293020740151">
        <ele>23.690000000000001</ele>
        <time>2017-06-19T08:00:25Z</time>
      </trkpt>
      <trkpt lat="60.101626999676228" lon="6.17252997122705">
        <ele>18.399999999999999</ele>
        <time>2017-06-19T08:00:30Z</time>
      </trkpt>
      <trkpt lat="60.101539995521307" lon="6.172192012891173">
        <ele>16.960000000000001</ele>
        <time>2017-06-19T08:00:31Z</time>
      </trkpt>
      <trkpt lat="60.101442011073232" lon="6.171869980171323">
        <ele>16</ele>
        <time>2017-06-19T08:00:32Z</time>
      </trkpt>
      <trkpt lat="60.100829964503646" lon="6.170161999762058">
        <ele>9.75</ele>
        <time>2017-06-19T08:00:39Z</time>
      </trkpt>
      <trkpt lat="60.100581021979451" lon="6.169715998694301">
        <ele>7.35</ele>
        <time>2017-06-19T08:00:46Z</time>
      </trkpt>
      <trkpt lat="60.100478008389473" lon="6.169535033404827">
        <ele>7.35</ele>
        <time>2017-06-19T08:00:56Z</time>
      </trkpt>
      <trkpt lat="60.100282039493322" lon="6.169081991538405">
        <ele>7.35</ele>
        <time>2017-06-19T08:01:02Z</time>
      </trkpt>
      <trkpt lat="60.100076012313366" lon="6.168485032394528">
        <ele>7.83</ele>
        <time>2017-06-19T08:01:10Z</time>
      </trkpt>
      <trkpt lat="60.100082969292998" lon="6.168443961068988">
        <ele>7.83</ele>
        <time>2017-06-19T08:01:11Z</time>
      </trkpt>
      <trkpt lat="60.100104007869959" lon="6.168329967185855">
        <ele>7.83</ele>
        <time>2017-06-19T08:01:14Z</time>
      </trkpt>
      <trkpt lat="60.100099984556437" lon="6.168298032134771">
        <ele>7.83</ele>
        <time>2017-06-19T08:01:15Z</time>
      </trkpt>
      <trkpt lat="60.100087998434901" lon="6.168276993557811">
        <ele>7.83</ele>
        <time>2017-06-19T08:01:16Z</time>
      </trkpt>
      <trkpt lat="60.099991019815207" lon="6.168061997741461">
        <ele>7.83</ele>
        <time>2017-06-19T08:01:26Z</time>
      </trkpt>
      <trkpt lat="60.099980039522052" lon="6.168055040761828">
        <ele>7.83</ele>
        <time>2017-06-19T08:01:27Z</time>
      </trkpt>
      <trkpt lat="60.099970987066627" lon="6.168050011619926">
        <ele>8.310000000000001</ele>
        <time>2017-06-19T08:01:28Z</time>
      </trkpt>
      <trkpt lat="60.099954977631569" lon="6.168090999126434">
        <ele>9.27</ele>
        <time>2017-06-19T08:01:48Z</time>
      </trkpt>
      <trkpt lat="60.099951960146427" lon="6.168096028268337">
        <ele>8.789999999999999</ele>
        <time>2017-06-19T08:02:53Z</time>
      </trkpt>
      <trkpt lat="60.099581982940435" lon="6.164206992834806">
        <ele>11.19</ele>
        <time>2017-06-19T08:05:07Z</time>
      </trkpt>
      <trkpt lat="60.099622970446944" lon="6.163910022005439">
        <ele>12.15</ele>
        <time>2017-06-19T08:05:11Z</time>
      </trkpt>
      <trkpt lat="60.09963596239686" lon="6.163837015628815">
        <ele>13.119999999999999</ele>
        <time>2017-06-19T08:05:12Z</time>
      </trkpt>
      <trkpt lat="60.099650966003537" lon="6.163788987323642">
        <ele>14.56</ele>
        <time>2017-06-19T08:05:13Z</time>
      </trkpt>
      <trkpt lat="60.099665969610214" lon="6.163759985938668">
        <ele>15.039999999999999</ele>
        <time>2017-06-19T08:05:14Z</time>
      </trkpt>
      <trkpt lat="60.099683990702033" lon="6.163739031180739">
        <ele>14.08</ele>
        <time>2017-06-19T08:05:15Z</time>
      </trkpt>
      <trkpt lat="60.099686002358794" lon="6.163732996210456">
        <ele>15.52</ele>
        <time>2017-06-19T08:05:33Z</time>
      </trkpt>
      <trkpt lat="60.099681979045272" lon="6.163726039230824">
        <ele>14.56</ele>
        <time>2017-06-19T08:06:26Z</time>
      </trkpt>
      <trkpt lat="60.099806031212211" lon="6.163063030689955">
        <ele>17.920000000000002</ele>
        <time>2017-06-19T08:06:31Z</time>
      </trkpt>
      <trkpt lat="60.099894041195512" lon="6.162498006597161">
        <ele>19.84</ele>
        <time>2017-06-19T08:06:34Z</time>
      </trkpt>
      <trkpt lat="60.099908960983157" lon="6.16230295971036">
        <ele>20.32</ele>
        <time>2017-06-19T08:06:35Z</time>
      </trkpt>
      <trkpt lat="60.099959000945091" lon="6.161262011155486">
        <ele>21.289999999999999</ele>
        <time>2017-06-19T08:06:40Z</time>
      </trkpt>
      <trkpt lat="60.099943997338414" lon="6.161064030602574">
        <ele>21.289999999999999</ele>
        <time>2017-06-19T08:06:41Z</time>
      </trkpt>
      <trkpt lat="60.099908038973808" lon="6.160865966230631">
        <ele>20.809999999999999</ele>
        <time>2017-06-19T08:06:42Z</time>
      </trkpt>
      <trkpt lat="60.099301021546125" lon="6.158583993092179">
        <ele>21.77</ele>
        <time>2017-06-19T08:06:52Z</time>
      </trkpt>
      <trkpt lat="60.09901000186801" lon="6.157670030370355">
        <ele>21.289999999999999</ele>
        <time>2017-06-19T08:06:56Z</time>
      </trkpt>
      <trkpt lat="60.098739014938474" lon="6.157111963257194">
        <ele>19.84</ele>
        <time>2017-06-19T08:06:59Z</time>
      </trkpt>
      <trkpt lat="60.09845201857388" lon="6.156729999929667">
        <ele>18.879999999999999</ele>
        <time>2017-06-19T08:07:02Z</time>
      </trkpt>
      <trkpt lat="60.094071971252561" lon="6.147792963311076">
        <ele>24.170000000000002</ele>
        <time>2017-06-19T08:07:40Z</time>
      </trkpt>
      <trkpt lat="60.093609960749745" lon="6.145592965185642">
        <ele>15.039999999999999</ele>
        <time>2017-06-19T08:07:47Z</time>
      </trkpt>
      <trkpt lat="60.093569979071617" lon="6.145269004628062">
        <ele>14.56</ele>
        <time>2017-06-19T08:07:48Z</time>
      </trkpt>
      <trkpt lat="60.093550030142069" lon="6.144919982179999">
        <ele>13.119999999999999</ele>
        <time>2017-06-19T08:07:49Z</time>
      </trkpt>
      <trkpt lat="60.093460008502007" lon="6.141980029642582">
        <ele>13.6</ele>
        <time>2017-06-19T08:07:57Z</time>
      </trkpt>
      <trkpt lat="60.093380967155099" lon="6.138655012473464">
        <ele>11.67</ele>
        <time>2017-06-19T08:08:06Z</time>
      </trkpt>
      <trkpt lat="60.093411980196834" lon="6.138287968933582">
        <ele>12.15</ele>
        <time>2017-06-19T08:08:07Z</time>
      </trkpt>
      <trkpt lat="60.093773994594812" lon="6.134161977097392">
        <ele>13.6</ele>
        <time>2017-06-19T08:08:18Z</time>
      </trkpt>
      <trkpt lat="60.093884970992804" lon="6.13254502415657">
        <ele>12.15</ele>
        <time>2017-06-19T08:08:23Z</time>
      </trkpt>
      <trkpt lat="60.094222007319331" lon="6.129361996427178">
        <ele>9.75</ele>
        <time>2017-06-19T08:08:32Z</time>
      </trkpt>
      <trkpt lat="60.094332983717322" lon="6.127154035493732">
        <ele>10.710000000000001</ele>
        <time>2017-06-19T08:08:39Z</time>
      </trkpt>
      <trkpt lat="60.094193005934358" lon="6.12506995908916">
        <ele>12.630000000000001</ele>
        <time>2017-06-19T08:08:46Z</time>
      </trkpt>
      <trkpt lat="60.093926964327693" lon="6.121827000752091">
        <ele>18.399999999999999</ele>
        <time>2017-06-19T08:08:56Z</time>
      </trkpt>
      <trkpt lat="60.093907015398145" lon="6.119272029027343">
        <ele>18.399999999999999</ele>
        <time>2017-06-19T08:09:04Z</time>
      </trkpt>
      <trkpt lat="60.094406995922327" lon="6.115994034335017">
        <ele>24.170000000000002</ele>
        <time>2017-06-19T08:09:14Z</time>
      </trkpt>
      <trkpt lat="60.094504980370402" lon="6.115348041057587">
        <ele>26.09</ele>
        <time>2017-06-19T08:09:16Z</time>
      </trkpt>
      <trkpt lat="60.094529036432505" lon="6.115018967539072">
        <ele>27.530000000000001</ele>
        <time>2017-06-19T08:09:17Z</time>
      </trkpt>
      <trkpt lat="60.094532975926995" lon="6.114696012809873">
        <ele>28.5</ele>
        <time>2017-06-19T08:09:18Z</time>
      </trkpt>
      <trkpt lat="60.094511015340686" lon="6.114378003403544">
        <ele>28.98</ele>
        <time>2017-06-19T08:09:19Z</time>
      </trkpt>
      <trkpt lat="60.094471033662558" lon="6.114059993997216">
        <ele>28.98</ele>
        <time>2017-06-19T08:09:20Z</time>
      </trkpt>
      <trkpt lat="60.09441495873034" lon="6.113748019561172">
        <ele>28.98</ele>
        <time>2017-06-19T08:09:21Z</time>
      </trkpt>
      <trkpt lat="60.094337007030845" lon="6.113450964912772">
        <ele>28.5</ele>
        <time>2017-06-19T08:09:22Z</time>
      </trkpt>
      <trkpt lat="60.094245979562402" lon="6.113164974376559">
        <ele>28.02</ele>
        <time>2017-06-19T08:09:23Z</time>
      </trkpt>
      <trkpt lat="60.09413399733603" lon="6.112899016588926">
        <ele>27.050000000000001</ele>
        <time>2017-06-19T08:09:24Z</time>
      </trkpt>
      <trkpt lat="60.094000976532698" lon="6.112663988023996">
        <ele>26.09</ele>
        <time>2017-06-19T08:09:25Z</time>
      </trkpt>
      <trkpt lat="60.093854041770101" lon="6.112466007471085">
        <ele>25.129999999999999</ele>
        <time>2017-06-19T08:09:26Z</time>
      </trkpt>
      <trkpt lat="60.093700988218188" lon="6.112279007211328">
        <ele>23.690000000000001</ele>
        <time>2017-06-19T08:09:27Z</time>
      </trkpt>
      <trkpt lat="60.092669008299708" lon="6.111136972904205">
        <ele>21.289999999999999</ele>
        <time>2017-06-19T08:09:34Z</time>
      </trkpt>
      <trkpt lat="60.092513021081686" lon="6.111046029254794">
        <ele>21.289999999999999</ele>
        <time>2017-06-19T08:09:35Z</time>
      </trkpt>
      <trkpt lat="60.092348987236619" lon="6.110986014828086">
        <ele>20.809999999999999</ele>
        <time>2017-06-19T08:09:36Z</time>
      </trkpt>
      <trkpt lat="60.092184031382203" lon="6.110957013443112">
        <ele>19.84</ele>
        <time>2017-06-19T08:09:37Z</time>
      </trkpt>
      <trkpt lat="60.092013962566853" lon="6.11095299012959">
        <ele>18.879999999999999</ele>
        <time>2017-06-19T08:09:38Z</time>
      </trkpt>
      <trkpt lat="60.091374004259706" lon="6.110939998179674">
        <ele>14.56</ele>
        <time>2017-06-19T08:09:42Z</time>
      </trkpt>
      <trkpt lat="60.091230003163218" lon="6.110883001238108">
        <ele>14.08</ele>
        <time>2017-06-19T08:09:43Z</time>
      </trkpt>
      <trkpt lat="60.091095976531506" lon="6.110790967941284">
        <ele>13.6</ele>
        <time>2017-06-19T08:09:44Z</time>
      </trkpt>
      <trkpt lat="60.09097401984036" lon="6.110668005421758">
        <ele>13.119999999999999</ele>
        <time>2017-06-19T08:09:45Z</time>
      </trkpt>
      <trkpt lat="60.09086899459362" lon="6.110512018203735">
        <ele>12.630000000000001</ele>
        <time>2017-06-19T08:09:46Z</time>
      </trkpt>
      <trkpt lat="60.0907819904387" lon="6.110322000458837">
        <ele>12.630000000000001</ele>
        <time>2017-06-19T08:09:47Z</time>
      </trkpt>
      <trkpt lat="60.090709989890456" lon="6.110107004642487">
        <ele>12.630000000000001</ele>
        <time>2017-06-19T08:09:48Z</time>
      </trkpt>
      <trkpt lat="60.090645030140877" lon="6.109875999391079">
        <ele>12.630000000000001</ele>
        <time>2017-06-19T08:09:49Z</time>
      </trkpt>
      <trkpt lat="60.09007103741169" lon="6.107697961851955">
        <ele>18.879999999999999</ele>
        <time>2017-06-19T08:09:57Z</time>
      </trkpt>
      <trkpt lat="60.089548006653786" lon="6.104882983490825">
        <ele>23.690000000000001</ele>
        <time>2017-06-19T08:10:06Z</time>
      </trkpt>
      <trkpt lat="60.088700009509921" lon="6.103213978931308">
        <ele>25.609999999999999</ele>
        <time>2017-06-19T08:10:13Z</time>
      </trkpt>
      <trkpt lat="60.087199984118342" lon="6.10102797858417">
        <ele>24.649999999999999</ele>
        <time>2017-06-19T08:10:23Z</time>
      </trkpt>
      <trkpt lat="60.085331993177533" lon="6.097340025007725">
        <ele>23.690000000000001</ele>
        <time>2017-06-19T08:10:37Z</time>
      </trkpt>
      <trkpt lat="60.084233041852713" lon="6.094443993642926">
        <ele>21.289999999999999</ele>
        <time>2017-06-19T08:10:47Z</time>
      </trkpt>
      <trkpt lat="60.082967961207032" lon="6.090753022581339">
        <ele>16</ele>
        <time>2017-06-19T08:10:59Z</time>
      </trkpt>
      <trkpt lat="60.082334959879518" lon="6.08770402148366">
        <ele>16.48</ele>
        <time>2017-06-19T08:11:08Z</time>
      </trkpt>
      <trkpt lat="60.081629035994411" lon="6.085289027541876">
        <ele>14.56</ele>
        <time>2017-06-19T08:11:16Z</time>
      </trkpt>
      <trkpt lat="60.081058982759714" lon="6.083723036572337">
        <ele>17.440000000000001</ele>
        <time>2017-06-19T08:11:22Z</time>
      </trkpt>
      <trkpt lat="60.08094297721982" lon="6.083508962765336">
        <ele>18.399999999999999</ele>
        <time>2017-06-19T08:11:23Z</time>
      </trkpt>
      <trkpt lat="60.079795997589827" lon="6.077225971966982">
        <ele>37.149999999999999</ele>
        <time>2017-06-19T08:11:46Z</time>
      </trkpt>
      <trkpt lat="60.07976196706295" lon="6.076959008350968">
        <ele>36.189999999999998</ele>
        <time>2017-06-19T08:11:47Z</time>
      </trkpt>
      <trkpt lat="60.079118991270661" lon="6.074098013341427">
        <ele>47.240000000000002</ele>
        <time>2017-06-19T08:11:58Z</time>
      </trkpt>
      <trkpt lat="60.078220032155514" lon="6.072175959125161">
        <ele>44.359999999999999</ele>
        <time>2017-06-19T08:12:06Z</time>
      </trkpt>
      <trkpt lat="60.076781027019024" lon="6.069382019340992">
        <ele>47.240000000000002</ele>
        <time>2017-06-19T08:12:17Z</time>
      </trkpt>
      <trkpt lat="60.07662596181035" lon="6.069219997152686">
        <ele>47.240000000000002</ele>
        <time>2017-06-19T08:12:18Z</time>
      </trkpt>
      <trkpt lat="60.075667994096875" lon="6.068438971415162">
        <ele>46.759999999999998</ele>
        <time>2017-06-19T08:12:24Z</time>
      </trkpt>
      <trkpt lat="60.075495997443795" lon="6.068382980301976">
        <ele>46.280000000000001</ele>
        <time>2017-06-19T08:12:25Z</time>
      </trkpt>
      <trkpt lat="60.074136033654213" lon="6.068036975339055">
        <ele>41.469999999999999</ele>
        <time>2017-06-19T08:12:33Z</time>
      </trkpt>
      <trkpt lat="60.073992032557726" lon="6.06789699755609">
        <ele>42.439999999999998</ele>
        <time>2017-06-19T08:12:34Z</time>
      </trkpt>
      <trkpt lat="60.073860017582774" lon="6.067712008953095">
        <ele>43.399999999999999</ele>
        <time>2017-06-19T08:12:35Z</time>
      </trkpt>
      <trkpt lat="60.073733031749725" lon="6.067503970116377">
        <ele>43.880000000000003</ele>
        <time>2017-06-19T08:12:36Z</time>
      </trkpt>
      <trkpt lat="60.073627000674605" lon="6.067283023148775">
        <ele>44.359999999999999</ele>
        <time>2017-06-19T08:12:37Z</time>
      </trkpt>
      <trkpt lat="60.073534967377782" lon="6.067049000412226">
        <ele>44.359999999999999</ele>
        <time>2017-06-19T08:12:38Z</time>
      </trkpt>
      <trkpt lat="60.073474030941725" lon="6.066773990169168">
        <ele>44.840000000000003</ele>
        <time>2017-06-19T08:12:39Z</time>
      </trkpt>
      <trkpt lat="60.073427008464932" lon="6.066482970491052">
        <ele>44.840000000000003</ele>
        <time>2017-06-19T08:12:40Z</time>
      </trkpt>
      <trkpt lat="60.073389960452914" lon="6.066175019368529">
        <ele>44.840000000000003</ele>
        <time>2017-06-19T08:12:41Z</time>
      </trkpt>
      <trkpt lat="60.073111010715365" lon="6.062787976115942">
        <ele>38.590000000000003</ele>
        <time>2017-06-19T08:12:51Z</time>
      </trkpt>
      <trkpt lat="60.073169013485312" lon="6.059278976172209">
        <ele>32.82</ele>
        <time>2017-06-19T08:13:01Z</time>
      </trkpt>
      <trkpt lat="60.073111010715365" lon="6.057696975767613">
        <ele>31.379999999999999</ele>
        <time>2017-06-19T08:13:06Z</time>
      </trkpt>
      <trkpt lat="60.073061976581812" lon="6.057418026030064">
        <ele>30.899999999999999</ele>
        <time>2017-06-19T08:13:07Z</time>
      </trkpt>
      <trkpt lat="60.073001040145755" lon="6.05713396333158">
        <ele>29.940000000000001</ele>
        <time>2017-06-19T08:13:08Z</time>
      </trkpt>
      <trkpt lat="60.071989009156823" lon="6.054007010534406">
        <ele>28.98</ele>
        <time>2017-06-19T08:13:19Z</time>
      </trkpt>
      <trkpt lat="60.070617981255054" lon="6.051104022189975">
        <ele>24.649999999999999</ele>
        <time>2017-06-19T08:13:30Z</time>
      </trkpt>
      <trkpt lat="60.070524020120502" lon="6.050803028047085">
        <ele>24.170000000000002</ele>
        <time>2017-06-19T08:13:31Z</time>
      </trkpt>
      <trkpt lat="60.070441961288452" lon="6.050490969792008">
        <ele>24.170000000000002</ele>
        <time>2017-06-19T08:13:32Z</time>
      </trkpt>
      <trkpt lat="60.069536967203021" lon="6.046505039557815">
        <ele>20.32</ele>
        <time>2017-06-19T08:13:44Z</time>
      </trkpt>
      <trkpt lat="60.068977978080511" lon="6.043953001499176">
        <ele>20.32</ele>
        <time>2017-06-19T08:13:52Z</time>
      </trkpt>
      <trkpt lat="60.068874964490533" lon="6.043690983206034">
        <ele>20.32</ele>
        <time>2017-06-19T08:13:53Z</time>
      </trkpt>
      <trkpt lat="60.068765999749303" lon="6.043447991833091">
        <ele>19.84</ele>
        <time>2017-06-19T08:13:54Z</time>
      </trkpt>
      <trkpt lat="60.067166984081268" lon="6.040146024897695">
        <ele>17.920000000000002</ele>
        <time>2017-06-19T08:14:07Z</time>
      </trkpt>
      <trkpt lat="60.066357040777802" lon="6.03839697316289">
        <ele>18.399999999999999</ele>
        <time>2017-06-19T08:14:14Z</time>
      </trkpt>
      <trkpt lat="60.065461015328765" lon="6.037410004064441">
        <ele>16.960000000000001</ele>
        <time>2017-06-19T08:14:20Z</time>
      </trkpt>
      <trkpt lat="60.065310979261994" lon="6.037330040708184">
        <ele>16.960000000000001</ele>
        <time>2017-06-19T08:14:21Z</time>
      </trkpt>
      <trkpt lat="60.065160021185875" lon="6.037297016009688">
        <ele>16.960000000000001</ele>
        <time>2017-06-19T08:14:22Z</time>
      </trkpt>
      <trkpt lat="60.065006967633963" lon="6.03730296716094">
        <ele>16.48</ele>
        <time>2017-06-19T08:14:23Z</time>
      </trkpt>
      <trkpt lat="60.064848968759179" lon="6.037318976595998">
        <ele>15.52</ele>
        <time>2017-06-19T08:14:24Z</time>
      </trkpt>
      <trkpt lat="60.064688958227634" lon="6.037305984646082">
        <ele>15.039999999999999</ele>
        <time>2017-06-19T08:14:25Z</time>
      </trkpt>
      <trkpt lat="60.064529031515121" lon="6.037261979654431">
        <ele>14.08</ele>
        <time>2017-06-19T08:14:26Z</time>
      </trkpt>
      <trkpt lat="60.06437698379159" lon="6.037183022126555">
        <ele>14.08</ele>
        <time>2017-06-19T08:14:27Z</time>
      </trkpt>
      <trkpt lat="60.064231976866722" lon="6.037070034071803">
        <ele>13.6</ele>
        <time>2017-06-19T08:14:28Z</time>
      </trkpt>
      <trkpt lat="60.06409702822566" lon="6.036921003833413">
        <ele>13.119999999999999</ele>
        <time>2017-06-19T08:14:29Z</time>
      </trkpt>
      <trkpt lat="60.063972976058722" lon="6.036734003573656">
        <ele>13.119999999999999</ele>
        <time>2017-06-19T08:14:30Z</time>
      </trkpt>
      <trkpt lat="60.063859988003969" lon="6.036514984443784">
        <ele>13.119999999999999</ele>
        <time>2017-06-19T08:14:31Z</time>
      </trkpt>
      <trkpt lat="60.063751023262739" lon="6.036275010555983">
        <ele>14.08</ele>
        <time>2017-06-19T08:14:32Z</time>
      </trkpt>
      <trkpt lat="60.062928004190326" lon="6.03371299803257">
        <ele>17.440000000000001</ele>
        <time>2017-06-19T08:14:42Z</time>
      </trkpt>
      <trkpt lat="60.062027033418417" lon="6.031273026019335">
        <ele>15.52</ele>
        <time>2017-06-19T08:14:51Z</time>
      </trkpt>
      <trkpt lat="60.060941996052861" lon="6.029070010408759">
        <ele>19.359999999999999</ele>
        <time>2017-06-19T08:15:00Z</time>
      </trkpt>
      <trkpt lat="60.059444988146424" lon="6.02750401943922">
        <ele>19.84</ele>
        <time>2017-06-19T08:15:10Z</time>
      </trkpt>
      <trkpt lat="60.057642962783575" lon="6.026028972119093">
        <ele>25.129999999999999</ele>
        <time>2017-06-19T08:15:21Z</time>
      </trkpt>
      <trkpt lat="60.055332994088531" lon="6.024381006136537">
        <ele>28.5</ele>
        <time>2017-06-19T08:15:35Z</time>
      </trkpt>
      <trkpt lat="60.05389197729528" lon="6.023363023996353">
        <ele>27.530000000000001</ele>
        <time>2017-06-19T08:15:45Z</time>
      </trkpt>
      <trkpt lat="60.052407961338758" lon="6.022314028814435">
        <ele>28.5</ele>
        <time>2017-06-19T08:15:58Z</time>
      </trkpt>
      <trkpt lat="60.051285959780216" lon="6.021453961730003">
        <ele>28.5</ele>
        <time>2017-06-19T08:16:10Z</time>
      </trkpt>
      <trkpt lat="60.051228040829301" lon="6.021350026130676">
        <ele>28.5</ele>
        <time>2017-06-19T08:16:11Z</time>
      </trkpt>
      <trkpt lat="60.051188981160522" lon="6.021232008934021">
        <ele>28.5</ele>
        <time>2017-06-19T08:16:12Z</time>
      </trkpt>
      <trkpt lat="60.051167020574212" lon="6.021113991737366">
        <ele>28.02</ele>
        <time>2017-06-19T08:16:13Z</time>
      </trkpt>
      <trkpt lat="60.051160985603929" lon="6.020993962883949">
        <ele>28.02</ele>
        <time>2017-06-19T08:16:14Z</time>
      </trkpt>
      <trkpt lat="60.051170038059354" lon="6.020888015627861">
        <ele>28.02</ele>
        <time>2017-06-19T08:16:15Z</time>
      </trkpt>
      <trkpt lat="60.051194010302424" lon="6.020795982331038">
        <ele>28.02</ele>
        <time>2017-06-19T08:16:16Z</time>
      </trkpt>
      <trkpt lat="60.051237009465694" lon="6.020719958469272">
        <ele>27.530000000000001</ele>
        <time>2017-06-19T08:16:17Z</time>
      </trkpt>
      <trkpt lat="60.051299035549164" lon="6.020670002326369">
        <ele>27.530000000000001</ele>
        <time>2017-06-19T08:16:18Z</time>
      </trkpt>
      <trkpt lat="60.051370030269027" lon="6.020635971799493">
        <ele>26.57</ele>
        <time>2017-06-19T08:16:19Z</time>
      </trkpt>
      <trkpt lat="60.051447981968522" lon="6.020617028698325">
        <ele>26.09</ele>
        <time>2017-06-19T08:16:20Z</time>
      </trkpt>
      <trkpt lat="60.05153096280992" lon="6.020608982071281">
        <ele>25.129999999999999</ele>
        <time>2017-06-19T08:16:21Z</time>
      </trkpt>
      <trkpt lat="60.052341995760798" lon="6.020561959594488">
        <ele>18.399999999999999</ele>
        <time>2017-06-19T08:16:30Z</time>
      </trkpt>
      <trkpt lat="60.052412990480661" lon="6.020531030371785">
        <ele>17.920000000000002</ele>
        <time>2017-06-19T08:16:31Z</time>
      </trkpt>
      <trkpt lat="60.053243972361088" lon="6.020274963229895">
        <ele>9.75</ele>
        <time>2017-06-19T08:16:42Z</time>
      </trkpt>
      <trkpt lat="60.053669018670917" lon="6.020262977108359">
        <ele>7.83</ele>
        <time>2017-06-19T08:16:52Z</time>
      </trkpt>
      <trkpt lat="60.053666001185775" lon="6.020264988765121">
        <ele>8.310000000000001</ele>
        <time>2017-06-19T08:18:21Z</time>
      </trkpt>
      <trkpt lat="60.053663989529014" lon="6.020261971279979">
        <ele>8.310000000000001</ele>
        <time>2017-06-19T08:20:39Z</time>
      </trkpt>
      <trkpt lat="60.053662983700633" lon="6.020262977108359">
        <ele>8.310000000000001</ele>
        <time>2017-06-19T08:22:22Z</time>
      </trkpt>
      <trkpt lat="60.053669018670917" lon="6.020270017907023">
        <ele>8.310000000000001</ele>
        <time>2017-06-19T08:24:09Z</time>
      </trkpt>
      <trkpt lat="60.053836992010474" lon="6.020297007635236">
        <ele>7.83</ele>
        <time>2017-06-19T08:24:12Z</time>
      </trkpt>
      <trkpt lat="60.053920978680253" lon="6.020265994593501">
        <ele>7.83</ele>
        <time>2017-06-19T08:24:13Z</time>
      </trkpt>
      <trkpt lat="60.05399901419878" lon="6.020218972116709">
        <ele>7.35</ele>
        <time>2017-06-19T08:24:14Z</time>
      </trkpt>
      <trkpt lat="60.054231025278568" lon="6.020078994333744">
        <ele>6.87</ele>
        <time>2017-06-19T08:24:18Z</time>
      </trkpt>
      <trkpt lat="60.054280981421471" lon="6.020072037354112">
        <ele>6.87</ele>
        <time>2017-06-19T08:24:19Z</time>
      </trkpt>
      <trkpt lat="60.054375026375055" lon="6.020082011818886">
        <ele>5.91</ele>
        <time>2017-06-19T08:24:21Z</time>
      </trkpt>
      <trkpt lat="60.054393969476223" lon="6.020087040960789">
        <ele>5.42</ele>
        <time>2017-06-19T08:24:22Z</time>
      </trkpt>
      <trkpt lat="60.054452978074551" lon="6.020172033458948">
        <ele>-11.4</ele>
        <time>2017-06-19T08:24:25Z</time>
      </trkpt>
      <trkpt lat="60.054587004706264" lon="6.020472021773458">
        <ele>-17.170000000000002</ele>
        <time>2017-06-19T08:24:28Z</time>
      </trkpt>
      <trkpt lat="60.054994029924273" lon="6.020552990958095">
        <ele>-29.66</ele>
        <time>2017-06-19T08:24:37Z</time>
      </trkpt>
      <trkpt lat="60.055077010765672" lon="6.020346963778138">
        <ele>-21.010000000000002</ele>
        <time>2017-06-19T08:24:48Z</time>
      </trkpt>
      <trkpt lat="60.055053038522601" lon="6.020417958498001">
        <ele>-23.41</ele>
        <time>2017-06-19T08:25:09Z</time>
      </trkpt>
      <trkpt lat="60.055058989673853" lon="6.020409995689988">
        <ele>-23.41</ele>
        <time>2017-06-19T08:25:58Z</time>
      </trkpt>
      <trkpt lat="60.055056978017092" lon="6.020433967933059">
        <ele>-23.899999999999999</ele>
        <time>2017-06-19T08:26:35Z</time>
      </trkpt>
      <trkpt lat="60.055063012987375" lon="6.020319974049926">
        <ele>-22.93</ele>
        <time>2017-06-19T08:28:05Z</time>
      </trkpt>
      <trkpt lat="60.055074999108911" lon="6.020296001806855">
        <ele>-21.010000000000002</ele>
        <time>2017-06-19T08:30:00Z</time>
      </trkpt>
      <trkpt lat="60.055080028250813" lon="6.020277980715036">
        <ele>-21.010000000000002</ele>
        <time>2017-06-19T08:31:55Z</time>
      </trkpt>
      <trkpt lat="60.055254036560655" lon="6.020173039287329">
        <ele>-19.09</ele>
        <time>2017-06-19T08:33:09Z</time>
      </trkpt>
      <trkpt lat="60.055398037657142" lon="6.019961982965469">
        <ele>-13.32</ele>
        <time>2017-06-19T08:33:36Z</time>
      </trkpt>
      <trkpt lat="60.055854013189673" lon="6.019812030717731">
        <ele>-8.029999999999999</ele>
        <time>2017-06-19T08:33:58Z</time>
      </trkpt>
      <trkpt lat="60.056462958455086" lon="6.019285982474685">
        <ele>-4.19</ele>
        <time>2017-06-19T08:34:17Z</time>
      </trkpt>
      <trkpt lat="60.056823967024684" lon="6.018288033083081">
        <ele>2.06</ele>
        <time>2017-06-19T08:34:34Z</time>
      </trkpt>
      <trkpt lat="60.057038962841034" lon="6.016692034900188">
        <ele>3.98</ele>
        <time>2017-06-19T08:34:55Z</time>
      </trkpt>
      <trkpt lat="60.05730701610446" lon="6.013364000245929">
        <ele>11.19</ele>
        <time>2017-06-19T08:35:30Z</time>
      </trkpt>
      <trkpt lat="60.058067003265023" lon="6.008185995742679">
        <ele>15.039999999999999</ele>
        <time>2017-06-19T08:36:18Z</time>
      </trkpt>
      <trkpt lat="60.058837970718741" lon="6.002027979120612">
        <ele>15.52</ele>
        <time>2017-06-19T08:37:15Z</time>
      </trkpt>
      <trkpt lat="60.059911021962762" lon="5.993164032697678">
        <ele>20.809999999999999</ele>
        <time>2017-06-19T08:38:35Z</time>
      </trkpt>
      <trkpt lat="60.062707979232073" lon="5.920396037399769">
        <ele>40.990000000000002</ele>
        <time>2017-06-19T08:51:10Z</time>
      </trkpt>
      <trkpt lat="60.062516033649445" lon="5.920524029061198">
        <ele>40.990000000000002</ele>
        <time>2017-06-19T08:51:28Z</time>
      </trkpt>
      <trkpt lat="60.062114037573338" lon="5.920411963015795">
        <ele>26.57</ele>
        <time>2017-06-19T08:51:57Z</time>
      </trkpt>
      <trkpt lat="60.06201496347785" lon="5.920365024358034">
        <ele>22.73</ele>
        <time>2017-06-19T08:52:20Z</time>
      </trkpt>
      <trkpt lat="60.061940029263496" lon="5.920361001044512">
        <ele>21.77</ele>
        <time>2017-06-19T08:52:36Z</time>
      </trkpt>
      <trkpt lat="60.061907004565001" lon="5.920365024358034">
        <ele>17.440000000000001</ele>
        <time>2017-06-19T08:52:54Z</time>
      </trkpt>
      <trkpt lat="60.061927037313581" lon="5.920383967459202">
        <ele>18.399999999999999</ele>
        <time>2017-06-19T08:53:18Z</time>
      </trkpt>
      <trkpt lat="60.061897030100226" lon="5.920283971354365">
        <ele>19.359999999999999</ele>
        <time>2017-06-19T08:53:45Z</time>
      </trkpt>
      <trkpt lat="60.061788987368345" lon="5.920266034081578">
        <ele>19.84</ele>
        <time>2017-06-19T08:54:00Z</time>
      </trkpt>
      <trkpt lat="60.061444994062185" lon="5.920138964429498">
        <ele>23.690000000000001</ele>
        <time>2017-06-19T08:54:07Z</time>
      </trkpt>
      <trkpt lat="60.061379028484225" lon="5.920086996629834">
        <ele>23.690000000000001</ele>
        <time>2017-06-19T08:54:08Z</time>
      </trkpt>
      <trkpt lat="60.060555003583431" lon="5.919149983674288">
        <ele>24.170000000000002</ele>
        <time>2017-06-19T08:54:19Z</time>
      </trkpt>
      <trkpt lat="60.05962603725493" lon="5.918268039822578">
        <ele>24.649999999999999</ele>
        <time>2017-06-19T08:54:29Z</time>
      </trkpt>
      <trkpt lat="60.059549007564783" lon="5.918138036504388">
        <ele>24.649999999999999</ele>
        <time>2017-06-19T08:54:30Z</time>
      </trkpt>
      <trkpt lat="60.059482958167791" lon="5.917988000437617">
        <ele>24.649999999999999</ele>
        <time>2017-06-19T08:54:31Z</time>
      </trkpt>
      <trkpt lat="60.059427972882986" lon="5.917808040976524">
        <ele>25.129999999999999</ele>
        <time>2017-06-19T08:54:32Z</time>
      </trkpt>
      <trkpt lat="60.05939100869" lon="5.917610982432962">
        <ele>25.129999999999999</ele>
        <time>2017-06-19T08:54:33Z</time>
      </trkpt>
      <trkpt lat="60.059376005083323" lon="5.917400009930134">
        <ele>25.129999999999999</ele>
        <time>2017-06-19T08:54:34Z</time>
      </trkpt>
      <trkpt lat="60.059376005083323" lon="5.917180990800262">
        <ele>25.129999999999999</ele>
        <time>2017-06-19T08:54:35Z</time>
      </trkpt>
      <trkpt lat="60.059396037831903" lon="5.916961971670389">
        <ele>25.609999999999999</ele>
        <time>2017-06-19T08:54:36Z</time>
      </trkpt>
      <trkpt lat="60.059429984539747" lon="5.916745970025659">
        <ele>26.09</ele>
        <time>2017-06-19T08:54:37Z</time>
      </trkpt>
      <trkpt lat="60.059476001188159" lon="5.916534997522831">
        <ele>26.09</ele>
        <time>2017-06-19T08:54:38Z</time>
      </trkpt>
      <trkpt lat="60.059538027271628" lon="5.9163380227983">
        <ele>26.57</ele>
        <time>2017-06-19T08:54:39Z</time>
      </trkpt>
      <trkpt lat="60.059610027819872" lon="5.916157979518175">
        <ele>27.530000000000001</ele>
        <time>2017-06-19T08:54:40Z</time>
      </trkpt>
      <trkpt lat="60.059689991176128" lon="5.915989000350237">
        <ele>28.02</ele>
        <time>2017-06-19T08:54:41Z</time>
      </trkpt>
      <trkpt lat="60.059774983674288" lon="5.915837036445737">
        <ele>28.5</ele>
        <time>2017-06-19T08:54:42Z</time>
      </trkpt>
      <trkpt lat="60.060234982520342" lon="5.914994990453124">
        <ele>31.859999999999999</ele>
        <time>2017-06-19T08:54:49Z</time>
      </trkpt>
      <trkpt lat="60.06063899025321" lon="5.914240032434464">
        <ele>35.710000000000001</ele>
        <time>2017-06-19T08:54:57Z</time>
      </trkpt>
      <trkpt lat="60.061523029580712" lon="5.912577984854579">
        <ele>40.030000000000001</ele>
        <time>2017-06-19T08:55:09Z</time>
      </trkpt>
      <trkpt lat="60.062543023377657" lon="5.911604007706046">
        <ele>37.630000000000003</ele>
        <time>2017-06-19T08:55:17Z</time>
      </trkpt>
      <trkpt lat="60.063840039074421" lon="5.911470986902714">
        <ele>37.630000000000003</ele>
        <time>2017-06-19T08:55:26Z</time>
      </trkpt>
      <trkpt lat="60.064894985407591" lon="5.911883041262627">
        <ele>38.109999999999999</ele>
        <time>2017-06-19T08:55:34Z</time>
      </trkpt>
      <trkpt lat="60.066340025514364" lon="5.913062961772084">
        <ele>40.030000000000001</ele>
        <time>2017-06-19T08:55:45Z</time>
      </trkpt>
      <trkpt lat="60.066489977762103" lon="5.913093974813819">
        <ele>39.549999999999997</ele>
        <time>2017-06-19T08:55:46Z</time>
      </trkpt>
      <trkpt lat="60.066646970808506" lon="5.913108978420496">
        <ele>39.549999999999997</ele>
        <time>2017-06-19T08:55:47Z</time>
      </trkpt>
      <trkpt lat="60.06680496968329" lon="5.913097998127341">
        <ele>38.590000000000003</ele>
        <time>2017-06-19T08:55:48Z</time>
      </trkpt>
      <trkpt lat="60.066958023235202" lon="5.913056004792452">
        <ele>37.630000000000003</ele>
        <time>2017-06-19T08:55:49Z</time>
      </trkpt>
      <trkpt lat="60.067110992968082" lon="5.912990039214492">
        <ele>36.670000000000002</ele>
        <time>2017-06-19T08:55:50Z</time>
      </trkpt>
      <trkpt lat="60.067262034863234" lon="5.912890965119004">
        <ele>35.710000000000001</ele>
        <time>2017-06-19T08:55:51Z</time>
      </trkpt>
      <trkpt lat="60.06740503013134" lon="5.912764985114336">
        <ele>35.229999999999997</ele>
        <time>2017-06-19T08:55:52Z</time>
      </trkpt>
      <trkpt lat="60.067540984600782" lon="5.912611009553075">
        <ele>33.299999999999997</ele>
        <time>2017-06-19T08:55:53Z</time>
      </trkpt>
      <trkpt lat="60.068980995565653" lon="5.910727009177208">
        <ele>23.210000000000001</ele>
        <time>2017-06-19T08:56:03Z</time>
      </trkpt>
      <trkpt lat="60.070473980158567" lon="5.909762000665069">
        <ele>22.25</ele>
        <time>2017-06-19T08:56:12Z</time>
      </trkpt>
      <trkpt lat="60.071796979755163" lon="5.909989988431335">
        <ele>28.02</ele>
        <time>2017-06-19T08:56:19Z</time>
      </trkpt>
      <trkpt lat="60.071965036913753" lon="5.910115968436003">
        <ele>28.02</ele>
        <time>2017-06-19T08:56:20Z</time>
      </trkpt>
      <trkpt lat="60.072118006646633" lon="5.910317972302437">
        <ele>28.98</ele>
        <time>2017-06-19T08:56:21Z</time>
      </trkpt>
      <trkpt lat="60.072761988267303" lon="5.911158006638289">
        <ele>30.899999999999999</ele>
        <time>2017-06-19T08:56:25Z</time>
      </trkpt>
      <trkpt lat="60.072909006848931" lon="5.911394963040948">
        <ele>30.420000000000002</ele>
        <time>2017-06-19T08:56:26Z</time>
      </trkpt>
      <trkpt lat="60.074832988902926" lon="5.91371800750494">
        <ele>31.379999999999999</ele>
        <time>2017-06-19T08:56:38Z</time>
      </trkpt>
      <trkpt lat="60.076030008494854" lon="5.914395013824105">
        <ele>26.09</ele>
        <time>2017-06-19T08:56:45Z</time>
      </trkpt>
      <trkpt lat="60.076702991500497" lon="5.914698019623756">
        <ele>22.25</ele>
        <time>2017-06-19T08:56:49Z</time>
      </trkpt>
      <trkpt lat="60.077818036079407" lon="5.915750032290816">
        <ele>20.809999999999999</ele>
        <time>2017-06-19T08:56:56Z</time>
      </trkpt>
      <trkpt lat="60.077962037175894" lon="5.915979025885463">
        <ele>21.289999999999999</ele>
        <time>2017-06-19T08:56:57Z</time>
      </trkpt>
      <trkpt lat="60.07810402661562" lon="5.916226962581277">
        <ele>22.25</ele>
        <time>2017-06-19T08:56:58Z</time>
      </trkpt>
      <trkpt lat="60.079644033685327" lon="5.919108996167779">
        <ele>26.57</ele>
        <time>2017-06-19T08:57:09Z</time>
      </trkpt>
      <trkpt lat="60.080843986943364" lon="5.920301992446184">
        <ele>27.050000000000001</ele>
        <time>2017-06-19T08:57:16Z</time>
      </trkpt>
      <trkpt lat="60.082236975431442" lon="5.921146972104907">
        <ele>28.98</ele>
        <time>2017-06-19T08:57:24Z</time>
      </trkpt>
      <trkpt lat="60.083235008642077" lon="5.920984027907252">
        <ele>31.859999999999999</ele>
        <time>2017-06-19T08:57:30Z</time>
      </trkpt>
      <trkpt lat="60.083380015566945" lon="5.9208710398525">
        <ele>32.340000000000003</ele>
        <time>2017-06-19T08:57:31Z</time>
      </trkpt>
      <trkpt lat="60.083524016663432" lon="5.920715974643827">
        <ele>33.299999999999997</ele>
        <time>2017-06-19T08:57:32Z</time>
      </trkpt>
      <trkpt lat="60.083653014153242" lon="5.920538026839495">
        <ele>33.780000000000001</ele>
        <time>2017-06-19T08:57:33Z</time>
      </trkpt>
      <trkpt lat="60.08377899415791" lon="5.920343985781074">
        <ele>33.780000000000001</ele>
        <time>2017-06-19T08:57:34Z</time>
      </trkpt>
      <trkpt lat="60.083901034668088" lon="5.920118009671569">
        <ele>34.740000000000002</ele>
        <time>2017-06-19T08:57:35Z</time>
      </trkpt>
      <trkpt lat="60.084016034379601" lon="5.919869989156723">
        <ele>34.740000000000002</ele>
        <time>2017-06-19T08:57:36Z</time>
      </trkpt>
      <trkpt lat="60.084129022434354" lon="5.919631021097302">
        <ele>35.229999999999997</ele>
        <time>2017-06-19T08:57:37Z</time>
      </trkpt>
      <trkpt lat="60.085875978693366" lon="5.915678031742573">
        <ele>42.920000000000002</ele>
        <time>2017-06-19T08:57:52Z</time>
      </trkpt>
      <trkpt lat="60.086991023272276" lon="5.91337401419878">
        <ele>38.109999999999999</ele>
        <time>2017-06-19T08:58:01Z</time>
      </trkpt>
      <trkpt lat="60.087141981348395" lon="5.913208974525333">
        <ele>37.149999999999999</ele>
        <time>2017-06-19T08:58:02Z</time>
      </trkpt>
      <trkpt lat="60.087300986051559" lon="5.913067990913987">
        <ele>36.189999999999998</ele>
        <time>2017-06-19T08:58:03Z</time>
      </trkpt>
      <trkpt lat="60.087472982704639" lon="5.912969000637531">
        <ele>35.710000000000001</ele>
        <time>2017-06-19T08:58:04Z</time>
      </trkpt>
      <trkpt lat="60.087642967700958" lon="5.912913009524345">
        <ele>34.740000000000002</ele>
        <time>2017-06-19T08:58:05Z</time>
      </trkpt>
      <trkpt lat="60.087815970182419" lon="5.912894988432527">
        <ele>33.299999999999997</ele>
        <time>2017-06-19T08:58:06Z</time>
      </trkpt>
      <trkpt lat="60.087991990149021" lon="5.912912003695965">
        <ele>31.859999999999999</ele>
        <time>2017-06-19T08:58:07Z</time>
      </trkpt>
      <trkpt lat="60.088173039257526" lon="5.912964977324009">
        <ele>31.379999999999999</ele>
        <time>2017-06-19T08:58:08Z</time>
      </trkpt>
      <trkpt lat="60.088357022032142" lon="5.913053993135691">
        <ele>30.899999999999999</ele>
        <time>2017-06-19T08:58:09Z</time>
      </trkpt>
      <trkpt lat="60.088536981493235" lon="5.913176033645868">
        <ele>29.940000000000001</ele>
        <time>2017-06-19T08:58:10Z</time>
      </trkpt>
      <trkpt lat="60.088714007288218" lon="5.913329003378749">
        <ele>29.940000000000001</ele>
        <time>2017-06-19T08:58:11Z</time>
      </trkpt>
      <trkpt lat="60.090350992977619" lon="5.914476988837123">
        <ele>33.299999999999997</ele>
        <time>2017-06-19T08:58:20Z</time>
      </trkpt>
      <trkpt lat="60.092465998604894" lon="5.914814025163651">
        <ele>34.740000000000002</ele>
        <time>2017-06-19T08:58:31Z</time>
      </trkpt>
      <trkpt lat="60.094890967011452" lon="5.915989000350237">
        <ele>36.189999999999998</ele>
        <time>2017-06-19T08:58:44Z</time>
      </trkpt>
      <trkpt lat="60.09712097235024" lon="5.916716968640685">
        <ele>30.899999999999999</ele>
        <time>2017-06-19T08:58:55Z</time>
      </trkpt>
      <trkpt lat="60.099635040387511" lon="5.916847977787256">
        <ele>28.02</ele>
        <time>2017-06-19T08:59:07Z</time>
      </trkpt>
      <trkpt lat="60.101558016613126" lon="5.916357971727848">
        <ele>31.859999999999999</ele>
        <time>2017-06-19T08:59:17Z</time>
      </trkpt>
      <trkpt lat="60.102503998205066" lon="5.915775010362268">
        <ele>32.82</ele>
        <time>2017-06-19T08:59:24Z</time>
      </trkpt>
      <trkpt lat="60.102567030116916" lon="5.915669985115528">
        <ele>32.82</ele>
        <time>2017-06-19T08:59:25Z</time>
      </trkpt>
      <trkpt lat="60.102610029280186" lon="5.915597984567285">
        <ele>32.82</ele>
        <time>2017-06-19T08:59:26Z</time>
      </trkpt>
      <trkpt lat="60.102635007351637" lon="5.915464041754603">
        <ele>33.299999999999997</ele>
        <time>2017-06-19T08:59:27Z</time>
      </trkpt>
      <trkpt lat="60.102652022615075" lon="5.915321968495846">
        <ele>33.299999999999997</ele>
        <time>2017-06-19T08:59:28Z</time>
      </trkpt>
      <trkpt lat="60.102666020393372" lon="5.915257008746266">
        <ele>33.780000000000001</ele>
        <time>2017-06-19T08:59:29Z</time>
      </trkpt>
      <trkpt lat="60.10275000706315" lon="5.915280980989337">
        <ele>34.740000000000002</ele>
        <time>2017-06-19T08:59:38Z</time>
      </trkpt>
      <trkpt lat="60.10281496681273" lon="5.915326997637749">
        <ele>35.710000000000001</ele>
        <time>2017-06-19T08:59:48Z</time>
      </trkpt>
      <trkpt lat="60.102923009544611" lon="5.915340995416045">
        <ele>36.670000000000002</ele>
        <time>2017-06-19T08:59:52Z</time>
      </trkpt>
      <trkpt lat="60.102970032021403" lon="5.915552973747253">
        <ele>40.990000000000002</ele>
        <time>2017-06-19T09:00:14Z</time>
      </trkpt>
      <trkpt lat="60.1029840297997" lon="5.915533024817705">
        <ele>41.950000000000003</ele>
        <time>2017-06-19T09:01:07Z</time>
      </trkpt>
      <trkpt lat="60.103002972900867" lon="5.915493965148926">
        <ele>41.950000000000003</ele>
        <time>2017-06-19T09:01:50Z</time>
      </trkpt>
      <trkpt lat="60.103000961244106" lon="5.915495976805687">
        <ele>41.950000000000003</ele>
        <time>2017-06-19T09:01:52Z</time>
      </trkpt>
      <trkpt lat="60.103063993155956" lon="5.915494970977306">
        <ele>40.030000000000001</ele>
        <time>2017-06-19T09:01:55Z</time>
      </trkpt>
      <trkpt lat="60.103531032800674" lon="5.915446020662785">
        <ele>43.880000000000003</ele>
        <time>2017-06-19T09:02:01Z</time>
      </trkpt>
      <trkpt lat="60.104821007698774" lon="5.914999013766646">
        <ele>39.549999999999997</ele>
        <time>2017-06-19T09:02:10Z</time>
      </trkpt>
      <trkpt lat="60.107070961967111" lon="5.914257969707251">
        <ele>35.710000000000001</ele>
        <time>2017-06-19T09:02:23Z</time>
      </trkpt>
      <trkpt lat="60.107246981933713" lon="5.914239026606083">
        <ele>35.710000000000001</ele>
        <time>2017-06-19T09:02:24Z</time>
      </trkpt>
      <trkpt lat="60.107418978586793" lon="5.914257969707251">
        <ele>35.229999999999997</ele>
        <time>2017-06-19T09:02:25Z</time>
      </trkpt>
      <trkpt lat="60.108992010354996" lon="5.914136013016105">
        <ele>37.149999999999999</ele>
        <time>2017-06-19T09:02:34Z</time>
      </trkpt>
      <trkpt lat="60.112865036353469" lon="5.90929102152586">
        <ele>41.469999999999999</ele>
        <time>2017-06-19T09:02:56Z</time>
      </trkpt>
      <trkpt lat="60.11304097250104" lon="5.909125981852412">
        <ele>41.469999999999999</ele>
        <time>2017-06-19T09:02:57Z</time>
      </trkpt>
      <trkpt lat="60.113207018002868" lon="5.908980974927545">
        <ele>42.439999999999998</ele>
        <time>2017-06-19T09:02:58Z</time>
      </trkpt>
      <trkpt lat="60.113388989120722" lon="5.908863041549921">
        <ele>42.920000000000002</ele>
        <time>2017-06-19T09:02:59Z</time>
      </trkpt>
      <trkpt lat="60.113570038229227" lon="5.908772014081478">
        <ele>42.920000000000002</ele>
        <time>2017-06-19T09:03:00Z</time>
      </trkpt>
      <trkpt lat="60.115138040855527" lon="5.908264992758632">
        <ele>41.469999999999999</ele>
        <time>2017-06-19T09:03:08Z</time>
      </trkpt>
      <trkpt lat="60.117153972387314" lon="5.907252039760351">
        <ele>45.799999999999997</ele>
        <time>2017-06-19T09:03:18Z</time>
      </trkpt>
      <trkpt lat="60.1193340215832" lon="5.906831016764045">
        <ele>53.969999999999999</ele>
        <time>2017-06-19T09:03:29Z</time>
      </trkpt>
      <trkpt lat="60.119483973830938" lon="5.906668994575739">
        <ele>54.450000000000003</ele>
        <time>2017-06-19T09:03:30Z</time>
      </trkpt>
      <trkpt lat="60.12008897960186" lon="5.905947983264923">
        <ele>54.93</ele>
        <time>2017-06-19T09:03:34Z</time>
      </trkpt>
      <trkpt lat="60.12255996465683" lon="5.9037059918046">
        <ele>57.340000000000003</ele>
        <time>2017-06-19T09:03:48Z</time>
      </trkpt>
      <trkpt lat="60.125881964340806" lon="5.903381025418639">
        <ele>61.18</ele>
        <time>2017-06-19T09:04:04Z</time>
      </trkpt>
      <trkpt lat="60.127143021672964" lon="5.90346802957356">
        <ele>57.82</ele>
        <time>2017-06-19T09:04:10Z</time>
      </trkpt>
      <trkpt lat="60.127741992473602" lon="5.903545981273055">
        <ele>55.409999999999997</ele>
        <time>2017-06-19T09:04:13Z</time>
      </trkpt>
      <trkpt lat="60.127928992733359" lon="5.903494013473392">
        <ele>54.450000000000003</ele>
        <time>2017-06-19T09:04:14Z</time>
      </trkpt>
      <trkpt lat="60.128119010478258" lon="5.903409020975232">
        <ele>53.009999999999998</ele>
        <time>2017-06-19T09:04:15Z</time>
      </trkpt>
      <trkpt lat="60.128310034051538" lon="5.903267031535506">
        <ele>51.57</ele>
        <time>2017-06-19T09:04:16Z</time>
      </trkpt>
      <trkpt lat="60.128502985462546" lon="5.903063016012311">
        <ele>49.649999999999999</ele>
        <time>2017-06-19T09:04:17Z</time>
      </trkpt>
      <trkpt lat="60.129595985636115" lon="5.902399001643062">
        <ele>38.590000000000003</ele>
        <time>2017-06-19T09:04:23Z</time>
      </trkpt>
      <trkpt lat="60.129782985895872" lon="5.902403024956584">
        <ele>37.149999999999999</ele>
        <time>2017-06-19T09:04:24Z</time>
      </trkpt>
      <trkpt lat="60.129975015297532" lon="5.902466978877783">
        <ele>35.710000000000001</ele>
        <time>2017-06-19T09:04:25Z</time>
      </trkpt>
      <trkpt lat="60.130178024992347" lon="5.902626989409328">
        <ele>35.229999999999997</ele>
        <time>2017-06-19T09:04:26Z</time>
      </trkpt>
      <trkpt lat="60.130363013595343" lon="5.90273997746408">
        <ele>33.299999999999997</ele>
        <time>2017-06-19T09:04:27Z</time>
      </trkpt>
      <trkpt lat="60.131192989647388" lon="5.903324028477073">
        <ele>31.379999999999999</ele>
        <time>2017-06-19T09:04:32Z</time>
      </trkpt>
      <trkpt lat="60.131361968815327" lon="5.903369961306453">
        <ele>30.899999999999999</ele>
        <time>2017-06-19T09:04:33Z</time>
      </trkpt>
      <trkpt lat="60.13153899461031" lon="5.90338496491313">
        <ele>30.420000000000002</ele>
        <time>2017-06-19T09:04:34Z</time>
      </trkpt>
      <trkpt lat="60.132783036679029" lon="5.903184972703457">
        <ele>19.359999999999999</ele>
        <time>2017-06-19T09:04:41Z</time>
      </trkpt>
      <trkpt lat="60.132928965613246" lon="5.90306100435555">
        <ele>18.399999999999999</ele>
        <time>2017-06-19T09:04:42Z</time>
      </trkpt>
      <trkpt lat="60.133057963103056" lon="5.902910968288779">
        <ele>17.920000000000002</ele>
        <time>2017-06-19T09:04:43Z</time>
      </trkpt>
      <trkpt lat="60.13317103497684" lon="5.902725979685783">
        <ele>16.960000000000001</ele>
        <time>2017-06-19T09:04:44Z</time>
      </trkpt>
      <trkpt lat="60.133272958919406" lon="5.902505032718182">
        <ele>16.48</ele>
        <time>2017-06-19T09:04:45Z</time>
      </trkpt>
      <trkpt lat="60.133357029408216" lon="5.902241002768278">
        <ele>16</ele>
        <time>2017-06-19T09:04:46Z</time>
      </trkpt>
      <trkpt lat="60.13343196362257" lon="5.901953000575304">
        <ele>15.52</ele>
        <time>2017-06-19T09:04:47Z</time>
      </trkpt>
      <trkpt lat="60.133501030504704" lon="5.901651000604034">
        <ele>15.52</ele>
        <time>2017-06-19T09:04:48Z</time>
      </trkpt>
      <trkpt lat="60.133552998304367" lon="5.901328967884183">
        <ele>14.56</ele>
        <time>2017-06-19T09:04:49Z</time>
      </trkpt>
      <trkpt lat="60.133592979982495" lon="5.900996038690209">
        <ele>14.08</ele>
        <time>2017-06-19T09:04:50Z</time>
      </trkpt>
      <trkpt lat="60.133629022166133" lon="5.900647016242147">
        <ele>13.6</ele>
        <time>2017-06-19T09:04:51Z</time>
      </trkpt>
      <trkpt lat="60.133750978857279" lon="5.898002022877336">
        <ele>9.27</ele>
        <time>2017-06-19T09:04:58Z</time>
      </trkpt>
      <trkpt lat="60.133825996890664" lon="5.897425012663007">
        <ele>6.39</ele>
        <time>2017-06-19T09:05:00Z</time>
      </trkpt>
      <trkpt lat="60.133910989388824" lon="5.897170035168529">
        <ele>6.39</ele>
        <time>2017-06-19T09:05:01Z</time>
      </trkpt>
      <trkpt lat="60.134023977443576" lon="5.896945986896753">
        <ele>6.39</ele>
        <time>2017-06-19T09:05:02Z</time>
      </trkpt>
      <trkpt lat="60.134155992418528" lon="5.896780025213957">
        <ele>6.87</ele>
        <time>2017-06-19T09:05:03Z</time>
      </trkpt>
      <trkpt lat="60.134290019050241" lon="5.896632000803947">
        <ele>6.87</ele>
        <time>2017-06-19T09:05:04Z</time>
      </trkpt>
      <trkpt lat="60.134429996833205" lon="5.896538039669395">
        <ele>7.35</ele>
        <time>2017-06-19T09:05:05Z</time>
      </trkpt>
      <trkpt lat="60.134585984051228" lon="5.896499985828996">
        <ele>7.83</ele>
        <time>2017-06-19T09:05:06Z</time>
      </trkpt>
      <trkpt lat="60.134737025946379" lon="5.896514989435673">
        <ele>7.83</ele>
        <time>2017-06-19T09:05:07Z</time>
      </trkpt>
      <trkpt lat="60.134882032871246" lon="5.896579027175903">
        <ele>8.789999999999999</ele>
        <time>2017-06-19T09:05:08Z</time>
      </trkpt>
      <trkpt lat="60.135027961805463" lon="5.896674999967217">
        <ele>9.75</ele>
        <time>2017-06-19T09:05:09Z</time>
      </trkpt>
      <trkpt lat="60.135176992043853" lon="5.89678798802197">
        <ele>10.23</ele>
        <time>2017-06-19T09:05:10Z</time>
      </trkpt>
      <trkpt lat="60.137078007683158" lon="5.898214001208544">
        <ele>16.48</ele>
        <time>2017-06-19T09:05:22Z</time>
      </trkpt>
      <trkpt lat="60.13809003867209" lon="5.899548986926675">
        <ele>18.399999999999999</ele>
        <time>2017-06-19T09:05:29Z</time>
      </trkpt>
      <trkpt lat="60.138452975079417" lon="5.900221969932318">
        <ele>22.25</ele>
        <time>2017-06-19T09:05:32Z</time>
      </trkpt>
      <trkpt lat="60.138584990054369" lon="5.900392038747668">
        <ele>23.210000000000001</ele>
        <time>2017-06-19T09:05:33Z</time>
      </trkpt>
      <trkpt lat="60.138723039999604" lon="5.900528999045491">
        <ele>24.170000000000002</ele>
        <time>2017-06-19T09:05:34Z</time>
      </trkpt>
      <trkpt lat="60.138868968933821" lon="5.90063301846385">
        <ele>25.129999999999999</ele>
        <time>2017-06-19T09:05:35Z</time>
      </trkpt>
      <trkpt lat="60.139017999172211" lon="5.900722034275532">
        <ele>25.609999999999999</ele>
        <time>2017-06-19T09:05:36Z</time>
      </trkpt>
      <trkpt lat="60.140721034258604" lon="5.901240035891533">
        <ele>30.420000000000002</ele>
        <time>2017-06-19T09:05:47Z</time>
      </trkpt>
      <trkpt lat="60.140884984284639" lon="5.901203993707895">
        <ele>30.899999999999999</ele>
        <time>2017-06-19T09:05:48Z</time>
      </trkpt>
      <trkpt lat="60.141043988987803" lon="5.901127969846129">
        <ele>31.379999999999999</ele>
        <time>2017-06-19T09:05:49Z</time>
      </trkpt>
      <trkpt lat="60.141199976205826" lon="5.901017999276519">
        <ele>32.82</ele>
        <time>2017-06-19T09:05:50Z</time>
      </trkpt>
      <trkpt lat="60.141344983130693" lon="5.900880033150315">
        <ele>33.780000000000001</ele>
        <time>2017-06-19T09:05:51Z</time>
      </trkpt>
      <trkpt lat="60.141485966742039" lon="5.900728991255164">
        <ele>35.229999999999997</ele>
        <time>2017-06-19T09:05:52Z</time>
      </trkpt>
      <trkpt lat="60.14264602214098" lon="5.899492995813489">
        <ele>39.549999999999997</ele>
        <time>2017-06-19T09:06:00Z</time>
      </trkpt>
      <trkpt lat="60.142793962731957" lon="5.899444967508316">
        <ele>40.030000000000001</ele>
        <time>2017-06-19T09:06:01Z</time>
      </trkpt>
      <trkpt lat="60.142945004627109" lon="5.899442033842206">
        <ele>40.030000000000001</ele>
        <time>2017-06-19T09:06:02Z</time>
      </trkpt>
      <trkpt lat="60.143101997673512" lon="5.89947497472167">
        <ele>40.509999999999998</ele>
        <time>2017-06-19T09:06:03Z</time>
      </trkpt>
      <trkpt lat="60.143258990719914" lon="5.899525014683604">
        <ele>40.990000000000002</ele>
        <time>2017-06-19T09:06:04Z</time>
      </trkpt>
      <trkpt lat="60.14372100122273" lon="5.899628028273583">
        <ele>41.469999999999999</ele>
        <time>2017-06-19T09:06:07Z</time>
      </trkpt>
      <trkpt lat="60.143886040896177" lon="5.899577988311648">
        <ele>41.950000000000003</ele>
        <time>2017-06-19T09:06:08Z</time>
      </trkpt>
      <trkpt lat="60.14503201469779" lon="5.899071972817183">
        <ele>43.399999999999999</ele>
        <time>2017-06-19T09:06:14Z</time>
      </trkpt>
      <trkpt lat="60.146543020382524" lon="5.898844990879297">
        <ele>48.200000000000003</ele>
        <time>2017-06-19T09:06:22Z</time>
      </trkpt>
      <trkpt lat="60.148487035185099" lon="5.898983962833881">
        <ele>49.159999999999997</ele>
        <time>2017-06-19T09:06:32Z</time>
      </trkpt>
      <trkpt lat="60.151438973844051" lon="5.898753041401506">
        <ele>41.950000000000003</ele>
        <time>2017-06-19T09:06:47Z</time>
      </trkpt>
      <trkpt lat="60.153596978634596" lon="5.898049967363477">
        <ele>41.950000000000003</ele>
        <time>2017-06-19T09:06:58Z</time>
      </trkpt>
      <trkpt lat="60.154537009075284" lon="5.897640008479357">
        <ele>40.990000000000002</ele>
        <time>2017-06-19T09:07:03Z</time>
      </trkpt>
      <trkpt lat="60.154724009335041" lon="5.897671021521092">
        <ele>40.030000000000001</ele>
        <time>2017-06-19T09:07:04Z</time>
      </trkpt>
      <trkpt lat="60.15510999597609" lon="5.897744027897716">
        <ele>39.549999999999997</ele>
        <time>2017-06-19T09:07:06Z</time>
      </trkpt>
      <trkpt lat="60.156587976962328" lon="5.89826999232173">
        <ele>36.670000000000002</ele>
        <time>2017-06-19T09:07:14Z</time>
      </trkpt>
      <trkpt lat="60.156771959736943" lon="5.898350039497018">
        <ele>39.07</ele>
        <time>2017-06-19T09:07:15Z</time>
      </trkpt>
      <trkpt lat="60.156932976096869" lon="5.898494962602854">
        <ele>39.07</ele>
        <time>2017-06-19T09:07:16Z</time>
      </trkpt>
      <trkpt lat="60.157725987955928" lon="5.899293003603816">
        <ele>39.07</ele>
        <time>2017-06-19T09:07:21Z</time>
      </trkpt>
      <trkpt lat="60.158981010317802" lon="5.899969004094601">
        <ele>37.149999999999999</ele>
        <time>2017-06-19T09:07:28Z</time>
      </trkpt>
      <trkpt lat="60.160525040701032" lon="5.901498030871153">
        <ele>28.98</ele>
        <time>2017-06-19T09:07:37Z</time>
      </trkpt>
      <trkpt lat="60.161860026419163" lon="5.903489990159869">
        <ele>19.84</ele>
        <time>2017-06-19T09:07:46Z</time>
      </trkpt>
      <trkpt lat="60.162860993295908" lon="5.904674017801881">
        <ele>13.6</ele>
        <time>2017-06-19T09:07:53Z</time>
      </trkpt>
      <trkpt lat="60.163769004866481" lon="5.906717022880912">
        <ele>5.42</ele>
        <time>2017-06-19T09:08:02Z</time>
      </trkpt>
      <trkpt lat="60.164220035076141" lon="5.908761033788323">
        <ele>3.02</ele>
        <time>2017-06-19T09:08:10Z</time>
      </trkpt>
      <trkpt lat="60.164358001202345" lon="5.909374002367258">
        <ele>3.98</ele>
        <time>2017-06-19T09:08:14Z</time>
      </trkpt>
      <trkpt lat="60.164405023679137" lon="5.909422030672431">
        <ele>4.46</ele>
        <time>2017-06-19T09:08:15Z</time>
      </trkpt>
      <trkpt lat="60.164459003135562" lon="5.909437034279108">
        <ele>4.46</ele>
        <time>2017-06-19T09:08:16Z</time>
      </trkpt>
      <trkpt lat="60.164522035047412" lon="5.90940099209547">
        <ele>4.46</ele>
        <time>2017-06-19T09:08:17Z</time>
      </trkpt>
      <trkpt lat="60.16458397731185" lon="5.909317005425692">
        <ele>3.98</ele>
        <time>2017-06-19T09:08:18Z</time>
      </trkpt>
      <trkpt lat="60.164651032537222" lon="5.909210974350572">
        <ele>3.5</ele>
        <time>2017-06-19T09:08:19Z</time>
      </trkpt>
      <trkpt lat="60.164825040847063" lon="5.908971000462771">
        <ele>3.02</ele>
        <time>2017-06-19T09:08:21Z</time>
      </trkpt>
      <trkpt lat="60.165803963318467" lon="5.907497964799404">
        <ele>1.1</ele>
        <time>2017-06-19T09:08:30Z</time>
      </trkpt>
      <trkpt lat="60.167111037299037" lon="5.905115995556116">
        <ele>7.35</ele>
        <time>2017-06-19T09:08:42Z</time>
      </trkpt>
      <trkpt lat="60.168823963031173" lon="5.903097968548536">
        <ele>13.119999999999999</ele>
        <time>2017-06-19T09:08:54Z</time>
      </trkpt>
      <trkpt lat="60.170138999819756" lon="5.901801958680153">
        <ele>15.52</ele>
        <time>2017-06-19T09:09:02Z</time>
      </trkpt>
      <trkpt lat="60.173222031444311" lon="5.89973003603518">
        <ele>28.98</ele>
        <time>2017-06-19T09:09:18Z</time>
      </trkpt>
      <trkpt lat="60.175251960754395" lon="5.898851025849581">
        <ele>38.590000000000003</ele>
        <time>2017-06-19T09:09:28Z</time>
      </trkpt>
      <trkpt lat="60.177294965833426" lon="5.897643025964499">
        <ele>43.880000000000003</ele>
        <time>2017-06-19T09:09:38Z</time>
      </trkpt>
      <trkpt lat="60.180304991081357" lon="5.896038981154561">
        <ele>53.490000000000002</ele>
        <time>2017-06-19T09:09:53Z</time>
      </trkpt>
      <trkpt lat="60.182080026715994" lon="5.895718960091472">
        <ele>62.619999999999997</ele>
        <time>2017-06-19T09:10:02Z</time>
      </trkpt>
      <trkpt lat="60.184729965403676" lon="5.895015969872475">
        <ele>74.640000000000001</ele>
        <time>2017-06-19T09:10:16Z</time>
      </trkpt>
      <trkpt lat="60.187670001760125" lon="5.894165961071849">
        <ele>90.5</ele>
        <time>2017-06-19T09:10:31Z</time>
      </trkpt>
      <trkpt lat="60.189413018524647" lon="5.893498007208109">
        <ele>100.59999999999999</ele>
        <time>2017-06-19T09:10:40Z</time>
      </trkpt>
      <trkpt lat="60.190743980929255" lon="5.893796989694238">
        <ele>110.20999999999999</ele>
        <time>2017-06-19T09:10:47Z</time>
      </trkpt>
      <trkpt lat="60.191850978881121" lon="5.89354301802814">
        <ele>113.09</ele>
        <time>2017-06-19T09:10:53Z</time>
      </trkpt>
      <trkpt lat="60.195109024643898" lon="5.892064031213522">
        <ele>111.65000000000001</ele>
        <time>2017-06-19T09:11:09Z</time>
      </trkpt>
      <trkpt lat="60.198361035436392" lon="5.890704989433289">
        <ele>99.629999999999995</ele>
        <time>2017-06-19T09:11:25Z</time>
      </trkpt>
      <trkpt lat="60.200488027185202" lon="5.8898910228163">
        <ele>92.420000000000002</ele>
        <time>2017-06-19T09:11:36Z</time>
      </trkpt>
      <trkpt lat="60.202170023694634" lon="5.888493005186319">
        <ele>82.329999999999998</ele>
        <time>2017-06-19T09:11:45Z</time>
      </trkpt>
      <trkpt lat="60.203840034082532" lon="5.887519028037787">
        <ele>76.560000000000002</ele>
        <time>2017-06-19T09:11:54Z</time>
      </trkpt>
      <trkpt lat="60.203975988551974" lon="5.887366980314255">
        <ele>77.040000000000006</ele>
        <time>2017-06-19T09:11:55Z</time>
      </trkpt>
      <trkpt lat="60.204080007970333" lon="5.887202024459839">
        <ele>76.079999999999998</ele>
        <time>2017-06-19T09:11:56Z</time>
      </trkpt>
      <trkpt lat="60.204165000468493" lon="5.88701200671494">
        <ele>76.079999999999998</ele>
        <time>2017-06-19T09:11:57Z</time>
      </trkpt>
      <trkpt lat="60.204221997410059" lon="5.886781001463532">
        <ele>75.599999999999994</ele>
        <time>2017-06-19T09:11:58Z</time>
      </trkpt>
      <trkpt lat="60.2042440418154" lon="5.886532980948687">
        <ele>75.120000000000005</ele>
        <time>2017-06-19T09:11:59Z</time>
      </trkpt>
      <trkpt lat="60.204232977703214" lon="5.886268028989434">
        <ele>74.159999999999997</ele>
        <time>2017-06-19T09:12:00Z</time>
      </trkpt>
      <trkpt lat="60.20420397631824" lon="5.885986983776093">
        <ele>74.159999999999997</ele>
        <time>2017-06-19T09:12:01Z</time>
      </trkpt>
      <trkpt lat="60.204154020175338" lon="5.88570199906826">
        <ele>73.680000000000007</ele>
        <time>2017-06-19T09:12:02Z</time>
      </trkpt>
      <trkpt lat="60.203568963333964" lon="5.882055032998323">
        <ele>74.159999999999997</ele>
        <time>2017-06-19T09:12:13Z</time>
      </trkpt>
      <trkpt lat="60.203497968614101" lon="5.881737023591995">
        <ele>74.159999999999997</ele>
        <time>2017-06-19T09:12:14Z</time>
      </trkpt>
      <trkpt lat="60.203411970287561" lon="5.88142697699368">
        <ele>74.159999999999997</ele>
        <time>2017-06-19T09:12:15Z</time>
      </trkpt>
      <trkpt lat="60.203312980011106" lon="5.881136963143945">
        <ele>74.640000000000001</ele>
        <time>2017-06-19T09:12:16Z</time>
      </trkpt>
      <trkpt lat="60.203198986127973" lon="5.880873017013073">
        <ele>75.599999999999994</ele>
        <time>2017-06-19T09:12:17Z</time>
      </trkpt>
      <trkpt lat="60.203073006123304" lon="5.880642011761665">
        <ele>76.560000000000002</ele>
        <time>2017-06-19T09:12:18Z</time>
      </trkpt>
      <trkpt lat="60.20293403416872" lon="5.880448976531625">
        <ele>77.040000000000006</ele>
        <time>2017-06-19T09:12:19Z</time>
      </trkpt>
      <trkpt lat="60.202789027243853" lon="5.880284020677209">
        <ele>77.519999999999996</ele>
        <time>2017-06-19T09:12:20Z</time>
      </trkpt>
      <trkpt lat="60.20263304002583" lon="5.880144964903593">
        <ele>78</ele>
        <time>2017-06-19T09:12:21Z</time>
      </trkpt>
      <trkpt lat="60.202474035322666" lon="5.880017979070544">
        <ele>78.480000000000004</ele>
        <time>2017-06-19T09:12:22Z</time>
      </trkpt>
      <trkpt lat="60.202304972335696" lon="5.879916977137327">
        <ele>78.969999999999999</ele>
        <time>2017-06-19T09:12:23Z</time>
      </trkpt>
      <trkpt lat="60.200924975797534" lon="5.879090018570423">
        <ele>77.519999999999996</ele>
        <time>2017-06-19T09:12:31Z</time>
      </trkpt>
      <trkpt lat="60.200448967516422" lon="5.87871702387929">
        <ele>75.599999999999994</ele>
        <time>2017-06-19T09:12:34Z</time>
      </trkpt>
      <trkpt lat="60.200317036360502" lon="5.87854603305459">
        <ele>74.640000000000001</ele>
        <time>2017-06-19T09:12:35Z</time>
      </trkpt>
      <trkpt lat="60.200201030820608" lon="5.87835299782455">
        <ele>74.159999999999997</ele>
        <time>2017-06-19T09:12:36Z</time>
      </trkpt>
      <trkpt lat="60.200097011402249" lon="5.878128027543426">
        <ele>72.719999999999999</ele>
        <time>2017-06-19T09:12:37Z</time>
      </trkpt>
      <trkpt lat="60.200021993368864" lon="5.877868020907044">
        <ele>70.310000000000002</ele>
        <time>2017-06-19T09:12:38Z</time>
      </trkpt>
      <trkpt lat="60.199970025569201" lon="5.877590999007225">
        <ele>68.870000000000005</ele>
        <time>2017-06-19T09:12:39Z</time>
      </trkpt>
      <trkpt lat="60.199946975335479" lon="5.877295034006238">
        <ele>67.909999999999997</ele>
        <time>2017-06-19T09:12:40Z</time>
      </trkpt>
      <trkpt lat="60.19994898699224" lon="5.877008037641645">
        <ele>65.989999999999995</ele>
        <time>2017-06-19T09:12:41Z</time>
      </trkpt>
      <trkpt lat="60.199975976720452" lon="5.876724980771542">
        <ele>65.030000000000001</ele>
        <time>2017-06-19T09:12:42Z</time>
      </trkpt>
      <trkpt lat="60.200001038610935" lon="5.876437984406948">
        <ele>63.100000000000001</ele>
        <time>2017-06-19T09:12:43Z</time>
      </trkpt>
      <trkpt lat="60.200011013075709" lon="5.876149982213974">
        <ele>61.18</ele>
        <time>2017-06-19T09:12:44Z</time>
      </trkpt>
      <trkpt lat="60.199985029175878" lon="5.875858962535858">
        <ele>59.259999999999998</ele>
        <time>2017-06-19T09:12:45Z</time>
      </trkpt>
      <trkpt lat="60.199929038062692" lon="5.875567020848393">
        <ele>58.299999999999997</ele>
        <time>2017-06-19T09:12:46Z</time>
      </trkpt>
      <trkpt lat="60.199847985059023" lon="5.875288993120194">
        <ele>56.859999999999999</ele>
        <time>2017-06-19T09:12:47Z</time>
      </trkpt>
      <trkpt lat="60.199757041409612" lon="5.875029992312193">
        <ele>55.890000000000001</ele>
        <time>2017-06-19T09:12:48Z</time>
      </trkpt>
      <trkpt lat="60.19967095926404" lon="5.874755987897515">
        <ele>54.450000000000003</ele>
        <time>2017-06-19T09:12:49Z</time>
      </trkpt>
      <trkpt lat="60.199609016999602" lon="5.874477960169315">
        <ele>53.009999999999998</ele>
        <time>2017-06-19T09:12:50Z</time>
      </trkpt>
      <trkpt lat="60.199567023664713" lon="5.874198004603386">
        <ele>52.049999999999997</ele>
        <time>2017-06-19T09:12:51Z</time>
      </trkpt>
      <trkpt lat="60.199553025886416" lon="5.873914025723934">
        <ele>50.609999999999999</ele>
        <time>2017-06-19T09:12:52Z</time>
      </trkpt>
      <trkpt lat="60.199567023664713" lon="5.873635997995734">
        <ele>49.159999999999997</ele>
        <time>2017-06-19T09:12:53Z</time>
      </trkpt>
      <trkpt lat="60.199616979807615" lon="5.873362999409437">
        <ele>48.68</ele>
        <time>2017-06-19T09:12:54Z</time>
      </trkpt>
      <trkpt lat="60.199685040861368" lon="5.873099975287914">
        <ele>47.719999999999999</ele>
        <time>2017-06-19T09:12:55Z</time>
      </trkpt>
      <trkpt lat="60.199771039187908" lon="5.872862013056874">
        <ele>47.240000000000002</ele>
        <time>2017-06-19T09:12:56Z</time>
      </trkpt>
      <trkpt lat="60.199875980615616" lon="5.872640982270241">
        <ele>46.280000000000001</ele>
        <time>2017-06-19T09:12:57Z</time>
      </trkpt>
      <trkpt lat="60.199992991983891" lon="5.872435960918665">
        <ele>45.799999999999997</ele>
        <time>2017-06-19T09:12:58Z</time>
      </trkpt>
      <trkpt lat="60.2005519811064" lon="5.871403981000185">
        <ele>45.32</ele>
        <time>2017-06-19T09:13:03Z</time>
      </trkpt>
      <trkpt lat="60.200623981654644" lon="5.871153026819229">
        <ele>45.799999999999997</ele>
        <time>2017-06-19T09:13:04Z</time>
      </trkpt>
      <trkpt lat="60.200676033273339" lon="5.870879022404552">
        <ele>46.759999999999998</ele>
        <time>2017-06-19T09:13:05Z</time>
      </trkpt>
      <trkpt lat="60.200709979981184" lon="5.870588002726436">
        <ele>47.240000000000002</ele>
        <time>2017-06-19T09:13:06Z</time>
      </trkpt>
      <trkpt lat="60.200731018558145" lon="5.870307963341475">
        <ele>47.719999999999999</ele>
        <time>2017-06-19T09:13:07Z</time>
      </trkpt>
      <trkpt lat="60.200736969709396" lon="5.870035970583558">
        <ele>48.68</ele>
        <time>2017-06-19T09:13:08Z</time>
      </trkpt>
      <trkpt lat="60.200718026608229" lon="5.869774958118796">
        <ele>48.68</ele>
        <time>2017-06-19T09:13:09Z</time>
      </trkpt>
      <trkpt lat="60.200677961111069" lon="5.869534984230995">
        <ele>48.200000000000003</ele>
        <time>2017-06-19T09:13:10Z</time>
      </trkpt>
      <trkpt lat="60.200611995533109" lon="5.869331974536181">
        <ele>48.200000000000003</ele>
        <time>2017-06-19T09:13:11Z</time>
      </trkpt>
      <trkpt lat="60.200525997206569" lon="5.869170036166906">
        <ele>47.719999999999999</ele>
        <time>2017-06-19T09:13:12Z</time>
      </trkpt>
      <trkpt lat="60.200423989444971" lon="5.869037015363574">
        <ele>47.719999999999999</ele>
        <time>2017-06-19T09:13:13Z</time>
      </trkpt>
      <trkpt lat="60.200303960591555" lon="5.868901982903481">
        <ele>47.719999999999999</ele>
        <time>2017-06-19T09:13:14Z</time>
      </trkpt>
      <trkpt lat="60.200188038870692" lon="5.868753036484122">
        <ele>46.759999999999998</ele>
        <time>2017-06-19T09:13:15Z</time>
      </trkpt>
      <trkpt lat="60.200083013623953" lon="5.868569975718856">
        <ele>45.32</ele>
        <time>2017-06-19T09:13:16Z</time>
      </trkpt>
      <trkpt lat="60.199999026954174" lon="5.868359003216028">
        <ele>44.359999999999999</ele>
        <time>2017-06-19T09:13:17Z</time>
      </trkpt>
      <trkpt lat="60.199929038062692" lon="5.868133027106524">
        <ele>43.399999999999999</ele>
        <time>2017-06-19T09:13:18Z</time>
      </trkpt>
      <trkpt lat="60.199880003929138" lon="5.867903027683497">
        <ele>42.439999999999998</ele>
        <time>2017-06-19T09:13:19Z</time>
      </trkpt>
      <trkpt lat="60.199847985059023" lon="5.867673028260469">
        <ele>41.469999999999999</ele>
        <time>2017-06-19T09:13:20Z</time>
      </trkpt>
      <trkpt lat="60.199839016422629" lon="5.86743900552392">
        <ele>40.030000000000001</ele>
        <time>2017-06-19T09:13:21Z</time>
      </trkpt>
      <trkpt lat="60.199866006150842" lon="5.867196014150977">
        <ele>39.07</ele>
        <time>2017-06-19T09:13:22Z</time>
      </trkpt>
      <trkpt lat="60.199910011142492" lon="5.866942964494228">
        <ele>37.630000000000003</ele>
        <time>2017-06-19T09:13:23Z</time>
      </trkpt>
      <trkpt lat="60.199973965063691" lon="5.866691004484892">
        <ele>37.149999999999999</ele>
        <time>2017-06-19T09:13:24Z</time>
      </trkpt>
      <trkpt lat="60.200059963390231" lon="5.866438038647175">
        <ele>36.670000000000002</ele>
        <time>2017-06-19T09:13:25Z</time>
      </trkpt>
      <trkpt lat="60.200154008343816" lon="5.866199992597103">
        <ele>36.189999999999998</ele>
        <time>2017-06-19T09:13:26Z</time>
      </trkpt>
      <trkpt lat="60.200276970863342" lon="5.86597996763885">
        <ele>35.710000000000001</ele>
        <time>2017-06-19T09:13:27Z</time>
      </trkpt>
      <trkpt lat="60.200405968353152" lon="5.8657839987427">
        <ele>36.189999999999998</ele>
        <time>2017-06-19T09:13:28Z</time>
      </trkpt>
      <trkpt lat="60.20055097527802" lon="5.86558903567493">
        <ele>36.670000000000002</ele>
        <time>2017-06-19T09:13:29Z</time>
      </trkpt>
      <trkpt lat="60.201704995706677" lon="5.86367703974247">
        <ele>48.200000000000003</ele>
        <time>2017-06-19T09:13:38Z</time>
      </trkpt>
      <trkpt lat="60.202725995332003" lon="5.86086398921907">
        <ele>57.340000000000003</ele>
        <time>2017-06-19T09:13:49Z</time>
      </trkpt>
      <trkpt lat="60.202775029465556" lon="5.860574981197715">
        <ele>58.299999999999997</ele>
        <time>2017-06-19T09:13:50Z</time>
      </trkpt>
      <trkpt lat="60.20280696451664" lon="5.860272981226444">
        <ele>58.780000000000001</ele>
        <time>2017-06-19T09:13:51Z</time>
      </trkpt>
      <trkpt lat="60.202824985608459" lon="5.859966035932303">
        <ele>58.780000000000001</ele>
        <time>2017-06-19T09:13:52Z</time>
      </trkpt>
      <trkpt lat="60.202823979780078" lon="5.859650960192084">
        <ele>57.82</ele>
        <time>2017-06-19T09:13:53Z</time>
      </trkpt>
      <trkpt lat="60.202814005315304" lon="5.85933898575604">
        <ele>57.82</ele>
        <time>2017-06-19T09:13:54Z</time>
      </trkpt>
      <trkpt lat="60.202799001708627" lon="5.859026005491614">
        <ele>57.340000000000003</ele>
        <time>2017-06-19T09:13:55Z</time>
      </trkpt>
      <trkpt lat="60.202822973951697" lon="5.856226030737162">
        <ele>49.649999999999999</ele>
        <time>2017-06-19T09:14:04Z</time>
      </trkpt>
      <trkpt lat="60.203141989186406" lon="5.854291990399361">
        <ele>42.439999999999998</ele>
        <time>2017-06-19T09:14:11Z</time>
      </trkpt>
      <trkpt lat="60.203238967806101" lon="5.854071965441108">
        <ele>42.439999999999998</ele>
        <time>2017-06-19T09:14:12Z</time>
      </trkpt>
      <trkpt lat="60.203349022194743" lon="5.853877002373338">
        <ele>44.840000000000003</ele>
        <time>2017-06-19T09:14:13Z</time>
      </trkpt>
      <trkpt lat="60.203470978885889" lon="5.85371196269989">
        <ele>46.280000000000001</ele>
        <time>2017-06-19T09:14:14Z</time>
      </trkpt>
      <trkpt lat="60.203598970547318" lon="5.85358003154397">
        <ele>46.759999999999998</ele>
        <time>2017-06-19T09:14:15Z</time>
      </trkpt>
      <trkpt lat="60.203727968037128" lon="5.853462014347315">
        <ele>47.719999999999999</ele>
        <time>2017-06-19T09:14:16Z</time>
      </trkpt>
      <trkpt lat="60.204221997410059" lon="5.85293403826654">
        <ele>49.159999999999997</ele>
        <time>2017-06-19T09:14:20Z</time>
      </trkpt>
      <trkpt lat="60.204327022656798" lon="5.852771010249853">
        <ele>50.609999999999999</ele>
        <time>2017-06-19T09:14:21Z</time>
      </trkpt>
      <trkpt lat="60.204893974587321" lon="5.851438036188483">
        <ele>57.82</ele>
        <time>2017-06-19T09:14:28Z</time>
      </trkpt>
      <trkpt lat="60.20549101755023" lon="5.849966006353498">
        <ele>61.18</ele>
        <time>2017-06-19T09:14:35Z</time>
      </trkpt>
      <trkpt lat="60.205615991726518" lon="5.849828962236643">
        <ele>61.659999999999997</ele>
        <time>2017-06-19T09:14:36Z</time>
      </trkpt>
      <trkpt lat="60.20645703189075" lon="5.848588021472096">
        <ele>63.100000000000001</ele>
        <time>2017-06-19T09:14:43Z</time>
      </trkpt>
      <trkpt lat="60.207709036767483" lon="5.847467025741935">
        <ele>63.579999999999998</ele>
        <time>2017-06-19T09:14:51Z</time>
      </trkpt>
      <trkpt lat="60.209550959989429" lon="5.846299007534981">
        <ele>65.510000000000005</ele>
        <time>2017-06-19T09:15:02Z</time>
      </trkpt>
      <trkpt lat="60.209684986621141" lon="5.846107983961701">
        <ele>65.030000000000001</ele>
        <time>2017-06-19T09:15:03Z</time>
      </trkpt>
      <trkpt lat="60.209814989939332" lon="5.845902040600777">
        <ele>64.069999999999993</ele>
        <time>2017-06-19T09:15:04Z</time>
      </trkpt>
      <trkpt lat="60.210482021793723" lon="5.844719018787146">
        <ele>55.409999999999997</ele>
        <time>2017-06-19T09:15:10Z</time>
      </trkpt>
      <trkpt lat="60.21056299097836" lon="5.844507040455937">
        <ele>53.490000000000002</ele>
        <time>2017-06-19T09:15:11Z</time>
      </trkpt>
      <trkpt lat="60.21062501706183" lon="5.844270000234246">
        <ele>51.57</ele>
        <time>2017-06-19T09:15:12Z</time>
      </trkpt>
      <trkpt lat="60.210671033710241" lon="5.844017034396529">
        <ele>49.649999999999999</ele>
        <time>2017-06-19T09:15:13Z</time>
      </trkpt>
      <trkpt lat="60.210688970983028" lon="5.843757027760148">
        <ele>48.200000000000003</ele>
        <time>2017-06-19T09:15:14Z</time>
      </trkpt>
      <trkpt lat="60.210688970983028" lon="5.843481011688709">
        <ele>46.759999999999998</ele>
        <time>2017-06-19T09:15:15Z</time>
      </trkpt>
      <trkpt lat="60.210672039538622" lon="5.843210024759173">
        <ele>45.32</ele>
        <time>2017-06-19T09:15:16Z</time>
      </trkpt>
      <trkpt lat="60.210642032325268" lon="5.842952029779553">
        <ele>44.359999999999999</ele>
        <time>2017-06-19T09:15:17Z</time>
      </trkpt>
      <trkpt lat="60.210603978484869" lon="5.842703003436327">
        <ele>42.920000000000002</ele>
        <time>2017-06-19T09:15:18Z</time>
      </trkpt>
      <trkpt lat="60.21056299097836" lon="5.842465041205287">
        <ele>41.950000000000003</ele>
        <time>2017-06-19T09:15:19Z</time>
      </trkpt>
      <trkpt lat="60.210505994036794" lon="5.842057010158896">
        <ele>40.030000000000001</ele>
        <time>2017-06-19T09:15:21Z</time>
      </trkpt>
      <trkpt lat="60.210500964894891" lon="5.841896999627352">
        <ele>40.030000000000001</ele>
        <time>2017-06-19T09:15:22Z</time>
      </trkpt>
      <trkpt lat="60.210514962673187" lon="5.841756016016007">
        <ele>39.07</ele>
        <time>2017-06-19T09:15:23Z</time>
      </trkpt>
      <trkpt lat="60.210549999028444" lon="5.841618971899152">
        <ele>38.109999999999999</ele>
        <time>2017-06-19T09:15:24Z</time>
      </trkpt>
      <trkpt lat="60.21060498431325" lon="5.841500032693148">
        <ele>37.149999999999999</ele>
        <time>2017-06-19T09:15:25Z</time>
      </trkpt>
      <trkpt lat="60.2106680162251" lon="5.841390984132886">
        <ele>35.710000000000001</ele>
        <time>2017-06-19T09:15:26Z</time>
      </trkpt>
      <trkpt lat="60.210740016773343" lon="5.841303979977965">
        <ele>33.299999999999997</ele>
        <time>2017-06-19T09:15:27Z</time>
      </trkpt>
      <trkpt lat="60.210831966251135" lon="5.841233991086483">
        <ele>31.379999999999999</ele>
        <time>2017-06-19T09:15:28Z</time>
      </trkpt>
      <trkpt lat="60.210935985669494" lon="5.841170959174633">
        <ele>30.420000000000002</ele>
        <time>2017-06-19T09:15:29Z</time>
      </trkpt>
      <trkpt lat="60.211049979552627" lon="5.841127038002014">
        <ele>33.780000000000001</ele>
        <time>2017-06-19T09:15:30Z</time>
      </trkpt>
      <trkpt lat="60.211485000327229" lon="5.84092503413558">
        <ele>34.259999999999998</ele>
        <time>2017-06-19T09:15:34Z</time>
      </trkpt>
      <trkpt lat="60.211581978946924" lon="5.840834006667137">
        <ele>34.740000000000002</ele>
        <time>2017-06-19T09:15:35Z</time>
      </trkpt>
      <trkpt lat="60.211667977273464" lon="5.840700985863805">
        <ele>34.740000000000002</ele>
        <time>2017-06-19T09:15:36Z</time>
      </trkpt>
      <trkpt lat="60.211734026670456" lon="5.840522032231093">
        <ele>34.259999999999998</ele>
        <time>2017-06-19T09:15:37Z</time>
      </trkpt>
      <trkpt lat="60.211796974763274" lon="5.840307958424091">
        <ele>33.780000000000001</ele>
        <time>2017-06-19T09:15:38Z</time>
      </trkpt>
      <trkpt lat="60.211941981688142" lon="5.839871009811759">
        <ele>32.82</ele>
        <time>2017-06-19T09:15:40Z</time>
      </trkpt>
      <trkpt lat="60.212032003328204" lon="5.839675040915608">
        <ele>32.82</ele>
        <time>2017-06-19T09:15:41Z</time>
      </trkpt>
      <trkpt lat="60.212136022746563" lon="5.839514024555683">
        <ele>32.82</ele>
        <time>2017-06-19T09:15:42Z</time>
      </trkpt>
      <trkpt lat="60.212256973609328" lon="5.839397013187408">
        <ele>32.340000000000003</ele>
        <time>2017-06-19T09:15:43Z</time>
      </trkpt>
      <trkpt lat="60.212387982755899" lon="5.83931696601212">
        <ele>32.340000000000003</ele>
        <time>2017-06-19T09:15:44Z</time>
      </trkpt>
      <trkpt lat="60.212527960538864" lon="5.839276984333992">
        <ele>32.340000000000003</ele>
        <time>2017-06-19T09:15:45Z</time>
      </trkpt>
      <trkpt lat="60.212671039626002" lon="5.839283019304276">
        <ele>32.340000000000003</ele>
        <time>2017-06-19T09:15:46Z</time>
      </trkpt>
      <trkpt lat="60.212809005752206" lon="5.839329035952687">
        <ele>32.340000000000003</ele>
        <time>2017-06-19T09:15:47Z</time>
      </trkpt>
      <trkpt lat="60.212944960221648" lon="5.839419979602099">
        <ele>32.340000000000003</ele>
        <time>2017-06-19T09:15:48Z</time>
      </trkpt>
      <trkpt lat="60.213075969368219" lon="5.839542020112276">
        <ele>32.82</ele>
        <time>2017-06-19T09:15:49Z</time>
      </trkpt>
      <trkpt lat="60.213207984343171" lon="5.83968099206686">
        <ele>33.299999999999997</ele>
        <time>2017-06-19T09:15:50Z</time>
      </trkpt>
      <trkpt lat="60.213993033394217" lon="5.84060400724411">
        <ele>33.299999999999997</ele>
        <time>2017-06-19T09:15:56Z</time>
      </trkpt>
      <trkpt lat="60.214101998135448" lon="5.840808022767305">
        <ele>34.259999999999998</ele>
        <time>2017-06-19T09:15:57Z</time>
      </trkpt>
      <trkpt lat="60.214189002290368" lon="5.841021006926894">
        <ele>33.299999999999997</ele>
        <time>2017-06-19T09:15:58Z</time>
      </trkpt>
      <trkpt lat="60.214263014495373" lon="5.841234996914864">
        <ele>34.740000000000002</ele>
        <time>2017-06-19T09:15:59Z</time>
      </trkpt>
      <trkpt lat="60.214316993951797" lon="5.841459967195988">
        <ele>35.710000000000001</ele>
        <time>2017-06-19T09:16:00Z</time>
      </trkpt>
      <trkpt lat="60.214348006993532" lon="5.841683009639382">
        <ele>35.229999999999997</ele>
        <time>2017-06-19T09:16:01Z</time>
      </trkpt>
      <trkpt lat="60.214371979236603" lon="5.841900017112494">
        <ele>34.259999999999998</ele>
        <time>2017-06-19T09:16:02Z</time>
      </trkpt>
      <trkpt lat="60.214420007541776" lon="5.842107972130179">
        <ele>33.299999999999997</ele>
        <time>2017-06-19T09:16:03Z</time>
      </trkpt>
      <trkpt lat="60.214497959241271" lon="5.842282986268401">
        <ele>32.340000000000003</ele>
        <time>2017-06-19T09:16:04Z</time>
      </trkpt>
      <trkpt lat="60.214659981429577" lon="5.8426249679178">
        <ele>28.02</ele>
        <time>2017-06-19T09:16:06Z</time>
      </trkpt>
      <trkpt lat="60.214719995856285" lon="5.842814985662699">
        <ele>25.609999999999999</ele>
        <time>2017-06-19T09:16:07Z</time>
      </trkpt>
      <trkpt lat="60.214766012504697" lon="5.843036016449332">
        <ele>23.690000000000001</ele>
        <time>2017-06-19T09:16:08Z</time>
      </trkpt>
      <trkpt lat="60.214785039424896" lon="5.843302980065346">
        <ele>22.25</ele>
        <time>2017-06-19T09:16:09Z</time>
      </trkpt>
      <trkpt lat="60.21479501388967" lon="5.843558963388205">
        <ele>21.77</ele>
        <time>2017-06-19T09:16:10Z</time>
      </trkpt>
      <trkpt lat="60.214851005002856" lon="5.84434300661087">
        <ele>19.359999999999999</ele>
        <time>2017-06-19T09:16:13Z</time>
      </trkpt>
      <trkpt lat="60.214949995279312" lon="5.844827983528376">
        <ele>18.399999999999999</ele>
        <time>2017-06-19T09:16:15Z</time>
      </trkpt>
      <trkpt lat="60.215029958635569" lon="5.84505102597177">
        <ele>18.879999999999999</ele>
        <time>2017-06-19T09:16:16Z</time>
      </trkpt>
      <trkpt lat="60.215620966628194" lon="5.846292972564697">
        <ele>23.690000000000001</ele>
        <time>2017-06-19T09:16:22Z</time>
      </trkpt>
      <trkpt lat="60.215734960511327" lon="5.846448037773371">
        <ele>24.649999999999999</ele>
        <time>2017-06-19T09:16:23Z</time>
      </trkpt>
      <trkpt lat="60.215870998799801" lon="5.846560019999743">
        <ele>25.609999999999999</ele>
        <time>2017-06-19T09:16:24Z</time>
      </trkpt>
      <trkpt lat="60.21601801738143" lon="5.846631014719605">
        <ele>26.57</ele>
        <time>2017-06-19T09:16:25Z</time>
      </trkpt>
      <trkpt lat="60.216171992942691" lon="5.846676025539637">
        <ele>27.050000000000001</ele>
        <time>2017-06-19T09:16:26Z</time>
      </trkpt>
      <trkpt lat="60.216495031490922" lon="5.846771998330951">
        <ele>27.530000000000001</ele>
        <time>2017-06-19T09:16:28Z</time>
      </trkpt>
      <trkpt lat="60.216648001223803" lon="5.846894960850477">
        <ele>28.98</ele>
        <time>2017-06-19T09:16:29Z</time>
      </trkpt>
      <trkpt lat="60.216798037290573" lon="5.847038961946964">
        <ele>28.98</ele>
        <time>2017-06-19T09:16:30Z</time>
      </trkpt>
      <trkpt lat="60.217551989480853" lon="5.847863992676139">
        <ele>32.340000000000003</ele>
        <time>2017-06-19T09:16:35Z</time>
      </trkpt>
      <trkpt lat="60.217680986970663" lon="5.848083011806011">
        <ele>32.82</ele>
        <time>2017-06-19T09:16:36Z</time>
      </trkpt>
      <trkpt lat="60.2180399838835" lon="5.848712995648384">
        <ele>38.109999999999999</ele>
        <time>2017-06-19T09:16:39Z</time>
      </trkpt>
      <trkpt lat="60.218171998858452" lon="5.848818020895124">
        <ele>39.549999999999997</ele>
        <time>2017-06-19T09:16:40Z</time>
      </trkpt>
      <trkpt lat="60.218310970813036" lon="5.848884992301464">
        <ele>40.030000000000001</ele>
        <time>2017-06-19T09:16:41Z</time>
      </trkpt>
      <trkpt lat="60.218457989394665" lon="5.848921034485102">
        <ele>40.509999999999998</ele>
        <time>2017-06-19T09:16:42Z</time>
      </trkpt>
      <trkpt lat="60.218610959127545" lon="5.848951963707805">
        <ele>40.990000000000002</ele>
        <time>2017-06-19T09:16:43Z</time>
      </trkpt>
      <trkpt lat="60.218909019604325" lon="5.849074004217982">
        <ele>41.469999999999999</ele>
        <time>2017-06-19T09:16:45Z</time>
      </trkpt>
      <trkpt lat="60.219047991558909" lon="5.849189003929496">
        <ele>41.950000000000003</ele>
        <time>2017-06-19T09:16:46Z</time>
      </trkpt>
      <trkpt lat="60.219173971563578" lon="5.849347002804279">
        <ele>41.950000000000003</ele>
        <time>2017-06-19T09:16:47Z</time>
      </trkpt>
      <trkpt lat="60.219295006245375" lon="5.849569961428642">
        <ele>43.399999999999999</ele>
        <time>2017-06-19T09:16:48Z</time>
      </trkpt>
      <trkpt lat="60.219397014006972" lon="5.849822005257011">
        <ele>43.399999999999999</ele>
        <time>2017-06-19T09:16:49Z</time>
      </trkpt>
      <trkpt lat="60.219494998455048" lon="5.850106989964843">
        <ele>45.32</ele>
        <time>2017-06-19T09:16:50Z</time>
      </trkpt>
      <trkpt lat="60.219590971246362" lon="5.850391974672675">
        <ele>46.759999999999998</ele>
        <time>2017-06-19T09:16:51Z</time>
      </trkpt>
      <trkpt lat="60.219701025635004" lon="5.850675031542778">
        <ele>48.68</ele>
        <time>2017-06-19T09:16:52Z</time>
      </trkpt>
      <trkpt lat="60.219824993982911" lon="5.850921962410212">
        <ele>50.130000000000003</ele>
        <time>2017-06-19T09:16:53Z</time>
      </trkpt>
      <trkpt lat="60.219957008957863" lon="5.851155985146761">
        <ele>52.049999999999997</ele>
        <time>2017-06-19T09:16:54Z</time>
      </trkpt>
      <trkpt lat="60.220092963427305" lon="5.851363018155098">
        <ele>53.009999999999998</ele>
        <time>2017-06-19T09:16:55Z</time>
      </trkpt>
      <trkpt lat="60.220232019200921" lon="5.851528979837894">
        <ele>54.93</ele>
        <time>2017-06-19T09:16:56Z</time>
      </trkpt>
      <trkpt lat="60.220379959791899" lon="5.851625958457589">
        <ele>56.369999999999997</ele>
        <time>2017-06-19T09:16:57Z</time>
      </trkpt>
      <trkpt lat="60.220541981980205" lon="5.851683039218187">
        <ele>57.82</ele>
        <time>2017-06-19T09:16:58Z</time>
      </trkpt>
      <trkpt lat="60.220711966976523" lon="5.851723020896316">
        <ele>59.740000000000002</ele>
        <time>2017-06-19T09:16:59Z</time>
      </trkpt>
      <trkpt lat="60.221371036022902" lon="5.851806001737714">
        <ele>66.469999999999999</ele>
        <time>2017-06-19T09:17:03Z</time>
      </trkpt>
      <trkpt lat="60.221543032675982" lon="5.851686978712678">
        <ele>67.909999999999997</ele>
        <time>2017-06-19T09:17:04Z</time>
      </trkpt>
      <trkpt lat="60.223295018076897" lon="5.850369008257985">
        <ele>79.450000000000003</ele>
        <time>2017-06-19T09:17:14Z</time>
      </trkpt>
      <trkpt lat="60.225459979847074" lon="5.848829001188278">
        <ele>93.390000000000001</ele>
        <time>2017-06-19T09:17:27Z</time>
      </trkpt>
      <trkpt lat="60.226472010836005" lon="5.847346996888518">
        <ele>103</ele>
        <time>2017-06-19T09:17:34Z</time>
      </trkpt>
      <trkpt lat="60.227866005152464" lon="5.845511024817824">
        <ele>115.01000000000001</ele>
        <time>2017-06-19T09:17:43Z</time>
      </trkpt>
      <trkpt lat="60.228949030861259" lon="5.844805017113686">
        <ele>122.70999999999999</ele>
        <time>2017-06-19T09:17:49Z</time>
      </trkpt>
      <trkpt lat="60.229115998372436" lon="5.84462103433907">
        <ele>123.19</ele>
        <time>2017-06-19T09:17:50Z</time>
      </trkpt>
      <trkpt lat="60.230958005413413" lon="5.842132028192282">
        <ele>124.15000000000001</ele>
        <time>2017-06-19T09:18:01Z</time>
      </trkpt>
      <trkpt lat="60.232291985303164" lon="5.840033032000065">
        <ele>116.45999999999999</ele>
        <time>2017-06-19T09:18:09Z</time>
      </trkpt>
      <trkpt lat="60.233786981552839" lon="5.837732031941414">
        <ele>109.73</ele>
        <time>2017-06-19T09:18:18Z</time>
      </trkpt>
      <trkpt lat="60.235608033835888" lon="5.83568399772048">
        <ele>105.40000000000001</ele>
        <time>2017-06-19T09:18:28Z</time>
      </trkpt>
      <trkpt lat="60.237298998981714" lon="5.833675023168325">
        <ele>120.3</ele>
        <time>2017-06-19T09:18:38Z</time>
      </trkpt>
      <trkpt lat="60.237539978697896" lon="5.833092983812094">
        <ele>125.11</ele>
        <time>2017-06-19T09:18:40Z</time>
      </trkpt>
      <trkpt lat="60.237640980631113" lon="5.832769023254514">
        <ele>127.51000000000001</ele>
        <time>2017-06-19T09:18:41Z</time>
      </trkpt>
      <trkpt lat="60.237723039463162" lon="5.83241899497807">
        <ele>128.94999999999999</ele>
        <time>2017-06-19T09:18:42Z</time>
      </trkpt>
      <trkpt lat="60.23778397589922" lon="5.83205203525722">
        <ele>129.43000000000001</ele>
        <time>2017-06-19T09:18:43Z</time>
      </trkpt>
      <trkpt lat="60.237830998376012" lon="5.831678034737706">
        <ele>130.40000000000001</ele>
        <time>2017-06-19T09:18:44Z</time>
      </trkpt>
      <trkpt lat="60.237864023074508" lon="5.831292970106006">
        <ele>130.88</ele>
        <time>2017-06-19T09:18:45Z</time>
      </trkpt>
      <trkpt lat="60.237881038337946" lon="5.830903965979815">
        <ele>131.36000000000001</ele>
        <time>2017-06-19T09:18:46Z</time>
      </trkpt>
      <trkpt lat="60.237882966175675" lon="5.830515967682004">
        <ele>131.36000000000001</ele>
        <time>2017-06-19T09:18:47Z</time>
      </trkpt>
      <trkpt lat="60.23786997422576" lon="5.830136016011238">
        <ele>131.84</ele>
        <time>2017-06-19T09:18:48Z</time>
      </trkpt>
      <trkpt lat="60.237842984497547" lon="5.829761009663343">
        <ele>133.75999999999999</ele>
        <time>2017-06-19T09:18:49Z</time>
      </trkpt>
      <trkpt lat="60.237794034183025" lon="5.829379968345165">
        <ele>134.24000000000001</ele>
        <time>2017-06-19T09:18:50Z</time>
      </trkpt>
      <trkpt lat="60.237731002271175" lon="5.829003034159541">
        <ele>135.19999999999999</ele>
        <time>2017-06-19T09:18:51Z</time>
      </trkpt>
      <trkpt lat="60.237652966752648" lon="5.828633978962898">
        <ele>136.16</ele>
        <time>2017-06-19T09:18:52Z</time>
      </trkpt>
      <trkpt lat="60.237556993961334" lon="5.828257966786623">
        <ele>136.16</ele>
        <time>2017-06-19T09:18:53Z</time>
      </trkpt>
      <trkpt lat="60.237450962886214" lon="5.82788597792387">
        <ele>135.68000000000001</ele>
        <time>2017-06-19T09:18:54Z</time>
      </trkpt>
      <trkpt lat="60.236480003222823" lon="5.824701022356749">
        <ele>136.16</ele>
        <time>2017-06-19T09:19:03Z</time>
      </trkpt>
      <trkpt lat="60.236417977139354" lon="5.824336996302009">
        <ele>136.63999999999999</ele>
        <time>2017-06-19T09:19:04Z</time>
      </trkpt>
      <trkpt lat="60.236375983804464" lon="5.823954027146101">
        <ele>136.63999999999999</ele>
        <time>2017-06-19T09:19:05Z</time>
      </trkpt>
      <trkpt lat="60.236355029046535" lon="5.82356502301991">
        <ele>136.16</ele>
        <time>2017-06-19T09:19:06Z</time>
      </trkpt>
      <trkpt lat="60.236354023218155" lon="5.823173001408577">
        <ele>135.68000000000001</ele>
        <time>2017-06-19T09:19:07Z</time>
      </trkpt>
      <trkpt lat="60.236372966319323" lon="5.822783997282386">
        <ele>135.19999999999999</ele>
        <time>2017-06-19T09:19:08Z</time>
      </trkpt>
      <trkpt lat="60.236410014331341" lon="5.822402033954859">
        <ele>134.72</ele>
        <time>2017-06-19T09:19:09Z</time>
      </trkpt>
      <trkpt lat="60.23647396825254" lon="5.822032978758216">
        <ele>135.19999999999999</ele>
        <time>2017-06-19T09:19:10Z</time>
      </trkpt>
      <trkpt lat="60.236567007377744" lon="5.82167498767376">
        <ele>135.68000000000001</ele>
        <time>2017-06-19T09:19:11Z</time>
      </trkpt>
      <trkpt lat="60.236677983775735" lon="5.821343986317515">
        <ele>135.68000000000001</ele>
        <time>2017-06-19T09:19:12Z</time>
      </trkpt>
      <trkpt lat="60.236793989315629" lon="5.821035029366612">
        <ele>135.19999999999999</ele>
        <time>2017-06-19T09:19:13Z</time>
      </trkpt>
      <trkpt lat="60.236922986805439" lon="5.820732023566961">
        <ele>135.19999999999999</ele>
        <time>2017-06-19T09:19:14Z</time>
      </trkpt>
      <trkpt lat="60.237750029191375" lon="5.818983977660537">
        <ele>139.53</ele>
        <time>2017-06-19T09:19:20Z</time>
      </trkpt>
      <trkpt lat="60.237852036952972" lon="5.818652976304293">
        <ele>139.53</ele>
        <time>2017-06-19T09:19:21Z</time>
      </trkpt>
      <trkpt lat="60.238480009138584" lon="5.816385000944138">
        <ele>135.19999999999999</ele>
        <time>2017-06-19T09:19:28Z</time>
      </trkpt>
      <trkpt lat="60.238597020506859" lon="5.816124994307756">
        <ele>134.24000000000001</ele>
        <time>2017-06-19T09:19:29Z</time>
      </trkpt>
      <trkpt lat="60.238726017996669" lon="5.815871022641659">
        <ele>133.75999999999999</ele>
        <time>2017-06-19T09:19:30Z</time>
      </trkpt>
      <trkpt lat="60.239478964358568" lon="5.814269995316863">
        <ele>132.80000000000001</ele>
        <time>2017-06-19T09:19:36Z</time>
      </trkpt>
      <trkpt lat="60.239564962685108" lon="5.813934970647097">
        <ele>131.84</ele>
        <time>2017-06-19T09:19:37Z</time>
      </trkpt>
      <trkpt lat="60.239633023738861" lon="5.81357597373426">
        <ele>130.88</ele>
        <time>2017-06-19T09:19:38Z</time>
      </trkpt>
      <trkpt lat="60.239683985710144" lon="5.81320901401341">
        <ele>129.91999999999999</ele>
        <time>2017-06-19T09:19:39Z</time>
      </trkpt>
      <trkpt lat="60.239713992923498" lon="5.812826966866851">
        <ele>128.94999999999999</ele>
        <time>2017-06-19T09:19:40Z</time>
      </trkpt>
      <trkpt lat="60.239723967388272" lon="5.812428994104266">
        <ele>127.98999999999999</ele>
        <time>2017-06-19T09:19:41Z</time>
      </trkpt>
      <trkpt lat="60.23971701040864" lon="5.812030015513301">
        <ele>126.06999999999999</ele>
        <time>2017-06-19T09:19:42Z</time>
      </trkpt>
      <trkpt lat="60.239698989316821" lon="5.81162198446691">
        <ele>124.15000000000001</ele>
        <time>2017-06-19T09:19:43Z</time>
      </trkpt>
      <trkpt lat="60.239430014044046" lon="5.806975979357958">
        <ele>106.84</ele>
        <time>2017-06-19T09:19:54Z</time>
      </trkpt>
      <trkpt lat="60.239521041512489" lon="5.805323990061879">
        <ele>99.629999999999995</ele>
        <time>2017-06-19T09:19:58Z</time>
      </trkpt>
      <trkpt lat="60.239587007090449" lon="5.804928028956056">
        <ele>99.150000000000006</ele>
        <time>2017-06-19T09:19:59Z</time>
      </trkpt>
      <trkpt lat="60.240408014506102" lon="5.801047962158918">
        <ele>83.290000000000006</ele>
        <time>2017-06-19T09:20:09Z</time>
      </trkpt>
      <trkpt lat="60.240604989230633" lon="5.799533016979694">
        <ele>78.480000000000004</ele>
        <time>2017-06-19T09:20:13Z</time>
      </trkpt>
      <trkpt lat="60.240615969523787" lon="5.799145018681884">
        <ele>77.519999999999996</ele>
        <time>2017-06-19T09:20:14Z</time>
      </trkpt>
      <trkpt lat="60.240610018372536" lon="5.798749979585409">
        <ele>75.599999999999994</ele>
        <time>2017-06-19T09:20:15Z</time>
      </trkpt>
      <trkpt lat="60.240591997280717" lon="5.798347983509302">
        <ele>74.159999999999997</ele>
        <time>2017-06-19T09:20:16Z</time>
      </trkpt>
      <trkpt lat="60.240560984238982" lon="5.797938024625182">
        <ele>72.239999999999995</ele>
        <time>2017-06-19T09:20:17Z</time>
      </trkpt>
      <trkpt lat="60.240516979247332" lon="5.797523036599159">
        <ele>70.310000000000002</ele>
        <time>2017-06-19T09:20:18Z</time>
      </trkpt>
      <trkpt lat="60.240011969581246" lon="5.793066965416074">
        <ele>57.82</ele>
        <time>2017-06-19T09:20:29Z</time>
      </trkpt>
      <trkpt lat="60.240250015631318" lon="5.790822962298989">
        <ele>54.450000000000003</ele>
        <time>2017-06-19T09:20:35Z</time>
      </trkpt>
      <trkpt lat="60.240614041686058" lon="5.788037991151214">
        <ele>48.68</ele>
        <time>2017-06-19T09:20:43Z</time>
      </trkpt>
      <trkpt lat="60.240524020045996" lon="5.784105034545064">
        <ele>44.359999999999999</ele>
        <time>2017-06-19T09:20:53Z</time>
      </trkpt>
      <trkpt lat="60.240759970620275" lon="5.78171200118959">
        <ele>42.920000000000002</ele>
        <time>2017-06-19T09:20:59Z</time>
      </trkpt>
      <trkpt lat="60.241082003340125" lon="5.7806839607656">
        <ele>43.880000000000003</ele>
        <time>2017-06-19T09:21:02Z</time>
      </trkpt>
      <trkpt lat="60.241215024143457" lon="5.780393024906516">
        <ele>44.840000000000003</ele>
        <time>2017-06-19T09:21:03Z</time>
      </trkpt>
      <trkpt lat="60.241353996098042" lon="5.780118014663458">
        <ele>45.32</ele>
        <time>2017-06-19T09:21:04Z</time>
      </trkpt>
      <trkpt lat="60.242584962397814" lon="5.777677036821842">
        <ele>50.609999999999999</ele>
        <time>2017-06-19T09:21:13Z</time>
      </trkpt>
      <trkpt lat="60.243072034791112" lon="5.775152994319797">
        <ele>53.969999999999999</ele>
        <time>2017-06-19T09:21:20Z</time>
      </trkpt>
      <trkpt lat="60.243378980085254" lon="5.769291026517749">
        <ele>57.340000000000003</ele>
        <time>2017-06-19T09:21:35Z</time>
      </trkpt>
      <trkpt lat="60.243896981701255" lon="5.763442972674966">
        <ele>43.399999999999999</ele>
        <time>2017-06-19T09:21:50Z</time>
      </trkpt>
      <trkpt lat="60.244456976652145" lon="5.759310023859143">
        <ele>42.439999999999998</ele>
        <time>2017-06-19T09:22:02Z</time>
      </trkpt>
      <trkpt lat="60.244468962773681" lon="5.758977010846138">
        <ele>42.920000000000002</ele>
        <time>2017-06-19T09:22:03Z</time>
      </trkpt>
      <trkpt lat="60.244464017450809" lon="5.758634023368359">
        <ele>42.920000000000002</ele>
        <time>2017-06-19T09:22:04Z</time>
      </trkpt>
      <trkpt lat="60.244441973045468" lon="5.758288018405438">
        <ele>42.920000000000002</ele>
        <time>2017-06-19T09:22:05Z</time>
      </trkpt>
      <trkpt lat="60.24440098553896" lon="5.757935978472233">
        <ele>43.880000000000003</ele>
        <time>2017-06-19T09:22:06Z</time>
      </trkpt>
      <trkpt lat="60.244348011910915" lon="5.757599025964737">
        <ele>44.359999999999999</ele>
        <time>2017-06-19T09:22:07Z</time>
      </trkpt>
      <trkpt lat="60.244285985827446" lon="5.757259977981448">
        <ele>44.359999999999999</ele>
        <time>2017-06-19T09:22:08Z</time>
      </trkpt>
      <trkpt lat="60.243423990905285" lon="5.753318974748254">
        <ele>37.630000000000003</ele>
        <time>2017-06-19T09:22:20Z</time>
      </trkpt>
      <trkpt lat="60.243388032540679" lon="5.752968024462462">
        <ele>35.710000000000001</ele>
        <time>2017-06-19T09:22:21Z</time>
      </trkpt>
      <trkpt lat="60.243317959830165" lon="5.752332005649805">
        <ele>32.82</ele>
        <time>2017-06-19T09:22:23Z</time>
      </trkpt>
      <trkpt lat="60.243266997858882" lon="5.752073004841805">
        <ele>31.379999999999999</ele>
        <time>2017-06-19T09:22:24Z</time>
      </trkpt>
      <trkpt lat="60.243200026452541" lon="5.751844011247158">
        <ele>30.420000000000002</ele>
        <time>2017-06-19T09:22:25Z</time>
      </trkpt>
      <trkpt lat="60.243116961792111" lon="5.751623986288905">
        <ele>28.98</ele>
        <time>2017-06-19T09:22:26Z</time>
      </trkpt>
      <trkpt lat="60.243015037849545" lon="5.751414019614458">
        <ele>27.530000000000001</ele>
        <time>2017-06-19T09:22:27Z</time>
      </trkpt>
      <trkpt lat="60.242901965975761" lon="5.751202963292599">
        <ele>26.09</ele>
        <time>2017-06-19T09:22:28Z</time>
      </trkpt>
      <trkpt lat="60.24268495850265" lon="5.750761991366744">
        <ele>24.170000000000002</ele>
        <time>2017-06-19T09:22:30Z</time>
      </trkpt>
      <trkpt lat="60.242500975728035" lon="5.750271985307336">
        <ele>20.809999999999999</ele>
        <time>2017-06-19T09:22:32Z</time>
      </trkpt>
      <trkpt lat="60.242427969351411" lon="5.750013990327716">
        <ele>19.359999999999999</ele>
        <time>2017-06-19T09:22:33Z</time>
      </trkpt>
      <trkpt lat="60.242129992693663" lon="5.748876985162497">
        <ele>13.119999999999999</ele>
        <time>2017-06-19T09:22:38Z</time>
      </trkpt>
      <trkpt lat="60.242095962166786" lon="5.748719992116094">
        <ele>12.630000000000001</ele>
        <time>2017-06-19T09:22:39Z</time>
      </trkpt>
      <trkpt lat="60.242049023509026" lon="5.748492004349828">
        <ele>12.630000000000001</ele>
        <time>2017-06-19T09:22:41Z</time>
      </trkpt>
      <trkpt lat="60.242009963840246" lon="5.748400976881385">
        <ele>12.630000000000001</ele>
        <time>2017-06-19T09:22:42Z</time>
      </trkpt>
      <trkpt lat="60.241949027404189" lon="5.748348003253341">
        <ele>11.19</ele>
        <time>2017-06-19T09:22:43Z</time>
      </trkpt>
      <trkpt lat="60.241884989663959" lon="5.748348003253341">
        <ele>11.19</ele>
        <time>2017-06-19T09:22:44Z</time>
      </trkpt>
      <trkpt lat="60.241810977458954" lon="5.748373987153173">
        <ele>11.19</ele>
        <time>2017-06-19T09:22:45Z</time>
      </trkpt>
      <trkpt lat="60.241723973304033" lon="5.748423021286726">
        <ele>11.67</ele>
        <time>2017-06-19T09:22:46Z</time>
      </trkpt>
      <trkpt lat="60.2416290063411" lon="5.748503990471363">
        <ele>11.67</ele>
        <time>2017-06-19T09:22:47Z</time>
      </trkpt>
      <trkpt lat="60.241518029943109" lon="5.748599963262677">
        <ele>11.19</ele>
        <time>2017-06-19T09:22:48Z</time>
      </trkpt>
      <trkpt lat="60.24141401052475" lon="5.748729966580868">
        <ele>11.19</ele>
        <time>2017-06-19T09:22:49Z</time>
      </trkpt>
      <trkpt lat="60.241313008591533" lon="5.748889977112413">
        <ele>11.19</ele>
        <time>2017-06-19T09:22:50Z</time>
      </trkpt>
      <trkpt lat="60.241228016093373" lon="5.749062979593873">
        <ele>11.67</ele>
        <time>2017-06-19T09:22:51Z</time>
      </trkpt>
      <trkpt lat="60.241146963089705" lon="5.749263977631927">
        <ele>11.67</ele>
        <time>2017-06-19T09:22:52Z</time>
      </trkpt>
      <trkpt lat="60.241078985854983" lon="5.749477967619896">
        <ele>12.630000000000001</ele>
        <time>2017-06-19T09:22:53Z</time>
      </trkpt>
      <trkpt lat="60.241010002791882" lon="5.749703021720052">
        <ele>12.630000000000001</ele>
        <time>2017-06-19T09:22:54Z</time>
      </trkpt>
      <trkpt lat="60.240786038339138" lon="5.750395031645894">
        <ele>13.119999999999999</ele>
        <time>2017-06-19T09:22:57Z</time>
      </trkpt>
      <trkpt lat="60.240692999213934" lon="5.750606004148722">
        <ele>13.119999999999999</ele>
        <time>2017-06-19T09:22:58Z</time>
      </trkpt>
      <trkpt lat="60.240587973967195" lon="5.750798033550382">
        <ele>13.119999999999999</ele>
        <time>2017-06-19T09:22:59Z</time>
      </trkpt>
      <trkpt lat="60.239637969061732" lon="5.752768032252789">
        <ele>13.6</ele>
        <time>2017-06-19T09:23:09Z</time>
      </trkpt>
      <trkpt lat="60.239548031240702" lon="5.75290298089385">
        <ele>13.6</ele>
        <time>2017-06-19T09:23:10Z</time>
      </trkpt>
      <trkpt lat="60.239449962973595" lon="5.752991996705532">
        <ele>12.630000000000001</ele>
        <time>2017-06-19T09:23:11Z</time>
      </trkpt>
      <trkpt lat="60.239344015717506" lon="5.753040025010705">
        <ele>13.119999999999999</ele>
        <time>2017-06-19T09:23:12Z</time>
      </trkpt>
      <trkpt lat="60.239238990470767" lon="5.753037007525563">
        <ele>13.119999999999999</ele>
        <time>2017-06-19T09:23:13Z</time>
      </trkpt>
      <trkpt lat="60.239132037386298" lon="5.752964001148939">
        <ele>13.119999999999999</ele>
        <time>2017-06-19T09:23:14Z</time>
      </trkpt>
      <trkpt lat="60.239034974947572" lon="5.75283701531589">
        <ele>12.15</ele>
        <time>2017-06-19T09:23:15Z</time>
      </trkpt>
      <trkpt lat="60.23894302546978" lon="5.752666024491191">
        <ele>11.19</ele>
        <time>2017-06-19T09:23:16Z</time>
      </trkpt>
      <trkpt lat="60.238858032971621" lon="5.752458991482854">
        <ele>11.19</ele>
        <time>2017-06-19T09:23:17Z</time>
      </trkpt>
      <trkpt lat="60.238783014938235" lon="5.752229997888207">
        <ele>11.19</ele>
        <time>2017-06-19T09:23:18Z</time>
      </trkpt>
      <trkpt lat="60.238706991076469" lon="5.751984994858503">
        <ele>11.19</ele>
        <time>2017-06-19T09:23:19Z</time>
      </trkpt>
      <trkpt lat="60.238351011648774" lon="5.750624025240541">
        <ele>12.15</ele>
        <time>2017-06-19T09:23:24Z</time>
      </trkpt>
      <trkpt lat="60.238317986950278" lon="5.750297969207168">
        <ele>13.6</ele>
        <time>2017-06-19T09:23:25Z</time>
      </trkpt>
      <trkpt lat="60.238210028037429" lon="5.749394986778498">
        <ele>16</ele>
        <time>2017-06-19T09:23:28Z</time>
      </trkpt>
      <trkpt lat="60.23758901283145" lon="5.7471430208534">
        <ele>16</ele>
        <time>2017-06-19T09:23:36Z</time>
      </trkpt>
      <trkpt lat="60.236813016235828" lon="5.745046958327293">
        <ele>14.56</ele>
        <time>2017-06-19T09:23:44Z</time>
      </trkpt>
      <trkpt lat="60.236711008474231" lon="5.744848977774382">
        <ele>15.039999999999999</ele>
        <time>2017-06-19T09:23:45Z</time>
      </trkpt>
      <trkpt lat="60.236601959913969" lon="5.744685027748346">
        <ele>15.52</ele>
        <time>2017-06-19T09:23:46Z</time>
      </trkpt>
      <trkpt lat="60.236487966030836" lon="5.744555024430156">
        <ele>16</ele>
        <time>2017-06-19T09:23:47Z</time>
      </trkpt>
      <trkpt lat="60.236357040703297" lon="5.744466008618474">
        <ele>16</ele>
        <time>2017-06-19T09:23:48Z</time>
      </trkpt>
      <trkpt lat="60.23621597327292" lon="5.744417980313301">
        <ele>16.48</ele>
        <time>2017-06-19T09:23:49Z</time>
      </trkpt>
      <trkpt lat="60.236071972176433" lon="5.744368024170399">
        <ele>16.48</ele>
        <time>2017-06-19T09:23:50Z</time>
      </trkpt>
      <trkpt lat="60.235930988565087" lon="5.744299041107297">
        <ele>17.920000000000002</ele>
        <time>2017-06-19T09:23:51Z</time>
      </trkpt>
      <trkpt lat="60.235794028267264" lon="5.744203990325332">
        <ele>18.399999999999999</ele>
        <time>2017-06-19T09:23:52Z</time>
      </trkpt>
      <trkpt lat="60.23544299416244" lon="5.743863014504314">
        <ele>18.879999999999999</ele>
        <time>2017-06-19T09:23:55Z</time>
      </trkpt>
      <trkpt lat="60.2353569958359" lon="5.743695041164756">
        <ele>18.399999999999999</ele>
        <time>2017-06-19T09:23:56Z</time>
      </trkpt>
      <trkpt lat="60.235295975580812" lon="5.743493037298322">
        <ele>18.399999999999999</ele>
        <time>2017-06-19T09:23:57Z</time>
      </trkpt>
      <trkpt lat="60.23527099750936" lon="5.74327502399683">
        <ele>17.440000000000001</ele>
        <time>2017-06-19T09:23:58Z</time>
      </trkpt>
      <trkpt lat="60.235283989459276" lon="5.743035972118378">
        <ele>16.960000000000001</ele>
        <time>2017-06-19T09:23:59Z</time>
      </trkpt>
      <trkpt lat="60.235317014157772" lon="5.742786023765802">
        <ele>16.48</ele>
        <time>2017-06-19T09:24:00Z</time>
      </trkpt>
      <trkpt lat="60.235362024977803" lon="5.742542026564479">
        <ele>15.52</ele>
        <time>2017-06-19T09:24:01Z</time>
      </trkpt>
      <trkpt lat="60.235426984727383" lon="5.742290988564491">
        <ele>15.52</ele>
        <time>2017-06-19T09:24:02Z</time>
      </trkpt>
      <trkpt lat="60.235498985275626" lon="5.742042968049645">
        <ele>16.48</ele>
        <time>2017-06-19T09:24:03Z</time>
      </trkpt>
      <trkpt lat="60.235553970560431" lon="5.741808023303747">
        <ele>16.48</ele>
        <time>2017-06-19T09:24:04Z</time>
      </trkpt>
      <trkpt lat="60.235586995258927" lon="5.741582969203591">
        <ele>16.48</ele>
        <time>2017-06-19T09:24:05Z</time>
      </trkpt>
      <trkpt lat="60.235595041885972" lon="5.741349030286074">
        <ele>16.960000000000001</ele>
        <time>2017-06-19T09:24:06Z</time>
      </trkpt>
      <trkpt lat="60.235580960288644" lon="5.741093968972564">
        <ele>17.920000000000002</ele>
        <time>2017-06-19T09:24:07Z</time>
      </trkpt>
      <trkpt lat="60.235546007752419" lon="5.740845026448369">
        <ele>18.399999999999999</ele>
        <time>2017-06-19T09:24:08Z</time>
      </trkpt>
      <trkpt lat="60.235497979447246" lon="5.740594994276762">
        <ele>18.399999999999999</ele>
        <time>2017-06-19T09:24:09Z</time>
      </trkpt>
      <trkpt lat="60.23490403778851" lon="5.738316038623452">
        <ele>19.359999999999999</ele>
        <time>2017-06-19T09:24:18Z</time>
      </trkpt>
      <trkpt lat="60.23481803946197" lon="5.738115962594748">
        <ele>18.879999999999999</ele>
        <time>2017-06-19T09:24:19Z</time>
      </trkpt>
      <trkpt lat="60.23471100255847" lon="5.737946983426809">
        <ele>18.399999999999999</ele>
        <time>2017-06-19T09:24:20Z</time>
      </trkpt>
      <trkpt lat="60.234601031988859" lon="5.73781899176538">
        <ele>18.879999999999999</ele>
        <time>2017-06-19T09:24:21Z</time>
      </trkpt>
      <trkpt lat="60.234270030632615" lon="5.737416995689273">
        <ele>19.359999999999999</ele>
        <time>2017-06-19T09:24:24Z</time>
      </trkpt>
      <trkpt lat="60.234179003164172" lon="5.737208034843206">
        <ele>19.84</ele>
        <time>2017-06-19T09:24:25Z</time>
      </trkpt>
      <trkpt lat="60.233989991247654" lon="5.736764967441559">
        <ele>20.32</ele>
        <time>2017-06-19T09:24:27Z</time>
      </trkpt>
      <trkpt lat="60.23387499153614" lon="5.736581990495324">
        <ele>19.359999999999999</ele>
        <time>2017-06-19T09:24:28Z</time>
      </trkpt>
      <trkpt lat="60.233750017359853" lon="5.736435977742076">
        <ele>19.359999999999999</ele>
        <time>2017-06-19T09:24:29Z</time>
      </trkpt>
      <trkpt lat="60.233366964384913" lon="5.736072035506368">
        <ele>21.77</ele>
        <time>2017-06-19T09:24:32Z</time>
      </trkpt>
      <trkpt lat="60.233246013522148" lon="5.735901966691017">
        <ele>22.25</ele>
        <time>2017-06-19T09:24:33Z</time>
      </trkpt>
      <trkpt lat="60.233131013810635" lon="5.735701974481344">
        <ele>22.25</ele>
        <time>2017-06-19T09:24:34Z</time>
      </trkpt>
      <trkpt lat="60.233032023534179" lon="5.735462000593543">
        <ele>22.25</ele>
        <time>2017-06-19T09:24:35Z</time>
      </trkpt>
      <trkpt lat="60.232946025207639" lon="5.735210962593556">
        <ele>22.25</ele>
        <time>2017-06-19T09:24:36Z</time>
      </trkpt>
      <trkpt lat="60.232876958325505" lon="5.734927989542484">
        <ele>22.25</ele>
        <time>2017-06-19T09:24:37Z</time>
      </trkpt>
      <trkpt lat="60.232824990525842" lon="5.734620960429311">
        <ele>22.25</ele>
        <time>2017-06-19T09:24:38Z</time>
      </trkpt>
      <trkpt lat="60.232786014676094" lon="5.734305968508124">
        <ele>22.25</ele>
        <time>2017-06-19T09:24:39Z</time>
      </trkpt>
      <trkpt lat="60.232753995805979" lon="5.733984019607306">
        <ele>22.73</ele>
        <time>2017-06-19T09:24:40Z</time>
      </trkpt>
      <trkpt lat="60.232513016089797" lon="5.731139034032822">
        <ele>22.25</ele>
        <time>2017-06-19T09:24:49Z</time>
      </trkpt>
      <trkpt lat="60.232454007491469" lon="5.730846002697945">
        <ele>21.77</ele>
        <time>2017-06-19T09:24:50Z</time>
      </trkpt>
      <trkpt lat="60.232385024428368" lon="5.730563029646874">
        <ele>21.77</ele>
        <time>2017-06-19T09:24:51Z</time>
      </trkpt>
      <trkpt lat="60.232095010578632" lon="5.729512022808194">
        <ele>21.289999999999999</ele>
        <time>2017-06-19T09:24:55Z</time>
      </trkpt>
      <trkpt lat="60.232003983110189" lon="5.729312030598521">
        <ele>21.77</ele>
        <time>2017-06-19T09:24:56Z</time>
      </trkpt>
      <trkpt lat="60.231898035854101" lon="5.729142967611551">
        <ele>21.77</ele>
        <time>2017-06-19T09:24:57Z</time>
      </trkpt>
      <trkpt lat="60.231792004778981" lon="5.728970970958471">
        <ele>22.25</ele>
        <time>2017-06-19T09:24:58Z</time>
      </trkpt>
      <trkpt lat="60.231693014502525" lon="5.728784976527095">
        <ele>20.809999999999999</ele>
        <time>2017-06-19T09:24:59Z</time>
      </trkpt>
      <trkpt lat="60.231603998690844" lon="5.728553971275687">
        <ele>20.32</ele>
        <time>2017-06-19T09:25:00Z</time>
      </trkpt>
      <trkpt lat="60.231524035334587" lon="5.728297987952828">
        <ele>19.359999999999999</ele>
        <time>2017-06-19T09:25:01Z</time>
      </trkpt>
      <trkpt lat="60.231450023129582" lon="5.728032030165196">
        <ele>18.879999999999999</ele>
        <time>2017-06-19T09:25:02Z</time>
      </trkpt>
      <trkpt lat="60.231335023418069" lon="5.727488966658711">
        <ele>18.879999999999999</ele>
        <time>2017-06-19T09:25:04Z</time>
      </trkpt>
      <trkpt lat="60.231305016204715" lon="5.727190990000963">
        <ele>18.879999999999999</ele>
        <time>2017-06-19T09:25:05Z</time>
      </trkpt>
      <trkpt lat="60.231282971799374" lon="5.726887984201312">
        <ele>18.399999999999999</ele>
        <time>2017-06-19T09:25:06Z</time>
      </trkpt>
      <trkpt lat="60.231208959594369" lon="5.724246008321643">
        <ele>16</ele>
        <time>2017-06-19T09:25:15Z</time>
      </trkpt>
      <trkpt lat="60.231183981522918" lon="5.723950965330005">
        <ele>16</ele>
        <time>2017-06-19T09:25:16Z</time>
      </trkpt>
      <trkpt lat="60.231147017329931" lon="5.723653994500637">
        <ele>16</ele>
        <time>2017-06-19T09:25:17Z</time>
      </trkpt>
      <trkpt lat="60.230988012626767" lon="5.721567990258336">
        <ele>15.52</ele>
        <time>2017-06-19T09:25:24Z</time>
      </trkpt>
      <trkpt lat="60.231018019840121" lon="5.721324998885393">
        <ele>15.039999999999999</ele>
        <time>2017-06-19T09:25:25Z</time>
      </trkpt>
      <trkpt lat="60.231078034266829" lon="5.721117965877056">
        <ele>15.039999999999999</ele>
        <time>2017-06-19T09:25:26Z</time>
      </trkpt>
      <trkpt lat="60.231161015108228" lon="5.720933983102441">
        <ele>15.039999999999999</ele>
        <time>2017-06-19T09:25:27Z</time>
      </trkpt>
      <trkpt lat="60.231265034526587" lon="5.720776990056038">
        <ele>15.039999999999999</ele>
        <time>2017-06-19T09:25:28Z</time>
      </trkpt>
      <trkpt lat="60.231383973732591" lon="5.72063097730279">
        <ele>15.039999999999999</ele>
        <time>2017-06-19T09:25:29Z</time>
      </trkpt>
      <trkpt lat="60.231630988419056" lon="5.720311040058732">
        <ele>15.52</ele>
        <time>2017-06-19T09:25:31Z</time>
      </trkpt>
      <trkpt lat="60.232046982273459" lon="5.719593968242407">
        <ele>14.56</ele>
        <time>2017-06-19T09:25:35Z</time>
      </trkpt>
      <trkpt lat="60.232104985043406" lon="5.719397999346256">
        <ele>15.039999999999999</ele>
        <time>2017-06-19T09:25:36Z</time>
      </trkpt>
      <trkpt lat="60.232142033055425" lon="5.719162970781326">
        <ele>15.039999999999999</ele>
        <time>2017-06-19T09:25:37Z</time>
      </trkpt>
      <trkpt lat="60.232160976156592" lon="5.718895001336932">
        <ele>15.039999999999999</ele>
        <time>2017-06-19T09:25:38Z</time>
      </trkpt>
      <trkpt lat="60.232166005298495" lon="5.718597024679184">
        <ele>15.039999999999999</ele>
        <time>2017-06-19T09:25:39Z</time>
      </trkpt>
      <trkpt lat="60.232162987813354" lon="5.718277003616095">
        <ele>15.039999999999999</ele>
        <time>2017-06-19T09:25:40Z</time>
      </trkpt>
      <trkpt lat="60.231995014473796" lon="5.713966023176909">
        <ele>18.879999999999999</ele>
        <time>2017-06-19T09:25:52Z</time>
      </trkpt>
      <trkpt lat="60.231933994218707" lon="5.713249035179615">
        <ele>20.809999999999999</ele>
        <time>2017-06-19T09:25:54Z</time>
      </trkpt>
      <trkpt lat="60.231881020590663" lon="5.712902024388313">
        <ele>21.289999999999999</ele>
        <time>2017-06-19T09:25:55Z</time>
      </trkpt>
      <trkpt lat="60.231813965365291" lon="5.712558031082153">
        <ele>22.25</ele>
        <time>2017-06-19T09:25:56Z</time>
      </trkpt>
      <trkpt lat="60.231447005644441" lon="5.709550017490983">
        <ele>26.57</ele>
        <time>2017-06-19T09:26:04Z</time>
      </trkpt>
      <trkpt lat="60.231222035363317" lon="5.706869987770915">
        <ele>27.050000000000001</ele>
        <time>2017-06-19T09:26:11Z</time>
      </trkpt>
      <trkpt lat="60.23114399984479" lon="5.706520965322852">
        <ele>27.530000000000001</ele>
        <time>2017-06-19T09:26:12Z</time>
      </trkpt>
      <trkpt lat="60.230819033458829" lon="5.705214980989695">
        <ele>30.420000000000002</ele>
        <time>2017-06-19T09:26:16Z</time>
      </trkpt>
      <trkpt lat="60.230720965191722" lon="5.704951034858823">
        <ele>31.859999999999999</ele>
        <time>2017-06-19T09:26:17Z</time>
      </trkpt>
      <trkpt lat="60.230590039864182" lon="5.704733021557331">
        <ele>32.82</ele>
        <time>2017-06-19T09:26:18Z</time>
      </trkpt>
      <trkpt lat="60.230441009625793" lon="5.704548032954335">
        <ele>34.259999999999998</ele>
        <time>2017-06-19T09:26:19Z</time>
      </trkpt>
      <trkpt lat="60.230283010751009" lon="5.704374024644494">
        <ele>35.229999999999997</ele>
        <time>2017-06-19T09:26:20Z</time>
      </trkpt>
      <trkpt lat="60.228663040325046" lon="5.702852038666606">
        <ele>32.340000000000003</ele>
        <time>2017-06-19T09:26:30Z</time>
      </trkpt>
      <trkpt lat="60.228498000651598" lon="5.70277500897646">
        <ele>31.379999999999999</ele>
        <time>2017-06-19T09:26:31Z</time>
      </trkpt>
      <trkpt lat="60.22833296097815" lon="5.702742990106344">
        <ele>30.420000000000002</ele>
        <time>2017-06-19T09:26:32Z</time>
      </trkpt>
      <trkpt lat="60.227876985445619" lon="5.702694039791822">
        <ele>26.57</ele>
        <time>2017-06-19T09:26:35Z</time>
      </trkpt>
      <trkpt lat="60.227748993784189" lon="5.702621033415198">
        <ele>26.09</ele>
        <time>2017-06-19T09:26:36Z</time>
      </trkpt>
      <trkpt lat="60.227640029042959" lon="5.702499998733401">
        <ele>26.57</ele>
        <time>2017-06-19T09:26:37Z</time>
      </trkpt>
      <trkpt lat="60.227550007402897" lon="5.702334037050605">
        <ele>26.57</ele>
        <time>2017-06-19T09:26:38Z</time>
      </trkpt>
      <trkpt lat="60.227481024339795" lon="5.702136978507042">
        <ele>26.57</ele>
        <time>2017-06-19T09:26:39Z</time>
      </trkpt>
      <trkpt lat="60.227440036833286" lon="5.701900022104383">
        <ele>26.57</ele>
        <time>2017-06-19T09:26:40Z</time>
      </trkpt>
      <trkpt lat="60.22742603905499" lon="5.701634986326098">
        <ele>26.57</ele>
        <time>2017-06-19T09:26:41Z</time>
      </trkpt>
      <trkpt lat="60.227440036833286" lon="5.701377997174859">
        <ele>27.050000000000001</ele>
        <time>2017-06-19T09:26:42Z</time>
      </trkpt>
      <trkpt lat="60.227474989369512" lon="5.701127965003252">
        <ele>27.530000000000001</ele>
        <time>2017-06-19T09:26:43Z</time>
      </trkpt>
      <trkpt lat="60.227521006017923" lon="5.700884973630309">
        <ele>28.5</ele>
        <time>2017-06-19T09:26:44Z</time>
      </trkpt>
      <trkpt lat="60.227564005181193" lon="5.700660003349185">
        <ele>28.5</ele>
        <time>2017-06-19T09:26:45Z</time>
      </trkpt>
      <trkpt lat="60.22759904153645" lon="5.700422041118145">
        <ele>29.460000000000001</ele>
        <time>2017-06-19T09:26:46Z</time>
      </trkpt>
      <trkpt lat="60.227610021829605" lon="5.700164968147874">
        <ele>29.940000000000001</ele>
        <time>2017-06-19T09:26:47Z</time>
      </trkpt>
      <trkpt lat="60.227599963545799" lon="5.699890041723847">
        <ele>29.940000000000001</ele>
        <time>2017-06-19T09:26:48Z</time>
      </trkpt>
      <trkpt lat="60.227581020444632" lon="5.699604973196983">
        <ele>29.460000000000001</ele>
        <time>2017-06-19T09:26:49Z</time>
      </trkpt>
      <trkpt lat="60.227569034323096" lon="5.697732958942652">
        <ele>29.940000000000001</ele>
        <time>2017-06-19T09:26:55Z</time>
      </trkpt>
      <trkpt lat="60.227609016001225" lon="5.69742601364851">
        <ele>30.420000000000002</ele>
        <time>2017-06-19T09:26:56Z</time>
      </trkpt>
      <trkpt lat="60.227670036256313" lon="5.697144968435168">
        <ele>30.420000000000002</ele>
        <time>2017-06-19T09:26:57Z</time>
      </trkpt>
      <trkpt lat="60.227740025147796" lon="5.69688898511231">
        <ele>30.899999999999999</ele>
        <time>2017-06-19T09:26:58Z</time>
      </trkpt>
      <trkpt lat="60.2278140373528" lon="5.696641970425844">
        <ele>31.379999999999999</ele>
        <time>2017-06-19T09:26:59Z</time>
      </trkpt>
      <trkpt lat="60.227872040122747" lon="5.696409959346056">
        <ele>31.859999999999999</ele>
        <time>2017-06-19T09:27:00Z</time>
      </trkpt>
      <trkpt lat="60.227894000709057" lon="5.69618197157979">
        <ele>32.340000000000003</ele>
        <time>2017-06-19T09:27:01Z</time>
      </trkpt>
      <trkpt lat="60.227871034294367" lon="5.695951972156763">
        <ele>32.340000000000003</ele>
        <time>2017-06-19T09:27:02Z</time>
      </trkpt>
      <trkpt lat="60.227811019867659" lon="5.695730019360781">
        <ele>32.82</ele>
        <time>2017-06-19T09:27:03Z</time>
      </trkpt>
      <trkpt lat="60.227734996005893" lon="5.695504965260625">
        <ele>32.340000000000003</ele>
        <time>2017-06-19T09:27:04Z</time>
      </trkpt>
      <trkpt lat="60.227201990783215" lon="5.694002006202936">
        <ele>29.460000000000001</ele>
        <time>2017-06-19T09:27:10Z</time>
      </trkpt>
      <trkpt lat="60.227093026041985" lon="5.693824980407953">
        <ele>28.5</ele>
        <time>2017-06-19T09:27:11Z</time>
      </trkpt>
      <trkpt lat="60.226989006623626" lon="5.693690031766892">
        <ele>27.050000000000001</ele>
        <time>2017-06-19T09:27:12Z</time>
      </trkpt>
      <trkpt lat="60.226865960285068" lon="5.693625994026661">
        <ele>25.609999999999999</ele>
        <time>2017-06-19T09:27:13Z</time>
      </trkpt>
      <trkpt lat="60.226726988330483" lon="5.693634040653706">
        <ele>25.609999999999999</ele>
        <time>2017-06-19T09:27:14Z</time>
      </trkpt>
      <trkpt lat="60.226584998890758" lon="5.693704029545188">
        <ele>24.170000000000002</ele>
        <time>2017-06-19T09:27:15Z</time>
      </trkpt>
      <trkpt lat="60.226448038592935" lon="5.693805031478405">
        <ele>23.210000000000001</ele>
        <time>2017-06-19T09:27:16Z</time>
      </trkpt>
      <trkpt lat="60.226317029446363" lon="5.693893963471055">
        <ele>22.25</ele>
        <time>2017-06-19T09:27:17Z</time>
      </trkpt>
      <trkpt lat="60.22618199698627" lon="5.693931011483073">
        <ele>21.77</ele>
        <time>2017-06-19T09:27:18Z</time>
      </trkpt>
      <trkpt lat="60.226041013374925" lon="5.693907961249352">
        <ele>21.289999999999999</ele>
        <time>2017-06-19T09:27:19Z</time>
      </trkpt>
      <trkpt lat="60.225887959823012" lon="5.693836966529489">
        <ele>20.32</ele>
        <time>2017-06-19T09:27:20Z</time>
      </trkpt>
      <trkpt lat="60.225733984261751" lon="5.69375398568809">
        <ele>19.359999999999999</ele>
        <time>2017-06-19T09:27:21Z</time>
      </trkpt>
      <trkpt lat="60.2247229591012" lon="5.693071028217673">
        <ele>12.630000000000001</ele>
        <time>2017-06-19T09:27:28Z</time>
      </trkpt>
      <trkpt lat="60.224627992138267" lon="5.692889979109168">
        <ele>11.67</ele>
        <time>2017-06-19T09:27:29Z</time>
      </trkpt>
      <trkpt lat="60.224558003246784" lon="5.692684035748243">
        <ele>9.75</ele>
        <time>2017-06-19T09:27:30Z</time>
      </trkpt>
      <trkpt lat="60.224521961063147" lon="5.69246300496161">
        <ele>8.789999999999999</ele>
        <time>2017-06-19T09:27:31Z</time>
      </trkpt>
      <trkpt lat="60.224513998255134" lon="5.692228982225061">
        <ele>7.83</ele>
        <time>2017-06-19T09:27:32Z</time>
      </trkpt>
      <trkpt lat="60.224533025175333" lon="5.691960006952286">
        <ele>7.83</ele>
        <time>2017-06-19T09:27:33Z</time>
      </trkpt>
      <trkpt lat="60.224594967439771" lon="5.691674016416073">
        <ele>8.789999999999999</ele>
        <time>2017-06-19T09:27:34Z</time>
      </trkpt>
      <trkpt lat="60.224671997129917" lon="5.691435970366001">
        <ele>8.310000000000001</ele>
        <time>2017-06-19T09:27:35Z</time>
      </trkpt>
      <trkpt lat="60.224768975749612" lon="5.691185016185045">
        <ele>8.789999999999999</ele>
        <time>2017-06-19T09:27:36Z</time>
      </trkpt>
      <trkpt lat="60.22540801204741" lon="5.689582983031869">
        <ele>7.35</ele>
        <time>2017-06-19T09:27:42Z</time>
      </trkpt>
      <trkpt lat="60.225534997880459" lon="5.68934896029532">
        <ele>7.83</ele>
        <time>2017-06-19T09:27:43Z</time>
      </trkpt>
      <trkpt lat="60.225671036168933" lon="5.689136981964111">
        <ele>7.83</ele>
        <time>2017-06-19T09:27:44Z</time>
      </trkpt>
      <trkpt lat="60.225818976759911" lon="5.688945958390832">
        <ele>7.83</ele>
        <time>2017-06-19T09:27:45Z</time>
      </trkpt>
      <trkpt lat="60.225974963977933" lon="5.688786031678319">
        <ele>7.83</ele>
        <time>2017-06-19T09:27:46Z</time>
      </trkpt>
      <trkpt lat="60.226562032476068" lon="5.688207009807229">
        <ele>8.789999999999999</ele>
        <time>2017-06-19T09:27:50Z</time>
      </trkpt>
      <trkpt lat="60.226701004430652" lon="5.688120005652309">
        <ele>8.789999999999999</ele>
        <time>2017-06-19T09:27:51Z</time>
      </trkpt>
      <trkpt lat="60.226843999698758" lon="5.688069965690374">
        <ele>8.310000000000001</ele>
        <time>2017-06-19T09:27:52Z</time>
      </trkpt>
      <trkpt lat="60.226992024108768" lon="5.68808002397418">
        <ele>8.310000000000001</ele>
        <time>2017-06-19T09:27:53Z</time>
      </trkpt>
      <trkpt lat="60.227144993841648" lon="5.688135009258986">
        <ele>8.789999999999999</ele>
        <time>2017-06-19T09:27:54Z</time>
      </trkpt>
      <trkpt lat="60.22730098105967" lon="5.688178008422256">
        <ele>9.75</ele>
        <time>2017-06-19T09:27:55Z</time>
      </trkpt>
      <trkpt lat="60.227464009076357" lon="5.688186977058649">
        <ele>10.23</ele>
        <time>2017-06-19T09:27:56Z</time>
      </trkpt>
      <trkpt lat="60.227623013779521" lon="5.688154036179185">
        <ele>10.23</ele>
        <time>2017-06-19T09:27:57Z</time>
      </trkpt>
      <trkpt lat="60.227785035967827" lon="5.688092010095716">
        <ele>10.710000000000001</ele>
        <time>2017-06-19T09:27:58Z</time>
      </trkpt>
      <trkpt lat="60.227944040670991" lon="5.688001988455653">
        <ele>11.19</ele>
        <time>2017-06-19T09:27:59Z</time>
      </trkpt>
      <trkpt lat="60.228091981261969" lon="5.68788698874414">
        <ele>10.710000000000001</ele>
        <time>2017-06-19T09:28:00Z</time>
      </trkpt>
      <trkpt lat="60.228228019550443" lon="5.687752040103078">
        <ele>9.75</ele>
        <time>2017-06-19T09:28:01Z</time>
      </trkpt>
      <trkpt lat="60.228355005383492" lon="5.687610972672701">
        <ele>10.23</ele>
        <time>2017-06-19T09:28:02Z</time>
      </trkpt>
      <trkpt lat="60.229657972231507" lon="5.686160987243056">
        <ele>8.789999999999999</ele>
        <time>2017-06-19T09:28:13Z</time>
      </trkpt>
      <trkpt lat="60.229757968336344" lon="5.685978010296822">
        <ele>8.789999999999999</ele>
        <time>2017-06-19T09:28:14Z</time>
      </trkpt>
      <trkpt lat="60.229839021340013" lon="5.685757985338569">
        <ele>8.310000000000001</ele>
        <time>2017-06-19T09:28:15Z</time>
      </trkpt>
      <trkpt lat="60.229900041595101" lon="5.68550200201571">
        <ele>8.310000000000001</ele>
        <time>2017-06-19T09:28:16Z</time>
      </trkpt>
      <trkpt lat="60.229953015223145" lon="5.685230009257793">
        <ele>7.83</ele>
        <time>2017-06-19T09:28:17Z</time>
      </trkpt>
      <trkpt lat="60.230619041249156" lon="5.681153973564506">
        <ele>3.98</ele>
        <time>2017-06-19T09:28:32Z</time>
      </trkpt>
      <trkpt lat="60.230536982417107" lon="5.678323991596699">
        <ele>2.06</ele>
        <time>2017-06-19T09:28:42Z</time>
      </trkpt>
      <trkpt lat="60.230232970789075" lon="5.676572006195784">
        <ele>1.58</ele>
        <time>2017-06-19T09:28:50Z</time>
      </trkpt>
      <trkpt lat="60.23015895858407" lon="5.676395986229181">
        <ele>2.06</ele>
        <time>2017-06-19T09:28:51Z</time>
      </trkpt>
      <trkpt lat="60.230068014934659" lon="5.676250979304314">
        <ele>2.06</ele>
        <time>2017-06-19T09:28:52Z</time>
      </trkpt>
      <trkpt lat="60.229970030486584" lon="5.676142014563084">
        <ele>2.06</ele>
        <time>2017-06-19T09:28:53Z</time>
      </trkpt>
      <trkpt lat="60.229859976097941" lon="5.676086023449898">
        <ele>1.58</ele>
        <time>2017-06-19T09:28:54Z</time>
      </trkpt>
      <trkpt lat="60.229746988043189" lon="5.676058027893305">
        <ele>1.58</ele>
        <time>2017-06-19T09:28:55Z</time>
      </trkpt>
      <trkpt lat="60.229627965018153" lon="5.676042018458247">
        <ele>1.58</ele>
        <time>2017-06-19T09:28:56Z</time>
      </trkpt>
      <trkpt lat="60.229272991418839" lon="5.675955014303327">
        <ele>1.58</ele>
        <time>2017-06-19T09:28:59Z</time>
      </trkpt>
      <trkpt lat="60.229164026677608" lon="5.675865998491645">
        <ele>1.58</ele>
        <time>2017-06-19T09:29:00Z</time>
      </trkpt>
      <trkpt lat="60.229067970067263" lon="5.675737001001835">
        <ele>1.58</ele>
        <time>2017-06-19T09:29:01Z</time>
      </trkpt>
      <trkpt lat="60.228987000882626" lon="5.675561986863613">
        <ele>2.06</ele>
        <time>2017-06-19T09:29:02Z</time>
      </trkpt>
      <trkpt lat="60.228923968970776" lon="5.675355037674308">
        <ele>2.54</ele>
        <time>2017-06-19T09:29:03Z</time>
      </trkpt>
      <trkpt lat="60.22886797785759" lon="5.675136018544436">
        <ele>2.54</ele>
        <time>2017-06-19T09:29:04Z</time>
      </trkpt>
      <trkpt lat="60.228730011731386" lon="5.674504023045301">
        <ele>2.54</ele>
        <time>2017-06-19T09:29:07Z</time>
      </trkpt>
      <trkpt lat="60.228703022003174" lon="5.674291960895062">
        <ele>3.02</ele>
        <time>2017-06-19T09:29:08Z</time>
      </trkpt>
      <trkpt lat="60.228681983426213" lon="5.67407201975584">
        <ele>3.02</ele>
        <time>2017-06-19T09:29:09Z</time>
      </trkpt>
      <trkpt lat="60.228668991476297" lon="5.673834979534149">
        <ele>3.02</ele>
        <time>2017-06-19T09:29:10Z</time>
      </trkpt>
      <trkpt lat="60.228663040325046" lon="5.673581007868052">
        <ele>3.5</ele>
        <time>2017-06-19T09:29:11Z</time>
      </trkpt>
      <trkpt lat="60.228668991476297" lon="5.67334002815187">
        <ele>3.5</ele>
        <time>2017-06-19T09:29:12Z</time>
      </trkpt>
      <trkpt lat="60.228685000911355" lon="5.673107011243701">
        <ele>3.5</ele>
        <time>2017-06-19T09:29:13Z</time>
      </trkpt>
      <trkpt lat="60.228708973154426" lon="5.672881035134196">
        <ele>3.5</ele>
        <time>2017-06-19T09:29:14Z</time>
      </trkpt>
      <trkpt lat="60.228740992024541" lon="5.672668972983956">
        <ele>3.5</ele>
        <time>2017-06-19T09:29:15Z</time>
      </trkpt>
      <trkpt lat="60.228778040036559" lon="5.672470992431045">
        <ele>3.98</ele>
        <time>2017-06-19T09:29:16Z</time>
      </trkpt>
      <trkpt lat="60.228821039199829" lon="5.672290027141571">
        <ele>3.98</ele>
        <time>2017-06-19T09:29:17Z</time>
      </trkpt>
      <trkpt lat="60.228870995342731" lon="5.672110989689827">
        <ele>3.98</ele>
        <time>2017-06-19T09:29:18Z</time>
      </trkpt>
      <trkpt lat="60.228926986455917" lon="5.67194402217865">
        <ele>3.98</ele>
        <time>2017-06-19T09:29:19Z</time>
      </trkpt>
      <trkpt lat="60.229258993640542" lon="5.670959986746311">
        <ele>4.94</ele>
        <time>2017-06-19T09:29:24Z</time>
      </trkpt>
      <trkpt lat="60.229306016117334" lon="5.670708026736975">
        <ele>4.94</ele>
        <time>2017-06-19T09:29:25Z</time>
      </trkpt>
      <trkpt lat="60.229521011933684" lon="5.669635981321335">
        <ele>4.46</ele>
        <time>2017-06-19T09:29:29Z</time>
      </trkpt>
      <trkpt lat="60.229594018310308" lon="5.669397013261914">
        <ele>4.46</ele>
        <time>2017-06-19T09:29:30Z</time>
      </trkpt>
      <trkpt lat="60.229716980829835" lon="5.668951012194157">
        <ele>4.94</ele>
        <time>2017-06-19T09:29:32Z</time>
      </trkpt>
      <trkpt lat="60.229743970558047" lon="5.668698968365789">
        <ele>4.94</ele>
        <time>2017-06-19T09:29:33Z</time>
      </trkpt>
      <trkpt lat="60.229756040498614" lon="5.668436028063297">
        <ele>5.42</ele>
        <time>2017-06-19T09:29:34Z</time>
      </trkpt>
      <trkpt lat="60.229759979993105" lon="5.66758300177753">
        <ele>5.91</ele>
        <time>2017-06-19T09:29:37Z</time>
      </trkpt>
      <trkpt lat="60.229733996093273" lon="5.667298017069697">
        <ele>5.91</ele>
        <time>2017-06-19T09:29:38Z</time>
      </trkpt>
      <trkpt lat="60.229693008586764" lon="5.667006997391582">
        <ele>5.42</ele>
        <time>2017-06-19T09:29:39Z</time>
      </trkpt>
      <trkpt lat="60.228994963690639" lon="5.663859006017447">
        <ele>3.98</ele>
        <time>2017-06-19T09:29:50Z</time>
      </trkpt>
      <trkpt lat="60.228048982098699" lon="5.661526992917061">
        <ele>4.46</ele>
        <time>2017-06-19T09:29:59Z</time>
      </trkpt>
      <trkpt lat="60.227410029619932" lon="5.659365970641375">
        <ele>3.98</ele>
        <time>2017-06-19T09:30:06Z</time>
      </trkpt>
      <trkpt lat="60.227151028811932" lon="5.657687997445464">
        <ele>3.5</ele>
        <time>2017-06-19T09:30:11Z</time>
      </trkpt>
      <trkpt lat="60.227082967758179" lon="5.657405024394393">
        <ele>3.5</ele>
        <time>2017-06-19T09:30:12Z</time>
      </trkpt>
      <trkpt lat="60.226995963603258" lon="5.657138982787728">
        <ele>3.5</ele>
        <time>2017-06-19T09:30:13Z</time>
      </trkpt>
      <trkpt lat="60.226686000823975" lon="5.65643004141748">
        <ele>3.02</ele>
        <time>2017-06-19T09:30:16Z</time>
      </trkpt>
      <trkpt lat="60.225412035360932" lon="5.654531037434936">
        <ele>3.98</ele>
        <time>2017-06-19T09:30:25Z</time>
      </trkpt>
      <trkpt lat="60.224258014932275" lon="5.652527008205652">
        <ele>4.46</ele>
        <time>2017-06-19T09:30:33Z</time>
      </trkpt>
      <trkpt lat="60.223393002524972" lon="5.649918979033828">
        <ele>4.94</ele>
        <time>2017-06-19T09:30:41Z</time>
      </trkpt>
      <trkpt lat="60.222586998715997" lon="5.647960966452956">
        <ele>6.87</ele>
        <time>2017-06-19T09:30:48Z</time>
      </trkpt>
      <trkpt lat="60.222438974305987" lon="5.647445982322097">
        <ele>6.39</ele>
        <time>2017-06-19T09:30:50Z</time>
      </trkpt>
      <trkpt lat="60.222345013171434" lon="5.647260993719101">
        <ele>6.39</ele>
        <time>2017-06-19T09:30:51Z</time>
      </trkpt>
      <trkpt lat="60.222232025116682" lon="5.647125961259008">
        <ele>6.39</ele>
        <time>2017-06-19T09:30:52Z</time>
      </trkpt>
      <trkpt lat="60.221982998773456" lon="5.646899985149503">
        <ele>7.83</ele>
        <time>2017-06-19T09:30:54Z</time>
      </trkpt>
      <trkpt lat="60.221860036253929" lon="5.646734023466706">
        <ele>8.310000000000001</ele>
        <time>2017-06-19T09:30:55Z</time>
      </trkpt>
      <trkpt lat="60.22149701602757" lon="5.646156007423997">
        <ele>10.23</ele>
        <time>2017-06-19T09:30:58Z</time>
      </trkpt>
      <trkpt lat="60.221365001052618" lon="5.646005971357226">
        <ele>10.710000000000001</ele>
        <time>2017-06-19T09:30:59Z</time>
      </trkpt>
      <trkpt lat="60.221228040754795" lon="5.645887032151222">
        <ele>11.19</ele>
        <time>2017-06-19T09:31:00Z</time>
      </trkpt>
      <trkpt lat="60.221086973324418" lon="5.645785024389625">
        <ele>11.19</ele>
        <time>2017-06-19T09:31:01Z</time>
      </trkpt>
      <trkpt lat="60.220963004976511" lon="5.645655021071434">
        <ele>11.19</ele>
        <time>2017-06-19T09:31:02Z</time>
      </trkpt>
      <trkpt lat="60.220848005264997" lon="5.645453017205">
        <ele>11.19</ele>
        <time>2017-06-19T09:31:03Z</time>
      </trkpt>
      <trkpt lat="60.220757983624935" lon="5.645220000296831">
        <ele>11.19</ele>
        <time>2017-06-19T09:31:04Z</time>
      </trkpt>
      <trkpt lat="60.220669973641634" lon="5.644956976175308">
        <ele>11.67</ele>
        <time>2017-06-19T09:31:05Z</time>
      </trkpt>
      <trkpt lat="60.219764979556203" lon="5.64227401278913">
        <ele>10.710000000000001</ele>
        <time>2017-06-19T09:31:15Z</time>
      </trkpt>
      <trkpt lat="60.219587031751871" lon="5.641913004219532">
        <ele>10.23</ele>
        <time>2017-06-19T09:31:17Z</time>
      </trkpt>
      <trkpt lat="60.219474965706468" lon="5.641786018386483">
        <ele>9.27</ele>
        <time>2017-06-19T09:31:18Z</time>
      </trkpt>
      <trkpt lat="60.219360971823335" lon="5.64169499091804">
        <ele>8.789999999999999</ele>
        <time>2017-06-19T09:31:19Z</time>
      </trkpt>
      <trkpt lat="60.219239015132189" lon="5.641634976491332">
        <ele>8.789999999999999</ele>
        <time>2017-06-19T09:31:20Z</time>
      </trkpt>
      <trkpt lat="60.219110017642379" lon="5.641588037833571">
        <ele>8.310000000000001</ele>
        <time>2017-06-19T09:31:21Z</time>
      </trkpt>
      <trkpt lat="60.21885696798563" lon="5.641446970403194">
        <ele>7.83</ele>
        <time>2017-06-19T09:31:23Z</time>
      </trkpt>
      <trkpt lat="60.218754038214684" lon="5.641339011490345">
        <ele>7.35</ele>
        <time>2017-06-19T09:31:24Z</time>
      </trkpt>
      <trkpt lat="60.218660999089479" lon="5.64122099429369">
        <ele>7.35</ele>
        <time>2017-06-19T09:31:25Z</time>
      </trkpt>
      <trkpt lat="60.218503000214696" lon="5.640923017635942">
        <ele>10.710000000000001</ele>
        <time>2017-06-19T09:31:27Z</time>
      </trkpt>
      <trkpt lat="60.218392023816705" lon="5.640840958803892">
        <ele>10.23</ele>
        <time>2017-06-19T09:31:28Z</time>
      </trkpt>
      <trkpt lat="60.218270989134908" lon="5.640797959640622">
        <ele>10.710000000000001</ele>
        <time>2017-06-19T09:31:29Z</time>
      </trkpt>
      <trkpt lat="60.218133023008704" lon="5.64077096991241">
        <ele>10.710000000000001</ele>
        <time>2017-06-19T09:31:30Z</time>
      </trkpt>
      <trkpt lat="60.217991033568978" lon="5.64077197574079">
        <ele>11.19</ele>
        <time>2017-06-19T09:31:31Z</time>
      </trkpt>
      <trkpt lat="60.217832028865814" lon="5.64081396907568">
        <ele>10.23</ele>
        <time>2017-06-19T09:31:32Z</time>
      </trkpt>
      <trkpt lat="60.217689033597708" lon="5.64092100597918">
        <ele>10.710000000000001</ele>
        <time>2017-06-19T09:31:33Z</time>
      </trkpt>
      <trkpt lat="60.217555006965995" lon="5.641055032610893">
        <ele>10.710000000000001</ele>
        <time>2017-06-19T09:31:34Z</time>
      </trkpt>
      <trkpt lat="60.21743698976934" lon="5.641206996515393">
        <ele>11.19</ele>
        <time>2017-06-19T09:31:35Z</time>
      </trkpt>
      <trkpt lat="60.217336993664503" lon="5.641378993168473">
        <ele>12.630000000000001</ele>
        <time>2017-06-19T09:31:36Z</time>
      </trkpt>
      <trkpt lat="60.21724596619606" lon="5.641594994813204">
        <ele>12.15</ele>
        <time>2017-06-19T09:31:37Z</time>
      </trkpt>
      <trkpt lat="60.217185029760003" lon="5.641835974529386">
        <ele>13.119999999999999</ele>
        <time>2017-06-19T09:31:38Z</time>
      </trkpt>
      <trkpt lat="60.217140018939972" lon="5.642086006700993">
        <ele>12.630000000000001</ele>
        <time>2017-06-19T09:31:39Z</time>
      </trkpt>
      <trkpt lat="60.21709299646318" lon="5.642306031659246">
        <ele>12.630000000000001</ele>
        <time>2017-06-19T09:31:40Z</time>
      </trkpt>
      <trkpt lat="60.217013033106923" lon="5.642478028312326">
        <ele>11.67</ele>
        <time>2017-06-19T09:31:41Z</time>
      </trkpt>
      <trkpt lat="60.21692200563848" lon="5.642603002488613">
        <ele>12.15</ele>
        <time>2017-06-19T09:31:42Z</time>
      </trkpt>
      <trkpt lat="60.216823015362024" lon="5.642655976116657">
        <ele>12.15</ele>
        <time>2017-06-19T09:31:43Z</time>
      </trkpt>
      <trkpt lat="60.216722013428807" lon="5.642652036622167">
        <ele>12.630000000000001</ele>
        <time>2017-06-19T09:31:44Z</time>
      </trkpt>
      <trkpt lat="60.216609025374055" lon="5.642600990831852">
        <ele>12.630000000000001</ele>
        <time>2017-06-19T09:31:45Z</time>
      </trkpt>
      <trkpt lat="60.216487990692258" lon="5.64253100194037">
        <ele>13.119999999999999</ele>
        <time>2017-06-19T09:31:46Z</time>
      </trkpt>
      <trkpt lat="60.215981975197792" lon="5.642157001420856">
        <ele>12.15</ele>
        <time>2017-06-19T09:31:50Z</time>
      </trkpt>
      <trkpt lat="60.215876027941704" lon="5.6420389842242">
        <ele>11.67</ele>
        <time>2017-06-19T09:31:51Z</time>
      </trkpt>
      <trkpt lat="60.215791035443544" lon="5.641864975914359">
        <ele>13.119999999999999</ele>
        <time>2017-06-19T09:31:52Z</time>
      </trkpt>
      <trkpt lat="60.215710988268256" lon="5.641654003411531">
        <ele>13.119999999999999</ele>
        <time>2017-06-19T09:31:53Z</time>
      </trkpt>
      <trkpt lat="60.215644016861916" lon="5.641406988725066">
        <ele>12.630000000000001</ele>
        <time>2017-06-19T09:31:54Z</time>
      </trkpt>
      <trkpt lat="60.215582996606827" lon="5.641138013452292">
        <ele>12.630000000000001</ele>
        <time>2017-06-19T09:31:55Z</time>
      </trkpt>
      <trkpt lat="60.215277979150414" lon="5.640059011057019">
        <ele>9.75</ele>
        <time>2017-06-19T09:31:59Z</time>
      </trkpt>
      <trkpt lat="60.215188041329384" lon="5.639836974442005">
        <ele>11.19</ele>
        <time>2017-06-19T09:32:00Z</time>
      </trkpt>
      <trkpt lat="60.2150749694556" lon="5.639648968353868">
        <ele>11.67</ele>
        <time>2017-06-19T09:32:01Z</time>
      </trkpt>
      <trkpt lat="60.21494303829968" lon="5.639503039419651">
        <ele>11.67</ele>
        <time>2017-06-19T09:32:02Z</time>
      </trkpt>
      <trkpt lat="60.214800965040922" lon="5.639405976980925">
        <ele>11.19</ele>
        <time>2017-06-19T09:32:03Z</time>
      </trkpt>
      <trkpt lat="60.214653024449944" lon="5.639335988089442">
        <ele>10.710000000000001</ele>
        <time>2017-06-19T09:32:04Z</time>
      </trkpt>
      <trkpt lat="60.214498965069652" lon="5.639273962005973">
        <ele>10.710000000000001</ele>
        <time>2017-06-19T09:32:05Z</time>
      </trkpt>
      <trkpt lat="60.213456004858017" lon="5.638840030878782">
        <ele>7.83</ele>
        <time>2017-06-19T09:32:12Z</time>
      </trkpt>
      <trkpt lat="60.213309992104769" lon="5.638825027272105">
        <ele>8.310000000000001</ele>
        <time>2017-06-19T09:32:13Z</time>
      </trkpt>
      <trkpt lat="60.21316297352314" lon="5.638839025050402">
        <ele>8.789999999999999</ele>
        <time>2017-06-19T09:32:14Z</time>
      </trkpt>
      <trkpt lat="60.213017966598272" lon="5.638839025050402">
        <ele>9.27</ele>
        <time>2017-06-19T09:32:15Z</time>
      </trkpt>
      <trkpt lat="60.212873965501785" lon="5.638787979260087">
        <ele>9.75</ele>
        <time>2017-06-19T09:32:16Z</time>
      </trkpt>
      <trkpt lat="60.212738011032343" lon="5.638684965670109">
        <ele>10.23</ele>
        <time>2017-06-19T09:32:17Z</time>
      </trkpt>
      <trkpt lat="60.212605996057391" lon="5.638542976230383">
        <ele>11.19</ele>
        <time>2017-06-19T09:32:18Z</time>
      </trkpt>
      <trkpt lat="60.212470963597298" lon="5.638383971527219">
        <ele>11.19</ele>
        <time>2017-06-19T09:32:19Z</time>
      </trkpt>
      <trkpt lat="60.210556033998728" lon="5.635903012007475">
        <ele>15.52</ele>
        <time>2017-06-19T09:32:33Z</time>
      </trkpt>
      <trkpt lat="60.210000984370708" lon="5.634858962148428">
        <ele>17.440000000000001</ele>
        <time>2017-06-19T09:32:38Z</time>
      </trkpt>
      <trkpt lat="60.209877016022801" lon="5.634704986587167">
        <ele>17.920000000000002</ele>
        <time>2017-06-19T09:32:39Z</time>
      </trkpt>
      <trkpt lat="60.209737038239837" lon="5.634593004360795">
        <ele>18.399999999999999</ele>
        <time>2017-06-19T09:32:40Z</time>
      </trkpt>
      <trkpt lat="60.209588008001447" lon="5.63449895940721">
        <ele>18.879999999999999</ele>
        <time>2017-06-19T09:32:41Z</time>
      </trkpt>
      <trkpt lat="60.209434032440186" lon="5.63441296108067">
        <ele>19.359999999999999</ele>
        <time>2017-06-19T09:32:42Z</time>
      </trkpt>
      <trkpt lat="60.208163000643253" lon="5.633679963648319">
        <ele>21.77</ele>
        <time>2017-06-19T09:32:50Z</time>
      </trkpt>
      <trkpt lat="60.208017993718386" lon="5.633507966995239">
        <ele>21.77</ele>
        <time>2017-06-19T09:32:51Z</time>
      </trkpt>
      <trkpt lat="60.206933040171862" lon="5.631952034309506">
        <ele>24.649999999999999</ele>
        <time>2017-06-19T09:32:59Z</time>
      </trkpt>
      <trkpt lat="60.206789961084723" lon="5.631814990192652">
        <ele>24.649999999999999</ele>
        <time>2017-06-19T09:33:00Z</time>
      </trkpt>
      <trkpt lat="60.205539967864752" lon="5.630962969735265">
        <ele>26.09</ele>
        <time>2017-06-19T09:33:08Z</time>
      </trkpt>
      <trkpt lat="60.205373000353575" lon="5.630930028855801">
        <ele>26.09</ele>
        <time>2017-06-19T09:33:09Z</time>
      </trkpt>
      <trkpt lat="60.204132981598377" lon="5.630995994433761">
        <ele>25.609999999999999</ele>
        <time>2017-06-19T09:33:17Z</time>
      </trkpt>
      <trkpt lat="60.204045977443457" lon="5.630933968350291">
        <ele>25.609999999999999</ele>
        <time>2017-06-19T09:33:18Z</time>
      </trkpt>
      <trkpt lat="60.203972971066833" lon="5.630811005830765">
        <ele>26.09</ele>
        <time>2017-06-19T09:33:19Z</time>
      </trkpt>
      <trkpt lat="60.203915974125266" lon="5.630625011399388">
        <ele>25.609999999999999</ele>
        <time>2017-06-19T09:33:20Z</time>
      </trkpt>
      <trkpt lat="60.20388001576066" lon="5.63039199449122">
        <ele>25.129999999999999</ele>
        <time>2017-06-19T09:33:21Z</time>
      </trkpt>
      <trkpt lat="60.20385998301208" lon="5.630126958712935">
        <ele>25.129999999999999</ele>
        <time>2017-06-19T09:33:22Z</time>
      </trkpt>
      <trkpt lat="60.203817989677191" lon="5.629868963733316">
        <ele>25.609999999999999</ele>
        <time>2017-06-19T09:33:23Z</time>
      </trkpt>
      <trkpt lat="60.203754035755992" lon="5.62966201454401">
        <ele>25.129999999999999</ele>
        <time>2017-06-19T09:33:24Z</time>
      </trkpt>
      <trkpt lat="60.203659990802407" lon="5.629508038982749">
        <ele>24.649999999999999</ele>
        <time>2017-06-19T09:33:25Z</time>
      </trkpt>
      <trkpt lat="60.203539961948991" lon="5.629422962665558">
        <ele>23.210000000000001</ele>
        <time>2017-06-19T09:33:26Z</time>
      </trkpt>
      <trkpt lat="60.203412976115942" lon="5.629396978765726">
        <ele>23.210000000000001</ele>
        <time>2017-06-19T09:33:27Z</time>
      </trkpt>
      <trkpt lat="60.203284984454513" lon="5.629394967108965">
        <ele>23.210000000000001</ele>
        <time>2017-06-19T09:33:28Z</time>
      </trkpt>
      <trkpt lat="60.203049033880234" lon="5.629288014024496">
        <ele>23.690000000000001</ele>
        <time>2017-06-19T09:33:30Z</time>
      </trkpt>
      <trkpt lat="60.202947026118636" lon="5.62914895825088">
        <ele>24.170000000000002</ele>
        <time>2017-06-19T09:33:31Z</time>
      </trkpt>
      <trkpt lat="60.20284803584218" lon="5.62895298935473">
        <ele>24.649999999999999</ele>
        <time>2017-06-19T09:33:32Z</time>
      </trkpt>
      <trkpt lat="60.202757008373737" lon="5.628723995760083">
        <ele>25.609999999999999</ele>
        <time>2017-06-19T09:33:33Z</time>
      </trkpt>
      <trkpt lat="60.202679978683591" lon="5.62848100438714">
        <ele>27.050000000000001</ele>
        <time>2017-06-19T09:33:34Z</time>
      </trkpt>
      <trkpt lat="60.202599009498954" lon="5.628236001357436">
        <ele>28.02</ele>
        <time>2017-06-19T09:33:35Z</time>
      </trkpt>
      <trkpt lat="60.202457020059228" lon="5.627697966992855">
        <ele>29.940000000000001</ele>
        <time>2017-06-19T09:33:37Z</time>
      </trkpt>
      <trkpt lat="60.202414020895958" lon="5.627394961193204">
        <ele>31.859999999999999</ele>
        <time>2017-06-19T09:33:38Z</time>
      </trkpt>
      <trkpt lat="60.202241018414497" lon="5.626156032085419">
        <ele>36.670000000000002</ele>
        <time>2017-06-19T09:33:42Z</time>
      </trkpt>
      <trkpt lat="60.202171029523015" lon="5.625868029892445">
        <ele>38.109999999999999</ele>
        <time>2017-06-19T09:33:43Z</time>
      </trkpt>
      <trkpt lat="60.202086959034204" lon="5.625607017427683">
        <ele>39.07</ele>
        <time>2017-06-19T09:33:44Z</time>
      </trkpt>
      <trkpt lat="60.201588990166783" lon="5.624287035316229">
        <ele>46.759999999999998</ele>
        <time>2017-06-19T09:33:50Z</time>
      </trkpt>
      <trkpt lat="60.201535010710359" lon="5.624057035893202">
        <ele>48.200000000000003</ele>
        <time>2017-06-19T09:33:51Z</time>
      </trkpt>
      <trkpt lat="60.201487988233566" lon="5.623819995671511">
        <ele>49.159999999999997</ele>
        <time>2017-06-19T09:33:52Z</time>
      </trkpt>
      <trkpt lat="60.201400984078646" lon="5.623349016532302">
        <ele>51.57</ele>
        <time>2017-06-19T09:33:54Z</time>
      </trkpt>
      <trkpt lat="60.201343987137079" lon="5.623123040422797">
        <ele>52.049999999999997</ele>
        <time>2017-06-19T09:33:55Z</time>
      </trkpt>
      <trkpt lat="60.201276009902358" lon="5.62291600741446">
        <ele>53.490000000000002</ele>
        <time>2017-06-19T09:33:56Z</time>
      </trkpt>
      <trkpt lat="60.201200991868973" lon="5.622726995497942">
        <ele>54.450000000000003</ele>
        <time>2017-06-19T09:33:57Z</time>
      </trkpt>
      <trkpt lat="60.201124968007207" lon="5.622535971924663">
        <ele>55.890000000000001</ele>
        <time>2017-06-19T09:33:58Z</time>
      </trkpt>
      <trkpt lat="60.20106503739953" lon="5.622320976108313">
        <ele>56.859999999999999</ele>
        <time>2017-06-19T09:33:59Z</time>
      </trkpt>
      <trkpt lat="60.201033018529415" lon="5.622091982513666">
        <ele>58.780000000000001</ele>
        <time>2017-06-19T09:34:00Z</time>
      </trkpt>
      <trkpt lat="60.201027989387512" lon="5.621853014454246">
        <ele>60.219999999999999</ele>
        <time>2017-06-19T09:34:01Z</time>
      </trkpt>
      <trkpt lat="60.201042992994189" lon="5.621608011424542">
        <ele>61.659999999999997</ele>
        <time>2017-06-19T09:34:02Z</time>
      </trkpt>
      <trkpt lat="60.20106503739953" lon="5.621360996738076">
        <ele>62.619999999999997</ele>
        <time>2017-06-19T09:34:03Z</time>
      </trkpt>
      <trkpt lat="60.201078029349446" lon="5.621106019243598">
        <ele>64.549999999999997</ele>
        <time>2017-06-19T09:34:04Z</time>
      </trkpt>
      <trkpt lat="60.201073000207543" lon="5.62085498124361">
        <ele>65.989999999999995</ele>
        <time>2017-06-19T09:34:05Z</time>
      </trkpt>
      <trkpt lat="60.201046010479331" lon="5.620606960728765">
        <ele>67.430000000000007</ele>
        <time>2017-06-19T09:34:06Z</time>
      </trkpt>
      <trkpt lat="60.201006028801203" lon="5.62035801820457">
        <ele>68.870000000000005</ele>
        <time>2017-06-19T09:34:07Z</time>
      </trkpt>
      <trkpt lat="60.200956994667649" lon="5.62010102905333">
        <ele>69.829999999999998</ele>
        <time>2017-06-19T09:34:08Z</time>
      </trkpt>
      <trkpt lat="60.200595986098051" lon="5.618587005883455">
        <ele>75.599999999999994</ele>
        <time>2017-06-19T09:34:16Z</time>
      </trkpt>
      <trkpt lat="60.20018401555717" lon="5.617139032110572">
        <ele>75.120000000000005</ele>
        <time>2017-06-19T09:34:24Z</time>
      </trkpt>
      <trkpt lat="60.200093993917108" lon="5.616941973567009">
        <ele>74.159999999999997</ele>
        <time>2017-06-19T09:34:25Z</time>
      </trkpt>
      <trkpt lat="60.199986035004258" lon="5.616766959428787">
        <ele>73.200000000000003</ele>
        <time>2017-06-19T09:34:26Z</time>
      </trkpt>
      <trkpt lat="60.199865000322461" lon="5.616611978039146">
        <ele>72.719999999999999</ele>
        <time>2017-06-19T09:34:27Z</time>
      </trkpt>
      <trkpt lat="60.19973399117589" lon="5.616492033004761">
        <ele>72.239999999999995</ele>
        <time>2017-06-19T09:34:28Z</time>
      </trkpt>
      <trkpt lat="60.199594013392925" lon="5.616402011364698">
        <ele>71.269999999999996</ele>
        <time>2017-06-19T09:34:29Z</time>
      </trkpt>
      <trkpt lat="60.199451018124819" lon="5.616347026079893">
        <ele>70.790000000000006</ele>
        <time>2017-06-19T09:34:30Z</time>
      </trkpt>
      <trkpt lat="60.19930399954319" lon="5.616310983896256">
        <ele>69.829999999999998</ele>
        <time>2017-06-19T09:34:31Z</time>
      </trkpt>
      <trkpt lat="60.197954010218382" lon="5.615992974489927">
        <ele>65.510000000000005</ele>
        <time>2017-06-19T09:34:40Z</time>
      </trkpt>
      <trkpt lat="60.197826018556952" lon="5.615903958678246">
        <ele>65.030000000000001</ele>
        <time>2017-06-19T09:34:41Z</time>
      </trkpt>
      <trkpt lat="60.197700038552284" lon="5.615779990330339">
        <ele>64.069999999999993</ele>
        <time>2017-06-19T09:34:42Z</time>
      </trkpt>
      <trkpt lat="60.19758403301239" lon="5.615617968142033">
        <ele>63.100000000000001</ele>
        <time>2017-06-19T09:34:43Z</time>
      </trkpt>
      <trkpt lat="60.197473978623748" lon="5.615423005074263">
        <ele>62.619999999999997</ele>
        <time>2017-06-19T09:34:44Z</time>
      </trkpt>
      <trkpt lat="60.197374988347292" lon="5.615198034793139">
        <ele>61.659999999999997</ele>
        <time>2017-06-19T09:34:45Z</time>
      </trkpt>
      <trkpt lat="60.197286978363991" lon="5.614954959601164">
        <ele>60.700000000000003</ele>
        <time>2017-06-19T09:34:46Z</time>
      </trkpt>
      <trkpt lat="60.197208020836115" lon="5.614701993763447">
        <ele>60.219999999999999</ele>
        <time>2017-06-19T09:34:47Z</time>
      </trkpt>
      <trkpt lat="60.197140965610743" lon="5.614434024319053">
        <ele>59.740000000000002</ele>
        <time>2017-06-19T09:34:48Z</time>
      </trkpt>
      <trkpt lat="60.197084974497557" lon="5.614155996590853">
        <ele>59.740000000000002</ele>
        <time>2017-06-19T09:34:49Z</time>
      </trkpt>
      <trkpt lat="60.197054967284203" lon="5.61389003880322">
        <ele>60.219999999999999</ele>
        <time>2017-06-19T09:34:50Z</time>
      </trkpt>
      <trkpt lat="60.197049016132951" lon="5.613630032166839">
        <ele>60.219999999999999</ele>
        <time>2017-06-19T09:34:51Z</time>
      </trkpt>
      <trkpt lat="60.19706703722477" lon="5.613381005823612">
        <ele>59.740000000000002</ele>
        <time>2017-06-19T09:34:52Z</time>
      </trkpt>
      <trkpt lat="60.197102995589375" lon="5.613153018057346">
        <ele>59.259999999999998</ele>
        <time>2017-06-19T09:34:53Z</time>
      </trkpt>
      <trkpt lat="60.19715596921742" lon="5.612933998927474">
        <ele>58.780000000000001</ele>
        <time>2017-06-19T09:34:54Z</time>
      </trkpt>
      <trkpt lat="60.197225958108902" lon="5.612726965919137">
        <ele>58.299999999999997</ele>
        <time>2017-06-19T09:34:55Z</time>
      </trkpt>
      <trkpt lat="60.197310028597713" lon="5.612527979537845">
        <ele>57.340000000000003</ele>
        <time>2017-06-19T09:34:56Z</time>
      </trkpt>
      <trkpt lat="60.197398038581014" lon="5.61232496984303">
        <ele>56.369999999999997</ele>
        <time>2017-06-19T09:34:57Z</time>
      </trkpt>
      <trkpt lat="60.197483031079173" lon="5.61210704036057">
        <ele>55.409999999999997</ele>
        <time>2017-06-19T09:34:58Z</time>
      </trkpt>
      <trkpt lat="60.197554025799036" lon="5.611862037330866">
        <ele>54.450000000000003</ele>
        <time>2017-06-19T09:34:59Z</time>
      </trkpt>
      <trkpt lat="60.197608005255461" lon="5.611589038744569">
        <ele>53.009999999999998</ele>
        <time>2017-06-19T09:35:00Z</time>
      </trkpt>
      <trkpt lat="60.197646981105208" lon="5.611305981874466">
        <ele>51.57</ele>
        <time>2017-06-19T09:35:01Z</time>
      </trkpt>
      <trkpt lat="60.197673970833421" lon="5.611020997166634">
        <ele>50.130000000000003</ele>
        <time>2017-06-19T09:35:02Z</time>
      </trkpt>
      <trkpt lat="60.197696015238762" lon="5.61073400080204">
        <ele>49.649999999999999</ele>
        <time>2017-06-19T09:35:03Z</time>
      </trkpt>
      <trkpt lat="60.197843033820391" lon="5.609339000657201">
        <ele>45.799999999999997</ele>
        <time>2017-06-19T09:35:08Z</time>
      </trkpt>
      <trkpt lat="60.197912016883492" lon="5.609086034819484">
        <ele>44.840000000000003</ele>
        <time>2017-06-19T09:35:09Z</time>
      </trkpt>
      <trkpt lat="60.198000026866794" lon="5.60884396545589">
        <ele>43.399999999999999</ele>
        <time>2017-06-19T09:35:10Z</time>
      </trkpt>
      <trkpt lat="60.198103962466121" lon="5.608617989346385">
        <ele>41.950000000000003</ele>
        <time>2017-06-19T09:35:11Z</time>
      </trkpt>
      <trkpt lat="60.198220973834395" lon="5.608415985479951">
        <ele>40.509999999999998</ele>
        <time>2017-06-19T09:35:12Z</time>
      </trkpt>
      <trkpt lat="60.198353994637728" lon="5.608230996876955">
        <ele>39.549999999999997</ele>
        <time>2017-06-19T09:35:13Z</time>
      </trkpt>
      <trkpt lat="60.198491960763931" lon="5.60804801993072">
        <ele>38.109999999999999</ele>
        <time>2017-06-19T09:35:14Z</time>
      </trkpt>
      <trkpt lat="60.199463004246354" lon="5.606848988682032">
        <ele>29.940000000000001</ele>
        <time>2017-06-19T09:35:21Z</time>
      </trkpt>
      <trkpt lat="60.199576998129487" lon="5.606640027835965">
        <ele>28.98</ele>
        <time>2017-06-19T09:35:22Z</time>
      </trkpt>
      <trkpt lat="60.199780007824302" lon="5.606162007898092">
        <ele>27.050000000000001</ele>
        <time>2017-06-19T09:35:24Z</time>
      </trkpt>
      <trkpt lat="60.199863994494081" lon="5.605897977948189">
        <ele>25.609999999999999</ele>
        <time>2017-06-19T09:35:25Z</time>
      </trkpt>
      <trkpt lat="60.199930965900421" lon="5.605622967705131">
        <ele>24.649999999999999</ele>
        <time>2017-06-19T09:35:26Z</time>
      </trkpt>
      <trkpt lat="60.199981005862355" lon="5.605331026017666">
        <ele>23.210000000000001</ele>
        <time>2017-06-19T09:35:27Z</time>
      </trkpt>
      <trkpt lat="60.200018975883722" lon="5.605031037703157">
        <ele>22.25</ele>
        <time>2017-06-19T09:35:28Z</time>
      </trkpt>
      <trkpt lat="60.200040014460683" lon="5.604729037731886">
        <ele>21.289999999999999</ele>
        <time>2017-06-19T09:35:29Z</time>
      </trkpt>
      <trkpt lat="60.200045965611935" lon="5.604419996961951">
        <ele>19.84</ele>
        <time>2017-06-19T09:35:30Z</time>
      </trkpt>
      <trkpt lat="60.200042026117444" lon="5.604113973677158">
        <ele>18.879999999999999</ele>
        <time>2017-06-19T09:35:31Z</time>
      </trkpt>
      <trkpt lat="60.200030039995909" lon="5.603818008676171">
        <ele>17.440000000000001</ele>
        <time>2017-06-19T09:35:32Z</time>
      </trkpt>
      <trkpt lat="60.19996901974082" lon="5.602080021053553">
        <ele>12.630000000000001</ele>
        <time>2017-06-19T09:35:38Z</time>
      </trkpt>
      <trkpt lat="60.199993997812271" lon="5.601813979446888">
        <ele>12.15</ele>
        <time>2017-06-19T09:35:39Z</time>
      </trkpt>
      <trkpt lat="60.200040014460683" lon="5.601556990295649">
        <ele>12.15</ele>
        <time>2017-06-19T09:35:40Z</time>
      </trkpt>
      <trkpt lat="60.200100028887391" lon="5.601319028064609">
        <ele>11.67</ele>
        <time>2017-06-19T09:35:41Z</time>
      </trkpt>
      <trkpt lat="60.200171023607254" lon="5.601094979792833">
        <ele>11.67</ele>
        <time>2017-06-19T09:35:42Z</time>
      </trkpt>
      <trkpt lat="60.200246963649988" lon="5.600877972319722">
        <ele>11.67</ele>
        <time>2017-06-19T09:35:43Z</time>
      </trkpt>
      <trkpt lat="60.201472984626889" lon="5.597841963171959">
        <ele>3.02</ele>
        <time>2017-06-19T09:35:57Z</time>
      </trkpt>
      <trkpt lat="60.201594019308686" lon="5.597684970125556">
        <ele>3.5</ele>
        <time>2017-06-19T09:35:58Z</time>
      </trkpt>
      <trkpt lat="60.201714970171452" lon="5.597550021484494">
        <ele>3.98</ele>
        <time>2017-06-19T09:35:59Z</time>
      </trkpt>
      <trkpt lat="60.201855031773448" lon="5.59745698235929">
        <ele>3.98</ele>
        <time>2017-06-19T09:36:00Z</time>
      </trkpt>
      <trkpt lat="60.202014958485961" lon="5.597406020388007">
        <ele>4.46</ele>
        <time>2017-06-19T09:36:01Z</time>
      </trkpt>
      <trkpt lat="60.202173041179776" lon="5.597379030659795">
        <ele>4.46</ele>
        <time>2017-06-19T09:36:02Z</time>
      </trkpt>
      <trkpt lat="60.202328022569418" lon="5.597383975982666">
        <ele>5.91</ele>
        <time>2017-06-19T09:36:03Z</time>
      </trkpt>
      <trkpt lat="60.202481998130679" lon="5.597396967932582">
        <ele>6.87</ele>
        <time>2017-06-19T09:36:04Z</time>
      </trkpt>
      <trkpt lat="60.20293403416872" lon="5.597387999296188">
        <ele>8.310000000000001</ele>
        <time>2017-06-19T09:36:07Z</time>
      </trkpt>
      <trkpt lat="60.203067976981401" lon="5.597333014011383">
        <ele>8.310000000000001</ele>
        <time>2017-06-19T09:36:08Z</time>
      </trkpt>
      <trkpt lat="60.203196974471211" lon="5.597221031785011">
        <ele>8.310000000000001</ele>
        <time>2017-06-19T09:36:09Z</time>
      </trkpt>
      <trkpt lat="60.203313985839486" lon="5.597077030688524">
        <ele>8.789999999999999</ele>
        <time>2017-06-19T09:36:10Z</time>
      </trkpt>
      <trkpt lat="60.203424040228128" lon="5.596911991015077">
        <ele>8.310000000000001</ele>
        <time>2017-06-19T09:36:11Z</time>
      </trkpt>
      <trkpt lat="60.203518001362681" lon="5.596730019897223">
        <ele>8.310000000000001</ele>
        <time>2017-06-19T09:36:12Z</time>
      </trkpt>
      <trkpt lat="60.203597964718938" lon="5.596528016030788">
        <ele>7.83</ele>
        <time>2017-06-19T09:36:13Z</time>
      </trkpt>
      <trkpt lat="60.203635012730956" lon="5.596345961093903">
        <ele>7.83</ele>
        <time>2017-06-19T09:36:14Z</time>
      </trkpt>
      <trkpt lat="60.203645993024111" lon="5.596216963604093">
        <ele>7.35</ele>
        <time>2017-06-19T09:36:15Z</time>
      </trkpt>
      <trkpt lat="60.203656973317266" lon="5.59612300246954">
        <ele>6.39</ele>
        <time>2017-06-19T09:36:16Z</time>
      </trkpt>
      <trkpt lat="60.203881021589041" lon="5.59487602673471">
        <ele>3.98</ele>
        <time>2017-06-19T09:36:24Z</time>
      </trkpt>
      <trkpt lat="60.204011024907231" lon="5.594499008730054">
        <ele>3.5</ele>
        <time>2017-06-19T09:36:26Z</time>
      </trkpt>
      <trkpt lat="60.204091994091868" lon="5.594327012076974">
        <ele>3.02</ele>
        <time>2017-06-19T09:36:27Z</time>
      </trkpt>
      <trkpt lat="60.204186961054802" lon="5.594182005152106">
        <ele>2.54</ele>
        <time>2017-06-19T09:36:28Z</time>
      </trkpt>
      <trkpt lat="60.204290980473161" lon="5.594057030975819">
        <ele>2.06</ele>
        <time>2017-06-19T09:36:29Z</time>
      </trkpt>
      <trkpt lat="60.204398017376661" lon="5.593947982415557">
        <ele>1.58</ele>
        <time>2017-06-19T09:36:30Z</time>
      </trkpt>
      <trkpt lat="60.205031018704176" lon="5.593396034091711">
        <ele>1.1</ele>
        <time>2017-06-19T09:36:38Z</time>
      </trkpt>
      <trkpt lat="60.205067982897162" lon="5.593359991908073">
        <ele>1.1</ele>
        <time>2017-06-19T09:36:46Z</time>
      </trkpt>
      <trkpt lat="60.205069994553924" lon="5.59337398968637">
        <ele>0.14</ele>
        <time>2017-06-19T09:37:23Z</time>
      </trkpt>
      <trkpt lat="60.205069994553924" lon="5.593376001343131">
        <ele>-0.34</ele>
        <time>2017-06-19T09:38:35Z</time>
      </trkpt>
      <trkpt lat="60.208862973377109" lon="5.5370800383389">
        <ele>-42.159999999999997</ele>
        <time>2017-06-19T10:13:59Z</time>
      </trkpt>
      <trkpt lat="60.208773035556078" lon="5.537093030288816">
        <ele>-45.039999999999999</ele>
        <time>2017-06-19T10:14:32Z</time>
      </trkpt>
      <trkpt lat="60.208789967000484" lon="5.537090012803674">
        <ele>-46.009999999999998</ele>
        <time>2017-06-19T10:15:05Z</time>
      </trkpt>
      <trkpt lat="60.208785021677613" lon="5.53710300475359">
        <ele>-45.530000000000001</ele>
        <time>2017-06-19T10:15:06Z</time>
      </trkpt>
      <trkpt lat="60.208748979493976" lon="5.537035027518868">
        <ele>-44.079999999999998</ele>
        <time>2017-06-19T10:15:08Z</time>
      </trkpt>
      <trkpt lat="60.208529960364103" lon="5.536877028644085">
        <ele>-39.280000000000001</ele>
        <time>2017-06-19T10:15:16Z</time>
      </trkpt>
      <trkpt lat="60.208195019513369" lon="5.536076975986362">
        <ele>-16.210000000000001</ele>
        <time>2017-06-19T10:15:24Z</time>
      </trkpt>
      <trkpt lat="60.207567969337106" lon="5.534979030489922">
        <ele>-7.07</ele>
        <time>2017-06-19T10:15:32Z</time>
      </trkpt>
      <trkpt lat="60.20748901180923" lon="5.534851038828492">
        <ele>-6.11</ele>
        <time>2017-06-19T10:15:33Z</time>
      </trkpt>
      <trkpt lat="60.207401001825929" lon="5.534739978611469">
        <ele>-4.67</ele>
        <time>2017-06-19T10:15:34Z</time>
      </trkpt>
      <trkpt lat="60.207105036824942" lon="5.534425992518663">
        <ele>1.58</ele>
        <time>2017-06-19T10:15:37Z</time>
      </trkpt>
      <trkpt lat="60.20701702684164" lon="5.534281991422176">
        <ele>3.02</ele>
        <time>2017-06-19T10:15:38Z</time>
      </trkpt>
      <trkpt lat="60.206189984455705" lon="5.532260024920106">
        <ele>11.67</ele>
        <time>2017-06-19T10:15:48Z</time>
      </trkpt>
      <trkpt lat="60.205403007566929" lon="5.530102020129561">
        <ele>13.6</ele>
        <time>2017-06-19T10:15:58Z</time>
      </trkpt>
      <trkpt lat="60.204061986878514" lon="5.526461005210877">
        <ele>12.15</ele>
        <time>2017-06-19T10:16:13Z</time>
      </trkpt>
      <trkpt lat="60.202771006152034" lon="5.524026984348893">
        <ele>12.15</ele>
        <time>2017-06-19T10:16:24Z</time>
      </trkpt>
      <trkpt lat="60.201300987973809" lon="5.520398039370775">
        <ele>18.879999999999999</ele>
        <time>2017-06-19T10:16:38Z</time>
      </trkpt>
      <trkpt lat="60.200387025251985" lon="5.51787500269711">
        <ele>32.82</ele>
        <time>2017-06-19T10:16:48Z</time>
      </trkpt>
      <trkpt lat="60.19975402392447" lon="5.515227997675538">
        <ele>38.109999999999999</ele>
        <time>2017-06-19T10:16:57Z</time>
      </trkpt>
      <trkpt lat="60.198828997090459" lon="5.512614017352462">
        <ele>45.32</ele>
        <time>2017-06-19T10:17:05Z</time>
      </trkpt>
      <trkpt lat="60.197021020576358" lon="5.508182002231479">
        <ele>51.090000000000003</ele>
        <time>2017-06-19T10:17:19Z</time>
      </trkpt>
      <trkpt lat="60.195598024874926" lon="5.505309021100402">
        <ele>57.340000000000003</ele>
        <time>2017-06-19T10:17:30Z</time>
      </trkpt>
      <trkpt lat="60.195208014920354" lon="5.50337397493422">
        <ele>57.82</ele>
        <time>2017-06-19T10:17:36Z</time>
      </trkpt>
      <trkpt lat="60.194924036040902" lon="5.501061994582415">
        <ele>60.219999999999999</ele>
        <time>2017-06-19T10:17:46Z</time>
      </trkpt>
      <trkpt lat="60.19440796226263" lon="5.498115001246333">
        <ele>65.989999999999995</ele>
        <time>2017-06-19T10:18:00Z</time>
      </trkpt>
      <trkpt lat="60.193840004503727" lon="5.494420006871223">
        <ele>62.619999999999997</ele>
        <time>2017-06-19T10:18:16Z</time>
      </trkpt>
      <trkpt lat="60.193036012351513" lon="5.491522969678044">
        <ele>61.18</ele>
        <time>2017-06-19T10:18:29Z</time>
      </trkpt>
      <trkpt lat="60.191411012783647" lon="5.486086970195174">
        <ele>63.100000000000001</ele>
        <time>2017-06-19T10:18:53Z</time>
      </trkpt>
      <trkpt lat="60.19062202423811" lon="5.483723022043705">
        <ele>67.430000000000007</ele>
        <time>2017-06-19T10:19:04Z</time>
      </trkpt>
      <trkpt lat="60.190055994316936" lon="5.482416031882167">
        <ele>63.579999999999998</ele>
        <time>2017-06-19T10:19:12Z</time>
      </trkpt>
      <trkpt lat="60.188874984160066" lon="5.479657966643572">
        <ele>55.409999999999997</ele>
        <time>2017-06-19T10:19:29Z</time>
      </trkpt>
      <trkpt lat="60.188191020861268" lon="5.47806398011744">
        <ele>47.240000000000002</ele>
        <time>2017-06-19T10:19:40Z</time>
      </trkpt>
      <trkpt lat="60.187061978504062" lon="5.475883008912206">
        <ele>35.710000000000001</ele>
        <time>2017-06-19T10:19:55Z</time>
      </trkpt>
      <trkpt lat="60.185996973887086" lon="5.475049009546638">
        <ele>26.57</ele>
        <time>2017-06-19T10:20:05Z</time>
      </trkpt>
      <trkpt lat="60.184847982600331" lon="5.474762013182044">
        <ele>16.48</ele>
        <time>2017-06-19T10:20:17Z</time>
      </trkpt>
      <trkpt lat="60.18445897847414" lon="5.474676014855504">
        <ele>13.119999999999999</ele>
        <time>2017-06-19T10:20:21Z</time>
      </trkpt>
      <trkpt lat="60.184370968490839" lon="5.474636033177376">
        <ele>11.19</ele>
        <time>2017-06-19T10:20:22Z</time>
      </trkpt>
      <trkpt lat="60.184282036498189" lon="5.474563026800752">
        <ele>10.710000000000001</ele>
        <time>2017-06-19T10:20:23Z</time>
      </trkpt>
      <trkpt lat="60.18420098349452" lon="5.474473005160689">
        <ele>10.23</ele>
        <time>2017-06-19T10:20:24Z</time>
      </trkpt>
      <trkpt lat="60.184129988774657" lon="5.47436797991395">
        <ele>9.27</ele>
        <time>2017-06-19T10:20:25Z</time>
      </trkpt>
      <trkpt lat="60.184064023196697" lon="5.474249962717295">
        <ele>8.789999999999999</ele>
        <time>2017-06-19T10:20:26Z</time>
      </trkpt>
      <trkpt lat="60.184017000719905" lon="5.474117025732994">
        <ele>8.310000000000001</ele>
        <time>2017-06-19T10:20:27Z</time>
      </trkpt>
      <trkpt lat="60.183981964364648" lon="5.473964978009462">
        <ele>7.83</ele>
        <time>2017-06-19T10:20:28Z</time>
      </trkpt>
      <trkpt lat="60.183955980464816" lon="5.473817037418485">
        <ele>6.87</ele>
        <time>2017-06-19T10:20:29Z</time>
      </trkpt>
      <trkpt lat="60.183939971029758" lon="5.473660966381431">
        <ele>6.39</ele>
        <time>2017-06-19T10:20:30Z</time>
      </trkpt>
      <trkpt lat="60.183933014050126" lon="5.473493998870254">
        <ele>6.39</ele>
        <time>2017-06-19T10:20:31Z</time>
      </trkpt>
      <trkpt lat="60.183936031535268" lon="5.473316973075271">
        <ele>5.91</ele>
        <time>2017-06-19T10:20:32Z</time>
      </trkpt>
      <trkpt lat="60.183951035141945" lon="5.47314397059381">
        <ele>4.94</ele>
        <time>2017-06-19T10:20:33Z</time>
      </trkpt>
      <trkpt lat="60.183982970193028" lon="5.47296803444624">
        <ele>4.46</ele>
        <time>2017-06-19T10:20:34Z</time>
      </trkpt>
      <trkpt lat="60.184024963527918" lon="5.472796959802508">
        <ele>3.98</ele>
        <time>2017-06-19T10:20:35Z</time>
      </trkpt>
      <trkpt lat="60.184081960469484" lon="5.472640972584486">
        <ele>3.98</ele>
        <time>2017-06-19T10:20:36Z</time>
      </trkpt>
      <trkpt lat="60.184142980724573" lon="5.472503006458283">
        <ele>3.5</ele>
        <time>2017-06-19T10:20:37Z</time>
      </trkpt>
      <trkpt lat="60.184209030121565" lon="5.472375014796853">
        <ele>3.02</ele>
        <time>2017-06-19T10:20:38Z</time>
      </trkpt>
      <trkpt lat="60.184773970395327" lon="5.471257958561182">
        <ele>2.54</ele>
        <time>2017-06-19T10:20:47Z</time>
      </trkpt>
      <trkpt lat="60.184819987043738" lon="5.471115969121456">
        <ele>2.54</ele>
        <time>2017-06-19T10:20:48Z</time>
      </trkpt>
      <trkpt lat="60.184853011742234" lon="5.470967022702098">
        <ele>2.06</ele>
        <time>2017-06-19T10:20:49Z</time>
      </trkpt>
      <trkpt lat="60.184872038662434" lon="5.470806006342173">
        <ele>2.06</ele>
        <time>2017-06-19T10:20:50Z</time>
      </trkpt>
      <trkpt lat="60.184873966500163" lon="5.470644989982247">
        <ele>2.06</ele>
        <time>2017-06-19T10:20:51Z</time>
      </trkpt>
      <trkpt lat="60.184867009520531" lon="5.470495959743857">
        <ele>2.06</ele>
        <time>2017-06-19T10:20:52Z</time>
      </trkpt>
      <trkpt lat="60.184852005913854" lon="5.47037199139595">
        <ele>1.58</ele>
        <time>2017-06-19T10:20:53Z</time>
      </trkpt>
      <trkpt lat="60.184839013963938" lon="5.470254980027676">
        <ele>1.1</ele>
        <time>2017-06-19T10:20:54Z</time>
      </trkpt>
      <trkpt lat="60.184769025072455" lon="5.469655003398657">
        <ele>1.58</ele>
        <time>2017-06-19T10:21:03Z</time>
      </trkpt>
      <trkpt lat="60.184761984273791" lon="5.46955500729382">
        <ele>1.58</ele>
        <time>2017-06-19T10:21:04Z</time>
      </trkpt>
      <trkpt lat="60.184763995930552" lon="5.469454005360603">
        <ele>1.58</ele>
        <time>2017-06-19T10:21:05Z</time>
      </trkpt>
      <trkpt lat="60.184772964566946" lon="5.46934001147747">
        <ele>1.58</ele>
        <time>2017-06-19T10:21:06Z</time>
      </trkpt>
      <trkpt lat="60.184814035892487" lon="5.468936003744602">
        <ele>2.06</ele>
        <time>2017-06-19T10:21:09Z</time>
      </trkpt>
      <trkpt lat="60.184848988428712" lon="5.468814969062805">
        <ele>2.06</ele>
        <time>2017-06-19T10:21:10Z</time>
      </trkpt>
      <trkpt lat="60.184900034219027" lon="5.468728970736265">
        <ele>2.06</ele>
        <time>2017-06-19T10:21:11Z</time>
      </trkpt>
      <trkpt lat="60.184962982311845" lon="5.468687983229756">
        <ele>2.54</ele>
        <time>2017-06-19T10:21:12Z</time>
      </trkpt>
      <trkpt lat="60.185034982860088" lon="5.468681026250124">
        <ele>3.02</ele>
        <time>2017-06-19T10:21:13Z</time>
      </trkpt>
      <trkpt lat="60.185113018378615" lon="5.468672979623079">
        <ele>3.02</ele>
        <time>2017-06-19T10:21:14Z</time>
      </trkpt>
      <trkpt lat="60.185278980061412" lon="5.468598967418075">
        <ele>2.54</ele>
        <time>2017-06-19T10:21:16Z</time>
      </trkpt>
      <trkpt lat="60.185360033065081" lon="5.468530990183353">
        <ele>2.54</ele>
        <time>2017-06-19T10:21:17Z</time>
      </trkpt>
      <trkpt lat="60.185431027784944" lon="5.468445997685194">
        <ele>2.54</ele>
        <time>2017-06-19T10:21:18Z</time>
      </trkpt>
      <trkpt lat="60.186330992728472" lon="5.467753987759352">
        <ele>3.98</ele>
        <time>2017-06-19T10:21:29Z</time>
      </trkpt>
      <trkpt lat="60.188053976744413" lon="5.466683031991124">
        <ele>5.42</ele>
        <time>2017-06-19T10:21:46Z</time>
      </trkpt>
      <trkpt lat="60.189242027699947" lon="5.465370006859303">
        <ele>12.15</ele>
        <time>2017-06-19T10:21:58Z</time>
      </trkpt>
      <trkpt lat="60.190170994028449" lon="5.463843997567892">
        <ele>17.440000000000001</ele>
        <time>2017-06-19T10:22:08Z</time>
      </trkpt>
      <trkpt lat="60.190746998414397" lon="5.463515007868409">
        <ele>17.440000000000001</ele>
        <time>2017-06-19T10:22:13Z</time>
      </trkpt>
      <trkpt lat="60.19178400747478" lon="5.463788006454706">
        <ele>20.32</ele>
        <time>2017-06-19T10:22:22Z</time>
      </trkpt>
      <trkpt lat="60.192388007417321" lon="5.463955979794264">
        <ele>25.129999999999999</ele>
        <time>2017-06-19T10:22:27Z</time>
      </trkpt>
      <trkpt lat="60.192506024613976" lon="5.463937958702445">
        <ele>25.609999999999999</ele>
        <time>2017-06-19T10:22:28Z</time>
      </trkpt>
      <trkpt lat="60.192624963819981" lon="5.463890014216304">
        <ele>25.129999999999999</ele>
        <time>2017-06-19T10:22:29Z</time>
      </trkpt>
      <trkpt lat="60.194396981969476" lon="5.46285199932754">
        <ele>24.649999999999999</ele>
        <time>2017-06-19T10:22:44Z</time>
      </trkpt>
      <trkpt lat="60.195763986557722" lon="5.462407004088163">
        <ele>23.210000000000001</ele>
        <time>2017-06-19T10:22:55Z</time>
      </trkpt>
      <trkpt lat="60.195890972390771" lon="5.462297033518553">
        <ele>23.210000000000001</ele>
        <time>2017-06-19T10:22:56Z</time>
      </trkpt>
      <trkpt lat="60.196019969880581" lon="5.462177004665136">
        <ele>24.170000000000002</ele>
        <time>2017-06-19T10:22:57Z</time>
      </trkpt>
      <trkpt lat="60.197575986385345" lon="5.46012201346457">
        <ele>27.050000000000001</ele>
        <time>2017-06-19T10:23:10Z</time>
      </trkpt>
      <trkpt lat="60.199079029262066" lon="5.458036009222269">
        <ele>27.530000000000001</ele>
        <time>2017-06-19T10:23:24Z</time>
      </trkpt>
      <trkpt lat="60.200215028598905" lon="5.457138977944851">
        <ele>31.379999999999999</ele>
        <time>2017-06-19T10:23:33Z</time>
      </trkpt>
      <trkpt lat="60.200922964140773" lon="5.456782998517156">
        <ele>32.82</ele>
        <time>2017-06-19T10:23:41Z</time>
      </trkpt>
      <trkpt lat="60.201158998534083" lon="5.456756008788943">
        <ele>33.780000000000001</ele>
        <time>2017-06-19T10:23:47Z</time>
      </trkpt>
      <trkpt lat="60.201209960505366" lon="5.456705968827009">
        <ele>33.780000000000001</ele>
        <time>2017-06-19T10:23:48Z</time>
      </trkpt>
      <trkpt lat="60.201255977153778" lon="5.456618964672089">
        <ele>33.780000000000001</ele>
        <time>2017-06-19T10:23:49Z</time>
      </trkpt>
      <trkpt lat="60.201415987685323" lon="5.456301961094141">
        <ele>33.780000000000001</ele>
        <time>2017-06-19T10:23:52Z</time>
      </trkpt>
      <trkpt lat="60.201482037082314" lon="5.456210011616349">
        <ele>33.780000000000001</ele>
        <time>2017-06-19T10:23:53Z</time>
      </trkpt>
      <trkpt lat="60.201557977125049" lon="5.45612501911819">
        <ele>34.259999999999998</ele>
        <time>2017-06-19T10:23:54Z</time>
      </trkpt>
      <trkpt lat="60.202580988407135" lon="5.455148024484515">
        <ele>35.710000000000001</ele>
        <time>2017-06-19T10:24:04Z</time>
      </trkpt>
      <trkpt lat="60.203275009989738" lon="5.454002972692251">
        <ele>37.630000000000003</ele>
        <time>2017-06-19T10:24:12Z</time>
      </trkpt>
      <trkpt lat="60.2043960057199" lon="5.451495023444295">
        <ele>39.549999999999997</ele>
        <time>2017-06-19T10:24:26Z</time>
      </trkpt>
      <trkpt lat="60.204556016251445" lon="5.451239040121436">
        <ele>40.990000000000002</ele>
        <time>2017-06-19T10:24:28Z</time>
      </trkpt>
      <trkpt lat="60.20463396795094" lon="5.451155975461006">
        <ele>41.469999999999999</ele>
        <time>2017-06-19T10:24:29Z</time>
      </trkpt>
      <trkpt lat="60.20471996627748" lon="5.451100990176201">
        <ele>42.439999999999998</ele>
        <time>2017-06-19T10:24:30Z</time>
      </trkpt>
      <trkpt lat="60.204808982089162" lon="5.451057991012931">
        <ele>42.920000000000002</ele>
        <time>2017-06-19T10:24:31Z</time>
      </trkpt>
      <trkpt lat="60.204902021214366" lon="5.45103301294148">
        <ele>43.399999999999999</ele>
        <time>2017-06-19T10:24:32Z</time>
      </trkpt>
      <trkpt lat="60.205001011490822" lon="5.451022032648325">
        <ele>43.399999999999999</ele>
        <time>2017-06-19T10:24:33Z</time>
      </trkpt>
      <trkpt lat="60.205108970403671" lon="5.451021026819944">
        <ele>43.880000000000003</ele>
        <time>2017-06-19T10:24:34Z</time>
      </trkpt>
      <trkpt lat="60.205330001190305" lon="5.451006023213267">
        <ele>45.32</ele>
        <time>2017-06-19T10:24:36Z</time>
      </trkpt>
      <trkpt lat="60.205433014780283" lon="5.450954977422953">
        <ele>45.32</ele>
        <time>2017-06-19T10:24:37Z</time>
      </trkpt>
      <trkpt lat="60.205523958429694" lon="5.450869984924793">
        <ele>45.32</ele>
        <time>2017-06-19T10:24:38Z</time>
      </trkpt>
      <trkpt lat="60.205592019483447" lon="5.450750961899757">
        <ele>45.799999999999997</ele>
        <time>2017-06-19T10:24:39Z</time>
      </trkpt>
      <trkpt lat="60.205638036131859" lon="5.450607966631651">
        <ele>45.799999999999997</ele>
        <time>2017-06-19T10:24:40Z</time>
      </trkpt>
      <trkpt lat="60.205659996718168" lon="5.450462037697434">
        <ele>46.280000000000001</ele>
        <time>2017-06-19T10:24:41Z</time>
      </trkpt>
      <trkpt lat="60.205667959526181" lon="5.450355000793934">
        <ele>46.280000000000001</ele>
        <time>2017-06-19T10:24:42Z</time>
      </trkpt>
      <trkpt lat="60.205687992274761" lon="5.450147967785597">
        <ele>46.759999999999998</ele>
        <time>2017-06-19T10:24:46Z</time>
      </trkpt>
      <trkpt lat="60.205711964517832" lon="5.450070016086102">
        <ele>46.759999999999998</ele>
        <time>2017-06-19T10:24:47Z</time>
      </trkpt>
      <trkpt lat="60.205747000873089" lon="5.450006984174252">
        <ele>47.240000000000002</ele>
        <time>2017-06-19T10:24:48Z</time>
      </trkpt>
      <trkpt lat="60.205793017521501" lon="5.449957028031349">
        <ele>46.759999999999998</ele>
        <time>2017-06-19T10:24:49Z</time>
      </trkpt>
      <trkpt lat="60.205854959785938" lon="5.449922997504473">
        <ele>47.240000000000002</ele>
        <time>2017-06-19T10:24:50Z</time>
      </trkpt>
      <trkpt lat="60.205927966162562" lon="5.449876980856061">
        <ele>46.759999999999998</ele>
        <time>2017-06-19T10:24:51Z</time>
      </trkpt>
      <trkpt lat="60.206669010221958" lon="5.449181031435728">
        <ele>44.840000000000003</ele>
        <time>2017-06-19T10:24:58Z</time>
      </trkpt>
      <trkpt lat="60.208439016714692" lon="5.447624009102583">
        <ele>45.32</ele>
        <time>2017-06-19T10:25:12Z</time>
      </trkpt>
      <trkpt lat="60.209969971328974" lon="5.446863016113639">
        <ele>48.200000000000003</ele>
        <time>2017-06-19T10:25:24Z</time>
      </trkpt>
      <trkpt lat="60.210094023495913" lon="5.446728989481926">
        <ele>47.719999999999999</ele>
        <time>2017-06-19T10:25:25Z</time>
      </trkpt>
      <trkpt lat="60.210212962701917" lon="5.446570990607142">
        <ele>47.719999999999999</ele>
        <time>2017-06-19T10:25:26Z</time>
      </trkpt>
      <trkpt lat="60.211589019745588" lon="5.444369986653328">
        <ele>44.840000000000003</ele>
        <time>2017-06-19T10:25:38Z</time>
      </trkpt>
      <trkpt lat="60.212810011580586" lon="5.443537998944521">
        <ele>43.880000000000003</ele>
        <time>2017-06-19T10:25:47Z</time>
      </trkpt>
      <trkpt lat="60.214526960626245" lon="5.443461975082755">
        <ele>43.880000000000003</ele>
        <time>2017-06-19T10:25:59Z</time>
      </trkpt>
      <trkpt lat="60.215838979929686" lon="5.44426403939724">
        <ele>43.880000000000003</ele>
        <time>2017-06-19T10:26:08Z</time>
      </trkpt>
      <trkpt lat="60.215969989076257" lon="5.444322964176536">
        <ele>43.880000000000003</ele>
        <time>2017-06-19T10:26:09Z</time>
      </trkpt>
      <trkpt lat="60.216102004051208" lon="5.444350959733129">
        <ele>43.880000000000003</ele>
        <time>2017-06-19T10:26:10Z</time>
      </trkpt>
      <trkpt lat="60.216229995712638" lon="5.444342996925116">
        <ele>43.880000000000003</ele>
        <time>2017-06-19T10:26:11Z</time>
      </trkpt>
      <trkpt lat="60.216355975717306" lon="5.444295974448323">
        <ele>43.880000000000003</ele>
        <time>2017-06-19T10:26:12Z</time>
      </trkpt>
      <trkpt lat="60.216482961550355" lon="5.444208970293403">
        <ele>43.880000000000003</ele>
        <time>2017-06-19T10:26:13Z</time>
      </trkpt>
      <trkpt lat="60.216598967090249" lon="5.444091036915779">
        <ele>43.880000000000003</ele>
        <time>2017-06-19T10:26:14Z</time>
      </trkpt>
      <trkpt lat="60.216704998165369" lon="5.443947035819292">
        <ele>43.880000000000003</ele>
        <time>2017-06-19T10:26:15Z</time>
      </trkpt>
      <trkpt lat="60.216795019805431" lon="5.443792976438999">
        <ele>43.880000000000003</ele>
        <time>2017-06-19T10:26:16Z</time>
      </trkpt>
      <trkpt lat="60.216881018131971" lon="5.443636989220977">
        <ele>43.880000000000003</ele>
        <time>2017-06-19T10:26:17Z</time>
      </trkpt>
      <trkpt lat="60.217197015881538" lon="5.443089986220002">
        <ele>43.880000000000003</ele>
        <time>2017-06-19T10:26:21Z</time>
      </trkpt>
      <trkpt lat="60.217282008379698" lon="5.442996025085449">
        <ele>43.399999999999999</ele>
        <time>2017-06-19T10:26:22Z</time>
      </trkpt>
      <trkpt lat="60.217376975342631" lon="5.442925030365586">
        <ele>43.399999999999999</ele>
        <time>2017-06-19T10:26:23Z</time>
      </trkpt>
      <trkpt lat="60.21748099476099" lon="5.442893011495471">
        <ele>43.399999999999999</ele>
        <time>2017-06-19T10:26:24Z</time>
      </trkpt>
      <trkpt lat="60.217590965330601" lon="5.442900974303484">
        <ele>43.399999999999999</ele>
        <time>2017-06-19T10:26:25Z</time>
      </trkpt>
      <trkpt lat="60.217704959213734" lon="5.44295403175056">
        <ele>43.399999999999999</ele>
        <time>2017-06-19T10:26:26Z</time>
      </trkpt>
      <trkpt lat="60.217815013602376" lon="5.443052016198635">
        <ele>42.920000000000002</ele>
        <time>2017-06-19T10:26:27Z</time>
      </trkpt>
      <trkpt lat="60.217919033020735" lon="5.443195011466742">
        <ele>42.920000000000002</ele>
        <time>2017-06-19T10:26:28Z</time>
      </trkpt>
      <trkpt lat="60.218013999983668" lon="5.443377988412976">
        <ele>42.920000000000002</ele>
        <time>2017-06-19T10:26:29Z</time>
      </trkpt>
      <trkpt lat="60.218092035502195" lon="5.443597007542849">
        <ele>42.920000000000002</ele>
        <time>2017-06-19T10:26:30Z</time>
      </trkpt>
      <trkpt lat="60.218158001080155" lon="5.443850979208946">
        <ele>43.399999999999999</ele>
        <time>2017-06-19T10:26:31Z</time>
      </trkpt>
      <trkpt lat="60.218217009678483" lon="5.444117020815611">
        <ele>43.399999999999999</ele>
        <time>2017-06-19T10:26:32Z</time>
      </trkpt>
      <trkpt lat="60.218982025980949" lon="5.44643696397543">
        <ele>44.359999999999999</ele>
        <time>2017-06-19T10:26:41Z</time>
      </trkpt>
      <trkpt lat="60.220342995598912" lon="5.449433997273445">
        <ele>50.609999999999999</ele>
        <time>2017-06-19T10:26:54Z</time>
      </trkpt>
      <trkpt lat="60.222606025636196" lon="5.453091021627188">
        <ele>51.090000000000003</ele>
        <time>2017-06-19T10:27:12Z</time>
      </trkpt>
      <trkpt lat="60.223892983049154" lon="5.454738987609744">
        <ele>59.740000000000002</ele>
        <time>2017-06-19T10:27:22Z</time>
      </trkpt>
      <trkpt lat="60.224694041535258" lon="5.456459037959576">
        <ele>55.409999999999997</ele>
        <time>2017-06-19T10:27:31Z</time>
      </trkpt>
      <trkpt lat="60.224976008757949" lon="5.456971004605293">
        <ele>55.409999999999997</ele>
        <time>2017-06-19T10:27:34Z</time>
      </trkpt>
      <trkpt lat="60.22508698515594" lon="5.457106959074736">
        <ele>55.890000000000001</ele>
        <time>2017-06-19T10:27:35Z</time>
      </trkpt>
      <trkpt lat="60.225205002352595" lon="5.457218019291759">
        <ele>56.859999999999999</ele>
        <time>2017-06-19T10:27:36Z</time>
      </trkpt>
      <trkpt lat="60.225330982357264" lon="5.457312986254692">
        <ele>57.340000000000003</ele>
        <time>2017-06-19T10:27:37Z</time>
      </trkpt>
      <trkpt lat="60.225458974018693" lon="5.457391021773219">
        <ele>58.299999999999997</ele>
        <time>2017-06-19T10:27:38Z</time>
      </trkpt>
      <trkpt lat="60.225586965680122" lon="5.457461010664702">
        <ele>58.299999999999997</ele>
        <time>2017-06-19T10:27:39Z</time>
      </trkpt>
      <trkpt lat="60.22738597355783" lon="5.458482010290027">
        <ele>54.450000000000003</ele>
        <time>2017-06-19T10:27:53Z</time>
      </trkpt>
      <trkpt lat="60.22923200391233" lon="5.459634019061923">
        <ele>53.969999999999999</ele>
        <time>2017-06-19T10:28:07Z</time>
      </trkpt>
      <trkpt lat="60.22936200723052" lon="5.459594959393144">
        <ele>53.969999999999999</ele>
        <time>2017-06-19T10:28:08Z</time>
      </trkpt>
      <trkpt lat="60.229484969750047" lon="5.45949999243021">
        <ele>53.969999999999999</ele>
        <time>2017-06-19T10:28:09Z</time>
      </trkpt>
      <trkpt lat="60.229593012481928" lon="5.459340987727046">
        <ele>52.530000000000001</ele>
        <time>2017-06-19T10:28:10Z</time>
      </trkpt>
      <trkpt lat="60.229689991101623" lon="5.459134038537741">
        <ele>52.049999999999997</ele>
        <time>2017-06-19T10:28:11Z</time>
      </trkpt>
      <trkpt lat="60.229779006913304" lon="5.458909990265966">
        <ele>51.090000000000003</ele>
        <time>2017-06-19T10:28:12Z</time>
      </trkpt>
      <trkpt lat="60.230317963287234" lon="5.4573920276016">
        <ele>50.130000000000003</ele>
        <time>2017-06-19T10:28:19Z</time>
      </trkpt>
      <trkpt lat="60.230359034612775" lon="5.457153981551528">
        <ele>49.649999999999999</ele>
        <time>2017-06-19T10:28:20Z</time>
      </trkpt>
      <trkpt lat="60.230372026562691" lon="5.456906966865063">
        <ele>50.130000000000003</ele>
        <time>2017-06-19T10:28:21Z</time>
      </trkpt>
      <trkpt lat="60.230364985764027" lon="5.456662969663739">
        <ele>49.649999999999999</ele>
        <time>2017-06-19T10:28:22Z</time>
      </trkpt>
      <trkpt lat="60.230347970500588" lon="5.456419978290796">
        <ele>49.159999999999997</ele>
        <time>2017-06-19T10:28:23Z</time>
      </trkpt>
      <trkpt lat="60.230355011299253" lon="5.45571799390018">
        <ele>48.200000000000003</ele>
        <time>2017-06-19T10:28:26Z</time>
      </trkpt>
      <trkpt lat="60.230401027947664" lon="5.455513978376985">
        <ele>48.200000000000003</ele>
        <time>2017-06-19T10:28:27Z</time>
      </trkpt>
      <trkpt lat="60.230470011010766" lon="5.455335024744272">
        <ele>47.719999999999999</ele>
        <time>2017-06-19T10:28:28Z</time>
      </trkpt>
      <trkpt lat="60.230559026822448" lon="5.455185994505882">
        <ele>47.240000000000002</ele>
        <time>2017-06-19T10:28:29Z</time>
      </trkpt>
      <trkpt lat="60.230660028755665" lon="5.455079041421413">
        <ele>46.759999999999998</ele>
        <time>2017-06-19T10:28:30Z</time>
      </trkpt>
      <trkpt lat="60.230773016810417" lon="5.455021038651466">
        <ele>46.280000000000001</ele>
        <time>2017-06-19T10:28:31Z</time>
      </trkpt>
      <trkpt lat="60.230890028178692" lon="5.455023972317576">
        <ele>45.799999999999997</ele>
        <time>2017-06-19T10:28:32Z</time>
      </trkpt>
      <trkpt lat="60.231008967384696" lon="5.455068983137608">
        <ele>46.280000000000001</ele>
        <time>2017-06-19T10:28:33Z</time>
      </trkpt>
      <trkpt lat="60.23112497292459" lon="5.455161016434431">
        <ele>45.799999999999997</ele>
        <time>2017-06-19T10:28:34Z</time>
      </trkpt>
      <trkpt lat="60.231237038969994" lon="5.455280039459467">
        <ele>46.280000000000001</ele>
        <time>2017-06-19T10:28:35Z</time>
      </trkpt>
      <trkpt lat="60.231344997882843" lon="5.455414988100529">
        <ele>46.759999999999998</ele>
        <time>2017-06-19T10:28:36Z</time>
      </trkpt>
      <trkpt lat="60.231897030025721" lon="5.456037009134889">
        <ele>48.200000000000003</ele>
        <time>2017-06-19T10:28:41Z</time>
      </trkpt>
      <trkpt lat="60.232023010030389" lon="5.456088976934552">
        <ele>48.200000000000003</ele>
        <time>2017-06-19T10:28:42Z</time>
      </trkpt>
      <trkpt lat="60.232149995863438" lon="5.456098029389978">
        <ele>48.68</ele>
        <time>2017-06-19T10:28:43Z</time>
      </trkpt>
      <trkpt lat="60.232274970039725" lon="5.45604296028614">
        <ele>48.68</ele>
        <time>2017-06-19T10:28:44Z</time>
      </trkpt>
      <trkpt lat="60.232388963922858" lon="5.455940030515194">
        <ele>48.68</ele>
        <time>2017-06-19T10:28:45Z</time>
      </trkpt>
      <trkpt lat="60.232490971684456" lon="5.455802986398339">
        <ele>48.68</ele>
        <time>2017-06-19T10:28:46Z</time>
      </trkpt>
      <trkpt lat="60.232585016638041" lon="5.455655967816711">
        <ele>49.159999999999997</ele>
        <time>2017-06-19T10:28:47Z</time>
      </trkpt>
      <trkpt lat="60.233020959421992" lon="5.454908972606063">
        <ele>49.649999999999999</ele>
        <time>2017-06-19T10:28:52Z</time>
      </trkpt>
      <trkpt lat="60.233559999614954" lon="5.454379990696907">
        <ele>49.649999999999999</ele>
        <time>2017-06-19T10:28:57Z</time>
      </trkpt>
      <trkpt lat="60.233812965452671" lon="5.454273959621787">
        <ele>49.159999999999997</ele>
        <time>2017-06-19T10:28:59Z</time>
      </trkpt>
      <trkpt lat="60.233939029276371" lon="5.454267002642155">
        <ele>49.159999999999997</ele>
        <time>2017-06-19T10:29:00Z</time>
      </trkpt>
      <trkpt lat="60.234059980139136" lon="5.454287035390735">
        <ele>49.649999999999999</ele>
        <time>2017-06-19T10:29:01Z</time>
      </trkpt>
      <trkpt lat="60.235122973099351" lon="5.454452997073531">
        <ele>51.090000000000003</ele>
        <time>2017-06-19T10:29:10Z</time>
      </trkpt>
      <trkpt lat="60.235225986689329" lon="5.454377979040146">
        <ele>52.530000000000001</ele>
        <time>2017-06-19T10:29:11Z</time>
      </trkpt>
      <trkpt lat="60.235325982794166" lon="5.454269014298916">
        <ele>53.490000000000002</ele>
        <time>2017-06-19T10:29:12Z</time>
      </trkpt>
      <trkpt lat="60.235414998605847" lon="5.454121995717287">
        <ele>54.450000000000003</ele>
        <time>2017-06-19T10:29:13Z</time>
      </trkpt>
      <trkpt lat="60.235495967790484" lon="5.453947987407446">
        <ele>54.450000000000003</ele>
        <time>2017-06-19T10:29:14Z</time>
      </trkpt>
      <trkpt lat="60.235575009137392" lon="5.453760987147689">
        <ele>54.93</ele>
        <time>2017-06-19T10:29:15Z</time>
      </trkpt>
      <trkpt lat="60.235649021342397" lon="5.453566024079919">
        <ele>54.93</ele>
        <time>2017-06-19T10:29:16Z</time>
      </trkpt>
      <trkpt lat="60.236047999933362" lon="5.452093994244933">
        <ele>57.82</ele>
        <time>2017-06-19T10:29:23Z</time>
      </trkpt>
      <trkpt lat="60.236075995489955" lon="5.451861983165145">
        <ele>58.780000000000001</ele>
        <time>2017-06-19T10:29:24Z</time>
      </trkpt>
      <trkpt lat="60.236090999096632" lon="5.451624020934105">
        <ele>58.780000000000001</ele>
        <time>2017-06-19T10:29:25Z</time>
      </trkpt>
      <trkpt lat="60.236262995749712" lon="5.448401011526585">
        <ele>62.140000000000001</ele>
        <time>2017-06-19T10:29:38Z</time>
      </trkpt>
      <trkpt lat="60.236528031527996" lon="5.446813981980085">
        <ele>65.030000000000001</ele>
        <time>2017-06-19T10:29:47Z</time>
      </trkpt>
      <trkpt lat="60.236953999847174" lon="5.444625969976187">
        <ele>62.140000000000001</ele>
        <time>2017-06-19T10:29:58Z</time>
      </trkpt>
      <trkpt lat="60.237141000106931" lon="5.443824995309115">
        <ele>60.700000000000003</ele>
        <time>2017-06-19T10:30:02Z</time>
      </trkpt>
      <trkpt lat="60.237209983170033" lon="5.443627014756203">
        <ele>60.219999999999999</ele>
        <time>2017-06-19T10:30:03Z</time>
      </trkpt>
      <trkpt lat="60.237286007031798" lon="5.443440014496446">
        <ele>59.259999999999998</ele>
        <time>2017-06-19T10:30:04Z</time>
      </trkpt>
      <trkpt lat="60.237377034500241" lon="5.443270029500127">
        <ele>58.780000000000001</ele>
        <time>2017-06-19T10:30:05Z</time>
      </trkpt>
      <trkpt lat="60.237475018948317" lon="5.443119993433356">
        <ele>58.780000000000001</ele>
        <time>2017-06-19T10:30:06Z</time>
      </trkpt>
      <trkpt lat="60.237587001174688" lon="5.442984038963914">
        <ele>58.780000000000001</ele>
        <time>2017-06-19T10:30:07Z</time>
      </trkpt>
      <trkpt lat="60.237703006714582" lon="5.442880019545555">
        <ele>58.780000000000001</ele>
        <time>2017-06-19T10:30:08Z</time>
      </trkpt>
      <trkpt lat="60.237819012254477" lon="5.442797038704157">
        <ele>58.780000000000001</ele>
        <time>2017-06-19T10:30:09Z</time>
      </trkpt>
      <trkpt lat="60.237935017794371" lon="5.442734006792307">
        <ele>59.259999999999998</ele>
        <time>2017-06-19T10:30:10Z</time>
      </trkpt>
      <trkpt lat="60.239172019064426" lon="5.442489003762603">
        <ele>62.140000000000001</ele>
        <time>2017-06-19T10:30:21Z</time>
      </trkpt>
      <trkpt lat="60.240584034472704" lon="5.442861998453736">
        <ele>65.030000000000001</ele>
        <time>2017-06-19T10:30:33Z</time>
      </trkpt>
      <trkpt lat="60.241917008534074" lon="5.442378027364612">
        <ele>65.030000000000001</ele>
        <time>2017-06-19T10:30:45Z</time>
      </trkpt>
      <trkpt lat="60.243748035281897" lon="5.441574035212398">
        <ele>62.619999999999997</ele>
        <time>2017-06-19T10:30:59Z</time>
      </trkpt>
      <trkpt lat="60.244950000196695" lon="5.441075982525945">
        <ele>61.659999999999997</ele>
        <time>2017-06-19T10:31:08Z</time>
      </trkpt>
      <trkpt lat="60.246395962312818" lon="5.439920034259558">
        <ele>57.82</ele>
        <time>2017-06-19T10:31:19Z</time>
      </trkpt>
      <trkpt lat="60.247010020539165" lon="5.439513009041548">
        <ele>55.890000000000001</ele>
        <time>2017-06-19T10:31:24Z</time>
      </trkpt>
      <trkpt lat="60.247148992493749" lon="5.439493982121348">
        <ele>55.890000000000001</ele>
        <time>2017-06-19T10:31:25Z</time>
      </trkpt>
      <trkpt lat="60.247287964448333" lon="5.439514014869928">
        <ele>55.890000000000001</ele>
        <time>2017-06-19T10:31:26Z</time>
      </trkpt>
      <trkpt lat="60.247421991080046" lon="5.439586015418172">
        <ele>55.890000000000001</ele>
        <time>2017-06-19T10:31:27Z</time>
      </trkpt>
      <trkpt lat="60.247549982741475" lon="5.43971199542284">
        <ele>55.890000000000001</ele>
        <time>2017-06-19T10:31:28Z</time>
      </trkpt>
      <trkpt lat="60.247673029080033" lon="5.439866976812482">
        <ele>56.369999999999997</ele>
        <time>2017-06-19T10:31:29Z</time>
      </trkpt>
      <trkpt lat="60.247787022963166" lon="5.440052971243858">
        <ele>56.859999999999999</ele>
        <time>2017-06-19T10:31:30Z</time>
      </trkpt>
      <trkpt lat="60.247892970219254" lon="5.440246006473899">
        <ele>57.340000000000003</ele>
        <time>2017-06-19T10:31:31Z</time>
      </trkpt>
      <trkpt lat="60.248402003198862" lon="5.441118981689215">
        <ele>59.740000000000002</ele>
        <time>2017-06-19T10:31:36Z</time>
      </trkpt>
      <trkpt lat="60.248519014567137" lon="5.441245967522264">
        <ele>60.219999999999999</ele>
        <time>2017-06-19T10:31:37Z</time>
      </trkpt>
      <trkpt lat="60.248638037592173" lon="5.441336994990706">
        <ele>60.700000000000003</ele>
        <time>2017-06-19T10:31:38Z</time>
      </trkpt>
      <trkpt lat="60.24876301176846" lon="5.441403966397047">
        <ele>61.18</ele>
        <time>2017-06-19T10:31:39Z</time>
      </trkpt>
      <trkpt lat="60.248895026743412" lon="5.441437996923924">
        <ele>61.18</ele>
        <time>2017-06-19T10:31:40Z</time>
      </trkpt>
      <trkpt lat="60.249027963727713" lon="5.441445959731937">
        <ele>61.18</ele>
        <time>2017-06-19T10:31:41Z</time>
      </trkpt>
      <trkpt lat="60.249159978702664" lon="5.441431039944291">
        <ele>61.18</ele>
        <time>2017-06-19T10:31:42Z</time>
      </trkpt>
      <trkpt lat="60.249286964535713" lon="5.441403966397047">
        <ele>61.18</ele>
        <time>2017-06-19T10:31:43Z</time>
      </trkpt>
      <trkpt lat="60.250957980751991" lon="5.440777000039816">
        <ele>60.700000000000003</ele>
        <time>2017-06-19T10:31:56Z</time>
      </trkpt>
      <trkpt lat="60.252042012289166" lon="5.439907964318991">
        <ele>62.619999999999997</ele>
        <time>2017-06-19T10:32:05Z</time>
      </trkpt>
      <trkpt lat="60.25400698184967" lon="5.437986999750137">
        <ele>62.619999999999997</ele>
        <time>2017-06-19T10:32:24Z</time>
      </trkpt>
      <trkpt lat="60.254477960988879" lon="5.437634959816933">
        <ele>62.140000000000001</ele>
        <time>2017-06-19T10:32:28Z</time>
      </trkpt>
      <trkpt lat="60.25460796430707" lon="5.437596989795566">
        <ele>62.140000000000001</ele>
        <time>2017-06-19T10:32:29Z</time>
      </trkpt>
      <trkpt lat="60.254742996767163" lon="5.437581986188889">
        <ele>62.140000000000001</ele>
        <time>2017-06-19T10:32:30Z</time>
      </trkpt>
      <trkpt lat="60.255295028910041" lon="5.437444020062685">
        <ele>62.140000000000001</ele>
        <time>2017-06-19T10:32:34Z</time>
      </trkpt>
      <trkpt lat="60.255432995036244" lon="5.437344023957849">
        <ele>61.659999999999997</ele>
        <time>2017-06-19T10:32:35Z</time>
      </trkpt>
      <trkpt lat="60.256011011078954" lon="5.436944961547852">
        <ele>60.700000000000003</ele>
        <time>2017-06-19T10:32:39Z</time>
      </trkpt>
      <trkpt lat="60.256172027438879" lon="5.436900034546852">
        <ele>60.700000000000003</ele>
        <time>2017-06-19T10:32:40Z</time>
      </trkpt>
      <trkpt lat="60.256335977464914" lon="5.436887964606285">
        <ele>60.700000000000003</ele>
        <time>2017-06-19T10:32:41Z</time>
      </trkpt>
      <trkpt lat="60.25649799965322" lon="5.436893999576569">
        <ele>61.18</ele>
        <time>2017-06-19T10:32:42Z</time>
      </trkpt>
      <trkpt lat="60.256659016013145" lon="5.436925012618303">
        <ele>62.140000000000001</ele>
        <time>2017-06-19T10:32:43Z</time>
      </trkpt>
      <trkpt lat="60.258423993363976" lon="5.437067002058029">
        <ele>64.549999999999997</ele>
        <time>2017-06-19T10:32:54Z</time>
      </trkpt>
      <trkpt lat="60.260184025391936" lon="5.435927985236049">
        <ele>64.069999999999993</ele>
        <time>2017-06-19T10:33:06Z</time>
      </trkpt>
      <trkpt lat="60.261489003896713" lon="5.435054004192352">
        <ele>65.030000000000001</ele>
        <time>2017-06-19T10:33:16Z</time>
      </trkpt>
      <trkpt lat="60.262532969936728" lon="5.433648023754358">
        <ele>68.390000000000001</ele>
        <time>2017-06-19T10:33:25Z</time>
      </trkpt>
      <trkpt lat="60.264069959521294" lon="5.431667966768146">
        <ele>73.200000000000003</ele>
        <time>2017-06-19T10:33:38Z</time>
      </trkpt>
      <trkpt lat="60.265210988000035" lon="5.431158011779189">
        <ele>73.680000000000007</ele>
        <time>2017-06-19T10:33:47Z</time>
      </trkpt>
      <trkpt lat="60.266835987567902" lon="5.430777976289392">
        <ele>74.640000000000001</ele>
        <time>2017-06-19T10:34:00Z</time>
      </trkpt>
      <trkpt lat="60.267915995791554" lon="5.430511012673378">
        <ele>81.370000000000005</ele>
        <time>2017-06-19T10:34:10Z</time>
      </trkpt>
      <trkpt lat="60.268816966563463" lon="5.430290987715125">
        <ele>81.370000000000005</ele>
        <time>2017-06-19T10:34:21Z</time>
      </trkpt>
      <trkpt lat="60.270039970055223" lon="5.4299589805305">
        <ele>72.719999999999999</ele>
        <time>2017-06-19T10:34:31Z</time>
      </trkpt>
      <trkpt lat="60.271921036764979" lon="5.429435027763248">
        <ele>63.579999999999998</ele>
        <time>2017-06-19T10:34:43Z</time>
      </trkpt>
      <trkpt lat="60.272077023983002" lon="5.429337965324521">
        <ele>63.579999999999998</ele>
        <time>2017-06-19T10:34:44Z</time>
      </trkpt>
      <trkpt lat="60.273009007796645" lon="5.428158966824412">
        <ele>62.140000000000001</ele>
        <time>2017-06-19T10:34:51Z</time>
      </trkpt>
      <trkpt lat="60.2737089805305" lon="5.426170025020838">
        <ele>64.069999999999993</ele>
        <time>2017-06-19T10:34:58Z</time>
      </trkpt>
      <trkpt lat="60.27422497048974" lon="5.422904016450048">
        <ele>61.659999999999997</ele>
        <time>2017-06-19T10:35:08Z</time>
      </trkpt>
      <trkpt lat="60.274817990139127" lon="5.419285967946053">
        <ele>64.549999999999997</ele>
        <time>2017-06-19T10:35:21Z</time>
      </trkpt>
      <trkpt lat="60.274884039536119" lon="5.419027972966433">
        <ele>64.549999999999997</ele>
        <time>2017-06-19T10:35:22Z</time>
      </trkpt>
      <trkpt lat="60.274957967922091" lon="5.418774001300335">
        <ele>64.069999999999993</ele>
        <time>2017-06-19T10:35:23Z</time>
      </trkpt>
      <trkpt lat="60.275047989562154" lon="5.418542996048927">
        <ele>64.069999999999993</ele>
        <time>2017-06-19T10:35:24Z</time>
      </trkpt>
      <trkpt lat="60.27514798566699" lon="5.418324982747436">
        <ele>64.069999999999993</ele>
        <time>2017-06-19T10:35:25Z</time>
      </trkpt>
      <trkpt lat="60.275263991206884" lon="5.41814099997282">
        <ele>64.549999999999997</ele>
        <time>2017-06-19T10:35:26Z</time>
      </trkpt>
      <trkpt lat="60.275385025888681" lon="5.417971014976502">
        <ele>64.549999999999997</ele>
        <time>2017-06-19T10:35:27Z</time>
      </trkpt>
      <trkpt lat="60.275510000064969" lon="5.417817961424589">
        <ele>64.549999999999997</ele>
        <time>2017-06-19T10:35:28Z</time>
      </trkpt>
      <trkpt lat="60.277028968557715" lon="5.415976038202643">
        <ele>64.549999999999997</ele>
        <time>2017-06-19T10:35:41Z</time>
      </trkpt>
      <trkpt lat="60.277649983763695" lon="5.415134998038411">
        <ele>65.030000000000001</ele>
        <time>2017-06-19T10:35:46Z</time>
      </trkpt>
      <trkpt lat="60.277755009010434" lon="5.414900975301862">
        <ele>65.510000000000005</ele>
        <time>2017-06-19T10:35:47Z</time>
      </trkpt>
      <trkpt lat="60.277846958488226" lon="5.414661001414061">
        <ele>65.989999999999995</ele>
        <time>2017-06-19T10:35:48Z</time>
      </trkpt>
      <trkpt lat="60.278564030304551" lon="5.412857970222831">
        <ele>64.549999999999997</ele>
        <time>2017-06-19T10:35:56Z</time>
      </trkpt>
      <trkpt lat="60.278959991410375" lon="5.412027994170785">
        <ele>60.219999999999999</ele>
        <time>2017-06-19T10:36:00Z</time>
      </trkpt>
      <trkpt lat="60.279034003615379" lon="5.411775028333068">
        <ele>60.219999999999999</ele>
        <time>2017-06-19T10:36:01Z</time>
      </trkpt>
      <trkpt lat="60.279083959758282" lon="5.411513010039926">
        <ele>60.219999999999999</ele>
        <time>2017-06-19T10:36:02Z</time>
      </trkpt>
      <trkpt lat="60.279110027477145" lon="5.411226013675332">
        <ele>60.700000000000003</ele>
        <time>2017-06-19T10:36:03Z</time>
      </trkpt>
      <trkpt lat="60.279120001941919" lon="5.410938011482358">
        <ele>61.18</ele>
        <time>2017-06-19T10:36:04Z</time>
      </trkpt>
      <trkpt lat="60.279126036912203" lon="5.410665012896061">
        <ele>61.18</ele>
        <time>2017-06-19T10:36:05Z</time>
      </trkpt>
      <trkpt lat="60.279145985841751" lon="5.409604031592608">
        <ele>61.18</ele>
        <time>2017-06-19T10:36:09Z</time>
      </trkpt>
      <trkpt lat="60.279558040201664" lon="5.407084012404084">
        <ele>59.259999999999998</ele>
        <time>2017-06-19T10:36:19Z</time>
      </trkpt>
      <trkpt lat="60.280397990718484" lon="5.40359697304666">
        <ele>65.510000000000005</ele>
        <time>2017-06-19T10:36:34Z</time>
      </trkpt>
      <trkpt lat="60.280492035672069" lon="5.403393963351846">
        <ele>65.510000000000005</ele>
        <time>2017-06-19T10:36:35Z</time>
      </trkpt>
      <trkpt lat="60.280594965443015" lon="5.403212998062372">
        <ele>65.510000000000005</ele>
        <time>2017-06-19T10:36:36Z</time>
      </trkpt>
      <trkpt lat="60.280706025660038" lon="5.403049970045686">
        <ele>65.030000000000001</ele>
        <time>2017-06-19T10:36:37Z</time>
      </trkpt>
      <trkpt lat="60.280825970694423" lon="5.402908986434341">
        <ele>65.030000000000001</ele>
        <time>2017-06-19T10:36:38Z</time>
      </trkpt>
      <trkpt lat="60.280953040346503" lon="5.402798010036349">
        <ele>65.030000000000001</ele>
        <time>2017-06-19T10:36:39Z</time>
      </trkpt>
      <trkpt lat="60.281082037836313" lon="5.402705976739526">
        <ele>64.549999999999997</ele>
        <time>2017-06-19T10:36:40Z</time>
      </trkpt>
      <trkpt lat="60.281210029497743" lon="5.402656020596623">
        <ele>64.549999999999997</ele>
        <time>2017-06-19T10:36:41Z</time>
      </trkpt>
      <trkpt lat="60.281336009502411" lon="5.402628025040031">
        <ele>64.549999999999997</ele>
        <time>2017-06-19T10:36:42Z</time>
      </trkpt>
      <trkpt lat="60.281456960365176" lon="5.402617966756225">
        <ele>64.069999999999993</ele>
        <time>2017-06-19T10:36:43Z</time>
      </trkpt>
      <trkpt lat="60.282185012474656" lon="5.402659038081765">
        <ele>63.100000000000001</ele>
        <time>2017-06-19T10:36:51Z</time>
      </trkpt>
      <trkpt lat="60.282998979091644" lon="5.402538003399968">
        <ele>62.619999999999997</ele>
        <time>2017-06-19T10:37:04Z</time>
      </trkpt>
      <trkpt lat="60.28359099291265" lon="5.402039028704166">
        <ele>62.619999999999997</ele>
        <time>2017-06-19T10:37:13Z</time>
      </trkpt>
      <trkpt lat="60.284194992855191" lon="5.401073014363647">
        <ele>62.140000000000001</ele>
        <time>2017-06-19T10:37:23Z</time>
      </trkpt>
      <trkpt lat="60.284663960337639" lon="5.399629985913634">
        <ele>64.069999999999993</ele>
        <time>2017-06-19T10:37:39Z</time>
      </trkpt>
      <trkpt lat="60.284917009994388" lon="5.398657014593482">
        <ele>68.390000000000001</ele>
        <time>2017-06-19T10:37:49Z</time>
      </trkpt>
      <trkpt lat="60.285380026325583" lon="5.397228989750147">
        <ele>72.719999999999999</ele>
        <time>2017-06-19T10:38:05Z</time>
      </trkpt>
      <trkpt lat="60.285958964377642" lon="5.396171025931835">
        <ele>78</ele>
        <time>2017-06-19T10:38:20Z</time>
      </trkpt>
      <trkpt lat="60.286376969888806" lon="5.395411038771272">
        <ele>79.930000000000007</ele>
        <time>2017-06-19T10:38:31Z</time>
      </trkpt>
      <trkpt lat="60.286524994298816" lon="5.395060004666448">
        <ele>78.969999999999999</ele>
        <time>2017-06-19T10:38:35Z</time>
      </trkpt>
      <trkpt lat="60.286552989855409" lon="5.394953973591328">
        <ele>78.480000000000004</ele>
        <time>2017-06-19T10:38:36Z</time>
      </trkpt>
      <trkpt lat="60.28687703423202" lon="5.393715966492891">
        <ele>79.450000000000003</ele>
        <time>2017-06-19T10:38:45Z</time>
      </trkpt>
      <trkpt lat="60.2869419939816" lon="5.393576994538307">
        <ele>79.450000000000003</ele>
        <time>2017-06-19T10:38:46Z</time>
      </trkpt>
      <trkpt lat="60.287013994529843" lon="5.393457971513271">
        <ele>79.930000000000007</ele>
        <time>2017-06-19T10:38:47Z</time>
      </trkpt>
      <trkpt lat="60.28709496371448" lon="5.393355963751674">
        <ele>80.890000000000001</ele>
        <time>2017-06-19T10:38:48Z</time>
      </trkpt>
      <trkpt lat="60.28718096204102" lon="5.393266025930643">
        <ele>81.849999999999994</ele>
        <time>2017-06-19T10:38:49Z</time>
      </trkpt>
      <trkpt lat="60.287278024479747" lon="5.393188996240497">
        <ele>82.329999999999998</ele>
        <time>2017-06-19T10:38:50Z</time>
      </trkpt>
      <trkpt lat="60.287893004715443" lon="5.392784988507628">
        <ele>86.180000000000007</ele>
        <time>2017-06-19T10:38:56Z</time>
      </trkpt>
      <trkpt lat="60.288013033568859" lon="5.39276696741581">
        <ele>86.659999999999997</ele>
        <time>2017-06-19T10:38:57Z</time>
      </trkpt>
      <trkpt lat="60.288132978603244" lon="5.392781971022487">
        <ele>87.140000000000001</ele>
        <time>2017-06-19T10:38:58Z</time>
      </trkpt>
      <trkpt lat="60.288246972486377" lon="5.392814995720983">
        <ele>87.140000000000001</ele>
        <time>2017-06-19T10:38:59Z</time>
      </trkpt>
      <trkpt lat="60.288354009389877" lon="5.392880961298943">
        <ele>87.620000000000005</ele>
        <time>2017-06-19T10:39:00Z</time>
      </trkpt>
      <trkpt lat="60.288448976352811" lon="5.392995039001107">
        <ele>89.060000000000002</ele>
        <time>2017-06-19T10:39:01Z</time>
      </trkpt>
      <trkpt lat="60.288542015478015" lon="5.393125964328647">
        <ele>89.540000000000006</ele>
        <time>2017-06-19T10:39:02Z</time>
      </trkpt>
      <trkpt lat="60.28879196383059" lon="5.393501976504922">
        <ele>91.459999999999994</ele>
        <time>2017-06-19T10:39:05Z</time>
      </trkpt>
      <trkpt lat="60.288872011005878" lon="5.393562996760011">
        <ele>91.459999999999994</ele>
        <time>2017-06-19T10:39:06Z</time>
      </trkpt>
      <trkpt lat="60.288951974362135" lon="5.393562996760011">
        <ele>91.939999999999998</ele>
        <time>2017-06-19T10:39:07Z</time>
      </trkpt>
      <trkpt lat="60.289021041244268" lon="5.393497031182051">
        <ele>90.980000000000004</ele>
        <time>2017-06-19T10:39:08Z</time>
      </trkpt>
      <trkpt lat="60.289072003215551" lon="5.39338898845017">
        <ele>90.5</ele>
        <time>2017-06-19T10:39:09Z</time>
      </trkpt>
      <trkpt lat="60.289091030135751" lon="5.393229983747006">
        <ele>90.019999999999996</ele>
        <time>2017-06-19T10:39:10Z</time>
      </trkpt>
      <trkpt lat="60.289073009043932" lon="5.393012976273894">
        <ele>90.980000000000004</ele>
        <time>2017-06-19T10:39:11Z</time>
      </trkpt>
      <trkpt lat="60.289024980738759" lon="5.392717011272907">
        <ele>91.939999999999998</ele>
        <time>2017-06-19T10:39:12Z</time>
      </trkpt>
      <trkpt lat="60.288843009620905" lon="5.390964020043612">
        <ele>97.709999999999994</ele>
        <time>2017-06-19T10:39:18Z</time>
      </trkpt>
      <trkpt lat="60.288840997964144" lon="5.389756020158529">
        <ele>101.56</ele>
        <time>2017-06-19T10:39:23Z</time>
      </trkpt>
      <trkpt lat="60.288866981863976" lon="5.389504982158542">
        <ele>102.52</ele>
        <time>2017-06-19T10:39:24Z</time>
      </trkpt>
      <trkpt lat="60.288935964927077" lon="5.388739965856075">
        <ele>104.92</ele>
        <time>2017-06-19T10:39:27Z</time>
      </trkpt>
      <trkpt lat="60.288934037089348" lon="5.388485994189978">
        <ele>105.88</ele>
        <time>2017-06-19T10:39:28Z</time>
      </trkpt>
      <trkpt lat="60.288905035704374" lon="5.387706980109215">
        <ele>107.81</ele>
        <time>2017-06-19T10:39:31Z</time>
      </trkpt>
      <trkpt lat="60.288931019604206" lon="5.387482009828091">
        <ele>108.77</ele>
        <time>2017-06-19T10:39:32Z</time>
      </trkpt>
      <trkpt lat="60.288992961868644" lon="5.387283023446798">
        <ele>109.73</ele>
        <time>2017-06-19T10:39:33Z</time>
      </trkpt>
      <trkpt lat="60.289078960195184" lon="5.387127958238125">
        <ele>110.69</ele>
        <time>2017-06-19T10:39:34Z</time>
      </trkpt>
      <trkpt lat="60.289183985441923" lon="5.387010024860501">
        <ele>111.65000000000001</ele>
        <time>2017-06-19T10:39:35Z</time>
      </trkpt>
      <trkpt lat="60.289298985153437" lon="5.386914974078536">
        <ele>112.61</ele>
        <time>2017-06-19T10:39:36Z</time>
      </trkpt>
      <trkpt lat="60.289419014006853" lon="5.386832999065518">
        <ele>113.56999999999999</ele>
        <time>2017-06-19T10:39:37Z</time>
      </trkpt>
      <trkpt lat="60.28954298235476" lon="5.386776002123952">
        <ele>114.05</ele>
        <time>2017-06-19T10:39:38Z</time>
      </trkpt>
      <trkpt lat="60.28967097401619" lon="5.38674901239574">
        <ele>114.53</ele>
        <time>2017-06-19T10:39:39Z</time>
      </trkpt>
      <trkpt lat="60.290053021162748" lon="5.386704001575708">
        <ele>116.45999999999999</ele>
        <time>2017-06-19T10:39:42Z</time>
      </trkpt>
      <trkpt lat="60.290167015045881" lon="5.386605011299253">
        <ele>117.42</ele>
        <time>2017-06-19T10:39:43Z</time>
      </trkpt>
      <trkpt lat="60.290262987837195" lon="5.386454975232482">
        <ele>118.38</ele>
        <time>2017-06-19T10:39:44Z</time>
      </trkpt>
      <trkpt lat="60.290339011698961" lon="5.386262023821473">
        <ele>119.34</ele>
        <time>2017-06-19T10:39:45Z</time>
      </trkpt>
      <trkpt lat="60.290390979498625" lon="5.386038981378079">
        <ele>119.81999999999999</ele>
        <time>2017-06-19T10:39:46Z</time>
      </trkpt>
      <trkpt lat="60.290412018075585" lon="5.385793978348374">
        <ele>120.78</ele>
        <time>2017-06-19T10:39:47Z</time>
      </trkpt>
      <trkpt lat="60.290416041389108" lon="5.385543024167419">
        <ele>121.26000000000001</ele>
        <time>2017-06-19T10:39:48Z</time>
      </trkpt>
      <trkpt lat="60.29040195979178" lon="5.385286035016179">
        <ele>121.73999999999999</ele>
        <time>2017-06-19T10:39:49Z</time>
      </trkpt>
      <trkpt lat="60.290370024740696" lon="5.385019993409514">
        <ele>122.22</ele>
        <time>2017-06-19T10:39:50Z</time>
      </trkpt>
      <trkpt lat="60.290339011698961" lon="5.38475101813674">
        <ele>123.19</ele>
        <time>2017-06-19T10:39:51Z</time>
      </trkpt>
      <trkpt lat="60.29016500338912" lon="5.383532959967852">
        <ele>125.59</ele>
        <time>2017-06-19T10:39:56Z</time>
      </trkpt>
      <trkpt lat="60.290157040581107" lon="5.383300026878715">
        <ele>126.06999999999999</ele>
        <time>2017-06-19T10:39:57Z</time>
      </trkpt>
      <trkpt lat="60.290179001167417" lon="5.383077990263701">
        <ele>126.06999999999999</ele>
        <time>2017-06-19T10:39:58Z</time>
      </trkpt>
      <trkpt lat="60.290226023644209" lon="5.382851008325815">
        <ele>127.03</ele>
        <time>2017-06-19T10:39:59Z</time>
      </trkpt>
      <trkpt lat="60.290291989222169" lon="5.382621008902788">
        <ele>127.51000000000001</ele>
        <time>2017-06-19T10:40:00Z</time>
      </trkpt>
      <trkpt lat="60.290369018912315" lon="5.382396960631013">
        <ele>128.47</ele>
        <time>2017-06-19T10:40:01Z</time>
      </trkpt>
      <trkpt lat="60.290459040552378" lon="5.382179031148553">
        <ele>129.43000000000001</ele>
        <time>2017-06-19T10:40:02Z</time>
      </trkpt>
      <trkpt lat="60.290560964494944" lon="5.381970992311835">
        <ele>129.91999999999999</ele>
        <time>2017-06-19T10:40:03Z</time>
      </trkpt>
      <trkpt lat="60.290677975863218" lon="5.381779968738556">
        <ele>130.88</ele>
        <time>2017-06-19T10:40:04Z</time>
      </trkpt>
      <trkpt lat="60.290804961696267" lon="5.381609983742237">
        <ele>131.84</ele>
        <time>2017-06-19T10:40:05Z</time>
      </trkpt>
      <trkpt lat="60.290935970842838" lon="5.381457014009357">
        <ele>132.31999999999999</ele>
        <time>2017-06-19T10:40:06Z</time>
      </trkpt>
      <trkpt lat="60.29106798581779" lon="5.381340002641082">
        <ele>133.28</ele>
        <time>2017-06-19T10:40:07Z</time>
      </trkpt>
      <trkpt lat="60.291195977479219" lon="5.381223997101188">
        <ele>134.24000000000001</ele>
        <time>2017-06-19T10:40:08Z</time>
      </trkpt>
      <trkpt lat="60.29265602119267" lon="5.380509020760655">
        <ele>141.44999999999999</ele>
        <time>2017-06-19T10:40:19Z</time>
      </trkpt>
      <trkpt lat="60.293649025261402" lon="5.38088302128017">
        <ele>148.18000000000001</ele>
        <time>2017-06-19T10:40:27Z</time>
      </trkpt>
      <trkpt lat="60.294646974653006" lon="5.381617024540901">
        <ele>152.50999999999999</ele>
        <time>2017-06-19T10:40:35Z</time>
      </trkpt>
      <trkpt lat="60.294779995456338" lon="5.381663963198662">
        <ele>152.50999999999999</ele>
        <time>2017-06-19T10:40:36Z</time>
      </trkpt>
      <trkpt lat="60.294911004602909" lon="5.381676033139229">
        <ele>152.03</ele>
        <time>2017-06-19T10:40:37Z</time>
      </trkpt>
      <trkpt lat="60.295040002092719" lon="5.381673015654087">
        <ele>151.53999999999999</ele>
        <time>2017-06-19T10:40:38Z</time>
      </trkpt>
      <trkpt lat="60.29517101123929" lon="5.381635967642069">
        <ele>151.06</ele>
        <time>2017-06-19T10:40:39Z</time>
      </trkpt>
      <trkpt lat="60.296723004430532" lon="5.381332039833069">
        <ele>149.62</ele>
        <time>2017-06-19T10:40:52Z</time>
      </trkpt>
      <trkpt lat="60.298625025898218" lon="5.380902970209718">
        <ele>148.18000000000001</ele>
        <time>2017-06-19T10:41:07Z</time>
      </trkpt>
      <trkpt lat="60.298731978982687" lon="5.380803979933262">
        <ele>148.18000000000001</ele>
        <time>2017-06-19T10:41:08Z</time>
      </trkpt>
      <trkpt lat="60.298833986744285" lon="5.380680011585355">
        <ele>147.69999999999999</ele>
        <time>2017-06-19T10:41:09Z</time>
      </trkpt>
      <trkpt lat="60.298927025869489" lon="5.380533998832107">
        <ele>146.74000000000001</ele>
        <time>2017-06-19T10:41:10Z</time>
      </trkpt>
      <trkpt lat="60.299010006710887" lon="5.38036996498704">
        <ele>146.25999999999999</ele>
        <time>2017-06-19T10:41:11Z</time>
      </trkpt>
      <trkpt lat="60.299085024744272" lon="5.380201991647482">
        <ele>145.30000000000001</ele>
        <time>2017-06-19T10:41:12Z</time>
      </trkpt>
      <trkpt lat="60.299158031120896" lon="5.380031000822783">
        <ele>144.34</ele>
        <time>2017-06-19T10:41:13Z</time>
      </trkpt>
      <trkpt lat="60.29989798553288" lon="5.378138031810522">
        <ele>135.19999999999999</ele>
        <time>2017-06-19T10:41:23Z</time>
      </trkpt>
      <trkpt lat="60.30032797716558" lon="5.376817965880036">
        <ele>130.40000000000001</ele>
        <time>2017-06-19T10:41:30Z</time>
      </trkpt>
      <trkpt lat="60.300366031005979" lon="5.376596013084054">
        <ele>129.91999999999999</ele>
        <time>2017-06-19T10:41:31Z</time>
      </trkpt>
      <trkpt lat="60.300399977713823" lon="5.376376993954182">
        <ele>129.43000000000001</ele>
        <time>2017-06-19T10:41:32Z</time>
      </trkpt>
      <trkpt lat="60.30065000988543" lon="5.374125028029084">
        <ele>123.19</ele>
        <time>2017-06-19T10:41:41Z</time>
      </trkpt>
      <trkpt lat="60.30131503008306" lon="5.372465997934341">
        <ele>116.45999999999999</ele>
        <time>2017-06-19T10:41:48Z</time>
      </trkpt>
      <trkpt lat="60.302278026938438" lon="5.370686016976833">
        <ele>108.77</ele>
        <time>2017-06-19T10:41:57Z</time>
      </trkpt>
      <trkpt lat="60.302358996123075" lon="5.370451994240284">
        <ele>107.81</ele>
        <time>2017-06-19T10:41:58Z</time>
      </trkpt>
      <trkpt lat="60.302425967529416" lon="5.370189975947142">
        <ele>106.84</ele>
        <time>2017-06-19T10:41:59Z</time>
      </trkpt>
      <trkpt lat="60.302479024976492" lon="5.369911026209593">
        <ele>106.36</ele>
        <time>2017-06-19T10:42:00Z</time>
      </trkpt>
      <trkpt lat="60.302516994997859" lon="5.36962503567338">
        <ele>105.88</ele>
        <time>2017-06-19T10:42:01Z</time>
      </trkpt>
      <trkpt lat="60.302548008039594" lon="5.369337033480406">
        <ele>104.92</ele>
        <time>2017-06-19T10:42:02Z</time>
      </trkpt>
      <trkpt lat="60.302617996931076" lon="5.368753988295794">
        <ele>103</ele>
        <time>2017-06-19T10:42:04Z</time>
      </trkpt>
      <trkpt lat="60.302672982215881" lon="5.36848995834589">
        <ele>102.04000000000001</ele>
        <time>2017-06-19T10:42:05Z</time>
      </trkpt>
      <trkpt lat="60.302742971107364" lon="5.368245039135218">
        <ele>101.08</ele>
        <time>2017-06-19T10:42:06Z</time>
      </trkpt>
      <trkpt lat="60.302829975262284" lon="5.368020990863442">
        <ele>100.59999999999999</ele>
        <time>2017-06-19T10:42:07Z</time>
      </trkpt>
      <trkpt lat="60.30292603187263" lon="5.367813035845757">
        <ele>100.11</ele>
        <time>2017-06-19T10:42:08Z</time>
      </trkpt>
      <trkpt lat="60.303031979128718" lon="5.367624023929238">
        <ele>99.150000000000006</ele>
        <time>2017-06-19T10:42:09Z</time>
      </trkpt>
      <trkpt lat="60.303137004375458" lon="5.367449009791017">
        <ele>98.670000000000002</ele>
        <time>2017-06-19T10:42:10Z</time>
      </trkpt>
      <trkpt lat="60.304550025612116" lon="5.36558797582984">
        <ele>87.140000000000001</ele>
        <time>2017-06-19T10:42:23Z</time>
      </trkpt>
      <trkpt lat="60.304750017821789" lon="5.365292010828853">
        <ele>85.209999999999994</ele>
        <time>2017-06-19T10:42:25Z</time>
      </trkpt>
      <trkpt lat="60.304830987006426" lon="5.365110961720347">
        <ele>84.730000000000004</ele>
        <time>2017-06-19T10:42:26Z</time>
      </trkpt>
      <trkpt lat="60.304895024746656" lon="5.364906024187803">
        <ele>83.769999999999996</ele>
        <time>2017-06-19T10:42:27Z</time>
      </trkpt>
      <trkpt lat="60.304935006424785" lon="5.364673007279635">
        <ele>82.810000000000002</ele>
        <time>2017-06-19T10:42:28Z</time>
      </trkpt>
      <trkpt lat="60.304955961182714" lon="5.364421969279647">
        <ele>81.849999999999994</ele>
        <time>2017-06-19T10:42:29Z</time>
      </trkpt>
      <trkpt lat="60.304954033344984" lon="5.364166991785169">
        <ele>80.890000000000001</ele>
        <time>2017-06-19T10:42:30Z</time>
      </trkpt>
      <trkpt lat="60.304935006424785" lon="5.363921988755465">
        <ele>80.409999999999997</ele>
        <time>2017-06-19T10:42:31Z</time>
      </trkpt>
      <trkpt lat="60.304912962019444" lon="5.363691989332438">
        <ele>79.930000000000007</ele>
        <time>2017-06-19T10:42:32Z</time>
      </trkpt>
      <trkpt lat="60.304896030575037" lon="5.363306002691388">
        <ele>78.480000000000004</ele>
        <time>2017-06-19T10:42:34Z</time>
      </trkpt>
      <trkpt lat="60.304911034181714" lon="5.363154960796237">
        <ele>77.519999999999996</ele>
        <time>2017-06-19T10:42:35Z</time>
      </trkpt>
      <trkpt lat="60.304941041395068" lon="5.363035015761852">
        <ele>77.040000000000006</ele>
        <time>2017-06-19T10:42:36Z</time>
      </trkpt>
      <trkpt lat="60.30498999170959" lon="5.362959997728467">
        <ele>76.560000000000002</ele>
        <time>2017-06-19T10:42:37Z</time>
      </trkpt>
      <trkpt lat="60.305051011964679" lon="5.362928984686732">
        <ele>76.560000000000002</ele>
        <time>2017-06-19T10:42:38Z</time>
      </trkpt>
      <trkpt lat="60.305113960057497" lon="5.362949017435312">
        <ele>76.079999999999998</ele>
        <time>2017-06-19T10:42:39Z</time>
      </trkpt>
      <trkpt lat="60.305175986140966" lon="5.363023029640317">
        <ele>75.599999999999994</ele>
        <time>2017-06-19T10:42:40Z</time>
      </trkpt>
      <trkpt lat="60.305242035537958" lon="5.363134006038308">
        <ele>75.599999999999994</ele>
        <time>2017-06-19T10:42:41Z</time>
      </trkpt>
      <trkpt lat="60.305310012772679" lon="5.363261997699738">
        <ele>74.640000000000001</ele>
        <time>2017-06-19T10:42:42Z</time>
      </trkpt>
      <trkpt lat="60.305381007492542" lon="5.363403987139463">
        <ele>74.159999999999997</ele>
        <time>2017-06-19T10:42:43Z</time>
      </trkpt>
      <trkpt lat="60.306219030171633" lon="5.36453302949667">
        <ele>72.239999999999995</ele>
        <time>2017-06-19T10:42:52Z</time>
      </trkpt>
      <trkpt lat="60.306418016552925" lon="5.364610981196165">
        <ele>71.269999999999996</ele>
        <time>2017-06-19T10:42:54Z</time>
      </trkpt>
      <trkpt lat="60.30743801034987" lon="5.364379975944758">
        <ele>65.030000000000001</ele>
        <time>2017-06-19T10:43:03Z</time>
      </trkpt>
      <trkpt lat="60.308649027720094" lon="5.363241964951158">
        <ele>58.299999999999997</ele>
        <time>2017-06-19T10:43:13Z</time>
      </trkpt>
      <trkpt lat="60.309943025931716" lon="5.361472964286804">
        <ele>54.93</ele>
        <time>2017-06-19T10:43:25Z</time>
      </trkpt>
      <trkpt lat="60.311291003599763" lon="5.359916025772691">
        <ele>51.57</ele>
        <time>2017-06-19T10:43:38Z</time>
      </trkpt>
      <trkpt lat="60.312463967129588" lon="5.35828398540616">
        <ele>43.880000000000003</ele>
        <time>2017-06-19T10:43:50Z</time>
      </trkpt>
      <trkpt lat="60.31255298294127" lon="5.358225982636213">
        <ele>43.399999999999999</ele>
        <time>2017-06-19T10:43:51Z</time>
      </trkpt>
      <trkpt lat="60.312635963782668" lon="5.358206033706665">
        <ele>42.920000000000002</ele>
        <time>2017-06-19T10:43:52Z</time>
      </trkpt>
      <trkpt lat="60.312717016786337" lon="5.358226988464594">
        <ele>42.439999999999998</ele>
        <time>2017-06-19T10:43:53Z</time>
      </trkpt>
      <trkpt lat="60.312801003456116" lon="5.358279962092638">
        <ele>41.950000000000003</ele>
        <time>2017-06-19T10:43:54Z</time>
      </trkpt>
      <trkpt lat="60.312884990125895" lon="5.35834601148963">
        <ele>41.950000000000003</ele>
        <time>2017-06-19T10:43:55Z</time>
      </trkpt>
      <trkpt lat="60.31313200481236" lon="5.358422035351396">
        <ele>40.990000000000002</ele>
        <time>2017-06-19T10:43:58Z</time>
      </trkpt>
      <trkpt lat="60.313205011188984" lon="5.358374007046223">
        <ele>41.469999999999999</ele>
        <time>2017-06-19T10:43:59Z</time>
      </trkpt>
      <trkpt lat="60.31326200813055" lon="5.358281973749399">
        <ele>40.509999999999998</ele>
        <time>2017-06-19T10:44:00Z</time>
      </trkpt>
      <trkpt lat="60.31330500729382" lon="5.358145013451576">
        <ele>40.990000000000002</ele>
        <time>2017-06-19T10:44:01Z</time>
      </trkpt>
      <trkpt lat="60.313333002850413" lon="5.35798299126327">
        <ele>40.509999999999998</ele>
        <time>2017-06-19T10:44:02Z</time>
      </trkpt>
      <trkpt lat="60.313341971486807" lon="5.357800014317036">
        <ele>40.509999999999998</ele>
        <time>2017-06-19T10:44:03Z</time>
      </trkpt>
      <trkpt lat="60.313343983143568" lon="5.35761603154242">
        <ele>40.030000000000001</ele>
        <time>2017-06-19T10:44:04Z</time>
      </trkpt>
      <trkpt lat="60.313342977315187" lon="5.357413021847606">
        <ele>39.549999999999997</ele>
        <time>2017-06-19T10:44:05Z</time>
      </trkpt>
      <trkpt lat="60.313396034762263" lon="5.355874020606279">
        <ele>37.149999999999999</ele>
        <time>2017-06-19T10:44:15Z</time>
      </trkpt>
      <trkpt lat="60.313422018662095" lon="5.355736976489425">
        <ele>36.670000000000002</ele>
        <time>2017-06-19T10:44:16Z</time>
      </trkpt>
      <trkpt lat="60.313465017825365" lon="5.355613008141518">
        <ele>36.189999999999998</ele>
        <time>2017-06-19T10:44:17Z</time>
      </trkpt>
      <trkpt lat="60.313526960089803" lon="5.355512006208301">
        <ele>35.710000000000001</ele>
        <time>2017-06-19T10:44:18Z</time>
      </trkpt>
      <trkpt lat="60.313603989779949" lon="5.355441011488438">
        <ele>35.229999999999997</ele>
        <time>2017-06-19T10:44:19Z</time>
      </trkpt>
      <trkpt lat="60.313684036955237" lon="5.355405975133181">
        <ele>35.229999999999997</ele>
        <time>2017-06-19T10:44:20Z</time>
      </trkpt>
      <trkpt lat="60.3137550316751" lon="5.355398012325168">
        <ele>35.229999999999997</ele>
        <time>2017-06-19T10:44:21Z</time>
      </trkpt>
      <trkpt lat="60.313824014738202" lon="5.355415027588606">
        <ele>35.710000000000001</ele>
        <time>2017-06-19T10:44:22Z</time>
      </trkpt>
      <trkpt lat="60.313892997801304" lon="5.355433970689774">
        <ele>36.189999999999998</ele>
        <time>2017-06-19T10:44:23Z</time>
      </trkpt>
      <trkpt lat="60.31422802247107" lon="5.355442017316818">
        <ele>37.630000000000003</ele>
        <time>2017-06-19T10:44:28Z</time>
      </trkpt>
      <trkpt lat="60.314291976392269" lon="5.355456015095115">
        <ele>37.149999999999999</ele>
        <time>2017-06-19T10:44:29Z</time>
      </trkpt>
      <trkpt lat="60.314355008304119" lon="5.355492979288101">
        <ele>37.149999999999999</ele>
        <time>2017-06-19T10:44:30Z</time>
      </trkpt>
      <trkpt lat="60.314404964447021" lon="5.355562968179584">
        <ele>36.670000000000002</ele>
        <time>2017-06-19T10:44:31Z</time>
      </trkpt>
      <trkpt lat="60.314447963610291" lon="5.355648966506124">
        <ele>36.670000000000002</ele>
        <time>2017-06-19T10:44:32Z</time>
      </trkpt>
      <trkpt lat="60.314484005793929" lon="5.355736976489425">
        <ele>36.670000000000002</ele>
        <time>2017-06-19T10:44:33Z</time>
      </trkpt>
      <trkpt lat="60.314517030492425" lon="5.355834038928151">
        <ele>36.189999999999998</ele>
        <time>2017-06-19T10:44:34Z</time>
      </trkpt>
      <trkpt lat="60.31455097720027" lon="5.355941997841001">
        <ele>36.189999999999998</ele>
        <time>2017-06-19T10:44:35Z</time>
      </trkpt>
      <trkpt lat="60.314695984125137" lon="5.356398979201913">
        <ele>34.259999999999998</ele>
        <time>2017-06-19T10:44:39Z</time>
      </trkpt>
      <trkpt lat="60.31474300660193" lon="5.356470979750156">
        <ele>33.299999999999997</ele>
        <time>2017-06-19T10:44:40Z</time>
      </trkpt>
      <trkpt lat="60.314798997715116" lon="5.356505010277033">
        <ele>33.299999999999997</ele>
        <time>2017-06-19T10:44:41Z</time>
      </trkpt>
      <trkpt lat="60.314855994656682" lon="5.356484977528453">
        <ele>32.82</ele>
        <time>2017-06-19T10:44:42Z</time>
      </trkpt>
      <trkpt lat="60.314911985769868" lon="5.356427980586886">
        <ele>32.340000000000003</ele>
        <time>2017-06-19T10:44:43Z</time>
      </trkpt>
      <trkpt lat="60.31495900824666" lon="5.356319015845656">
        <ele>32.82</ele>
        <time>2017-06-19T10:44:44Z</time>
      </trkpt>
      <trkpt lat="60.315004019066691" lon="5.356179038062692">
        <ele>32.340000000000003</ele>
        <time>2017-06-19T10:44:45Z</time>
      </trkpt>
      <trkpt lat="60.315427975729108" lon="5.354641964659095">
        <ele>30.899999999999999</ele>
        <time>2017-06-19T10:44:53Z</time>
      </trkpt>
      <trkpt lat="60.318541014567018" lon="5.342357028275728">
        <ele>16.960000000000001</ele>
        <time>2017-06-19T10:45:37Z</time>
      </trkpt>
      <trkpt lat="60.324292005971074" lon="5.336777027696371">
        <ele>5.91</ele>
        <time>2017-06-19T10:46:18Z</time>
      </trkpt>
      <trkpt lat="60.324398037046194" lon="5.336824972182512">
        <ele>7.35</ele>
        <time>2017-06-19T10:46:19Z</time>
      </trkpt>
      <trkpt lat="60.324696013703942" lon="5.337268961593509">
        <ele>8.789999999999999</ele>
        <time>2017-06-19T10:46:26Z</time>
      </trkpt>
      <trkpt lat="60.324792992323637" lon="5.337560987100005">
        <ele>12.15</ele>
        <time>2017-06-19T10:46:35Z</time>
      </trkpt>
      <trkpt lat="60.324882008135319" lon="5.337818982079625">
        <ele>12.15</ele>
        <time>2017-06-19T10:46:37Z</time>
      </trkpt>
      <trkpt lat="60.324951997026801" lon="5.337910009548068">
        <ele>11.67</ele>
        <time>2017-06-19T10:46:38Z</time>
      </trkpt>
      <trkpt lat="60.32503598369658" lon="5.337970023974776">
        <ele>11.19</ele>
        <time>2017-06-19T10:46:39Z</time>
      </trkpt>
      <trkpt lat="60.325300013646483" lon="5.338182002305985">
        <ele>10.710000000000001</ele>
        <time>2017-06-19T10:46:42Z</time>
      </trkpt>
      <trkpt lat="60.325394980609417" lon="5.338262971490622">
        <ele>10.710000000000001</ele>
        <time>2017-06-19T10:46:43Z</time>
      </trkpt>
      <trkpt lat="60.325491959229112" lon="5.33832298591733">
        <ele>10.23</ele>
        <time>2017-06-19T10:46:44Z</time>
      </trkpt>
      <trkpt lat="60.325598996132612" lon="5.338342012837529">
        <ele>9.27</ele>
        <time>2017-06-19T10:46:45Z</time>
      </trkpt>
      <trkpt lat="60.325707038864493" lon="5.338310999795795">
        <ele>9.27</ele>
        <time>2017-06-19T10:46:46Z</time>
      </trkpt>
      <trkpt lat="60.32581097446382" lon="5.338246962055564">
        <ele>8.310000000000001</ele>
        <time>2017-06-19T10:46:47Z</time>
      </trkpt>
      <trkpt lat="60.325921028852463" lon="5.338139003142715">
        <ele>7.83</ele>
        <time>2017-06-19T10:46:48Z</time>
      </trkpt>
      <trkpt lat="60.326023958623409" lon="5.338011011481285">
        <ele>6.39</ele>
        <time>2017-06-19T10:46:49Z</time>
      </trkpt>
      <trkpt lat="60.326256975531578" lon="5.337800960987806">
        <ele>4.94</ele>
        <time>2017-06-19T10:46:51Z</time>
      </trkpt>
      <trkpt lat="60.326382033526897" lon="5.337732983753085">
        <ele>4.46</ele>
        <time>2017-06-19T10:46:52Z</time>
      </trkpt>
      <trkpt lat="60.326513964682817" lon="5.337681015953422">
        <ele>3.98</ele>
        <time>2017-06-19T10:46:53Z</time>
      </trkpt>
      <trkpt lat="60.326654026284814" lon="5.337647991254926">
        <ele>3.5</ele>
        <time>2017-06-19T10:46:54Z</time>
      </trkpt>
      <trkpt lat="60.326803978532553" lon="5.337637010961771">
        <ele>3.02</ele>
        <time>2017-06-19T10:46:55Z</time>
      </trkpt>
      <trkpt lat="60.326955020427704" lon="5.337644973769784">
        <ele>3.02</ele>
        <time>2017-06-19T10:46:56Z</time>
      </trkpt>
      <trkpt lat="60.327113019302487" lon="5.337673975154758">
        <ele>2.54</ele>
        <time>2017-06-19T10:46:57Z</time>
      </trkpt>
      <trkpt lat="60.32909600995481" lon="5.338191976770759">
        <ele>0.62</ele>
        <time>2017-06-19T10:47:08Z</time>
      </trkpt>
      <trkpt lat="60.33219002187252" lon="5.338488025590777">
        <ele>4.94</ele>
        <time>2017-06-19T10:47:24Z</time>
      </trkpt>
      <trkpt lat="60.335413031280041" lon="5.33802199177444">
        <ele>3.02</ele>
        <time>2017-06-19T10:47:41Z</time>
      </trkpt>
      <trkpt lat="60.338318031281233" lon="5.337188998237252">
        <ele>2.54</ele>
        <time>2017-06-19T10:47:56Z</time>
      </trkpt>
      <trkpt lat="60.339898020029068" lon="5.337602980434895">
        <ele>4.46</ele>
        <time>2017-06-19T10:48:04Z</time>
      </trkpt>
      <trkpt lat="60.342374034225941" lon="5.339164026081562">
        <ele>6.87</ele>
        <time>2017-06-19T10:48:17Z</time>
      </trkpt>
      <trkpt lat="60.343860983848572" lon="5.339233009144664">
        <ele>6.39</ele>
        <time>2017-06-19T10:48:25Z</time>
      </trkpt>
      <trkpt lat="60.34549000672996" lon="5.338361961767077">
        <ele>5.91</ele>
        <time>2017-06-19T10:48:34Z</time>
      </trkpt>
      <trkpt lat="60.346938986331224" lon="5.337366024032235">
        <ele>5.91</ele>
        <time>2017-06-19T10:48:43Z</time>
      </trkpt>
      <trkpt lat="60.348861962556839" lon="5.337272984907031">
        <ele>11.19</ele>
        <time>2017-06-19T10:48:55Z</time>
      </trkpt>
      <trkpt lat="60.350251011550426" lon="5.337825017049909">
        <ele>17.440000000000001</ele>
        <time>2017-06-19T10:49:04Z</time>
      </trkpt>
      <trkpt lat="60.352137023583055" lon="5.338310999795795">
        <ele>16.48</ele>
        <time>2017-06-19T10:49:17Z</time>
      </trkpt>
      <trkpt lat="60.354166030883789" lon="5.339205013588071">
        <ele>16.960000000000001</ele>
        <time>2017-06-19T10:49:32Z</time>
      </trkpt>
      <trkpt lat="60.355744007974863" lon="5.340357022359967">
        <ele>20.809999999999999</ele>
        <time>2017-06-19T10:49:45Z</time>
      </trkpt>
      <trkpt lat="60.355964032933116" lon="5.340542010962963">
        <ele>21.289999999999999</ele>
        <time>2017-06-19T10:49:48Z</time>
      </trkpt>
      <trkpt lat="60.356035027652979" lon="5.340561959892511">
        <ele>20.32</ele>
        <time>2017-06-19T10:49:49Z</time>
      </trkpt>
      <trkpt lat="60.356112979352474" lon="5.340541005134583">
        <ele>20.32</ele>
        <time>2017-06-19T10:49:50Z</time>
      </trkpt>
      <trkpt lat="60.356369968503714" lon="5.340498005971313">
        <ele>21.289999999999999</ele>
        <time>2017-06-19T10:49:53Z</time>
      </trkpt>
      <trkpt lat="60.356466025114059" lon="5.340532958507538">
        <ele>21.289999999999999</ele>
        <time>2017-06-19T10:49:54Z</time>
      </trkpt>
      <trkpt lat="60.357896983623505" lon="5.341285988688469">
        <ele>25.129999999999999</ele>
        <time>2017-06-19T10:50:07Z</time>
      </trkpt>
      <trkpt lat="60.359931020066142" lon="5.342434979975224">
        <ele>27.530000000000001</ele>
        <time>2017-06-19T10:50:24Z</time>
      </trkpt>
      <trkpt lat="60.36134596914053" lon="5.34319999627769">
        <ele>30.420000000000002</ele>
        <time>2017-06-19T10:50:36Z</time>
      </trkpt>
      <trkpt lat="60.362159013748169" lon="5.343593023717403">
        <ele>25.129999999999999</ele>
        <time>2017-06-19T10:50:42Z</time>
      </trkpt>
      <trkpt lat="60.362319024279714" lon="5.343668041750789">
        <ele>24.170000000000002</ele>
        <time>2017-06-19T10:50:43Z</time>
      </trkpt>
      <trkpt lat="60.36248398013413" lon="5.343694025650621">
        <ele>23.210000000000001</ele>
        <time>2017-06-19T10:50:44Z</time>
      </trkpt>
      <trkpt lat="60.362642984837294" lon="5.343654965981841">
        <ele>22.73</ele>
        <time>2017-06-19T10:50:45Z</time>
      </trkpt>
      <trkpt lat="60.362777011469007" lon="5.343598974868655">
        <ele>22.25</ele>
        <time>2017-06-19T10:50:46Z</time>
      </trkpt>
      <trkpt lat="60.365014979615808" lon="5.342987012118101">
        <ele>24.170000000000002</ele>
        <time>2017-06-19T10:51:01Z</time>
      </trkpt>
      <trkpt lat="60.366468988358974" lon="5.342207998037338">
        <ele>23.690000000000001</ele>
        <time>2017-06-19T10:51:11Z</time>
      </trkpt>
      <trkpt lat="60.369039969518781" lon="5.340947024524212">
        <ele>20.809999999999999</ele>
        <time>2017-06-19T10:51:29Z</time>
      </trkpt>
      <trkpt lat="60.371071994304657" lon="5.340434974059463">
        <ele>18.399999999999999</ele>
        <time>2017-06-19T10:51:44Z</time>
      </trkpt>
      <trkpt lat="60.371237033978105" lon="5.340405972674489">
        <ele>17.920000000000002</ele>
        <time>2017-06-19T10:51:49Z</time>
      </trkpt>
      <trkpt lat="60.371451023966074" lon="5.340348975732923">
        <ele>16.960000000000001</ele>
        <time>2017-06-19T10:52:15Z</time>
      </trkpt>
      <trkpt lat="60.372493984177709" lon="5.340088969096541">
        <ele>14.56</ele>
        <time>2017-06-19T10:52:24Z</time>
      </trkpt>
      <trkpt lat="60.373986968770623" lon="5.340060973539949">
        <ele>14.08</ele>
        <time>2017-06-19T10:52:36Z</time>
      </trkpt>
      <trkpt lat="60.374563978984952" lon="5.340178990736604">
        <ele>12.15</ele>
        <time>2017-06-19T10:52:41Z</time>
      </trkpt>
      <trkpt lat="60.374659029766917" lon="5.340157030150294">
        <ele>11.67</ele>
        <time>2017-06-19T10:52:42Z</time>
      </trkpt>
      <trkpt lat="60.374764977023005" lon="5.340124005451798">
        <ele>10.23</ele>
        <time>2017-06-19T10:52:43Z</time>
      </trkpt>
      <trkpt lat="60.374948959797621" lon="5.340001964941621">
        <ele>8.789999999999999</ele>
        <time>2017-06-19T10:52:45Z</time>
      </trkpt>
      <trkpt lat="60.375726968050003" lon="5.33939897082746">
        <ele>4.46</ele>
        <time>2017-06-19T10:52:53Z</time>
      </trkpt>
      <trkpt lat="60.377083998173475" lon="5.338135985657573">
        <ele>6.39</ele>
        <time>2017-06-19T10:53:07Z</time>
      </trkpt>
      <trkpt lat="60.378757026046515" lon="5.336255002766848">
        <ele>8.789999999999999</ele>
        <time>2017-06-19T10:53:21Z</time>
      </trkpt>
      <trkpt lat="60.380264008417726" lon="5.335184969007969">
        <ele>11.67</ele>
        <time>2017-06-19T10:53:33Z</time>
      </trkpt>
      <trkpt lat="60.381639981642365" lon="5.335229979828">
        <ele>9.75</ele>
        <time>2017-06-19T10:53:43Z</time>
      </trkpt>
      <trkpt lat="60.383451981469989" lon="5.335904974490404">
        <ele>10.23</ele>
        <time>2017-06-19T10:53:56Z</time>
      </trkpt>
      <trkpt lat="60.384405003860593" lon="5.336176967248321">
        <ele>6.87</ele>
        <time>2017-06-19T10:54:03Z</time>
      </trkpt>
      <trkpt lat="60.384534001350403" lon="5.336138997226954">
        <ele>5.91</ele>
        <time>2017-06-19T10:54:04Z</time>
      </trkpt>
      <trkpt lat="60.384659981355071" lon="5.336058028042316">
        <ele>3.98</ele>
        <time>2017-06-19T10:54:05Z</time>
      </trkpt>
      <trkpt lat="60.384777998551726" lon="5.335930036380887">
        <ele>3.5</ele>
        <time>2017-06-19T10:54:06Z</time>
      </trkpt>
      <trkpt lat="60.384898027405143" lon="5.335753010585904">
        <ele>3.02</ele>
        <time>2017-06-19T10:54:07Z</time>
      </trkpt>
      <trkpt lat="60.38499902933836" lon="5.335571961477399">
        <ele>3.5</ele>
        <time>2017-06-19T10:54:08Z</time>
      </trkpt>
      <trkpt lat="60.385092990472913" lon="5.335389990359545">
        <ele>4.46</ele>
        <time>2017-06-19T10:54:09Z</time>
      </trkpt>
      <trkpt lat="60.385187035426497" lon="5.335200978443027">
        <ele>3.98</ele>
        <time>2017-06-19T10:54:10Z</time>
      </trkpt>
      <trkpt lat="60.385287031531334" lon="5.33505697734654">
        <ele>3.5</ele>
        <time>2017-06-19T10:54:11Z</time>
      </trkpt>
      <trkpt lat="60.38538702763617" lon="5.334909036755562">
        <ele>3.5</ele>
        <time>2017-06-19T10:54:12Z</time>
      </trkpt>
      <trkpt lat="60.385479982942343" lon="5.334806023165584">
        <ele>3.5</ele>
        <time>2017-06-19T10:54:13Z</time>
      </trkpt>
      <trkpt lat="60.385571010410786" lon="5.334717007353902">
        <ele>3.5</ele>
        <time>2017-06-19T10:54:14Z</time>
      </trkpt>
      <trkpt lat="60.386077025905252" lon="5.334457000717521">
        <ele>3.02</ele>
        <time>2017-06-19T10:54:22Z</time>
      </trkpt>
      <trkpt lat="60.38687095977366" lon="5.334116024896503">
        <ele>2.54</ele>
        <time>2017-06-19T10:54:32Z</time>
      </trkpt>
      <trkpt lat="60.387488035485148" lon="5.333673963323236">
        <ele>6.87</ele>
        <time>2017-06-19T10:54:42Z</time>
      </trkpt>
      <trkpt lat="60.388254979625344" lon="5.332570988684893">
        <ele>19.359999999999999</ele>
        <time>2017-06-19T10:54:53Z</time>
      </trkpt>
      <trkpt lat="60.388861997053027" lon="5.33166297711432">
        <ele>23.210000000000001</ele>
        <time>2017-06-19T10:55:03Z</time>
      </trkpt>
      <trkpt lat="60.389401037245989" lon="5.331003991886973">
        <ele>24.649999999999999</ele>
        <time>2017-06-19T10:55:12Z</time>
      </trkpt>
      <trkpt lat="60.389435989782214" lon="5.330918999388814">
        <ele>25.129999999999999</ele>
        <time>2017-06-19T10:55:13Z</time>
      </trkpt>
      <trkpt lat="60.389459962025285" lon="5.330810034647584">
        <ele>25.129999999999999</ele>
        <time>2017-06-19T10:55:14Z</time>
      </trkpt>
      <trkpt lat="60.389461973682046" lon="5.330693023279309">
        <ele>24.649999999999999</ele>
        <time>2017-06-19T10:55:15Z</time>
      </trkpt>
      <trkpt lat="60.389443030580878" lon="5.330596966668963">
        <ele>22.25</ele>
        <time>2017-06-19T10:55:16Z</time>
      </trkpt>
      <trkpt lat="60.389411011710763" lon="5.330523038282991">
        <ele>21.77</ele>
        <time>2017-06-19T10:55:17Z</time>
      </trkpt>
      <trkpt lat="60.389363989233971" lon="5.330451959744096">
        <ele>21.289999999999999</ele>
        <time>2017-06-19T10:55:18Z</time>
      </trkpt>
    </trkseg>
  </trk>

  <trk>
    <name>Track vom: 19 JUN 2017 12:55</name>
    <extensions>
      <gpxx:TrackExtension>
        <gpxx:DisplayColor>DarkGray</gpxx:DisplayColor>
      </gpxx:TrackExtension>
    </extensions>
    <trkseg>
      <trkpt lat="60.389315038919449" lon="5.330370990559459">
        <ele>20.809999999999999</ele>
        <time>2017-06-19T10:55:19Z</time>
      </trkpt>
      <trkpt lat="60.389260975643992" lon="5.330304019153118">
        <ele>20.32</ele>
        <time>2017-06-19T10:55:20Z</time>
      </trkpt>
      <trkpt lat="60.388994012027979" lon="5.329918032512069">
        <ele>17.920000000000002</ele>
        <time>2017-06-19T10:55:29Z</time>
      </trkpt>
      <trkpt lat="60.388960987329483" lon="5.329774031415582">
        <ele>15.52</ele>
        <time>2017-06-19T10:55:45Z</time>
      </trkpt>
      <trkpt lat="60.38895302452147" lon="5.329637993127108">
        <ele>14.56</ele>
        <time>2017-06-19T10:55:46Z</time>
      </trkpt>
      <trkpt lat="60.388959981501102" lon="5.329497009515762">
        <ele>14.08</ele>
        <time>2017-06-19T10:55:47Z</time>
      </trkpt>
      <trkpt lat="60.388979008421302" lon="5.329362982884049">
        <ele>14.56</ele>
        <time>2017-06-19T10:55:48Z</time>
      </trkpt>
      <trkpt lat="60.388997029513121" lon="5.329245971515775">
        <ele>14.56</ele>
        <time>2017-06-19T10:55:49Z</time>
      </trkpt>
      <trkpt lat="60.389071041718125" lon="5.328830983489752">
        <ele>16</ele>
        <time>2017-06-19T10:55:55Z</time>
      </trkpt>
      <trkpt lat="60.389268016442657" lon="5.327853988856077">
        <ele>19.359999999999999</ele>
        <time>2017-06-19T10:56:03Z</time>
      </trkpt>
      <trkpt lat="60.389640005305409" lon="5.326116001233459">
        <ele>21.77</ele>
        <time>2017-06-19T10:56:15Z</time>
      </trkpt>
      <trkpt lat="60.389937981963158" lon="5.324817979708314">
        <ele>21.289999999999999</ele>
        <time>2017-06-19T10:56:25Z</time>
      </trkpt>
      <trkpt lat="60.3900480363518" lon="5.324446996673942">
        <ele>17.440000000000001</ele>
        <time>2017-06-19T10:56:34Z</time>
      </trkpt>
      <trkpt lat="60.390108972787857" lon="5.324266031384468">
        <ele>15.039999999999999</ele>
        <time>2017-06-19T10:56:51Z</time>
      </trkpt>
      <trkpt lat="60.39013696834445" lon="5.324276005849242">
        <ele>14.08</ele>
        <time>2017-06-19T10:56:52Z</time>
      </trkpt>
      <trkpt lat="60.390184996649623" lon="5.324290003627539">
        <ele>13.6</ele>
        <time>2017-06-19T10:56:53Z</time>
      </trkpt>
      <trkpt lat="60.390227995812893" lon="5.324333002790809">
        <ele>12.630000000000001</ele>
        <time>2017-06-19T10:56:54Z</time>
      </trkpt>
      <trkpt lat="60.390277029946446" lon="5.324382958933711">
        <ele>12.630000000000001</ele>
        <time>2017-06-19T10:56:55Z</time>
      </trkpt>
      <trkpt lat="60.390466963872313" lon="5.324607007205486">
        <ele>12.15</ele>
        <time>2017-06-19T10:56:59Z</time>
      </trkpt>
      <trkpt lat="60.390507029369473" lon="5.324655035510659">
        <ele>11.67</ele>
        <time>2017-06-19T10:57:00Z</time>
      </trkpt>
      <trkpt lat="60.390541981905699" lon="5.324693005532026">
        <ele>11.67</ele>
        <time>2017-06-19T10:57:01Z</time>
      </trkpt>
      <trkpt lat="60.390739040449262" lon="5.324911018833518">
        <ele>11.67</ele>
        <time>2017-06-19T10:57:13Z</time>
      </trkpt>
      <trkpt lat="60.39084498770535" lon="5.32504596747458">
        <ele>9.27</ele>
        <time>2017-06-19T10:57:26Z</time>
      </trkpt>
      <trkpt lat="60.390957975760102" lon="5.325170019641519">
        <ele>8.310000000000001</ele>
        <time>2017-06-19T10:57:42Z</time>
      </trkpt>
      <trkpt lat="60.390975996851921" lon="5.325177982449532">
        <ele>8.310000000000001</ele>
        <time>2017-06-19T10:58:05Z</time>
      </trkpt>
      <trkpt lat="60.391239020973444" lon="5.325445029884577">
        <ele>7.83</ele>
        <time>2017-06-19T10:58:12Z</time>
      </trkpt>
      <trkpt lat="60.391953997313976" lon="5.326252961531282">
        <ele>8.789999999999999</ele>
        <time>2017-06-19T10:58:23Z</time>
      </trkpt>
      <trkpt lat="60.392924034968019" lon="5.327232973650098">
        <ele>10.710000000000001</ele>
        <time>2017-06-19T10:58:38Z</time>
      </trkpt>
      <trkpt lat="60.392977008596063" lon="5.327253006398678">
        <ele>10.23</ele>
        <time>2017-06-19T10:58:39Z</time>
      </trkpt>
      <trkpt lat="60.393054960295558" lon="5.327187962830067">
        <ele>9.75</ele>
        <time>2017-06-19T10:58:40Z</time>
      </trkpt>
      <trkpt lat="60.393102988600731" lon="5.327115962281823">
        <ele>9.27</ele>
        <time>2017-06-19T10:58:41Z</time>
      </trkpt>
      <trkpt lat="60.39314397610724" lon="5.327010015025735">
        <ele>9.27</ele>
        <time>2017-06-19T10:58:42Z</time>
      </trkpt>
      <trkpt lat="60.393175994977355" lon="5.3268719650805">
        <ele>9.75</ele>
        <time>2017-06-19T10:58:43Z</time>
      </trkpt>
      <trkpt lat="60.393206002190709" lon="5.326738022267819">
        <ele>9.75</ele>
        <time>2017-06-19T10:58:44Z</time>
      </trkpt>
      <trkpt lat="60.39339903742075" lon="5.325984992086887">
        <ele>11.67</ele>
        <time>2017-06-19T10:58:52Z</time>
      </trkpt>
      <trkpt lat="60.393623001873493" lon="5.325420973822475">
        <ele>15.52</ele>
        <time>2017-06-19T10:58:58Z</time>
      </trkpt>
      <trkpt lat="60.393649991601706" lon="5.324991988018155">
        <ele>17.440000000000001</ele>
        <time>2017-06-19T10:59:02Z</time>
      </trkpt>
      <trkpt lat="60.393683016300201" lon="5.324948988854885">
        <ele>18.399999999999999</ele>
        <time>2017-06-19T10:59:03Z</time>
      </trkpt>
      <trkpt lat="60.393705982714891" lon="5.324939014390111">
        <ele>19.84</ele>
        <time>2017-06-19T10:59:04Z</time>
      </trkpt>
      <trkpt lat="60.393719980493188" lon="5.324967009946704">
        <ele>19.359999999999999</ele>
        <time>2017-06-19T10:59:05Z</time>
      </trkpt>
      <trkpt lat="60.393738001585007" lon="5.325006991624832">
        <ele>19.359999999999999</ele>
        <time>2017-06-19T10:59:06Z</time>
      </trkpt>
      <trkpt lat="60.393755016848445" lon="5.325040016323328">
        <ele>19.359999999999999</ele>
        <time>2017-06-19T10:59:07Z</time>
      </trkpt>
      <trkpt lat="60.394027009606361" lon="5.325211007148027">
        <ele>18.879999999999999</ele>
        <time>2017-06-19T10:59:20Z</time>
      </trkpt>
      <trkpt lat="60.394046036526561" lon="5.32521796412766">
        <ele>18.399999999999999</ele>
        <time>2017-06-19T10:59:46Z</time>
      </trkpt>
      <trkpt lat="60.394185008481145" lon="5.32508703880012">
        <ele>16.960000000000001</ele>
        <time>2017-06-19T11:00:16Z</time>
      </trkpt>
      <trkpt lat="60.394236976280808" lon="5.324897021055222">
        <ele>15.039999999999999</ele>
        <time>2017-06-19T11:00:26Z</time>
      </trkpt>
      <trkpt lat="60.394258014857769" lon="5.324817979708314">
        <ele>14.08</ele>
        <time>2017-06-19T11:00:47Z</time>
      </trkpt>
      <trkpt lat="60.394288022071123" lon="5.324660986661911">
        <ele>11.19</ele>
        <time>2017-06-19T11:01:00Z</time>
      </trkpt>
      <trkpt lat="60.394289027899504" lon="5.324629973620176">
        <ele>9.75</ele>
        <time>2017-06-19T11:01:21Z</time>
      </trkpt>
      <trkpt lat="60.394289027899504" lon="5.324635002762079">
        <ele>9.75</ele>
        <time>2017-06-19T11:02:22Z</time>
      </trkpt>
    </trkseg>
  </trk>

  <trk>
    <name>Track vom: 19 JUN 2017 13:26</name>
    <extensions>
      <gpxx:TrackExtension>
        <gpxx:DisplayColor>DarkGray</gpxx:DisplayColor>
      </gpxx:TrackExtension>
    </extensions>
    <trkseg>
      <trkpt lat="60.394274024292827" lon="5.324504999443889">
        <ele>-7.55</ele>
        <time>2017-06-19T11:26:34Z</time>
      </trkpt>
      <trkpt lat="60.39426296018064" lon="5.324501981958747">
        <ele>-8.51</ele>
        <time>2017-06-19T11:27:44Z</time>
      </trkpt>
      <trkpt lat="60.394299002364278" lon="5.324239041656256">
        <ele>-8.51</ele>
        <time>2017-06-19T11:27:49Z</time>
      </trkpt>
      <trkpt lat="60.394511986523867" lon="5.323198009282351">
        <ele>-8.029999999999999</ele>
        <time>2017-06-19T11:28:04Z</time>
      </trkpt>
      <trkpt lat="60.394616005942225" lon="5.322911012917757">
        <ele>-5.63</ele>
        <time>2017-06-19T11:28:12Z</time>
      </trkpt>
      <trkpt lat="60.394750032573938" lon="5.322437016293407">
        <ele>-6.59</ele>
        <time>2017-06-19T11:28:25Z</time>
      </trkpt>
      <trkpt lat="60.394835025072098" lon="5.322113977745175">
        <ele>-6.11</ele>
        <time>2017-06-19T11:28:58Z</time>
      </trkpt>
      <trkpt lat="60.395008027553558" lon="5.321728996932507">
        <ele>-4.67</ele>
        <time>2017-06-19T11:29:11Z</time>
      </trkpt>
      <trkpt lat="60.395092014223337" lon="5.321561023592949">
        <ele>-3.71</ele>
        <time>2017-06-19T11:29:52Z</time>
      </trkpt>
      <trkpt lat="60.395181030035019" lon="5.321302022784948">
        <ele>-2.27</ele>
        <time>2017-06-19T11:30:03Z</time>
      </trkpt>
      <trkpt lat="60.395231992006302" lon="5.32126103527844">
        <ele>2.06</ele>
        <time>2017-06-19T11:30:19Z</time>
      </trkpt>
      <trkpt lat="60.395297035574913" lon="5.321162967011333">
        <ele>4.94</ele>
        <time>2017-06-19T11:30:31Z</time>
      </trkpt>
      <trkpt lat="60.395385967567563" lon="5.320997005328536">
        <ele>5.42</ele>
        <time>2017-06-19T11:30:45Z</time>
      </trkpt>
      <trkpt lat="60.395387979224324" lon="5.320954006165266">
        <ele>4.94</ele>
        <time>2017-06-19T11:30:46Z</time>
      </trkpt>
      <trkpt lat="60.395386973395944" lon="5.320910001173616">
        <ele>4.94</ele>
        <time>2017-06-19T11:30:47Z</time>
      </trkpt>
      <trkpt lat="60.395379010587931" lon="5.320867002010346">
        <ele>4.94</ele>
        <time>2017-06-19T11:30:48Z</time>
      </trkpt>
      <trkpt lat="60.395367024466395" lon="5.32081201672554">
        <ele>5.42</ele>
        <time>2017-06-19T11:30:49Z</time>
      </trkpt>
      <trkpt lat="60.395342968404293" lon="5.320750996470451">
        <ele>5.91</ele>
        <time>2017-06-19T11:30:50Z</time>
      </trkpt>
      <trkpt lat="60.395311033353209" lon="5.320691987872124">
        <ele>6.39</ele>
        <time>2017-06-19T11:30:51Z</time>
      </trkpt>
      <trkpt lat="60.395273985341191" lon="5.320637002587318">
        <ele>6.87</ele>
        <time>2017-06-19T11:30:52Z</time>
      </trkpt>
      <trkpt lat="60.395027976483107" lon="5.320324022322893">
        <ele>7.35</ele>
        <time>2017-06-19T11:31:02Z</time>
      </trkpt>
      <trkpt lat="60.394941978156567" lon="5.320208016782999">
        <ele>8.789999999999999</ele>
        <time>2017-06-19T11:31:15Z</time>
      </trkpt>
      <trkpt lat="60.394789008423686" lon="5.32008103094995">
        <ele>10.23</ele>
        <time>2017-06-19T11:31:25Z</time>
      </trkpt>
      <trkpt lat="60.394766964018345" lon="5.320091005414724">
        <ele>10.710000000000001</ele>
        <time>2017-06-19T11:31:26Z</time>
      </trkpt>
      <trkpt lat="60.39475598372519" lon="5.320106009021401">
        <ele>10.710000000000001</ele>
        <time>2017-06-19T11:31:27Z</time>
      </trkpt>
      <trkpt lat="60.394700998440385" lon="5.320135010406375">
        <ele>10.710000000000001</ele>
        <time>2017-06-19T11:31:30Z</time>
      </trkpt>
      <trkpt lat="60.394765958189964" lon="5.320078013464809">
        <ele>13.6</ele>
        <time>2017-06-19T11:31:42Z</time>
      </trkpt>
      <trkpt lat="60.394728993996978" lon="5.320085976272821">
        <ele>14.56</ele>
        <time>2017-06-19T11:32:04Z</time>
      </trkpt>
      <trkpt lat="60.394693035632372" lon="5.320127969607711">
        <ele>15.52</ele>
        <time>2017-06-19T11:32:05Z</time>
      </trkpt>
      <trkpt lat="60.394279975444078" lon="5.320325028151274">
        <ele>20.809999999999999</ele>
        <time>2017-06-19T11:32:16Z</time>
      </trkpt>
      <trkpt lat="60.39417402818799" lon="5.320165017619729">
        <ele>21.77</ele>
        <time>2017-06-19T11:32:18Z</time>
      </trkpt>
      <trkpt lat="60.393473971635103" lon="5.319348033517599">
        <ele>24.170000000000002</ele>
        <time>2017-06-19T11:32:29Z</time>
      </trkpt>
      <trkpt lat="60.393372969701886" lon="5.319234961643815">
        <ele>24.649999999999999</ele>
        <time>2017-06-19T11:32:31Z</time>
      </trkpt>
      <trkpt lat="60.392834013327956" lon="5.318713020533323">
        <ele>21.289999999999999</ele>
        <time>2017-06-19T11:32:41Z</time>
      </trkpt>
      <trkpt lat="60.392703004181385" lon="5.318550998345017">
        <ele>22.25</ele>
        <time>2017-06-19T11:32:48Z</time>
      </trkpt>
      <trkpt lat="60.3924760222435" lon="5.318272970616818">
        <ele>26.09</ele>
        <time>2017-06-19T11:33:20Z</time>
      </trkpt>
      <trkpt lat="60.392393041402102" lon="5.318146990612149">
        <ele>26.09</ele>
        <time>2017-06-19T11:33:22Z</time>
      </trkpt>
      <trkpt lat="60.39234803058207" lon="5.318067027255893">
        <ele>26.09</ele>
        <time>2017-06-19T11:33:23Z</time>
      </trkpt>
      <trkpt lat="60.392230013385415" lon="5.317927971482277">
        <ele>26.09</ele>
        <time>2017-06-19T11:33:26Z</time>
      </trkpt>
      <trkpt lat="60.391932036727667" lon="5.317524969577789">
        <ele>17.920000000000002</ele>
        <time>2017-06-19T11:33:34Z</time>
      </trkpt>
      <trkpt lat="60.391927007585764" lon="5.317469984292984">
        <ele>17.920000000000002</ele>
        <time>2017-06-19T11:33:35Z</time>
      </trkpt>
      <trkpt lat="60.39194100536406" lon="5.317398989573121">
        <ele>17.920000000000002</ele>
        <time>2017-06-19T11:33:36Z</time>
      </trkpt>
      <trkpt lat="60.391978975385427" lon="5.317342998459935">
        <ele>17.920000000000002</ele>
        <time>2017-06-19T11:33:37Z</time>
      </trkpt>
      <trkpt lat="60.391994984820485" lon="5.317257000133395">
        <ele>19.359999999999999</ele>
        <time>2017-06-19T11:33:38Z</time>
      </trkpt>
      <trkpt lat="60.392021974548697" lon="5.317183993756771">
        <ele>19.84</ele>
        <time>2017-06-19T11:33:39Z</time>
      </trkpt>
      <trkpt lat="60.392273012548685" lon="5.316132986918092">
        <ele>16.960000000000001</ele>
        <time>2017-06-19T11:33:51Z</time>
      </trkpt>
      <trkpt lat="60.392337972298265" lon="5.315345004200935">
        <ele>14.08</ele>
        <time>2017-06-19T11:33:58Z</time>
      </trkpt>
      <trkpt lat="60.39232799783349" lon="5.315264035016298">
        <ele>13.119999999999999</ele>
        <time>2017-06-19T11:33:59Z</time>
      </trkpt>
      <trkpt lat="60.3923050314188" lon="5.315166972577572">
        <ele>12.630000000000001</ele>
        <time>2017-06-19T11:34:00Z</time>
      </trkpt>
      <trkpt lat="60.392268989235163" lon="5.315082985907793">
        <ele>13.119999999999999</ele>
        <time>2017-06-19T11:34:01Z</time>
      </trkpt>
      <trkpt lat="60.39221802726388" lon="5.315014002844691">
        <ele>13.119999999999999</ele>
        <time>2017-06-19T11:34:02Z</time>
      </trkpt>
      <trkpt lat="60.392160024493933" lon="5.314959017559886">
        <ele>13.6</ele>
        <time>2017-06-19T11:34:03Z</time>
      </trkpt>
      <trkpt lat="60.392095986753702" lon="5.314907971769571">
        <ele>13.119999999999999</ele>
        <time>2017-06-19T11:34:04Z</time>
      </trkpt>
      <trkpt lat="60.392034966498613" lon="5.314876036718488">
        <ele>12.15</ele>
        <time>2017-06-19T11:34:05Z</time>
      </trkpt>
      <trkpt lat="60.391337005421519" lon="5.314183020964265">
        <ele>13.6</ele>
        <time>2017-06-19T11:34:16Z</time>
      </trkpt>
      <trkpt lat="60.390379037708044" lon="5.313058001920581">
        <ele>16</ele>
        <time>2017-06-19T11:34:30Z</time>
      </trkpt>
      <trkpt lat="60.390297984704375" lon="5.313004022464156">
        <ele>16.48</ele>
        <time>2017-06-19T11:34:31Z</time>
      </trkpt>
      <trkpt lat="60.390201006084681" lon="5.312983989715576">
        <ele>16.960000000000001</ele>
        <time>2017-06-19T11:34:32Z</time>
      </trkpt>
      <trkpt lat="60.390112996101379" lon="5.312999999150634">
        <ele>16.960000000000001</ele>
        <time>2017-06-19T11:34:33Z</time>
      </trkpt>
      <trkpt lat="60.39002800360322" lon="5.313038975000382">
        <ele>16.960000000000001</ele>
        <time>2017-06-19T11:34:34Z</time>
      </trkpt>
      <trkpt lat="60.389946028590202" lon="5.313091026619077">
        <ele>16.960000000000001</ele>
        <time>2017-06-19T11:34:35Z</time>
      </trkpt>
      <trkpt lat="60.389865981414914" lon="5.313157998025417">
        <ele>16.960000000000001</ele>
        <time>2017-06-19T11:34:36Z</time>
      </trkpt>
      <trkpt lat="60.389791969209909" lon="5.313229998573661">
        <ele>17.440000000000001</ele>
        <time>2017-06-19T11:34:37Z</time>
      </trkpt>
      <trkpt lat="60.388504005968571" lon="5.31453900039196">
        <ele>9.75</ele>
        <time>2017-06-19T11:34:52Z</time>
      </trkpt>
      <trkpt lat="60.387404970824718" lon="5.315642980858684">
        <ele>11.67</ele>
        <time>2017-06-19T11:35:06Z</time>
      </trkpt>
      <trkpt lat="60.386413978412747" lon="5.316845029592514">
        <ele>7.35</ele>
        <time>2017-06-19T11:35:23Z</time>
      </trkpt>
      <trkpt lat="60.3863559756428" lon="5.316899009048939">
        <ele>7.35</ele>
        <time>2017-06-19T11:35:24Z</time>
      </trkpt>
      <trkpt lat="60.386295961216092" lon="5.316937984898686">
        <ele>7.35</ele>
        <time>2017-06-19T11:35:25Z</time>
      </trkpt>
      <trkpt lat="60.386228989809752" lon="5.316970003768802">
        <ele>6.87</ele>
        <time>2017-06-19T11:35:26Z</time>
      </trkpt>
      <trkpt lat="60.386104015633464" lon="5.317045021802187">
        <ele>6.87</ele>
        <time>2017-06-19T11:35:28Z</time>
      </trkpt>
      <trkpt lat="60.386066967621446" lon="5.317137977108359">
        <ele>6.87</ele>
        <time>2017-06-19T11:35:29Z</time>
      </trkpt>
      <trkpt lat="60.386036960408092" lon="5.317258005961776">
        <ele>6.87</ele>
        <time>2017-06-19T11:35:30Z</time>
      </trkpt>
      <trkpt lat="60.386019023135304" lon="5.317401001229882">
        <ele>6.87</ele>
        <time>2017-06-19T11:35:31Z</time>
      </trkpt>
      <trkpt lat="60.385997984558344" lon="5.317559000104666">
        <ele>6.87</ele>
        <time>2017-06-19T11:35:32Z</time>
      </trkpt>
      <trkpt lat="60.385921038687229" lon="5.317882960662246">
        <ele>6.87</ele>
        <time>2017-06-19T11:35:34Z</time>
      </trkpt>
      <trkpt lat="60.385388033464551" lon="5.319448029622436">
        <ele>7.35</ele>
        <time>2017-06-19T11:35:45Z</time>
      </trkpt>
      <trkpt lat="60.385459028184414" lon="5.319598987698555">
        <ele>6.87</ele>
        <time>2017-06-19T11:35:46Z</time>
      </trkpt>
      <trkpt lat="60.38547202013433" lon="5.319690015166998">
        <ele>6.39</ele>
        <time>2017-06-19T11:35:47Z</time>
      </trkpt>
      <trkpt lat="60.383329018950462" lon="5.334810968488455">
        <ele>-13.32</ele>
        <time>2017-06-19T11:36:48Z</time>
      </trkpt>
      <trkpt lat="60.383305968716741" lon="5.335093019530177">
        <ele>-9</ele>
        <time>2017-06-19T11:36:49Z</time>
      </trkpt>
      <trkpt lat="60.38330202922225" lon="5.335304997861385">
        <ele>-9.48</ele>
        <time>2017-06-19T11:36:50Z</time>
      </trkpt>
      <trkpt lat="60.383251989260316" lon="5.335516976192594">
        <ele>-9</ele>
        <time>2017-06-19T11:36:51Z</time>
      </trkpt>
      <trkpt lat="60.382979996502399" lon="5.336287021636963">
        <ele>-9</ele>
        <time>2017-06-19T11:36:55Z</time>
      </trkpt>
      <trkpt lat="60.382928028702736" lon="5.336501011624932">
        <ele>-8.51</ele>
        <time>2017-06-19T11:36:56Z</time>
      </trkpt>
      <trkpt lat="60.382913025096059" lon="5.336740985512734">
        <ele>-8.029999999999999</ele>
        <time>2017-06-19T11:36:57Z</time>
      </trkpt>
      <trkpt lat="60.382936997339129" lon="5.336971990764141">
        <ele>-8.029999999999999</ele>
        <time>2017-06-19T11:36:58Z</time>
      </trkpt>
      <trkpt lat="60.382974967360497" lon="5.337208025157452">
        <ele>-6.59</ele>
        <time>2017-06-19T11:36:59Z</time>
      </trkpt>
      <trkpt lat="60.383011009544134" lon="5.337452022358775">
        <ele>-2.75</ele>
        <time>2017-06-19T11:37:00Z</time>
      </trkpt>
      <trkpt lat="60.383077980950475" lon="5.337618989869952">
        <ele>-2.75</ele>
        <time>2017-06-19T11:37:01Z</time>
      </trkpt>
      <trkpt lat="60.38315299898386" lon="5.337756033986807">
        <ele>-3.71</ele>
        <time>2017-06-19T11:37:02Z</time>
      </trkpt>
      <trkpt lat="60.383248971775174" lon="5.337888970971108">
        <ele>-3.23</ele>
        <time>2017-06-19T11:37:03Z</time>
      </trkpt>
      <trkpt lat="60.38334796205163" lon="5.337968012318015">
        <ele>-3.71</ele>
        <time>2017-06-19T11:37:04Z</time>
      </trkpt>
      <trkpt lat="60.383458016440272" lon="5.338010005652905">
        <ele>-2.75</ele>
        <time>2017-06-19T11:37:05Z</time>
      </trkpt>
      <trkpt lat="60.383564969524741" lon="5.33802199177444">
        <ele>-2.27</ele>
        <time>2017-06-19T11:37:06Z</time>
      </trkpt>
      <trkpt lat="60.3836689889431" lon="5.33799902535975">
        <ele>-0.82</ele>
        <time>2017-06-19T11:37:07Z</time>
      </trkpt>
      <trkpt lat="60.383767979219556" lon="5.337934987619519">
        <ele>-0.34</ele>
        <time>2017-06-19T11:37:08Z</time>
      </trkpt>
      <trkpt lat="60.383864035829902" lon="5.337838008999825">
        <ele>0.14</ele>
        <time>2017-06-19T11:37:09Z</time>
      </trkpt>
      <trkpt lat="60.383954979479313" lon="5.33770096488297">
        <ele>1.58</ele>
        <time>2017-06-19T11:37:10Z</time>
      </trkpt>
      <trkpt lat="60.384034020826221" lon="5.337547995150089">
        <ele>2.54</ele>
        <time>2017-06-19T11:37:11Z</time>
      </trkpt>
      <trkpt lat="60.384109960868955" lon="5.337383039295673">
        <ele>3.5</ele>
        <time>2017-06-19T11:37:12Z</time>
      </trkpt>
      <trkpt lat="60.384185984730721" lon="5.337198972702026">
        <ele>3.98</ele>
        <time>2017-06-19T11:37:13Z</time>
      </trkpt>
      <trkpt lat="60.384422019124031" lon="5.336675019934773">
        <ele>3.5</ele>
        <time>2017-06-19T11:37:16Z</time>
      </trkpt>
      <trkpt lat="60.384526960551739" lon="5.336530013009906">
        <ele>3.02</ele>
        <time>2017-06-19T11:37:17Z</time>
      </trkpt>
      <trkpt lat="60.384643971920013" lon="5.336416019126773">
        <ele>3.5</ele>
        <time>2017-06-19T11:37:18Z</time>
      </trkpt>
      <trkpt lat="60.384768024086952" lon="5.336329014971852">
        <ele>3.5</ele>
        <time>2017-06-19T11:37:19Z</time>
      </trkpt>
      <trkpt lat="60.384898027405143" lon="5.336264977231622">
        <ele>3.98</ele>
        <time>2017-06-19T11:37:20Z</time>
      </trkpt>
      <trkpt lat="60.385030964389443" lon="5.336220972239971">
        <ele>3.98</ele>
        <time>2017-06-19T11:37:21Z</time>
      </trkpt>
      <trkpt lat="60.385162979364395" lon="5.336203034967184">
        <ele>4.94</ele>
        <time>2017-06-19T11:37:22Z</time>
      </trkpt>
      <trkpt lat="60.385296000167727" lon="5.3362160269171">
        <ele>5.42</ele>
        <time>2017-06-19T11:37:23Z</time>
      </trkpt>
      <trkpt lat="60.385417034849524" lon="5.336271012201905">
        <ele>5.42</ele>
        <time>2017-06-19T11:37:24Z</time>
      </trkpt>
      <trkpt lat="60.385532034561038" lon="5.336376037448645">
        <ele>6.39</ele>
        <time>2017-06-19T11:37:25Z</time>
      </trkpt>
      <trkpt lat="60.385638987645507" lon="5.336514003574848">
        <ele>6.87</ele>
        <time>2017-06-19T11:37:26Z</time>
      </trkpt>
      <trkpt lat="60.385748958215117" lon="5.336669990792871">
        <ele>7.35</ele>
        <time>2017-06-19T11:37:27Z</time>
      </trkpt>
      <trkpt lat="60.386766018345952" lon="5.337947979569435">
        <ele>10.23</ele>
        <time>2017-06-19T11:37:35Z</time>
      </trkpt>
      <trkpt lat="60.388274006545544" lon="5.33896897919476">
        <ele>6.39</ele>
        <time>2017-06-19T11:37:45Z</time>
      </trkpt>
      <trkpt lat="60.389242032542825" lon="5.340294996276498">
        <ele>2.54</ele>
        <time>2017-06-19T11:37:53Z</time>
      </trkpt>
      <trkpt lat="60.417928006500006" lon="5.313664013519883">
        <ele>25.129999999999999</ele>
        <time>2017-06-19T11:41:14Z</time>
      </trkpt>
      <trkpt lat="60.418017022311687" lon="5.313391014933586">
        <ele>31.859999999999999</ele>
        <time>2017-06-19T11:41:15Z</time>
      </trkpt>
      <trkpt lat="60.418209973722696" lon="5.313149029389024">
        <ele>34.740000000000002</ele>
        <time>2017-06-19T11:41:16Z</time>
      </trkpt>
      <trkpt lat="60.418293038383126" lon="5.312896985560656">
        <ele>35.710000000000001</ele>
        <time>2017-06-19T11:41:17Z</time>
      </trkpt>
      <trkpt lat="60.418402003124356" lon="5.312675032764673">
        <ele>34.259999999999998</ele>
        <time>2017-06-19T11:41:18Z</time>
      </trkpt>
      <trkpt lat="60.418498981744051" lon="5.31247797422111">
        <ele>34.259999999999998</ele>
        <time>2017-06-19T11:41:19Z</time>
      </trkpt>
      <trkpt lat="60.418593026697636" lon="5.312292985618115">
        <ele>33.299999999999997</ele>
        <time>2017-06-19T11:41:20Z</time>
      </trkpt>
      <trkpt lat="60.420045023784041" lon="5.310292979702354">
        <ele>42.439999999999998</ele>
        <time>2017-06-19T11:41:31Z</time>
      </trkpt>
      <trkpt lat="60.421053031459451" lon="5.308563960716128">
        <ele>49.159999999999997</ele>
        <time>2017-06-19T11:41:40Z</time>
      </trkpt>
      <trkpt lat="60.421145986765623" lon="5.308370003476739">
        <ele>50.609999999999999</ele>
        <time>2017-06-19T11:41:41Z</time>
      </trkpt>
      <trkpt lat="60.422104960307479" lon="5.306693958118558">
        <ele>57.340000000000003</ele>
        <time>2017-06-19T11:41:50Z</time>
      </trkpt>
      <trkpt lat="60.422865031287074" lon="5.305426027625799">
        <ele>63.100000000000001</ele>
        <time>2017-06-19T11:41:57Z</time>
      </trkpt>
      <trkpt lat="60.422991011291742" lon="5.305280014872551">
        <ele>64.069999999999993</ele>
        <time>2017-06-19T11:41:58Z</time>
      </trkpt>
      <trkpt lat="60.4231589846313" lon="5.305178007110953">
        <ele>64.069999999999993</ele>
        <time>2017-06-19T11:41:59Z</time>
      </trkpt>
      <trkpt lat="60.424850033596158" lon="5.304430006071925">
        <ele>66.469999999999999</ele>
        <time>2017-06-19T11:42:10Z</time>
      </trkpt>
      <trkpt lat="60.426286021247506" lon="5.304044019430876">
        <ele>68.870000000000005</ele>
        <time>2017-06-19T11:42:20Z</time>
      </trkpt>
      <trkpt lat="60.426434967666864" lon="5.304072014987469">
        <ele>68.390000000000001</ele>
        <time>2017-06-19T11:42:21Z</time>
      </trkpt>
      <trkpt lat="60.426577040925622" lon="5.304132029414177">
        <ele>66.950000000000003</ele>
        <time>2017-06-19T11:42:22Z</time>
      </trkpt>
      <trkpt lat="60.426731016486883" lon="5.304222973063588">
        <ele>66.950000000000003</ele>
        <time>2017-06-19T11:42:23Z</time>
      </trkpt>
      <trkpt lat="60.426877029240131" lon="5.304331015795469">
        <ele>67.430000000000007</ele>
        <time>2017-06-19T11:42:24Z</time>
      </trkpt>
      <trkpt lat="60.427019018679857" lon="5.30446101911366">
        <ele>67.909999999999997</ele>
        <time>2017-06-19T11:42:25Z</time>
      </trkpt>
      <trkpt lat="60.427163019776344" lon="5.304608037695289">
        <ele>68.390000000000001</ele>
        <time>2017-06-19T11:42:26Z</time>
      </trkpt>
      <trkpt lat="60.427300985902548" lon="5.304781962186098">
        <ele>68.390000000000001</ele>
        <time>2017-06-19T11:42:27Z</time>
      </trkpt>
      <trkpt lat="60.427423026412725" lon="5.304981032386422">
        <ele>68.390000000000001</ele>
        <time>2017-06-19T11:42:28Z</time>
      </trkpt>
      <trkpt lat="60.435010995715857" lon="5.315544996410608">
        <ele>71.269999999999996</ele>
        <time>2017-06-19T11:43:21Z</time>
      </trkpt>
      <trkpt lat="60.435501001775265" lon="5.317862005904317">
        <ele>37.630000000000003</ele>
        <time>2017-06-19T11:43:29Z</time>
      </trkpt>
      <trkpt lat="60.435787998139858" lon="5.319387009367347">
        <ele>28.98</ele>
        <time>2017-06-19T11:43:35Z</time>
      </trkpt>
      <trkpt lat="60.435793027281761" lon="5.319472001865506">
        <ele>28.98</ele>
        <time>2017-06-19T11:43:36Z</time>
      </trkpt>
      <trkpt lat="60.435792021453381" lon="5.319550037384033">
        <ele>28.5</ele>
        <time>2017-06-19T11:43:37Z</time>
      </trkpt>
      <trkpt lat="60.435783974826336" lon="5.319636035710573">
        <ele>28.02</ele>
        <time>2017-06-19T11:43:38Z</time>
      </trkpt>
      <trkpt lat="60.435764025896788" lon="5.319729996845126">
        <ele>26.09</ele>
        <time>2017-06-19T11:43:39Z</time>
      </trkpt>
      <trkpt lat="60.435731001198292" lon="5.31982596963644">
        <ele>25.129999999999999</ele>
        <time>2017-06-19T11:43:40Z</time>
      </trkpt>
      <trkpt lat="60.435690013691783" lon="5.319894030690193">
        <ele>24.649999999999999</ele>
        <time>2017-06-19T11:43:41Z</time>
      </trkpt>
      <trkpt lat="60.435640979558229" lon="5.319939963519573">
        <ele>24.170000000000002</ele>
        <time>2017-06-19T11:43:42Z</time>
      </trkpt>
      <trkpt lat="60.435585994273424" lon="5.319923032075167">
        <ele>24.170000000000002</ele>
        <time>2017-06-19T11:43:43Z</time>
      </trkpt>
      <trkpt lat="60.435530003160238" lon="5.319871986284852">
        <ele>23.690000000000001</ele>
        <time>2017-06-19T11:43:44Z</time>
      </trkpt>
      <trkpt lat="60.435477029532194" lon="5.319787999615073">
        <ele>23.210000000000001</ele>
        <time>2017-06-19T11:43:45Z</time>
      </trkpt>
      <trkpt lat="60.435439981520176" lon="5.319655984640122">
        <ele>23.210000000000001</ele>
        <time>2017-06-19T11:43:46Z</time>
      </trkpt>
      <trkpt lat="60.435417015105486" lon="5.319491028785706">
        <ele>22.73</ele>
        <time>2017-06-19T11:43:47Z</time>
      </trkpt>
      <trkpt lat="60.435417015105486" lon="5.319314002990723">
        <ele>22.25</ele>
        <time>2017-06-19T11:43:48Z</time>
      </trkpt>
      <trkpt lat="60.435435036197305" lon="5.319131026044488">
        <ele>21.289999999999999</ele>
        <time>2017-06-19T11:43:49Z</time>
      </trkpt>
      <trkpt lat="60.43546998873353" lon="5.318956011906266">
        <ele>20.809999999999999</ele>
        <time>2017-06-19T11:43:50Z</time>
      </trkpt>
      <trkpt lat="60.435526985675097" lon="5.318790972232819">
        <ele>19.84</ele>
        <time>2017-06-19T11:43:51Z</time>
      </trkpt>
      <trkpt lat="60.435590017586946" lon="5.318635990843177">
        <ele>19.359999999999999</ele>
        <time>2017-06-19T11:43:52Z</time>
      </trkpt>
      <trkpt lat="60.435646008700132" lon="5.318483021110296">
        <ele>18.879999999999999</ele>
        <time>2017-06-19T11:43:53Z</time>
      </trkpt>
      <trkpt lat="60.435835020616651" lon="5.318029979243875">
        <ele>16.960000000000001</ele>
        <time>2017-06-19T11:43:56Z</time>
      </trkpt>
      <trkpt lat="60.435959994792938" lon="5.317969964817166">
        <ele>15.039999999999999</ele>
        <time>2017-06-19T11:43:59Z</time>
      </trkpt>
      <trkpt lat="60.435995031148195" lon="5.317992009222508">
        <ele>14.56</ele>
        <time>2017-06-19T11:44:00Z</time>
      </trkpt>
      <trkpt lat="60.436027972027659" lon="5.318058980628848">
        <ele>14.56</ele>
        <time>2017-06-19T11:44:01Z</time>
      </trkpt>
      <trkpt lat="60.436060996726155" lon="5.318143973127008">
        <ele>15.039999999999999</ele>
        <time>2017-06-19T11:44:02Z</time>
      </trkpt>
      <trkpt lat="60.436097960919142" lon="5.318271964788437">
        <ele>15.039999999999999</ele>
        <time>2017-06-19T11:44:03Z</time>
      </trkpt>
      <trkpt lat="60.436130985617638" lon="5.318424012511969">
        <ele>16.48</ele>
        <time>2017-06-19T11:44:04Z</time>
      </trkpt>
      <trkpt lat="60.436584027484059" lon="5.320089999586344">
        <ele>19.359999999999999</ele>
        <time>2017-06-19T11:44:13Z</time>
      </trkpt>
      <trkpt lat="60.436900025233626" lon="5.321146035566926">
        <ele>19.359999999999999</ele>
        <time>2017-06-19T11:44:18Z</time>
      </trkpt>
      <trkpt lat="60.436991974711418" lon="5.321318032220006">
        <ele>19.84</ele>
        <time>2017-06-19T11:44:19Z</time>
      </trkpt>
      <trkpt lat="60.437091970816255" lon="5.321461027488112">
        <ele>20.32</ele>
        <time>2017-06-19T11:44:20Z</time>
      </trkpt>
      <trkpt lat="60.437199007719755" lon="5.321575021371245">
        <ele>20.809999999999999</ele>
        <time>2017-06-19T11:44:21Z</time>
      </trkpt>
      <trkpt lat="60.437313001602888" lon="5.321666970849037">
        <ele>21.289999999999999</ele>
        <time>2017-06-19T11:44:22Z</time>
      </trkpt>
      <trkpt lat="60.437435964122415" lon="5.32173402607441">
        <ele>22.73</ele>
        <time>2017-06-19T11:44:23Z</time>
      </trkpt>
      <trkpt lat="60.437555992975831" lon="5.321793034672737">
        <ele>23.210000000000001</ele>
        <time>2017-06-19T11:44:24Z</time>
      </trkpt>
      <trkpt lat="60.437676021829247" lon="5.321836033836007">
        <ele>24.170000000000002</ele>
        <time>2017-06-19T11:44:25Z</time>
      </trkpt>
      <trkpt lat="60.438011968508363" lon="5.321936029940844">
        <ele>27.050000000000001</ele>
        <time>2017-06-19T11:44:28Z</time>
      </trkpt>
      <trkpt lat="60.438129985705018" lon="5.322021022439003">
        <ele>27.530000000000001</ele>
        <time>2017-06-19T11:44:29Z</time>
      </trkpt>
      <trkpt lat="60.438254037871957" lon="5.322128981351852">
        <ele>28.98</ele>
        <time>2017-06-19T11:44:30Z</time>
      </trkpt>
      <trkpt lat="60.438377000391483" lon="5.322267031297088">
        <ele>28.98</ele>
        <time>2017-06-19T11:44:31Z</time>
      </trkpt>
      <trkpt lat="60.438490994274616" lon="5.322420001029968">
        <ele>30.420000000000002</ele>
        <time>2017-06-19T11:44:32Z</time>
      </trkpt>
      <trkpt lat="60.43907999061048" lon="5.323195997625589">
        <ele>32.340000000000003</ele>
        <time>2017-06-19T11:44:37Z</time>
      </trkpt>
      <trkpt lat="60.439205970615149" lon="5.323293982073665">
        <ele>31.859999999999999</ele>
        <time>2017-06-19T11:44:38Z</time>
      </trkpt>
      <trkpt lat="60.439334968104959" lon="5.323361959308386">
        <ele>31.379999999999999</ele>
        <time>2017-06-19T11:44:39Z</time>
      </trkpt>
      <trkpt lat="60.439470000565052" lon="5.323404958471656">
        <ele>30.899999999999999</ele>
        <time>2017-06-19T11:44:40Z</time>
      </trkpt>
      <trkpt lat="60.439609978348017" lon="5.323425997048616">
        <ele>30.420000000000002</ele>
        <time>2017-06-19T11:44:41Z</time>
      </trkpt>
      <trkpt lat="60.439747022464871" lon="5.323419962078333">
        <ele>30.420000000000002</ele>
        <time>2017-06-19T11:44:42Z</time>
      </trkpt>
      <trkpt lat="60.439882976934314" lon="5.323395989835262">
        <ele>30.420000000000002</ele>
        <time>2017-06-19T11:44:43Z</time>
      </trkpt>
      <trkpt lat="60.440009962767363" lon="5.323359025642276">
        <ele>30.420000000000002</ele>
        <time>2017-06-19T11:44:44Z</time>
      </trkpt>
      <trkpt lat="60.440357979387045" lon="5.323298005387187">
        <ele>31.379999999999999</ele>
        <time>2017-06-19T11:44:47Z</time>
      </trkpt>
      <trkpt lat="60.440469961613417" lon="5.323306974023581">
        <ele>31.859999999999999</ele>
        <time>2017-06-19T11:44:48Z</time>
      </trkpt>
      <trkpt lat="60.441060969606042" lon="5.323388027027249">
        <ele>35.710000000000001</ele>
        <time>2017-06-19T11:44:53Z</time>
      </trkpt>
      <trkpt lat="60.441188039258122" lon="5.323353996500373">
        <ele>36.189999999999998</ele>
        <time>2017-06-19T11:44:54Z</time>
      </trkpt>
      <trkpt lat="60.441316030919552" lon="5.323296999558806">
        <ele>36.670000000000002</ele>
        <time>2017-06-19T11:44:55Z</time>
      </trkpt>
      <trkpt lat="60.441447040066123" lon="5.323216030374169">
        <ele>37.149999999999999</ele>
        <time>2017-06-19T11:44:56Z</time>
      </trkpt>
      <trkpt lat="60.441575031727552" lon="5.323121985420585">
        <ele>37.149999999999999</ele>
        <time>2017-06-19T11:44:57Z</time>
      </trkpt>
      <trkpt lat="60.443094000220299" lon="5.32203895971179">
        <ele>44.359999999999999</ele>
        <time>2017-06-19T11:45:09Z</time>
      </trkpt>
      <trkpt lat="60.443189973011613" lon="5.322026973590255">
        <ele>44.359999999999999</ele>
        <time>2017-06-19T11:45:10Z</time>
      </trkpt>
      <trkpt lat="60.443272031843662" lon="5.322071984410286">
        <ele>44.840000000000003</ele>
        <time>2017-06-19T11:45:11Z</time>
      </trkpt>
      <trkpt lat="60.443346966058016" lon="5.322168963029981">
        <ele>45.32</ele>
        <time>2017-06-19T11:45:12Z</time>
      </trkpt>
      <trkpt lat="60.443403962999582" lon="5.32231598161161">
        <ele>45.799999999999997</ele>
        <time>2017-06-19T11:45:13Z</time>
      </trkpt>
      <trkpt lat="60.443442016839981" lon="5.322484038770199">
        <ele>46.280000000000001</ele>
        <time>2017-06-19T11:45:14Z</time>
      </trkpt>
      <trkpt lat="60.443469006568193" lon="5.322685036808252">
        <ele>46.759999999999998</ele>
        <time>2017-06-19T11:45:15Z</time>
      </trkpt>
      <trkpt lat="60.443469006568193" lon="5.322895003482699">
        <ele>47.240000000000002</ele>
        <time>2017-06-19T11:45:16Z</time>
      </trkpt>
      <trkpt lat="60.443459032103419" lon="5.323117962107062">
        <ele>47.719999999999999</ele>
        <time>2017-06-19T11:45:17Z</time>
      </trkpt>
      <trkpt lat="60.4434410110116" lon="5.323349973186851">
        <ele>49.159999999999997</ele>
        <time>2017-06-19T11:45:18Z</time>
      </trkpt>
      <trkpt lat="60.443407986313105" lon="5.32356102950871">
        <ele>49.649999999999999</ele>
        <time>2017-06-19T11:45:19Z</time>
      </trkpt>
      <trkpt lat="60.443362975493073" lon="5.323766972869635">
        <ele>50.130000000000003</ele>
        <time>2017-06-19T11:45:20Z</time>
      </trkpt>
      <trkpt lat="60.443302039057016" lon="5.323956990614533">
        <ele>51.090000000000003</ele>
        <time>2017-06-19T11:45:21Z</time>
      </trkpt>
      <trkpt lat="60.443226015195251" lon="5.324127981439233">
        <ele>52.049999999999997</ele>
        <time>2017-06-19T11:45:22Z</time>
      </trkpt>
      <trkpt lat="60.443138005211949" lon="5.324301989749074">
        <ele>52.530000000000001</ele>
        <time>2017-06-19T11:45:23Z</time>
      </trkpt>
      <trkpt lat="60.442846985533834" lon="5.324966004118323">
        <ele>56.369999999999997</ele>
        <time>2017-06-19T11:45:27Z</time>
      </trkpt>
      <trkpt lat="60.442811027169228" lon="5.325154010206461">
        <ele>57.82</ele>
        <time>2017-06-19T11:45:28Z</time>
      </trkpt>
      <trkpt lat="60.442794011905789" lon="5.325360959395766">
        <ele>58.780000000000001</ele>
        <time>2017-06-19T11:45:29Z</time>
      </trkpt>
      <trkpt lat="60.442801974713802" lon="5.325570004060864">
        <ele>59.740000000000002</ele>
        <time>2017-06-19T11:45:30Z</time>
      </trkpt>
      <trkpt lat="60.442834999412298" lon="5.325773013755679">
        <ele>60.219999999999999</ele>
        <time>2017-06-19T11:45:31Z</time>
      </trkpt>
      <trkpt lat="60.442889984697104" lon="5.325970994308591">
        <ele>61.18</ele>
        <time>2017-06-19T11:45:32Z</time>
      </trkpt>
      <trkpt lat="60.442966008558869" lon="5.326132010668516">
        <ele>61.18</ele>
        <time>2017-06-19T11:45:33Z</time>
      </trkpt>
      <trkpt lat="60.443063993006945" lon="5.326252961531282">
        <ele>62.140000000000001</ele>
        <time>2017-06-19T11:45:34Z</time>
      </trkpt>
      <trkpt lat="60.443168012425303" lon="5.326329991221428">
        <ele>62.619999999999997</ele>
        <time>2017-06-19T11:45:35Z</time>
      </trkpt>
      <trkpt lat="60.443288963288069" lon="5.326362010091543">
        <ele>63.100000000000001</ele>
        <time>2017-06-19T11:45:36Z</time>
      </trkpt>
      <trkpt lat="60.443415027111769" lon="5.326367039233446">
        <ele>63.579999999999998</ele>
        <time>2017-06-19T11:45:37Z</time>
      </trkpt>
      <trkpt lat="60.443545030429959" lon="5.326350023970008">
        <ele>64.069999999999993</ele>
        <time>2017-06-19T11:45:38Z</time>
      </trkpt>
      <trkpt lat="60.443665981292725" lon="5.326324040070176">
        <ele>64.069999999999993</ele>
        <time>2017-06-19T11:45:39Z</time>
      </trkpt>
      <trkpt lat="60.4450090136379" lon="5.325545025989413">
        <ele>65.989999999999995</ele>
        <time>2017-06-19T11:45:51Z</time>
      </trkpt>
      <trkpt lat="60.446418011561036" lon="5.323824975639582">
        <ele>64.549999999999997</ele>
        <time>2017-06-19T11:46:05Z</time>
      </trkpt>
      <trkpt lat="60.447491984814405" lon="5.322354035452008">
        <ele>62.140000000000001</ele>
        <time>2017-06-19T11:46:15Z</time>
      </trkpt>
      <trkpt lat="60.447752997279167" lon="5.322108026593924">
        <ele>61.659999999999997</ele>
        <time>2017-06-19T11:46:17Z</time>
      </trkpt>
      <trkpt lat="60.448364038020372" lon="5.321492962539196">
        <ele>62.619999999999997</ele>
        <time>2017-06-19T11:46:22Z</time>
      </trkpt>
      <trkpt lat="60.449207006022334" lon="5.320098968222737">
        <ele>63.579999999999998</ele>
        <time>2017-06-19T11:46:30Z</time>
      </trkpt>
      <trkpt lat="60.450524976477027" lon="5.319018037989736">
        <ele>64.069999999999993</ele>
        <time>2017-06-19T11:46:40Z</time>
      </trkpt>
      <trkpt lat="60.451729958876967" lon="5.318473968654871">
        <ele>70.310000000000002</ele>
        <time>2017-06-19T11:46:50Z</time>
      </trkpt>
      <trkpt lat="60.453541958704591" lon="5.317634018138051">
        <ele>70.310000000000002</ele>
        <time>2017-06-19T11:47:04Z</time>
      </trkpt>
      <trkpt lat="60.453684031963348" lon="5.31763301230967">
        <ele>70.790000000000006</ele>
        <time>2017-06-19T11:47:05Z</time>
      </trkpt>
      <trkpt lat="60.453829038888216" lon="5.317663019523025">
        <ele>71.760000000000005</ele>
        <time>2017-06-19T11:47:06Z</time>
      </trkpt>
      <trkpt lat="60.45508598908782" lon="5.318146990612149">
        <ele>75.599999999999994</ele>
        <time>2017-06-19T11:47:16Z</time>
      </trkpt>
      <trkpt lat="60.455681020393968" lon="5.31829996034503">
        <ele>78.480000000000004</ele>
        <time>2017-06-19T11:47:22Z</time>
      </trkpt>
      <trkpt lat="60.455740028992295" lon="5.318352011963725">
        <ele>78.969999999999999</ele>
        <time>2017-06-19T11:47:23Z</time>
      </trkpt>
      <trkpt lat="60.455775987356901" lon="5.318428035825491">
        <ele>79.450000000000003</ele>
        <time>2017-06-19T11:47:24Z</time>
      </trkpt>
      <trkpt lat="60.455796020105481" lon="5.318515039980412">
        <ele>79.450000000000003</ele>
        <time>2017-06-19T11:47:25Z</time>
      </trkpt>
      <trkpt lat="60.455803982913494" lon="5.318601038306952">
        <ele>79.930000000000007</ele>
        <time>2017-06-19T11:47:26Z</time>
      </trkpt>
      <trkpt lat="60.455799037590623" lon="5.318675972521305">
        <ele>79.450000000000003</ele>
        <time>2017-06-19T11:47:27Z</time>
      </trkpt>
      <trkpt lat="60.455795014277101" lon="5.318753002211452">
        <ele>80.409999999999997</ele>
        <time>2017-06-19T11:47:28Z</time>
      </trkpt>
      <trkpt lat="60.455787973478436" lon="5.318854004144669">
        <ele>79.450000000000003</ele>
        <time>2017-06-19T11:47:29Z</time>
      </trkpt>
      <trkpt lat="60.455785961821675" lon="5.319085009396076">
        <ele>80.409999999999997</ele>
        <time>2017-06-19T11:47:31Z</time>
      </trkpt>
      <trkpt lat="60.455804988741875" lon="5.319182993844152">
        <ele>80.409999999999997</ele>
        <time>2017-06-19T11:47:32Z</time>
      </trkpt>
      <trkpt lat="60.455834995955229" lon="5.319251976907253">
        <ele>79.450000000000003</ele>
        <time>2017-06-19T11:47:33Z</time>
      </trkpt>
      <trkpt lat="60.455885035917163" lon="5.319288019090891">
        <ele>78.480000000000004</ele>
        <time>2017-06-19T11:47:34Z</time>
      </trkpt>
      <trkpt lat="60.455946978181601" lon="5.319278966635466">
        <ele>77.519999999999996</ele>
        <time>2017-06-19T11:47:35Z</time>
      </trkpt>
      <trkpt lat="60.456018978729844" lon="5.319240996614099">
        <ele>78</ele>
        <time>2017-06-19T11:47:36Z</time>
      </trkpt>
      <trkpt lat="60.456104977056384" lon="5.319173019379377">
        <ele>78.480000000000004</ele>
        <time>2017-06-19T11:47:37Z</time>
      </trkpt>
      <trkpt lat="60.457027992233634" lon="5.318537000566721">
        <ele>80.409999999999997</ele>
        <time>2017-06-19T11:47:46Z</time>
      </trkpt>
      <trkpt lat="60.457146009430289" lon="5.318524008616805">
        <ele>81.849999999999994</ele>
        <time>2017-06-19T11:47:47Z</time>
      </trkpt>
      <trkpt lat="60.457260003313422" lon="5.318548986688256">
        <ele>83.290000000000006</ele>
        <time>2017-06-19T11:47:48Z</time>
      </trkpt>
      <trkpt lat="60.457392018288374" lon="5.31862199306488">
        <ele>84.730000000000004</ele>
        <time>2017-06-19T11:47:49Z</time>
      </trkpt>
      <trkpt lat="60.457506012171507" lon="5.318725006654859">
        <ele>85.209999999999994</ele>
        <time>2017-06-19T11:47:50Z</time>
      </trkpt>
      <trkpt lat="60.457615982741117" lon="5.318865990266204">
        <ele>86.180000000000007</ele>
        <time>2017-06-19T11:47:51Z</time>
      </trkpt>
      <trkpt lat="60.457712039351463" lon="5.31902901828289">
        <ele>87.140000000000001</ele>
        <time>2017-06-19T11:47:52Z</time>
      </trkpt>
      <trkpt lat="60.45781496912241" lon="5.319205038249493">
        <ele>88.579999999999998</ele>
        <time>2017-06-19T11:47:53Z</time>
      </trkpt>
      <trkpt lat="60.457923011854291" lon="5.319378962740302">
        <ele>90.5</ele>
        <time>2017-06-19T11:47:54Z</time>
      </trkpt>
      <trkpt lat="60.458035999909043" lon="5.319527992978692">
        <ele>90.980000000000004</ele>
        <time>2017-06-19T11:47:55Z</time>
      </trkpt>
      <trkpt lat="60.45815602876246" lon="5.319638969376683">
        <ele>91.939999999999998</ele>
        <time>2017-06-19T11:47:56Z</time>
      </trkpt>
      <trkpt lat="60.458277985453606" lon="5.319702001288533">
        <ele>92.420000000000002</ele>
        <time>2017-06-19T11:47:57Z</time>
      </trkpt>
      <trkpt lat="60.458406982943416" lon="5.319751035422087">
        <ele>92.900000000000006</ele>
        <time>2017-06-19T11:47:58Z</time>
      </trkpt>
      <trkpt lat="60.459648007526994" lon="5.320658963173628">
        <ele>100.11</ele>
        <time>2017-06-19T11:48:07Z</time>
      </trkpt>
      <trkpt lat="60.460660038515925" lon="5.321939969435334">
        <ele>101.56</ele>
        <time>2017-06-19T11:48:15Z</time>
      </trkpt>
      <trkpt lat="60.461269989609718" lon="5.323001034557819">
        <ele>98.670000000000002</ele>
        <time>2017-06-19T11:48:21Z</time>
      </trkpt>
      <trkpt lat="60.461344001814723" lon="5.323207983747125">
        <ele>98.189999999999998</ele>
        <time>2017-06-19T11:48:22Z</time>
      </trkpt>
      <trkpt lat="60.461407033726573" lon="5.323422979563475">
        <ele>97.230000000000004</ele>
        <time>2017-06-19T11:48:23Z</time>
      </trkpt>
      <trkpt lat="60.46146503649652" lon="5.323648033663631">
        <ele>96.75</ele>
        <time>2017-06-19T11:48:24Z</time>
      </trkpt>
      <trkpt lat="60.461504012346268" lon="5.323892030864954">
        <ele>95.310000000000002</ele>
        <time>2017-06-19T11:48:25Z</time>
      </trkpt>
      <trkpt lat="60.461539970710874" lon="5.324123036116362">
        <ele>93.870000000000005</ele>
        <time>2017-06-19T11:48:26Z</time>
      </trkpt>
      <trkpt lat="60.461566960439086" lon="5.324354041367769">
        <ele>92.420000000000002</ele>
        <time>2017-06-19T11:48:27Z</time>
      </trkpt>
      <trkpt lat="60.461642984300852" lon="5.324782021343708">
        <ele>90.5</ele>
        <time>2017-06-19T11:48:29Z</time>
      </trkpt>
      <trkpt lat="60.461689000949264" lon="5.324988970533013">
        <ele>90.019999999999996</ele>
        <time>2017-06-19T11:48:30Z</time>
      </trkpt>
      <trkpt lat="60.461762007325888" lon="5.325178988277912">
        <ele>89.540000000000006</ele>
        <time>2017-06-19T11:48:31Z</time>
      </trkpt>
      <trkpt lat="60.461850017309189" lon="5.325355008244515">
        <ele>88.579999999999998</ele>
        <time>2017-06-19T11:48:32Z</time>
      </trkpt>
      <trkpt lat="60.461948001757264" lon="5.325504960492253">
        <ele>88.579999999999998</ele>
        <time>2017-06-19T11:48:33Z</time>
      </trkpt>
      <trkpt lat="60.462056966498494" lon="5.325622977688909">
        <ele>88.099999999999994</ele>
        <time>2017-06-19T11:48:34Z</time>
      </trkpt>
      <trkpt lat="60.46217598952353" lon="5.325712999328971">
        <ele>87.140000000000001</ele>
        <time>2017-06-19T11:48:35Z</time>
      </trkpt>
      <trkpt lat="60.462296018376946" lon="5.325778964906931">
        <ele>87.140000000000001</ele>
        <time>2017-06-19T11:48:36Z</time>
      </trkpt>
      <trkpt lat="60.462413029745221" lon="5.325827999040484">
        <ele>87.140000000000001</ele>
        <time>2017-06-19T11:48:37Z</time>
      </trkpt>
      <trkpt lat="60.463197994977236" lon="5.326188001781702">
        <ele>88.099999999999994</ele>
        <time>2017-06-19T11:48:46Z</time>
      </trkpt>
      <trkpt lat="60.463246023282409" lon="5.326201999559999">
        <ele>88.099999999999994</ele>
        <time>2017-06-19T11:48:53Z</time>
      </trkpt>
      <trkpt lat="60.46335800550878" lon="5.326361004263163">
        <ele>88.099999999999994</ele>
        <time>2017-06-19T11:48:57Z</time>
      </trkpt>
      <trkpt lat="60.463393963873386" lon="5.326429987326264">
        <ele>88.099999999999994</ele>
        <time>2017-06-19T11:48:58Z</time>
      </trkpt>
      <trkpt lat="60.463841976597905" lon="5.327199026942253">
        <ele>86.659999999999997</ele>
        <time>2017-06-19T11:49:05Z</time>
      </trkpt>
      <trkpt lat="60.464043980464339" lon="5.327416034415364">
        <ele>85.689999999999998</ele>
        <time>2017-06-19T11:49:07Z</time>
      </trkpt>
      <trkpt lat="60.464154034852982" lon="5.327498009428382">
        <ele>85.689999999999998</ele>
        <time>2017-06-19T11:49:08Z</time>
      </trkpt>
      <trkpt lat="60.465606031939387" lon="5.32811600714922">
        <ele>86.180000000000007</ele>
        <time>2017-06-19T11:49:19Z</time>
      </trkpt>
      <trkpt lat="60.466706994920969" lon="5.328257996588945">
        <ele>87.140000000000001</ele>
        <time>2017-06-19T11:49:29Z</time>
      </trkpt>
      <trkpt lat="60.467319041490555" lon="5.327969994395971">
        <ele>86.659999999999997</ele>
        <time>2017-06-19T11:49:37Z</time>
      </trkpt>
      <trkpt lat="60.46741702593863" lon="5.327873015776277">
        <ele>86.659999999999997</ele>
        <time>2017-06-19T11:49:38Z</time>
      </trkpt>
      <trkpt lat="60.467512998729944" lon="5.327749969437718">
        <ele>86.659999999999997</ele>
        <time>2017-06-19T11:49:39Z</time>
      </trkpt>
      <trkpt lat="60.468480018898845" lon="5.326382964849472">
        <ele>91.459999999999994</ele>
        <time>2017-06-19T11:49:48Z</time>
      </trkpt>
      <trkpt lat="60.468799034133554" lon="5.326080964878202">
        <ele>91.459999999999994</ele>
        <time>2017-06-19T11:49:51Z</time>
      </trkpt>
      <trkpt lat="60.46889903023839" lon="5.326017010957003">
        <ele>90.5</ele>
        <time>2017-06-19T11:49:52Z</time>
      </trkpt>
      <trkpt lat="60.469471011310816" lon="5.325697995722294">
        <ele>88.579999999999998</ele>
        <time>2017-06-19T11:49:59Z</time>
      </trkpt>
      <trkpt lat="60.469537982717156" lon="5.325677962973714">
        <ele>89.540000000000006</ele>
        <time>2017-06-19T11:50:00Z</time>
      </trkpt>
      <trkpt lat="60.469601014629006" lon="5.325675029307604">
        <ele>89.540000000000006</ele>
        <time>2017-06-19T11:50:01Z</time>
      </trkpt>
      <trkpt lat="60.469664968550205" lon="5.325691038742662">
        <ele>89.540000000000006</ele>
        <time>2017-06-19T11:50:02Z</time>
      </trkpt>
      <trkpt lat="60.469726994633675" lon="5.325734037905932">
        <ele>89.060000000000002</ele>
        <time>2017-06-19T11:50:03Z</time>
      </trkpt>
      <trkpt lat="60.469786003232002" lon="5.325792040675879">
        <ele>89.060000000000002</ele>
        <time>2017-06-19T11:50:04Z</time>
      </trkpt>
      <trkpt lat="60.469839982688427" lon="5.325869992375374">
        <ele>88.579999999999998</ele>
        <time>2017-06-19T11:50:05Z</time>
      </trkpt>
      <trkpt lat="60.469894967973232" lon="5.325956996530294">
        <ele>88.099999999999994</ele>
        <time>2017-06-19T11:50:06Z</time>
      </trkpt>
      <trkpt lat="60.470717987045646" lon="5.326989982277155">
        <ele>86.659999999999997</ele>
        <time>2017-06-19T11:50:18Z</time>
      </trkpt>
      <trkpt lat="60.470843967050314" lon="5.327226016670466">
        <ele>86.180000000000007</ele>
        <time>2017-06-19T11:50:21Z</time>
      </trkpt>
      <trkpt lat="60.470873974263668" lon="5.327312014997006">
        <ele>85.689999999999998</ele>
        <time>2017-06-19T11:50:22Z</time>
      </trkpt>
      <trkpt lat="60.470902975648642" lon="5.327402036637068">
        <ele>85.209999999999994</ele>
        <time>2017-06-19T11:50:23Z</time>
      </trkpt>
      <trkpt lat="60.470922002568841" lon="5.327489040791988">
        <ele>84.730000000000004</ele>
        <time>2017-06-19T11:50:24Z</time>
      </trkpt>
      <trkpt lat="60.470930971205235" lon="5.327574033290148">
        <ele>84.730000000000004</ele>
        <time>2017-06-19T11:50:25Z</time>
      </trkpt>
      <trkpt lat="60.470937006175518" lon="5.327656008303165">
        <ele>84.730000000000004</ele>
        <time>2017-06-19T11:50:26Z</time>
      </trkpt>
      <trkpt lat="60.470939017832279" lon="5.327750975266099">
        <ele>84.730000000000004</ele>
        <time>2017-06-19T11:50:27Z</time>
      </trkpt>
      <trkpt lat="60.470974976196885" lon="5.327984998002648">
        <ele>85.209999999999994</ele>
        <time>2017-06-19T11:50:29Z</time>
      </trkpt>
      <trkpt lat="60.471015963703394" lon="5.328098991885781">
        <ele>84.730000000000004</ele>
        <time>2017-06-19T11:50:30Z</time>
      </trkpt>
      <trkpt lat="60.471075978130102" lon="5.32820200547576">
        <ele>84.730000000000004</ele>
        <time>2017-06-19T11:50:31Z</time>
      </trkpt>
      <trkpt lat="60.47135098837316" lon="5.32874196767807">
        <ele>83.769999999999996</ele>
        <time>2017-06-19T11:50:35Z</time>
      </trkpt>
      <trkpt lat="60.471602026373148" lon="5.329453004524112">
        <ele>84.730000000000004</ele>
        <time>2017-06-19T11:50:39Z</time>
      </trkpt>
      <trkpt lat="60.471682995557785" lon="5.329612009227276">
        <ele>85.209999999999994</ele>
        <time>2017-06-19T11:50:40Z</time>
      </trkpt>
      <trkpt lat="60.47177704051137" lon="5.329756010323763">
        <ele>85.689999999999998</ele>
        <time>2017-06-19T11:50:41Z</time>
      </trkpt>
      <trkpt lat="60.471876030787826" lon="5.329877967014909">
        <ele>85.689999999999998</ele>
        <time>2017-06-19T11:50:42Z</time>
      </trkpt>
      <trkpt lat="60.471978960558772" lon="5.329980980604887">
        <ele>85.689999999999998</ele>
        <time>2017-06-19T11:50:43Z</time>
      </trkpt>
      <trkpt lat="60.472088009119034" lon="5.330077037215233">
        <ele>86.180000000000007</ele>
        <time>2017-06-19T11:50:44Z</time>
      </trkpt>
      <trkpt lat="60.47296098433435" lon="5.330922016873956">
        <ele>86.180000000000007</ele>
        <time>2017-06-19T11:50:54Z</time>
      </trkpt>
      <trkpt lat="60.473800012841821" lon="5.331301968544722">
        <ele>87.140000000000001</ele>
        <time>2017-06-19T11:51:04Z</time>
      </trkpt>
      <trkpt lat="60.473921969532967" lon="5.331344967707992">
        <ele>87.620000000000005</ele>
        <time>2017-06-19T11:51:06Z</time>
      </trkpt>
      <trkpt lat="60.473980978131294" lon="5.331386039033532">
        <ele>88.099999999999994</ele>
        <time>2017-06-19T11:51:07Z</time>
      </trkpt>
      <trkpt lat="60.474035041406751" lon="5.331453010439873">
        <ele>87.620000000000005</ele>
        <time>2017-06-19T11:51:08Z</time>
      </trkpt>
      <trkpt lat="60.474078040570021" lon="5.331546971574426">
        <ele>88.099999999999994</ele>
        <time>2017-06-19T11:51:09Z</time>
      </trkpt>
      <trkpt lat="60.474108969792724" lon="5.331670017912984">
        <ele>88.099999999999994</ele>
        <time>2017-06-19T11:51:10Z</time>
      </trkpt>
      <trkpt lat="60.474107963964343" lon="5.331808989867568">
        <ele>88.579999999999998</ele>
        <time>2017-06-19T11:51:11Z</time>
      </trkpt>
      <trkpt lat="60.474094972014427" lon="5.331955002620816">
        <ele>88.579999999999998</ele>
        <time>2017-06-19T11:51:12Z</time>
      </trkpt>
      <trkpt lat="60.473935967311263" lon="5.332944989204407">
        <ele>89.540000000000006</ele>
        <time>2017-06-19T11:51:21Z</time>
      </trkpt>
      <trkpt lat="60.473738992586732" lon="5.333626018837094">
        <ele>87.140000000000001</ele>
        <time>2017-06-19T11:51:34Z</time>
      </trkpt>
      <trkpt lat="60.473688030615449" lon="5.333799021318555">
        <ele>87.620000000000005</ele>
        <time>2017-06-19T11:51:36Z</time>
      </trkpt>
      <trkpt lat="60.473680989816785" lon="5.333912009373307">
        <ele>87.620000000000005</ele>
        <time>2017-06-19T11:51:37Z</time>
      </trkpt>
      <trkpt lat="60.47368903644383" lon="5.334033966064453">
        <ele>87.620000000000005</ele>
        <time>2017-06-19T11:51:38Z</time>
      </trkpt>
      <trkpt lat="60.473714014515281" lon="5.334157012403011">
        <ele>87.620000000000005</ele>
        <time>2017-06-19T11:51:39Z</time>
      </trkpt>
      <trkpt lat="60.473744021728635" lon="5.334277963265777">
        <ele>87.620000000000005</ele>
        <time>2017-06-19T11:51:40Z</time>
      </trkpt>
      <trkpt lat="60.473814010620117" lon="5.334523972123861">
        <ele>87.140000000000001</ele>
        <time>2017-06-19T11:51:42Z</time>
      </trkpt>
      <trkpt lat="60.473857009783387" lon="5.334632014855743">
        <ele>87.140000000000001</ele>
        <time>2017-06-19T11:51:43Z</time>
      </trkpt>
      <trkpt lat="60.47390797175467" lon="5.334731005132198">
        <ele>87.140000000000001</ele>
        <time>2017-06-19T11:51:44Z</time>
      </trkpt>
      <trkpt lat="60.474080974236131" lon="5.33505798317492">
        <ele>85.689999999999998</ele>
        <time>2017-06-19T11:51:47Z</time>
      </trkpt>
      <trkpt lat="60.474130008369684" lon="5.335181029513478">
        <ele>85.209999999999994</ele>
        <time>2017-06-19T11:51:48Z</time>
      </trkpt>
      <trkpt lat="60.474170995876193" lon="5.335310027003288">
        <ele>85.209999999999994</ele>
        <time>2017-06-19T11:51:49Z</time>
      </trkpt>
      <trkpt lat="60.474365958943963" lon="5.336115024983883">
        <ele>84.730000000000004</ele>
        <time>2017-06-19T11:51:57Z</time>
      </trkpt>
      <trkpt lat="60.474736019968987" lon="5.337768020108342">
        <ele>85.689999999999998</ele>
        <time>2017-06-19T11:52:08Z</time>
      </trkpt>
      <trkpt lat="60.475073978304863" lon="5.340038007125258">
        <ele>87.620000000000005</ele>
        <time>2017-06-19T11:52:20Z</time>
      </trkpt>
      <trkpt lat="60.475130975246429" lon="5.340787013992667">
        <ele>88.579999999999998</ele>
        <time>2017-06-19T11:52:29Z</time>
      </trkpt>
      <trkpt lat="60.475190989673138" lon="5.341584971174598">
        <ele>89.540000000000006</ele>
        <time>2017-06-19T11:52:37Z</time>
      </trkpt>
      <trkpt lat="60.475401962175965" lon="5.343164959922433">
        <ele>90.5</ele>
        <time>2017-06-19T11:52:48Z</time>
      </trkpt>
      <trkpt lat="60.475788032636046" lon="5.344411013647914">
        <ele>91.939999999999998</ele>
        <time>2017-06-19T11:53:00Z</time>
      </trkpt>
      <trkpt lat="60.475877970457077" lon="5.344711001962423">
        <ele>91.939999999999998</ele>
        <time>2017-06-19T11:53:03Z</time>
      </trkpt>
      <trkpt lat="60.475894985720515" lon="5.344786019995809">
        <ele>91.459999999999994</ele>
        <time>2017-06-19T11:53:04Z</time>
      </trkpt>
      <trkpt lat="60.475938990712166" lon="5.345014007762075">
        <ele>91.459999999999994</ele>
        <time>2017-06-19T11:53:07Z</time>
      </trkpt>
      <trkpt lat="60.475966986268759" lon="5.345095982775092">
        <ele>91.939999999999998</ele>
        <time>2017-06-19T11:53:08Z</time>
      </trkpt>
      <trkpt lat="60.476005962118506" lon="5.345177035778761">
        <ele>91.459999999999994</ele>
        <time>2017-06-19T11:53:09Z</time>
      </trkpt>
      <trkpt lat="60.476166978478432" lon="5.345518011599779">
        <ele>90.980000000000004</ele>
        <time>2017-06-19T11:53:12Z</time>
      </trkpt>
      <trkpt lat="60.476596970111132" lon="5.346918040886521">
        <ele>90.5</ele>
        <time>2017-06-19T11:53:20Z</time>
      </trkpt>
      <trkpt lat="60.476631000638008" lon="5.347138987854123">
        <ele>90.5</ele>
        <time>2017-06-19T11:53:21Z</time>
      </trkpt>
      <trkpt lat="60.476655978709459" lon="5.347363958135247">
        <ele>90.5</ele>
        <time>2017-06-19T11:53:22Z</time>
      </trkpt>
      <trkpt lat="60.476667964830995" lon="5.347579959779978">
        <ele>90.019999999999996</ele>
        <time>2017-06-19T11:53:23Z</time>
      </trkpt>
      <trkpt lat="60.476672993972898" lon="5.347805013880134">
        <ele>90.019999999999996</ele>
        <time>2017-06-19T11:53:24Z</time>
      </trkpt>
      <trkpt lat="60.476551037281752" lon="5.349990008398891">
        <ele>90.019999999999996</ele>
        <time>2017-06-19T11:53:34Z</time>
      </trkpt>
      <trkpt lat="60.476479036733508" lon="5.350627033039928">
        <ele>90.019999999999996</ele>
        <time>2017-06-19T11:53:37Z</time>
      </trkpt>
      <trkpt lat="60.47644198872149" lon="5.350821996107698">
        <ele>90.019999999999996</ele>
        <time>2017-06-19T11:53:38Z</time>
      </trkpt>
      <trkpt lat="60.476395972073078" lon="5.351006984710693">
        <ele>90.019999999999996</ele>
        <time>2017-06-19T11:53:39Z</time>
      </trkpt>
      <trkpt lat="60.476337969303131" lon="5.351186022162437">
        <ele>90.5</ele>
        <time>2017-06-19T11:53:40Z</time>
      </trkpt>
      <trkpt lat="60.476273009553552" lon="5.351358018815517">
        <ele>90.019999999999996</ele>
        <time>2017-06-19T11:53:41Z</time>
      </trkpt>
      <trkpt lat="60.476076034829021" lon="5.351865962147713">
        <ele>90.5</ele>
        <time>2017-06-19T11:53:44Z</time>
      </trkpt>
      <trkpt lat="60.476028006523848" lon="5.352038964629173">
        <ele>90.980000000000004</ele>
        <time>2017-06-19T11:53:45Z</time>
      </trkpt>
      <trkpt lat="60.475995987653732" lon="5.352208027616143">
        <ele>90.980000000000004</ele>
        <time>2017-06-19T11:53:46Z</time>
      </trkpt>
      <trkpt lat="60.475987019017339" lon="5.352357979863882">
        <ele>90.980000000000004</ele>
        <time>2017-06-19T11:53:47Z</time>
      </trkpt>
      <trkpt lat="60.475993975996971" lon="5.352479014545679">
        <ele>90.980000000000004</ele>
        <time>2017-06-19T11:53:48Z</time>
      </trkpt>
      <trkpt lat="60.476013002917171" lon="5.352560989558697">
        <ele>91.459999999999994</ele>
        <time>2017-06-19T11:53:49Z</time>
      </trkpt>
      <trkpt lat="60.476027000695467" lon="5.352624021470547">
        <ele>91.459999999999994</ele>
        <time>2017-06-19T11:53:50Z</time>
      </trkpt>
      <trkpt lat="60.476043010130525" lon="5.352680012583733">
        <ele>91.459999999999994</ele>
        <time>2017-06-19T11:53:51Z</time>
      </trkpt>
      <trkpt lat="60.476066982373595" lon="5.352737009525299">
        <ele>91.459999999999994</ele>
        <time>2017-06-19T11:53:52Z</time>
      </trkpt>
      <trkpt lat="60.47609799541533" lon="5.352808004245162">
        <ele>91.459999999999994</ele>
        <time>2017-06-19T11:53:53Z</time>
      </trkpt>
      <trkpt lat="60.476155998185277" lon="5.352977989241481">
        <ele>91.459999999999994</ele>
        <time>2017-06-19T11:53:55Z</time>
      </trkpt>
      <trkpt lat="60.476174019277096" lon="5.353084020316601">
        <ele>91.459999999999994</ele>
        <time>2017-06-19T11:53:56Z</time>
      </trkpt>
      <trkpt lat="60.476171001791954" lon="5.353213017806411">
        <ele>90.980000000000004</ele>
        <time>2017-06-19T11:53:57Z</time>
      </trkpt>
      <trkpt lat="60.476148035377264" lon="5.353358024731278">
        <ele>90.980000000000004</ele>
        <time>2017-06-19T11:53:58Z</time>
      </trkpt>
      <trkpt lat="60.476114004850388" lon="5.353505965322256">
        <ele>90.980000000000004</ele>
        <time>2017-06-19T11:53:59Z</time>
      </trkpt>
      <trkpt lat="60.476073017343879" lon="5.353656001389027">
        <ele>90.980000000000004</ele>
        <time>2017-06-19T11:54:00Z</time>
      </trkpt>
      <trkpt lat="60.476020965725183" lon="5.353819029405713">
        <ele>90.5</ele>
        <time>2017-06-19T11:54:01Z</time>
      </trkpt>
      <trkpt lat="60.475393999367952" lon="5.355384014546871">
        <ele>88.579999999999998</ele>
        <time>2017-06-19T11:54:09Z</time>
      </trkpt>
      <trkpt lat="60.474224975332618" lon="5.357436994090676">
        <ele>89.540000000000006</ele>
        <time>2017-06-19T11:54:18Z</time>
      </trkpt>
      <trkpt lat="60.473447972908616" lon="5.359842013567686">
        <ele>92.420000000000002</ele>
        <time>2017-06-19T11:54:26Z</time>
      </trkpt>
      <trkpt lat="60.472903987392783" lon="5.361948972567916">
        <ele>94.829999999999998</ele>
        <time>2017-06-19T11:54:34Z</time>
      </trkpt>
      <trkpt lat="60.471956999972463" lon="5.364960003644228">
        <ele>97.709999999999994</ele>
        <time>2017-06-19T11:54:47Z</time>
      </trkpt>
      <trkpt lat="60.471218973398209" lon="5.366665972396731">
        <ele>97.709999999999994</ele>
        <time>2017-06-19T11:54:57Z</time>
      </trkpt>
      <trkpt lat="60.469985995441675" lon="5.368663966655731">
        <ele>98.189999999999998</ele>
        <time>2017-06-19T11:55:12Z</time>
      </trkpt>
      <trkpt lat="60.469067003577948" lon="5.370030971243978">
        <ele>100.59999999999999</ele>
        <time>2017-06-19T11:55:24Z</time>
      </trkpt>
      <trkpt lat="60.468279020860791" lon="5.371964005753398">
        <ele>97.230000000000004</ele>
        <time>2017-06-19T11:55:35Z</time>
      </trkpt>
      <trkpt lat="60.46681797131896" lon="5.374748976901174">
        <ele>97.709999999999994</ele>
        <time>2017-06-19T11:55:49Z</time>
      </trkpt>
      <trkpt lat="60.465199006721377" lon="5.376922991126776">
        <ele>96.269999999999996</ele>
        <time>2017-06-19T11:56:02Z</time>
      </trkpt>
      <trkpt lat="60.463591022416949" lon="5.378876980394125">
        <ele>94.349999999999994</ele>
        <time>2017-06-19T11:56:13Z</time>
      </trkpt>
      <trkpt lat="60.461935009807348" lon="5.381685001775622">
        <ele>84.730000000000004</ele>
        <time>2017-06-19T11:56:25Z</time>
      </trkpt>
      <trkpt lat="60.460214037448168" lon="5.384072000160813">
        <ele>75.599999999999994</ele>
        <time>2017-06-19T11:56:37Z</time>
      </trkpt>
      <trkpt lat="60.459293033927679" lon="5.386447012424469">
        <ele>70.310000000000002</ele>
        <time>2017-06-19T11:56:45Z</time>
      </trkpt>
      <trkpt lat="60.458877962082624" lon="5.389138022437692">
        <ele>66.950000000000003</ele>
        <time>2017-06-19T11:56:53Z</time>
      </trkpt>
      <trkpt lat="60.458846027031541" lon="5.39319503121078">
        <ele>67.909999999999997</ele>
        <time>2017-06-19T11:57:05Z</time>
      </trkpt>
      <trkpt lat="60.459316000342369" lon="5.396779971197248">
        <ele>69.829999999999998</ele>
        <time>2017-06-19T11:57:16Z</time>
      </trkpt>
      <trkpt lat="60.460329037159681" lon="5.406447993591428">
        <ele>64.069999999999993</ele>
        <time>2017-06-19T11:57:45Z</time>
      </trkpt>
      <trkpt lat="60.46013499610126" lon="5.410757968202233">
        <ele>64.069999999999993</ele>
        <time>2017-06-19T11:57:57Z</time>
      </trkpt>
      <trkpt lat="60.45987700112164" lon="5.414626970887184">
        <ele>65.030000000000001</ele>
        <time>2017-06-19T11:58:08Z</time>
      </trkpt>
      <trkpt lat="60.460138013586402" lon="5.417811004444957">
        <ele>64.549999999999997</ele>
        <time>2017-06-19T11:58:17Z</time>
      </trkpt>
      <trkpt lat="60.460119992494583" lon="5.420622965320945">
        <ele>64.069999999999993</ele>
        <time>2017-06-19T11:58:25Z</time>
      </trkpt>
      <trkpt lat="60.459855040535331" lon="5.424809977412224">
        <ele>65.510000000000005</ele>
        <time>2017-06-19T11:58:37Z</time>
      </trkpt>
      <trkpt lat="60.459771975874901" lon="5.428427020087838">
        <ele>65.030000000000001</ele>
        <time>2017-06-19T11:58:48Z</time>
      </trkpt>
      <trkpt lat="60.45972696505487" lon="5.428743017837405">
        <ele>65.510000000000005</ele>
        <time>2017-06-19T11:58:49Z</time>
      </trkpt>
      <trkpt lat="60.455430988222361" lon="5.441564982756972">
        <ele>70.310000000000002</ele>
        <time>2017-06-19T11:59:38Z</time>
      </trkpt>
      <trkpt lat="60.454921033233404" lon="5.442475005984306">
        <ele>69.829999999999998</ele>
        <time>2017-06-19T11:59:42Z</time>
      </trkpt>
      <trkpt lat="60.454497998580337" lon="5.443050004541874">
        <ele>72.719999999999999</ele>
        <time>2017-06-19T11:59:45Z</time>
      </trkpt>
      <trkpt lat="60.45418300665915" lon="5.443361978977919">
        <ele>73.680000000000007</ele>
        <time>2017-06-19T11:59:47Z</time>
      </trkpt>
      <trkpt lat="60.447096023708582" lon="5.447324020788074">
        <ele>68.390000000000001</ele>
        <time>2017-06-19T12:00:32Z</time>
      </trkpt>
      <trkpt lat="60.445486027747393" lon="5.448852963745594">
        <ele>63.100000000000001</ele>
        <time>2017-06-19T12:00:42Z</time>
      </trkpt>
      <trkpt lat="60.443598004058003" lon="5.450316024944186">
        <ele>54.450000000000003</ele>
        <time>2017-06-19T12:00:53Z</time>
      </trkpt>
      <trkpt lat="60.441638985648751" lon="5.451112976297736">
        <ele>44.359999999999999</ele>
        <time>2017-06-19T12:01:04Z</time>
      </trkpt>
      <trkpt lat="60.439816005527973" lon="5.451253037899733">
        <ele>35.229999999999997</ele>
        <time>2017-06-19T12:01:14Z</time>
      </trkpt>
      <trkpt lat="60.436885021626949" lon="5.451210038736463">
        <ele>33.299999999999997</ele>
        <time>2017-06-19T12:01:30Z</time>
      </trkpt>
      <trkpt lat="60.434482013806701" lon="5.451320009306073">
        <ele>35.710000000000001</ele>
        <time>2017-06-19T12:01:43Z</time>
      </trkpt>
      <trkpt lat="60.432364996522665" lon="5.45189299620688">
        <ele>38.109999999999999</ele>
        <time>2017-06-19T12:01:55Z</time>
      </trkpt>
      <trkpt lat="60.430556014180183" lon="5.453050034120679">
        <ele>41.950000000000003</ele>
        <time>2017-06-19T12:02:06Z</time>
      </trkpt>
      <trkpt lat="60.428469004109502" lon="5.454630022868514">
        <ele>47.240000000000002</ele>
        <time>2017-06-19T12:02:19Z</time>
      </trkpt>
      <trkpt lat="60.426776027306914" lon="5.455243997275829">
        <ele>40.990000000000002</ele>
        <time>2017-06-19T12:02:29Z</time>
      </trkpt>
      <trkpt lat="60.425401981920004" lon="5.456573031842709">
        <ele>37.630000000000003</ele>
        <time>2017-06-19T12:02:38Z</time>
      </trkpt>
      <trkpt lat="60.423775976523757" lon="5.458561973646283">
        <ele>28.98</ele>
        <time>2017-06-19T12:02:50Z</time>
      </trkpt>
      <trkpt lat="60.422548027709126" lon="5.459746001288295">
        <ele>26.09</ele>
        <time>2017-06-19T12:03:00Z</time>
      </trkpt>
      <trkpt lat="60.422347029671073" lon="5.459884973242879">
        <ele>25.609999999999999</ele>
        <time>2017-06-19T12:03:02Z</time>
      </trkpt>
      <trkpt lat="60.422246027737856" lon="5.459924032911658">
        <ele>25.609999999999999</ele>
        <time>2017-06-19T12:03:03Z</time>
      </trkpt>
      <trkpt lat="60.422051986679435" lon="5.459996033459902">
        <ele>25.129999999999999</ele>
        <time>2017-06-19T12:03:05Z</time>
      </trkpt>
      <trkpt lat="60.421962970867753" lon="5.460061999037862">
        <ele>25.609999999999999</ele>
        <time>2017-06-19T12:03:06Z</time>
      </trkpt>
      <trkpt lat="60.421876972541213" lon="5.460154032334685">
        <ele>25.129999999999999</ele>
        <time>2017-06-19T12:03:07Z</time>
      </trkpt>
      <trkpt lat="60.420739967375994" lon="5.461204033344984">
        <ele>27.050000000000001</ele>
        <time>2017-06-19T12:03:18Z</time>
      </trkpt>
      <trkpt lat="60.418941965326667" lon="5.462697017937899">
        <ele>29.940000000000001</ele>
        <time>2017-06-19T12:03:35Z</time>
      </trkpt>
      <trkpt lat="60.417376980185509" lon="5.464027980342507">
        <ele>32.82</ele>
        <time>2017-06-19T12:03:51Z</time>
      </trkpt>
      <trkpt lat="60.417200960218906" lon="5.46409503556788">
        <ele>33.780000000000001</ele>
        <time>2017-06-19T12:03:58Z</time>
      </trkpt>
      <trkpt lat="60.41714203543961" lon="5.464106015861034">
        <ele>33.299999999999997</ele>
        <time>2017-06-19T12:04:00Z</time>
      </trkpt>
      <trkpt lat="60.417093001306057" lon="5.464139962568879">
        <ele>34.259999999999998</ele>
        <time>2017-06-19T12:04:01Z</time>
      </trkpt>
      <trkpt lat="60.417042039334774" lon="5.464190002530813">
        <ele>34.259999999999998</ele>
        <time>2017-06-19T12:04:02Z</time>
      </trkpt>
      <trkpt lat="60.417003985494375" lon="5.464272983372212">
        <ele>34.740000000000002</ele>
        <time>2017-06-19T12:04:03Z</time>
      </trkpt>
      <trkpt lat="60.416982024908066" lon="5.464382031932473">
        <ele>34.259999999999998</ele>
        <time>2017-06-19T12:04:04Z</time>
      </trkpt>
      <trkpt lat="60.416985964402556" lon="5.464497031643987">
        <ele>34.259999999999998</ele>
        <time>2017-06-19T12:04:05Z</time>
      </trkpt>
      <trkpt lat="60.4170130379498" lon="5.464626029133797">
        <ele>34.259999999999998</ele>
        <time>2017-06-19T12:04:06Z</time>
      </trkpt>
      <trkpt lat="60.41705503128469" lon="5.464738011360169">
        <ele>34.259999999999998</ele>
        <time>2017-06-19T12:04:07Z</time>
      </trkpt>
      <trkpt lat="60.417112028226256" lon="5.464838007465005">
        <ele>34.259999999999998</ele>
        <time>2017-06-19T12:04:08Z</time>
      </trkpt>
      <trkpt lat="60.417474964633584" lon="5.465840985998511">
        <ele>32.340000000000003</ele>
        <time>2017-06-19T12:04:17Z</time>
      </trkpt>
      <trkpt lat="60.417776964604855" lon="5.467680981382728">
        <ele>24.170000000000002</ele>
        <time>2017-06-19T12:04:28Z</time>
      </trkpt>
      <trkpt lat="60.417784005403519" lon="5.469681993126869">
        <ele>18.879999999999999</ele>
        <time>2017-06-19T12:04:38Z</time>
      </trkpt>
      <trkpt lat="60.423281025141478" lon="5.508588021621108">
        <ele>57.340000000000003</ele>
        <time>2017-06-19T12:06:49Z</time>
      </trkpt>
      <trkpt lat="60.422786995768547" lon="5.512840999290347">
        <ele>61.18</ele>
        <time>2017-06-19T12:07:02Z</time>
      </trkpt>
      <trkpt lat="60.422691022977233" lon="5.51338498480618">
        <ele>61.18</ele>
        <time>2017-06-19T12:07:04Z</time>
      </trkpt>
      <trkpt lat="60.422632014378905" lon="5.513722021132708">
        <ele>60.700000000000003</ele>
        <time>2017-06-19T12:07:05Z</time>
      </trkpt>
      <trkpt lat="60.422008987516165" lon="5.516425017267466">
        <ele>58.299999999999997</ele>
        <time>2017-06-19T12:07:14Z</time>
      </trkpt>
      <trkpt lat="60.421586958691478" lon="5.517727984115481">
        <ele>57.82</ele>
        <time>2017-06-19T12:07:19Z</time>
      </trkpt>
      <trkpt lat="60.420460011810064" lon="5.520577998831868">
        <ele>52.530000000000001</ele>
        <time>2017-06-19T12:07:31Z</time>
      </trkpt>
      <trkpt lat="60.420017028227448" lon="5.523400017991662">
        <ele>45.32</ele>
        <time>2017-06-19T12:07:40Z</time>
      </trkpt>
      <trkpt lat="60.420070001855493" lon="5.526107959449291">
        <ele>41.950000000000003</ele>
        <time>2017-06-19T12:07:48Z</time>
      </trkpt>
      <trkpt lat="60.420724041759968" lon="5.530181983485818">
        <ele>44.359999999999999</ele>
        <time>2017-06-19T12:08:00Z</time>
      </trkpt>
      <trkpt lat="60.421829028055072" lon="5.535096041858196">
        <ele>49.159999999999997</ele>
        <time>2017-06-19T12:08:15Z</time>
      </trkpt>
      <trkpt lat="60.422164974734187" lon="5.538549972698093">
        <ele>46.759999999999998</ele>
        <time>2017-06-19T12:08:25Z</time>
      </trkpt>
      <trkpt lat="60.422176038846374" lon="5.542592983692884">
        <ele>40.990000000000002</ele>
        <time>2017-06-19T12:08:36Z</time>
      </trkpt>
      <trkpt lat="60.422236975282431" lon="5.55755996145308">
        <ele>44.840000000000003</ele>
        <time>2017-06-19T12:09:15Z</time>
      </trkpt>
      <trkpt lat="60.422752965241671" lon="5.560955973342061">
        <ele>37.630000000000003</ele>
        <time>2017-06-19T12:09:24Z</time>
      </trkpt>
      <trkpt lat="60.423643961548805" lon="5.564071023836732">
        <ele>31.379999999999999</ele>
        <time>2017-06-19T12:09:34Z</time>
      </trkpt>
      <trkpt lat="60.424677031114697" lon="5.567281963303685">
        <ele>35.229999999999997</ele>
        <time>2017-06-19T12:09:44Z</time>
      </trkpt>
      <trkpt lat="60.425726026296616" lon="5.570483012124896">
        <ele>43.399999999999999</ele>
        <time>2017-06-19T12:09:54Z</time>
      </trkpt>
      <trkpt lat="60.426907958462834" lon="5.572659038007259">
        <ele>48.200000000000003</ele>
        <time>2017-06-19T12:10:03Z</time>
      </trkpt>
      <trkpt lat="60.427610026672482" lon="5.575144020840526">
        <ele>49.649999999999999</ele>
        <time>2017-06-19T12:10:11Z</time>
      </trkpt>
      <trkpt lat="60.426888009533286" lon="5.592019977048039">
        <ele>43.399999999999999</ele>
        <time>2017-06-19T12:10:59Z</time>
      </trkpt>
      <trkpt lat="60.425860974937677" lon="5.623760987073183">
        <ele>117.42</ele>
        <time>2017-06-19T12:12:34Z</time>
      </trkpt>
      <trkpt lat="60.42577899992466" lon="5.623957039788365">
        <ele>119.81999999999999</ele>
        <time>2017-06-19T12:12:35Z</time>
      </trkpt>
      <trkpt lat="60.424590026959777" lon="5.625413982197642">
        <ele>139.05000000000001</ele>
        <time>2017-06-19T12:12:45Z</time>
      </trkpt>
      <trkpt lat="60.424244021996856" lon="5.625865012407303">
        <ele>138.56999999999999</ele>
        <time>2017-06-19T12:12:50Z</time>
      </trkpt>
      <trkpt lat="60.424195993691683" lon="5.626016976311803">
        <ele>138.56999999999999</ele>
        <time>2017-06-19T12:12:51Z</time>
      </trkpt>
      <trkpt lat="60.424164980649948" lon="5.626206994056702">
        <ele>140.00999999999999</ele>
        <time>2017-06-19T12:12:52Z</time>
      </trkpt>
      <trkpt lat="60.424132961779833" lon="5.626437999308109">
        <ele>140.00999999999999</ele>
        <time>2017-06-19T12:12:53Z</time>
      </trkpt>
      <trkpt lat="60.424103960394859" lon="5.626673027873039">
        <ele>140.00999999999999</ele>
        <time>2017-06-19T12:12:54Z</time>
      </trkpt>
      <trkpt lat="60.423685032874346" lon="5.629409970715642">
        <ele>140.49000000000001</ele>
        <time>2017-06-19T12:13:04Z</time>
      </trkpt>
      <trkpt lat="60.43826200067997" lon="5.634458977729082">
        <ele>100.11</ele>
        <time>2017-06-19T12:14:40Z</time>
      </trkpt>
      <trkpt lat="60.440134014934301" lon="5.634527960792184">
        <ele>98.670000000000002</ele>
        <time>2017-06-19T12:14:50Z</time>
      </trkpt>
      <trkpt lat="60.441882982850075" lon="5.635403031483293">
        <ele>103.48</ele>
        <time>2017-06-19T12:15:00Z</time>
      </trkpt>
      <trkpt lat="60.456465985625982" lon="5.677030999213457">
        <ele>54.93</ele>
        <time>2017-06-19T12:17:23Z</time>
      </trkpt>
      <trkpt lat="60.456505967304111" lon="5.677377004176378">
        <ele>52.049999999999997</ele>
        <time>2017-06-19T12:17:24Z</time>
      </trkpt>
      <trkpt lat="60.456528011709452" lon="5.677777994424105">
        <ele>50.609999999999999</ele>
        <time>2017-06-19T12:17:25Z</time>
      </trkpt>
      <trkpt lat="60.456543015316129" lon="5.678135985508561">
        <ele>51.090000000000003</ele>
        <time>2017-06-19T12:17:26Z</time>
      </trkpt>
      <trkpt lat="60.456552989780903" lon="5.678470004349947">
        <ele>51.090000000000003</ele>
        <time>2017-06-19T12:17:27Z</time>
      </trkpt>
      <trkpt lat="60.456550978124142" lon="5.678811985999346">
        <ele>51.090000000000003</ele>
        <time>2017-06-19T12:17:28Z</time>
      </trkpt>
      <trkpt lat="60.456528011709452" lon="5.679149022325873">
        <ele>49.649999999999999</ele>
        <time>2017-06-19T12:17:29Z</time>
      </trkpt>
      <trkpt lat="60.456513008102775" lon="5.679476000368595">
        <ele>52.530000000000001</ele>
        <time>2017-06-19T12:17:30Z</time>
      </trkpt>
      <trkpt lat="60.456458022817969" lon="5.679813958704472">
        <ele>53.009999999999998</ele>
        <time>2017-06-19T12:17:31Z</time>
      </trkpt>
      <trkpt lat="60.456412006169558" lon="5.68013297393918">
        <ele>53.969999999999999</ele>
        <time>2017-06-19T12:17:32Z</time>
      </trkpt>
      <trkpt lat="60.456341011449695" lon="5.680436985567212">
        <ele>55.409999999999997</ele>
        <time>2017-06-19T12:17:33Z</time>
      </trkpt>
      <trkpt lat="60.45626699924469" lon="5.680733034387231">
        <ele>56.369999999999997</ele>
        <time>2017-06-19T12:17:34Z</time>
      </trkpt>
      <trkpt lat="60.456187035888433" lon="5.681022964417934">
        <ele>58.780000000000001</ele>
        <time>2017-06-19T12:17:35Z</time>
      </trkpt>
      <trkpt lat="60.455082971602678" lon="5.684075988829136">
        <ele>72.239999999999995</ele>
        <time>2017-06-19T12:17:46Z</time>
      </trkpt>
      <trkpt lat="60.453741028904915" lon="5.687740975990892">
        <ele>78.480000000000004</ele>
        <time>2017-06-19T12:17:59Z</time>
      </trkpt>
      <trkpt lat="60.452880039811134" lon="5.705486973747611">
        <ele>20.809999999999999</ele>
        <time>2017-06-19T12:18:53Z</time>
      </trkpt>
      <trkpt lat="60.452925972640514" lon="5.705832978710532">
        <ele>20.32</ele>
        <time>2017-06-19T12:18:54Z</time>
      </trkpt>
      <trkpt lat="60.452985987067223" lon="5.706143025308847">
        <ele>18.399999999999999</ele>
        <time>2017-06-19T12:18:55Z</time>
      </trkpt>
      <trkpt lat="60.45306502841413" lon="5.706445025280118">
        <ele>17.920000000000002</ele>
        <time>2017-06-19T12:18:56Z</time>
      </trkpt>
      <trkpt lat="60.453152032569051" lon="5.706697991117835">
        <ele>14.56</ele>
        <time>2017-06-19T12:18:57Z</time>
      </trkpt>
      <trkpt lat="60.453250017017126" lon="5.706954980269074">
        <ele>14.08</ele>
        <time>2017-06-19T12:18:58Z</time>
      </trkpt>
      <trkpt lat="60.453351018950343" lon="5.707208029925823">
        <ele>14.08</ele>
        <time>2017-06-19T12:18:59Z</time>
      </trkpt>
      <trkpt lat="60.454005980864167" lon="5.709120025858283">
        <ele>12.15</ele>
        <time>2017-06-19T12:19:06Z</time>
      </trkpt>
      <trkpt lat="60.454057026654482" lon="5.709420014172792">
        <ele>12.630000000000001</ele>
        <time>2017-06-19T12:19:07Z</time>
      </trkpt>
      <trkpt lat="60.454088039696217" lon="5.709746992215514">
        <ele>12.630000000000001</ele>
        <time>2017-06-19T12:19:08Z</time>
      </trkpt>
      <trkpt lat="60.454099019989371" lon="5.710074976086617">
        <ele>12.15</ele>
        <time>2017-06-19T12:19:09Z</time>
      </trkpt>
      <trkpt lat="60.454092985019088" lon="5.710417041555047">
        <ele>11.19</ele>
        <time>2017-06-19T12:19:10Z</time>
      </trkpt>
      <trkpt lat="60.454077981412411" lon="5.710765980184078">
        <ele>11.19</ele>
        <time>2017-06-19T12:19:11Z</time>
      </trkpt>
      <trkpt lat="60.453827027231455" lon="5.715778023004532">
        <ele>15.52</ele>
        <time>2017-06-19T12:19:25Z</time>
      </trkpt>
      <trkpt lat="60.453584035858512" lon="5.71749203838408">
        <ele>14.08</ele>
        <time>2017-06-19T12:19:30Z</time>
      </trkpt>
      <trkpt lat="60.453506000339985" lon="5.717822033911943">
        <ele>14.08</ele>
        <time>2017-06-19T12:19:31Z</time>
      </trkpt>
      <trkpt lat="60.453407010063529" lon="5.718136020004749">
        <ele>14.08</ele>
        <time>2017-06-19T12:19:32Z</time>
      </trkpt>
      <trkpt lat="60.452823964878917" lon="5.720058996230364">
        <ele>15.039999999999999</ele>
        <time>2017-06-19T12:19:39Z</time>
      </trkpt>
      <trkpt lat="60.452750036492944" lon="5.720292013138533">
        <ele>15.039999999999999</ele>
        <time>2017-06-19T12:19:40Z</time>
      </trkpt>
      <trkpt lat="60.4527229629457" lon="5.72058797813952">
        <ele>15.039999999999999</ele>
        <time>2017-06-19T12:19:41Z</time>
      </trkpt>
      <trkpt lat="60.45272103510797" lon="5.720897018909454">
        <ele>15.039999999999999</ele>
        <time>2017-06-19T12:19:42Z</time>
      </trkpt>
      <trkpt lat="60.452731009572744" lon="5.721201030537486">
        <ele>15.039999999999999</ele>
        <time>2017-06-19T12:19:43Z</time>
      </trkpt>
      <trkpt lat="60.452741989865899" lon="5.721502024680376">
        <ele>15.039999999999999</ele>
        <time>2017-06-19T12:19:44Z</time>
      </trkpt>
      <trkpt lat="60.452752970159054" lon="5.72181299328804">
        <ele>15.52</ele>
        <time>2017-06-19T12:19:45Z</time>
      </trkpt>
      <trkpt lat="60.455100992694497" lon="5.731264008209109">
        <ele>16.48</ele>
        <time>2017-06-19T12:20:16Z</time>
      </trkpt>
      <trkpt lat="60.456440001726151" lon="5.735687976703048">
        <ele>7.35</ele>
        <time>2017-06-19T12:20:31Z</time>
      </trkpt>
      <trkpt lat="60.457651019096375" lon="5.737899960950017">
        <ele>6.39</ele>
        <time>2017-06-19T12:20:40Z</time>
      </trkpt>
      <trkpt lat="60.459477016702294" lon="5.739912036806345">
        <ele>14.56</ele>
        <time>2017-06-19T12:20:52Z</time>
      </trkpt>
      <trkpt lat="60.479715038090944" lon="5.74497202411294">
        <ele>34.259999999999998</ele>
        <time>2017-06-19T12:22:41Z</time>
      </trkpt>
      <trkpt lat="60.480834022164345" lon="5.744848977774382">
        <ele>40.509999999999998</ele>
        <time>2017-06-19T12:22:48Z</time>
      </trkpt>
      <trkpt lat="60.48690302297473" lon="5.734604028984904">
        <ele>10.710000000000001</ele>
        <time>2017-06-19T12:23:36Z</time>
      </trkpt>
      <trkpt lat="60.487094968557358" lon="5.734491962939501">
        <ele>16</ele>
        <time>2017-06-19T12:23:37Z</time>
      </trkpt>
      <trkpt lat="60.487297978252172" lon="5.734446030110121">
        <ele>16.960000000000001</ele>
        <time>2017-06-19T12:23:38Z</time>
      </trkpt>
      <trkpt lat="60.487495958805084" lon="5.734344022348523">
        <ele>20.32</ele>
        <time>2017-06-19T12:23:39Z</time>
      </trkpt>
      <trkpt lat="60.487692011520267" lon="5.734320972114801">
        <ele>24.649999999999999</ele>
        <time>2017-06-19T12:23:40Z</time>
      </trkpt>
      <trkpt lat="60.488445041701198" lon="5.734390961006284">
        <ele>30.420000000000002</ele>
        <time>2017-06-19T12:23:44Z</time>
      </trkpt>
      <trkpt lat="60.488630030304193" lon="5.734366988763213">
        <ele>31.379999999999999</ele>
        <time>2017-06-19T12:23:45Z</time>
      </trkpt>
      <trkpt lat="60.489912964403629" lon="5.73414302431047">
        <ele>34.259999999999998</ele>
        <time>2017-06-19T12:23:52Z</time>
      </trkpt>
      <trkpt lat="60.490093007683754" lon="5.734217036515474">
        <ele>34.740000000000002</ele>
        <time>2017-06-19T12:23:53Z</time>
      </trkpt>
      <trkpt lat="60.490259975194931" lon="5.734323989599943">
        <ele>33.780000000000001</ele>
        <time>2017-06-19T12:23:54Z</time>
      </trkpt>
      <trkpt lat="60.491153988987207" lon="5.734973000362515">
        <ele>32.82</ele>
        <time>2017-06-19T12:23:59Z</time>
      </trkpt>
      <trkpt lat="60.491339983418584" lon="5.734988003969193">
        <ele>32.82</ele>
        <time>2017-06-19T12:24:00Z</time>
      </trkpt>
      <trkpt lat="60.493406960740685" lon="5.734507972374558">
        <ele>37.149999999999999</ele>
        <time>2017-06-19T12:24:11Z</time>
      </trkpt>
      <trkpt lat="60.494562992826104" lon="5.733400974422693">
        <ele>40.509999999999998</ele>
        <time>2017-06-19T12:24:18Z</time>
      </trkpt>
      <trkpt lat="60.495735034346581" lon="5.732670994475484">
        <ele>38.109999999999999</ele>
        <time>2017-06-19T12:24:25Z</time>
      </trkpt>
      <trkpt lat="60.497685000300407" lon="5.732527999207377">
        <ele>32.340000000000003</ele>
        <time>2017-06-19T12:24:35Z</time>
      </trkpt>
      <trkpt lat="60.4991290345788" lon="5.732041010633111">
        <ele>30.420000000000002</ele>
        <time>2017-06-19T12:24:43Z</time>
      </trkpt>
      <trkpt lat="60.499318968504667" lon="5.732037993147969">
        <ele>30.420000000000002</ele>
        <time>2017-06-19T12:24:44Z</time>
      </trkpt>
      <trkpt lat="60.50037601031363" lon="5.73201997205615">
        <ele>26.09</ele>
        <time>2017-06-19T12:24:50Z</time>
      </trkpt>
      <trkpt lat="60.50054800696671" lon="5.731934979557991">
        <ele>25.609999999999999</ele>
        <time>2017-06-19T12:24:51Z</time>
      </trkpt>
      <trkpt lat="60.500716986134648" lon="5.731829032301903">
        <ele>25.129999999999999</ele>
        <time>2017-06-19T12:24:52Z</time>
      </trkpt>
      <trkpt lat="60.500878002494574" lon="5.73167497292161">
        <ele>24.170000000000002</ele>
        <time>2017-06-19T12:24:53Z</time>
      </trkpt>
      <trkpt lat="60.501024015247822" lon="5.731485038995743">
        <ele>23.210000000000001</ele>
        <time>2017-06-19T12:24:54Z</time>
      </trkpt>
      <trkpt lat="60.501158041879535" lon="5.731259984895587">
        <ele>22.25</ele>
        <time>2017-06-19T12:24:55Z</time>
      </trkpt>
      <trkpt lat="60.501277986913919" lon="5.731015987694264">
        <ele>21.289999999999999</ele>
        <time>2017-06-19T12:24:56Z</time>
      </trkpt>
      <trkpt lat="60.501387035474181" lon="5.730742989107966">
        <ele>20.32</ele>
        <time>2017-06-19T12:24:57Z</time>
      </trkpt>
      <trkpt lat="60.501488037407398" lon="5.730458004400134">
        <ele>19.359999999999999</ele>
        <time>2017-06-19T12:24:58Z</time>
      </trkpt>
      <trkpt lat="60.501978965476155" lon="5.729377996176481">
        <ele>16</ele>
        <time>2017-06-19T12:25:02Z</time>
      </trkpt>
      <trkpt lat="60.502130007371306" lon="5.729157971218228">
        <ele>15.039999999999999</ele>
        <time>2017-06-19T12:25:03Z</time>
      </trkpt>
      <trkpt lat="60.503502041101456" lon="5.727881994098425">
        <ele>14.56</ele>
        <time>2017-06-19T12:25:11Z</time>
      </trkpt>
      <trkpt lat="60.504776006564498" lon="5.727744027972221">
        <ele>15.039999999999999</ele>
        <time>2017-06-19T12:25:18Z</time>
      </trkpt>
      <trkpt lat="60.50495102070272" lon="5.727707985788584">
        <ele>15.039999999999999</ele>
        <time>2017-06-19T12:25:19Z</time>
      </trkpt>
      <trkpt lat="60.505115976557136" lon="5.727622993290424">
        <ele>15.039999999999999</ele>
        <time>2017-06-19T12:25:20Z</time>
      </trkpt>
      <trkpt lat="60.505277998745441" lon="5.727492989972234">
        <ele>15.039999999999999</ele>
        <time>2017-06-19T12:25:21Z</time>
      </trkpt>
      <trkpt lat="60.505435997620225" lon="5.727327028289437">
        <ele>15.039999999999999</ele>
        <time>2017-06-19T12:25:22Z</time>
      </trkpt>
      <trkpt lat="60.505584022030234" lon="5.727142039686441">
        <ele>15.039999999999999</ele>
        <time>2017-06-19T12:25:23Z</time>
      </trkpt>
      <trkpt lat="60.506409974768758" lon="5.726472996175289">
        <ele>15.52</ele>
        <time>2017-06-19T12:25:28Z</time>
      </trkpt>
      <trkpt lat="60.506594041362405" lon="5.72643200866878">
        <ele>15.52</ele>
        <time>2017-06-19T12:25:29Z</time>
      </trkpt>
      <trkpt lat="60.506784981116652" lon="5.726424967870116">
        <ele>16</ele>
        <time>2017-06-19T12:25:30Z</time>
      </trkpt>
      <trkpt lat="60.507306000217795" lon="5.726423962041736">
        <ele>16.48</ele>
        <time>2017-06-19T12:25:33Z</time>
      </trkpt>
      <trkpt lat="60.507475985214114" lon="5.72636897675693">
        <ele>16.48</ele>
        <time>2017-06-19T12:25:34Z</time>
      </trkpt>
      <trkpt lat="60.507643958553672" lon="5.726267974823713">
        <ele>16.48</ele>
        <time>2017-06-19T12:25:35Z</time>
      </trkpt>
      <trkpt lat="60.507974037900567" lon="5.726019032299519">
        <ele>15.039999999999999</ele>
        <time>2017-06-19T12:25:37Z</time>
      </trkpt>
      <trkpt lat="60.508126001805067" lon="5.725841000676155">
        <ele>15.039999999999999</ele>
        <time>2017-06-19T12:25:38Z</time>
      </trkpt>
      <trkpt lat="60.508574014529586" lon="5.725331967696548">
        <ele>15.52</ele>
        <time>2017-06-19T12:25:41Z</time>
      </trkpt>
      <trkpt lat="60.508909039199352" lon="5.72509802877903">
        <ele>16</ele>
        <time>2017-06-19T12:25:43Z</time>
      </trkpt>
      <trkpt lat="60.509090004488826" lon="5.725039020180702">
        <ele>16</ele>
        <time>2017-06-19T12:25:44Z</time>
      </trkpt>
      <trkpt lat="60.509272981435061" lon="5.72501203045249">
        <ele>16.48</ele>
        <time>2017-06-19T12:25:45Z</time>
      </trkpt>
      <trkpt lat="60.509462999179959" lon="5.725045977160335">
        <ele>16.48</ele>
        <time>2017-06-19T12:25:46Z</time>
      </trkpt>
      <trkpt lat="60.509647987782955" lon="5.725128035992384">
        <ele>16.48</ele>
        <time>2017-06-19T12:25:47Z</time>
      </trkpt>
      <trkpt lat="60.50982903689146" lon="5.725225014612079">
        <ele>16.960000000000001</ele>
        <time>2017-06-19T12:25:48Z</time>
      </trkpt>
      <trkpt lat="60.511812027543783" lon="5.726468972861767">
        <ele>22.25</ele>
        <time>2017-06-19T12:25:59Z</time>
      </trkpt>
      <trkpt lat="60.516330040991306" lon="5.726803997531533">
        <ele>33.299999999999997</ele>
        <time>2017-06-19T12:26:23Z</time>
      </trkpt>
      <trkpt lat="60.518129970878363" lon="5.726813971996307">
        <ele>32.340000000000003</ele>
        <time>2017-06-19T12:26:32Z</time>
      </trkpt>
      <trkpt lat="60.520941009745002" lon="5.7257229834795">
        <ele>32.82</ele>
        <time>2017-06-19T12:26:47Z</time>
      </trkpt>
      <trkpt lat="60.522501971572638" lon="5.725219985470176">
        <ele>36.189999999999998</ele>
        <time>2017-06-19T12:26:55Z</time>
      </trkpt>
      <trkpt lat="60.52269802428782" lon="5.725244041532278">
        <ele>36.189999999999998</ele>
        <time>2017-06-19T12:26:56Z</time>
      </trkpt>
      <trkpt lat="60.524487979710102" lon="5.725699011236429">
        <ele>34.740000000000002</ele>
        <time>2017-06-19T12:27:05Z</time>
      </trkpt>
      <trkpt lat="60.526705998927355" lon="5.725393993780017">
        <ele>33.780000000000001</ele>
        <time>2017-06-19T12:27:16Z</time>
      </trkpt>
      <trkpt lat="60.529529023915529" lon="5.72484296746552">
        <ele>28.02</ele>
        <time>2017-06-19T12:27:30Z</time>
      </trkpt>
      <trkpt lat="60.532177034765482" lon="5.724182976409793">
        <ele>25.129999999999999</ele>
        <time>2017-06-19T12:27:43Z</time>
      </trkpt>
      <trkpt lat="60.533181019127369" lon="5.723868990316987">
        <ele>24.649999999999999</ele>
        <time>2017-06-19T12:27:48Z</time>
      </trkpt>
      <trkpt lat="60.533360978588462" lon="5.723728006705642">
        <ele>24.170000000000002</ele>
        <time>2017-06-19T12:27:49Z</time>
      </trkpt>
      <trkpt lat="60.53352702409029" lon="5.723548969253898">
        <ele>23.690000000000001</ele>
        <time>2017-06-19T12:27:50Z</time>
      </trkpt>
      <trkpt lat="60.533691979944706" lon="5.723348977044225">
        <ele>23.210000000000001</ele>
        <time>2017-06-19T12:27:51Z</time>
      </trkpt>
      <trkpt lat="60.533840004354715" lon="5.723139010369778">
        <ele>22.25</ele>
        <time>2017-06-19T12:27:52Z</time>
      </trkpt>
      <trkpt lat="60.534298997372389" lon="5.722558982670307">
        <ele>21.77</ele>
        <time>2017-06-19T12:27:55Z</time>
      </trkpt>
      <trkpt lat="60.535598024725914" lon="5.721927992999554">
        <ele>21.289999999999999</ele>
        <time>2017-06-19T12:28:02Z</time>
      </trkpt>
      <trkpt lat="60.541783031076193" lon="5.722412969917059">
        <ele>11.19</ele>
        <time>2017-06-19T12:28:34Z</time>
      </trkpt>
      <trkpt lat="60.542472023516893" lon="5.722452029585838">
        <ele>14.08</ele>
        <time>2017-06-19T12:28:38Z</time>
      </trkpt>
      <trkpt lat="60.542646031826735" lon="5.72258303873241">
        <ele>13.6</ele>
        <time>2017-06-19T12:28:39Z</time>
      </trkpt>
      <trkpt lat="60.542791038751602" lon="5.72273500263691">
        <ele>11.19</ele>
        <time>2017-06-19T12:28:40Z</time>
      </trkpt>
      <trkpt lat="60.542946020141244" lon="5.723002972081304">
        <ele>10.23</ele>
        <time>2017-06-19T12:28:41Z</time>
      </trkpt>
      <trkpt lat="60.54308901540935" lon="5.723260967060924">
        <ele>11.19</ele>
        <time>2017-06-19T12:28:42Z</time>
      </trkpt>
      <trkpt lat="60.543209966272116" lon="5.72357595898211">
        <ele>10.710000000000001</ele>
        <time>2017-06-19T12:28:43Z</time>
      </trkpt>
      <trkpt lat="60.543915973976254" lon="5.725516034290195">
        <ele>13.6</ele>
        <time>2017-06-19T12:28:49Z</time>
      </trkpt>
      <trkpt lat="60.544256027787924" lon="5.726573998108506">
        <ele>13.6</ele>
        <time>2017-06-19T12:28:52Z</time>
      </trkpt>
      <trkpt lat="60.544391982257366" lon="5.726877003908157">
        <ele>13.119999999999999</ele>
        <time>2017-06-19T12:28:53Z</time>
      </trkpt>
      <trkpt lat="60.544551992788911" lon="5.727125024423003">
        <ele>13.119999999999999</ele>
        <time>2017-06-19T12:28:54Z</time>
      </trkpt>
      <trkpt lat="60.544719966128469" lon="5.727351000532508">
        <ele>13.119999999999999</ele>
        <time>2017-06-19T12:28:55Z</time>
      </trkpt>
      <trkpt lat="60.544890034943819" lon="5.727563984692097">
        <ele>13.6</ele>
        <time>2017-06-19T12:28:56Z</time>
      </trkpt>
      <trkpt lat="60.546291992068291" lon="5.729627022519708">
        <ele>11.19</ele>
        <time>2017-06-19T12:29:05Z</time>
      </trkpt>
      <trkpt lat="60.547364037483931" lon="5.731634991243482">
        <ele>8.789999999999999</ele>
        <time>2017-06-19T12:29:14Z</time>
      </trkpt>
      <trkpt lat="60.549035975709558" lon="5.73463998734951">
        <ele>14.56</ele>
        <time>2017-06-19T12:29:27Z</time>
      </trkpt>
      <trkpt lat="60.550303990021348" lon="5.73788202367723">
        <ele>-0.34</ele>
        <time>2017-06-19T12:29:38Z</time>
      </trkpt>
      <trkpt lat="60.551839973777533" lon="5.740546965971589">
        <ele>2.06</ele>
        <time>2017-06-19T12:29:49Z</time>
      </trkpt>
      <trkpt lat="60.554465018212795" lon="5.745434034615755">
        <ele>5.42</ele>
        <time>2017-06-19T12:30:08Z</time>
      </trkpt>
      <trkpt lat="60.557260969653726" lon="5.750630982220173">
        <ele>10.23</ele>
        <time>2017-06-19T12:30:27Z</time>
      </trkpt>
      <trkpt lat="60.557372029870749" lon="5.750978998839855">
        <ele>7.83</ele>
        <time>2017-06-19T12:30:28Z</time>
      </trkpt>
      <trkpt lat="60.562724964693189" lon="5.761268036440015">
        <ele>9.75</ele>
        <time>2017-06-19T12:31:07Z</time>
      </trkpt>
      <trkpt lat="60.576162999495864" lon="5.77389101497829">
        <ele>-13.32</ele>
        <time>2017-06-19T12:32:22Z</time>
      </trkpt>
      <trkpt lat="60.577818006277084" lon="5.774570032954216">
        <ele>-10.44</ele>
        <time>2017-06-19T12:32:30Z</time>
      </trkpt>
      <trkpt lat="60.57907504029572" lon="5.776198972016573">
        <ele>-3.23</ele>
        <time>2017-06-19T12:32:37Z</time>
      </trkpt>
      <trkpt lat="60.579944998025894" lon="5.778654031455517">
        <ele>2.06</ele>
        <time>2017-06-19T12:32:44Z</time>
      </trkpt>
      <trkpt lat="60.580329978838563" lon="5.781672019511461">
        <ele>3.98</ele>
        <time>2017-06-19T12:32:51Z</time>
      </trkpt>
      <trkpt lat="60.580981001257896" lon="5.78751596622169">
        <ele>12.630000000000001</ele>
        <time>2017-06-19T12:33:05Z</time>
      </trkpt>
      <trkpt lat="60.58189001865685" lon="5.791028989478946">
        <ele>14.56</ele>
        <time>2017-06-19T12:33:15Z</time>
      </trkpt>
      <trkpt lat="60.582827031612396" lon="5.794949037954211">
        <ele>16</ele>
        <time>2017-06-19T12:33:28Z</time>
      </trkpt>
      <trkpt lat="60.583132971078157" lon="5.797787988558412">
        <ele>20.32</ele>
        <time>2017-06-19T12:33:37Z</time>
      </trkpt>
      <trkpt lat="60.583431031554937" lon="5.801837034523487">
        <ele>32.82</ele>
        <time>2017-06-19T12:33:50Z</time>
      </trkpt>
      <trkpt lat="60.586913963779807" lon="5.815866999328136">
        <ele>47.719999999999999</ele>
        <time>2017-06-19T12:34:34Z</time>
      </trkpt>
      <trkpt lat="60.587899005040526" lon="5.81753097474575">
        <ele>51.090000000000003</ele>
        <time>2017-06-19T12:34:41Z</time>
      </trkpt>
      <trkpt lat="60.58910901658237" lon="5.818205969408155">
        <ele>53.009999999999998</ele>
        <time>2017-06-19T12:34:48Z</time>
      </trkpt>
      <trkpt lat="60.590360015630722" lon="5.817857030779123">
        <ele>55.409999999999997</ele>
        <time>2017-06-19T12:34:55Z</time>
      </trkpt>
      <trkpt lat="60.59226899407804" lon="5.816722037270665">
        <ele>61.18</ele>
        <time>2017-06-19T12:35:05Z</time>
      </trkpt>
      <trkpt lat="60.592677025124431" lon="5.816727988421917">
        <ele>61.659999999999997</ele>
        <time>2017-06-19T12:35:07Z</time>
      </trkpt>
      <trkpt lat="60.592877017334104" lon="5.816782973706722">
        <ele>61.18</ele>
        <time>2017-06-19T12:35:08Z</time>
      </trkpt>
      <trkpt lat="60.593072986230254" lon="5.816863020882011">
        <ele>61.18</ele>
        <time>2017-06-19T12:35:09Z</time>
      </trkpt>
      <trkpt lat="60.593267027288675" lon="5.816976008936763">
        <ele>61.18</ele>
        <time>2017-06-19T12:35:10Z</time>
      </trkpt>
      <trkpt lat="60.593457967042923" lon="5.817117998376489">
        <ele>60.700000000000003</ele>
        <time>2017-06-19T12:35:11Z</time>
      </trkpt>
      <trkpt lat="60.593638010323048" lon="5.817287983372808">
        <ele>60.700000000000003</ele>
        <time>2017-06-19T12:35:12Z</time>
      </trkpt>
      <trkpt lat="60.593817969784141" lon="5.817474983632565">
        <ele>60.700000000000003</ele>
        <time>2017-06-19T12:35:13Z</time>
      </trkpt>
      <trkpt lat="60.593989966437221" lon="5.81770297139883">
        <ele>60.700000000000003</ele>
        <time>2017-06-19T12:35:14Z</time>
      </trkpt>
      <trkpt lat="60.595936998724937" lon="5.820103967562318">
        <ele>53.490000000000002</ele>
        <time>2017-06-19T12:35:25Z</time>
      </trkpt>
      <trkpt lat="60.598318967968225" lon="5.821998026221991">
        <ele>44.840000000000003</ele>
        <time>2017-06-19T12:35:37Z</time>
      </trkpt>
      <trkpt lat="60.599709022790194" lon="5.823724027723074">
        <ele>41.950000000000003</ele>
        <time>2017-06-19T12:35:45Z</time>
      </trkpt>
      <trkpt lat="60.601181974634528" lon="5.825144005939364">
        <ele>39.07</ele>
        <time>2017-06-19T12:35:53Z</time>
      </trkpt>
      <trkpt lat="60.604400960728526" lon="5.827254988253117">
        <ele>32.340000000000003</ele>
        <time>2017-06-19T12:36:10Z</time>
      </trkpt>
      <trkpt lat="60.605909032747149" lon="5.828646970912814">
        <ele>27.530000000000001</ele>
        <time>2017-06-19T12:36:19Z</time>
      </trkpt>
      <trkpt lat="60.607076967135072" lon="5.828677983954549">
        <ele>23.210000000000001</ele>
        <time>2017-06-19T12:36:25Z</time>
      </trkpt>
      <trkpt lat="60.608758963644505" lon="5.828669015318155">
        <ele>15.52</ele>
        <time>2017-06-19T12:36:34Z</time>
      </trkpt>
      <trkpt lat="60.609902003780007" lon="5.829672999680042">
        <ele>8.789999999999999</ele>
        <time>2017-06-19T12:36:41Z</time>
      </trkpt>
      <trkpt lat="60.611609984189272" lon="5.83153897896409">
        <ele>1.58</ele>
        <time>2017-06-19T12:36:53Z</time>
      </trkpt>
      <trkpt lat="60.612332001328468" lon="5.833305967971683">
        <ele>-0.34</ele>
        <time>2017-06-19T12:37:00Z</time>
      </trkpt>
      <trkpt lat="60.612721005454659" lon="5.835697995498776">
        <ele>3.98</ele>
        <time>2017-06-19T12:37:08Z</time>
      </trkpt>
      <trkpt lat="60.6126360129565" lon="5.838838024064899">
        <ele>10.23</ele>
        <time>2017-06-19T12:37:18Z</time>
      </trkpt>
      <trkpt lat="60.620861006900668" lon="5.868468973785639">
        <ele>12.630000000000001</ele>
        <time>2017-06-19T12:38:53Z</time>
      </trkpt>
      <trkpt lat="60.621667010709643" lon="5.871257968246937">
        <ele>12.630000000000001</ele>
        <time>2017-06-19T12:39:02Z</time>
      </trkpt>
      <trkpt lat="60.621749991551042" lon="5.873931962996721">
        <ele>9.75</ele>
        <time>2017-06-19T12:39:09Z</time>
      </trkpt>
      <trkpt lat="60.621781004592776" lon="5.87661299854517">
        <ele>5.91</ele>
        <time>2017-06-19T12:39:16Z</time>
      </trkpt>
      <trkpt lat="60.621844036504626" lon="5.876967972144485">
        <ele>5.42</ele>
        <time>2017-06-19T12:39:17Z</time>
      </trkpt>
      <trkpt lat="60.621921988204122" lon="5.877313977107406">
        <ele>5.42</ele>
        <time>2017-06-19T12:39:18Z</time>
      </trkpt>
      <trkpt lat="60.622016033157706" lon="5.87764598429203">
        <ele>4.94</ele>
        <time>2017-06-19T12:39:19Z</time>
      </trkpt>
      <trkpt lat="60.622124997898936" lon="5.877962987869978">
        <ele>4.94</ele>
        <time>2017-06-19T12:39:20Z</time>
      </trkpt>
      <trkpt lat="60.622247038409114" lon="5.878258030861616">
        <ele>4.94</ele>
        <time>2017-06-19T12:39:21Z</time>
      </trkpt>
      <trkpt lat="60.622382992878556" lon="5.878530023619533">
        <ele>4.46</ele>
        <time>2017-06-19T12:39:22Z</time>
      </trkpt>
      <trkpt lat="60.622533028945327" lon="5.878776032477617">
        <ele>3.98</ele>
        <time>2017-06-19T12:39:23Z</time>
      </trkpt>
      <trkpt lat="60.622693039476871" lon="5.878985999152064">
        <ele>3.98</ele>
        <time>2017-06-19T12:39:24Z</time>
      </trkpt>
      <trkpt lat="60.622860006988049" lon="5.879159001633525">
        <ele>3.5</ele>
        <time>2017-06-19T12:39:25Z</time>
      </trkpt>
      <trkpt lat="60.623032003641129" lon="5.879306020215154">
        <ele>3.5</ele>
        <time>2017-06-19T12:39:26Z</time>
      </trkpt>
      <trkpt lat="60.623212968930602" lon="5.879422025755048">
        <ele>3.5</ele>
        <time>2017-06-19T12:39:27Z</time>
      </trkpt>
      <trkpt lat="60.623388988897204" lon="5.879531996324658">
        <ele>3.5</ele>
        <time>2017-06-19T12:39:28Z</time>
      </trkpt>
      <trkpt lat="60.624372018501163" lon="5.88028896600008">
        <ele>3.02</ele>
        <time>2017-06-19T12:39:34Z</time>
      </trkpt>
      <trkpt lat="60.626764968037605" lon="5.896672988310456">
        <ele>7.35</ele>
        <time>2017-06-19T12:40:24Z</time>
      </trkpt>
      <trkpt lat="60.626384010538459" lon="5.898565035313368">
        <ele>9.27</ele>
        <time>2017-06-19T12:40:31Z</time>
      </trkpt>
      <trkpt lat="60.627421019598842" lon="5.907743973657489">
        <ele>23.690000000000001</ele>
        <time>2017-06-19T12:41:00Z</time>
      </trkpt>
      <trkpt lat="60.627410039305687" lon="5.908202966675162">
        <ele>8.310000000000001</ele>
        <time>2017-06-19T12:41:01Z</time>
      </trkpt>
      <trkpt lat="60.627372991293669" lon="5.909908013418317">
        <ele>10.710000000000001</ele>
        <time>2017-06-19T12:41:06Z</time>
      </trkpt>
      <trkpt lat="60.627317000180483" lon="5.91026097536087">
        <ele>9.27</ele>
        <time>2017-06-19T12:41:07Z</time>
      </trkpt>
      <trkpt lat="60.627278024330735" lon="5.910607986152172">
        <ele>9.75</ele>
        <time>2017-06-19T12:41:08Z</time>
      </trkpt>
      <trkpt lat="60.634202985092998" lon="5.933918980881572">
        <ele>15.039999999999999</ele>
        <time>2017-06-19T12:42:33Z</time>
      </trkpt>
      <trkpt lat="60.634621996432543" lon="5.937510039657354">
        <ele>14.56</ele>
        <time>2017-06-19T12:42:43Z</time>
      </trkpt>
      <trkpt lat="60.635416014119983" lon="5.940627017989755">
        <ele>16.48</ele>
        <time>2017-06-19T12:42:53Z</time>
      </trkpt>
      <trkpt lat="60.63762104138732" lon="5.95088797621429">
        <ele>9.75</ele>
        <time>2017-06-19T12:43:25Z</time>
      </trkpt>
      <trkpt lat="60.637735035270452" lon="5.952271996065974">
        <ele>12.15</ele>
        <time>2017-06-19T12:43:29Z</time>
      </trkpt>
      <trkpt lat="60.637721959501505" lon="5.952620012685657">
        <ele>12.15</ele>
        <time>2017-06-19T12:43:30Z</time>
      </trkpt>
      <trkpt lat="60.637691030278802" lon="5.95299200154841">
        <ele>12.630000000000001</ele>
        <time>2017-06-19T12:43:31Z</time>
      </trkpt>
      <trkpt lat="60.637639984488487" lon="5.953349992632866">
        <ele>13.6</ele>
        <time>2017-06-19T12:43:32Z</time>
      </trkpt>
      <trkpt lat="60.637593967840075" lon="5.953674959018827">
        <ele>12.630000000000001</ele>
        <time>2017-06-19T12:43:33Z</time>
      </trkpt>
      <trkpt lat="60.637464970350266" lon="5.956266978755593">
        <ele>13.119999999999999</ele>
        <time>2017-06-19T12:43:41Z</time>
      </trkpt>
      <trkpt lat="60.637574018910527" lon="5.960953971371055">
        <ele>14.56</ele>
        <time>2017-06-19T12:43:55Z</time>
      </trkpt>
      <trkpt lat="60.637549040839076" lon="5.961297964677215">
        <ele>15.039999999999999</ele>
        <time>2017-06-19T12:43:56Z</time>
      </trkpt>
      <trkpt lat="60.637489026412368" lon="5.961626032367349">
        <ele>16</ele>
        <time>2017-06-19T12:43:57Z</time>
      </trkpt>
      <trkpt lat="60.637402022257447" lon="5.961929960176349">
        <ele>15.52</ele>
        <time>2017-06-19T12:43:58Z</time>
      </trkpt>
      <trkpt lat="60.636626025661826" lon="5.964034991338849">
        <ele>15.039999999999999</ele>
        <time>2017-06-19T12:44:06Z</time>
      </trkpt>
      <trkpt lat="60.636368030682206" lon="5.965378023684025">
        <ele>16</ele>
        <time>2017-06-19T12:44:11Z</time>
      </trkpt>
      <trkpt lat="60.63635403290391" lon="5.965701984241605">
        <ele>15.52</ele>
        <time>2017-06-19T12:44:12Z</time>
      </trkpt>
      <trkpt lat="60.636351015418768" lon="5.966031979769468">
        <ele>15.52</ele>
        <time>2017-06-19T12:44:13Z</time>
      </trkpt>
      <trkpt lat="60.63635503873229" lon="5.966365998610854">
        <ele>16</ele>
        <time>2017-06-19T12:44:14Z</time>
      </trkpt>
      <trkpt lat="60.636375993490219" lon="5.966696999967098">
        <ele>15.52</ele>
        <time>2017-06-19T12:44:15Z</time>
      </trkpt>
      <trkpt lat="60.636408012360334" lon="5.967020960524678">
        <ele>15.52</ele>
        <time>2017-06-19T12:44:16Z</time>
      </trkpt>
      <trkpt lat="60.636456962674856" lon="5.967336036264896">
        <ele>16</ele>
        <time>2017-06-19T12:44:17Z</time>
      </trkpt>
      <trkpt lat="60.636518988758326" lon="5.967655973508954">
        <ele>15.52</ele>
        <time>2017-06-19T12:44:18Z</time>
      </trkpt>
      <trkpt lat="60.637275958433747" lon="5.970135005190969">
        <ele>15.52</ele>
        <time>2017-06-19T12:44:26Z</time>
      </trkpt>
      <trkpt lat="60.638434002175927" lon="5.972258979454637">
        <ele>17.920000000000002</ele>
        <time>2017-06-19T12:44:34Z</time>
      </trkpt>
      <trkpt lat="60.639850040897727" lon="5.973503021523356">
        <ele>20.32</ele>
        <time>2017-06-19T12:44:42Z</time>
      </trkpt>
      <trkpt lat="60.641537988558412" lon="5.973946005105972">
        <ele>27.530000000000001</ele>
        <time>2017-06-19T12:44:51Z</time>
      </trkpt>
      <trkpt lat="60.64389699138701" lon="5.974913025274873">
        <ele>32.340000000000003</ele>
        <time>2017-06-19T12:45:04Z</time>
      </trkpt>
      <trkpt lat="60.644995020702481" lon="5.97641103900969">
        <ele>32.340000000000003</ele>
        <time>2017-06-19T12:45:11Z</time>
      </trkpt>
      <trkpt lat="60.645108008757234" lon="5.976707004010677">
        <ele>32.82</ele>
        <time>2017-06-19T12:45:12Z</time>
      </trkpt>
      <trkpt lat="60.645200964063406" lon="5.977027025073767">
        <ele>32.340000000000003</ele>
        <time>2017-06-19T12:45:13Z</time>
      </trkpt>
      <trkpt lat="60.645283022895455" lon="5.977362971752882">
        <ele>32.340000000000003</ele>
        <time>2017-06-19T12:45:14Z</time>
      </trkpt>
      <trkpt lat="60.645343959331512" lon="5.977731021121144">
        <ele>31.379999999999999</ele>
        <time>2017-06-19T12:45:15Z</time>
      </trkpt>
      <trkpt lat="60.645389975979924" lon="5.978106027469039">
        <ele>31.379999999999999</ele>
        <time>2017-06-19T12:45:16Z</time>
      </trkpt>
      <trkpt lat="60.645413026213646" lon="5.97849796526134">
        <ele>30.899999999999999</ele>
        <time>2017-06-19T12:45:17Z</time>
      </trkpt>
      <trkpt lat="60.645415037870407" lon="5.978893004357815">
        <ele>30.899999999999999</ele>
        <time>2017-06-19T12:45:18Z</time>
      </trkpt>
      <trkpt lat="60.64540296792984" lon="5.979285025969148">
        <ele>30.420000000000002</ele>
        <time>2017-06-19T12:45:19Z</time>
      </trkpt>
      <trkpt lat="60.645375978201628" lon="5.979680987074971">
        <ele>30.420000000000002</ele>
        <time>2017-06-19T12:45:20Z</time>
      </trkpt>
      <trkpt lat="60.645113037899137" lon="5.983604975044727">
        <ele>29.460000000000001</ele>
        <time>2017-06-19T12:45:30Z</time>
      </trkpt>
      <trkpt lat="60.644802991300821" lon="5.987086985260248">
        <ele>26.57</ele>
        <time>2017-06-19T12:45:39Z</time>
      </trkpt>
      <trkpt lat="60.644436031579971" lon="5.989397959783673">
        <ele>21.77</ele>
        <time>2017-06-19T12:45:45Z</time>
      </trkpt>
      <trkpt lat="60.644422033801675" lon="5.989795010536909">
        <ele>21.289999999999999</ele>
        <time>2017-06-19T12:45:46Z</time>
      </trkpt>
      <trkpt lat="60.644429996609688" lon="5.990199018269777">
        <ele>21.289999999999999</ele>
        <time>2017-06-19T12:45:47Z</time>
      </trkpt>
      <trkpt lat="60.644452963024378" lon="5.990606965497136">
        <ele>20.809999999999999</ele>
        <time>2017-06-19T12:45:48Z</time>
      </trkpt>
      <trkpt lat="60.644495962187648" lon="5.991005022078753">
        <ele>20.32</ele>
        <time>2017-06-19T12:45:49Z</time>
      </trkpt>
      <trkpt lat="60.644558994099498" lon="5.991394026204944">
        <ele>20.32</ele>
        <time>2017-06-19T12:45:50Z</time>
      </trkpt>
      <trkpt lat="60.644651027396321" lon="5.991756040602922">
        <ele>20.32</ele>
        <time>2017-06-19T12:45:51Z</time>
      </trkpt>
      <trkpt lat="60.644755968824029" lon="5.992097016423941">
        <ele>20.32</ele>
        <time>2017-06-19T12:45:52Z</time>
      </trkpt>
      <trkpt lat="60.644874991849065" lon="5.992409996688366">
        <ele>20.809999999999999</ele>
        <time>2017-06-19T12:45:53Z</time>
      </trkpt>
      <trkpt lat="60.645001977682114" lon="5.992691963911057">
        <ele>20.809999999999999</ele>
        <time>2017-06-19T12:45:54Z</time>
      </trkpt>
      <trkpt lat="60.645138015970588" lon="5.992962028831244">
        <ele>20.809999999999999</ele>
        <time>2017-06-19T12:45:55Z</time>
      </trkpt>
      <trkpt lat="60.645282017067075" lon="5.993221029639244">
        <ele>21.77</ele>
        <time>2017-06-19T12:45:56Z</time>
      </trkpt>
      <trkpt lat="60.645661968737841" lon="5.994069026783109">
        <ele>21.77</ele>
        <time>2017-06-19T12:45:59Z</time>
      </trkpt>
      <trkpt lat="60.645767999812961" lon="5.994399022310972">
        <ele>21.77</ele>
        <time>2017-06-19T12:46:00Z</time>
      </trkpt>
      <trkpt lat="60.645853998139501" lon="5.994750978425145">
        <ele>21.289999999999999</ele>
        <time>2017-06-19T12:46:01Z</time>
      </trkpt>
      <trkpt lat="60.645923987030983" lon="5.99512598477304">
        <ele>21.289999999999999</ele>
        <time>2017-06-19T12:46:02Z</time>
      </trkpt>
      <trkpt lat="60.645985007286072" lon="5.995509959757328">
        <ele>21.289999999999999</ele>
        <time>2017-06-19T12:46:03Z</time>
      </trkpt>
      <trkpt lat="60.646034041419625" lon="5.995908016338944">
        <ele>21.77</ele>
        <time>2017-06-19T12:46:04Z</time>
      </trkpt>
      <trkpt lat="60.646238978952169" lon="5.999911967664957">
        <ele>27.050000000000001</ele>
        <time>2017-06-19T12:46:14Z</time>
      </trkpt>
      <trkpt lat="60.646214000880718" lon="6.001092977821827">
        <ele>28.98</ele>
        <time>2017-06-19T12:46:17Z</time>
      </trkpt>
      <trkpt lat="60.646229004487395" lon="6.00148499943316">
        <ele>28.98</ele>
        <time>2017-06-19T12:46:18Z</time>
      </trkpt>
      <trkpt lat="60.646259011700749" lon="6.001869980245829">
        <ele>29.460000000000001</ele>
        <time>2017-06-19T12:46:19Z</time>
      </trkpt>
      <trkpt lat="60.646306034177542" lon="6.002251021564007">
        <ele>29.460000000000001</ele>
        <time>2017-06-19T12:46:20Z</time>
      </trkpt>
      <trkpt lat="60.646363031119108" lon="6.002627033740282">
        <ele>29.940000000000001</ele>
        <time>2017-06-19T12:46:21Z</time>
      </trkpt>
      <trkpt lat="60.646959990262985" lon="6.006825026124716">
        <ele>26.09</ele>
        <time>2017-06-19T12:46:33Z</time>
      </trkpt>
      <trkpt lat="60.646903999149799" lon="6.013270039111376">
        <ele>28.5</ele>
        <time>2017-06-19T12:46:50Z</time>
      </trkpt>
      <trkpt lat="60.646820012480021" lon="6.013621995225549">
        <ele>30.420000000000002</ele>
        <time>2017-06-19T12:46:51Z</time>
      </trkpt>
      <trkpt lat="60.646609961986542" lon="6.01424602791667">
        <ele>30.899999999999999</ele>
        <time>2017-06-19T12:46:53Z</time>
      </trkpt>
      <trkpt lat="60.646134959533811" lon="6.014942983165383">
        <ele>30.420000000000002</ele>
        <time>2017-06-19T12:46:56Z</time>
      </trkpt>
      <trkpt lat="60.645961035043001" lon="6.015130989253521">
        <ele>30.420000000000002</ele>
        <time>2017-06-19T12:46:57Z</time>
      </trkpt>
      <trkpt lat="60.645776968449354" lon="6.015306003391743">
        <ele>30.420000000000002</ele>
        <time>2017-06-19T12:46:58Z</time>
      </trkpt>
      <trkpt lat="60.644012996926904" lon="6.016927985474467">
        <ele>30.899999999999999</ele>
        <time>2017-06-19T12:47:08Z</time>
      </trkpt>
      <trkpt lat="60.643879976123571" lon="6.017182962968946">
        <ele>30.420000000000002</ele>
        <time>2017-06-19T12:47:09Z</time>
      </trkpt>
      <trkpt lat="60.64378802664578" lon="6.017484962940216">
        <ele>30.899999999999999</ele>
        <time>2017-06-19T12:47:10Z</time>
      </trkpt>
      <trkpt lat="60.643713008612394" lon="6.017800960689783">
        <ele>30.899999999999999</ele>
        <time>2017-06-19T12:47:11Z</time>
      </trkpt>
      <trkpt lat="60.643631033599377" lon="6.018158029764891">
        <ele>31.859999999999999</ele>
        <time>2017-06-19T12:47:12Z</time>
      </trkpt>
      <trkpt lat="60.64357403665781" lon="6.018507974222302">
        <ele>31.379999999999999</ele>
        <time>2017-06-19T12:47:13Z</time>
      </trkpt>
      <trkpt lat="60.643531959503889" lon="6.018883986398578">
        <ele>32.82</ele>
        <time>2017-06-19T12:47:14Z</time>
      </trkpt>
      <trkpt lat="60.643497006967664" lon="6.019276008009911">
        <ele>31.859999999999999</ele>
        <time>2017-06-19T12:47:15Z</time>
      </trkpt>
      <trkpt lat="60.64331604167819" lon="6.02122999727726">
        <ele>26.09</ele>
        <time>2017-06-19T12:47:20Z</time>
      </trkpt>
      <trkpt lat="60.643249992281199" lon="6.021599974483252">
        <ele>25.129999999999999</ele>
        <time>2017-06-19T12:47:21Z</time>
      </trkpt>
      <trkpt lat="60.643161982297897" lon="6.021951008588076">
        <ele>23.690000000000001</ele>
        <time>2017-06-19T12:47:22Z</time>
      </trkpt>
      <trkpt lat="60.643056035041809" lon="6.022284021601081">
        <ele>22.73</ele>
        <time>2017-06-19T12:47:23Z</time>
      </trkpt>
      <trkpt lat="60.64293198287487" lon="6.022589039057493">
        <ele>21.289999999999999</ele>
        <time>2017-06-19T12:47:24Z</time>
      </trkpt>
      <trkpt lat="60.642799967899919" lon="6.022889027372003">
        <ele>19.359999999999999</ele>
        <time>2017-06-19T12:47:25Z</time>
      </trkpt>
      <trkpt lat="60.642081974074244" lon="6.024201968684793">
        <ele>16</ele>
        <time>2017-06-19T12:47:30Z</time>
      </trkpt>
      <trkpt lat="60.641955994069576" lon="6.024502040818334">
        <ele>15.52</ele>
        <time>2017-06-19T12:47:31Z</time>
      </trkpt>
      <trkpt lat="60.641853986307979" lon="6.024827007204294">
        <ele>14.56</ele>
        <time>2017-06-19T12:47:32Z</time>
      </trkpt>
      <trkpt lat="60.641284016892314" lon="6.027358006685972">
        <ele>13.119999999999999</ele>
        <time>2017-06-19T12:47:39Z</time>
      </trkpt>
      <trkpt lat="60.641251998022199" lon="6.027735024690628">
        <ele>13.119999999999999</ele>
        <time>2017-06-19T12:47:40Z</time>
      </trkpt>
      <trkpt lat="60.641238000243902" lon="6.02812604047358">
        <ele>14.08</ele>
        <time>2017-06-19T12:47:41Z</time>
      </trkpt>
      <trkpt lat="60.641225008293986" lon="6.028518984094262">
        <ele>14.08</ele>
        <time>2017-06-19T12:47:42Z</time>
      </trkpt>
      <trkpt lat="60.641240011900663" lon="6.028913017362356">
        <ele>14.56</ele>
        <time>2017-06-19T12:47:43Z</time>
      </trkpt>
      <trkpt lat="60.641278987750411" lon="6.029290035367012">
        <ele>15.52</ele>
        <time>2017-06-19T12:47:44Z</time>
      </trkpt>
      <trkpt lat="60.641330033540726" lon="6.029665963724256">
        <ele>16</ele>
        <time>2017-06-19T12:47:45Z</time>
      </trkpt>
      <trkpt lat="60.641391975805163" lon="6.030029989778996">
        <ele>16</ele>
        <time>2017-06-19T12:47:46Z</time>
      </trkpt>
      <trkpt lat="60.641473028808832" lon="6.03038102388382">
        <ele>16.48</ele>
        <time>2017-06-19T12:47:47Z</time>
      </trkpt>
      <trkpt lat="60.641573024913669" lon="6.030710013583303">
        <ele>16.960000000000001</ele>
        <time>2017-06-19T12:47:48Z</time>
      </trkpt>
      <trkpt lat="60.64168400131166" lon="6.031029028818011">
        <ele>16.960000000000001</ele>
        <time>2017-06-19T12:47:49Z</time>
      </trkpt>
      <trkpt lat="60.641802018508315" lon="6.03132801130414">
        <ele>16.960000000000001</ele>
        <time>2017-06-19T12:47:50Z</time>
      </trkpt>
      <trkpt lat="60.642366036772728" lon="6.033759014680982">
        <ele>18.879999999999999</ele>
        <time>2017-06-19T12:47:57Z</time>
      </trkpt>
      <trkpt lat="60.64239302650094" lon="6.034150030463934">
        <ele>18.879999999999999</ele>
        <time>2017-06-19T12:47:58Z</time>
      </trkpt>
      <trkpt lat="60.642397971823812" lon="6.034544985741377">
        <ele>18.879999999999999</ele>
        <time>2017-06-19T12:47:59Z</time>
      </trkpt>
      <trkpt lat="60.642397971823812" lon="6.034943964332342">
        <ele>19.359999999999999</ele>
        <time>2017-06-19T12:48:00Z</time>
      </trkpt>
      <trkpt lat="60.642381040379405" lon="6.035337997600436">
        <ele>19.359999999999999</ele>
        <time>2017-06-19T12:48:01Z</time>
      </trkpt>
      <trkpt lat="60.64235002733767" lon="6.035725995898247">
        <ele>19.359999999999999</ele>
        <time>2017-06-19T12:48:02Z</time>
      </trkpt>
      <trkpt lat="60.642305016517639" lon="6.036112988367677">
        <ele>19.84</ele>
        <time>2017-06-19T12:48:03Z</time>
      </trkpt>
      <trkpt lat="60.642229998484254" lon="6.036490006372333">
        <ele>19.359999999999999</ele>
        <time>2017-06-19T12:48:04Z</time>
      </trkpt>
      <trkpt lat="60.642142994329333" lon="6.036859983578324">
        <ele>18.399999999999999</ele>
        <time>2017-06-19T12:48:05Z</time>
      </trkpt>
      <trkpt lat="60.642040986567736" lon="6.0372169688344">
        <ele>16.960000000000001</ele>
        <time>2017-06-19T12:48:06Z</time>
      </trkpt>
      <trkpt lat="60.641940990462899" lon="6.037560040131211">
        <ele>15.52</ele>
        <time>2017-06-19T12:48:07Z</time>
      </trkpt>
      <trkpt lat="60.641158958896995" lon="6.040246021002531">
        <ele>12.15</ele>
        <time>2017-06-19T12:48:15Z</time>
      </trkpt>
      <trkpt lat="60.640797028318048" lon="6.04370498098433">
        <ele>15.52</ele>
        <time>2017-06-19T12:48:24Z</time>
      </trkpt>
      <trkpt lat="60.640474995598197" lon="6.049560997635126">
        <ele>29.460000000000001</ele>
        <time>2017-06-19T12:48:40Z</time>
      </trkpt>
      <trkpt lat="60.644328994676471" lon="6.055599991232157">
        <ele>23.210000000000001</ele>
        <time>2017-06-19T12:49:06Z</time>
      </trkpt>
      <trkpt lat="60.644457992166281" lon="6.055882964283228">
        <ele>22.25</ele>
        <time>2017-06-19T12:49:07Z</time>
      </trkpt>
      <trkpt lat="60.644586989656091" lon="6.056184964254499">
        <ele>18.399999999999999</ele>
        <time>2017-06-19T12:49:08Z</time>
      </trkpt>
      <trkpt lat="60.644700983539224" lon="6.05650900863111">
        <ele>18.879999999999999</ele>
        <time>2017-06-19T12:49:09Z</time>
      </trkpt>
      <trkpt lat="60.64479997381568" lon="6.056837998330593">
        <ele>17.920000000000002</ele>
        <time>2017-06-19T12:49:10Z</time>
      </trkpt>
      <trkpt lat="60.644887983798981" lon="6.057189032435417">
        <ele>18.399999999999999</ele>
        <time>2017-06-19T12:49:11Z</time>
      </trkpt>
      <trkpt lat="60.644927965477109" lon="6.057574013248086">
        <ele>17.440000000000001</ele>
        <time>2017-06-19T12:49:12Z</time>
      </trkpt>
      <trkpt lat="60.644995020702481" lon="6.057935021817684">
        <ele>16.48</ele>
        <time>2017-06-19T12:49:13Z</time>
      </trkpt>
      <trkpt lat="60.645040031522512" lon="6.058309022337198">
        <ele>17.440000000000001</ele>
        <time>2017-06-19T12:49:14Z</time>
      </trkpt>
      <trkpt lat="60.645694993436337" lon="6.061421977356076">
        <ele>17.920000000000002</ele>
        <time>2017-06-19T12:49:23Z</time>
      </trkpt>
      <trkpt lat="60.646977005526423" lon="6.065798001363874">
        <ele>19.359999999999999</ele>
        <time>2017-06-19T12:49:36Z</time>
      </trkpt>
      <trkpt lat="60.647308006882668" lon="6.068506026640534">
        <ele>24.170000000000002</ele>
        <time>2017-06-19T12:49:43Z</time>
      </trkpt>
      <trkpt lat="60.646354984492064" lon="6.083930991590023">
        <ele>39.07</ele>
        <time>2017-06-19T12:50:22Z</time>
      </trkpt>
      <trkpt lat="60.646115010604262" lon="6.087439991533756">
        <ele>34.740000000000002</ele>
        <time>2017-06-19T12:50:31Z</time>
      </trkpt>
      <trkpt lat="60.646180976182222" lon="6.090267039835453">
        <ele>29.460000000000001</ele>
        <time>2017-06-19T12:50:38Z</time>
      </trkpt>
      <trkpt lat="60.646406030282378" lon="6.099957022815943">
        <ele>20.32</ele>
        <time>2017-06-19T12:51:02Z</time>
      </trkpt>
      <trkpt lat="60.647068032994866" lon="6.103403996676207">
        <ele>16</ele>
        <time>2017-06-19T12:51:11Z</time>
      </trkpt>
      <trkpt lat="60.647890968248248" lon="6.107486989349127">
        <ele>12.630000000000001</ele>
        <time>2017-06-19T12:51:22Z</time>
      </trkpt>
      <trkpt lat="60.647903038188815" lon="6.107865013182163">
        <ele>13.119999999999999</ele>
        <time>2017-06-19T12:51:23Z</time>
      </trkpt>
      <trkpt lat="60.647899014875293" lon="6.108234990388155">
        <ele>13.119999999999999</ele>
        <time>2017-06-19T12:51:24Z</time>
      </trkpt>
      <trkpt lat="60.64787495881319" lon="6.108608990907669">
        <ele>13.119999999999999</ele>
        <time>2017-06-19T12:51:25Z</time>
      </trkpt>
      <trkpt lat="60.647830031812191" lon="6.108976034447551">
        <ele>12.630000000000001</ele>
        <time>2017-06-19T12:51:26Z</time>
      </trkpt>
      <trkpt lat="60.647774040699005" lon="6.109336037188768">
        <ele>12.630000000000001</ele>
        <time>2017-06-19T12:51:27Z</time>
      </trkpt>
      <trkpt lat="60.647705979645252" lon="6.109681958332658">
        <ele>12.630000000000001</ele>
        <time>2017-06-19T12:51:28Z</time>
      </trkpt>
      <trkpt lat="60.647633979097009" lon="6.110022012144327">
        <ele>12.630000000000001</ele>
        <time>2017-06-19T12:51:29Z</time>
      </trkpt>
      <trkpt lat="60.646937023848295" lon="6.114409016445279">
        <ele>14.08</ele>
        <time>2017-06-19T12:51:41Z</time>
      </trkpt>
      <trkpt lat="60.646810038015246" lon="6.119167003780603">
        <ele>15.039999999999999</ele>
        <time>2017-06-19T12:51:53Z</time>
      </trkpt>
      <trkpt lat="60.647277999669313" lon="6.122227990999818">
        <ele>15.52</ele>
        <time>2017-06-19T12:52:01Z</time>
      </trkpt>
      <trkpt lat="60.647603971883655" lon="6.124054994434118">
        <ele>15.039999999999999</ele>
        <time>2017-06-19T12:52:06Z</time>
      </trkpt>
      <trkpt lat="60.647619981318712" lon="6.124441986903548">
        <ele>15.039999999999999</ele>
        <time>2017-06-19T12:52:07Z</time>
      </trkpt>
      <trkpt lat="60.647619981318712" lon="6.124833002686501">
        <ele>15.039999999999999</ele>
        <time>2017-06-19T12:52:08Z</time>
      </trkpt>
      <trkpt lat="60.647600032389164" lon="6.125224018469453">
        <ele>14.56</ele>
        <time>2017-06-19T12:52:09Z</time>
      </trkpt>
      <trkpt lat="60.647561978548765" lon="6.125612016767263">
        <ele>14.56</ele>
        <time>2017-06-19T12:52:10Z</time>
      </trkpt>
      <trkpt lat="60.64750799909234" lon="6.125995991751552">
        <ele>14.56</ele>
        <time>2017-06-19T12:52:11Z</time>
      </trkpt>
      <trkpt lat="60.647437004372478" lon="6.126369992271066">
        <ele>14.56</ele>
        <time>2017-06-19T12:52:12Z</time>
      </trkpt>
      <trkpt lat="60.647357041016221" lon="6.126738041639328">
        <ele>14.56</ele>
        <time>2017-06-19T12:52:13Z</time>
      </trkpt>
      <trkpt lat="60.646375017240644" lon="6.132053006440401">
        <ele>18.879999999999999</ele>
        <time>2017-06-19T12:52:27Z</time>
      </trkpt>
      <trkpt lat="60.646149963140488" lon="6.134751979261637">
        <ele>20.809999999999999</ele>
        <time>2017-06-19T12:52:34Z</time>
      </trkpt>
      <trkpt lat="60.646167984232306" lon="6.135136960074306">
        <ele>20.809999999999999</ele>
        <time>2017-06-19T12:52:35Z</time>
      </trkpt>
      <trkpt lat="60.646200003102422" lon="6.135514983907342">
        <ele>20.809999999999999</ele>
        <time>2017-06-19T12:52:36Z</time>
      </trkpt>
      <trkpt lat="60.646255994215608" lon="6.135857971385121">
        <ele>20.32</ele>
        <time>2017-06-19T12:52:37Z</time>
      </trkpt>
      <trkpt lat="60.646329000592232" lon="6.136187966912985">
        <ele>20.32</ele>
        <time>2017-06-19T12:52:38Z</time>
      </trkpt>
      <trkpt lat="60.646418016403913" lon="6.136500025168061">
        <ele>19.84</ele>
        <time>2017-06-19T12:52:39Z</time>
      </trkpt>
      <trkpt lat="60.646517006680369" lon="6.136803030967712">
        <ele>19.359999999999999</ele>
        <time>2017-06-19T12:52:40Z</time>
      </trkpt>
      <trkpt lat="60.646628988906741" lon="6.137105030938983">
        <ele>19.359999999999999</ele>
        <time>2017-06-19T12:52:41Z</time>
      </trkpt>
      <trkpt lat="60.647308006882668" lon="6.139942975714803">
        <ele>16.48</ele>
        <time>2017-06-19T12:52:49Z</time>
      </trkpt>
      <trkpt lat="60.647337008267641" lon="6.140355030074716">
        <ele>16</ele>
        <time>2017-06-19T12:52:50Z</time>
      </trkpt>
      <trkpt lat="60.647343965247273" lon="6.140768006443977">
        <ele>16</ele>
        <time>2017-06-19T12:52:51Z</time>
      </trkpt>
      <trkpt lat="60.647331979125738" lon="6.141173020005226">
        <ele>16</ele>
        <time>2017-06-19T12:52:52Z</time>
      </trkpt>
      <trkpt lat="60.647300966084003" lon="6.141575016081333">
        <ele>16</ele>
        <time>2017-06-19T12:52:53Z</time>
      </trkpt>
      <trkpt lat="60.647261990234256" lon="6.14197701215744">
        <ele>16</ele>
        <time>2017-06-19T12:52:54Z</time>
      </trkpt>
      <trkpt lat="60.647246986627579" lon="6.14476902410388">
        <ele>15.52</ele>
        <time>2017-06-19T12:53:01Z</time>
      </trkpt>
      <trkpt lat="60.647261990234256" lon="6.145530017092824">
        <ele>16</ele>
        <time>2017-06-19T12:53:03Z</time>
      </trkpt>
      <trkpt lat="60.647244974970818" lon="6.145908962935209">
        <ele>16</ele>
        <time>2017-06-19T12:53:04Z</time>
      </trkpt>
      <trkpt lat="60.647209016606212" lon="6.146280029788613">
        <ele>16</ele>
        <time>2017-06-19T12:53:05Z</time>
      </trkpt>
      <trkpt lat="60.647156964987516" lon="6.146644977852702">
        <ele>16</ele>
        <time>2017-06-19T12:53:06Z</time>
      </trkpt>
      <trkpt lat="60.647086976096034" lon="6.147009003907442">
        <ele>16.48</ele>
        <time>2017-06-19T12:53:07Z</time>
      </trkpt>
      <trkpt lat="60.647005001083016" lon="6.147358026355505">
        <ele>16.960000000000001</ele>
        <time>2017-06-19T12:53:08Z</time>
      </trkpt>
      <trkpt lat="60.646914979442954" lon="6.147703025490046">
        <ele>16.960000000000001</ele>
        <time>2017-06-19T12:53:09Z</time>
      </trkpt>
      <trkpt lat="60.645867995917797" lon="6.150658987462521">
        <ele>17.920000000000002</ele>
        <time>2017-06-19T12:53:18Z</time>
      </trkpt>
      <trkpt lat="60.644546002149582" lon="6.153496010228992">
        <ele>18.399999999999999</ele>
        <time>2017-06-19T12:53:28Z</time>
      </trkpt>
      <trkpt lat="60.643233982846141" lon="6.156755983829498">
        <ele>17.920000000000002</ele>
        <time>2017-06-19T12:53:39Z</time>
      </trkpt>
      <trkpt lat="60.642746994271874" lon="6.157838003709912">
        <ele>18.399999999999999</ele>
        <time>2017-06-19T12:53:43Z</time>
      </trkpt>
      <trkpt lat="60.642666025087237" lon="6.158130029216409">
        <ele>18.399999999999999</ele>
        <time>2017-06-19T12:53:44Z</time>
      </trkpt>
      <trkpt lat="60.642597964033484" lon="6.158439991995692">
        <ele>18.399999999999999</ele>
        <time>2017-06-19T12:53:45Z</time>
      </trkpt>
      <trkpt lat="60.642291018739343" lon="6.159672969952226">
        <ele>18.399999999999999</ele>
        <time>2017-06-19T12:53:49Z</time>
      </trkpt>
      <trkpt lat="60.642185993492603" lon="6.159941023215652">
        <ele>18.399999999999999</ele>
        <time>2017-06-19T12:53:50Z</time>
      </trkpt>
      <trkpt lat="60.642061019316316" lon="6.160182002931833">
        <ele>18.399999999999999</ele>
        <time>2017-06-19T12:53:51Z</time>
      </trkpt>
      <trkpt lat="60.641925986856222" lon="6.160401022061706">
        <ele>17.920000000000002</ele>
        <time>2017-06-19T12:53:52Z</time>
      </trkpt>
      <trkpt lat="60.641778968274593" lon="6.160594979301095">
        <ele>17.920000000000002</ele>
        <time>2017-06-19T12:53:53Z</time>
      </trkpt>
      <trkpt lat="60.641624992713332" lon="6.160760018974543">
        <ele>17.920000000000002</ele>
        <time>2017-06-19T12:53:54Z</time>
      </trkpt>
      <trkpt lat="60.641460036858916" lon="6.160896979272366">
        <ele>17.920000000000002</ele>
        <time>2017-06-19T12:53:55Z</time>
      </trkpt>
      <trkpt lat="60.641294997185469" lon="6.161016002297401">
        <ele>18.399999999999999</ele>
        <time>2017-06-19T12:53:56Z</time>
      </trkpt>
      <trkpt lat="60.640813959762454" lon="6.161407018080354">
        <ele>18.879999999999999</ele>
        <time>2017-06-19T12:53:59Z</time>
      </trkpt>
      <trkpt lat="60.640676999464631" lon="6.161577003076673">
        <ele>18.879999999999999</ele>
        <time>2017-06-19T12:54:00Z</time>
      </trkpt>
      <trkpt lat="60.640554036945105" lon="6.161771966144443">
        <ele>19.359999999999999</ele>
        <time>2017-06-19T12:54:01Z</time>
      </trkpt>
      <trkpt lat="60.640443982556462" lon="6.161992996931076">
        <ele>19.84</ele>
        <time>2017-06-19T12:54:02Z</time>
      </trkpt>
      <trkpt lat="60.640343986451626" lon="6.162230959162116">
        <ele>19.84</ele>
        <time>2017-06-19T12:54:03Z</time>
      </trkpt>
      <trkpt lat="60.640252036973834" lon="6.162485014647245">
        <ele>20.32</ele>
        <time>2017-06-19T12:54:04Z</time>
      </trkpt>
      <trkpt lat="60.639197006821632" lon="6.166096022352576">
        <ele>26.57</ele>
        <time>2017-06-19T12:54:17Z</time>
      </trkpt>
      <trkpt lat="60.637923963367939" lon="6.170457964763045">
        <ele>30.899999999999999</ele>
        <time>2017-06-19T12:54:31Z</time>
      </trkpt>
      <trkpt lat="60.637590028345585" lon="6.171809965744615">
        <ele>32.340000000000003</ele>
        <time>2017-06-19T12:54:35Z</time>
      </trkpt>
      <trkpt lat="60.637543005868793" lon="6.172166028991342">
        <ele>32.340000000000003</ele>
        <time>2017-06-19T12:54:36Z</time>
      </trkpt>
      <trkpt lat="60.637508975341916" lon="6.172527959570289">
        <ele>32.340000000000003</ele>
        <time>2017-06-19T12:54:37Z</time>
      </trkpt>
      <trkpt lat="60.637489026412368" lon="6.172892991453409">
        <ele>32.340000000000003</ele>
        <time>2017-06-19T12:54:38Z</time>
      </trkpt>
      <trkpt lat="60.637481985613704" lon="6.173257017508149">
        <ele>32.340000000000003</ele>
        <time>2017-06-19T12:54:39Z</time>
      </trkpt>
      <trkpt lat="60.637491038069129" lon="6.173614002764225">
        <ele>32.340000000000003</ele>
        <time>2017-06-19T12:54:40Z</time>
      </trkpt>
      <trkpt lat="60.637512998655438" lon="6.173982974141836">
        <ele>31.859999999999999</ele>
        <time>2017-06-19T12:54:41Z</time>
      </trkpt>
      <trkpt lat="60.637550968676805" lon="6.17435303516686">
        <ele>31.379999999999999</ele>
        <time>2017-06-19T12:54:42Z</time>
      </trkpt>
      <trkpt lat="60.63760100863874" lon="6.174714965745807">
        <ele>31.379999999999999</ele>
        <time>2017-06-19T12:54:43Z</time>
      </trkpt>
      <trkpt lat="60.637661023065448" lon="6.175075974315405">
        <ele>30.899999999999999</ele>
        <time>2017-06-19T12:54:44Z</time>
      </trkpt>
      <trkpt lat="60.637727994471788" lon="6.17542902007699">
        <ele>30.899999999999999</ele>
        <time>2017-06-19T12:54:45Z</time>
      </trkpt>
      <trkpt lat="60.638537015765905" lon="6.179588958621025">
        <ele>29.460000000000001</ele>
        <time>2017-06-19T12:54:57Z</time>
      </trkpt>
      <trkpt lat="60.638595018535852" lon="6.179908979684115">
        <ele>29.460000000000001</ele>
        <time>2017-06-19T12:54:58Z</time>
      </trkpt>
      <trkpt lat="60.638627959415317" lon="6.180244004353881">
        <ele>30.420000000000002</ele>
        <time>2017-06-19T12:54:59Z</time>
      </trkpt>
      <trkpt lat="60.6386339943856" lon="6.18058598600328">
        <ele>30.420000000000002</ele>
        <time>2017-06-19T12:55:00Z</time>
      </trkpt>
      <trkpt lat="60.638627037405968" lon="6.180920004844666">
        <ele>30.420000000000002</ele>
        <time>2017-06-19T12:55:01Z</time>
      </trkpt>
      <trkpt lat="60.638586971908808" lon="6.181244971230626">
        <ele>30.899999999999999</ele>
        <time>2017-06-19T12:55:02Z</time>
      </trkpt>
      <trkpt lat="60.638528969138861" lon="6.181576978415251">
        <ele>31.379999999999999</ele>
        <time>2017-06-19T12:55:03Z</time>
      </trkpt>
      <trkpt lat="60.638459986075759" lon="6.181902028620243">
        <ele>30.899999999999999</ele>
        <time>2017-06-19T12:55:04Z</time>
      </trkpt>
      <trkpt lat="60.63773101195693" lon="6.185224028304219">
        <ele>33.780000000000001</ele>
        <time>2017-06-19T12:55:14Z</time>
      </trkpt>
      <trkpt lat="60.637639984488487" lon="6.187925012782216">
        <ele>33.299999999999997</ele>
        <time>2017-06-19T12:55:21Z</time>
      </trkpt>
      <trkpt lat="60.637396993115544" lon="6.190892960876226">
        <ele>33.299999999999997</ele>
        <time>2017-06-19T12:55:29Z</time>
      </trkpt>
      <trkpt lat="60.637401016429067" lon="6.191582959145308">
        <ele>32.82</ele>
        <time>2017-06-19T12:55:31Z</time>
      </trkpt>
      <trkpt lat="60.637442003935575" lon="6.191921001300216">
        <ele>32.340000000000003</ele>
        <time>2017-06-19T12:55:32Z</time>
      </trkpt>
      <trkpt lat="60.637501012533903" lon="6.192257031798363">
        <ele>32.82</ele>
        <time>2017-06-19T12:55:33Z</time>
      </trkpt>
      <trkpt lat="60.637578964233398" lon="6.192575041204691">
        <ele>32.82</ele>
        <time>2017-06-19T12:55:34Z</time>
      </trkpt>
      <trkpt lat="60.637674015015364" lon="6.192873017862439">
        <ele>32.340000000000003</ele>
        <time>2017-06-19T12:55:35Z</time>
      </trkpt>
      <trkpt lat="60.637787003070116" lon="6.193140987306833">
        <ele>32.340000000000003</ele>
        <time>2017-06-19T12:55:36Z</time>
      </trkpt>
      <trkpt lat="60.637923963367939" lon="6.193379033356905">
        <ele>32.340000000000003</ele>
        <time>2017-06-19T12:55:37Z</time>
      </trkpt>
      <trkpt lat="60.638056984171271" lon="6.193604003638029">
        <ele>32.82</ele>
        <time>2017-06-19T12:55:38Z</time>
      </trkpt>
      <trkpt lat="60.638580014929175" lon="6.194556020200253">
        <ele>32.340000000000003</ele>
        <time>2017-06-19T12:55:42Z</time>
      </trkpt>
      <trkpt lat="60.638683028519154" lon="6.194842010736466">
        <ele>32.340000000000003</ele>
        <time>2017-06-19T12:55:43Z</time>
      </trkpt>
      <trkpt lat="60.638768021017313" lon="6.19515297934413">
        <ele>32.340000000000003</ele>
        <time>2017-06-19T12:55:44Z</time>
      </trkpt>
      <trkpt lat="60.638831974938512" lon="6.195479035377502">
        <ele>32.82</ele>
        <time>2017-06-19T12:55:45Z</time>
      </trkpt>
      <trkpt lat="60.638874974101782" lon="6.195809030905366">
        <ele>32.82</ele>
        <time>2017-06-19T12:55:46Z</time>
      </trkpt>
      <trkpt lat="60.638899030163884" lon="6.196152018383145">
        <ele>33.299999999999997</ele>
        <time>2017-06-19T12:55:47Z</time>
      </trkpt>
      <trkpt lat="60.638904981315136" lon="6.196503974497318">
        <ele>33.299999999999997</ele>
        <time>2017-06-19T12:55:48Z</time>
      </trkpt>
      <trkpt lat="60.63889198936522" lon="6.196858026087284">
        <ele>33.780000000000001</ele>
        <time>2017-06-19T12:55:49Z</time>
      </trkpt>
      <trkpt lat="60.638859970495105" lon="6.197203025221825">
        <ele>34.259999999999998</ele>
        <time>2017-06-19T12:55:50Z</time>
      </trkpt>
      <trkpt lat="60.638811020180583" lon="6.197540983557701">
        <ele>34.740000000000002</ele>
        <time>2017-06-19T12:55:51Z</time>
      </trkpt>
      <trkpt lat="60.638745976611972" lon="6.197862010449171">
        <ele>35.229999999999997</ele>
        <time>2017-06-19T12:55:52Z</time>
      </trkpt>
      <trkpt lat="60.638670958578587" lon="6.198180019855499">
        <ele>35.710000000000001</ele>
        <time>2017-06-19T12:55:53Z</time>
      </trkpt>
      <trkpt lat="60.638148011639714" lon="6.201242012903094">
        <ele>40.509999999999998</ele>
        <time>2017-06-19T12:56:02Z</time>
      </trkpt>
      <trkpt lat="60.638012979179621" lon="6.203888012096286">
        <ele>43.880000000000003</ele>
        <time>2017-06-19T12:56:09Z</time>
      </trkpt>
      <trkpt lat="60.637952964752913" lon="6.204248014837503">
        <ele>44.359999999999999</ele>
        <time>2017-06-19T12:56:10Z</time>
      </trkpt>
      <trkpt lat="60.637875013053417" lon="6.204602988436818">
        <ele>45.32</ele>
        <time>2017-06-19T12:56:11Z</time>
      </trkpt>
      <trkpt lat="60.637781973928213" lon="6.204955028370023">
        <ele>45.799999999999997</ele>
        <time>2017-06-19T12:56:12Z</time>
      </trkpt>
      <trkpt lat="60.637674015015364" lon="6.205297010019422">
        <ele>46.280000000000001</ele>
        <time>2017-06-19T12:56:13Z</time>
      </trkpt>
      <trkpt lat="60.637553986161947" lon="6.205629017204046">
        <ele>46.759999999999998</ele>
        <time>2017-06-19T12:56:14Z</time>
      </trkpt>
      <trkpt lat="60.637423982843757" lon="6.205948032438755">
        <ele>47.240000000000002</ele>
        <time>2017-06-19T12:56:15Z</time>
      </trkpt>
      <trkpt lat="60.637278975918889" lon="6.206241985782981">
        <ele>47.719999999999999</ele>
        <time>2017-06-19T12:56:16Z</time>
      </trkpt>
      <trkpt lat="60.637117959558964" lon="6.206506015732884">
        <ele>48.200000000000003</ele>
        <time>2017-06-19T12:56:17Z</time>
      </trkpt>
      <trkpt lat="60.636931965127587" lon="6.20673299767077">
        <ele>49.159999999999997</ele>
        <time>2017-06-19T12:56:18Z</time>
      </trkpt>
      <trkpt lat="60.636731972917914" lon="6.206932989880443">
        <ele>50.130000000000003</ele>
        <time>2017-06-19T12:56:19Z</time>
      </trkpt>
      <trkpt lat="60.63652703538537" lon="6.20707699097693">
        <ele>50.609999999999999</ele>
        <time>2017-06-19T12:56:20Z</time>
      </trkpt>
      <trkpt lat="60.636326959356666" lon="6.207213029265404">
        <ele>50.609999999999999</ele>
        <time>2017-06-19T12:56:21Z</time>
      </trkpt>
      <trkpt lat="60.636125961318612" lon="6.207325011491776">
        <ele>51.090000000000003</ele>
        <time>2017-06-19T12:56:22Z</time>
      </trkpt>
      <trkpt lat="60.635914988815784" lon="6.207397012040019">
        <ele>51.57</ele>
        <time>2017-06-19T12:56:23Z</time>
      </trkpt>
      <trkpt lat="60.634791981428862" lon="6.20806303806603">
        <ele>54.93</ele>
        <time>2017-06-19T12:56:29Z</time>
      </trkpt>
      <trkpt lat="60.634632976725698" lon="6.208274010568857">
        <ele>55.409999999999997</ele>
        <time>2017-06-19T12:56:30Z</time>
      </trkpt>
      <trkpt lat="60.634483024477959" lon="6.208508033305407">
        <ele>55.890000000000001</ele>
        <time>2017-06-19T12:56:31Z</time>
      </trkpt>
      <trkpt lat="60.634345980361104" lon="6.208764016628265">
        <ele>56.369999999999997</ele>
        <time>2017-06-19T12:56:32Z</time>
      </trkpt>
      <trkpt lat="60.634222012013197" lon="6.209042966365814">
        <ele>55.890000000000001</ele>
        <time>2017-06-19T12:56:33Z</time>
      </trkpt>
      <trkpt lat="60.634098965674639" lon="6.209320994094014">
        <ele>56.369999999999997</ele>
        <time>2017-06-19T12:56:34Z</time>
      </trkpt>
      <trkpt lat="60.633752960711718" lon="6.210077041760087">
        <ele>57.340000000000003</ele>
        <time>2017-06-19T12:56:37Z</time>
      </trkpt>
      <trkpt lat="60.633462024852633" lon="6.21042899787426">
        <ele>57.82</ele>
        <time>2017-06-19T12:56:39Z</time>
      </trkpt>
      <trkpt lat="60.632901024073362" lon="6.218600012362003">
        <ele>58.299999999999997</ele>
        <time>2017-06-19T12:56:57Z</time>
      </trkpt>
      <trkpt lat="60.633009988814592" lon="6.222393997013569">
        <ele>53.009999999999998</ele>
        <time>2017-06-19T12:57:06Z</time>
      </trkpt>
      <trkpt lat="60.633624969050288" lon="6.226504985243082">
        <ele>46.280000000000001</ele>
        <time>2017-06-19T12:57:16Z</time>
      </trkpt>
      <trkpt lat="60.634633982554078" lon="6.230126973241568">
        <ele>43.880000000000003</ele>
        <time>2017-06-19T12:57:26Z</time>
      </trkpt>
      <trkpt lat="60.636287983506918" lon="6.234250031411648">
        <ele>46.280000000000001</ele>
        <time>2017-06-19T12:57:39Z</time>
      </trkpt>
      <trkpt lat="60.636646980419755" lon="6.235185032710433">
        <ele>45.32</ele>
        <time>2017-06-19T12:57:42Z</time>
      </trkpt>
      <trkpt lat="60.63674203120172" lon="6.235537994652987">
        <ele>45.32</ele>
        <time>2017-06-19T12:57:43Z</time>
      </trkpt>
      <trkpt lat="60.636825012043118" lon="6.235908977687359">
        <ele>44.840000000000003</ele>
        <time>2017-06-19T12:57:44Z</time>
      </trkpt>
      <trkpt lat="60.636887038126588" lon="6.236295970156789">
        <ele>44.840000000000003</ele>
        <time>2017-06-19T12:57:45Z</time>
      </trkpt>
      <trkpt lat="60.636932970955968" lon="6.236702995374799">
        <ele>45.32</ele>
        <time>2017-06-19T12:57:46Z</time>
      </trkpt>
      <trkpt lat="60.63695702701807" lon="6.23711203224957">
        <ele>45.32</ele>
        <time>2017-06-19T12:57:47Z</time>
      </trkpt>
      <trkpt lat="60.636961972340941" lon="6.237531965598464">
        <ele>45.32</ele>
        <time>2017-06-19T12:57:48Z</time>
      </trkpt>
      <trkpt lat="60.63695602118969" lon="6.237950976938009">
        <ele>45.32</ele>
        <time>2017-06-19T12:57:49Z</time>
      </trkpt>
      <trkpt lat="60.63693699426949" lon="6.238369988277555">
        <ele>45.32</ele>
        <time>2017-06-19T12:57:50Z</time>
      </trkpt>
      <trkpt lat="60.636478001251817" lon="6.242130026221275">
        <ele>43.880000000000003</ele>
        <time>2017-06-19T12:57:59Z</time>
      </trkpt>
      <trkpt lat="60.635634027421474" lon="6.245065033435822">
        <ele>43.880000000000003</ele>
        <time>2017-06-19T12:58:07Z</time>
      </trkpt>
      <trkpt lat="60.634479001164436" lon="6.247028997167945">
        <ele>44.359999999999999</ele>
        <time>2017-06-19T12:58:14Z</time>
      </trkpt>
      <trkpt lat="60.632932959124446" lon="6.248407987877727">
        <ele>44.359999999999999</ele>
        <time>2017-06-19T12:58:22Z</time>
      </trkpt>
      <trkpt lat="60.632429039105773" lon="6.248998995870352">
        <ele>44.359999999999999</ele>
        <time>2017-06-19T12:58:25Z</time>
      </trkpt>
      <trkpt lat="60.632287971675396" lon="6.249263025820255">
        <ele>44.840000000000003</ele>
        <time>2017-06-19T12:58:26Z</time>
      </trkpt>
      <trkpt lat="60.632161991670728" lon="6.249561002478004">
        <ele>45.32</ele>
        <time>2017-06-19T12:58:27Z</time>
      </trkpt>
      <trkpt lat="60.632053026929498" lon="6.249873982742429">
        <ele>45.799999999999997</ele>
        <time>2017-06-19T12:58:28Z</time>
      </trkpt>
      <trkpt lat="60.631966022774577" lon="6.250215964391828">
        <ele>45.32</ele>
        <time>2017-06-19T12:58:29Z</time>
      </trkpt>
      <trkpt lat="60.631898967549205" lon="6.250577978789806">
        <ele>45.799999999999997</ele>
        <time>2017-06-19T12:58:30Z</time>
      </trkpt>
      <trkpt lat="60.631853034719825" lon="6.25095097348094">
        <ele>45.799999999999997</ele>
        <time>2017-06-19T12:58:31Z</time>
      </trkpt>
      <trkpt lat="60.631829984486103" lon="6.251322962343693">
        <ele>45.32</ele>
        <time>2017-06-19T12:58:32Z</time>
      </trkpt>
      <trkpt lat="60.631825039163232" lon="6.251708026975393">
        <ele>45.32</ele>
        <time>2017-06-19T12:58:33Z</time>
      </trkpt>
      <trkpt lat="60.631839036941528" lon="6.252098958939314">
        <ele>44.840000000000003</ele>
        <time>2017-06-19T12:58:34Z</time>
      </trkpt>
      <trkpt lat="60.631867032498121" lon="6.252480000257492">
        <ele>44.359999999999999</ele>
        <time>2017-06-19T12:58:35Z</time>
      </trkpt>
      <trkpt lat="60.63190802000463" lon="6.252852994948626">
        <ele>44.840000000000003</ele>
        <time>2017-06-19T12:58:36Z</time>
      </trkpt>
      <trkpt lat="60.632300041615963" lon="6.256249006837606">
        <ele>38.590000000000003</ele>
        <time>2017-06-19T12:58:45Z</time>
      </trkpt>
      <trkpt lat="60.632416969165206" lon="6.259869989007711">
        <ele>44.840000000000003</ele>
        <time>2017-06-19T12:58:54Z</time>
      </trkpt>
      <trkpt lat="60.632572034373879" lon="6.261744014918804">
        <ele>49.159999999999997</ele>
        <time>2017-06-19T12:58:59Z</time>
      </trkpt>
      <trkpt lat="60.632547978311777" lon="6.262110974639654">
        <ele>50.130000000000003</ele>
        <time>2017-06-19T12:59:00Z</time>
      </trkpt>
      <trkpt lat="60.632258970290422" lon="6.2653430365026">
        <ele>54.93</ele>
        <time>2017-06-19T12:59:08Z</time>
      </trkpt>
      <trkpt lat="60.631888993084431" lon="6.269769016653299">
        <ele>55.409999999999997</ele>
        <time>2017-06-19T12:59:19Z</time>
      </trkpt>
      <trkpt lat="60.631174016743898" lon="6.275052968412638">
        <ele>56.859999999999999</ele>
        <time>2017-06-19T12:59:32Z</time>
      </trkpt>
      <trkpt lat="60.631153983995318" lon="6.275426968932152">
        <ele>56.859999999999999</ele>
        <time>2017-06-19T12:59:33Z</time>
      </trkpt>
      <trkpt lat="60.631147027015686" lon="6.275805998593569">
        <ele>56.369999999999997</ele>
        <time>2017-06-19T12:59:34Z</time>
      </trkpt>
      <trkpt lat="60.631162030622363" lon="6.276185028254986">
        <ele>55.890000000000001</ele>
        <time>2017-06-19T12:59:35Z</time>
      </trkpt>
      <trkpt lat="60.631268983706832" lon="6.27944097854197">
        <ele>52.049999999999997</ele>
        <time>2017-06-19T12:59:44Z</time>
      </trkpt>
      <trkpt lat="60.630908980965614" lon="6.282251011580229">
        <ele>47.240000000000002</ele>
        <time>2017-06-19T12:59:52Z</time>
      </trkpt>
      <trkpt lat="60.630057966336608" lon="6.286402987316251">
        <ele>48.68</ele>
        <time>2017-06-19T13:00:04Z</time>
      </trkpt>
      <trkpt lat="60.62918197363615" lon="6.291351998224855">
        <ele>49.649999999999999</ele>
        <time>2017-06-19T13:00:17Z</time>
      </trkpt>
      <trkpt lat="60.628746030852199" lon="6.292665023356676">
        <ele>50.130000000000003</ele>
        <time>2017-06-19T13:00:21Z</time>
      </trkpt>
      <trkpt lat="60.628604963421822" lon="6.292937016114593">
        <ele>50.130000000000003</ele>
        <time>2017-06-19T13:00:22Z</time>
      </trkpt>
      <trkpt lat="60.628451993688941" lon="6.293186964467168">
        <ele>50.130000000000003</ele>
        <time>2017-06-19T13:00:23Z</time>
      </trkpt>
      <trkpt lat="60.627687983214855" lon="6.294379960745573">
        <ele>51.57</ele>
        <time>2017-06-19T13:00:28Z</time>
      </trkpt>
      <trkpt lat="60.627559991553426" lon="6.294667962938547">
        <ele>51.57</ele>
        <time>2017-06-19T13:00:29Z</time>
      </trkpt>
      <trkpt lat="60.627445997670293" lon="6.294978009536862">
        <ele>52.049999999999997</ele>
        <time>2017-06-19T13:00:30Z</time>
      </trkpt>
      <trkpt lat="60.627347007393837" lon="6.295313034206629">
        <ele>51.57</ele>
        <time>2017-06-19T13:00:31Z</time>
      </trkpt>
      <trkpt lat="60.627263020724058" lon="6.295659961178899">
        <ele>51.57</ele>
        <time>2017-06-19T13:00:32Z</time>
      </trkpt>
      <trkpt lat="60.627195965498686" lon="6.296020969748497">
        <ele>51.57</ele>
        <time>2017-06-19T13:00:33Z</time>
      </trkpt>
      <trkpt lat="60.627148021012545" lon="6.296387007459998">
        <ele>51.57</ele>
        <time>2017-06-19T13:00:34Z</time>
      </trkpt>
      <trkpt lat="60.627116002142429" lon="6.296773999929428">
        <ele>51.57</ele>
        <time>2017-06-19T13:00:35Z</time>
      </trkpt>
      <trkpt lat="60.62709697522223" lon="6.297159986570478">
        <ele>51.57</ele>
        <time>2017-06-19T13:00:36Z</time>
      </trkpt>
      <trkpt lat="60.627087000757456" lon="6.297558965161443">
        <ele>51.57</ele>
        <time>2017-06-19T13:00:37Z</time>
      </trkpt>
      <trkpt lat="60.627054981887341" lon="6.303263017907739">
        <ele>50.130000000000003</ele>
        <time>2017-06-19T13:00:51Z</time>
      </trkpt>
      <trkpt lat="60.626942999660969" lon="6.309896036982536">
        <ele>50.130000000000003</ele>
        <time>2017-06-19T13:01:08Z</time>
      </trkpt>
      <trkpt lat="60.626663966104388" lon="6.315258024260402">
        <ele>51.57</ele>
        <time>2017-06-19T13:01:22Z</time>
      </trkpt>
      <trkpt lat="60.625918982550502" lon="6.318404003977776">
        <ele>52.049999999999997</ele>
        <time>2017-06-19T13:01:31Z</time>
      </trkpt>
      <trkpt lat="60.624300017952919" lon="6.322310976684094">
        <ele>53.490000000000002</ele>
        <time>2017-06-19T13:01:44Z</time>
      </trkpt>
      <trkpt lat="60.622128015384078" lon="6.328207980841398">
        <ele>56.369999999999997</ele>
        <time>2017-06-19T13:02:03Z</time>
      </trkpt>
      <trkpt lat="60.62082203105092" lon="6.332627004012466">
        <ele>54.93</ele>
        <time>2017-06-19T13:02:16Z</time>
      </trkpt>
      <trkpt lat="60.618842979893088" lon="6.338895997032523">
        <ele>54.93</ele>
        <time>2017-06-19T13:02:35Z</time>
      </trkpt>
      <trkpt lat="60.617071967571974" lon="6.342940013855696">
        <ele>53.490000000000002</ele>
        <time>2017-06-19T13:02:49Z</time>
      </trkpt>
      <trkpt lat="60.615420984104276" lon="6.346704997122288">
        <ele>53.490000000000002</ele>
        <time>2017-06-19T13:03:02Z</time>
      </trkpt>
      <trkpt lat="60.614967020228505" lon="6.349655007943511">
        <ele>53.969999999999999</ele>
        <time>2017-06-19T13:03:10Z</time>
      </trkpt>
      <trkpt lat="60.614341981709003" lon="6.351555017754436">
        <ele>54.450000000000003</ele>
        <time>2017-06-19T13:03:16Z</time>
      </trkpt>
      <trkpt lat="60.613615019246936" lon="6.353255035355687">
        <ele>54.93</ele>
        <time>2017-06-19T13:03:22Z</time>
      </trkpt>
      <trkpt lat="60.613536983728409" lon="6.353580001741648">
        <ele>54.450000000000003</ele>
        <time>2017-06-19T13:03:23Z</time>
      </trkpt>
      <trkpt lat="60.613466994836926" lon="6.353922989219427">
        <ele>54.450000000000003</ele>
        <time>2017-06-19T13:03:24Z</time>
      </trkpt>
      <trkpt lat="60.613414021208882" lon="6.354281986132264">
        <ele>53.969999999999999</ele>
        <time>2017-06-19T13:03:25Z</time>
      </trkpt>
      <trkpt lat="60.613373033702374" lon="6.354646012187004">
        <ele>53.969999999999999</ele>
        <time>2017-06-19T13:03:26Z</time>
      </trkpt>
      <trkpt lat="60.613348977640271" lon="6.355024036020041">
        <ele>53.969999999999999</ele>
        <time>2017-06-19T13:03:27Z</time>
      </trkpt>
      <trkpt lat="60.613348977640271" lon="6.355415973812342">
        <ele>53.490000000000002</ele>
        <time>2017-06-19T13:03:28Z</time>
      </trkpt>
      <trkpt lat="60.613360041752458" lon="6.355802966281772">
        <ele>53.490000000000002</ele>
        <time>2017-06-19T13:03:29Z</time>
      </trkpt>
      <trkpt lat="60.61338996514678" lon="6.35618501342833">
        <ele>53.009999999999998</ele>
        <time>2017-06-19T13:03:30Z</time>
      </trkpt>
      <trkpt lat="60.613438999280334" lon="6.356565970927477">
        <ele>52.049999999999997</ele>
        <time>2017-06-19T13:03:31Z</time>
      </trkpt>
      <trkpt lat="60.613503037020564" lon="6.3569360319525">
        <ele>52.049999999999997</ele>
        <time>2017-06-19T13:03:32Z</time>
      </trkpt>
      <trkpt lat="60.613588029518723" lon="6.357295028865337">
        <ele>51.57</ele>
        <time>2017-06-19T13:03:33Z</time>
      </trkpt>
      <trkpt lat="60.613684002310038" lon="6.357636004686356">
        <ele>51.57</ele>
        <time>2017-06-19T13:03:34Z</time>
      </trkpt>
      <trkpt lat="60.613791039213538" lon="6.357970023527741">
        <ele>51.57</ele>
        <time>2017-06-19T13:03:35Z</time>
      </trkpt>
      <trkpt lat="60.613905033096671" lon="6.358297001570463">
        <ele>51.090000000000003</ele>
        <time>2017-06-19T13:03:36Z</time>
      </trkpt>
      <trkpt lat="60.614337958395481" lon="6.360088968649507">
        <ele>49.649999999999999</ele>
        <time>2017-06-19T13:03:41Z</time>
      </trkpt>
      <trkpt lat="60.614662002772093" lon="6.362427016720176">
        <ele>49.159999999999997</ele>
        <time>2017-06-19T13:03:47Z</time>
      </trkpt>
      <trkpt lat="60.614758981391788" lon="6.362776039168239">
        <ele>49.159999999999997</ele>
        <time>2017-06-19T13:03:48Z</time>
      </trkpt>
      <trkpt lat="60.614867024123669" lon="6.363108968362212">
        <ele>49.159999999999997</ele>
        <time>2017-06-19T13:03:49Z</time>
      </trkpt>
      <trkpt lat="60.614983029663563" lon="6.363424966111779">
        <ele>49.159999999999997</ele>
        <time>2017-06-19T13:03:50Z</time>
      </trkpt>
      <trkpt lat="60.61510800383985" lon="6.363725960254669">
        <ele>49.159999999999997</ele>
        <time>2017-06-19T13:03:51Z</time>
      </trkpt>
      <trkpt lat="60.616495041176677" lon="6.367431012913585">
        <ele>49.649999999999999</ele>
        <time>2017-06-19T13:04:03Z</time>
      </trkpt>
      <trkpt lat="60.617738999426365" lon="6.371830003336072">
        <ele>48.68</ele>
        <time>2017-06-19T13:04:16Z</time>
      </trkpt>
      <trkpt lat="60.619101980701089" lon="6.374922003597021">
        <ele>51.57</ele>
        <time>2017-06-19T13:04:27Z</time>
      </trkpt>
      <trkpt lat="60.620686998590827" lon="6.378652034327388">
        <ele>50.130000000000003</ele>
        <time>2017-06-19T13:04:40Z</time>
      </trkpt>
      <trkpt lat="60.621912013739347" lon="6.381759038195014">
        <ele>49.649999999999999</ele>
        <time>2017-06-19T13:04:50Z</time>
      </trkpt>
      <trkpt lat="60.622457005083561" lon="6.382818007841706">
        <ele>49.159999999999997</ele>
        <time>2017-06-19T13:04:54Z</time>
      </trkpt>
      <trkpt lat="60.622566975653172" lon="6.383131993934512">
        <ele>49.159999999999997</ele>
        <time>2017-06-19T13:04:55Z</time>
      </trkpt>
      <trkpt lat="60.622664038091898" lon="6.383467018604279">
        <ele>49.159999999999997</ele>
        <time>2017-06-19T13:04:56Z</time>
      </trkpt>
      <trkpt lat="60.622748024761677" lon="6.383815035223961">
        <ele>49.159999999999997</ele>
        <time>2017-06-19T13:04:57Z</time>
      </trkpt>
      <trkpt lat="60.62281901948154" lon="6.384174032136798">
        <ele>49.649999999999999</ele>
        <time>2017-06-19T13:04:58Z</time>
      </trkpt>
      <trkpt lat="60.62288599088788" lon="6.38454400934279">
        <ele>49.649999999999999</ele>
        <time>2017-06-19T13:04:59Z</time>
      </trkpt>
      <trkpt lat="60.623719990253448" lon="6.388605963438749">
        <ele>50.609999999999999</ele>
        <time>2017-06-19T13:05:10Z</time>
      </trkpt>
      <trkpt lat="60.62492698431015" lon="6.391765018925071">
        <ele>48.68</ele>
        <time>2017-06-19T13:05:20Z</time>
      </trkpt>
      <trkpt lat="60.625804988667369" lon="6.395255997776985">
        <ele>48.68</ele>
        <time>2017-06-19T13:05:30Z</time>
      </trkpt>
      <trkpt lat="60.626495992764831" lon="6.398748988285661">
        <ele>49.159999999999997</ele>
        <time>2017-06-19T13:05:41Z</time>
      </trkpt>
      <trkpt lat="60.626904023811221" lon="6.400015996769071">
        <ele>48.200000000000003</ele>
        <time>2017-06-19T13:05:48Z</time>
      </trkpt>
      <trkpt lat="60.627007037401199" lon="6.400331994518638">
        <ele>48.200000000000003</ele>
        <time>2017-06-19T13:05:50Z</time>
      </trkpt>
      <trkpt lat="60.627050036564469" lon="6.400507008656859">
        <ele>47.719999999999999</ele>
        <time>2017-06-19T13:05:51Z</time>
      </trkpt>
      <trkpt lat="60.627148021012545" lon="6.400800039991736">
        <ele>47.240000000000002</ele>
        <time>2017-06-19T13:05:53Z</time>
      </trkpt>
      <trkpt lat="60.627217004075646" lon="6.400878997519612">
        <ele>47.240000000000002</ele>
        <time>2017-06-19T13:05:54Z</time>
      </trkpt>
      <trkpt lat="60.627301996573806" lon="6.40091797336936">
        <ele>47.240000000000002</ele>
        <time>2017-06-19T13:05:55Z</time>
      </trkpt>
      <trkpt lat="60.627626962959766" lon="6.401090975850821">
        <ele>48.68</ele>
        <time>2017-06-19T13:05:58Z</time>
      </trkpt>
      <trkpt lat="60.642197979614139" lon="6.434489004313946">
        <ele>71.269999999999996</ele>
        <time>2017-06-19T13:12:08Z</time>
      </trkpt>
      <trkpt lat="60.642164032906294" lon="6.434793015941978">
        <ele>76.560000000000002</ele>
        <time>2017-06-19T13:12:10Z</time>
      </trkpt>
      <trkpt lat="60.642151962965727" lon="6.434892006218433">
        <ele>78.480000000000004</ele>
        <time>2017-06-19T13:12:11Z</time>
      </trkpt>
      <trkpt lat="60.642151962965727" lon="6.435016980394721">
        <ele>77.519999999999996</ele>
        <time>2017-06-19T13:12:12Z</time>
      </trkpt>
      <trkpt lat="60.642139976844192" lon="6.435074983164668">
        <ele>77.519999999999996</ele>
        <time>2017-06-19T13:12:13Z</time>
      </trkpt>
      <trkpt lat="60.642145005986094" lon="6.435104990378022">
        <ele>77.040000000000006</ele>
        <time>2017-06-19T13:12:14Z</time>
      </trkpt>
      <trkpt lat="60.642139976844192" lon="6.435140026733279">
        <ele>78</ele>
        <time>2017-06-19T13:12:15Z</time>
      </trkpt>
      <trkpt lat="60.64207199960947" lon="6.435283022001386">
        <ele>78</ele>
        <time>2017-06-19T13:12:24Z</time>
      </trkpt>
      <trkpt lat="60.642013996839523" lon="6.435478990897536">
        <ele>77.519999999999996</ele>
        <time>2017-06-19T13:12:26Z</time>
      </trkpt>
      <trkpt lat="60.641993964090943" lon="6.435603965073824">
        <ele>77.040000000000006</ele>
        <time>2017-06-19T13:12:27Z</time>
      </trkpt>
      <trkpt lat="60.641991030424833" lon="6.435732962563634">
        <ele>77.040000000000006</ele>
        <time>2017-06-19T13:12:28Z</time>
      </trkpt>
      <trkpt lat="60.64200603403151" lon="6.435865983366966">
        <ele>77.519999999999996</ele>
        <time>2017-06-19T13:12:29Z</time>
      </trkpt>
      <trkpt lat="60.642046015709639" lon="6.435963967815042">
        <ele>77.040000000000006</ele>
        <time>2017-06-19T13:12:30Z</time>
      </trkpt>
      <trkpt lat="60.642104018479586" lon="6.436026999726892">
        <ele>77.040000000000006</ele>
        <time>2017-06-19T13:12:31Z</time>
      </trkpt>
      <trkpt lat="60.642168978229165" lon="6.436050971969962">
        <ele>77.519999999999996</ele>
        <time>2017-06-19T13:12:32Z</time>
      </trkpt>
      <trkpt lat="60.642241984605789" lon="6.436026999726892">
        <ele>77.519999999999996</ele>
        <time>2017-06-19T13:12:33Z</time>
      </trkpt>
      <trkpt lat="60.642308034002781" lon="6.435953993350267">
        <ele>77.519999999999996</ele>
        <time>2017-06-19T13:12:34Z</time>
      </trkpt>
      <trkpt lat="60.642381962388754" lon="6.435862965881825">
        <ele>77.040000000000006</ele>
        <time>2017-06-19T13:12:35Z</time>
      </trkpt>
      <trkpt lat="60.642571980133653" lon="6.43574402667582">
        <ele>77.040000000000006</ele>
        <time>2017-06-19T13:12:37Z</time>
      </trkpt>
      <trkpt lat="60.642684968188405" lon="6.43572399392724">
        <ele>77.519999999999996</ele>
        <time>2017-06-19T13:12:38Z</time>
      </trkpt>
      <trkpt lat="60.644110981374979" lon="6.435625003650785">
        <ele>77.040000000000006</ele>
        <time>2017-06-19T13:12:48Z</time>
      </trkpt>
      <trkpt lat="60.646393960341811" lon="6.435390980914235">
        <ele>77.040000000000006</ele>
        <time>2017-06-19T13:13:01Z</time>
      </trkpt>
      <trkpt lat="60.64931002445519" lon="6.435429034754634">
        <ele>78.480000000000004</ele>
        <time>2017-06-19T13:13:17Z</time>
      </trkpt>
      <trkpt lat="60.651398040354252" lon="6.435997998341918">
        <ele>81.370000000000005</ele>
        <time>2017-06-19T13:13:30Z</time>
      </trkpt>
      <trkpt lat="60.651712026447058" lon="6.43610998056829">
        <ele>81.370000000000005</ele>
        <time>2017-06-19T13:13:33Z</time>
      </trkpt>
      <trkpt lat="60.651795007288456" lon="6.436172006651759">
        <ele>81.849999999999994</ele>
        <time>2017-06-19T13:13:34Z</time>
      </trkpt>
      <trkpt lat="60.651872036978602" lon="6.436245013028383">
        <ele>81.849999999999994</ele>
        <time>2017-06-19T13:13:35Z</time>
      </trkpt>
      <trkpt lat="60.651952000334859" lon="6.436321958899498">
        <ele>81.370000000000005</ele>
        <time>2017-06-19T13:13:36Z</time>
      </trkpt>
      <trkpt lat="60.652033975347877" lon="6.436366969719529">
        <ele>81.370000000000005</ele>
        <time>2017-06-19T13:13:37Z</time>
      </trkpt>
      <trkpt lat="60.652128020301461" lon="6.436353977769613">
        <ele>81.849999999999994</ele>
        <time>2017-06-19T13:13:38Z</time>
      </trkpt>
      <trkpt lat="60.652226004749537" lon="6.436307961121202">
        <ele>82.329999999999998</ele>
        <time>2017-06-19T13:13:39Z</time>
      </trkpt>
      <trkpt lat="60.652334969490767" lon="6.43626001663506">
        <ele>82.329999999999998</ele>
        <time>2017-06-19T13:13:40Z</time>
      </trkpt>
      <trkpt lat="60.652458015829325" lon="6.436236966401339">
        <ele>82.810000000000002</ele>
        <time>2017-06-19T13:13:41Z</time>
      </trkpt>
      <trkpt lat="60.652591958642006" lon="6.436232021078467">
        <ele>82.810000000000002</ele>
        <time>2017-06-19T13:13:42Z</time>
      </trkpt>
      <trkpt lat="60.653915964066982" lon="6.436062036082149">
        <ele>81.849999999999994</ele>
        <time>2017-06-19T13:13:50Z</time>
      </trkpt>
      <trkpt lat="60.655033020302653" lon="6.435588961467147">
        <ele>79.450000000000003</ele>
        <time>2017-06-19T13:13:58Z</time>
      </trkpt>
      <trkpt lat="60.655463011935353" lon="6.435457030311227">
        <ele>78</ele>
        <time>2017-06-19T13:14:02Z</time>
      </trkpt>
      <trkpt lat="60.655559990555048" lon="6.435458036139607">
        <ele>78</ele>
        <time>2017-06-19T13:14:03Z</time>
      </trkpt>
      <trkpt lat="60.65565001219511" lon="6.43548896536231">
        <ele>78</ele>
        <time>2017-06-19T13:14:04Z</time>
      </trkpt>
      <trkpt lat="60.65582100301981" lon="6.43555199727416">
        <ele>77.040000000000006</ele>
        <time>2017-06-19T13:14:06Z</time>
      </trkpt>
      <trkpt lat="60.655901972204447" lon="6.435519978404045">
        <ele>76.560000000000002</ele>
        <time>2017-06-19T13:14:07Z</time>
      </trkpt>
      <trkpt lat="60.655985958874226" lon="6.435452001169324">
        <ele>76.560000000000002</ele>
        <time>2017-06-19T13:14:08Z</time>
      </trkpt>
      <trkpt lat="60.65618502907455" lon="6.435332978144288">
        <ele>76.079999999999998</ele>
        <time>2017-06-19T13:14:10Z</time>
      </trkpt>
      <trkpt lat="60.656304974108934" lon="6.435306994244456">
        <ele>76.079999999999998</ele>
        <time>2017-06-19T13:14:11Z</time>
      </trkpt>
      <trkpt lat="60.657558990642428" lon="6.435449989512563">
        <ele>77.040000000000006</ele>
        <time>2017-06-19T13:14:19Z</time>
      </trkpt>
      <trkpt lat="60.658643022179604" lon="6.435826001688838">
        <ele>79.930000000000007</ele>
        <time>2017-06-19T13:14:27Z</time>
      </trkpt>
      <trkpt lat="60.659073013812304" lon="6.436014007776976">
        <ele>79.930000000000007</ele>
        <time>2017-06-19T13:14:31Z</time>
      </trkpt>
      <trkpt lat="60.659160017967224" lon="6.436101011931896">
        <ele>79.930000000000007</ele>
        <time>2017-06-19T13:14:32Z</time>
      </trkpt>
      <trkpt lat="60.659325979650021" lon="6.43623998388648">
        <ele>79.930000000000007</ele>
        <time>2017-06-19T13:14:34Z</time>
      </trkpt>
      <trkpt lat="60.659406026825309" lon="6.436234032735229">
        <ele>79.930000000000007</ele>
        <time>2017-06-19T13:14:35Z</time>
      </trkpt>
      <trkpt lat="60.659489007666707" lon="6.436187010258436">
        <ele>80.409999999999997</ele>
        <time>2017-06-19T13:14:36Z</time>
      </trkpt>
      <trkpt lat="60.6597950309515" lon="6.436076033860445">
        <ele>80.409999999999997</ele>
        <time>2017-06-19T13:14:39Z</time>
      </trkpt>
      <trkpt lat="60.661048963665962" lon="6.436086008325219">
        <ele>79.930000000000007</ele>
        <time>2017-06-19T13:14:48Z</time>
      </trkpt>
      <trkpt lat="60.66263297572732" lon="6.436853036284447">
        <ele>81.849999999999994</ele>
        <time>2017-06-19T13:14:59Z</time>
      </trkpt>
      <trkpt lat="60.662905974313617" lon="6.437173979356885">
        <ele>82.329999999999998</ele>
        <time>2017-06-19T13:15:01Z</time>
      </trkpt>
      <trkpt lat="60.663032038137317" lon="6.437368020415306">
        <ele>82.329999999999998</ele>
        <time>2017-06-19T13:15:02Z</time>
      </trkpt>
      <trkpt lat="60.664603980258107" lon="6.440208982676268">
        <ele>82.810000000000002</ele>
        <time>2017-06-19T13:15:15Z</time>
      </trkpt>
      <trkpt lat="60.666708005592227" lon="6.443579010665417">
        <ele>84.25</ele>
        <time>2017-06-19T13:15:31Z</time>
      </trkpt>
      <trkpt lat="60.668031005188823" lon="6.446100035682321">
        <ele>86.180000000000007</ele>
        <time>2017-06-19T13:15:42Z</time>
      </trkpt>
      <trkpt lat="60.669354004785419" lon="6.449441984295845">
        <ele>90.019999999999996</ele>
        <time>2017-06-19T13:15:55Z</time>
      </trkpt>
      <trkpt lat="60.669483002275229" lon="6.449599983170629">
        <ele>90.5</ele>
        <time>2017-06-19T13:15:56Z</time>
      </trkpt>
      <trkpt lat="60.669622980058193" lon="6.44970903173089">
        <ele>90.980000000000004</ele>
        <time>2017-06-19T13:15:57Z</time>
      </trkpt>
      <trkpt lat="60.669775027781725" lon="6.449782960116863">
        <ele>90.980000000000004</ele>
        <time>2017-06-19T13:15:58Z</time>
      </trkpt>
      <trkpt lat="60.669933026656508" lon="6.4498380292207">
        <ele>91.459999999999994</ele>
        <time>2017-06-19T13:15:59Z</time>
      </trkpt>
      <trkpt lat="60.6705810315907" lon="6.45003198646009">
        <ele>92.420000000000002</ele>
        <time>2017-06-19T13:16:03Z</time>
      </trkpt>
      <trkpt lat="60.67073198966682" lon="6.450147991999984">
        <ele>92.420000000000002</ele>
        <time>2017-06-19T13:16:04Z</time>
      </trkpt>
      <trkpt lat="60.670876996591687" lon="6.450300039723516">
        <ele>92.900000000000006</ele>
        <time>2017-06-19T13:16:05Z</time>
      </trkpt>
      <trkpt lat="60.671013034880161" lon="6.450463989749551">
        <ele>93.390000000000001</ele>
        <time>2017-06-19T13:16:06Z</time>
      </trkpt>
      <trkpt lat="60.671146977692842" lon="6.450651995837688">
        <ele>93.390000000000001</ele>
        <time>2017-06-19T13:16:07Z</time>
      </trkpt>
      <trkpt lat="60.672768959775567" lon="6.452880995348096">
        <ele>92.420000000000002</ele>
        <time>2017-06-19T13:16:20Z</time>
      </trkpt>
      <trkpt lat="60.673530036583543" lon="6.453395979478955">
        <ele>91.939999999999998</ele>
        <time>2017-06-19T13:16:26Z</time>
      </trkpt>
      <trkpt lat="60.673657022416592" lon="6.453401008620858">
        <ele>90.980000000000004</ele>
        <time>2017-06-19T13:16:27Z</time>
      </trkpt>
      <trkpt lat="60.673785014078021" lon="6.453378964215517">
        <ele>90.5</ele>
        <time>2017-06-19T13:16:28Z</time>
      </trkpt>
      <trkpt lat="60.67391300573945" lon="6.453310986980796">
        <ele>90.019999999999996</ele>
        <time>2017-06-19T13:16:29Z</time>
      </trkpt>
      <trkpt lat="60.674039991572499" lon="6.453213002532721">
        <ele>89.540000000000006</ele>
        <time>2017-06-19T13:16:30Z</time>
      </trkpt>
      <trkpt lat="60.674163037911057" lon="6.453087022528052">
        <ele>89.540000000000006</ele>
        <time>2017-06-19T13:16:31Z</time>
      </trkpt>
      <trkpt lat="60.674286000430584" lon="6.452938998118043">
        <ele>89.060000000000002</ele>
        <time>2017-06-19T13:16:32Z</time>
      </trkpt>
      <trkpt lat="60.674408040940762" lon="6.452779993414879">
        <ele>89.060000000000002</ele>
        <time>2017-06-19T13:16:33Z</time>
      </trkpt>
      <trkpt lat="60.674913972616196" lon="6.452267020940781">
        <ele>88.579999999999998</ele>
        <time>2017-06-19T13:16:37Z</time>
      </trkpt>
      <trkpt lat="60.675042970106006" lon="6.452221004292369">
        <ele>88.579999999999998</ele>
        <time>2017-06-19T13:16:38Z</time>
      </trkpt>
      <trkpt lat="60.675172973424196" lon="6.452215975150466">
        <ele>88.579999999999998</ele>
        <time>2017-06-19T13:16:39Z</time>
      </trkpt>
      <trkpt lat="60.675305994227529" lon="6.452241037040949">
        <ele>88.579999999999998</ele>
        <time>2017-06-19T13:16:40Z</time>
      </trkpt>
      <trkpt lat="60.675439015030861" lon="6.452290993183851">
        <ele>89.060000000000002</ele>
        <time>2017-06-19T13:16:41Z</time>
      </trkpt>
      <trkpt lat="60.675564995035529" lon="6.452370034530759">
        <ele>89.060000000000002</ele>
        <time>2017-06-19T13:16:42Z</time>
      </trkpt>
      <trkpt lat="60.677059991285205" lon="6.453778026625514">
        <ele>88.099999999999994</ele>
        <time>2017-06-19T13:16:54Z</time>
      </trkpt>
      <trkpt lat="60.678543001413345" lon="6.456055976450443">
        <ele>88.579999999999998</ele>
        <time>2017-06-19T13:17:08Z</time>
      </trkpt>
      <trkpt lat="60.679844962432981" lon="6.457211002707481">
        <ele>89.060000000000002</ele>
        <time>2017-06-19T13:17:18Z</time>
      </trkpt>
      <trkpt lat="60.679975971579552" lon="6.457353997975588">
        <ele>89.060000000000002</ele>
        <time>2017-06-19T13:17:19Z</time>
      </trkpt>
      <trkpt lat="60.680101029574871" lon="6.457525994628668">
        <ele>89.060000000000002</ele>
        <time>2017-06-19T13:17:20Z</time>
      </trkpt>
      <trkpt lat="60.681306011974812" lon="6.459089973941445">
        <ele>90.019999999999996</ele>
        <time>2017-06-19T13:17:30Z</time>
      </trkpt>
      <trkpt lat="60.682663964107633" lon="6.460711034014821">
        <ele>90.019999999999996</ele>
        <time>2017-06-19T13:17:41Z</time>
      </trkpt>
      <trkpt lat="60.683804992586374" lon="6.461499016731978">
        <ele>91.939999999999998</ele>
        <time>2017-06-19T13:17:49Z</time>
      </trkpt>
      <trkpt lat="60.685165040194988" lon="6.461479989811778">
        <ele>90.980000000000004</ele>
        <time>2017-06-19T13:17:59Z</time>
      </trkpt>
      <trkpt lat="60.686627011746168" lon="6.461770003661513">
        <ele>87.140000000000001</ele>
        <time>2017-06-19T13:18:09Z</time>
      </trkpt>
      <trkpt lat="60.686885006725788" lon="6.461949963122606">
        <ele>87.140000000000001</ele>
        <time>2017-06-19T13:18:11Z</time>
      </trkpt>
      <trkpt lat="60.687000006437302" lon="6.462066974490881">
        <ele>87.620000000000005</ele>
        <time>2017-06-19T13:18:12Z</time>
      </trkpt>
      <trkpt lat="60.687115006148815" lon="6.462195971980691">
        <ele>87.620000000000005</ele>
        <time>2017-06-19T13:18:13Z</time>
      </trkpt>
      <trkpt lat="60.688439011573792" lon="6.463983999565244">
        <ele>89.060000000000002</ele>
        <time>2017-06-19T13:18:25Z</time>
      </trkpt>
      <trkpt lat="60.690945032984018" lon="6.467273980379105">
        <ele>90.980000000000004</ele>
        <time>2017-06-19T13:18:47Z</time>
      </trkpt>
      <trkpt lat="60.692124031484127" lon="6.469244984909892">
        <ele>87.620000000000005</ele>
        <time>2017-06-19T13:18:57Z</time>
      </trkpt>
      <trkpt lat="60.693049980327487" lon="6.470561027526856">
        <ele>89.060000000000002</ele>
        <time>2017-06-19T13:19:05Z</time>
      </trkpt>
      <trkpt lat="60.69483800791204" lon="6.472601015120745">
        <ele>87.140000000000001</ele>
        <time>2017-06-19T13:19:19Z</time>
      </trkpt>
      <trkpt lat="60.695978030562401" lon="6.473767021670938">
        <ele>85.209999999999994</ele>
        <time>2017-06-19T13:19:28Z</time>
      </trkpt>
      <trkpt lat="60.696119014173746" lon="6.473829969763756">
        <ele>85.209999999999994</ele>
        <time>2017-06-19T13:19:29Z</time>
      </trkpt>
      <trkpt lat="60.697358027100563" lon="6.473877998068929">
        <ele>84.25</ele>
        <time>2017-06-19T13:19:38Z</time>
      </trkpt>
      <trkpt lat="60.697648040950298" lon="6.473898030817509">
        <ele>83.769999999999996</ele>
        <time>2017-06-19T13:19:40Z</time>
      </trkpt>
      <trkpt lat="60.697791036218405" lon="6.473959973081946">
        <ele>83.769999999999996</ele>
        <time>2017-06-19T13:19:41Z</time>
      </trkpt>
      <trkpt lat="60.697930008172989" lon="6.474049994722009">
        <ele>83.290000000000006</ele>
        <time>2017-06-19T13:19:42Z</time>
      </trkpt>
      <trkpt lat="60.698063028976321" lon="6.474164994433522">
        <ele>83.290000000000006</ele>
        <time>2017-06-19T13:19:43Z</time>
      </trkpt>
      <trkpt lat="60.698192026466131" lon="6.474288962781429">
        <ele>83.290000000000006</ele>
        <time>2017-06-19T13:19:44Z</time>
      </trkpt>
      <trkpt lat="60.699034994468093" lon="6.475166967138648">
        <ele>81.849999999999994</ele>
        <time>2017-06-19T13:19:52Z</time>
      </trkpt>
      <trkpt lat="60.699722981080413" lon="6.475743977352977">
        <ele>80.890000000000001</ele>
        <time>2017-06-19T13:20:01Z</time>
      </trkpt>
      <trkpt lat="60.700228996574879" lon="6.476273965090513">
        <ele>79.930000000000007</ele>
        <time>2017-06-19T13:20:15Z</time>
      </trkpt>
      <trkpt lat="60.700239976868033" lon="6.476295003667474">
        <ele>79.930000000000007</ele>
        <time>2017-06-19T13:20:29Z</time>
      </trkpt>
      <trkpt lat="60.700440974906087" lon="6.476494995877147">
        <ele>79.930000000000007</ele>
        <time>2017-06-19T13:21:04Z</time>
      </trkpt>
      <trkpt lat="60.701224012300372" lon="6.47701702080667">
        <ele>80.890000000000001</ele>
        <time>2017-06-19T13:21:16Z</time>
      </trkpt>
      <trkpt lat="60.701310010626912" lon="6.477065971121192">
        <ele>80.890000000000001</ele>
        <time>2017-06-19T13:21:17Z</time>
      </trkpt>
      <trkpt lat="60.701400032266974" lon="6.477131014689803">
        <ele>80.890000000000001</ele>
        <time>2017-06-19T13:21:18Z</time>
      </trkpt>
      <trkpt lat="60.702580036595464" lon="6.478253016248345">
        <ele>80.890000000000001</ele>
        <time>2017-06-19T13:21:30Z</time>
      </trkpt>
      <trkpt lat="60.704104034230113" lon="6.479478031396866">
        <ele>81.370000000000005</ele>
        <time>2017-06-19T13:21:43Z</time>
      </trkpt>
      <trkpt lat="60.705369031056762" lon="6.480288980528712">
        <ele>82.329999999999998</ele>
        <time>2017-06-19T13:21:51Z</time>
      </trkpt>
      <trkpt lat="60.70650402456522" lon="6.481737960129976">
        <ele>82.810000000000002</ele>
        <time>2017-06-19T13:21:59Z</time>
      </trkpt>
      <trkpt lat="60.707632983103395" lon="6.483514001592994">
        <ele>82.810000000000002</ele>
        <time>2017-06-19T13:22:07Z</time>
      </trkpt>
      <trkpt lat="60.709290001541376" lon="6.485543008893728">
        <ele>82.810000000000002</ele>
        <time>2017-06-19T13:22:19Z</time>
      </trkpt>
      <trkpt lat="60.709443977102637" lon="6.485606962814927">
        <ele>82.810000000000002</ele>
        <time>2017-06-19T13:22:20Z</time>
      </trkpt>
      <trkpt lat="60.70960097014904" lon="6.485641999170184">
        <ele>82.810000000000002</ele>
        <time>2017-06-19T13:22:21Z</time>
      </trkpt>
      <trkpt lat="60.709759974852204" lon="6.4856549911201">
        <ele>82.810000000000002</ele>
        <time>2017-06-19T13:22:22Z</time>
      </trkpt>
      <trkpt lat="60.70992099121213" lon="6.485647028312087">
        <ele>83.290000000000006</ele>
        <time>2017-06-19T13:22:23Z</time>
      </trkpt>
      <trkpt lat="60.711856037378311" lon="6.485256012529135">
        <ele>88.099999999999994</ele>
        <time>2017-06-19T13:22:34Z</time>
      </trkpt>
      <trkpt lat="60.713378023356199" lon="6.485636970028281">
        <ele>88.099999999999994</ele>
        <time>2017-06-19T13:22:42Z</time>
      </trkpt>
      <trkpt lat="60.715934000909328" lon="6.486499970778823">
        <ele>88.099999999999994</ele>
        <time>2017-06-19T13:22:55Z</time>
      </trkpt>
      <trkpt lat="60.717518012970686" lon="6.487711993977428">
        <ele>92.900000000000006</ele>
        <time>2017-06-19T13:23:05Z</time>
      </trkpt>
      <trkpt lat="60.719708958640695" lon="6.489632036536932">
        <ele>96.75</ele>
        <time>2017-06-19T13:23:19Z</time>
      </trkpt>
      <trkpt lat="60.721664037555456" lon="6.49134898558259">
        <ele>100.11</ele>
        <time>2017-06-19T13:23:30Z</time>
      </trkpt>
      <trkpt lat="60.723206978291273" lon="6.491908980533481">
        <ele>102.52</ele>
        <time>2017-06-19T13:23:39Z</time>
      </trkpt>
      <trkpt lat="60.724601978436112" lon="6.491397013887763">
        <ele>103.48</ele>
        <time>2017-06-19T13:23:47Z</time>
      </trkpt>
      <trkpt lat="60.726655963808298" lon="6.490126987919211">
        <ele>106.36</ele>
        <time>2017-06-19T13:23:59Z</time>
      </trkpt>
      <trkpt lat="60.728061022236943" lon="6.490498976781964">
        <ele>109.25</ele>
        <time>2017-06-19T13:24:06Z</time>
      </trkpt>
      <trkpt lat="60.729611003771424" lon="6.490664016455412">
        <ele>110.20999999999999</ele>
        <time>2017-06-19T13:24:14Z</time>
      </trkpt>
      <trkpt lat="60.732326991856098" lon="6.49038297124207">
        <ele>110.20999999999999</ele>
        <time>2017-06-19T13:24:29Z</time>
      </trkpt>
      <trkpt lat="60.733733978122473" lon="6.490842970088124">
        <ele>112.61</ele>
        <time>2017-06-19T13:24:37Z</time>
      </trkpt>
      <trkpt lat="60.735004004091024" lon="6.490385988727212">
        <ele>113.56999999999999</ele>
        <time>2017-06-19T13:24:44Z</time>
      </trkpt>
      <trkpt lat="60.736978026106954" lon="6.489377981051803">
        <ele>112.13</ele>
        <time>2017-06-19T13:24:55Z</time>
      </trkpt>
      <trkpt lat="60.737343979999423" lon="6.489465991035104">
        <ele>111.65000000000001</ele>
        <time>2017-06-19T13:24:57Z</time>
      </trkpt>
      <trkpt lat="60.739105017855763" lon="6.490307031199336">
        <ele>117.42</ele>
        <time>2017-06-19T13:25:08Z</time>
      </trkpt>
      <trkpt lat="60.739284977316856" lon="6.490324968472123">
        <ele>119.34</ele>
        <time>2017-06-19T13:25:09Z</time>
      </trkpt>
      <trkpt lat="60.740673020482063" lon="6.490165963768959">
        <ele>125.59</ele>
        <time>2017-06-19T13:25:15Z</time>
      </trkpt>
      <trkpt lat="60.741876997053623" lon="6.490052975714207">
        <ele>131.84</ele>
        <time>2017-06-19T13:25:21Z</time>
      </trkpt>
      <trkpt lat="60.742253009229898" lon="6.490056999027729">
        <ele>134.24000000000001</ele>
        <time>2017-06-19T13:25:23Z</time>
      </trkpt>
      <trkpt lat="60.743687991052866" lon="6.490851016715169">
        <ele>140.97</ele>
        <time>2017-06-19T13:25:31Z</time>
      </trkpt>
      <trkpt lat="60.745201008394361" lon="6.493042968213558">
        <ele>147.69999999999999</ele>
        <time>2017-06-19T13:25:41Z</time>
      </trkpt>
      <trkpt lat="60.746631966903806" lon="6.495416974648833">
        <ele>154.91</ele>
        <time>2017-06-19T13:25:51Z</time>
      </trkpt>
      <trkpt lat="60.748439021408558" lon="6.498992023989558">
        <ele>157.78999999999999</ele>
        <time>2017-06-19T13:26:04Z</time>
      </trkpt>
      <trkpt lat="60.748855015262961" lon="6.499759973958135">
        <ele>158.27000000000001</ele>
        <time>2017-06-19T13:26:07Z</time>
      </trkpt>
      <trkpt lat="60.74900203384459" lon="6.499948985874653">
        <ele>159.72</ele>
        <time>2017-06-19T13:26:08Z</time>
      </trkpt>
      <trkpt lat="60.749179981648922" lon="6.500142021104693">
        <ele>160.68000000000001</ele>
        <time>2017-06-19T13:26:09Z</time>
      </trkpt>
      <trkpt lat="60.749885989353061" lon="6.50073898024857">
        <ele>160.68000000000001</ele>
        <time>2017-06-19T13:26:13Z</time>
      </trkpt>
      <trkpt lat="60.750067038461566" lon="6.500813998281956">
        <ele>160.19999999999999</ele>
        <time>2017-06-19T13:26:14Z</time>
      </trkpt>
      <trkpt lat="60.750253032892942" lon="6.500852974131703">
        <ele>160.19999999999999</ele>
        <time>2017-06-19T13:26:15Z</time>
      </trkpt>
      <trkpt lat="60.750445984303951" lon="6.500849034637213">
        <ele>159.24000000000001</ele>
        <time>2017-06-19T13:26:16Z</time>
      </trkpt>
      <trkpt lat="60.750644970685244" lon="6.500820033252239">
        <ele>159.72</ele>
        <time>2017-06-19T13:26:17Z</time>
      </trkpt>
      <trkpt lat="60.752911018207669" lon="6.500792959704995">
        <ele>158.27000000000001</ele>
        <time>2017-06-19T13:26:28Z</time>
      </trkpt>
      <trkpt lat="60.753117967396975" lon="6.500767981633544">
        <ele>158.27000000000001</ele>
        <time>2017-06-19T13:26:29Z</time>
      </trkpt>
      <trkpt lat="60.753317959606647" lon="6.500690029934049">
        <ele>158.75</ele>
        <time>2017-06-19T13:26:30Z</time>
      </trkpt>
      <trkpt lat="60.753510994836688" lon="6.500564971938729">
        <ele>159.24000000000001</ele>
        <time>2017-06-19T13:26:31Z</time>
      </trkpt>
      <trkpt lat="60.753696989268064" lon="6.500392975285649">
        <ele>159.72</ele>
        <time>2017-06-19T13:26:32Z</time>
      </trkpt>
      <trkpt lat="60.75387803837657" lon="6.500185020267963">
        <ele>160.19999999999999</ele>
        <time>2017-06-19T13:26:33Z</time>
      </trkpt>
      <trkpt lat="60.755351996049285" lon="6.498571000993252">
        <ele>162.12</ele>
        <time>2017-06-19T13:26:41Z</time>
      </trkpt>
      <trkpt lat="60.75667298398912" lon="6.496973996981978">
        <ele>163.08000000000001</ele>
        <time>2017-06-19T13:26:48Z</time>
      </trkpt>
      <trkpt lat="60.758283985778689" lon="6.494029015302658">
        <ele>166.44999999999999</ele>
        <time>2017-06-19T13:26:58Z</time>
      </trkpt>
      <trkpt lat="60.75929400511086" lon="6.491418974474073">
        <ele>167.88999999999999</ele>
        <time>2017-06-19T13:27:06Z</time>
      </trkpt>
      <trkpt lat="60.759549988433719" lon="6.490942966192961">
        <ele>169.81</ele>
        <time>2017-06-19T13:27:08Z</time>
      </trkpt>
      <trkpt lat="60.759693989530206" lon="6.490785973146558">
        <ele>170.28999999999999</ele>
        <time>2017-06-19T13:27:09Z</time>
      </trkpt>
      <trkpt lat="60.759856011718512" lon="6.490686982870102">
        <ele>170.28999999999999</ele>
        <time>2017-06-19T13:27:10Z</time>
      </trkpt>
      <trkpt lat="60.760032031685114" lon="6.490627974271774">
        <ele>171.25</ele>
        <time>2017-06-19T13:27:11Z</time>
      </trkpt>
      <trkpt lat="60.760219031944871" lon="6.490615988150239">
        <ele>171.25</ele>
        <time>2017-06-19T13:27:12Z</time>
      </trkpt>
      <trkpt lat="60.760410977527499" lon="6.490650018677115">
        <ele>171.72999999999999</ele>
        <time>2017-06-19T13:27:13Z</time>
      </trkpt>
      <trkpt lat="60.76060501858592" lon="6.490725036710501">
        <ele>172.21000000000001</ele>
        <time>2017-06-19T13:27:14Z</time>
      </trkpt>
      <trkpt lat="60.760794030502439" lon="6.490825032815337">
        <ele>172.69</ele>
        <time>2017-06-19T13:27:15Z</time>
      </trkpt>
      <trkpt lat="60.760985976085067" lon="6.490966016426683">
        <ele>172.69</ele>
        <time>2017-06-19T13:27:16Z</time>
      </trkpt>
      <trkpt lat="60.76118596829474" lon="6.491142958402634">
        <ele>172.69</ele>
        <time>2017-06-19T13:27:17Z</time>
      </trkpt>
      <trkpt lat="60.763142975047231" lon="6.492417007684708">
        <ele>171.25</ele>
        <time>2017-06-19T13:27:27Z</time>
      </trkpt>
      <trkpt lat="60.765226967632771" lon="6.492973985150456">
        <ele>175.58000000000001</ele>
        <time>2017-06-19T13:27:38Z</time>
      </trkpt>
      <trkpt lat="60.765928030014038" lon="6.493310015648603">
        <ele>175.09999999999999</ele>
        <time>2017-06-19T13:27:42Z</time>
      </trkpt>
      <trkpt lat="60.766112012788653" lon="6.493326025083661">
        <ele>175.58000000000001</ele>
        <time>2017-06-19T13:27:43Z</time>
      </trkpt>
      <trkpt lat="60.766291972249746" lon="6.493287971243262">
        <ele>176.06</ele>
        <time>2017-06-19T13:27:44Z</time>
      </trkpt>
      <trkpt lat="60.766472015529871" lon="6.493210019543767">
        <ele>177.02000000000001</ele>
        <time>2017-06-19T13:27:45Z</time>
      </trkpt>
      <trkpt lat="60.766647029668093" lon="6.493098959326744">
        <ele>177.5</ele>
        <time>2017-06-19T13:27:46Z</time>
      </trkpt>
      <trkpt lat="60.766819026321173" lon="6.492957975715399">
        <ele>178.46000000000001</ele>
        <time>2017-06-19T13:27:47Z</time>
      </trkpt>
      <trkpt lat="60.766988005489111" lon="6.492794025689364">
        <ele>178.94</ele>
        <time>2017-06-19T13:27:48Z</time>
      </trkpt>
      <trkpt lat="60.767152039334178" lon="6.492619011551142">
        <ele>179.90000000000001</ele>
        <time>2017-06-19T13:27:49Z</time>
      </trkpt>
      <trkpt lat="60.768364984542131" lon="6.490672985091806">
        <ele>183.27000000000001</ele>
        <time>2017-06-19T13:27:57Z</time>
      </trkpt>
      <trkpt lat="60.76921901665628" lon="6.48911302909255">
        <ele>182.78999999999999</ele>
        <time>2017-06-19T13:28:03Z</time>
      </trkpt>
      <trkpt lat="60.769377015531063" lon="6.48892099969089">
        <ele>182.31</ele>
        <time>2017-06-19T13:28:04Z</time>
      </trkpt>
      <trkpt lat="60.769549012184143" lon="6.488758977502585">
        <ele>182.78999999999999</ele>
        <time>2017-06-19T13:28:05Z</time>
      </trkpt>
      <trkpt lat="60.769727965816855" lon="6.488627968356013">
        <ele>183.27000000000001</ele>
        <time>2017-06-19T13:28:06Z</time>
      </trkpt>
      <trkpt lat="60.769912032410502" lon="6.488502994179726">
        <ele>183.27000000000001</ele>
        <time>2017-06-19T13:28:07Z</time>
      </trkpt>
      <trkpt lat="60.771636022254825" lon="6.487618032842875">
        <ele>184.22999999999999</ele>
        <time>2017-06-19T13:28:17Z</time>
      </trkpt>
      <trkpt lat="60.773081984370947" lon="6.486857961863279">
        <ele>184.22999999999999</ele>
        <time>2017-06-19T13:28:26Z</time>
      </trkpt>
      <trkpt lat="60.774542028084397" lon="6.485255006700754">
        <ele>183.27000000000001</ele>
        <time>2017-06-19T13:28:36Z</time>
      </trkpt>
      <trkpt lat="60.776835987344384" lon="6.484348000958562">
        <ele>183.75</ele>
        <time>2017-06-19T13:28:49Z</time>
      </trkpt>
      <trkpt lat="60.778127973899245" lon="6.484599960967898">
        <ele>185.66999999999999</ele>
        <time>2017-06-19T13:28:56Z</time>
      </trkpt>
      <trkpt lat="60.780358985066414" lon="6.486489996314049">
        <ele>188.08000000000001</ele>
        <time>2017-06-19T13:29:09Z</time>
      </trkpt>
      <trkpt lat="60.781442010775208" lon="6.487408988177776">
        <ele>191.91999999999999</ele>
        <time>2017-06-19T13:29:17Z</time>
      </trkpt>
      <trkpt lat="60.782861988991499" lon="6.488209962844849">
        <ele>198.65000000000001</ele>
        <time>2017-06-19T13:29:27Z</time>
      </trkpt>
      <trkpt lat="60.783307990059257" lon="6.48840500973165">
        <ele>197.69</ele>
        <time>2017-06-19T13:29:30Z</time>
      </trkpt>
      <trkpt lat="60.783434975892305" lon="6.488537024706602">
        <ele>198.16999999999999</ele>
        <time>2017-06-19T13:29:31Z</time>
      </trkpt>
      <trkpt lat="60.783558022230864" lon="6.488686976954341">
        <ele>199.13</ele>
        <time>2017-06-19T13:29:32Z</time>
      </trkpt>
      <trkpt lat="60.783667992800474" lon="6.488868026062846">
        <ele>199.61000000000001</ele>
        <time>2017-06-19T13:29:33Z</time>
      </trkpt>
      <trkpt lat="60.783768994733691" lon="6.489072041586042">
        <ele>200.56999999999999</ele>
        <time>2017-06-19T13:29:34Z</time>
      </trkpt>
      <trkpt lat="60.783860022202134" lon="6.489298017695546">
        <ele>201.53</ele>
        <time>2017-06-19T13:29:35Z</time>
      </trkpt>
      <trkpt lat="60.783941997215152" lon="6.489540003240109">
        <ele>202.00999999999999</ele>
        <time>2017-06-19T13:29:36Z</time>
      </trkpt>
      <trkpt lat="60.784018021076918" lon="6.489795986562967">
        <ele>202.97999999999999</ele>
        <time>2017-06-19T13:29:37Z</time>
      </trkpt>
      <trkpt lat="60.784080969169736" lon="6.490075020119548">
        <ele>204.41999999999999</ele>
        <time>2017-06-19T13:29:38Z</time>
      </trkpt>
      <trkpt lat="60.784127991646528" lon="6.490377020090818">
        <ele>205.38</ele>
        <time>2017-06-19T13:29:39Z</time>
      </trkpt>
      <trkpt lat="60.784162022173405" lon="6.490701986476779">
        <ele>206.81999999999999</ele>
        <time>2017-06-19T13:29:40Z</time>
      </trkpt>
      <trkpt lat="60.784178031608462" lon="6.491036005318165">
        <ele>207.78</ele>
        <time>2017-06-19T13:29:41Z</time>
      </trkpt>
      <trkpt lat="60.784178031608462" lon="6.49136901833117">
        <ele>209.22</ele>
        <time>2017-06-19T13:29:42Z</time>
      </trkpt>
      <trkpt lat="60.784160010516644" lon="6.491704965010285">
        <ele>210.19</ele>
        <time>2017-06-19T13:29:43Z</time>
      </trkpt>
      <trkpt lat="60.784122962504625" lon="6.492024986073375">
        <ele>211.15000000000001</ele>
        <time>2017-06-19T13:29:44Z</time>
      </trkpt>
      <trkpt lat="60.784080969169736" lon="6.492344001308084">
        <ele>211.15000000000001</ele>
        <time>2017-06-19T13:29:45Z</time>
      </trkpt>
      <trkpt lat="60.784021038562059" lon="6.492954036220908">
        <ele>211.63</ele>
        <time>2017-06-19T13:29:47Z</time>
      </trkpt>
      <trkpt lat="60.784012991935015" lon="6.493241032585502">
        <ele>211.15000000000001</ele>
        <time>2017-06-19T13:29:48Z</time>
      </trkpt>
      <trkpt lat="60.78402497805655" lon="6.493526017293334">
        <ele>211.15000000000001</ele>
        <time>2017-06-19T13:29:49Z</time>
      </trkpt>
      <trkpt lat="60.784054985269904" lon="6.493806978687644">
        <ele>211.15000000000001</ele>
        <time>2017-06-19T13:29:50Z</time>
      </trkpt>
      <trkpt lat="60.784098990261555" lon="6.494087018072605">
        <ele>211.15000000000001</ele>
        <time>2017-06-19T13:29:51Z</time>
      </trkpt>
      <trkpt lat="60.784363020211458" lon="6.496907025575638">
        <ele>209.69999999999999</ele>
        <time>2017-06-19T13:30:01Z</time>
      </trkpt>
      <trkpt lat="60.784390009939671" lon="6.497455034404993">
        <ele>210.19</ele>
        <time>2017-06-19T13:30:03Z</time>
      </trkpt>
      <trkpt lat="60.784435020759702" lon="6.497718980535865">
        <ele>210.19</ele>
        <time>2017-06-19T13:30:04Z</time>
      </trkpt>
      <trkpt lat="60.784498974680901" lon="6.497980998829007">
        <ele>210.66999999999999</ele>
        <time>2017-06-19T13:30:05Z</time>
      </trkpt>
      <trkpt lat="60.784580027684569" lon="6.498228013515472">
        <ele>210.66999999999999</ele>
        <time>2017-06-19T13:30:06Z</time>
      </trkpt>
      <trkpt lat="60.784676000475883" lon="6.498460024595261">
        <ele>211.15000000000001</ele>
        <time>2017-06-19T13:30:07Z</time>
      </trkpt>
      <trkpt lat="60.784783959388733" lon="6.498673008754849">
        <ele>211.63</ele>
        <time>2017-06-19T13:30:08Z</time>
      </trkpt>
      <trkpt lat="60.784903988242149" lon="6.498875012621284">
        <ele>211.63</ele>
        <time>2017-06-19T13:30:09Z</time>
      </trkpt>
      <trkpt lat="60.785034997388721" lon="6.499065030366182">
        <ele>211.63</ele>
        <time>2017-06-19T13:30:10Z</time>
      </trkpt>
      <trkpt lat="60.785175981000066" lon="6.499242978170514">
        <ele>212.11000000000001</ele>
        <time>2017-06-19T13:30:11Z</time>
      </trkpt>
      <trkpt lat="60.785325011238456" lon="6.499396031722426">
        <ele>212.11000000000001</ele>
        <time>2017-06-19T13:30:12Z</time>
      </trkpt>
      <trkpt lat="60.785479992628098" lon="6.499525029212236">
        <ele>212.11000000000001</ele>
        <time>2017-06-19T13:30:13Z</time>
      </trkpt>
      <trkpt lat="60.785643020644784" lon="6.499637011438608">
        <ele>212.59</ele>
        <time>2017-06-19T13:30:14Z</time>
      </trkpt>
      <trkpt lat="60.7878059707582" lon="6.501301992684603">
        <ele>214.03</ele>
        <time>2017-06-19T13:30:28Z</time>
      </trkpt>
      <trkpt lat="60.789155960083008" lon="6.503476006910205">
        <ele>214.50999999999999</ele>
        <time>2017-06-19T13:30:39Z</time>
      </trkpt>
      <trkpt lat="60.790310986340046" lon="6.505466038361192">
        <ele>215.94999999999999</ele>
        <time>2017-06-19T13:30:49Z</time>
      </trkpt>
      <trkpt lat="60.791575983166695" lon="6.507436959072948">
        <ele>217.88</ele>
        <time>2017-06-19T13:31:00Z</time>
      </trkpt>
      <trkpt lat="60.791642032563686" lon="6.507652960717678">
        <ele>217.88</ele>
        <time>2017-06-19T13:31:01Z</time>
      </trkpt>
      <trkpt lat="60.791692994534969" lon="6.507867034524679">
        <ele>218.36000000000001</ele>
        <time>2017-06-19T13:31:02Z</time>
      </trkpt>
      <trkpt lat="60.791725013405085" lon="6.508081024512649">
        <ele>218.36000000000001</ele>
        <time>2017-06-19T13:31:03Z</time>
      </trkpt>
      <trkpt lat="60.791835989803076" lon="6.508758030831814">
        <ele>218.84</ele>
        <time>2017-06-19T13:31:06Z</time>
      </trkpt>
      <trkpt lat="60.791955012828112" lon="6.509220041334629">
        <ele>220.28</ele>
        <time>2017-06-19T13:31:08Z</time>
      </trkpt>
      <trkpt lat="60.792005974799395" lon="6.509480969980359">
        <ele>220.75999999999999</ele>
        <time>2017-06-19T13:31:09Z</time>
      </trkpt>
      <trkpt lat="60.792048973962665" lon="6.509767966344953">
        <ele>221.72</ele>
        <time>2017-06-19T13:31:10Z</time>
      </trkpt>
      <trkpt lat="60.792452981695533" lon="6.513665970414877">
        <ele>227.97</ele>
        <time>2017-06-19T13:31:22Z</time>
      </trkpt>
      <trkpt lat="60.792286014184356" lon="6.516330996528268">
        <ele>233.25999999999999</ele>
        <time>2017-06-19T13:31:30Z</time>
      </trkpt>
      <trkpt lat="60.792255001142621" lon="6.517016971483827">
        <ele>234.69999999999999</ele>
        <time>2017-06-19T13:31:32Z</time>
      </trkpt>
      <trkpt lat="60.792266987264156" lon="6.517360964789987">
        <ele>235.18000000000001</ele>
        <time>2017-06-19T13:31:33Z</time>
      </trkpt>
      <trkpt lat="60.792292971163988" lon="6.517713004723191">
        <ele>236.13999999999999</ele>
        <time>2017-06-19T13:31:34Z</time>
      </trkpt>
      <trkpt lat="60.792336976155639" lon="6.51805398054421">
        <ele>236.62</ele>
        <time>2017-06-19T13:31:35Z</time>
      </trkpt>
      <trkpt lat="60.792393973097205" lon="6.518385987728834">
        <ele>237.09999999999999</ele>
        <time>2017-06-19T13:31:36Z</time>
      </trkpt>
      <trkpt lat="60.792450970038772" lon="6.518721012398601">
        <ele>237.09999999999999</ele>
        <time>2017-06-19T13:31:37Z</time>
      </trkpt>
      <trkpt lat="60.792838968336582" lon="6.521903034299612">
        <ele>244.31</ele>
        <time>2017-06-19T13:31:47Z</time>
      </trkpt>
      <trkpt lat="60.792656997218728" lon="6.524549033492804">
        <ele>247.68000000000001</ele>
        <time>2017-06-19T13:31:55Z</time>
      </trkpt>
      <trkpt lat="60.792569993063807" lon="6.527857035398483">
        <ele>251.52000000000001</ele>
        <time>2017-06-19T13:32:03Z</time>
      </trkpt>
      <trkpt lat="60.792184006422758" lon="6.532595995813608">
        <ele>259.20999999999998</ele>
        <time>2017-06-19T13:32:14Z</time>
      </trkpt>
      <trkpt lat="60.792152993381023" lon="6.535385996103287">
        <ele>262.57999999999998</ele>
        <time>2017-06-19T13:32:21Z</time>
      </trkpt>
      <trkpt lat="60.792712988331914" lon="6.540517983958125">
        <ele>269.31</ele>
        <time>2017-06-19T13:32:34Z</time>
      </trkpt>
      <trkpt lat="60.792707959190011" lon="6.541303033009172">
        <ele>270.75</ele>
        <time>2017-06-19T13:32:36Z</time>
      </trkpt>
      <trkpt lat="60.792679041624069" lon="6.54168700799346">
        <ele>271.70999999999998</ele>
        <time>2017-06-19T13:32:37Z</time>
      </trkpt>
      <trkpt lat="60.792634030804038" lon="6.54205497354269">
        <ele>272.67000000000002</ele>
        <time>2017-06-19T13:32:38Z</time>
      </trkpt>
      <trkpt lat="60.792572004720569" lon="6.542403995990753">
        <ele>273.14999999999998</ele>
        <time>2017-06-19T13:32:39Z</time>
      </trkpt>
      <trkpt lat="60.792493969202042" lon="6.542738014832139">
        <ele>274.11000000000001</ele>
        <time>2017-06-19T13:32:40Z</time>
      </trkpt>
      <trkpt lat="60.792400008067489" lon="6.543056024238467">
        <ele>274.58999999999997</ele>
        <time>2017-06-19T13:32:41Z</time>
      </trkpt>
      <trkpt lat="60.792290037497878" lon="6.543350983411074">
        <ele>275.56</ele>
        <time>2017-06-19T13:32:42Z</time>
      </trkpt>
      <trkpt lat="60.79216699115932" lon="6.543630016967654">
        <ele>276.51999999999998</ele>
        <time>2017-06-19T13:32:43Z</time>
      </trkpt>
      <trkpt lat="60.79203799366951" lon="6.543902009725571">
        <ele>277</ele>
        <time>2017-06-19T13:32:44Z</time>
      </trkpt>
      <trkpt lat="60.791518986225128" lon="6.545021999627352">
        <ele>280.36000000000001</ele>
        <time>2017-06-19T13:32:48Z</time>
      </trkpt>
      <trkpt lat="60.79036102630198" lon="6.548044010996819">
        <ele>289.49000000000001</ele>
        <time>2017-06-19T13:32:58Z</time>
      </trkpt>
      <trkpt lat="60.790190035477281" lon="6.548217013478279">
        <ele>290.94</ele>
        <time>2017-06-19T13:32:59Z</time>
      </trkpt>
      <trkpt lat="60.789713021367788" lon="6.548858983442187">
        <ele>293.81999999999999</ele>
        <time>2017-06-19T13:33:02Z</time>
      </trkpt>
      <trkpt lat="60.789490984752774" lon="6.548867030069232">
        <ele>295.25999999999999</ele>
        <time>2017-06-19T13:33:03Z</time>
      </trkpt>
      <trkpt lat="60.78797897323966" lon="6.54998098500073">
        <ele>301.99000000000001</ele>
        <time>2017-06-19T13:33:11Z</time>
      </trkpt>
      <trkpt lat="60.786035964265466" lon="6.551753003150225">
        <ele>310.16000000000003</ele>
        <time>2017-06-19T13:33:21Z</time>
      </trkpt>
      <trkpt lat="60.783777963370085" lon="6.553886029869318">
        <ele>320.25999999999999</ele>
        <time>2017-06-19T13:33:33Z</time>
      </trkpt>
      <trkpt lat="60.782783031463623" lon="6.555832978338003">
        <ele>327.47000000000003</ele>
        <time>2017-06-19T13:33:40Z</time>
      </trkpt>
      <trkpt lat="60.782679012045264" lon="6.556166997179389">
        <ele>328.43000000000001</ele>
        <time>2017-06-19T13:33:41Z</time>
      </trkpt>
      <trkpt lat="60.782594019547105" lon="6.556517025455833">
        <ele>328.91000000000003</ele>
        <time>2017-06-19T13:33:42Z</time>
      </trkpt>
      <trkpt lat="60.782536016777158" lon="6.556882979348302">
        <ele>328.91000000000003</ele>
        <time>2017-06-19T13:33:43Z</time>
      </trkpt>
      <trkpt lat="60.782523024827242" lon="6.557229990139604">
        <ele>329.38999999999999</ele>
        <time>2017-06-19T13:33:44Z</time>
      </trkpt>
      <trkpt lat="60.782536016777158" lon="6.557570965960622">
        <ele>329.38999999999999</ele>
        <time>2017-06-19T13:33:45Z</time>
      </trkpt>
      <trkpt lat="60.782565018162131" lon="6.557922000065446">
        <ele>329.38999999999999</ele>
        <time>2017-06-19T13:33:46Z</time>
      </trkpt>
      <trkpt lat="60.782611034810543" lon="6.558266999199987">
        <ele>328.91000000000003</ele>
        <time>2017-06-19T13:33:47Z</time>
      </trkpt>
      <trkpt lat="60.782664008438587" lon="6.558618033304811">
        <ele>329.38999999999999</ele>
        <time>2017-06-19T13:33:48Z</time>
      </trkpt>
      <trkpt lat="60.782730979844928" lon="6.558963032439351">
        <ele>329.38999999999999</ele>
        <time>2017-06-19T13:33:49Z</time>
      </trkpt>
      <trkpt lat="60.782809015363455" lon="6.559297973290086">
        <ele>329.38999999999999</ele>
        <time>2017-06-19T13:33:50Z</time>
      </trkpt>
      <trkpt lat="60.782904988154769" lon="6.559621011838317">
        <ele>329.38999999999999</ele>
        <time>2017-06-19T13:33:51Z</time>
      </trkpt>
      <trkpt lat="60.783006995916367" lon="6.559937009587884">
        <ele>329.38999999999999</ele>
        <time>2017-06-19T13:33:52Z</time>
      </trkpt>
      <trkpt lat="60.784069988876581" lon="6.562669007107616">
        <ele>327.94999999999999</ele>
        <time>2017-06-19T13:34:02Z</time>
      </trkpt>
      <trkpt lat="60.785128036513925" lon="6.563810035586357">
        <ele>327.94999999999999</ele>
        <time>2017-06-19T13:34:09Z</time>
      </trkpt>
      <trkpt lat="60.786916986107826" lon="6.564725004136562">
        <ele>331.31</ele>
        <time>2017-06-19T13:34:19Z</time>
      </trkpt>
      <trkpt lat="60.788008980453014" lon="6.565356999635696">
        <ele>330.82999999999998</ele>
        <time>2017-06-19T13:34:25Z</time>
      </trkpt>
      <trkpt lat="60.78817100264132" lon="6.565560009330511">
        <ele>330.82999999999998</ele>
        <time>2017-06-19T13:34:26Z</time>
      </trkpt>
      <trkpt lat="60.78832196071744" lon="6.565800989046693">
        <ele>330.35000000000002</ele>
        <time>2017-06-19T13:34:27Z</time>
      </trkpt>
      <trkpt lat="60.788456993177533" lon="6.566080022603273">
        <ele>330.35000000000002</ele>
        <time>2017-06-19T13:34:28Z</time>
      </trkpt>
      <trkpt lat="60.788583979010582" lon="6.566371964290738">
        <ele>330.35000000000002</ele>
        <time>2017-06-19T13:34:29Z</time>
      </trkpt>
      <trkpt lat="60.790277039632201" lon="6.570493010804057">
        <ele>332.75</ele>
        <time>2017-06-19T13:34:43Z</time>
      </trkpt>
      <trkpt lat="60.791442962363362" lon="6.573360040783882">
        <ele>336.12</ele>
        <time>2017-06-19T13:34:55Z</time>
      </trkpt>
      <trkpt lat="60.79274601303041" lon="6.576208965852857">
        <ele>339</ele>
        <time>2017-06-19T13:35:09Z</time>
      </trkpt>
      <trkpt lat="60.79334800131619" lon="6.577527020126581">
        <ele>338.04000000000002</ele>
        <time>2017-06-19T13:35:15Z</time>
      </trkpt>
      <trkpt lat="60.793420001864433" lon="6.577789038419724">
        <ele>338.04000000000002</ele>
        <time>2017-06-19T13:35:16Z</time>
      </trkpt>
      <trkpt lat="60.793480016291142" lon="6.57806396484375">
        <ele>338.04000000000002</ele>
        <time>2017-06-19T13:35:17Z</time>
      </trkpt>
      <trkpt lat="60.793524021282792" lon="6.57834199257195">
        <ele>338.51999999999998</ele>
        <time>2017-06-19T13:35:18Z</time>
      </trkpt>
      <trkpt lat="60.793565008789301" lon="6.578624965623021">
        <ele>338.51999999999998</ele>
        <time>2017-06-19T13:35:19Z</time>
      </trkpt>
      <trkpt lat="60.794131960719824" lon="6.580796968191862">
        <ele>339</ele>
        <time>2017-06-19T13:35:27Z</time>
      </trkpt>
      <trkpt lat="60.794655997306108" lon="6.582880960777402">
        <ele>339.95999999999998</ele>
        <time>2017-06-19T13:35:34Z</time>
      </trkpt>
      <trkpt lat="60.794752975925803" lon="6.583162005990744">
        <ele>339.95999999999998</ele>
        <time>2017-06-19T13:35:35Z</time>
      </trkpt>
      <trkpt lat="60.794860012829304" lon="6.583424024283886">
        <ele>340.44</ele>
        <time>2017-06-19T13:35:36Z</time>
      </trkpt>
      <trkpt lat="60.796302035450935" lon="6.586084021255374">
        <ele>339.48000000000002</ele>
        <time>2017-06-19T13:35:47Z</time>
      </trkpt>
      <trkpt lat="60.797093035653234" lon="6.588178994134069">
        <ele>338.51999999999998</ele>
        <time>2017-06-19T13:35:54Z</time>
      </trkpt>
      <trkpt lat="60.797582035884261" lon="6.589266965165734">
        <ele>338.04000000000002</ele>
        <time>2017-06-19T13:35:58Z</time>
      </trkpt>
      <trkpt lat="60.797681026160717" lon="6.589590003713965">
        <ele>338.04000000000002</ele>
        <time>2017-06-19T13:35:59Z</time>
      </trkpt>
      <trkpt lat="60.798390973359346" lon="6.592290988191962">
        <ele>339</ele>
        <time>2017-06-19T13:36:07Z</time>
      </trkpt>
      <trkpt lat="60.79889003187418" lon="6.596455033868551">
        <ele>340.44</ele>
        <time>2017-06-19T13:36:18Z</time>
      </trkpt>
      <trkpt lat="60.799219021573663" lon="6.599043030291796">
        <ele>338.51999999999998</ele>
        <time>2017-06-19T13:36:25Z</time>
      </trkpt>
      <trkpt lat="60.799379032105207" lon="6.602218011394143">
        <ele>338.04000000000002</ele>
        <time>2017-06-19T13:36:33Z</time>
      </trkpt>
      <trkpt lat="60.799631997942924" lon="6.608177963644266">
        <ele>338.04000000000002</ele>
        <time>2017-06-19T13:36:48Z</time>
      </trkpt>
      <trkpt lat="60.800204984843731" lon="6.611994998529553">
        <ele>337.56</ele>
        <time>2017-06-19T13:36:58Z</time>
      </trkpt>
      <trkpt lat="60.800456022843719" lon="6.613247003406286">
        <ele>338.04000000000002</ele>
        <time>2017-06-19T13:37:02Z</time>
      </trkpt>
      <trkpt lat="60.800554007291794" lon="6.613523019477725">
        <ele>337.56</ele>
        <time>2017-06-19T13:37:03Z</time>
      </trkpt>
      <trkpt lat="60.800665989518166" lon="6.613785959780216">
        <ele>337.56</ele>
        <time>2017-06-19T13:37:04Z</time>
      </trkpt>
      <trkpt lat="60.800790041685104" lon="6.614039009436965">
        <ele>337.07999999999998</ele>
        <time>2017-06-19T13:37:05Z</time>
      </trkpt>
      <trkpt lat="60.800922978669405" lon="6.614293986931443">
        <ele>336.60000000000002</ele>
        <time>2017-06-19T13:37:06Z</time>
      </trkpt>
      <trkpt lat="60.8012979850173" lon="6.615142989903688">
        <ele>336.60000000000002</ele>
        <time>2017-06-19T13:37:09Z</time>
      </trkpt>
      <trkpt lat="60.801402004435658" lon="6.6154670342803">
        <ele>336.60000000000002</ele>
        <time>2017-06-19T13:37:10Z</time>
      </trkpt>
      <trkpt lat="60.801493031904101" lon="6.615814967080951">
        <ele>336.60000000000002</ele>
        <time>2017-06-19T13:37:11Z</time>
      </trkpt>
      <trkpt lat="60.80220096744597" lon="6.618057964369655">
        <ele>338.04000000000002</ele>
        <time>2017-06-19T13:37:18Z</time>
      </trkpt>
      <trkpt lat="60.802559964358807" lon="6.618975028395653">
        <ele>336.60000000000002</ele>
        <time>2017-06-19T13:37:21Z</time>
      </trkpt>
      <trkpt lat="60.802656020969152" lon="6.619320027530193">
        <ele>336.60000000000002</ele>
        <time>2017-06-19T13:37:22Z</time>
      </trkpt>
      <trkpt lat="60.80273799598217" lon="6.619675001129508">
        <ele>336.60000000000002</ele>
        <time>2017-06-19T13:37:23Z</time>
      </trkpt>
      <trkpt lat="60.803028009831905" lon="6.621035970747471">
        <ele>336.60000000000002</ele>
        <time>2017-06-19T13:37:27Z</time>
      </trkpt>
      <trkpt lat="60.8031249884516" lon="6.62131198681891">
        <ele>336.60000000000002</ele>
        <time>2017-06-19T13:37:28Z</time>
      </trkpt>
      <trkpt lat="60.803240993991494" lon="6.621563024818897">
        <ele>336.60000000000002</ele>
        <time>2017-06-19T13:37:29Z</time>
      </trkpt>
      <trkpt lat="60.803373008966446" lon="6.621795035898686">
        <ele>336.12</ele>
        <time>2017-06-19T13:37:30Z</time>
      </trkpt>
      <trkpt lat="60.803513992577791" lon="6.622015982866287">
        <ele>336.12</ele>
        <time>2017-06-19T13:37:31Z</time>
      </trkpt>
      <trkpt lat="60.803928980603814" lon="6.622783010825515">
        <ele>336.12</ele>
        <time>2017-06-19T13:37:34Z</time>
      </trkpt>
      <trkpt lat="60.804045991972089" lon="6.623082999140024">
        <ele>336.12</ele>
        <time>2017-06-19T13:37:35Z</time>
      </trkpt>
      <trkpt lat="60.804151017218828" lon="6.623407965525985">
        <ele>336.60000000000002</ele>
        <time>2017-06-19T13:37:36Z</time>
      </trkpt>
      <trkpt lat="60.804239027202129" lon="6.623743996024132">
        <ele>336.60000000000002</ele>
        <time>2017-06-19T13:37:37Z</time>
      </trkpt>
      <trkpt lat="60.804323013871908" lon="6.624091006815434">
        <ele>337.56</ele>
        <time>2017-06-19T13:37:38Z</time>
      </trkpt>
      <trkpt lat="60.805105967447162" lon="6.626367028802633">
        <ele>337.56</ele>
        <time>2017-06-19T13:37:45Z</time>
      </trkpt>
      <trkpt lat="60.805200012400746" lon="6.626723008230329">
        <ele>337.07999999999998</ele>
        <time>2017-06-19T13:37:46Z</time>
      </trkpt>
      <trkpt lat="60.805270001292229" lon="6.627097008749843">
        <ele>337.56</ele>
        <time>2017-06-19T13:37:47Z</time>
      </trkpt>
      <trkpt lat="60.805311994627118" lon="6.627494981512427">
        <ele>338.04000000000002</ele>
        <time>2017-06-19T13:37:48Z</time>
      </trkpt>
      <trkpt lat="60.805336972698569" lon="6.627896977588534">
        <ele>338.04000000000002</ele>
        <time>2017-06-19T13:37:49Z</time>
      </trkpt>
      <trkpt lat="60.80535901710391" lon="6.628300985321403">
        <ele>338.51999999999998</ele>
        <time>2017-06-19T13:37:50Z</time>
      </trkpt>
      <trkpt lat="60.805747015401721" lon="6.630989983677864">
        <ele>339.95999999999998</ele>
        <time>2017-06-19T13:37:57Z</time>
      </trkpt>
      <trkpt lat="60.80617600120604" lon="6.632641972973943">
        <ele>336.60000000000002</ele>
        <time>2017-06-19T13:38:02Z</time>
      </trkpt>
      <trkpt lat="60.806226963177323" lon="6.633004993200302">
        <ele>335.63999999999999</ele>
        <time>2017-06-19T13:38:03Z</time>
      </trkpt>
      <trkpt lat="60.806250013411045" lon="6.633382011204958">
        <ele>335.16000000000003</ele>
        <time>2017-06-19T13:38:04Z</time>
      </trkpt>
      <trkpt lat="60.806252025067806" lon="6.633767997846007">
        <ele>335.16000000000003</ele>
        <time>2017-06-19T13:38:05Z</time>
      </trkpt>
      <trkpt lat="60.806226041167974" lon="6.634151972830296">
        <ele>335.63999999999999</ele>
        <time>2017-06-19T13:38:06Z</time>
      </trkpt>
      <trkpt lat="60.806182036176324" lon="6.634528990834951">
        <ele>335.63999999999999</ele>
        <time>2017-06-19T13:38:07Z</time>
      </trkpt>
      <trkpt lat="60.806121015921235" lon="6.63491003215313">
        <ele>336.12</ele>
        <time>2017-06-19T13:38:08Z</time>
      </trkpt>
      <trkpt lat="60.80604599788785" lon="6.63527799770236">
        <ele>336.12</ele>
        <time>2017-06-19T13:38:09Z</time>
      </trkpt>
      <trkpt lat="60.805963017046452" lon="6.635647974908352">
        <ele>336.12</ele>
        <time>2017-06-19T13:38:10Z</time>
      </trkpt>
      <trkpt lat="60.805145027115941" lon="6.637994991615415">
        <ele>337.07999999999998</ele>
        <time>2017-06-19T13:38:17Z</time>
      </trkpt>
      <trkpt lat="60.803787996992469" lon="6.640678038820624">
        <ele>337.07999999999998</ele>
        <time>2017-06-19T13:38:27Z</time>
      </trkpt>
      <trkpt lat="60.803312994539738" lon="6.642735041677952">
        <ele>337.56</ele>
        <time>2017-06-19T13:38:33Z</time>
      </trkpt>
      <trkpt lat="60.803234037011862" lon="6.644833032041788">
        <ele>337.56</ele>
        <time>2017-06-19T13:38:39Z</time>
      </trkpt>
      <trkpt lat="60.803588004782796" lon="6.647440977394581">
        <ele>337.56</ele>
        <time>2017-06-19T13:38:48Z</time>
      </trkpt>
      <trkpt lat="60.803867960348725" lon="6.650774041190743">
        <ele>337.07999999999998</ele>
        <time>2017-06-19T13:38:59Z</time>
      </trkpt>
      <trkpt lat="60.803921017795801" lon="6.652353024110198">
        <ele>335.63999999999999</ele>
        <time>2017-06-19T13:39:04Z</time>
      </trkpt>
      <trkpt lat="60.80396200530231" lon="6.652653012424707">
        <ele>335.16000000000003</ele>
        <time>2017-06-19T13:39:05Z</time>
      </trkpt>
      <trkpt lat="60.804017996415496" lon="6.652953000739217">
        <ele>334.68000000000001</ele>
        <time>2017-06-19T13:39:06Z</time>
      </trkpt>
      <trkpt lat="60.804084967821836" lon="6.653245026245713">
        <ele>334.68000000000001</ele>
        <time>2017-06-19T13:39:07Z</time>
      </trkpt>
      <trkpt lat="60.804163003340364" lon="6.653534034267068">
        <ele>334.19999999999999</ele>
        <time>2017-06-19T13:39:08Z</time>
      </trkpt>
      <trkpt lat="60.804249001666903" lon="6.653817007318139">
        <ele>333.70999999999998</ele>
        <time>2017-06-19T13:39:09Z</time>
      </trkpt>
      <trkpt lat="60.804342040792108" lon="6.65409604087472">
        <ele>333.70999999999998</ele>
        <time>2017-06-19T13:39:10Z</time>
      </trkpt>
      <trkpt lat="60.80598397180438" lon="6.659296005964279">
        <ele>336.60000000000002</ele>
        <time>2017-06-19T13:39:28Z</time>
      </trkpt>
      <trkpt lat="60.807237988337874" lon="6.664781039580703">
        <ele>333.23000000000002</ele>
        <time>2017-06-19T13:39:44Z</time>
      </trkpt>
      <trkpt lat="60.808040974661708" lon="6.669527962803841">
        <ele>334.19999999999999</ele>
        <time>2017-06-19T13:39:57Z</time>
      </trkpt>
      <trkpt lat="60.808393014594913" lon="6.673336029052734">
        <ele>336.60000000000002</ele>
        <time>2017-06-19T13:40:07Z</time>
      </trkpt>
      <trkpt lat="60.809185020625591" lon="6.675678016617894">
        <ele>331.31</ele>
        <time>2017-06-19T13:40:14Z</time>
      </trkpt>
      <trkpt lat="60.810771966353059" lon="6.679231021553278">
        <ele>328.91000000000003</ele>
        <time>2017-06-19T13:40:26Z</time>
      </trkpt>
      <trkpt lat="60.812895018607378" lon="6.682755025103688">
        <ele>318.32999999999998</ele>
        <time>2017-06-19T13:40:39Z</time>
      </trkpt>
      <trkpt lat="60.81365299411118" lon="6.684623016044498">
        <ele>315.93000000000001</ele>
        <time>2017-06-19T13:40:45Z</time>
      </trkpt>
      <trkpt lat="60.813917024061084" lon="6.685654995962977">
        <ele>317.37</ele>
        <time>2017-06-19T13:40:48Z</time>
      </trkpt>
      <trkpt lat="60.814020037651062" lon="6.685950038954616">
        <ele>317.37</ele>
        <time>2017-06-19T13:40:49Z</time>
      </trkpt>
      <trkpt lat="60.814138976857066" lon="6.686214990913868">
        <ele>317.37</ele>
        <time>2017-06-19T13:40:50Z</time>
      </trkpt>
      <trkpt lat="60.814271997660398" lon="6.686447001993656">
        <ele>317.37</ele>
        <time>2017-06-19T13:40:51Z</time>
      </trkpt>
      <trkpt lat="60.814419016242027" lon="6.686640037223697">
        <ele>316.88999999999999</ele>
        <time>2017-06-19T13:40:52Z</time>
      </trkpt>
      <trkpt lat="60.814572991803288" lon="6.68679803609848">
        <ele>316.41000000000003</ele>
        <time>2017-06-19T13:40:53Z</time>
      </trkpt>
      <trkpt lat="60.814739959314466" lon="6.686919992789626">
        <ele>315.44999999999999</ele>
        <time>2017-06-19T13:40:54Z</time>
      </trkpt>
      <trkpt lat="60.814913967624307" lon="6.68701596558094">
        <ele>314.97000000000003</ele>
        <time>2017-06-19T13:40:55Z</time>
      </trkpt>
      <trkpt lat="60.815096022561193" lon="6.687086038291454">
        <ele>314.00999999999999</ele>
        <time>2017-06-19T13:40:56Z</time>
      </trkpt>
      <trkpt lat="60.816395971924067" lon="6.688132015988231">
        <ele>310.16000000000003</ele>
        <time>2017-06-19T13:41:03Z</time>
      </trkpt>
      <trkpt lat="60.817955005913973" lon="6.689285030588508">
        <ele>309.19999999999999</ele>
        <time>2017-06-19T13:41:11Z</time>
      </trkpt>
      <trkpt lat="60.819378001615405" lon="6.689313026145101">
        <ele>306.80000000000001</ele>
        <time>2017-06-19T13:41:18Z</time>
      </trkpt>
      <trkpt lat="60.821313969790936" lon="6.688354974612594">
        <ele>301.99000000000001</ele>
        <time>2017-06-19T13:41:28Z</time>
      </trkpt>
      <trkpt lat="60.823093028739095" lon="6.688208039849997">
        <ele>302.47000000000003</ele>
        <time>2017-06-19T13:41:37Z</time>
      </trkpt>
      <trkpt lat="60.825192024931312" lon="6.6879160143435">
        <ele>300.06999999999999</ele>
        <time>2017-06-19T13:41:48Z</time>
      </trkpt>
      <trkpt lat="60.826200032606721" lon="6.687311008572578">
        <ele>298.14999999999998</ele>
        <time>2017-06-19T13:41:55Z</time>
      </trkpt>
      <trkpt lat="60.826678974553943" lon="6.68692703358829">
        <ele>297.67000000000002</ele>
        <time>2017-06-19T13:42:02Z</time>
      </trkpt>
      <trkpt lat="60.826857006177306" lon="6.686751013621688">
        <ele>296.69999999999999</ele>
        <time>2017-06-19T13:42:12Z</time>
      </trkpt>
      <trkpt lat="60.826858012005687" lon="6.686747996136546">
        <ele>296.69999999999999</ele>
        <time>2017-06-19T13:43:28Z</time>
      </trkpt>
      <trkpt lat="60.826891958713531" lon="6.686717988923192">
        <ele>296.69999999999999</ele>
        <time>2017-06-19T13:44:02Z</time>
      </trkpt>
      <trkpt lat="60.827195970341563" lon="6.686357986181974">
        <ele>293.81999999999999</ele>
        <time>2017-06-19T13:44:07Z</time>
      </trkpt>
      <trkpt lat="60.827261013910174" lon="6.686329990625382">
        <ele>292.86000000000001</ele>
        <time>2017-06-19T13:44:08Z</time>
      </trkpt>
      <trkpt lat="60.827341983094811" lon="6.686156988143921">
        <ele>292.38</ele>
        <time>2017-06-19T13:44:15Z</time>
      </trkpt>
      <trkpt lat="60.827333014458418" lon="6.68615497648716">
        <ele>292.38</ele>
        <time>2017-06-19T13:45:43Z</time>
      </trkpt>
      <trkpt lat="60.827332008630037" lon="6.686146007850766">
        <ele>292.38</ele>
        <time>2017-06-19T13:47:39Z</time>
      </trkpt>
      <trkpt lat="60.827337959781289" lon="6.686128992587328">
        <ele>291.89999999999998</ele>
        <time>2017-06-19T13:48:19Z</time>
      </trkpt>
      <trkpt lat="60.827644988894463" lon="6.685551982372999">
        <ele>289.97000000000003</ele>
        <time>2017-06-19T13:48:25Z</time>
      </trkpt>
      <trkpt lat="60.827711960300803" lon="6.685418039560318">
        <ele>289.49000000000001</ele>
        <time>2017-06-19T13:48:26Z</time>
      </trkpt>
      <trkpt lat="60.827976996079087" lon="6.684743966907263">
        <ele>287.08999999999997</ele>
        <time>2017-06-19T13:48:31Z</time>
      </trkpt>
      <trkpt lat="60.828010020777583" lon="6.68460801243782">
        <ele>286.61000000000001</ele>
        <time>2017-06-19T13:48:32Z</time>
      </trkpt>
      <trkpt lat="60.828033993020654" lon="6.684474991634488">
        <ele>286.13</ele>
        <time>2017-06-19T13:48:33Z</time>
      </trkpt>
      <trkpt lat="60.828041033819318" lon="6.684341970831156">
        <ele>285.64999999999998</ele>
        <time>2017-06-19T13:48:34Z</time>
      </trkpt>
      <trkpt lat="60.828045979142189" lon="6.684182966127992">
        <ele>285.17000000000002</ele>
        <time>2017-06-19T13:48:35Z</time>
      </trkpt>
      <trkpt lat="60.828061988577247" lon="6.684042988345027">
        <ele>284.69</ele>
        <time>2017-06-19T13:48:36Z</time>
      </trkpt>
      <trkpt lat="60.828072968870401" lon="6.683879038318992">
        <ele>284.20999999999998</ele>
        <time>2017-06-19T13:48:37Z</time>
      </trkpt>
      <trkpt lat="60.828122003003955" lon="6.683686003088951">
        <ele>283.73000000000002</ele>
        <time>2017-06-19T13:48:38Z</time>
      </trkpt>
      <trkpt lat="60.840190015733242" lon="6.695226961746812">
        <ele>80.409999999999997</ele>
        <time>2017-06-19T13:51:49Z</time>
      </trkpt>
      <trkpt lat="60.839837975800037" lon="6.695889970287681">
        <ele>81.849999999999994</ele>
        <time>2017-06-19T13:51:53Z</time>
      </trkpt>
      <trkpt lat="60.839783996343613" lon="6.696087028831244">
        <ele>81.849999999999994</ele>
        <time>2017-06-19T13:51:54Z</time>
      </trkpt>
      <trkpt lat="60.839737979695201" lon="6.696290960535407">
        <ele>81.370000000000005</ele>
        <time>2017-06-19T13:51:55Z</time>
      </trkpt>
      <trkpt lat="60.839703027158976" lon="6.696508973836899">
        <ele>81.849999999999994</ele>
        <time>2017-06-19T13:51:56Z</time>
      </trkpt>
      <trkpt lat="60.839680982753634" lon="6.696704020723701">
        <ele>80.890000000000001</ele>
        <time>2017-06-19T13:51:57Z</time>
      </trkpt>
      <trkpt lat="60.839689029380679" lon="6.696923039853573">
        <ele>81.370000000000005</ele>
        <time>2017-06-19T13:51:58Z</time>
      </trkpt>
      <trkpt lat="60.839681988582015" lon="6.697149015963078">
        <ele>81.849999999999994</ele>
        <time>2017-06-19T13:51:59Z</time>
      </trkpt>
      <trkpt lat="60.839673019945621" lon="6.69736803509295">
        <ele>81.370000000000005</ele>
        <time>2017-06-19T13:52:00Z</time>
      </trkpt>
      <trkpt lat="60.839678971096873" lon="6.697575990110636">
        <ele>80.890000000000001</ele>
        <time>2017-06-19T13:52:01Z</time>
      </trkpt>
      <trkpt lat="60.839687017723918" lon="6.697745975106955">
        <ele>80.409999999999997</ele>
        <time>2017-06-19T13:52:02Z</time>
      </trkpt>
      <trkpt lat="60.839706966653466" lon="6.697893999516964">
        <ele>80.409999999999997</ele>
        <time>2017-06-19T13:52:03Z</time>
      </trkpt>
      <trkpt lat="60.839754994958639" lon="6.698232963681221">
        <ele>78.969999999999999</ele>
        <time>2017-06-19T13:52:05Z</time>
      </trkpt>
      <trkpt lat="60.83979899995029" lon="6.698446031659842">
        <ele>78.480000000000004</ele>
        <time>2017-06-19T13:52:06Z</time>
      </trkpt>
      <trkpt lat="60.839858008548617" lon="6.698677958920598">
        <ele>78</ele>
        <time>2017-06-19T13:52:07Z</time>
      </trkpt>
      <trkpt lat="60.839931014925241" lon="6.698914999142289">
        <ele>77.519999999999996</ele>
        <time>2017-06-19T13:52:08Z</time>
      </trkpt>
      <trkpt lat="60.840019024908543" lon="6.699143992736936">
        <ele>77.040000000000006</ele>
        <time>2017-06-19T13:52:09Z</time>
      </trkpt>
      <trkpt lat="60.840119021013379" lon="6.699382960796356">
        <ele>77.040000000000006</ele>
        <time>2017-06-19T13:52:10Z</time>
      </trkpt>
      <trkpt lat="60.840227985754609" lon="6.699608014896512">
        <ele>76.560000000000002</ele>
        <time>2017-06-19T13:52:11Z</time>
      </trkpt>
      <trkpt lat="60.841224007308483" lon="6.702008005231619">
        <ele>74.640000000000001</ele>
        <time>2017-06-19T13:52:20Z</time>
      </trkpt>
      <trkpt lat="60.84199296310544" lon="6.705750022083521">
        <ele>73.200000000000003</ele>
        <time>2017-06-19T13:52:30Z</time>
      </trkpt>
      <trkpt lat="60.842787986621261" lon="6.710925009101629">
        <ele>79.450000000000003</ele>
        <time>2017-06-19T13:52:43Z</time>
      </trkpt>
      <trkpt lat="60.843726005405188" lon="6.71378499828279">
        <ele>96.75</ele>
        <time>2017-06-19T13:52:51Z</time>
      </trkpt>
      <trkpt lat="60.844478029757738" lon="6.716789994388819">
        <ele>98.189999999999998</ele>
        <time>2017-06-19T13:52:59Z</time>
      </trkpt>
      <trkpt lat="60.844667041674256" lon="6.719410009682179">
        <ele>101.08</ele>
        <time>2017-06-19T13:53:06Z</time>
      </trkpt>
      <trkpt lat="60.844325982034206" lon="6.722397990524769">
        <ele>102.52</ele>
        <time>2017-06-19T13:53:14Z</time>
      </trkpt>
      <trkpt lat="60.844224980100989" lon="6.72547398135066">
        <ele>96.75</ele>
        <time>2017-06-19T13:53:22Z</time>
      </trkpt>
      <trkpt lat="60.844627982005477" lon="6.728201033547521">
        <ele>92.420000000000002</ele>
        <time>2017-06-19T13:53:29Z</time>
      </trkpt>
      <trkpt lat="60.845434991642833" lon="6.731579024344683">
        <ele>90.019999999999996</ele>
        <time>2017-06-19T13:53:38Z</time>
      </trkpt>
      <trkpt lat="60.84560003131628" lon="6.732327025383711">
        <ele>89.060000000000002</ele>
        <time>2017-06-19T13:53:40Z</time>
      </trkpt>
      <trkpt lat="60.845703966915607" lon="6.732664983719587">
        <ele>88.579999999999998</ele>
        <time>2017-06-19T13:53:41Z</time>
      </trkpt>
      <trkpt lat="60.845821984112263" lon="6.73299103975296">
        <ele>88.579999999999998</ele>
        <time>2017-06-19T13:53:42Z</time>
      </trkpt>
      <trkpt lat="60.845947964116931" lon="6.73329396173358">
        <ele>87.620000000000005</ele>
        <time>2017-06-19T13:53:43Z</time>
      </trkpt>
      <trkpt lat="60.846084002405405" lon="6.733597973361611">
        <ele>87.140000000000001</ele>
        <time>2017-06-19T13:53:44Z</time>
      </trkpt>
      <trkpt lat="60.847375988960266" lon="6.736687961965799">
        <ele>81.849999999999994</ele>
        <time>2017-06-19T13:53:54Z</time>
      </trkpt>
      <trkpt lat="60.848405035212636" lon="6.740163015201688">
        <ele>79.930000000000007</ele>
        <time>2017-06-19T13:54:04Z</time>
      </trkpt>
      <trkpt lat="60.850149979814887" lon="6.744560999795795">
        <ele>76.079999999999998</ele>
        <time>2017-06-19T13:54:18Z</time>
      </trkpt>
      <trkpt lat="60.850856993347406" lon="6.746986974030733">
        <ele>75.120000000000005</ele>
        <time>2017-06-19T13:54:25Z</time>
      </trkpt>
      <trkpt lat="60.850980039685965" lon="6.747310012578964">
        <ele>74.640000000000001</ele>
        <time>2017-06-19T13:54:26Z</time>
      </trkpt>
      <trkpt lat="60.851116999983788" lon="6.74760103225708">
        <ele>74.640000000000001</ele>
        <time>2017-06-19T13:54:27Z</time>
      </trkpt>
      <trkpt lat="60.851264018565416" lon="6.747875958681107">
        <ele>74.640000000000001</ele>
        <time>2017-06-19T13:54:28Z</time>
      </trkpt>
      <trkpt lat="60.852675028145313" lon="6.750276032835245">
        <ele>72.239999999999995</ele>
        <time>2017-06-19T13:54:37Z</time>
      </trkpt>
      <trkpt lat="60.853843968361616" lon="6.753824008628726">
        <ele>69.829999999999998</ele>
        <time>2017-06-19T13:54:47Z</time>
      </trkpt>
      <trkpt lat="60.854949038475752" lon="6.756384009495378">
        <ele>69.349999999999994</ele>
        <time>2017-06-19T13:54:55Z</time>
      </trkpt>
      <trkpt lat="60.85632199421525" lon="6.758700013160706">
        <ele>67.909999999999997</ele>
        <time>2017-06-19T13:55:04Z</time>
      </trkpt>
      <trkpt lat="60.857179965823889" lon="6.761576011776924">
        <ele>66.469999999999999</ele>
        <time>2017-06-19T13:55:12Z</time>
      </trkpt>
      <trkpt lat="60.857551032677293" lon="6.763302013278008">
        <ele>64.549999999999997</ele>
        <time>2017-06-19T13:55:17Z</time>
      </trkpt>
      <trkpt lat="60.857585985213518" lon="6.763685988262296">
        <ele>64.549999999999997</ele>
        <time>2017-06-19T13:55:18Z</time>
      </trkpt>
      <trkpt lat="60.857604006305337" lon="6.764078009873629">
        <ele>64.069999999999993</ele>
        <time>2017-06-19T13:55:19Z</time>
      </trkpt>
      <trkpt lat="60.857594031840563" lon="6.764868004247546">
        <ele>63.579999999999998</ele>
        <time>2017-06-19T13:55:21Z</time>
      </trkpt>
      <trkpt lat="60.857164962217212" lon="6.767653981223702">
        <ele>63.100000000000001</ele>
        <time>2017-06-19T13:55:28Z</time>
      </trkpt>
      <trkpt lat="60.856973016634583" lon="6.768901962786913">
        <ele>64.549999999999997</ele>
        <time>2017-06-19T13:55:31Z</time>
      </trkpt>
      <trkpt lat="60.856945021077991" lon="6.769330026581883">
        <ele>64.549999999999997</ele>
        <time>2017-06-19T13:55:32Z</time>
      </trkpt>
      <trkpt lat="60.856942003592849" lon="6.769765969365835">
        <ele>64.549999999999997</ele>
        <time>2017-06-19T13:55:33Z</time>
      </trkpt>
      <trkpt lat="60.856949966400862" lon="6.770200990140438">
        <ele>65.030000000000001</ele>
        <time>2017-06-19T13:55:34Z</time>
      </trkpt>
      <trkpt lat="60.856969999149442" lon="6.770640034228563">
        <ele>65.030000000000001</ele>
        <time>2017-06-19T13:55:35Z</time>
      </trkpt>
      <trkpt lat="60.856977039948106" lon="6.772819999605417">
        <ele>64.069999999999993</ele>
        <time>2017-06-19T13:55:40Z</time>
      </trkpt>
      <trkpt lat="60.856926999986172" lon="6.773249991238117">
        <ele>64.069999999999993</ele>
        <time>2017-06-19T13:55:41Z</time>
      </trkpt>
      <trkpt lat="60.856860028579831" lon="6.773674031719565">
        <ele>64.069999999999993</ele>
        <time>2017-06-19T13:55:42Z</time>
      </trkpt>
      <trkpt lat="60.856336997821927" lon="6.77697298116982">
        <ele>62.140000000000001</ele>
        <time>2017-06-19T13:55:50Z</time>
      </trkpt>
      <trkpt lat="60.856420984491706" lon="6.779472967609763">
        <ele>62.140000000000001</ele>
        <time>2017-06-19T13:55:56Z</time>
      </trkpt>
      <trkpt lat="60.857032025232911" lon="6.782718021422625">
        <ele>60.219999999999999</ele>
        <time>2017-06-19T13:56:04Z</time>
      </trkpt>
      <trkpt lat="60.857726968824863" lon="6.785804992541671">
        <ele>61.18</ele>
        <time>2017-06-19T13:56:12Z</time>
      </trkpt>
      <trkpt lat="60.857766028493643" lon="6.786209000274539">
        <ele>61.18</ele>
        <time>2017-06-19T13:56:13Z</time>
      </trkpt>
      <trkpt lat="60.857787989079952" lon="6.78662097081542">
        <ele>61.659999999999997</ele>
        <time>2017-06-19T13:56:14Z</time>
      </trkpt>
      <trkpt lat="60.857797963544726" lon="6.787049034610391">
        <ele>62.140000000000001</ele>
        <time>2017-06-19T13:56:15Z</time>
      </trkpt>
      <trkpt lat="60.857792012393475" lon="6.787468967959285">
        <ele>62.140000000000001</ele>
        <time>2017-06-19T13:56:16Z</time>
      </trkpt>
      <trkpt lat="60.85778103210032" lon="6.787899965420365">
        <ele>62.140000000000001</ele>
        <time>2017-06-19T13:56:17Z</time>
      </trkpt>
      <trkpt lat="60.857777008786798" lon="6.789581961929798">
        <ele>60.700000000000003</ele>
        <time>2017-06-19T13:56:21Z</time>
      </trkpt>
      <trkpt lat="60.857819002121687" lon="6.789977001026273">
        <ele>60.219999999999999</ele>
        <time>2017-06-19T13:56:22Z</time>
      </trkpt>
      <trkpt lat="60.857881028205156" lon="6.790371034294367">
        <ele>60.219999999999999</ele>
        <time>2017-06-19T13:56:23Z</time>
      </trkpt>
      <trkpt lat="60.857959985733032" lon="6.790751991793513">
        <ele>60.219999999999999</ele>
        <time>2017-06-19T13:56:24Z</time>
      </trkpt>
      <trkpt lat="60.858055958524346" lon="6.791120041161776">
        <ele>60.700000000000003</ele>
        <time>2017-06-19T13:56:25Z</time>
      </trkpt>
      <trkpt lat="60.858166012912989" lon="6.791480965912342">
        <ele>60.700000000000003</ele>
        <time>2017-06-19T13:56:26Z</time>
      </trkpt>
      <trkpt lat="60.858288975432515" lon="6.791834011673927">
        <ele>61.18</ele>
        <time>2017-06-19T13:56:27Z</time>
      </trkpt>
      <trkpt lat="60.85890001617372" lon="6.794519992545247">
        <ele>60.219999999999999</ele>
        <time>2017-06-19T13:56:34Z</time>
      </trkpt>
      <trkpt lat="60.859439978376031" lon="6.797824976965785">
        <ele>59.259999999999998</ele>
        <time>2017-06-19T13:56:42Z</time>
      </trkpt>
      <trkpt lat="60.859953034669161" lon="6.800994006916881">
        <ele>58.780000000000001</ele>
        <time>2017-06-19T13:56:50Z</time>
      </trkpt>
      <trkpt lat="60.860538007691503" lon="6.805988028645515">
        <ele>57.82</ele>
        <time>2017-06-19T13:57:02Z</time>
      </trkpt>
      <trkpt lat="60.861546015366912" lon="6.809864994138479">
        <ele>51.57</ele>
        <time>2017-06-19T13:57:12Z</time>
      </trkpt>
      <trkpt lat="60.862945960834622" lon="6.815937012434006">
        <ele>39.07</ele>
        <time>2017-06-19T13:57:27Z</time>
      </trkpt>
      <trkpt lat="60.863861013203859" lon="6.818929016590118">
        <ele>34.740000000000002</ele>
        <time>2017-06-19T13:57:35Z</time>
      </trkpt>
      <trkpt lat="60.864950995892286" lon="6.820467012003064">
        <ele>31.379999999999999</ele>
        <time>2017-06-19T13:57:41Z</time>
      </trkpt>
      <trkpt lat="60.866458984091878" lon="6.821302017197013">
        <ele>27.050000000000001</ele>
        <time>2017-06-19T13:57:48Z</time>
      </trkpt>
      <trkpt lat="60.867671007290483" lon="6.822481015697122">
        <ele>24.170000000000002</ele>
        <time>2017-06-19T13:57:54Z</time>
      </trkpt>
      <trkpt lat="60.868531996384263" lon="6.82449895888567">
        <ele>20.809999999999999</ele>
        <time>2017-06-19T13:58:00Z</time>
      </trkpt>
      <trkpt lat="60.86942701600492" lon="6.826734999194741">
        <ele>18.399999999999999</ele>
        <time>2017-06-19T13:58:07Z</time>
      </trkpt>
      <trkpt lat="60.87058799341321" lon="6.827945010736585">
        <ele>16.48</ele>
        <time>2017-06-19T13:58:13Z</time>
      </trkpt>
      <trkpt lat="60.873452005907893" lon="6.830860991030932">
        <ele>15.039999999999999</ele>
        <time>2017-06-19T13:58:28Z</time>
      </trkpt>
      <trkpt lat="60.875956015661359" lon="6.834105961024761">
        <ele>15.52</ele>
        <time>2017-06-19T13:58:42Z</time>
      </trkpt>
      <trkpt lat="60.876865033060312" lon="6.836478039622307">
        <ele>18.399999999999999</ele>
        <time>2017-06-19T13:58:49Z</time>
      </trkpt>
      <trkpt lat="60.877919979393482" lon="6.839242978021503">
        <ele>17.920000000000002</ele>
        <time>2017-06-19T13:58:58Z</time>
      </trkpt>
      <trkpt lat="60.878348965197802" lon="6.841632993891835">
        <ele>16.960000000000001</ele>
        <time>2017-06-19T13:59:05Z</time>
      </trkpt>
      <trkpt lat="60.878663035109639" lon="6.842964962124825">
        <ele>16</ele>
        <time>2017-06-19T13:59:12Z</time>
      </trkpt>
      <trkpt lat="60.878747021779418" lon="6.843223962932825">
        <ele>15.52</ele>
        <time>2017-06-19T13:59:15Z</time>
      </trkpt>
      <trkpt lat="60.878794966265559" lon="6.843265034258366">
        <ele>15.52</ele>
        <time>2017-06-19T13:59:16Z</time>
      </trkpt>
      <trkpt lat="60.87883997708559" lon="6.843279032036662">
        <ele>15.52</ele>
        <time>2017-06-19T13:59:17Z</time>
      </trkpt>
      <trkpt lat="60.878948019817472" lon="6.843309961259365">
        <ele>15.039999999999999</ele>
        <time>2017-06-19T13:59:20Z</time>
      </trkpt>
      <trkpt lat="60.878986995667219" lon="6.843381961807609">
        <ele>15.039999999999999</ele>
        <time>2017-06-19T13:59:21Z</time>
      </trkpt>
      <trkpt lat="60.879003005102277" lon="6.843422027304769">
        <ele>15.039999999999999</ele>
        <time>2017-06-19T13:59:22Z</time>
      </trkpt>
      <trkpt lat="60.879219006747007" lon="6.843741964548826">
        <ele>15.039999999999999</ele>
        <time>2017-06-19T13:59:34Z</time>
      </trkpt>
      <trkpt lat="60.879234010353684" lon="6.843759985640645">
        <ele>15.039999999999999</ele>
        <time>2017-06-19T13:59:49Z</time>
      </trkpt>
      <trkpt lat="60.879307016730309" lon="6.843626964837313">
        <ele>15.52</ele>
        <time>2017-06-19T14:00:04Z</time>
      </trkpt>
      <trkpt lat="60.879394020885229" lon="6.843530992045999">
        <ele>16.48</ele>
        <time>2017-06-19T14:00:37Z</time>
      </trkpt>
      <trkpt lat="60.879464009776711" lon="6.843421021476388">
        <ele>16.960000000000001</ele>
        <time>2017-06-19T14:00:49Z</time>
      </trkpt>
      <trkpt lat="60.879575992003083" lon="6.843266962096095">
        <ele>17.440000000000001</ele>
        <time>2017-06-19T14:01:04Z</time>
      </trkpt>
      <trkpt lat="60.879569035023451" lon="6.843295963481069">
        <ele>18.399999999999999</ele>
        <time>2017-06-19T14:01:17Z</time>
      </trkpt>
      <trkpt lat="60.879582026973367" lon="6.843192027881742">
        <ele>18.879999999999999</ele>
        <time>2017-06-19T14:01:31Z</time>
      </trkpt>
      <trkpt lat="60.879429979249835" lon="6.843461003154516">
        <ele>18.879999999999999</ele>
        <time>2017-06-19T14:01:52Z</time>
      </trkpt>
      <trkpt lat="60.885323965921998" lon="6.808711979538202">
        <ele>15.52</ele>
        <time>2017-06-19T14:03:24Z</time>
      </trkpt>
      <trkpt lat="60.885334024205804" lon="6.808436969295144">
        <ele>16</ele>
        <time>2017-06-19T14:03:27Z</time>
      </trkpt>
      <trkpt lat="60.885310973972082" lon="6.808556998148561">
        <ele>16.960000000000001</ele>
        <time>2017-06-19T14:03:31Z</time>
      </trkpt>
      <trkpt lat="60.885248025879264" lon="6.808803007006645">
        <ele>17.440000000000001</ele>
        <time>2017-06-19T14:03:43Z</time>
      </trkpt>
      <trkpt lat="60.885220030322671" lon="6.809012973681092">
        <ele>17.440000000000001</ele>
        <time>2017-06-19T14:03:51Z</time>
      </trkpt>
      <trkpt lat="60.885021965950727" lon="6.809914028272033">
        <ele>17.440000000000001</ele>
        <time>2017-06-19T14:04:04Z</time>
      </trkpt>
      <trkpt lat="60.885001011192799" lon="6.810014024376869">
        <ele>17.440000000000001</ele>
        <time>2017-06-19T14:04:05Z</time>
      </trkpt>
      <trkpt lat="60.884934039786458" lon="6.810098011046648">
        <ele>17.440000000000001</ele>
        <time>2017-06-19T14:04:10Z</time>
      </trkpt>
      <trkpt lat="60.87963399477303" lon="6.843336028978229">
        <ele>10.23</ele>
        <time>2017-06-19T14:05:09Z</time>
      </trkpt>
      <trkpt lat="60.88051300495863" lon="6.841572979465127">
        <ele>14.56</ele>
        <time>2017-06-19T14:05:21Z</time>
      </trkpt>
      <trkpt lat="60.881322026252747" lon="6.848659040406346">
        <ele>612.98000000000002</ele>
        <time>2017-06-19T14:07:50Z</time>
      </trkpt>
      <trkpt lat="60.878471005707979" lon="6.85133202932775">
        <ele>161.63999999999999</ele>
        <time>2017-06-19T14:08:47Z</time>
      </trkpt>
      <trkpt lat="60.877503985539079" lon="6.855117967352271">
        <ele>40.990000000000002</ele>
        <time>2017-06-19T14:09:04Z</time>
      </trkpt>
      <trkpt lat="60.87750700302422" lon="6.855231039226055">
        <ele>40.990000000000002</ele>
        <time>2017-06-19T14:09:17Z</time>
      </trkpt>
      <trkpt lat="60.877545978873968" lon="6.85532801784575">
        <ele>41.469999999999999</ele>
        <time>2017-06-19T14:09:32Z</time>
      </trkpt>
      <trkpt lat="60.877588978037238" lon="6.855418961495161">
        <ele>41.469999999999999</ele>
        <time>2017-06-19T14:09:49Z</time>
      </trkpt>
      <trkpt lat="60.877616973593831" lon="6.855539996176958">
        <ele>42.439999999999998</ele>
        <time>2017-06-19T14:10:09Z</time>
      </trkpt>
      <trkpt lat="60.877632983028889" lon="6.855550976470113">
        <ele>42.439999999999998</ele>
        <time>2017-06-19T14:10:12Z</time>
      </trkpt>
      <trkpt lat="60.877668019384146" lon="6.85558701865375">
        <ele>42.920000000000002</ele>
        <time>2017-06-19T14:10:17Z</time>
      </trkpt>
      <trkpt lat="60.87746400386095" lon="6.855983985587955">
        <ele>42.920000000000002</ele>
        <time>2017-06-19T14:10:21Z</time>
      </trkpt>
      <trkpt lat="60.87761202827096" lon="6.856174003332853">
        <ele>44.840000000000003</ele>
        <time>2017-06-19T14:10:27Z</time>
      </trkpt>
      <trkpt lat="60.879470966756344" lon="6.844079000875354">
        <ele>55.890000000000001</ele>
        <time>2017-06-19T14:10:36Z</time>
      </trkpt>
      <trkpt lat="60.879294024780393" lon="6.84366300702095">
        <ele>45.32</ele>
        <time>2017-06-19T14:10:45Z</time>
      </trkpt>
      <trkpt lat="60.879301987588406" lon="6.843638028949499">
        <ele>45.32</ele>
        <time>2017-06-19T14:10:51Z</time>
      </trkpt>
      <trkpt lat="60.878984984010458" lon="6.843310967087746">
        <ele>43.399999999999999</ele>
        <time>2017-06-19T14:11:00Z</time>
      </trkpt>
      <trkpt lat="60.878937039524317" lon="6.843393025919795">
        <ele>44.359999999999999</ele>
        <time>2017-06-19T14:11:03Z</time>
      </trkpt>
      <trkpt lat="60.878936033695936" lon="6.843518000096083">
        <ele>44.359999999999999</ele>
        <time>2017-06-19T14:11:04Z</time>
      </trkpt>
      <trkpt lat="60.878910971805453" lon="6.843616990372539">
        <ele>44.359999999999999</ele>
        <time>2017-06-19T14:11:05Z</time>
      </trkpt>
      <trkpt lat="60.878952965140343" lon="6.84376903809607">
        <ele>43.880000000000003</ele>
        <time>2017-06-19T14:11:06Z</time>
      </trkpt>
      <trkpt lat="60.878983978182077" lon="6.84389996342361">
        <ele>43.880000000000003</ele>
        <time>2017-06-19T14:11:07Z</time>
      </trkpt>
      <trkpt lat="60.879406007006764" lon="6.84538003988564">
        <ele>41.469999999999999</ele>
        <time>2017-06-19T14:11:15Z</time>
      </trkpt>
      <trkpt lat="60.89325500652194" lon="7.055448973551393">
        <ele>245.75</ele>
        <time>2017-06-19T14:21:46Z</time>
      </trkpt>
      <trkpt lat="60.894268965348601" lon="7.056050039827824">
        <ele>87.140000000000001</ele>
        <time>2017-06-19T14:21:55Z</time>
      </trkpt>
      <trkpt lat="60.896220020949841" lon="7.056995015591383">
        <ele>90.980000000000004</ele>
        <time>2017-06-19T14:22:05Z</time>
      </trkpt>
      <trkpt lat="60.898255985230207" lon="7.057051006704569">
        <ele>96.75</ele>
        <time>2017-06-19T14:22:15Z</time>
      </trkpt>
      <trkpt lat="60.898407027125359" lon="7.057137005031109">
        <ele>95.310000000000002</ele>
        <time>2017-06-19T14:22:16Z</time>
      </trkpt>
      <trkpt lat="60.89858204126358" lon="7.057177992537618">
        <ele>94.829999999999998</ele>
        <time>2017-06-19T14:22:17Z</time>
      </trkpt>
      <trkpt lat="60.898703997954726" lon="7.057441016659141">
        <ele>96.269999999999996</ele>
        <time>2017-06-19T14:22:18Z</time>
      </trkpt>
      <trkpt lat="60.898829977959394" lon="7.057590968906879">
        <ele>95.310000000000002</ele>
        <time>2017-06-19T14:22:19Z</time>
      </trkpt>
      <trkpt lat="60.898956963792443" lon="7.057767994701862">
        <ele>93.870000000000005</ele>
        <time>2017-06-19T14:22:20Z</time>
      </trkpt>
      <trkpt lat="60.899060983210802" lon="7.058011991903186">
        <ele>92.900000000000006</ele>
        <time>2017-06-19T14:22:21Z</time>
      </trkpt>
      <trkpt lat="60.899158967658877" lon="7.058265963569284">
        <ele>91.459999999999994</ele>
        <time>2017-06-19T14:22:22Z</time>
      </trkpt>
      <trkpt lat="60.865780971944332" lon="7.111978037282825">
        <ele>35.710000000000001</ele>
        <time>2017-06-19T14:26:23Z</time>
      </trkpt>
      <trkpt lat="60.865162974223495" lon="7.109288033097982">
        <ele>21.289999999999999</ele>
        <time>2017-06-19T14:26:32Z</time>
      </trkpt>
      <trkpt lat="60.864181034266949" lon="7.106864992529154">
        <ele>12.630000000000001</ele>
        <time>2017-06-19T14:26:42Z</time>
      </trkpt>
      <trkpt lat="60.862945038825274" lon="7.105079982429743">
        <ele>1.1</ele>
        <time>2017-06-19T14:26:52Z</time>
      </trkpt>
      <trkpt lat="60.861940970644355" lon="7.104586036875844">
        <ele>-8.51</ele>
        <time>2017-06-19T14:26:59Z</time>
      </trkpt>
      <trkpt lat="60.861330013722181" lon="7.104708999395371">
        <ele>-17.170000000000002</ele>
        <time>2017-06-19T14:27:06Z</time>
      </trkpt>
      <trkpt lat="60.860486039891839" lon="7.105364967137575">
        <ele>-21.489999999999998</ele>
        <time>2017-06-19T14:27:13Z</time>
      </trkpt>
      <trkpt lat="60.859677018597722" lon="7.10685501806438">
        <ele>-18.129999999999999</ele>
        <time>2017-06-19T14:27:20Z</time>
      </trkpt>
      <trkpt lat="60.863547027111053" lon="7.128100041300058">
        <ele>8.310000000000001</ele>
        <time>2017-06-19T14:28:41Z</time>
      </trkpt>
      <trkpt lat="60.864331992343068" lon="7.129916986450553">
        <ele>7.83</ele>
        <time>2017-06-19T14:28:48Z</time>
      </trkpt>
      <trkpt lat="60.864885030314326" lon="7.132777981460095">
        <ele>16.960000000000001</ele>
        <time>2017-06-19T14:28:56Z</time>
      </trkpt>
      <trkpt lat="60.865374030545354" lon="7.137089967727661">
        <ele>17.440000000000001</ele>
        <time>2017-06-19T14:29:07Z</time>
      </trkpt>
      <trkpt lat="60.865835035219789" lon="7.139348974451423">
        <ele>19.84</ele>
        <time>2017-06-19T14:29:13Z</time>
      </trkpt>
      <trkpt lat="60.86684899404645" lon="7.141506979241967">
        <ele>20.32</ele>
        <time>2017-06-19T14:29:20Z</time>
      </trkpt>
      <trkpt lat="60.867395997047424" lon="7.14224198833108">
        <ele>21.77</ele>
        <time>2017-06-19T14:29:23Z</time>
      </trkpt>
      <trkpt lat="60.867602024227381" lon="7.142428988590837">
        <ele>21.77</ele>
        <time>2017-06-19T14:29:24Z</time>
      </trkpt>
      <trkpt lat="60.867814002558589" lon="7.142583969980478">
        <ele>21.77</ele>
        <time>2017-06-19T14:29:25Z</time>
      </trkpt>
      <trkpt lat="60.868033021688461" lon="7.142706010490656">
        <ele>21.289999999999999</ele>
        <time>2017-06-19T14:29:26Z</time>
      </trkpt>
      <trkpt lat="60.868258997797966" lon="7.142793014645577">
        <ele>21.289999999999999</ele>
        <time>2017-06-19T14:29:27Z</time>
      </trkpt>
      <trkpt lat="60.868491008877754" lon="7.142849005758762">
        <ele>20.809999999999999</ele>
        <time>2017-06-19T14:29:28Z</time>
      </trkpt>
      <trkpt lat="60.868725031614304" lon="7.142879012972117">
        <ele>20.809999999999999</ele>
        <time>2017-06-19T14:29:29Z</time>
      </trkpt>
      <trkpt lat="60.868963999673724" lon="7.14288798160851">
        <ele>20.809999999999999</ele>
        <time>2017-06-19T14:29:30Z</time>
      </trkpt>
      <trkpt lat="60.87084699422121" lon="7.142826039344072">
        <ele>21.77</ele>
        <time>2017-06-19T14:29:38Z</time>
      </trkpt>
      <trkpt lat="60.871073976159096" lon="7.142890999093652">
        <ele>21.77</ele>
        <time>2017-06-19T14:29:39Z</time>
      </trkpt>
      <trkpt lat="60.871298024430871" lon="7.142990995198488">
        <ele>21.77</ele>
        <time>2017-06-19T14:29:40Z</time>
      </trkpt>
      <trkpt lat="60.871517965570092" lon="7.14314597658813">
        <ele>21.77</ele>
        <time>2017-06-19T14:29:41Z</time>
      </trkpt>
      <trkpt lat="60.871724998578429" lon="7.143348986282945">
        <ele>21.77</ele>
        <time>2017-06-19T14:29:42Z</time>
      </trkpt>
      <trkpt lat="60.871929014101624" lon="7.143564987927675">
        <ele>21.77</ele>
        <time>2017-06-19T14:29:43Z</time>
      </trkpt>
      <trkpt lat="60.87254298850894" lon="7.144180973991752">
        <ele>23.210000000000001</ele>
        <time>2017-06-19T14:29:46Z</time>
      </trkpt>
      <trkpt lat="60.872759995982051" lon="7.144310977309942">
        <ele>23.690000000000001</ele>
        <time>2017-06-19T14:29:47Z</time>
      </trkpt>
      <trkpt lat="60.872982032597065" lon="7.14439001865685">
        <ele>24.170000000000002</ele>
        <time>2017-06-19T14:29:48Z</time>
      </trkpt>
      <trkpt lat="60.87320800870657" lon="7.144439974799752">
        <ele>24.649999999999999</ele>
        <time>2017-06-19T14:29:49Z</time>
      </trkpt>
      <trkpt lat="60.873437002301216" lon="7.144460007548332">
        <ele>25.609999999999999</ele>
        <time>2017-06-19T14:29:50Z</time>
      </trkpt>
      <trkpt lat="60.873665995895863" lon="7.144464030861855">
        <ele>26.09</ele>
        <time>2017-06-19T14:29:51Z</time>
      </trkpt>
      <trkpt lat="60.875021014362574" lon="7.144484985619783">
        <ele>28.5</ele>
        <time>2017-06-19T14:29:57Z</time>
      </trkpt>
      <trkpt lat="60.875633982941508" lon="7.144739963114262">
        <ele>30.420000000000002</ele>
        <time>2017-06-19T14:30:00Z</time>
      </trkpt>
      <trkpt lat="60.875826012343168" lon="7.144894022494555">
        <ele>30.899999999999999</ele>
        <time>2017-06-19T14:30:01Z</time>
      </trkpt>
      <trkpt lat="60.876008989289403" lon="7.145088985562325">
        <ele>31.379999999999999</ele>
        <time>2017-06-19T14:30:02Z</time>
      </trkpt>
      <trkpt lat="60.876181991770864" lon="7.14531403966248">
        <ele>31.859999999999999</ele>
        <time>2017-06-19T14:30:03Z</time>
      </trkpt>
      <trkpt lat="60.876336973160505" lon="7.145573040470481">
        <ele>32.340000000000003</ele>
        <time>2017-06-19T14:30:04Z</time>
      </trkpt>
      <trkpt lat="60.876484997570515" lon="7.145860036835074">
        <ele>33.299999999999997</ele>
        <time>2017-06-19T14:30:05Z</time>
      </trkpt>
      <trkpt lat="60.876622963696718" lon="7.1461730170995">
        <ele>33.780000000000001</ele>
        <time>2017-06-19T14:30:06Z</time>
      </trkpt>
      <trkpt lat="60.876739975064993" lon="7.146513992920518">
        <ele>34.259999999999998</ele>
        <time>2017-06-19T14:30:07Z</time>
      </trkpt>
      <trkpt lat="60.876833014190197" lon="7.146886987611651">
        <ele>34.740000000000002</ele>
        <time>2017-06-19T14:30:08Z</time>
      </trkpt>
      <trkpt lat="60.876915995031595" lon="7.147284038364887">
        <ele>35.710000000000001</ele>
        <time>2017-06-19T14:30:09Z</time>
      </trkpt>
      <trkpt lat="60.876980032771826" lon="7.147705983370543">
        <ele>36.189999999999998</ele>
        <time>2017-06-19T14:30:10Z</time>
      </trkpt>
      <trkpt lat="60.877341963350773" lon="7.149653015658259">
        <ele>37.149999999999999</ele>
        <time>2017-06-19T14:30:15Z</time>
      </trkpt>
      <trkpt lat="60.877457968890667" lon="7.150011006742716">
        <ele>37.149999999999999</ele>
        <time>2017-06-19T14:30:16Z</time>
      </trkpt>
      <trkpt lat="60.877587972208858" lon="7.150347959250212">
        <ele>37.149999999999999</ele>
        <time>2017-06-19T14:30:17Z</time>
      </trkpt>
      <trkpt lat="60.877729961648583" lon="7.150648031383753">
        <ele>37.149999999999999</ele>
        <time>2017-06-19T14:30:18Z</time>
      </trkpt>
      <trkpt lat="60.877877986058593" lon="7.150905020534992">
        <ele>36.670000000000002</ele>
        <time>2017-06-19T14:30:19Z</time>
      </trkpt>
      <trkpt lat="60.878836959600449" lon="7.152370009571314">
        <ele>36.189999999999998</ele>
        <time>2017-06-19T14:30:26Z</time>
      </trkpt>
      <trkpt lat="60.879917973652482" lon="7.153230998665094">
        <ele>35.229999999999997</ele>
        <time>2017-06-19T14:30:34Z</time>
      </trkpt>
      <trkpt lat="60.88120099157095" lon="7.154376972466707">
        <ele>33.780000000000001</ele>
        <time>2017-06-19T14:30:42Z</time>
      </trkpt>
      <trkpt lat="60.881687980145216" lon="7.154915006831288">
        <ele>33.299999999999997</ele>
        <time>2017-06-19T14:30:45Z</time>
      </trkpt>
      <trkpt lat="60.882059969007969" lon="7.155122961848974">
        <ele>33.299999999999997</ele>
        <time>2017-06-19T14:30:47Z</time>
      </trkpt>
      <trkpt lat="60.882255015894771" lon="7.155184987932444">
        <ele>33.299999999999997</ele>
        <time>2017-06-19T14:30:48Z</time>
      </trkpt>
      <trkpt lat="60.883194040507078" lon="7.155120028182864">
        <ele>32.340000000000003</ele>
        <time>2017-06-19T14:30:53Z</time>
      </trkpt>
      <trkpt lat="60.885022971779108" lon="7.155009973794222">
        <ele>30.420000000000002</ele>
        <time>2017-06-19T14:31:03Z</time>
      </trkpt>
      <trkpt lat="60.886515034362674" lon="7.155803991481662">
        <ele>29.940000000000001</ele>
        <time>2017-06-19T14:31:11Z</time>
      </trkpt>
      <trkpt lat="60.887729991227388" lon="7.156622987240553">
        <ele>29.460000000000001</ele>
        <time>2017-06-19T14:31:18Z</time>
      </trkpt>
      <trkpt lat="60.889045028015971" lon="7.156416960060597">
        <ele>29.460000000000001</ele>
        <time>2017-06-19T14:31:25Z</time>
      </trkpt>
      <trkpt lat="60.889621032401919" lon="7.156369015574455">
        <ele>28.98</ele>
        <time>2017-06-19T14:31:28Z</time>
      </trkpt>
      <trkpt lat="60.889818007126451" lon="7.156388964504004">
        <ele>28.98</ele>
        <time>2017-06-19T14:31:29Z</time>
      </trkpt>
      <trkpt lat="60.890004001557827" lon="7.156467000022531">
        <ele>28.98</ele>
        <time>2017-06-19T14:31:30Z</time>
      </trkpt>
      <trkpt lat="60.89018396101892" lon="7.15659499168396">
        <ele>28.98</ele>
        <time>2017-06-19T14:31:31Z</time>
      </trkpt>
      <trkpt lat="60.89035402983427" lon="7.156756008043885">
        <ele>29.460000000000001</ele>
        <time>2017-06-19T14:31:32Z</time>
      </trkpt>
      <trkpt lat="60.890512028709054" lon="7.156957006081939">
        <ele>28.98</ele>
        <time>2017-06-19T14:31:33Z</time>
      </trkpt>
      <trkpt lat="60.890648989006877" lon="7.157191028818488">
        <ele>28.98</ele>
        <time>2017-06-19T14:31:34Z</time>
      </trkpt>
      <trkpt lat="60.890781003981829" lon="7.157465033233166">
        <ele>28.98</ele>
        <time>2017-06-19T14:31:35Z</time>
      </trkpt>
      <trkpt lat="60.890911007300019" lon="7.157735014334321">
        <ele>28.98</ele>
        <time>2017-06-19T14:31:36Z</time>
      </trkpt>
      <trkpt lat="60.892356969416142" lon="7.16112800873816">
        <ele>28.98</ele>
        <time>2017-06-19T14:31:48Z</time>
      </trkpt>
      <trkpt lat="60.893531022593379" lon="7.163069006055594">
        <ele>29.940000000000001</ele>
        <time>2017-06-19T14:31:57Z</time>
      </trkpt>
      <trkpt lat="60.893979035317898" lon="7.164026973769069">
        <ele>28.98</ele>
        <time>2017-06-19T14:32:01Z</time>
      </trkpt>
      <trkpt lat="60.894109960645437" lon="7.164217997342348">
        <ele>28.98</ele>
        <time>2017-06-19T14:32:02Z</time>
      </trkpt>
      <trkpt lat="60.894247004762292" lon="7.164381025359035">
        <ele>28.98</ele>
        <time>2017-06-19T14:32:03Z</time>
      </trkpt>
      <trkpt lat="60.89439201168716" lon="7.164515974000096">
        <ele>29.460000000000001</ele>
        <time>2017-06-19T14:32:04Z</time>
      </trkpt>
      <trkpt lat="60.894542969763279" lon="7.164624016731978">
        <ele>29.460000000000001</ele>
        <time>2017-06-19T14:32:05Z</time>
      </trkpt>
      <trkpt lat="60.895935958251357" lon="7.165913991630077">
        <ele>28.5</ele>
        <time>2017-06-19T14:32:15Z</time>
      </trkpt>
      <trkpt lat="60.897180000320077" lon="7.167964959517121">
        <ele>30.420000000000002</ele>
        <time>2017-06-19T14:32:25Z</time>
      </trkpt>
      <trkpt lat="60.898367967456579" lon="7.169116968289018">
        <ele>30.899999999999999</ele>
        <time>2017-06-19T14:32:34Z</time>
      </trkpt>
      <trkpt lat="60.899096019566059" lon="7.169994972646236">
        <ele>30.899999999999999</ele>
        <time>2017-06-19T14:32:42Z</time>
      </trkpt>
      <trkpt lat="60.89957001619041" lon="7.170864008367062">
        <ele>31.379999999999999</ele>
        <time>2017-06-19T14:32:50Z</time>
      </trkpt>
      <trkpt lat="60.9010090213269" lon="7.185528986155987">
        <ele>52.530000000000001</ele>
        <time>2017-06-19T14:33:56Z</time>
      </trkpt>
      <trkpt lat="60.900934003293514" lon="7.188271963968873">
        <ele>51.57</ele>
        <time>2017-06-19T14:34:04Z</time>
      </trkpt>
      <trkpt lat="60.900260014459491" lon="7.192239034920931">
        <ele>40.030000000000001</ele>
        <time>2017-06-19T14:34:13Z</time>
      </trkpt>
      <trkpt lat="60.900015011429787" lon="7.195533039048314">
        <ele>29.940000000000001</ele>
        <time>2017-06-19T14:34:21Z</time>
      </trkpt>
      <trkpt lat="60.89976598508656" lon="7.199716027826071">
        <ele>19.359999999999999</ele>
        <time>2017-06-19T14:34:31Z</time>
      </trkpt>
      <trkpt lat="60.898865014314651" lon="7.205529967322946">
        <ele>17.920000000000002</ele>
        <time>2017-06-19T14:34:46Z</time>
      </trkpt>
      <trkpt lat="60.898246010765433" lon="7.207444980740547">
        <ele>18.879999999999999</ele>
        <time>2017-06-19T14:34:52Z</time>
      </trkpt>
      <trkpt lat="60.898179961368442" lon="7.207776987925172">
        <ele>18.879999999999999</ele>
        <time>2017-06-19T14:34:53Z</time>
      </trkpt>
      <trkpt lat="60.898133022710681" lon="7.208110000938177">
        <ele>18.879999999999999</ele>
        <time>2017-06-19T14:34:54Z</time>
      </trkpt>
      <trkpt lat="60.898095974698663" lon="7.208442008122802">
        <ele>18.879999999999999</ele>
        <time>2017-06-19T14:34:55Z</time>
      </trkpt>
      <trkpt lat="60.898077031597495" lon="7.208761023357511">
        <ele>18.879999999999999</ele>
        <time>2017-06-19T14:34:56Z</time>
      </trkpt>
      <trkpt lat="60.898066973313689" lon="7.209076015278697">
        <ele>18.879999999999999</ele>
        <time>2017-06-19T14:34:57Z</time>
      </trkpt>
      <trkpt lat="60.898018022999167" lon="7.20996399410069">
        <ele>19.359999999999999</ele>
        <time>2017-06-19T14:35:00Z</time>
      </trkpt>
      <trkpt lat="60.897962031885982" lon="7.210467997938395">
        <ele>19.84</ele>
        <time>2017-06-19T14:35:02Z</time>
      </trkpt>
      <trkpt lat="60.897966977208853" lon="7.210699003189802">
        <ele>19.84</ele>
        <time>2017-06-19T14:35:03Z</time>
      </trkpt>
      <trkpt lat="60.89800301939249" lon="7.210934031754732">
        <ele>20.809999999999999</ele>
        <time>2017-06-19T14:35:04Z</time>
      </trkpt>
      <trkpt lat="60.89832304045558" lon="7.212866982445121">
        <ele>23.690000000000001</ele>
        <time>2017-06-19T14:35:11Z</time>
      </trkpt>
      <trkpt lat="60.899056037887931" lon="7.215215004980564">
        <ele>28.98</ele>
        <time>2017-06-19T14:35:19Z</time>
      </trkpt>
    </trkseg>
  </trk>

  <trk>
    <name>Track vom: 19 JUN 2017 16:55</name>
    <extensions>
      <gpxx:TrackExtension>
        <gpxx:DisplayColor>DarkGray</gpxx:DisplayColor>
      </gpxx:TrackExtension>
    </extensions>
    <trkseg>
      <trkpt lat="61.064895009621978" lon="7.505164984613657">
        <ele>123.67</ele>
        <time>2017-06-19T14:55:21Z</time>
      </trkpt>
      <trkpt lat="61.064715972170234" lon="7.505215024575591">
        <ele>95.310000000000002</ele>
        <time>2017-06-19T14:55:30Z</time>
      </trkpt>
      <trkpt lat="61.064696023240685" lon="7.505361037328839">
        <ele>87.620000000000005</ele>
        <time>2017-06-19T14:55:33Z</time>
      </trkpt>
      <trkpt lat="61.064695017412305" lon="7.505478970706463">
        <ele>85.689999999999998</ele>
        <time>2017-06-19T14:55:34Z</time>
      </trkpt>
      <trkpt lat="61.064682025462389" lon="7.505623977631331">
        <ele>84.730000000000004</ele>
        <time>2017-06-19T14:55:35Z</time>
      </trkpt>
      <trkpt lat="61.064656041562557" lon="7.505785999819636">
        <ele>82.810000000000002</ele>
        <time>2017-06-19T14:55:36Z</time>
      </trkpt>
      <trkpt lat="61.064616981893778" lon="7.505946010351181">
        <ele>81.370000000000005</ele>
        <time>2017-06-19T14:55:37Z</time>
      </trkpt>
      <trkpt lat="61.064564008265734" lon="7.506107026711106">
        <ele>80.409999999999997</ele>
        <time>2017-06-19T14:55:38Z</time>
      </trkpt>
      <trkpt lat="61.064499970525503" lon="7.50626896508038">
        <ele>79.450000000000003</ele>
        <time>2017-06-19T14:55:39Z</time>
      </trkpt>
      <trkpt lat="61.06442796997726" lon="7.506430987268686">
        <ele>78</ele>
        <time>2017-06-19T14:55:40Z</time>
      </trkpt>
      <trkpt lat="61.063731014728546" lon="7.508379025384784">
        <ele>69.349999999999994</ele>
        <time>2017-06-19T14:55:50Z</time>
      </trkpt>
      <trkpt lat="61.062809005379677" lon="7.510396968573332">
        <ele>64.069999999999993</ele>
        <time>2017-06-19T14:56:00Z</time>
      </trkpt>
      <trkpt lat="61.061947010457516" lon="7.512868959456682">
        <ele>60.700000000000003</ele>
        <time>2017-06-19T14:56:10Z</time>
      </trkpt>
      <trkpt lat="61.060894997790456" lon="7.514864020049572">
        <ele>57.340000000000003</ele>
        <time>2017-06-19T14:56:19Z</time>
      </trkpt>
      <trkpt lat="61.058600032702088" lon="7.517378004267812">
        <ele>51.090000000000003</ele>
        <time>2017-06-19T14:56:35Z</time>
      </trkpt>
      <trkpt lat="61.058213962242007" lon="7.517885025590658">
        <ele>51.090000000000003</ele>
        <time>2017-06-19T14:56:38Z</time>
      </trkpt>
      <trkpt lat="61.058103991672397" lon="7.51810597255826">
        <ele>50.609999999999999</ele>
        <time>2017-06-19T14:56:39Z</time>
      </trkpt>
      <trkpt lat="61.058010030537844" lon="7.518360028043389">
        <ele>50.130000000000003</ele>
        <time>2017-06-19T14:56:40Z</time>
      </trkpt>
      <trkpt lat="61.057927971705794" lon="7.518647024407983">
        <ele>49.649999999999999</ele>
        <time>2017-06-19T14:56:41Z</time>
      </trkpt>
      <trkpt lat="61.05785102583468" lon="7.518949024379253">
        <ele>49.159999999999997</ele>
        <time>2017-06-19T14:56:42Z</time>
      </trkpt>
      <trkpt lat="61.056518973782659" lon="7.524183019995689">
        <ele>47.240000000000002</ele>
        <time>2017-06-19T14:56:59Z</time>
      </trkpt>
      <trkpt lat="61.055343998596072" lon="7.526705972850323">
        <ele>47.240000000000002</ele>
        <time>2017-06-19T14:57:09Z</time>
      </trkpt>
      <trkpt lat="61.054515028372407" lon="7.52949002198875">
        <ele>47.719999999999999</ele>
        <time>2017-06-19T14:57:18Z</time>
      </trkpt>
      <trkpt lat="61.053605005145073" lon="7.533516017720103">
        <ele>45.799999999999997</ele>
        <time>2017-06-19T14:57:31Z</time>
      </trkpt>
      <trkpt lat="61.053498974069953" lon="7.534166034311056">
        <ele>46.280000000000001</ele>
        <time>2017-06-19T14:57:33Z</time>
      </trkpt>
      <trkpt lat="61.053467039018869" lon="7.534506004303694">
        <ele>46.759999999999998</ele>
        <time>2017-06-19T14:57:34Z</time>
      </trkpt>
      <trkpt lat="61.053453041240573" lon="7.534846980124712">
        <ele>47.240000000000002</ele>
        <time>2017-06-19T14:57:35Z</time>
      </trkpt>
      <trkpt lat="61.053455974906683" lon="7.535198014229536">
        <ele>47.240000000000002</ele>
        <time>2017-06-19T14:57:36Z</time>
      </trkpt>
      <trkpt lat="61.053472990170121" lon="7.535547958686948">
        <ele>46.759999999999998</ele>
        <time>2017-06-19T14:57:37Z</time>
      </trkpt>
      <trkpt lat="61.053498974069953" lon="7.535902010276914">
        <ele>46.280000000000001</ele>
        <time>2017-06-19T14:57:38Z</time>
      </trkpt>
      <trkpt lat="61.053561000153422" lon="7.536899037659168">
        <ele>45.799999999999997</ele>
        <time>2017-06-19T14:57:41Z</time>
      </trkpt>
      <trkpt lat="61.053553959354758" lon="7.537218974903226">
        <ele>45.32</ele>
        <time>2017-06-19T14:57:42Z</time>
      </trkpt>
      <trkpt lat="61.053521018475294" lon="7.537545030936599">
        <ele>44.840000000000003</ele>
        <time>2017-06-19T14:57:43Z</time>
      </trkpt>
      <trkpt lat="61.053461004048586" lon="7.53787100315094">
        <ele>44.359999999999999</ele>
        <time>2017-06-19T14:57:44Z</time>
      </trkpt>
      <trkpt lat="61.053376011550426" lon="7.538188006728888">
        <ele>44.359999999999999</ele>
        <time>2017-06-19T14:57:45Z</time>
      </trkpt>
      <trkpt lat="61.053275009617209" lon="7.538504004478455">
        <ele>44.359999999999999</ele>
        <time>2017-06-19T14:57:46Z</time>
      </trkpt>
      <trkpt lat="61.052294997498393" lon="7.54141403362155">
        <ele>46.759999999999998</ele>
        <time>2017-06-19T14:57:55Z</time>
      </trkpt>
      <trkpt lat="61.052235988900065" lon="7.541728019714356">
        <ele>46.759999999999998</ele>
        <time>2017-06-19T14:57:56Z</time>
      </trkpt>
      <trkpt lat="61.052204975858331" lon="7.542052986100316">
        <ele>46.759999999999998</ele>
        <time>2017-06-19T14:57:57Z</time>
      </trkpt>
      <trkpt lat="61.052201958373189" lon="7.542380969971418">
        <ele>46.759999999999998</ele>
        <time>2017-06-19T14:57:58Z</time>
      </trkpt>
      <trkpt lat="61.052217967808247" lon="7.542711971327663">
        <ele>46.759999999999998</ele>
        <time>2017-06-19T14:57:59Z</time>
      </trkpt>
      <trkpt lat="61.052249986678362" lon="7.543046995997429">
        <ele>47.240000000000002</ele>
        <time>2017-06-19T14:58:00Z</time>
      </trkpt>
      <trkpt lat="61.052288040518761" lon="7.543384032323957">
        <ele>47.240000000000002</ele>
        <time>2017-06-19T14:58:01Z</time>
      </trkpt>
      <trkpt lat="61.052788021042943" lon="7.548516020178795">
        <ele>48.200000000000003</ele>
        <time>2017-06-19T14:58:15Z</time>
      </trkpt>
      <trkpt lat="61.052866978570819" lon="7.54921498708427">
        <ele>48.200000000000003</ele>
        <time>2017-06-19T14:58:17Z</time>
      </trkpt>
      <trkpt lat="61.05293202213943" lon="7.549563003703952">
        <ele>48.200000000000003</ele>
        <time>2017-06-19T14:58:18Z</time>
      </trkpt>
      <trkpt lat="61.053007962182164" lon="7.549900040030479">
        <ele>48.200000000000003</ele>
        <time>2017-06-19T14:58:19Z</time>
      </trkpt>
      <trkpt lat="61.053763004019856" lon="7.55286899395287">
        <ele>48.68</ele>
        <time>2017-06-19T14:58:28Z</time>
      </trkpt>
      <trkpt lat="61.053804997354746" lon="7.553228996694088">
        <ele>48.68</ele>
        <time>2017-06-19T14:58:29Z</time>
      </trkpt>
      <trkpt lat="61.053827041760087" lon="7.553601991385222">
        <ele>48.68</ele>
        <time>2017-06-19T14:58:30Z</time>
      </trkpt>
      <trkpt lat="61.053825030103326" lon="7.553971968591213">
        <ele>48.68</ele>
        <time>2017-06-19T14:58:31Z</time>
      </trkpt>
      <trkpt lat="61.053803991526365" lon="7.554342029616237">
        <ele>48.68</ele>
        <time>2017-06-19T14:58:32Z</time>
      </trkpt>
      <trkpt lat="61.05377197265625" lon="7.554719969630241">
        <ele>48.68</ele>
        <time>2017-06-19T14:58:33Z</time>
      </trkpt>
      <trkpt lat="61.053238967433572" lon="7.559319958090782">
        <ele>49.649999999999999</ele>
        <time>2017-06-19T14:58:45Z</time>
      </trkpt>
      <trkpt lat="61.053323959931731" lon="7.562831975519657">
        <ele>50.130000000000003</ele>
        <time>2017-06-19T14:58:54Z</time>
      </trkpt>
      <trkpt lat="61.053468966856599" lon="7.569560967385769">
        <ele>52.049999999999997</ele>
        <time>2017-06-19T14:59:11Z</time>
      </trkpt>
      <trkpt lat="61.053421022370458" lon="7.569923987612128">
        <ele>52.530000000000001</ele>
        <time>2017-06-19T14:59:12Z</time>
      </trkpt>
      <trkpt lat="61.053356984630227" lon="7.570277033373714">
        <ele>52.530000000000001</ele>
        <time>2017-06-19T14:59:13Z</time>
      </trkpt>
      <trkpt lat="61.052400022745132" lon="7.575130993500352">
        <ele>54.93</ele>
        <time>2017-06-19T14:59:27Z</time>
      </trkpt>
      <trkpt lat="61.052032979205251" lon="7.579564014449716">
        <ele>53.969999999999999</ele>
        <time>2017-06-19T14:59:39Z</time>
      </trkpt>
      <trkpt lat="61.051444988697767" lon="7.581734005361795">
        <ele>54.93</ele>
        <time>2017-06-19T14:59:46Z</time>
      </trkpt>
      <trkpt lat="61.050945008173585" lon="7.584659960120916">
        <ele>57.82</ele>
        <time>2017-06-19T14:59:54Z</time>
      </trkpt>
      <trkpt lat="61.050137998536229" lon="7.588859964162111">
        <ele>59.740000000000002</ele>
        <time>2017-06-19T15:00:05Z</time>
      </trkpt>
      <trkpt lat="61.050058035179973" lon="7.589214015752077">
        <ele>60.219999999999999</ele>
        <time>2017-06-19T15:00:06Z</time>
      </trkpt>
      <trkpt lat="61.050000032410026" lon="7.589568989351392">
        <ele>60.219999999999999</ele>
        <time>2017-06-19T15:00:07Z</time>
      </trkpt>
      <trkpt lat="61.049966001883149" lon="7.589934021234512">
        <ele>60.700000000000003</ele>
        <time>2017-06-19T15:00:08Z</time>
      </trkpt>
      <trkpt lat="61.049955021589994" lon="7.590314978733659">
        <ele>60.219999999999999</ele>
        <time>2017-06-19T15:00:09Z</time>
      </trkpt>
      <trkpt lat="61.04994798079133" lon="7.590713035315275">
        <ele>60.700000000000003</ele>
        <time>2017-06-19T15:00:10Z</time>
      </trkpt>
      <trkpt lat="61.049661990255117" lon="7.593514015898109">
        <ele>60.700000000000003</ele>
        <time>2017-06-19T15:00:17Z</time>
      </trkpt>
      <trkpt lat="61.048788009211421" lon="7.596429996192455">
        <ele>61.659999999999997</ele>
        <time>2017-06-19T15:00:25Z</time>
      </trkpt>
      <trkpt lat="61.048433035612106" lon="7.598815988749266">
        <ele>62.140000000000001</ele>
        <time>2017-06-19T15:00:31Z</time>
      </trkpt>
      <trkpt lat="61.048291968181729" lon="7.600253988057375">
        <ele>62.619999999999997</ele>
        <time>2017-06-19T15:00:35Z</time>
      </trkpt>
      <trkpt lat="61.04822801426053" lon="7.600588006898761">
        <ele>62.619999999999997</ele>
        <time>2017-06-19T15:00:36Z</time>
      </trkpt>
      <trkpt lat="61.04814201593399" lon="7.600922025740147">
        <ele>62.619999999999997</ele>
        <time>2017-06-19T15:00:37Z</time>
      </trkpt>
      <trkpt lat="61.048039002344012" lon="7.601247997954488">
        <ele>62.619999999999997</ele>
        <time>2017-06-19T15:00:38Z</time>
      </trkpt>
      <trkpt lat="61.04792601428926" lon="7.601554021239281">
        <ele>62.619999999999997</ele>
        <time>2017-06-19T15:00:39Z</time>
      </trkpt>
      <trkpt lat="61.047263005748391" lon="7.603703979402781">
        <ele>65.510000000000005</ele>
        <time>2017-06-19T15:00:46Z</time>
      </trkpt>
      <trkpt lat="61.047235010191798" lon="7.603988964110613">
        <ele>65.989999999999995</ele>
        <time>2017-06-19T15:00:47Z</time>
      </trkpt>
      <trkpt lat="61.047232998535037" lon="7.604278977960348">
        <ele>65.989999999999995</ele>
        <time>2017-06-19T15:00:48Z</time>
      </trkpt>
      <trkpt lat="61.047256970778108" lon="7.60458399541676">
        <ele>66.469999999999999</ele>
        <time>2017-06-19T15:00:49Z</time>
      </trkpt>
      <trkpt lat="61.047296030446887" lon="7.604894964024425">
        <ele>66.469999999999999</ele>
        <time>2017-06-19T15:00:50Z</time>
      </trkpt>
      <trkpt lat="61.047340035438538" lon="7.605213979259133">
        <ele>66.469999999999999</ele>
        <time>2017-06-19T15:00:51Z</time>
      </trkpt>
      <trkpt lat="61.047594007104635" lon="7.607323033735156">
        <ele>67.430000000000007</ele>
        <time>2017-06-19T15:00:57Z</time>
      </trkpt>
      <trkpt lat="61.047600964084268" lon="7.607704997062683">
        <ele>67.430000000000007</ele>
        <time>2017-06-19T15:00:58Z</time>
      </trkpt>
      <trkpt lat="61.047589983791113" lon="7.608099030330777">
        <ele>67.909999999999997</ele>
        <time>2017-06-19T15:00:59Z</time>
      </trkpt>
      <trkpt lat="61.047559976577759" lon="7.608501026406884">
        <ele>68.390000000000001</ele>
        <time>2017-06-19T15:01:00Z</time>
      </trkpt>
      <trkpt lat="61.047516977414489" lon="7.60890101082623">
        <ele>68.870000000000005</ele>
        <time>2017-06-19T15:01:01Z</time>
      </trkpt>
      <trkpt lat="61.046924041584134" lon="7.613158011808991">
        <ele>69.829999999999998</ele>
        <time>2017-06-19T15:01:12Z</time>
      </trkpt>
      <trkpt lat="61.046461025252938" lon="7.61489499360323">
        <ele>69.829999999999998</ele>
        <time>2017-06-19T15:01:18Z</time>
      </trkpt>
      <trkpt lat="61.046417020261288" lon="7.615205040201545">
        <ele>69.829999999999998</ele>
        <time>2017-06-19T15:01:19Z</time>
      </trkpt>
      <trkpt lat="61.046386007219553" lon="7.615524977445602">
        <ele>69.829999999999998</ele>
        <time>2017-06-19T15:01:20Z</time>
      </trkpt>
      <trkpt lat="61.046243011951447" lon="7.619501017034054">
        <ele>71.760000000000005</ele>
        <time>2017-06-19T15:01:33Z</time>
      </trkpt>
      <trkpt lat="61.046090964227915" lon="7.624093964695931">
        <ele>73.680000000000007</ele>
        <time>2017-06-19T15:01:49Z</time>
      </trkpt>
      <trkpt lat="61.046195989474654" lon="7.625348987057805">
        <ele>74.159999999999997</ele>
        <time>2017-06-19T15:01:53Z</time>
      </trkpt>
      <trkpt lat="61.04625198058784" lon="7.625645035877824">
        <ele>74.159999999999997</ele>
        <time>2017-06-19T15:01:54Z</time>
      </trkpt>
      <trkpt lat="61.047354033216834" lon="7.630049977451563">
        <ele>78.969999999999999</ele>
        <time>2017-06-19T15:02:09Z</time>
      </trkpt>
      <trkpt lat="61.047770027071238" lon="7.631085980683565">
        <ele>79.450000000000003</ele>
        <time>2017-06-19T15:02:13Z</time>
      </trkpt>
      <trkpt lat="61.047897012904286" lon="7.631311034783721">
        <ele>79.450000000000003</ele>
        <time>2017-06-19T15:02:14Z</time>
      </trkpt>
      <trkpt lat="61.0497319791466" lon="7.634614007547498">
        <ele>85.209999999999994</ele>
        <time>2017-06-19T15:02:28Z</time>
      </trkpt>
      <trkpt lat="61.05175000615418" lon="7.638255022466183">
        <ele>94.349999999999994</ele>
        <time>2017-06-19T15:02:43Z</time>
      </trkpt>
      <trkpt lat="61.053013997152448" lon="7.641218025237322">
        <ele>100.11</ele>
        <time>2017-06-19T15:02:53Z</time>
      </trkpt>
      <trkpt lat="61.054331967607141" lon="7.644856022670865">
        <ele>105.40000000000001</ele>
        <time>2017-06-19T15:03:04Z</time>
      </trkpt>
      <trkpt lat="61.055021965876222" lon="7.647454999387264">
        <ele>110.20999999999999</ele>
        <time>2017-06-19T15:03:11Z</time>
      </trkpt>
      <trkpt lat="61.055777007713914" lon="7.650383971631527">
        <ele>116.45999999999999</ele>
        <time>2017-06-19T15:03:19Z</time>
      </trkpt>
      <trkpt lat="61.056986013427377" lon="7.654610965400934">
        <ele>122.70999999999999</ele>
        <time>2017-06-19T15:03:31Z</time>
      </trkpt>
      <trkpt lat="61.057914979755878" lon="7.657664995640516">
        <ele>125.59</ele>
        <time>2017-06-19T15:03:40Z</time>
      </trkpt>
      <trkpt lat="61.058297026902437" lon="7.659666007384658">
        <ele>127.51000000000001</ele>
        <time>2017-06-19T15:03:46Z</time>
      </trkpt>
      <trkpt lat="61.058302978053689" lon="7.662329021841288">
        <ele>131.36000000000001</ele>
        <time>2017-06-19T15:03:54Z</time>
      </trkpt>
      <trkpt lat="61.057785982266068" lon="7.667248025536537">
        <ele>136.63999999999999</ele>
        <time>2017-06-19T15:04:07Z</time>
      </trkpt>
      <trkpt lat="61.056665992364287" lon="7.674657041206956">
        <ele>139.05000000000001</ele>
        <time>2017-06-19T15:04:26Z</time>
      </trkpt>
      <trkpt lat="61.055445000529289" lon="7.681243037804961">
        <ele>141.44999999999999</ele>
        <time>2017-06-19T15:04:43Z</time>
      </trkpt>
      <trkpt lat="61.054468005895615" lon="7.683994984254241">
        <ele>146.25999999999999</ele>
        <time>2017-06-19T15:04:51Z</time>
      </trkpt>
      <trkpt lat="61.053220024332404" lon="7.68590304069221">
        <ele>153.94999999999999</ele>
        <time>2017-06-19T15:04:59Z</time>
      </trkpt>
      <trkpt lat="61.05185897089541" lon="7.688106978312135">
        <ele>162.12</ele>
        <time>2017-06-19T15:05:08Z</time>
      </trkpt>
      <trkpt lat="61.051295036450028" lon="7.690582992509008">
        <ele>169.33000000000001</ele>
        <time>2017-06-19T15:05:15Z</time>
      </trkpt>
      <trkpt lat="61.051050033420324" lon="7.694407990202308">
        <ele>181.83000000000001</ele>
        <time>2017-06-19T15:05:25Z</time>
      </trkpt>
      <trkpt lat="61.051421016454697" lon="7.696931026875973">
        <ele>187.59</ele>
        <time>2017-06-19T15:05:32Z</time>
      </trkpt>
      <trkpt lat="61.052278988063335" lon="7.700118999928236">
        <ele>195.28</ele>
        <time>2017-06-19T15:05:41Z</time>
      </trkpt>
      <trkpt lat="61.052455008029938" lon="7.703063981607556">
        <ele>199.13</ele>
        <time>2017-06-19T15:05:48Z</time>
      </trkpt>
      <trkpt lat="61.052086958661675" lon="7.706045005470514">
        <ele>199.13</ele>
        <time>2017-06-19T15:05:55Z</time>
      </trkpt>
      <trkpt lat="61.051671970635653" lon="7.709426013752818">
        <ele>198.65000000000001</ele>
        <time>2017-06-19T15:06:03Z</time>
      </trkpt>
      <trkpt lat="61.051714969798923" lon="7.713164007291198">
        <ele>203.46000000000001</ele>
        <time>2017-06-19T15:06:12Z</time>
      </trkpt>
      <trkpt lat="61.051736008375883" lon="7.717905985191464">
        <ele>211.15000000000001</ele>
        <time>2017-06-19T15:06:24Z</time>
      </trkpt>
      <trkpt lat="61.052311006933451" lon="7.721482962369919">
        <ele>216.91</ele>
        <time>2017-06-19T15:06:34Z</time>
      </trkpt>
      <trkpt lat="61.048440998420119" lon="7.753435028716922">
        <ele>267.38</ele>
        <time>2017-06-19T15:07:53Z</time>
      </trkpt>
      <trkpt lat="61.048154002055526" lon="7.754079010337591">
        <ele>272.67000000000002</ele>
        <time>2017-06-19T15:07:58Z</time>
      </trkpt>
      <trkpt lat="61.048135980963707" lon="7.75418596342206">
        <ele>272.67000000000002</ele>
        <time>2017-06-19T15:07:59Z</time>
      </trkpt>
      <trkpt lat="61.04814201593399" lon="7.754306998103857">
        <ele>273.14999999999998</ele>
        <time>2017-06-19T15:08:00Z</time>
      </trkpt>
      <trkpt lat="61.048156013712287" lon="7.754424009472132">
        <ele>273.14999999999998</ele>
        <time>2017-06-19T15:08:01Z</time>
      </trkpt>
      <trkpt lat="61.048193983733654" lon="7.754532974213362">
        <ele>272.19</ele>
        <time>2017-06-19T15:08:02Z</time>
      </trkpt>
      <trkpt lat="61.048245029523969" lon="7.754642022773624">
        <ele>271.70999999999998</ele>
        <time>2017-06-19T15:08:03Z</time>
      </trkpt>
      <trkpt lat="61.048278976231813" lon="7.754770014435053">
        <ele>271.70999999999998</ele>
        <time>2017-06-19T15:08:04Z</time>
      </trkpt>
      <trkpt lat="61.048291968181729" lon="7.754891971126199">
        <ele>269.79000000000002</ele>
        <time>2017-06-19T15:08:05Z</time>
      </trkpt>
      <trkpt lat="61.048274030908942" lon="7.755005965009332">
        <ele>268.35000000000002</ele>
        <time>2017-06-19T15:08:06Z</time>
      </trkpt>
      <trkpt lat="61.048229020088911" lon="7.755105961114168">
        <ele>268.82999999999998</ele>
        <time>2017-06-19T15:08:07Z</time>
      </trkpt>
      <trkpt lat="61.048167999833822" lon="7.755197994410992">
        <ele>268.82999999999998</ele>
        <time>2017-06-19T15:08:08Z</time>
      </trkpt>
      <trkpt lat="61.048091975972056" lon="7.755292961373925">
        <ele>269.31</ele>
        <time>2017-06-19T15:08:09Z</time>
      </trkpt>
      <trkpt lat="61.048004971817136" lon="7.75538700632751">
        <ele>268.82999999999998</ele>
        <time>2017-06-19T15:08:10Z</time>
      </trkpt>
      <trkpt lat="61.047807997092605" lon="7.755655981600285">
        <ele>269.31</ele>
        <time>2017-06-19T15:08:12Z</time>
      </trkpt>
      <trkpt lat="61.047720992937684" lon="7.755844993516803">
        <ele>269.31</ele>
        <time>2017-06-19T15:08:13Z</time>
      </trkpt>
      <trkpt lat="61.047640023753047" lon="7.756069963797927">
        <ele>269.31</ele>
        <time>2017-06-19T15:08:14Z</time>
      </trkpt>
      <trkpt lat="61.047571040689945" lon="7.756325025111437">
        <ele>268.82999999999998</ele>
        <time>2017-06-19T15:08:15Z</time>
      </trkpt>
      <trkpt lat="61.047515971586108" lon="7.756601041182876">
        <ele>268.82999999999998</ele>
        <time>2017-06-19T15:08:16Z</time>
      </trkpt>
      <trkpt lat="61.047470960766077" lon="7.756887031719089">
        <ele>268.82999999999998</ele>
        <time>2017-06-19T15:08:17Z</time>
      </trkpt>
      <trkpt lat="61.047433996573091" lon="7.757185008376837">
        <ele>268.82999999999998</ele>
        <time>2017-06-19T15:08:18Z</time>
      </trkpt>
      <trkpt lat="61.047224029898643" lon="7.759994035586715">
        <ele>268.35000000000002</ele>
        <time>2017-06-19T15:08:27Z</time>
      </trkpt>
      <trkpt lat="61.047246996313334" lon="7.760305004194379">
        <ele>268.35000000000002</ele>
        <time>2017-06-19T15:08:28Z</time>
      </trkpt>
      <trkpt lat="61.047280021011829" lon="7.760609015822411">
        <ele>268.35000000000002</ele>
        <time>2017-06-19T15:08:29Z</time>
      </trkpt>
      <trkpt lat="61.047328971326351" lon="7.760897018015385">
        <ele>268.82999999999998</ele>
        <time>2017-06-19T15:08:30Z</time>
      </trkpt>
      <trkpt lat="61.047386974096298" lon="7.761170016601682">
        <ele>269.31</ele>
        <time>2017-06-19T15:08:31Z</time>
      </trkpt>
      <trkpt lat="61.047456962987781" lon="7.761433040723205">
        <ele>269.31</ele>
        <time>2017-06-19T15:08:32Z</time>
      </trkpt>
      <trkpt lat="61.047536004334688" lon="7.761678965762258">
        <ele>269.79000000000002</ele>
        <time>2017-06-19T15:08:33Z</time>
      </trkpt>
      <trkpt lat="61.047623008489609" lon="7.761919023469091">
        <ele>269.31</ele>
        <time>2017-06-19T15:08:34Z</time>
      </trkpt>
      <trkpt lat="61.048000026494265" lon="7.763148983940482">
        <ele>270.75</ele>
        <time>2017-06-19T15:08:40Z</time>
      </trkpt>
      <trkpt lat="61.048032967373729" lon="7.763375965878367">
        <ele>270.75</ele>
        <time>2017-06-19T15:08:41Z</time>
      </trkpt>
      <trkpt lat="61.048059035092592" lon="7.763613006100059">
        <ele>271.23000000000002</ele>
        <time>2017-06-19T15:08:42Z</time>
      </trkpt>
      <trkpt lat="61.048073032870889" lon="7.763860020786524">
        <ele>271.70999999999998</ele>
        <time>2017-06-19T15:08:43Z</time>
      </trkpt>
      <trkpt lat="61.048060962930322" lon="7.764108963310719">
        <ele>271.70999999999998</ele>
        <time>2017-06-19T15:08:44Z</time>
      </trkpt>
      <trkpt lat="61.048032967373729" lon="7.764356983825564">
        <ele>272.19</ele>
        <time>2017-06-19T15:08:45Z</time>
      </trkpt>
      <trkpt lat="61.047977982088923" lon="7.764602992683649">
        <ele>272.67000000000002</ele>
        <time>2017-06-19T15:08:46Z</time>
      </trkpt>
      <trkpt lat="61.047910004854202" lon="7.764838021248579">
        <ele>273.14999999999998</ele>
        <time>2017-06-19T15:08:47Z</time>
      </trkpt>
      <trkpt lat="61.047829035669565" lon="7.765067014843226">
        <ele>274.11000000000001</ele>
        <time>2017-06-19T15:08:48Z</time>
      </trkpt>
      <trkpt lat="61.047189999371767" lon="7.767435992136598">
        <ele>276.51999999999998</ele>
        <time>2017-06-19T15:08:57Z</time>
      </trkpt>
      <trkpt lat="61.046529002487659" lon="7.770234039053321">
        <ele>281.31999999999999</ele>
        <time>2017-06-19T15:09:07Z</time>
      </trkpt>
      <trkpt lat="61.045801034197211" lon="7.773150019347668">
        <ele>281.31999999999999</ele>
        <time>2017-06-19T15:09:17Z</time>
      </trkpt>
      <trkpt lat="61.045585032552481" lon="7.775673978030682">
        <ele>281.80000000000001</ele>
        <time>2017-06-19T15:09:25Z</time>
      </trkpt>
      <trkpt lat="61.045533986762166" lon="7.778390971943736">
        <ele>286.13</ele>
        <time>2017-06-19T15:09:34Z</time>
      </trkpt>
      <trkpt lat="61.04556399397552" lon="7.778627006337047">
        <ele>287.56999999999999</ele>
        <time>2017-06-19T15:09:35Z</time>
      </trkpt>
      <trkpt lat="61.045613028109074" lon="7.778837978839874">
        <ele>288.52999999999997</ele>
        <time>2017-06-19T15:09:36Z</time>
      </trkpt>
      <trkpt lat="61.045678993687034" lon="7.779021039605141">
        <ele>289.00999999999999</ele>
        <time>2017-06-19T15:09:37Z</time>
      </trkpt>
      <trkpt lat="61.045758035033941" lon="7.779179038479924">
        <ele>289.49000000000001</ele>
        <time>2017-06-19T15:09:38Z</time>
      </trkpt>
      <trkpt lat="61.045837998390198" lon="7.77932102791965">
        <ele>289.97000000000003</ele>
        <time>2017-06-19T15:09:39Z</time>
      </trkpt>
      <trkpt lat="61.045913016423583" lon="7.779439967125654">
        <ele>289.97000000000003</ele>
        <time>2017-06-19T15:09:40Z</time>
      </trkpt>
      <trkpt lat="61.046201018616557" lon="7.779781026765704">
        <ele>291.42000000000002</ele>
        <time>2017-06-19T15:09:46Z</time>
      </trkpt>
      <trkpt lat="61.046492038294673" lon="7.780178999528289">
        <ele>291.89999999999998</ele>
        <time>2017-06-19T15:09:50Z</time>
      </trkpt>
      <trkpt lat="61.046570995822549" lon="7.780339010059834">
        <ele>291.89999999999998</ele>
        <time>2017-06-19T15:09:51Z</time>
      </trkpt>
      <trkpt lat="61.046644002199173" lon="7.780521987006068">
        <ele>291.89999999999998</ele>
        <time>2017-06-19T15:09:52Z</time>
      </trkpt>
      <trkpt lat="61.046708039939404" lon="7.780730025842786">
        <ele>291.89999999999998</ele>
        <time>2017-06-19T15:09:53Z</time>
      </trkpt>
      <trkpt lat="61.046762019395828" lon="7.780968993902206">
        <ele>292.38</ele>
        <time>2017-06-19T15:09:54Z</time>
      </trkpt>
      <trkpt lat="61.046803006902337" lon="7.78123302385211">
        <ele>292.38</ele>
        <time>2017-06-19T15:09:55Z</time>
      </trkpt>
      <trkpt lat="61.046825973317027" lon="7.781509039923549">
        <ele>292.86000000000001</ele>
        <time>2017-06-19T15:09:56Z</time>
      </trkpt>
      <trkpt lat="61.046840976923704" lon="7.781798969954252">
        <ele>292.86000000000001</ele>
        <time>2017-06-19T15:09:57Z</time>
      </trkpt>
      <trkpt lat="61.046805018559098" lon="7.785374019294977">
        <ele>294.77999999999997</ele>
        <time>2017-06-19T15:10:08Z</time>
      </trkpt>
      <trkpt lat="61.046453984454274" lon="7.788100987672806">
        <ele>300.06999999999999</ele>
        <time>2017-06-19T15:10:17Z</time>
      </trkpt>
      <trkpt lat="61.045674970373511" lon="7.791406977921724">
        <ele>302.94999999999999</ele>
        <time>2017-06-19T15:10:29Z</time>
      </trkpt>
      <trkpt lat="61.044608959928155" lon="7.794001009315252">
        <ele>309.19999999999999</ele>
        <time>2017-06-19T15:10:39Z</time>
      </trkpt>
      <trkpt lat="61.043875040486455" lon="7.795602958649397">
        <ele>313.05000000000001</ele>
        <time>2017-06-19T15:10:46Z</time>
      </trkpt>
      <trkpt lat="61.043746965005994" lon="7.795781996101141">
        <ele>314.00999999999999</ele>
        <time>2017-06-19T15:10:47Z</time>
      </trkpt>
      <trkpt lat="61.043610004708171" lon="7.795942006632686">
        <ele>315.44999999999999</ele>
        <time>2017-06-19T15:10:48Z</time>
      </trkpt>
      <trkpt lat="61.042395969852805" lon="7.796678021550179">
        <ele>322.66000000000003</ele>
        <time>2017-06-19T15:10:56Z</time>
      </trkpt>
      <trkpt lat="61.041517965495586" lon="7.796721020713449">
        <ele>326.5</ele>
        <time>2017-06-19T15:11:02Z</time>
      </trkpt>
      <trkpt lat="61.041399026289582" lon="7.796655977144837">
        <ele>327.47000000000003</ele>
        <time>2017-06-19T15:11:03Z</time>
      </trkpt>
      <trkpt lat="61.041047992184758" lon="7.796482974663377">
        <ele>327.94999999999999</ele>
        <time>2017-06-19T15:11:06Z</time>
      </trkpt>
      <trkpt lat="61.040921006351709" lon="7.7964679710567">
        <ele>328.43000000000001</ele>
        <time>2017-06-19T15:11:07Z</time>
      </trkpt>
      <trkpt lat="61.040783962234855" lon="7.796478029340506">
        <ele>327.94999999999999</ele>
        <time>2017-06-19T15:11:08Z</time>
      </trkpt>
      <trkpt lat="61.039501028135419" lon="7.796739963814616">
        <ele>328.91000000000003</ele>
        <time>2017-06-19T15:11:17Z</time>
      </trkpt>
      <trkpt lat="61.037907963618636" lon="7.79595198109746">
        <ele>333.23000000000002</ele>
        <time>2017-06-19T15:11:28Z</time>
      </trkpt>
      <trkpt lat="61.036748997867107" lon="7.795217977836728">
        <ele>336.60000000000002</ele>
        <time>2017-06-19T15:11:37Z</time>
      </trkpt>
      <trkpt lat="61.036637015640736" lon="7.795181013643742">
        <ele>336.60000000000002</ele>
        <time>2017-06-19T15:11:38Z</time>
      </trkpt>
      <trkpt lat="61.036525033414364" lon="7.7951779961586">
        <ele>337.07999999999998</ele>
        <time>2017-06-19T15:11:39Z</time>
      </trkpt>
      <trkpt lat="61.035980964079499" lon="7.795158969238401">
        <ele>339.48000000000002</ele>
        <time>2017-06-19T15:11:46Z</time>
      </trkpt>
      <trkpt lat="61.03591600432992" lon="7.795019997283816">
        <ele>342.85000000000002</ele>
        <time>2017-06-19T15:11:54Z</time>
      </trkpt>
      <trkpt lat="61.035792035982013" lon="7.794741969555616">
        <ele>347.64999999999998</ele>
        <time>2017-06-19T15:12:14Z</time>
      </trkpt>
      <trkpt lat="61.035641999915242" lon="7.794411974027753">
        <ele>355.82999999999998</ele>
        <time>2017-06-19T15:12:44Z</time>
      </trkpt>
      <trkpt lat="61.035664966329932" lon="7.794417003169656">
        <ele>354.86000000000001</ele>
        <time>2017-06-19T15:13:06Z</time>
      </trkpt>
      <trkpt lat="61.035645017400384" lon="7.79436101205647">
        <ele>354.86000000000001</ele>
        <time>2017-06-19T15:13:39Z</time>
      </trkpt>
      <trkpt lat="61.035617021843791" lon="7.794359000399709">
        <ele>356.79000000000002</ele>
        <time>2017-06-19T15:13:55Z</time>
      </trkpt>
      <trkpt lat="61.035576034337282" lon="7.794377021491528">
        <ele>357.75</ele>
        <time>2017-06-19T15:13:56Z</time>
      </trkpt>
      <trkpt lat="61.034947978332639" lon="7.794657982885838">
        <ele>362.06999999999999</ele>
        <time>2017-06-19T15:14:04Z</time>
      </trkpt>
      <trkpt lat="61.034257980063558" lon="7.794850012287498">
        <ele>361.58999999999997</ele>
        <time>2017-06-19T15:14:11Z</time>
      </trkpt>
      <trkpt lat="61.034156978130341" lon="7.794914972037077">
        <ele>361.58999999999997</ele>
        <time>2017-06-19T15:14:12Z</time>
      </trkpt>
      <trkpt lat="61.033155005425215" lon="7.795656016096473">
        <ele>366.88</ele>
        <time>2017-06-19T15:14:21Z</time>
      </trkpt>
      <trkpt lat="61.033059032633901" lon="7.795784007757902">
        <ele>367.36000000000001</ele>
        <time>2017-06-19T15:14:22Z</time>
      </trkpt>
      <trkpt lat="61.032969010993838" lon="7.795919962227345">
        <ele>367.83999999999997</ele>
        <time>2017-06-19T15:14:23Z</time>
      </trkpt>
      <trkpt lat="61.032926011830568" lon="7.796225985512137">
        <ele>367.83999999999997</ele>
        <time>2017-06-19T15:14:24Z</time>
      </trkpt>
      <trkpt lat="61.032881001010537" lon="7.79648800380528">
        <ele>367.83999999999997</ele>
        <time>2017-06-19T15:14:25Z</time>
      </trkpt>
      <trkpt lat="61.032855017110705" lon="7.796753961592913">
        <ele>367.36000000000001</ele>
        <time>2017-06-19T15:14:26Z</time>
      </trkpt>
      <trkpt lat="61.03282299824059" lon="7.796994019299746">
        <ele>367.83999999999997</ele>
        <time>2017-06-19T15:14:27Z</time>
      </trkpt>
      <trkpt lat="61.032796008512378" lon="7.79724296182394">
        <ele>368.31999999999999</ele>
        <time>2017-06-19T15:14:28Z</time>
      </trkpt>
      <trkpt lat="61.032776981592178" lon="7.797493999823928">
        <ele>368.80000000000001</ele>
        <time>2017-06-19T15:14:29Z</time>
      </trkpt>
      <trkpt lat="61.032767007127404" lon="7.797757023945451">
        <ele>368.80000000000001</ele>
        <time>2017-06-19T15:14:30Z</time>
      </trkpt>
      <trkpt lat="61.032767007127404" lon="7.798012001439929">
        <ele>369.27999999999997</ele>
        <time>2017-06-19T15:14:31Z</time>
      </trkpt>
      <trkpt lat="61.032781004905701" lon="7.79825197532773">
        <ele>369.27999999999997</ele>
        <time>2017-06-19T15:14:32Z</time>
      </trkpt>
      <trkpt lat="61.032815035432577" lon="7.798505024984479">
        <ele>369.27999999999997</ele>
        <time>2017-06-19T15:14:33Z</time>
      </trkpt>
      <trkpt lat="61.03286499157548" lon="7.798737036064267">
        <ele>369.27999999999997</ele>
        <time>2017-06-19T15:14:34Z</time>
      </trkpt>
      <trkpt lat="61.032927017658949" lon="7.798962006345391">
        <ele>369.27999999999997</ele>
        <time>2017-06-19T15:14:35Z</time>
      </trkpt>
      <trkpt lat="61.032990971580148" lon="7.799180019646883">
        <ele>369.75999999999999</ele>
        <time>2017-06-19T15:14:36Z</time>
      </trkpt>
      <trkpt lat="61.033394979313016" lon="7.801618985831738">
        <ele>370.73000000000002</ele>
        <time>2017-06-19T15:14:45Z</time>
      </trkpt>
      <trkpt lat="61.033621039241552" lon="7.805271986871958">
        <ele>376.97000000000003</ele>
        <time>2017-06-19T15:14:56Z</time>
      </trkpt>
      <trkpt lat="61.033555995672941" lon="7.806402035057545">
        <ele>379.38</ele>
        <time>2017-06-19T15:15:00Z</time>
      </trkpt>
      <trkpt lat="61.033569993451238" lon="7.806644020602107">
        <ele>379.86000000000001</ele>
        <time>2017-06-19T15:15:01Z</time>
      </trkpt>
      <trkpt lat="61.03361701592803" lon="7.806915007531643">
        <ele>379.86000000000001</ele>
        <time>2017-06-19T15:15:02Z</time>
      </trkpt>
      <trkpt lat="61.033670995384455" lon="7.807180965319276">
        <ele>379.86000000000001</ele>
        <time>2017-06-19T15:15:03Z</time>
      </trkpt>
      <trkpt lat="61.033739978447556" lon="7.807442983612418">
        <ele>380.33999999999997</ele>
        <time>2017-06-19T15:15:04Z</time>
      </trkpt>
      <trkpt lat="61.033821031451225" lon="7.807701984420419">
        <ele>381.30000000000001</ele>
        <time>2017-06-19T15:15:05Z</time>
      </trkpt>
      <trkpt lat="61.03391801007092" lon="7.807948999106884">
        <ele>382.25999999999999</ele>
        <time>2017-06-19T15:15:06Z</time>
      </trkpt>
      <trkpt lat="61.034024963155389" lon="7.808151002973318">
        <ele>382.25999999999999</ele>
        <time>2017-06-19T15:15:07Z</time>
      </trkpt>
      <trkpt lat="61.034137029200792" lon="7.808325011283159">
        <ele>382.74000000000001</ele>
        <time>2017-06-19T15:15:08Z</time>
      </trkpt>
      <trkpt lat="61.034259991720319" lon="7.808464989066124">
        <ele>383.22000000000003</ele>
        <time>2017-06-19T15:15:09Z</time>
      </trkpt>
      <trkpt lat="61.034397035837173" lon="7.80858501791954">
        <ele>383.69999999999999</ele>
        <time>2017-06-19T15:15:10Z</time>
      </trkpt>
      <trkpt lat="61.034539025276899" lon="7.808690965175629">
        <ele>384.18000000000001</ele>
        <time>2017-06-19T15:15:11Z</time>
      </trkpt>
      <trkpt lat="61.03591600432992" lon="7.809544997289777">
        <ele>389.47000000000003</ele>
        <time>2017-06-19T15:15:20Z</time>
      </trkpt>
      <trkpt lat="61.036047013476491" lon="7.809700984507799">
        <ele>389.94999999999999</ele>
        <time>2017-06-19T15:15:21Z</time>
      </trkpt>
      <trkpt lat="61.036163019016385" lon="7.809880021959543">
        <ele>389.94999999999999</ele>
        <time>2017-06-19T15:15:22Z</time>
      </trkpt>
      <trkpt lat="61.036262009292841" lon="7.810072973370552">
        <ele>390.43000000000001</ele>
        <time>2017-06-19T15:15:23Z</time>
      </trkpt>
      <trkpt lat="61.036333004012704" lon="7.810279000550509">
        <ele>390.91000000000003</ele>
        <time>2017-06-19T15:15:24Z</time>
      </trkpt>
      <trkpt lat="61.036382960155606" lon="7.810487961396575">
        <ele>391.38999999999999</ele>
        <time>2017-06-19T15:15:25Z</time>
      </trkpt>
      <trkpt lat="61.036420008167624" lon="7.810704968869686">
        <ele>391.87</ele>
        <time>2017-06-19T15:15:26Z</time>
      </trkpt>
      <trkpt lat="61.036445992067456" lon="7.810938991606236">
        <ele>391.38999999999999</ele>
        <time>2017-06-19T15:15:27Z</time>
      </trkpt>
      <trkpt lat="61.036483040079474" lon="7.811181982979178">
        <ele>391.38999999999999</ele>
        <time>2017-06-19T15:15:28Z</time>
      </trkpt>
      <trkpt lat="61.03653903119266" lon="7.81141902320087">
        <ele>391.87</ele>
        <time>2017-06-19T15:15:29Z</time>
      </trkpt>
      <trkpt lat="61.036616982892156" lon="7.811646005138755">
        <ele>392.36000000000001</ele>
        <time>2017-06-19T15:15:30Z</time>
      </trkpt>
      <trkpt lat="61.036708010360599" lon="7.811870975419879">
        <ele>393.31999999999999</ele>
        <time>2017-06-19T15:15:31Z</time>
      </trkpt>
      <trkpt lat="61.036807000637054" lon="7.812096029520035">
        <ele>393.80000000000001</ele>
        <time>2017-06-19T15:15:32Z</time>
      </trkpt>
      <trkpt lat="61.037469003349543" lon="7.814293010160327">
        <ele>398.12</ele>
        <time>2017-06-19T15:15:41Z</time>
      </trkpt>
      <trkpt lat="61.037542009726167" lon="7.814495014026761">
        <ele>398.60000000000002</ele>
        <time>2017-06-19T15:15:42Z</time>
      </trkpt>
      <trkpt lat="61.037622978910804" lon="7.814672961831093">
        <ele>399.07999999999998</ele>
        <time>2017-06-19T15:15:43Z</time>
      </trkpt>
      <trkpt lat="61.037715012207627" lon="7.814821992069483">
        <ele>399.07999999999998</ele>
        <time>2017-06-19T15:15:44Z</time>
      </trkpt>
      <trkpt lat="61.037818025797606" lon="7.814946966245771">
        <ele>399.56999999999999</ele>
        <time>2017-06-19T15:15:45Z</time>
      </trkpt>
      <trkpt lat="61.037932019680738" lon="7.815041011199355">
        <ele>399.56999999999999</ele>
        <time>2017-06-19T15:15:46Z</time>
      </trkpt>
      <trkpt lat="61.038057999685407" lon="7.815103959292173">
        <ele>399.56999999999999</ele>
        <time>2017-06-19T15:15:47Z</time>
      </trkpt>
      <trkpt lat="61.03819495998323" lon="7.815136983990669">
        <ele>399.07999999999998</ele>
        <time>2017-06-19T15:15:48Z</time>
      </trkpt>
      <trkpt lat="61.038335021585226" lon="7.815155005082488">
        <ele>398.60000000000002</ele>
        <time>2017-06-19T15:15:49Z</time>
      </trkpt>
      <trkpt lat="61.038481034338474" lon="7.815169002860785">
        <ele>398.60000000000002</ele>
        <time>2017-06-19T15:15:50Z</time>
      </trkpt>
      <trkpt lat="61.040362017229199" lon="7.815600000321865">
        <ele>393.80000000000001</ele>
        <time>2017-06-19T15:16:02Z</time>
      </trkpt>
      <trkpt lat="61.041646040976048" lon="7.816131999716163">
        <ele>395.72000000000003</ele>
        <time>2017-06-19T15:16:11Z</time>
      </trkpt>
      <trkpt lat="61.042563021183014" lon="7.816120013594627">
        <ele>397.16000000000003</ele>
        <time>2017-06-19T15:16:17Z</time>
      </trkpt>
      <trkpt lat="61.042708028107882" lon="7.816058993339539">
        <ele>397.63999999999999</ele>
        <time>2017-06-19T15:16:18Z</time>
      </trkpt>
      <trkpt lat="61.04285697452724" lon="7.81595204025507">
        <ele>398.60000000000002</ele>
        <time>2017-06-19T15:16:19Z</time>
      </trkpt>
      <trkpt lat="61.043002987280488" lon="7.815831005573273">
        <ele>399.07999999999998</ele>
        <time>2017-06-19T15:16:20Z</time>
      </trkpt>
      <trkpt lat="61.043149000033736" lon="7.815687004476786">
        <ele>399.56999999999999</ele>
        <time>2017-06-19T15:16:21Z</time>
      </trkpt>
      <trkpt lat="61.043285960331559" lon="7.815500004217029">
        <ele>400.05000000000001</ele>
        <time>2017-06-19T15:16:22Z</time>
      </trkpt>
      <trkpt lat="61.043417975306511" lon="7.815286014229059">
        <ele>401.00999999999999</ele>
        <time>2017-06-19T15:16:23Z</time>
      </trkpt>
      <trkpt lat="61.043540015816689" lon="7.815048974007368">
        <ele>401.49000000000001</ele>
        <time>2017-06-19T15:16:24Z</time>
      </trkpt>
      <trkpt lat="61.043655015528202" lon="7.81479399651289">
        <ele>401.97000000000003</ele>
        <time>2017-06-19T15:16:25Z</time>
      </trkpt>
      <trkpt lat="61.043763980269432" lon="7.814539019018412">
        <ele>402.93000000000001</ele>
        <time>2017-06-19T15:16:26Z</time>
      </trkpt>
      <trkpt lat="61.044105039909482" lon="7.813688004389405">
        <ele>405.32999999999998</ele>
        <time>2017-06-19T15:16:31Z</time>
      </trkpt>
      <trkpt lat="61.044262032955885" lon="7.813237980008125">
        <ele>406.29000000000002</ele>
        <time>2017-06-19T15:16:36Z</time>
      </trkpt>
      <trkpt lat="61.044315006583929" lon="7.813149970024824">
        <ele>406.76999999999998</ele>
        <time>2017-06-19T15:16:37Z</time>
      </trkpt>
      <trkpt lat="61.044378038495779" lon="7.813061960041523">
        <ele>406.76999999999998</ele>
        <time>2017-06-19T15:16:38Z</time>
      </trkpt>
      <trkpt lat="61.044454984366894" lon="7.812991971150041">
        <ele>407.25999999999999</ele>
        <time>2017-06-19T15:16:39Z</time>
      </trkpt>
      <trkpt lat="61.044542994350195" lon="7.812944026663899">
        <ele>407.74000000000001</ele>
        <time>2017-06-19T15:16:40Z</time>
      </trkpt>
      <trkpt lat="61.044635027647018" lon="7.81290203332901">
        <ele>408.22000000000003</ele>
        <time>2017-06-19T15:16:41Z</time>
      </trkpt>
      <trkpt lat="61.045149005949497" lon="7.81275199726224">
        <ele>409.66000000000003</ele>
        <time>2017-06-19T15:16:46Z</time>
      </trkpt>
      <trkpt lat="61.045249002054334" lon="7.812813017517328">
        <ele>408.69999999999999</ele>
        <time>2017-06-19T15:16:47Z</time>
      </trkpt>
      <trkpt lat="61.046394975855947" lon="7.812892980873585">
        <ele>404.37</ele>
        <time>2017-06-19T15:16:56Z</time>
      </trkpt>
      <trkpt lat="61.04681096971035" lon="7.813004963099957">
        <ele>405.32999999999998</ele>
        <time>2017-06-19T15:17:01Z</time>
      </trkpt>
      <trkpt lat="61.047476995736361" lon="7.813277961686254">
        <ele>404.85000000000002</ele>
        <time>2017-06-19T15:17:11Z</time>
      </trkpt>
      <trkpt lat="61.048016035929322" lon="7.813499998301268">
        <ele>406.29000000000002</ele>
        <time>2017-06-19T15:17:21Z</time>
      </trkpt>
      <trkpt lat="61.048105973750353" lon="7.813537968322635">
        <ele>406.29000000000002</ele>
        <time>2017-06-19T15:17:23Z</time>
      </trkpt>
      <trkpt lat="61.048413002863526" lon="7.813866036012769">
        <ele>407.74000000000001</ele>
        <time>2017-06-19T15:17:32Z</time>
      </trkpt>
    </trkseg>
  </trk>

  <trk>
    <name>Track vom: 19 JUN 2017 18:07</name>
    <extensions>
      <gpxx:TrackExtension>
        <gpxx:DisplayColor>DarkGray</gpxx:DisplayColor>
      </gpxx:TrackExtension>
    </extensions>
    <trkseg>
      <trkpt lat="61.048690024763346" lon="7.81404297798872">
        <ele>403.41000000000003</ele>
        <time>2017-06-19T16:07:13Z</time>
      </trkpt>
      <trkpt lat="61.048730006441474" lon="7.814135011285543">
        <ele>412.06</ele>
        <time>2017-06-19T16:08:20Z</time>
      </trkpt>
      <trkpt lat="61.048708967864513" lon="7.814119001850486">
        <ele>406.76999999999998</ele>
        <time>2017-06-19T16:09:12Z</time>
      </trkpt>
      <trkpt lat="61.048739980906248" lon="7.813889002427459">
        <ele>407.25999999999999</ele>
        <time>2017-06-19T16:09:16Z</time>
      </trkpt>
      <trkpt lat="61.048705028370023" lon="7.813765034079552">
        <ele>407.25999999999999</ele>
        <time>2017-06-19T16:09:18Z</time>
      </trkpt>
      <trkpt lat="61.048667980358005" lon="7.813703007996082">
        <ele>406.76999999999998</ele>
        <time>2017-06-19T16:09:19Z</time>
      </trkpt>
      <trkpt lat="61.04861500672996" lon="7.813657997176051">
        <ele>406.76999999999998</ele>
        <time>2017-06-19T16:09:20Z</time>
      </trkpt>
      <trkpt lat="61.04855096898973" lon="7.8136330191046">
        <ele>406.29000000000002</ele>
        <time>2017-06-19T16:09:21Z</time>
      </trkpt>
      <trkpt lat="61.048480980098248" lon="7.813621032983065">
        <ele>405.81</ele>
        <time>2017-06-19T16:09:22Z</time>
      </trkpt>
      <trkpt lat="61.04751898907125" lon="7.813345016911626">
        <ele>404.37</ele>
        <time>2017-06-19T16:09:32Z</time>
      </trkpt>
      <trkpt lat="61.046365974470973" lon="7.812917958945036">
        <ele>405.32999999999998</ele>
        <time>2017-06-19T16:09:42Z</time>
      </trkpt>
      <trkpt lat="61.045088991522789" lon="7.812763983383775">
        <ele>406.76999999999998</ele>
        <time>2017-06-19T16:09:51Z</time>
      </trkpt>
      <trkpt lat="61.044956976547837" lon="7.812765995040536">
        <ele>405.81</ele>
        <time>2017-06-19T16:09:52Z</time>
      </trkpt>
      <trkpt lat="61.044840971007943" lon="7.812798013910651">
        <ele>405.32999999999998</ele>
        <time>2017-06-19T16:09:53Z</time>
      </trkpt>
      <trkpt lat="61.044749021530151" lon="7.812844030559063">
        <ele>404.85000000000002</ele>
        <time>2017-06-19T16:09:54Z</time>
      </trkpt>
      <trkpt lat="61.044516004621983" lon="7.812975039705634">
        <ele>403.88999999999999</ele>
        <time>2017-06-19T16:09:57Z</time>
      </trkpt>
      <trkpt lat="61.044440986588597" lon="7.813034970313311">
        <ele>402.93000000000001</ele>
        <time>2017-06-19T16:09:58Z</time>
      </trkpt>
      <trkpt lat="61.044366974383593" lon="7.81311702914536">
        <ele>402.93000000000001</ele>
        <time>2017-06-19T16:09:59Z</time>
      </trkpt>
      <trkpt lat="61.044300002977252" lon="7.813196992501617">
        <ele>402.93000000000001</ele>
        <time>2017-06-19T16:10:00Z</time>
      </trkpt>
      <trkpt lat="61.044248035177588" lon="7.813277961686254">
        <ele>402.44999999999999</ele>
        <time>2017-06-19T16:10:01Z</time>
      </trkpt>
      <trkpt lat="61.044203024357557" lon="7.813361026346684">
        <ele>403.41000000000003</ele>
        <time>2017-06-19T16:10:02Z</time>
      </trkpt>
      <trkpt lat="61.044122977182269" lon="7.813509972766042">
        <ele>402.44999999999999</ele>
        <time>2017-06-19T16:10:04Z</time>
      </trkpt>
      <trkpt lat="61.043942011892796" lon="7.813895959407091">
        <ele>400.52999999999997</ele>
        <time>2017-06-19T16:10:08Z</time>
      </trkpt>
      <trkpt lat="61.043890966102481" lon="7.814034009352326">
        <ele>399.56999999999999</ele>
        <time>2017-06-19T16:10:09Z</time>
      </trkpt>
      <trkpt lat="61.043204991146922" lon="7.815337982028723">
        <ele>398.12</ele>
        <time>2017-06-19T16:10:17Z</time>
      </trkpt>
      <trkpt lat="61.042815987020731" lon="7.815780965611339">
        <ele>394.75999999999999</ele>
        <time>2017-06-19T16:10:20Z</time>
      </trkpt>
      <trkpt lat="61.042673997581005" lon="7.815891019999981">
        <ele>393.80000000000001</ele>
        <time>2017-06-19T16:10:21Z</time>
      </trkpt>
      <trkpt lat="61.042521027848125" lon="7.816021023318172">
        <ele>392.83999999999997</ele>
        <time>2017-06-19T16:10:22Z</time>
      </trkpt>
      <trkpt lat="61.042381972074509" lon="7.816066034138203">
        <ele>392.83999999999997</ele>
        <time>2017-06-19T16:10:23Z</time>
      </trkpt>
      <trkpt lat="61.042243000119925" lon="7.816109033301473">
        <ele>393.31999999999999</ele>
        <time>2017-06-19T16:10:24Z</time>
      </trkpt>
      <trkpt lat="61.040885969996452" lon="7.815903006121516">
        <ele>391.87</ele>
        <time>2017-06-19T16:10:34Z</time>
      </trkpt>
      <trkpt lat="61.039478983730078" lon="7.8152010217309">
        <ele>393.31999999999999</ele>
        <time>2017-06-19T16:10:44Z</time>
      </trkpt>
      <trkpt lat="61.037897989153862" lon="7.81490002758801">
        <ele>394.75999999999999</ele>
        <time>2017-06-19T16:10:55Z</time>
      </trkpt>
      <trkpt lat="61.037769997492433" lon="7.814805982634425">
        <ele>394.27999999999997</ele>
        <time>2017-06-19T16:10:56Z</time>
      </trkpt>
      <trkpt lat="61.037651980295777" lon="7.814684025943279">
        <ele>393.80000000000001</ele>
        <time>2017-06-19T16:10:57Z</time>
      </trkpt>
      <trkpt lat="61.037547960877419" lon="7.814530972391367">
        <ele>393.31999999999999</ele>
        <time>2017-06-19T16:10:58Z</time>
      </trkpt>
      <trkpt lat="61.037455005571246" lon="7.814337015151978">
        <ele>392.36000000000001</ele>
        <time>2017-06-19T16:10:59Z</time>
      </trkpt>
      <trkpt lat="61.037374036386609" lon="7.814105004072189">
        <ele>391.87</ele>
        <time>2017-06-19T16:11:00Z</time>
      </trkpt>
      <trkpt lat="61.037303041666746" lon="7.813854971900582">
        <ele>390.43000000000001</ele>
        <time>2017-06-19T16:11:01Z</time>
      </trkpt>
      <trkpt lat="61.037231041118503" lon="7.813576022163034">
        <ele>389.47000000000003</ele>
        <time>2017-06-19T16:11:02Z</time>
      </trkpt>
      <trkpt lat="61.036473987624049" lon="7.811253983527422">
        <ele>383.22000000000003</ele>
        <time>2017-06-19T16:11:11Z</time>
      </trkpt>
      <trkpt lat="61.03641296736896" lon="7.810975033789873">
        <ele>382.25999999999999</ele>
        <time>2017-06-19T16:11:12Z</time>
      </trkpt>
      <trkpt lat="61.036244994029403" lon="7.810136005282402">
        <ele>379.86000000000001</ele>
        <time>2017-06-19T16:11:15Z</time>
      </trkpt>
      <trkpt lat="61.036158995702863" lon="7.809897037222982">
        <ele>377.44999999999999</ele>
        <time>2017-06-19T16:11:16Z</time>
      </trkpt>
      <trkpt lat="61.03606604039669" lon="7.80968296341598">
        <ele>376.49000000000001</ele>
        <time>2017-06-19T16:11:17Z</time>
      </trkpt>
      <trkpt lat="61.035954980179667" lon="7.809506021440029">
        <ele>375.52999999999997</ele>
        <time>2017-06-19T16:11:18Z</time>
      </trkpt>
      <trkpt lat="61.035826988518238" lon="7.809386998414993">
        <ele>374.56999999999999</ele>
        <time>2017-06-19T16:11:19Z</time>
      </trkpt>
      <trkpt lat="61.035689022392035" lon="7.809284990653396">
        <ele>374.56999999999999</ele>
        <time>2017-06-19T16:11:20Z</time>
      </trkpt>
      <trkpt lat="61.034511029720306" lon="7.80860697850585">
        <ele>369.27999999999997</ele>
        <time>2017-06-19T16:11:28Z</time>
      </trkpt>
      <trkpt lat="61.034056982025504" lon="7.808165000751615">
        <ele>366.39999999999998</ele>
        <time>2017-06-19T16:11:32Z</time>
      </trkpt>
      <trkpt lat="61.033956985920668" lon="7.808011025190353">
        <ele>365.44</ele>
        <time>2017-06-19T16:11:33Z</time>
      </trkpt>
      <trkpt lat="61.033865958452225" lon="7.807822013273835">
        <ele>364.48000000000002</ele>
        <time>2017-06-19T16:11:34Z</time>
      </trkpt>
      <trkpt lat="61.033784989267588" lon="7.807610034942627">
        <ele>363.51999999999998</ele>
        <time>2017-06-19T16:11:35Z</time>
      </trkpt>
      <trkpt lat="61.033709971234202" lon="7.80738296918571">
        <ele>363.04000000000002</ele>
        <time>2017-06-19T16:11:36Z</time>
      </trkpt>
      <trkpt lat="61.033601006492972" lon="7.806943003088236">
        <ele>361.58999999999997</ele>
        <time>2017-06-19T16:11:38Z</time>
      </trkpt>
      <trkpt lat="61.033565970137715" lon="7.806709986180067">
        <ele>361.11000000000001</ele>
        <time>2017-06-19T16:11:39Z</time>
      </trkpt>
      <trkpt lat="61.033547027036548" lon="7.806474035605788">
        <ele>360.63</ele>
        <time>2017-06-19T16:11:40Z</time>
      </trkpt>
      <trkpt lat="61.033538980409503" lon="7.806238001212478">
        <ele>360.14999999999998</ele>
        <time>2017-06-19T16:11:41Z</time>
      </trkpt>
      <trkpt lat="61.033540992066264" lon="7.805971037596464">
        <ele>359.19</ele>
        <time>2017-06-19T16:11:42Z</time>
      </trkpt>
      <trkpt lat="61.033568987622857" lon="7.805707007646561">
        <ele>358.70999999999998</ele>
        <time>2017-06-19T16:11:43Z</time>
      </trkpt>
      <trkpt lat="61.033601006492972" lon="7.80542403459549">
        <ele>357.75</ele>
        <time>2017-06-19T16:11:44Z</time>
      </trkpt>
      <trkpt lat="61.033668983727694" lon="7.804198013618588">
        <ele>355.82999999999998</ele>
        <time>2017-06-19T16:11:48Z</time>
      </trkpt>
      <trkpt lat="61.033356003463268" lon="7.800364969298244">
        <ele>349.57999999999998</ele>
        <time>2017-06-19T16:12:01Z</time>
      </trkpt>
      <trkpt lat="61.032993989065289" lon="7.798557998612523">
        <ele>349.10000000000002</ele>
        <time>2017-06-19T16:12:09Z</time>
      </trkpt>
      <trkpt lat="61.032980997115374" lon="7.79833797365427">
        <ele>349.10000000000002</ele>
        <time>2017-06-19T16:12:10Z</time>
      </trkpt>
      <trkpt lat="61.032976973801851" lon="7.798107974231243">
        <ele>348.62</ele>
        <time>2017-06-19T16:12:11Z</time>
      </trkpt>
      <trkpt lat="61.033000024035573" lon="7.7976059820503">
        <ele>348.13</ele>
        <time>2017-06-19T16:12:13Z</time>
      </trkpt>
      <trkpt lat="61.033040005713701" lon="7.797341030091047">
        <ele>347.17000000000002</ele>
        <time>2017-06-19T16:12:14Z</time>
      </trkpt>
      <trkpt lat="61.033126004040241" lon="7.796848006546497">
        <ele>346.20999999999998</ele>
        <time>2017-06-19T16:12:16Z</time>
      </trkpt>
      <trkpt lat="61.033178977668285" lon="7.796643991023302">
        <ele>345.25</ele>
        <time>2017-06-19T16:12:17Z</time>
      </trkpt>
      <trkpt lat="61.033250978216529" lon="7.796461014077067">
        <ele>344.29000000000002</ele>
        <time>2017-06-19T16:12:18Z</time>
      </trkpt>
      <trkpt lat="61.033346028998494" lon="7.796301003545523">
        <ele>343.81</ele>
        <time>2017-06-19T16:12:19Z</time>
      </trkpt>
      <trkpt lat="61.03348801843822" lon="7.796177035197616">
        <ele>343.32999999999998</ele>
        <time>2017-06-19T16:12:20Z</time>
      </trkpt>
      <trkpt lat="61.033612992614508" lon="7.796060023829341">
        <ele>342.37</ele>
        <time>2017-06-19T16:12:21Z</time>
      </trkpt>
      <trkpt lat="61.033761017024517" lon="7.795956004410982">
        <ele>341.88999999999999</ele>
        <time>2017-06-19T16:12:22Z</time>
      </trkpt>
      <trkpt lat="61.034938003867865" lon="7.795447977259755">
        <ele>337.07999999999998</ele>
        <time>2017-06-19T16:12:30Z</time>
      </trkpt>
      <trkpt lat="61.036296039819717" lon="7.795052016153932">
        <ele>332.26999999999998</ele>
        <time>2017-06-19T16:12:39Z</time>
      </trkpt>
      <trkpt lat="61.036877995356917" lon="7.795151006430388">
        <ele>329.38999999999999</ele>
        <time>2017-06-19T16:12:43Z</time>
      </trkpt>
      <trkpt lat="61.038500983268023" lon="7.79629597440362">
        <ele>318.81</ele>
        <time>2017-06-19T16:12:53Z</time>
      </trkpt>
      <trkpt lat="61.038828967139125" lon="7.796439975500107">
        <ele>316.88999999999999</ele>
        <time>2017-06-19T16:12:55Z</time>
      </trkpt>
      <trkpt lat="61.039808979257941" lon="7.796715991571546">
        <ele>312.08999999999997</ele>
        <time>2017-06-19T16:13:01Z</time>
      </trkpt>
      <trkpt lat="61.039974018931389" lon="7.796650025993586">
        <ele>311.12</ele>
        <time>2017-06-19T16:13:02Z</time>
      </trkpt>
      <trkpt lat="61.040950007736683" lon="7.796459002420306">
        <ele>312.56999999999999</ele>
        <time>2017-06-19T16:13:09Z</time>
      </trkpt>
      <trkpt lat="61.041071964427829" lon="7.7964679710567">
        <ele>312.56999999999999</ele>
        <time>2017-06-19T16:13:10Z</time>
      </trkpt>
      <trkpt lat="61.041183024644852" lon="7.796514993533492">
        <ele>312.56999999999999</ele>
        <time>2017-06-19T16:13:11Z</time>
      </trkpt>
      <trkpt lat="61.041295006871223" lon="7.796558998525143">
        <ele>312.56999999999999</ele>
        <time>2017-06-19T16:13:12Z</time>
      </trkpt>
      <trkpt lat="61.041407994925976" lon="7.796623958274722">
        <ele>311.60000000000002</ele>
        <time>2017-06-19T16:13:13Z</time>
      </trkpt>
      <trkpt lat="61.041989028453827" lon="7.796764019876719">
        <ele>310.16000000000003</ele>
        <time>2017-06-19T16:13:18Z</time>
      </trkpt>
      <trkpt lat="61.042968034744263" lon="7.796404017135501">
        <ele>305.36000000000001</ele>
        <time>2017-06-19T16:13:25Z</time>
      </trkpt>
      <trkpt lat="61.044120965525508" lon="7.79515603557229">
        <ele>298.14999999999998</ele>
        <time>2017-06-19T16:13:34Z</time>
      </trkpt>
      <trkpt lat="61.045362995937467" lon="7.792209964245558">
        <ele>291.89999999999998</ele>
        <time>2017-06-19T16:13:46Z</time>
      </trkpt>
      <trkpt lat="61.046187020838261" lon="7.78961299918592">
        <ele>289.97000000000003</ele>
        <time>2017-06-19T16:13:56Z</time>
      </trkpt>
      <trkpt lat="61.046728994697332" lon="7.786651002243161">
        <ele>284.69</ele>
        <time>2017-06-19T16:14:07Z</time>
      </trkpt>
      <trkpt lat="61.046906020492315" lon="7.783246021717787">
        <ele>281.80000000000001</ele>
        <time>2017-06-19T16:14:17Z</time>
      </trkpt>
      <trkpt lat="61.046840976923704" lon="7.781031019985676">
        <ele>281.31999999999999</ele>
        <time>2017-06-19T16:14:24Z</time>
      </trkpt>
      <trkpt lat="61.046798983588815" lon="7.780773025006056">
        <ele>281.31999999999999</ele>
        <time>2017-06-19T16:14:25Z</time>
      </trkpt>
      <trkpt lat="61.04674500413239" lon="7.780536990612745">
        <ele>281.31999999999999</ele>
        <time>2017-06-19T16:14:26Z</time>
      </trkpt>
      <trkpt lat="61.046660011634231" lon="7.780317971482873">
        <ele>281.31999999999999</ele>
        <time>2017-06-19T16:14:27Z</time>
      </trkpt>
      <trkpt lat="61.046567978337407" lon="7.780126025900245">
        <ele>281.31999999999999</ele>
        <time>2017-06-19T16:14:28Z</time>
      </trkpt>
      <trkpt lat="61.046468988060951" lon="7.779959980398417">
        <ele>280.83999999999997</ele>
        <time>2017-06-19T16:14:29Z</time>
      </trkpt>
      <trkpt lat="61.046349965035915" lon="7.779797958210111">
        <ele>280.83999999999997</ele>
        <time>2017-06-19T16:14:30Z</time>
      </trkpt>
      <trkpt lat="61.046235971152782" lon="7.779650017619133">
        <ele>280.83999999999997</ele>
        <time>2017-06-19T16:14:31Z</time>
      </trkpt>
      <trkpt lat="61.045706989243627" lon="7.778844013810158">
        <ele>277.95999999999998</ele>
        <time>2017-06-19T16:14:36Z</time>
      </trkpt>
      <trkpt lat="61.04562702588737" lon="7.778626000508666">
        <ele>277</ele>
        <time>2017-06-19T16:14:37Z</time>
      </trkpt>
      <trkpt lat="61.045564999803901" lon="7.778383009135723">
        <ele>276.04000000000002</ele>
        <time>2017-06-19T16:14:38Z</time>
      </trkpt>
      <trkpt lat="61.045522000640631" lon="7.778115961700678">
        <ele>275.56</ele>
        <time>2017-06-19T16:14:39Z</time>
      </trkpt>
      <trkpt lat="61.045502973720431" lon="7.777830976992846">
        <ele>274.58999999999997</ele>
        <time>2017-06-19T16:14:40Z</time>
      </trkpt>
      <trkpt lat="61.045499034225941" lon="7.777529982849956">
        <ele>273.63</ele>
        <time>2017-06-19T16:14:41Z</time>
      </trkpt>
      <trkpt lat="61.045506997033954" lon="7.77721599675715">
        <ele>273.14999999999998</ele>
        <time>2017-06-19T16:14:42Z</time>
      </trkpt>
      <trkpt lat="61.045770021155477" lon="7.773023033514619">
        <ele>269.31</ele>
        <time>2017-06-19T16:14:55Z</time>
      </trkpt>
      <trkpt lat="61.046505030244589" lon="7.77004100382328">
        <ele>268.82999999999998</ele>
        <time>2017-06-19T16:15:05Z</time>
      </trkpt>
      <trkpt lat="61.04719502851367" lon="7.767255026847124">
        <ele>264.01999999999998</ele>
        <time>2017-06-19T16:15:14Z</time>
      </trkpt>
      <trkpt lat="61.047844961285591" lon="7.76479602791369">
        <ele>261.13999999999999</ele>
        <time>2017-06-19T16:15:22Z</time>
      </trkpt>
      <trkpt lat="61.048058029264212" lon="7.764047021046281">
        <ele>261.13999999999999</ele>
        <time>2017-06-19T16:15:25Z</time>
      </trkpt>
      <trkpt lat="61.048085018992424" lon="7.763795983046293">
        <ele>261.62</ele>
        <time>2017-06-19T16:15:26Z</time>
      </trkpt>
      <trkpt lat="61.048085018992424" lon="7.763520972803235">
        <ele>262.10000000000002</ele>
        <time>2017-06-19T16:15:27Z</time>
      </trkpt>
      <trkpt lat="61.048064986243844" lon="7.763239005580545">
        <ele>262.57999999999998</ele>
        <time>2017-06-19T16:15:28Z</time>
      </trkpt>
      <trkpt lat="61.048014024272561" lon="7.76295100338757">
        <ele>262.10000000000002</ele>
        <time>2017-06-19T16:15:29Z</time>
      </trkpt>
      <trkpt lat="61.047931965440512" lon="7.762657972052693">
        <ele>261.62</ele>
        <time>2017-06-19T16:15:30Z</time>
      </trkpt>
      <trkpt lat="61.047844961285591" lon="7.762366030365229">
        <ele>261.13999999999999</ele>
        <time>2017-06-19T16:15:31Z</time>
      </trkpt>
      <trkpt lat="61.047748988494277" lon="7.76206998154521">
        <ele>261.13999999999999</ele>
        <time>2017-06-19T16:15:32Z</time>
      </trkpt>
      <trkpt lat="61.047390997409821" lon="7.760923001915216">
        <ele>259.69</ele>
        <time>2017-06-19T16:15:36Z</time>
      </trkpt>
      <trkpt lat="61.047327965497971" lon="7.760625025257468">
        <ele>259.20999999999998</ele>
        <time>2017-06-19T16:15:37Z</time>
      </trkpt>
      <trkpt lat="61.047280021011829" lon="7.760313972830772">
        <ele>259.20999999999998</ele>
        <time>2017-06-19T16:15:38Z</time>
      </trkpt>
      <trkpt lat="61.047246996313334" lon="7.760001998394728">
        <ele>259.20999999999998</ele>
        <time>2017-06-19T16:15:39Z</time>
      </trkpt>
      <trkpt lat="61.047228975221515" lon="7.759699998423457">
        <ele>258.73000000000002</ele>
        <time>2017-06-19T16:15:40Z</time>
      </trkpt>
      <trkpt lat="61.047229981049895" lon="7.759401015937328">
        <ele>258.73000000000002</ele>
        <time>2017-06-19T16:15:41Z</time>
      </trkpt>
      <trkpt lat="61.047242972999811" lon="7.759093986824155">
        <ele>258.73000000000002</ele>
        <time>2017-06-19T16:15:42Z</time>
      </trkpt>
      <trkpt lat="61.047265017405152" lon="7.758777989074588">
        <ele>258.73000000000002</ele>
        <time>2017-06-19T16:15:43Z</time>
      </trkpt>
      <trkpt lat="61.047559976577759" lon="7.7560989651829">
        <ele>258.73000000000002</ele>
        <time>2017-06-19T16:15:51Z</time>
      </trkpt>
      <trkpt lat="61.047624014317989" lon="7.755811968818307">
        <ele>259.20999999999998</ele>
        <time>2017-06-19T16:15:52Z</time>
      </trkpt>
      <trkpt lat="61.047712024301291" lon="7.755555985495448">
        <ele>259.20999999999998</ele>
        <time>2017-06-19T16:15:53Z</time>
      </trkpt>
      <trkpt lat="61.047809002920985" lon="7.755349958315492">
        <ele>259.69</ele>
        <time>2017-06-19T16:15:54Z</time>
      </trkpt>
      <trkpt lat="61.047919979318976" lon="7.755214003846049">
        <ele>260.17000000000002</ele>
        <time>2017-06-19T16:15:55Z</time>
      </trkpt>
      <trkpt lat="61.048021987080574" lon="7.755101015791297">
        <ele>260.64999999999998</ele>
        <time>2017-06-19T16:15:56Z</time>
      </trkpt>
      <trkpt lat="61.048167999833822" lon="7.754916027188301">
        <ele>260.64999999999998</ele>
        <time>2017-06-19T16:15:58Z</time>
      </trkpt>
      <trkpt lat="61.048213010653853" lon="7.754806978628039">
        <ele>260.64999999999998</ele>
        <time>2017-06-19T16:15:59Z</time>
      </trkpt>
      <trkpt lat="61.048235977068543" lon="7.754671024158597">
        <ele>260.64999999999998</ele>
        <time>2017-06-19T16:16:00Z</time>
      </trkpt>
      <trkpt lat="61.048232959583402" lon="7.754530962556601">
        <ele>260.64999999999998</ele>
        <time>2017-06-19T16:16:01Z</time>
      </trkpt>
      <trkpt lat="61.048216028138995" lon="7.754405988380313">
        <ele>261.13999999999999</ele>
        <time>2017-06-19T16:16:02Z</time>
      </trkpt>
      <trkpt lat="61.048183003440499" lon="7.754297023639083">
        <ele>261.13999999999999</ele>
        <time>2017-06-19T16:16:03Z</time>
      </trkpt>
      <trkpt lat="61.048154002055526" lon="7.754198033362627">
        <ele>261.13999999999999</ele>
        <time>2017-06-19T16:16:04Z</time>
      </trkpt>
      <trkpt lat="61.048122989013791" lon="7.7539680339396">
        <ele>261.13999999999999</ele>
        <time>2017-06-19T16:16:06Z</time>
      </trkpt>
      <trkpt lat="61.048132041469216" lon="7.753825038671494">
        <ele>260.64999999999998</ele>
        <time>2017-06-19T16:16:07Z</time>
      </trkpt>
      <trkpt lat="61.048176968470216" lon="7.753680031746626">
        <ele>260.64999999999998</ele>
        <time>2017-06-19T16:16:08Z</time>
      </trkpt>
      <trkpt lat="61.048245029523969" lon="7.753535024821758">
        <ele>260.64999999999998</ele>
        <time>2017-06-19T16:16:09Z</time>
      </trkpt>
      <trkpt lat="61.04833597317338" lon="7.753369985148311">
        <ele>260.64999999999998</ele>
        <time>2017-06-19T16:16:10Z</time>
      </trkpt>
      <trkpt lat="61.04934599250555" lon="7.751423958688974">
        <ele>257.76999999999998</ele>
        <time>2017-06-19T16:16:19Z</time>
      </trkpt>
      <trkpt lat="61.051756963133812" lon="7.717542964965105">
        <ele>204.90000000000001</ele>
        <time>2017-06-19T16:17:45Z</time>
      </trkpt>
      <trkpt lat="61.051675993949175" lon="7.714115018025041">
        <ele>193.36000000000001</ele>
        <time>2017-06-19T16:17:53Z</time>
      </trkpt>
      <trkpt lat="61.051678005605936" lon="7.709335992112756">
        <ele>181.34999999999999</ele>
        <time>2017-06-19T16:18:04Z</time>
      </trkpt>
      <trkpt lat="61.051928037777543" lon="7.706736009567976">
        <ele>183.75</ele>
        <time>2017-06-19T16:18:10Z</time>
      </trkpt>
      <trkpt lat="61.052489038556814" lon="7.702962979674339">
        <ele>186.15000000000001</ele>
        <time>2017-06-19T16:18:19Z</time>
      </trkpt>
      <trkpt lat="61.052342019975185" lon="7.699937028810382">
        <ele>183.27000000000001</ele>
        <time>2017-06-19T16:18:26Z</time>
      </trkpt>
      <trkpt lat="61.051668031141162" lon="7.697186004370451">
        <ele>177.02000000000001</ele>
        <time>2017-06-19T16:18:33Z</time>
      </trkpt>
      <trkpt lat="61.0511289909482" lon="7.694823984056711">
        <ele>170.77000000000001</ele>
        <time>2017-06-19T16:18:39Z</time>
      </trkpt>
      <trkpt lat="61.051094960421324" lon="7.694392986595631">
        <ele>169.81</ele>
        <time>2017-06-19T16:18:40Z</time>
      </trkpt>
      <trkpt lat="61.051074005663395" lon="7.693954026326537">
        <ele>168.84999999999999</ele>
        <time>2017-06-19T16:18:41Z</time>
      </trkpt>
      <trkpt lat="61.051068976521492" lon="7.693504001945257">
        <ele>167.41</ele>
        <time>2017-06-19T16:18:42Z</time>
      </trkpt>
      <trkpt lat="61.051080040633678" lon="7.693047020584345">
        <ele>166.44999999999999</ele>
        <time>2017-06-19T16:18:43Z</time>
      </trkpt>
      <trkpt lat="61.051099989563227" lon="7.692589033395052">
        <ele>165.47999999999999</ele>
        <time>2017-06-19T16:18:44Z</time>
      </trkpt>
      <trkpt lat="61.051617991179228" lon="7.688509980216622">
        <ele>150.58000000000001</ele>
        <time>2017-06-19T16:18:53Z</time>
      </trkpt>
      <trkpt lat="61.052515022456646" lon="7.686383994296193">
        <ele>142.88999999999999</ele>
        <time>2017-06-19T16:18:59Z</time>
      </trkpt>
      <trkpt lat="61.054080007597804" lon="7.684318022802472">
        <ele>135.68000000000001</ele>
        <time>2017-06-19T16:19:07Z</time>
      </trkpt>
      <trkpt lat="61.055120034143329" lon="7.682006964460015">
        <ele>130.88</ele>
        <time>2017-06-19T16:19:14Z</time>
      </trkpt>
      <trkpt lat="61.055870968848467" lon="7.678850004449487">
        <ele>128.94999999999999</ele>
        <time>2017-06-19T16:19:22Z</time>
      </trkpt>
      <trkpt lat="61.057388009503484" lon="7.670340025797486">
        <ele>127.03</ele>
        <time>2017-06-19T16:19:43Z</time>
      </trkpt>
      <trkpt lat="61.058235000818968" lon="7.663439037278295">
        <ele>123.67</ele>
        <time>2017-06-19T16:20:00Z</time>
      </trkpt>
      <trkpt lat="61.058326028287411" lon="7.659687967970967">
        <ele>117.90000000000001</ele>
        <time>2017-06-19T16:20:09Z</time>
      </trkpt>
      <trkpt lat="61.057782964780927" lon="7.656999975442886">
        <ele>116.45999999999999</ele>
        <time>2017-06-19T16:20:16Z</time>
      </trkpt>
      <trkpt lat="61.056808987632394" lon="7.65363497659564">
        <ele>113.56999999999999</ele>
        <time>2017-06-19T16:20:25Z</time>
      </trkpt>
      <trkpt lat="61.055664019659162" lon="7.649855995550752">
        <ele>108.29000000000001</ele>
        <time>2017-06-19T16:20:35Z</time>
      </trkpt>
      <trkpt lat="61.054895985871553" lon="7.646760977804661">
        <ele>103</ele>
        <time>2017-06-19T16:20:43Z</time>
      </trkpt>
      <trkpt lat="61.054125018417835" lon="7.644237019121647">
        <ele>98.670000000000002</ele>
        <time>2017-06-19T16:20:50Z</time>
      </trkpt>
      <trkpt lat="61.053070994094014" lon="7.641382981091738">
        <ele>94.829999999999998</ele>
        <time>2017-06-19T16:20:59Z</time>
      </trkpt>
      <trkpt lat="61.051834998652339" lon="7.638333979994059">
        <ele>89.540000000000006</ele>
        <time>2017-06-19T16:21:09Z</time>
      </trkpt>
      <trkpt lat="61.050384007394314" lon="7.635724022984505">
        <ele>84.730000000000004</ele>
        <time>2017-06-19T16:21:20Z</time>
      </trkpt>
      <trkpt lat="61.048317030072212" lon="7.632011007517576">
        <ele>78</ele>
        <time>2017-06-19T16:21:38Z</time>
      </trkpt>
      <trkpt lat="61.047165021300316" lon="7.629378000274301">
        <ele>77.040000000000006</ele>
        <time>2017-06-19T16:21:49Z</time>
      </trkpt>
      <trkpt lat="61.046377038583159" lon="7.626038985326886">
        <ele>72.719999999999999</ele>
        <time>2017-06-19T16:22:01Z</time>
      </trkpt>
      <trkpt lat="61.046103034168482" lon="7.624573996290565">
        <ele>71.760000000000005</ele>
        <time>2017-06-19T16:22:06Z</time>
      </trkpt>
      <trkpt lat="61.04607897810638" lon="7.62424299493432">
        <ele>71.760000000000005</ele>
        <time>2017-06-19T16:22:07Z</time>
      </trkpt>
      <trkpt lat="61.046065986156464" lon="7.623901013284922">
        <ele>71.269999999999996</ele>
        <time>2017-06-19T16:22:08Z</time>
      </trkpt>
      <trkpt lat="61.046061040833592" lon="7.623546961694956">
        <ele>71.269999999999996</ele>
        <time>2017-06-19T16:22:09Z</time>
      </trkpt>
      <trkpt lat="61.046066991984844" lon="7.623198023065925">
        <ele>71.269999999999996</ele>
        <time>2017-06-19T16:22:10Z</time>
      </trkpt>
      <trkpt lat="61.046203030273318" lon="7.619484001770616">
        <ele>68.390000000000001</ele>
        <time>2017-06-19T16:22:22Z</time>
      </trkpt>
      <trkpt lat="61.046409979462624" lon="7.614891976118088">
        <ele>64.549999999999997</ele>
        <time>2017-06-19T16:22:36Z</time>
      </trkpt>
      <trkpt lat="61.046458007767797" lon="7.614555023610592">
        <ele>64.549999999999997</ele>
        <time>2017-06-19T16:22:37Z</time>
      </trkpt>
      <trkpt lat="61.046523973345757" lon="7.614228967577219">
        <ele>64.549999999999997</ele>
        <time>2017-06-19T16:22:38Z</time>
      </trkpt>
      <trkpt lat="61.046606032177806" lon="7.613911963999271">
        <ele>64.549999999999997</ele>
        <time>2017-06-19T16:22:39Z</time>
      </trkpt>
      <trkpt lat="61.04704599827528" lon="7.612312026321888">
        <ele>64.549999999999997</ele>
        <time>2017-06-19T16:22:44Z</time>
      </trkpt>
      <trkpt lat="61.047501973807812" lon="7.608843008056283">
        <ele>63.100000000000001</ele>
        <time>2017-06-19T16:22:54Z</time>
      </trkpt>
      <trkpt lat="61.047622002661228" lon="7.607404002919793">
        <ele>61.18</ele>
        <time>2017-06-19T16:22:58Z</time>
      </trkpt>
      <trkpt lat="61.047614039853215" lon="7.607040982693434">
        <ele>61.18</ele>
        <time>2017-06-19T16:22:59Z</time>
      </trkpt>
      <trkpt lat="61.047585038468242" lon="7.606674022972584">
        <ele>60.700000000000003</ele>
        <time>2017-06-19T16:23:00Z</time>
      </trkpt>
      <trkpt lat="61.047267029061913" lon="7.603869019076228">
        <ele>58.299999999999997</ele>
        <time>2017-06-19T16:23:08Z</time>
      </trkpt>
      <trkpt lat="61.047269962728024" lon="7.603553021326661">
        <ele>57.340000000000003</ele>
        <time>2017-06-19T16:23:09Z</time>
      </trkpt>
      <trkpt lat="61.047302987426519" lon="7.603240041062236">
        <ele>56.859999999999999</ele>
        <time>2017-06-19T16:23:10Z</time>
      </trkpt>
      <trkpt lat="61.047371970489621" lon="7.602943992242217">
        <ele>56.859999999999999</ele>
        <time>2017-06-19T16:23:11Z</time>
      </trkpt>
      <trkpt lat="61.047454029321671" lon="7.602641992270947">
        <ele>56.369999999999997</ele>
        <time>2017-06-19T16:23:12Z</time>
      </trkpt>
      <trkpt lat="61.048266990110278" lon="7.60022004134953">
        <ele>53.490000000000002</ele>
        <time>2017-06-19T16:23:20Z</time>
      </trkpt>
      <trkpt lat="61.048325998708606" lon="7.599881999194622">
        <ele>53.490000000000002</ele>
        <time>2017-06-19T16:23:21Z</time>
      </trkpt>
      <trkpt lat="61.048375032842159" lon="7.59953498840332">
        <ele>53.490000000000002</ele>
        <time>2017-06-19T16:23:22Z</time>
      </trkpt>
      <trkpt lat="61.048819022253156" lon="7.596101006492972">
        <ele>51.57</ele>
        <time>2017-06-19T16:23:32Z</time>
      </trkpt>
      <trkpt lat="61.049792999401689" lon="7.592870034277439">
        <ele>50.609999999999999</ele>
        <time>2017-06-19T16:23:42Z</time>
      </trkpt>
      <trkpt lat="61.050012018531561" lon="7.590317996218801">
        <ele>50.130000000000003</ele>
        <time>2017-06-19T16:23:49Z</time>
      </trkpt>
      <trkpt lat="61.050063986331224" lon="7.589226001873612">
        <ele>49.159999999999997</ele>
        <time>2017-06-19T16:23:52Z</time>
      </trkpt>
      <trkpt lat="61.050110002979636" lon="7.588886031880975">
        <ele>49.159999999999997</ele>
        <time>2017-06-19T16:23:53Z</time>
      </trkpt>
      <trkpt lat="61.050172029063106" lon="7.588562993332744">
        <ele>48.68</ele>
        <time>2017-06-19T16:23:54Z</time>
      </trkpt>
      <trkpt lat="61.050251992419362" lon="7.588261999189854">
        <ele>48.68</ele>
        <time>2017-06-19T16:23:55Z</time>
      </trkpt>
      <trkpt lat="61.050336984917521" lon="7.587970979511738">
        <ele>48.68</ele>
        <time>2017-06-19T16:23:56Z</time>
      </trkpt>
      <trkpt lat="61.05085096322" lon="7.585421036928892">
        <ele>46.759999999999998</ele>
        <time>2017-06-19T16:24:04Z</time>
      </trkpt>
      <trkpt lat="61.051379023119807" lon="7.581984037533402">
        <ele>44.840000000000003</ele>
        <time>2017-06-19T16:24:16Z</time>
      </trkpt>
      <trkpt lat="61.052004983648658" lon="7.579757971689105">
        <ele>43.399999999999999</ele>
        <time>2017-06-19T16:24:24Z</time>
      </trkpt>
      <trkpt lat="61.052063992246985" lon="7.57946896366775">
        <ele>43.399999999999999</ele>
        <time>2017-06-19T16:24:25Z</time>
      </trkpt>
      <trkpt lat="61.05211696587503" lon="7.579168975353241">
        <ele>43.399999999999999</ele>
        <time>2017-06-19T16:24:26Z</time>
      </trkpt>
      <trkpt lat="61.05215703137219" lon="7.578857000917196">
        <ele>42.920000000000002</ele>
        <time>2017-06-19T16:24:27Z</time>
      </trkpt>
      <trkpt lat="61.05245903134346" lon="7.574837962165475">
        <ele>43.399999999999999</ele>
        <time>2017-06-19T16:24:40Z</time>
      </trkpt>
      <trkpt lat="61.052930010482669" lon="7.572193974629045">
        <ele>41.469999999999999</ele>
        <time>2017-06-19T16:24:48Z</time>
      </trkpt>
      <trkpt lat="61.053537027910352" lon="7.569302972406149">
        <ele>39.549999999999997</ele>
        <time>2017-06-19T16:24:57Z</time>
      </trkpt>
      <trkpt lat="61.053572986274958" lon="7.568972976878285">
        <ele>39.07</ele>
        <time>2017-06-19T16:24:58Z</time>
      </trkpt>
      <trkpt lat="61.053593019023538" lon="7.568628983572125">
        <ele>39.07</ele>
        <time>2017-06-19T16:24:59Z</time>
      </trkpt>
      <trkpt lat="61.05359997600317" lon="7.568279961124063">
        <ele>38.590000000000003</ele>
        <time>2017-06-19T16:25:00Z</time>
      </trkpt>
      <trkpt lat="61.053596036508679" lon="7.56792800500989">
        <ele>38.590000000000003</ele>
        <time>2017-06-19T16:25:01Z</time>
      </trkpt>
      <trkpt lat="61.053583966568112" lon="7.567574959248304">
        <ele>38.590000000000003</ele>
        <time>2017-06-19T16:25:02Z</time>
      </trkpt>
      <trkpt lat="61.053389003500342" lon="7.562586972489953">
        <ele>36.189999999999998</ele>
        <time>2017-06-19T16:25:15Z</time>
      </trkpt>
      <trkpt lat="61.053364025428891" lon="7.558072982355952">
        <ele>34.740000000000002</ele>
        <time>2017-06-19T16:25:27Z</time>
      </trkpt>
      <trkpt lat="61.05385797098279" lon="7.553710034117103">
        <ele>34.259999999999998</ele>
        <time>2017-06-19T16:25:39Z</time>
      </trkpt>
      <trkpt lat="61.053868029266596" lon="7.553343996405602">
        <ele>34.259999999999998</ele>
        <time>2017-06-19T16:25:40Z</time>
      </trkpt>
      <trkpt lat="61.053853025659919" lon="7.55297502502799">
        <ele>34.259999999999998</ele>
        <time>2017-06-19T16:25:41Z</time>
      </trkpt>
      <trkpt lat="61.053813965991139" lon="7.552614016458392">
        <ele>34.259999999999998</ele>
        <time>2017-06-19T16:25:42Z</time>
      </trkpt>
      <trkpt lat="61.053753029555082" lon="7.552256025373936">
        <ele>34.259999999999998</ele>
        <time>2017-06-19T16:25:43Z</time>
      </trkpt>
      <trkpt lat="61.053679017350078" lon="7.551910020411015">
        <ele>34.259999999999998</ele>
        <time>2017-06-19T16:25:44Z</time>
      </trkpt>
      <trkpt lat="61.053594024851918" lon="7.551573989912868">
        <ele>33.780000000000001</ele>
        <time>2017-06-19T16:25:45Z</time>
      </trkpt>
      <trkpt lat="61.052866978570819" lon="7.548567987978458">
        <ele>32.82</ele>
        <time>2017-06-19T16:25:54Z</time>
      </trkpt>
      <trkpt lat="61.052833031862974" lon="7.548194993287325">
        <ele>32.82</ele>
        <time>2017-06-19T16:25:55Z</time>
      </trkpt>
      <trkpt lat="61.052261972799897" lon="7.542721023783088">
        <ele>30.420000000000002</ele>
        <time>2017-06-19T16:26:10Z</time>
      </trkpt>
      <trkpt lat="61.052221991121769" lon="7.542076036334038">
        <ele>30.420000000000002</ele>
        <time>2017-06-19T16:26:12Z</time>
      </trkpt>
      <trkpt lat="61.052232971414924" lon="7.541745034977794">
        <ele>30.420000000000002</ele>
        <time>2017-06-19T16:26:13Z</time>
      </trkpt>
      <trkpt lat="61.05226599611342" lon="7.541403975337744">
        <ele>29.940000000000001</ele>
        <time>2017-06-19T16:26:14Z</time>
      </trkpt>
      <trkpt lat="61.052326010540128" lon="7.541074985638261">
        <ele>29.460000000000001</ele>
        <time>2017-06-19T16:26:15Z</time>
      </trkpt>
      <trkpt lat="61.052407985553145" lon="7.540753958746791">
        <ele>28.98</ele>
        <time>2017-06-19T16:26:16Z</time>
      </trkpt>
      <trkpt lat="61.052503036335111" lon="7.540437960997224">
        <ele>28.98</ele>
        <time>2017-06-19T16:26:17Z</time>
      </trkpt>
      <trkpt lat="61.053530992940068" lon="7.537442017346621">
        <ele>28.98</ele>
        <time>2017-06-19T16:26:27Z</time>
      </trkpt>
      <trkpt lat="61.053576003760099" lon="7.537124007940292">
        <ele>29.460000000000001</ele>
        <time>2017-06-19T16:26:28Z</time>
      </trkpt>
      <trkpt lat="61.053601987659931" lon="7.536798035725951">
        <ele>29.940000000000001</ele>
        <time>2017-06-19T16:26:29Z</time>
      </trkpt>
      <trkpt lat="61.05359997600317" lon="7.536471979692578">
        <ele>29.940000000000001</ele>
        <time>2017-06-19T16:26:30Z</time>
      </trkpt>
      <trkpt lat="61.053582038730383" lon="7.536138966679573">
        <ele>29.940000000000001</ele>
        <time>2017-06-19T16:26:31Z</time>
      </trkpt>
      <trkpt lat="61.053553037345409" lon="7.535802014172077">
        <ele>29.940000000000001</ele>
        <time>2017-06-19T16:26:32Z</time>
      </trkpt>
      <trkpt lat="61.053512971848249" lon="7.534065032377839">
        <ele>28.5</ele>
        <time>2017-06-19T16:26:37Z</time>
      </trkpt>
      <trkpt lat="61.053550019860268" lon="7.533710980787873">
        <ele>28.02</ele>
        <time>2017-06-19T16:26:38Z</time>
      </trkpt>
      <trkpt lat="61.053606010973454" lon="7.533357013016939">
        <ele>27.530000000000001</ele>
        <time>2017-06-19T16:26:39Z</time>
      </trkpt>
      <trkpt lat="61.054267007857561" lon="7.530408008024097">
        <ele>28.98</ele>
        <time>2017-06-19T16:26:48Z</time>
      </trkpt>
      <trkpt lat="61.055113999173045" lon="7.527136970311403">
        <ele>28.5</ele>
        <time>2017-06-19T16:26:59Z</time>
      </trkpt>
      <trkpt lat="61.056033996865153" lon="7.5250010099262">
        <ele>28.02</ele>
        <time>2017-06-19T16:27:07Z</time>
      </trkpt>
      <trkpt lat="61.056873025372624" lon="7.522802017629147">
        <ele>28.98</ele>
        <time>2017-06-19T16:27:15Z</time>
      </trkpt>
      <trkpt lat="61.058108014985919" lon="7.517968006432056">
        <ele>29.940000000000001</ele>
        <time>2017-06-19T16:27:30Z</time>
      </trkpt>
      <trkpt lat="61.058214968070388" lon="7.517737001180649">
        <ele>30.420000000000002</ele>
        <time>2017-06-19T16:27:31Z</time>
      </trkpt>
      <trkpt lat="61.058331979438663" lon="7.517526028677821">
        <ele>30.420000000000002</ele>
        <time>2017-06-19T16:27:32Z</time>
      </trkpt>
      <trkpt lat="61.058462988585234" lon="7.517341040074825">
        <ele>30.420000000000002</ele>
        <time>2017-06-19T16:27:33Z</time>
      </trkpt>
      <trkpt lat="61.058602966368198" lon="7.517165020108223">
        <ele>29.940000000000001</ele>
        <time>2017-06-19T16:27:34Z</time>
      </trkpt>
      <trkpt lat="61.060760971158743" lon="7.514872988685966">
        <ele>33.780000000000001</ele>
        <time>2017-06-19T16:27:49Z</time>
      </trkpt>
      <trkpt lat="61.061843996867537" lon="7.513096025213599">
        <ele>36.189999999999998</ele>
        <time>2017-06-19T16:27:58Z</time>
      </trkpt>
      <trkpt lat="61.062888968735933" lon="7.510151965543628">
        <ele>35.229999999999997</ele>
        <time>2017-06-19T16:28:09Z</time>
      </trkpt>
      <trkpt lat="61.063967971131206" lon="7.507737977430224">
        <ele>34.259999999999998</ele>
        <time>2017-06-19T16:28:19Z</time>
      </trkpt>
      <trkpt lat="61.064607007429004" lon="7.506080036982894">
        <ele>34.740000000000002</ele>
        <time>2017-06-19T16:28:26Z</time>
      </trkpt>
      <trkpt lat="61.064702980220318" lon="7.505950033664703">
        <ele>35.229999999999997</ele>
        <time>2017-06-19T16:28:27Z</time>
      </trkpt>
      <trkpt lat="61.065139006823301" lon="7.505291970446706">
        <ele>36.670000000000002</ele>
        <time>2017-06-19T16:28:32Z</time>
      </trkpt>
      <trkpt lat="61.066178027540445" lon="7.503583990037441">
        <ele>40.509999999999998</ele>
        <time>2017-06-19T16:28:41Z</time>
      </trkpt>
      <trkpt lat="61.067546959966421" lon="7.501721028238535">
        <ele>39.549999999999997</ele>
        <time>2017-06-19T16:28:50Z</time>
      </trkpt>
      <trkpt lat="61.069436995312572" lon="7.500489978119731">
        <ele>39.549999999999997</ele>
        <time>2017-06-19T16:29:01Z</time>
      </trkpt>
      <trkpt lat="61.070856973528862" lon="7.500371038913727">
        <ele>42.439999999999998</ele>
        <time>2017-06-19T16:29:09Z</time>
      </trkpt>
      <trkpt lat="61.074004964902997" lon="7.500620987266302">
        <ele>48.200000000000003</ele>
        <time>2017-06-19T16:29:25Z</time>
      </trkpt>
      <trkpt lat="61.076052999123931" lon="7.501670988276601">
        <ele>38.590000000000003</ele>
        <time>2017-06-19T16:29:36Z</time>
      </trkpt>
      <trkpt lat="61.078291973099113" lon="7.503589019179344">
        <ele>31.379999999999999</ele>
        <time>2017-06-19T16:29:48Z</time>
      </trkpt>
      <trkpt lat="61.081472989171743" lon="7.506680013611913">
        <ele>26.57</ele>
        <time>2017-06-19T16:30:05Z</time>
      </trkpt>
      <trkpt lat="61.085766032338142" lon="7.510737022385001">
        <ele>23.210000000000001</ele>
        <time>2017-06-19T16:30:28Z</time>
      </trkpt>
      <trkpt lat="61.089191967621446" lon="7.513971012085676">
        <ele>20.809999999999999</ele>
        <time>2017-06-19T16:30:46Z</time>
      </trkpt>
      <trkpt lat="61.090974966064095" lon="7.515909997746348">
        <ele>20.809999999999999</ele>
        <time>2017-06-19T16:30:56Z</time>
      </trkpt>
      <trkpt lat="61.092912023887038" lon="7.517117997631431">
        <ele>17.920000000000002</ele>
        <time>2017-06-19T16:31:06Z</time>
      </trkpt>
      <trkpt lat="61.095483005046844" lon="7.517941016703844">
        <ele>17.440000000000001</ele>
        <time>2017-06-19T16:31:19Z</time>
      </trkpt>
      <trkpt lat="61.096147019416094" lon="7.518101027235389">
        <ele>16.960000000000001</ele>
        <time>2017-06-19T16:31:23Z</time>
      </trkpt>
      <trkpt lat="61.096308035776019" lon="7.518075965344906">
        <ele>16.48</ele>
        <time>2017-06-19T16:31:24Z</time>
      </trkpt>
      <trkpt lat="61.096469974145293" lon="7.518011005595326">
        <ele>16.48</ele>
        <time>2017-06-19T16:31:25Z</time>
      </trkpt>
      <trkpt lat="61.096631996333599" lon="7.517906986176968">
        <ele>16</ele>
        <time>2017-06-19T16:31:26Z</time>
      </trkpt>
      <trkpt lat="61.096792006865144" lon="7.517769020050764">
        <ele>16</ele>
        <time>2017-06-19T16:31:27Z</time>
      </trkpt>
      <trkpt lat="61.096947994083166" lon="7.517604986205697">
        <ele>15.52</ele>
        <time>2017-06-19T16:31:28Z</time>
      </trkpt>
      <trkpt lat="61.097100963816047" lon="7.517421003431082">
        <ele>15.52</ele>
        <time>2017-06-19T16:31:29Z</time>
      </trkpt>
      <trkpt lat="61.098152976483107" lon="7.515517976135016">
        <ele>14.08</ele>
        <time>2017-06-19T16:31:37Z</time>
      </trkpt>
      <trkpt lat="61.099248994141817" lon="7.512531001120806">
        <ele>12.630000000000001</ele>
        <time>2017-06-19T16:31:48Z</time>
      </trkpt>
      <trkpt lat="61.100301006808877" lon="7.509042033925653">
        <ele>7.83</ele>
        <time>2017-06-19T16:32:00Z</time>
      </trkpt>
      <trkpt lat="61.100699985399842" lon="7.506892997771502">
        <ele>7.83</ele>
        <time>2017-06-19T16:32:07Z</time>
      </trkpt>
      <trkpt lat="61.100709959864616" lon="7.506558978930116">
        <ele>8.310000000000001</ele>
        <time>2017-06-19T16:32:08Z</time>
      </trkpt>
      <trkpt lat="61.100604012608528" lon="7.50302198342979">
        <ele>7.83</ele>
        <time>2017-06-19T16:32:19Z</time>
      </trkpt>
      <trkpt lat="61.10024300403893" lon="7.500911001116037">
        <ele>5.42</ele>
        <time>2017-06-19T16:32:28Z</time>
      </trkpt>
      <trkpt lat="61.10015700571239" lon="7.500606989488006">
        <ele>5.42</ele>
        <time>2017-06-19T16:32:30Z</time>
      </trkpt>
      <trkpt lat="61.100140996277332" lon="7.500480003654957">
        <ele>4.94</ele>
        <time>2017-06-19T16:32:31Z</time>
      </trkpt>
      <trkpt lat="61.100148959085345" lon="7.50035603530705">
        <ele>4.94</ele>
        <time>2017-06-19T16:32:32Z</time>
      </trkpt>
      <trkpt lat="61.100167986005545" lon="7.500248998403549">
        <ele>4.46</ele>
        <time>2017-06-19T16:32:33Z</time>
      </trkpt>
      <trkpt lat="61.100191958248615" lon="7.500137016177177">
        <ele>4.46</ele>
        <time>2017-06-19T16:32:34Z</time>
      </trkpt>
      <trkpt lat="61.100195981562138" lon="7.499996032565832">
        <ele>4.46</ele>
        <time>2017-06-19T16:32:35Z</time>
      </trkpt>
      <trkpt lat="61.100175026804209" lon="7.499841973185539">
        <ele>4.46</ele>
        <time>2017-06-19T16:32:36Z</time>
      </trkpt>
      <trkpt lat="61.10015700571239" lon="7.499699983745813">
        <ele>4.46</ele>
        <time>2017-06-19T16:32:37Z</time>
      </trkpt>
      <trkpt lat="61.099758027121425" lon="7.497856970876455">
        <ele>5.42</ele>
        <time>2017-06-19T16:32:49Z</time>
      </trkpt>
      <trkpt lat="61.099707987159491" lon="7.497515995055437">
        <ele>5.91</ele>
        <time>2017-06-19T16:32:51Z</time>
      </trkpt>
      <trkpt lat="61.099565997719765" lon="7.496439004316926">
        <ele>9.27</ele>
        <time>2017-06-19T16:32:57Z</time>
      </trkpt>
      <trkpt lat="61.09931998886168" lon="7.494997987523675">
        <ele>9.27</ele>
        <time>2017-06-19T16:33:05Z</time>
      </trkpt>
      <trkpt lat="61.099214963614941" lon="7.494459031149745">
        <ele>8.789999999999999</ele>
        <time>2017-06-19T16:33:08Z</time>
      </trkpt>
      <trkpt lat="61.098731998354197" lon="7.491987040266395">
        <ele>8.310000000000001</ele>
        <time>2017-06-19T16:33:22Z</time>
      </trkpt>
      <trkpt lat="61.098045017570257" lon="7.488310988992453">
        <ele>7.35</ele>
        <time>2017-06-19T16:33:42Z</time>
      </trkpt>
      <trkpt lat="61.098000006750226" lon="7.488065985962749">
        <ele>7.35</ele>
        <time>2017-06-19T16:33:44Z</time>
      </trkpt>
      <trkpt lat="61.097996989265084" lon="7.487965989857912">
        <ele>7.35</ele>
        <time>2017-06-19T16:33:45Z</time>
      </trkpt>
      <trkpt lat="61.098016016185284" lon="7.487892983481288">
        <ele>7.35</ele>
        <time>2017-06-19T16:33:46Z</time>
      </trkpt>
      <trkpt lat="61.098037976771593" lon="7.487813020125032">
        <ele>7.35</ele>
        <time>2017-06-19T16:33:47Z</time>
      </trkpt>
      <trkpt lat="61.098077958449721" lon="7.487753005698323">
        <ele>7.83</ele>
        <time>2017-06-19T16:33:48Z</time>
      </trkpt>
      <trkpt lat="61.098134033381939" lon="7.487714029848576">
        <ele>7.83</ele>
        <time>2017-06-19T16:33:49Z</time>
      </trkpt>
      <trkpt lat="61.098197987303138" lon="7.487676981836557">
        <ele>7.83</ele>
        <time>2017-06-19T16:33:50Z</time>
      </trkpt>
      <trkpt lat="61.098811961710453" lon="7.487260987982154">
        <ele>6.39</ele>
        <time>2017-06-19T16:34:00Z</time>
      </trkpt>
      <trkpt lat="61.099290987476707" lon="7.486924035474658">
        <ele>6.39</ele>
        <time>2017-06-19T16:34:11Z</time>
      </trkpt>
      <trkpt lat="61.099406993016601" lon="7.486823033541441">
        <ele>5.42</ele>
        <time>2017-06-19T16:34:13Z</time>
      </trkpt>
      <trkpt lat="61.099445968866348" lon="7.486744998022914">
        <ele>5.42</ele>
        <time>2017-06-19T16:34:14Z</time>
      </trkpt>
      <trkpt lat="61.099473964422941" lon="7.486655982211232">
        <ele>5.42</ele>
        <time>2017-06-19T16:34:15Z</time>
      </trkpt>
      <trkpt lat="61.099490979686379" lon="7.486554980278015">
        <ele>5.42</ele>
        <time>2017-06-19T16:34:16Z</time>
      </trkpt>
      <trkpt lat="61.099497014656663" lon="7.486440986394882">
        <ele>5.42</ele>
        <time>2017-06-19T16:34:17Z</time>
      </trkpt>
      <trkpt lat="61.099496008828282" lon="7.486315006390214">
        <ele>5.42</ele>
        <time>2017-06-19T16:34:18Z</time>
      </trkpt>
      <trkpt lat="61.099489973857999" lon="7.486174022778869">
        <ele>5.42</ele>
        <time>2017-06-19T16:34:19Z</time>
      </trkpt>
      <trkpt lat="61.099371034651995" lon="7.484016017988324">
        <ele>3.98</ele>
        <time>2017-06-19T16:34:31Z</time>
      </trkpt>
      <trkpt lat="61.099290987476707" lon="7.482155989855528">
        <ele>3.02</ele>
        <time>2017-06-19T16:34:43Z</time>
      </trkpt>
      <trkpt lat="61.099277995526791" lon="7.481953985989094">
        <ele>2.54</ele>
        <time>2017-06-19T16:34:45Z</time>
      </trkpt>
      <trkpt lat="61.099257962778211" lon="7.481574034318328">
        <ele>2.54</ele>
        <time>2017-06-19T16:34:48Z</time>
      </trkpt>
      <trkpt lat="61.099270032718778" lon="7.479744013398886">
        <ele>2.06</ele>
        <time>2017-06-19T16:34:57Z</time>
      </trkpt>
      <trkpt lat="61.099257962778211" lon="7.47603502124548">
        <ele>1.1</ele>
        <time>2017-06-19T16:35:12Z</time>
      </trkpt>
      <trkpt lat="61.099338009953499" lon="7.475028019398451">
        <ele>0.62</ele>
        <time>2017-06-19T16:35:16Z</time>
      </trkpt>
      <trkpt lat="61.099384026601911" lon="7.474792990833521">
        <ele>0.14</ele>
        <time>2017-06-19T16:35:17Z</time>
      </trkpt>
      <trkpt lat="61.099442029371858" lon="7.474568020552397">
        <ele>0.14</ele>
        <time>2017-06-19T16:35:18Z</time>
      </trkpt>
      <trkpt lat="61.099908985197544" lon="7.473152987658978">
        <ele>-3.23</ele>
        <time>2017-06-19T16:35:26Z</time>
      </trkpt>
      <trkpt lat="61.099960030987859" lon="7.473047040402889">
        <ele>-3.23</ele>
        <time>2017-06-19T16:35:27Z</time>
      </trkpt>
      <trkpt lat="61.099993977695704" lon="7.472987025976181">
        <ele>-3.23</ele>
        <time>2017-06-19T16:35:28Z</time>
      </trkpt>
      <trkpt lat="61.100061032921076" lon="7.47292198240757">
        <ele>-3.23</ele>
        <time>2017-06-19T16:35:31Z</time>
      </trkpt>
      <trkpt lat="61.100108977407217" lon="7.47289901599288">
        <ele>-3.23</ele>
        <time>2017-06-19T16:35:32Z</time>
      </trkpt>
      <trkpt lat="61.100177960470319" lon="7.472890969365835">
        <ele>-2.75</ele>
        <time>2017-06-19T16:35:33Z</time>
      </trkpt>
      <trkpt lat="61.100252978503704" lon="7.472922988235951">
        <ele>-2.75</ele>
        <time>2017-06-19T16:35:34Z</time>
      </trkpt>
      <trkpt lat="61.100335037335753" lon="7.472994988784194">
        <ele>-2.27</ele>
        <time>2017-06-19T16:35:35Z</time>
      </trkpt>
      <trkpt lat="61.100422963500023" lon="7.473103031516075">
        <ele>-2.27</ele>
        <time>2017-06-19T16:35:36Z</time>
      </trkpt>
      <trkpt lat="61.100517008453608" lon="7.473229011520743">
        <ele>-2.27</ele>
        <time>2017-06-19T16:35:37Z</time>
      </trkpt>
      <trkpt lat="61.101487968116999" lon="7.474826015532017">
        <ele>0.14</ele>
        <time>2017-06-19T16:35:46Z</time>
      </trkpt>
      <trkpt lat="61.102961003780365" lon="7.476992988958955">
        <ele>0.62</ele>
        <time>2017-06-19T16:35:57Z</time>
      </trkpt>
      <trkpt lat="61.150898030027747" lon="7.411583969369531">
        <ele>22.73</ele>
        <time>2017-06-19T16:41:14Z</time>
      </trkpt>
      <trkpt lat="61.150571973994374" lon="7.407356975600123">
        <ele>11.19</ele>
        <time>2017-06-19T16:41:24Z</time>
      </trkpt>
      <trkpt lat="61.15030400454998" lon="7.402115017175674">
        <ele>-4.67</ele>
        <time>2017-06-19T16:41:36Z</time>
      </trkpt>
      <trkpt lat="61.150129996240139" lon="7.397471023723483">
        <ele>-11.880000000000001</ele>
        <time>2017-06-19T16:41:46Z</time>
      </trkpt>
      <trkpt lat="61.149732023477554" lon="7.392537016421557">
        <ele>-13.800000000000001</ele>
        <time>2017-06-19T16:41:58Z</time>
      </trkpt>
      <trkpt lat="61.149388030171394" lon="7.389256004244089">
        <ele>-14.279999999999999</ele>
        <time>2017-06-19T16:42:08Z</time>
      </trkpt>
      <trkpt lat="61.149343019351363" lon="7.388688968494535">
        <ele>-14.76</ele>
        <time>2017-06-19T16:42:14Z</time>
      </trkpt>
      <trkpt lat="61.149201029911637" lon="7.387272007763386">
        <ele>-14.76</ele>
        <time>2017-06-19T16:42:24Z</time>
      </trkpt>
      <trkpt lat="61.148934988304973" lon="7.385328998789191">
        <ele>-13.800000000000001</ele>
        <time>2017-06-19T16:42:35Z</time>
      </trkpt>
      <trkpt lat="61.14886399358511" lon="7.384472033008933">
        <ele>-13.800000000000001</ele>
        <time>2017-06-19T16:42:46Z</time>
      </trkpt>
      <trkpt lat="61.148873968049884" lon="7.384490976110101">
        <ele>-13.32</ele>
        <time>2017-06-19T16:45:08Z</time>
      </trkpt>
      <trkpt lat="61.148872962221503" lon="7.384492987766862">
        <ele>-13.32</ele>
        <time>2017-06-19T16:47:00Z</time>
      </trkpt>
      <trkpt lat="61.148873968049884" lon="7.384493993595243">
        <ele>-12.84</ele>
        <time>2017-06-19T16:49:21Z</time>
      </trkpt>
      <trkpt lat="61.148873968049884" lon="7.384501034393907">
        <ele>-12.84</ele>
        <time>2017-06-19T16:51:42Z</time>
      </trkpt>
      <trkpt lat="61.148874973878264" lon="7.384503968060017">
        <ele>-12.84</ele>
        <time>2017-06-19T16:54:01Z</time>
      </trkpt>
      <trkpt lat="61.148804984986782" lon="7.384246978908777">
        <ele>-11.880000000000001</ele>
        <time>2017-06-19T16:54:54Z</time>
      </trkpt>
      <trkpt lat="61.148664001375437" lon="7.383447010070086">
        <ele>-11.4</ele>
        <time>2017-06-19T16:55:06Z</time>
      </trkpt>
      <trkpt lat="61.148641034960747" lon="7.382916016504169">
        <ele>-10.44</ele>
        <time>2017-06-19T16:55:14Z</time>
      </trkpt>
      <trkpt lat="61.148655032739043" lon="7.382831024006009">
        <ele>-9.960000000000001</ele>
        <time>2017-06-19T16:55:15Z</time>
      </trkpt>
      <trkpt lat="61.148660983890295" lon="7.382741002365947">
        <ele>-9.960000000000001</ele>
        <time>2017-06-19T16:55:16Z</time>
      </trkpt>
      <trkpt lat="61.148351021111012" lon="7.381998030468822">
        <ele>-7.07</ele>
        <time>2017-06-19T16:55:24Z</time>
      </trkpt>
      <trkpt lat="61.148469038307667" lon="7.381462007761002">
        <ele>-9</ele>
        <time>2017-06-19T16:55:36Z</time>
      </trkpt>
      <trkpt lat="61.148469960317016" lon="7.381456978619099">
        <ele>-8.51</ele>
        <time>2017-06-19T16:56:27Z</time>
      </trkpt>
      <trkpt lat="61.148487981408834" lon="7.381445998325944">
        <ele>-7.55</ele>
        <time>2017-06-19T16:58:05Z</time>
      </trkpt>
      <trkpt lat="61.148492004722357" lon="7.381442980840802">
        <ele>-7.55</ele>
        <time>2017-06-19T16:59:24Z</time>
      </trkpt>
      <trkpt lat="61.148592000827193" lon="7.381260003894568">
        <ele>-7.55</ele>
        <time>2017-06-19T17:00:29Z</time>
      </trkpt>
      <trkpt lat="61.148848989978433" lon="7.380330031737685">
        <ele>-5.15</ele>
        <time>2017-06-19T17:00:59Z</time>
      </trkpt>
      <trkpt lat="61.14918502047658" lon="7.378409989178181">
        <ele>3.5</ele>
        <time>2017-06-19T17:01:33Z</time>
      </trkpt>
      <trkpt lat="61.149820033460855" lon="7.374682975932956">
        <ele>6.39</ele>
        <time>2017-06-19T17:02:25Z</time>
      </trkpt>
      <trkpt lat="61.151099028065801" lon="7.368218014016748">
        <ele>10.23</ele>
        <time>2017-06-19T17:03:47Z</time>
      </trkpt>
      <trkpt lat="61.152927037328482" lon="7.359125996008515">
        <ele>8.310000000000001</ele>
        <time>2017-06-19T17:05:36Z</time>
      </trkpt>
      <trkpt lat="61.154978005215526" lon="7.349243983626366">
        <ele>19.359999999999999</ele>
        <time>2017-06-19T17:07:35Z</time>
      </trkpt>
      <trkpt lat="61.156594958156347" lon="7.341080009937286">
        <ele>12.630000000000001</ele>
        <time>2017-06-19T17:09:12Z</time>
      </trkpt>
      <trkpt lat="61.157331978902221" lon="7.338180039077997">
        <ele>9.75</ele>
        <time>2017-06-19T17:09:52Z</time>
      </trkpt>
      <trkpt lat="61.157860038802028" lon="7.337269010022283">
        <ele>7.35</ele>
        <time>2017-06-19T17:10:15Z</time>
      </trkpt>
      <trkpt lat="61.158666964620352" lon="7.336600972339511">
        <ele>6.87</ele>
        <time>2017-06-19T17:10:51Z</time>
      </trkpt>
      <trkpt lat="61.159357968717813" lon="7.336586974561214">
        <ele>9.75</ele>
        <time>2017-06-19T17:11:25Z</time>
      </trkpt>
      <trkpt lat="61.159773962572217" lon="7.336652018129826">
        <ele>8.310000000000001</ele>
        <time>2017-06-19T17:11:56Z</time>
      </trkpt>
      <trkpt lat="61.160127008333802" lon="7.336856033653021">
        <ele>7.35</ele>
        <time>2017-06-19T17:12:45Z</time>
      </trkpt>
      <trkpt lat="61.160198003053665" lon="7.33694102615118">
        <ele>7.83</ele>
        <time>2017-06-19T17:13:20Z</time>
      </trkpt>
      <trkpt lat="61.160196997225285" lon="7.336927028372884">
        <ele>6.87</ele>
        <time>2017-06-19T17:13:25Z</time>
      </trkpt>
      <trkpt lat="61.160204960033298" lon="7.336822003126144">
        <ele>4.46</ele>
        <time>2017-06-19T17:13:29Z</time>
      </trkpt>
      <trkpt lat="61.160302022472024" lon="7.336779003962874">
        <ele>1.58</ele>
        <time>2017-06-19T17:13:32Z</time>
      </trkpt>
      <trkpt lat="61.160395983606577" lon="7.336884029209614">
        <ele>2.54</ele>
        <time>2017-06-19T17:13:34Z</time>
      </trkpt>
      <trkpt lat="61.160447029396892" lon="7.336887968704104">
        <ele>2.06</ele>
        <time>2017-06-19T17:13:35Z</time>
      </trkpt>
      <trkpt lat="61.160564040765166" lon="7.336906995624304">
        <ele>3.02</ele>
        <time>2017-06-19T17:13:37Z</time>
      </trkpt>
      <trkpt lat="61.160632017999887" lon="7.336901966482401">
        <ele>3.02</ele>
        <time>2017-06-19T17:13:38Z</time>
      </trkpt>
      <trkpt lat="61.16070301271975" lon="7.336874976754189">
        <ele>1.58</ele>
        <time>2017-06-19T17:13:39Z</time>
      </trkpt>
      <trkpt lat="61.160776019096375" lon="7.336820997297764">
        <ele>1.58</ele>
        <time>2017-06-19T17:13:40Z</time>
      </trkpt>
      <trkpt lat="61.160843996331096" lon="7.336750002577901">
        <ele>1.58</ele>
        <time>2017-06-19T17:13:41Z</time>
      </trkpt>
      <trkpt lat="61.160926977172494" lon="7.336656963452697">
        <ele>1.1</ele>
        <time>2017-06-19T17:13:42Z</time>
      </trkpt>
      <trkpt lat="61.17991098202765" lon="7.300349995493889">
        <ele>76.560000000000002</ele>
        <time>2017-06-19T17:16:13Z</time>
      </trkpt>
      <trkpt lat="61.180111980065703" lon="7.30017900466919">
        <ele>82.810000000000002</ele>
        <time>2017-06-19T17:16:14Z</time>
      </trkpt>
      <trkpt lat="61.181016974151134" lon="7.296779975295067">
        <ele>122.70999999999999</ele>
        <time>2017-06-19T17:16:24Z</time>
      </trkpt>
      <trkpt lat="61.18147999048233" lon="7.292760014533997">
        <ele>137.61000000000001</ele>
        <time>2017-06-19T17:16:34Z</time>
      </trkpt>
      <trkpt lat="61.181535981595516" lon="7.288263039663434">
        <ele>143.37</ele>
        <time>2017-06-19T17:16:44Z</time>
      </trkpt>
      <trkpt lat="61.181609993800521" lon="7.282930975779891">
        <ele>144.81999999999999</ele>
        <time>2017-06-19T17:16:56Z</time>
      </trkpt>
      <trkpt lat="61.181967984884977" lon="7.27658998221159">
        <ele>146.74000000000001</ele>
        <time>2017-06-19T17:17:10Z</time>
      </trkpt>
      <trkpt lat="61.18263803422451" lon="7.270180005580187">
        <ele>146.74000000000001</ele>
        <time>2017-06-19T17:17:24Z</time>
      </trkpt>
      <trkpt lat="61.183900013566017" lon="7.262437976896763">
        <ele>144.34</ele>
        <time>2017-06-19T17:17:41Z</time>
      </trkpt>
      <trkpt lat="61.185557032003999" lon="7.254808014258742">
        <ele>141.93000000000001</ele>
        <time>2017-06-19T17:17:58Z</time>
      </trkpt>
      <trkpt lat="61.186814988031983" lon="7.247874001041055">
        <ele>144.34</ele>
        <time>2017-06-19T17:18:14Z</time>
      </trkpt>
      <trkpt lat="61.18771000765264" lon="7.241528984159231">
        <ele>146.25999999999999</ele>
        <time>2017-06-19T17:18:30Z</time>
      </trkpt>
      <trkpt lat="61.18826799094677" lon="7.234879033640027">
        <ele>148.18000000000001</ele>
        <time>2017-06-19T17:18:46Z</time>
      </trkpt>
      <trkpt lat="61.188450967893004" lon="7.229895992204547">
        <ele>150.09999999999999</ele>
        <time>2017-06-19T17:18:58Z</time>
      </trkpt>
      <trkpt lat="61.189050022512674" lon="7.226815978065133">
        <ele>149.62</ele>
        <time>2017-06-19T17:19:06Z</time>
      </trkpt>
      <trkpt lat="61.190151991322637" lon="7.224200991913676">
        <ele>145.30000000000001</ele>
        <time>2017-06-19T17:19:14Z</time>
      </trkpt>
      <trkpt lat="61.191593008115888" lon="7.222498040646315">
        <ele>139.05000000000001</ele>
        <time>2017-06-19T17:19:22Z</time>
      </trkpt>
      <trkpt lat="61.193234017118812" lon="7.221678961068392">
        <ele>140.00999999999999</ele>
        <time>2017-06-19T17:19:31Z</time>
      </trkpt>
      <trkpt lat="61.195038976147771" lon="7.220657961443067">
        <ele>144.34</ele>
        <time>2017-06-19T17:19:41Z</time>
      </trkpt>
      <trkpt lat="61.19576501660049" lon="7.2197409812361">
        <ele>146.25999999999999</ele>
        <time>2017-06-19T17:19:47Z</time>
      </trkpt>
      <trkpt lat="61.19668903760612" lon="7.2181729786098">
        <ele>149.13999999999999</ele>
        <time>2017-06-19T17:19:56Z</time>
      </trkpt>
      <trkpt lat="61.197995021939278" lon="7.216088986024261">
        <ele>154.91</ele>
        <time>2017-06-19T17:20:05Z</time>
      </trkpt>
      <trkpt lat="61.198171963915229" lon="7.215919001027942">
        <ele>155.87</ele>
        <time>2017-06-19T17:20:06Z</time>
      </trkpt>
      <trkpt lat="61.198359970003366" lon="7.215782040730119">
        <ele>157.31</ele>
        <time>2017-06-19T17:20:07Z</time>
      </trkpt>
      <trkpt lat="61.198547976091504" lon="7.215667963027954">
        <ele>158.27000000000001</ele>
        <time>2017-06-19T17:20:08Z</time>
      </trkpt>
      <trkpt lat="61.198742017149925" lon="7.215556986629963">
        <ele>159.24000000000001</ele>
        <time>2017-06-19T17:20:09Z</time>
      </trkpt>
      <trkpt lat="61.199781959876418" lon="7.214694991707802">
        <ele>166.93000000000001</ele>
        <time>2017-06-19T17:20:15Z</time>
      </trkpt>
      <trkpt lat="61.199916992336512" lon="7.214478990063071">
        <ele>167.41</ele>
        <time>2017-06-19T17:20:16Z</time>
      </trkpt>
      <trkpt lat="61.200049007311463" lon="7.21421898342669">
        <ele>167.88999999999999</ele>
        <time>2017-06-19T17:20:17Z</time>
      </trkpt>
      <trkpt lat="61.200173981487751" lon="7.213929975405335">
        <ele>167.88999999999999</ele>
        <time>2017-06-19T17:20:18Z</time>
      </trkpt>
      <trkpt lat="61.200294010341167" lon="7.21361699514091">
        <ele>167.88999999999999</ele>
        <time>2017-06-19T17:20:19Z</time>
      </trkpt>
      <trkpt lat="61.202452015131712" lon="7.207973040640354">
        <ele>174.62</ele>
        <time>2017-06-19T17:20:36Z</time>
      </trkpt>
      <trkpt lat="61.205028025433421" lon="7.201320994645357">
        <ele>184.71000000000001</ele>
        <time>2017-06-19T17:20:56Z</time>
      </trkpt>
      <trkpt lat="61.205612998455763" lon="7.199669005349279">
        <ele>185.19</ele>
        <time>2017-06-19T17:21:01Z</time>
      </trkpt>
      <trkpt lat="61.20569203980267" lon="7.199286036193371">
        <ele>184.71000000000001</ele>
        <time>2017-06-19T17:21:02Z</time>
      </trkpt>
      <trkpt lat="61.206350019201636" lon="7.195026017725468">
        <ele>184.71000000000001</ele>
        <time>2017-06-19T17:21:12Z</time>
      </trkpt>
      <trkpt lat="61.207129033282399" lon="7.189924959093332">
        <ele>186.15000000000001</ele>
        <time>2017-06-19T17:21:24Z</time>
      </trkpt>
      <trkpt lat="61.2080770265311" lon="7.183867022395134">
        <ele>183.75</ele>
        <time>2017-06-19T17:21:39Z</time>
      </trkpt>
      <trkpt lat="61.208537025377154" lon="7.180954981595278">
        <ele>172.69</ele>
        <time>2017-06-19T17:21:47Z</time>
      </trkpt>
      <trkpt lat="61.20861497707665" lon="7.180218966677785">
        <ele>169.81</ele>
        <time>2017-06-19T17:21:49Z</time>
      </trkpt>
      <trkpt lat="61.208625035360456" lon="7.179854018613696">
        <ele>168.37</ele>
        <time>2017-06-19T17:21:50Z</time>
      </trkpt>
      <trkpt lat="61.208623023703694" lon="7.17947599478066">
        <ele>166.44999999999999</ele>
        <time>2017-06-19T17:21:51Z</time>
      </trkpt>
      <trkpt lat="61.208601985126734" lon="7.179104005917907">
        <ele>165</ele>
        <time>2017-06-19T17:21:52Z</time>
      </trkpt>
      <trkpt lat="61.208566026762128" lon="7.178730005398393">
        <ele>163.56</ele>
        <time>2017-06-19T17:21:53Z</time>
      </trkpt>
      <trkpt lat="61.208527972921729" lon="7.178367991000414">
        <ele>162.12</ele>
        <time>2017-06-19T17:21:54Z</time>
      </trkpt>
      <trkpt lat="61.207996979355812" lon="7.174628991633654">
        <ele>148.66</ele>
        <time>2017-06-19T17:22:05Z</time>
      </trkpt>
      <trkpt lat="61.207915004342794" lon="7.174348030239344">
        <ele>148.18000000000001</ele>
        <time>2017-06-19T17:22:06Z</time>
      </trkpt>
      <trkpt lat="61.207815008237958" lon="7.174094980582595">
        <ele>146.74000000000001</ele>
        <time>2017-06-19T17:22:07Z</time>
      </trkpt>
      <trkpt lat="61.207704031839967" lon="7.173862969502807">
        <ele>145.78</ele>
        <time>2017-06-19T17:22:08Z</time>
      </trkpt>
      <trkpt lat="61.20758400298655" lon="7.173648979514837">
        <ele>145.30000000000001</ele>
        <time>2017-06-19T17:22:09Z</time>
      </trkpt>
      <trkpt lat="61.206709016114473" lon="7.171709993854165">
        <ele>141.93000000000001</ele>
        <time>2017-06-19T17:22:17Z</time>
      </trkpt>
      <trkpt lat="61.206470970064402" lon="7.17019303701818">
        <ele>139.05000000000001</ele>
        <time>2017-06-19T17:22:22Z</time>
      </trkpt>
      <trkpt lat="61.206460995599627" lon="7.169863963499665">
        <ele>137.61000000000001</ele>
        <time>2017-06-19T17:22:23Z</time>
      </trkpt>
      <trkpt lat="61.20646602474153" lon="7.169526005163789">
        <ele>136.63999999999999</ele>
        <time>2017-06-19T17:22:24Z</time>
      </trkpt>
      <trkpt lat="61.206652019172907" lon="7.166224960237742">
        <ele>129.91999999999999</ele>
        <time>2017-06-19T17:22:33Z</time>
      </trkpt>
      <trkpt lat="61.207038005813956" lon="7.162784021347761">
        <ele>128.47</ele>
        <time>2017-06-19T17:22:43Z</time>
      </trkpt>
      <trkpt lat="61.207600012421608" lon="7.160257967188954">
        <ele>129.43000000000001</ele>
        <time>2017-06-19T17:22:51Z</time>
      </trkpt>
      <trkpt lat="61.207691039890051" lon="7.160007013007999">
        <ele>129.43000000000001</ele>
        <time>2017-06-19T17:22:52Z</time>
      </trkpt>
      <trkpt lat="61.208462007343769" lon="7.158058974891901">
        <ele>123.19</ele>
        <time>2017-06-19T17:22:59Z</time>
      </trkpt>
      <trkpt lat="61.209431039169431" lon="7.155660996213555">
        <ele>115.98</ele>
        <time>2017-06-19T17:23:07Z</time>
      </trkpt>
      <trkpt lat="61.209718035534024" lon="7.154693976044655">
        <ele>116.45999999999999</ele>
        <time>2017-06-19T17:23:10Z</time>
      </trkpt>
      <trkpt lat="61.209786012768745" lon="7.154356017708778">
        <ele>117.42</ele>
        <time>2017-06-19T17:23:11Z</time>
      </trkpt>
      <trkpt lat="61.210385989397764" lon="7.151408018544316">
        <ele>118.38</ele>
        <time>2017-06-19T17:23:20Z</time>
      </trkpt>
      <trkpt lat="61.21121596544981" lon="7.147969007492065">
        <ele>122.70999999999999</ele>
        <time>2017-06-19T17:23:30Z</time>
      </trkpt>
      <trkpt lat="61.211251001805067" lon="7.147615039721131">
        <ele>123.19</ele>
        <time>2017-06-19T17:23:31Z</time>
      </trkpt>
      <trkpt lat="61.211596000939608" lon="7.144924029707909">
        <ele>121.73999999999999</ele>
        <time>2017-06-19T17:23:39Z</time>
      </trkpt>
      <trkpt lat="61.212347019463778" lon="7.143112029880285">
        <ele>113.56999999999999</ele>
        <time>2017-06-19T17:23:46Z</time>
      </trkpt>
      <trkpt lat="61.212570983916521" lon="7.14265001937747">
        <ele>111.17</ele>
        <time>2017-06-19T17:23:48Z</time>
      </trkpt>
      <trkpt lat="61.212661005556583" lon="7.142383977770805">
        <ele>110.20999999999999</ele>
        <time>2017-06-19T17:23:49Z</time>
      </trkpt>
      <trkpt lat="61.212739963084459" lon="7.142092036083341">
        <ele>109.25</ele>
        <time>2017-06-19T17:23:50Z</time>
      </trkpt>
      <trkpt lat="61.212810035794973" lon="7.141781989485025">
        <ele>108.29000000000001</ele>
        <time>2017-06-19T17:23:51Z</time>
      </trkpt>
      <trkpt lat="61.212868960574269" lon="7.141460040584207">
        <ele>107.31999999999999</ele>
        <time>2017-06-19T17:23:52Z</time>
      </trkpt>
      <trkpt lat="61.213102983310819" lon="7.138862991705537">
        <ele>97.709999999999994</ele>
        <time>2017-06-19T17:24:00Z</time>
      </trkpt>
      <trkpt lat="61.213073981925845" lon="7.138194032013416">
        <ele>95.790000000000006</ele>
        <time>2017-06-19T17:24:02Z</time>
      </trkpt>
      <trkpt lat="61.213040035218" lon="7.137873005121946">
        <ele>94.829999999999998</ele>
        <time>2017-06-19T17:24:03Z</time>
      </trkpt>
      <trkpt lat="61.212991001084447" lon="7.137559019029141">
        <ele>93.870000000000005</ele>
        <time>2017-06-19T17:24:04Z</time>
      </trkpt>
      <trkpt lat="61.212930986657739" lon="7.137256013229489">
        <ele>92.900000000000006</ele>
        <time>2017-06-19T17:24:05Z</time>
      </trkpt>
      <trkpt lat="61.212855968624353" lon="7.136957030743361">
        <ele>92.420000000000002</ele>
        <time>2017-06-19T17:24:06Z</time>
      </trkpt>
      <trkpt lat="61.212777011096478" lon="7.136672968044877">
        <ele>91.459999999999994</ele>
        <time>2017-06-19T17:24:07Z</time>
      </trkpt>
      <trkpt lat="61.212279964238405" lon="7.134284041821957">
        <ele>83.769999999999996</ele>
        <time>2017-06-19T17:24:15Z</time>
      </trkpt>
      <trkpt lat="61.211615027859807" lon="7.130579994991422">
        <ele>78.969999999999999</ele>
        <time>2017-06-19T17:24:26Z</time>
      </trkpt>
      <trkpt lat="61.211184030398726" lon="7.127165040001273">
        <ele>70.310000000000002</ele>
        <time>2017-06-19T17:24:36Z</time>
      </trkpt>
      <trkpt lat="61.211109012365341" lon="7.125499974936247">
        <ele>65.510000000000005</ele>
        <time>2017-06-19T17:24:41Z</time>
      </trkpt>
      <trkpt lat="61.211128039285541" lon="7.125151958316565">
        <ele>65.030000000000001</ele>
        <time>2017-06-19T17:24:42Z</time>
      </trkpt>
      <trkpt lat="61.211160980165005" lon="7.124815005809069">
        <ele>64.069999999999993</ele>
        <time>2017-06-19T17:24:43Z</time>
      </trkpt>
      <trkpt lat="61.211203979328275" lon="7.12449599057436">
        <ele>63.100000000000001</ele>
        <time>2017-06-19T17:24:44Z</time>
      </trkpt>
      <trkpt lat="61.211257958784699" lon="7.12419499643147">
        <ele>62.140000000000001</ele>
        <time>2017-06-19T17:24:45Z</time>
      </trkpt>
      <trkpt lat="61.211329959332943" lon="7.123910011723638">
        <ele>61.18</ele>
        <time>2017-06-19T17:24:46Z</time>
      </trkpt>
      <trkpt lat="61.211415035650134" lon="7.123655034229159">
        <ele>60.700000000000003</ele>
        <time>2017-06-19T17:24:47Z</time>
      </trkpt>
      <trkpt lat="61.211511008441448" lon="7.123430985957384">
        <ele>60.219999999999999</ele>
        <time>2017-06-19T17:24:48Z</time>
      </trkpt>
      <trkpt lat="61.211617039516568" lon="7.123235017061234">
        <ele>59.259999999999998</ele>
        <time>2017-06-19T17:24:49Z</time>
      </trkpt>
      <trkpt lat="61.211733967065811" lon="7.12307701818645">
        <ele>57.82</ele>
        <time>2017-06-19T17:24:50Z</time>
      </trkpt>
      <trkpt lat="61.211865982040763" lon="7.122947014868259">
        <ele>56.859999999999999</ele>
        <time>2017-06-19T17:24:51Z</time>
      </trkpt>
      <trkpt lat="61.212007971480489" lon="7.122847018763423">
        <ele>55.890000000000001</ele>
        <time>2017-06-19T17:24:52Z</time>
      </trkpt>
      <trkpt lat="61.212155995890498" lon="7.122779041528702">
        <ele>54.93</ele>
        <time>2017-06-19T17:24:53Z</time>
      </trkpt>
      <trkpt lat="61.212315000593662" lon="7.122726989910007">
        <ele>53.969999999999999</ele>
        <time>2017-06-19T17:24:54Z</time>
      </trkpt>
      <trkpt lat="61.21295303106308" lon="7.122654989361763">
        <ele>49.159999999999997</ele>
        <time>2017-06-19T17:24:58Z</time>
      </trkpt>
      <trkpt lat="61.213115975260735" lon="7.122701006010175">
        <ele>47.719999999999999</ele>
        <time>2017-06-19T17:24:59Z</time>
      </trkpt>
      <trkpt lat="61.213279003277421" lon="7.122780969366431">
        <ele>46.759999999999998</ele>
        <time>2017-06-19T17:25:00Z</time>
      </trkpt>
      <trkpt lat="61.213441025465727" lon="7.122899992391467">
        <ele>45.799999999999997</ele>
        <time>2017-06-19T17:25:01Z</time>
      </trkpt>
      <trkpt lat="61.213602041825652" lon="7.123017003759742">
        <ele>45.32</ele>
        <time>2017-06-19T17:25:02Z</time>
      </trkpt>
      <trkpt lat="61.213934971019626" lon="7.123193023726344">
        <ele>43.880000000000003</ele>
        <time>2017-06-19T17:25:04Z</time>
      </trkpt>
      <trkpt lat="61.214103028178215" lon="7.123230993747711">
        <ele>42.920000000000002</ele>
        <time>2017-06-19T17:25:05Z</time>
      </trkpt>
      <trkpt lat="61.214939039200544" lon="7.123522013425827">
        <ele>39.07</ele>
        <time>2017-06-19T17:25:10Z</time>
      </trkpt>
      <trkpt lat="61.215091003105044" lon="7.123651010915637">
        <ele>38.590000000000003</ele>
        <time>2017-06-19T17:25:11Z</time>
      </trkpt>
      <trkpt lat="61.215238021686673" lon="7.123839017003775">
        <ele>37.630000000000003</ele>
        <time>2017-06-19T17:25:12Z</time>
      </trkpt>
      <trkpt lat="61.215383028611541" lon="7.124057030305266">
        <ele>36.189999999999998</ele>
        <time>2017-06-19T17:25:13Z</time>
      </trkpt>
      <trkpt lat="61.215528035536408" lon="7.124299015849829">
        <ele>34.740000000000002</ele>
        <time>2017-06-19T17:25:14Z</time>
      </trkpt>
      <trkpt lat="61.216683983802795" lon="7.125497041270137">
        <ele>26.09</ele>
        <time>2017-06-19T17:25:21Z</time>
      </trkpt>
      <trkpt lat="61.218423983082175" lon="7.126399017870426">
        <ele>22.25</ele>
        <time>2017-06-19T17:25:31Z</time>
      </trkpt>
      <trkpt lat="61.220611995086074" lon="7.12621696293354">
        <ele>16.960000000000001</ele>
        <time>2017-06-19T17:25:43Z</time>
      </trkpt>
      <trkpt lat="61.222908971831203" lon="7.126138005405664">
        <ele>10.710000000000001</ele>
        <time>2017-06-19T17:25:56Z</time>
      </trkpt>
      <trkpt lat="61.224866984412074" lon="7.12627898901701">
        <ele>8.310000000000001</ele>
        <time>2017-06-19T17:26:07Z</time>
      </trkpt>
      <trkpt lat="61.226712008938193" lon="7.125287996605039">
        <ele>8.310000000000001</ele>
        <time>2017-06-19T17:26:18Z</time>
      </trkpt>
      <trkpt lat="61.227763015776873" lon="7.1252900082618">
        <ele>8.310000000000001</ele>
        <time>2017-06-19T17:26:25Z</time>
      </trkpt>
      <trkpt lat="61.228783009573817" lon="7.125304006040096">
        <ele>9.75</ele>
        <time>2017-06-19T17:26:33Z</time>
      </trkpt>
      <trkpt lat="61.228907983750105" lon="7.125213984400034">
        <ele>9.27</ele>
        <time>2017-06-19T17:26:34Z</time>
      </trkpt>
      <trkpt lat="61.230122018605471" lon="7.123859971761704">
        <ele>11.19</ele>
        <time>2017-06-19T17:26:45Z</time>
      </trkpt>
      <trkpt lat="61.230196030810475" lon="7.123756036162376">
        <ele>11.67</ele>
        <time>2017-06-19T17:26:46Z</time>
      </trkpt>
      <trkpt lat="61.230268031358719" lon="7.123682023957372">
        <ele>12.15</ele>
        <time>2017-06-19T17:26:47Z</time>
      </trkpt>
      <trkpt lat="61.230343971401453" lon="7.123624021187425">
        <ele>12.15</ele>
        <time>2017-06-19T17:26:48Z</time>
      </trkpt>
      <trkpt lat="61.230595009401441" lon="7.123457975685597">
        <ele>12.630000000000001</ele>
        <time>2017-06-19T17:26:51Z</time>
      </trkpt>
      <trkpt lat="61.230674972757697" lon="7.123356973752379">
        <ele>13.119999999999999</ele>
        <time>2017-06-19T17:26:52Z</time>
      </trkpt>
      <trkpt lat="61.230754014104605" lon="7.123231999576092">
        <ele>14.08</ele>
        <time>2017-06-19T17:26:53Z</time>
      </trkpt>
      <trkpt lat="61.230832971632481" lon="7.123091015964747">
        <ele>14.56</ele>
        <time>2017-06-19T17:26:54Z</time>
      </trkpt>
      <trkpt lat="61.230900026857853" lon="7.122924970462918">
        <ele>15.52</ele>
        <time>2017-06-19T17:26:55Z</time>
      </trkpt>
      <trkpt lat="61.230960041284561" lon="7.122759008780122">
        <ele>16</ele>
        <time>2017-06-19T17:26:56Z</time>
      </trkpt>
      <trkpt lat="61.231005974113941" lon="7.122578965499997">
        <ele>16.960000000000001</ele>
        <time>2017-06-19T17:26:57Z</time>
      </trkpt>
      <trkpt lat="61.231045033782721" lon="7.122399006038904">
        <ele>17.440000000000001</ele>
        <time>2017-06-19T17:26:58Z</time>
      </trkpt>
      <trkpt lat="61.231079986318946" lon="7.122221980243921">
        <ele>18.879999999999999</ele>
        <time>2017-06-19T17:26:59Z</time>
      </trkpt>
      <trkpt lat="61.231104964390397" lon="7.12204403243959">
        <ele>19.359999999999999</ele>
        <time>2017-06-19T17:27:00Z</time>
      </trkpt>
      <trkpt lat="61.231122985482216" lon="7.121860971674323">
        <ele>19.359999999999999</ele>
        <time>2017-06-19T17:27:01Z</time>
      </trkpt>
      <trkpt lat="61.231368994340301" lon="7.119290996342897">
        <ele>19.359999999999999</ele>
        <time>2017-06-19T17:27:15Z</time>
      </trkpt>
      <trkpt lat="61.231411993503571" lon="7.118972986936569">
        <ele>17.920000000000002</ele>
        <time>2017-06-19T17:27:17Z</time>
      </trkpt>
      <trkpt lat="61.231444012373686" lon="7.118829991668463">
        <ele>17.440000000000001</ele>
        <time>2017-06-19T17:27:18Z</time>
      </trkpt>
      <trkpt lat="61.231484999880195" lon="7.118702000007033">
        <ele>16.960000000000001</ele>
        <time>2017-06-19T17:27:19Z</time>
      </trkpt>
      <trkpt lat="61.231523975729942" lon="7.118594041094184">
        <ele>16.48</ele>
        <time>2017-06-19T17:27:20Z</time>
      </trkpt>
      <trkpt lat="61.231564041227102" lon="7.118507958948612">
        <ele>16.48</ele>
        <time>2017-06-19T17:27:21Z</time>
      </trkpt>
      <trkpt lat="61.231607962399721" lon="7.118449034169316">
        <ele>16</ele>
        <time>2017-06-19T17:27:22Z</time>
      </trkpt>
      <trkpt lat="61.231658002361655" lon="7.118408968672156">
        <ele>16</ele>
        <time>2017-06-19T17:27:23Z</time>
      </trkpt>
      <trkpt lat="61.231712987646461" lon="7.118389019742608">
        <ele>16</ele>
        <time>2017-06-19T17:27:24Z</time>
      </trkpt>
      <trkpt lat="61.231770990416408" lon="7.118382984772325">
        <ele>15.52</ele>
        <time>2017-06-19T17:27:25Z</time>
      </trkpt>
      <trkpt lat="61.231837961822748" lon="7.118380973115563">
        <ele>15.52</ele>
        <time>2017-06-19T17:27:26Z</time>
      </trkpt>
      <trkpt lat="61.231903005391359" lon="7.118389019742608">
        <ele>15.039999999999999</ele>
        <time>2017-06-19T17:27:27Z</time>
      </trkpt>
      <trkpt lat="61.232455037534237" lon="7.118364963680506">
        <ele>11.19</ele>
        <time>2017-06-19T17:27:39Z</time>
      </trkpt>
      <trkpt lat="61.232494013383985" lon="7.118168994784355">
        <ele>11.19</ele>
        <time>2017-06-19T17:27:43Z</time>
      </trkpt>
      <trkpt lat="61.232422012835741" lon="7.118107974529266">
        <ele>10.23</ele>
        <time>2017-06-19T17:27:47Z</time>
      </trkpt>
      <trkpt lat="61.232401980087161" lon="7.118130018934608">
        <ele>10.710000000000001</ele>
        <time>2017-06-19T17:28:10Z</time>
      </trkpt>
      <trkpt lat="61.2323999684304" lon="7.118128007277846">
        <ele>10.23</ele>
        <time>2017-06-19T17:29:47Z</time>
      </trkpt>
      <trkpt lat="61.2323999684304" lon="7.118129013106227">
        <ele>10.23</ele>
        <time>2017-06-19T17:32:00Z</time>
      </trkpt>
      <trkpt lat="61.2323999684304" lon="7.118132030591369">
        <ele>10.23</ele>
        <time>2017-06-19T17:34:16Z</time>
      </trkpt>
      <trkpt lat="61.2323999684304" lon="7.118132030591369">
        <ele>10.23</ele>
        <time>2017-06-19T17:37:01Z</time>
      </trkpt>
      <trkpt lat="61.23240097425878" lon="7.118129013106227">
        <ele>10.23</ele>
        <time>2017-06-19T17:39:12Z</time>
      </trkpt>
      <trkpt lat="61.232398962602019" lon="7.118129013106227">
        <ele>10.23</ele>
        <time>2017-06-19T17:41:17Z</time>
      </trkpt>
      <trkpt lat="61.232342971488833" lon="7.118108980357647">
        <ele>4.94</ele>
        <time>2017-06-19T17:46:28Z</time>
      </trkpt>
      <trkpt lat="61.232358980923891" lon="7.118107974529266">
        <ele>7.35</ele>
        <time>2017-06-19T17:46:48Z</time>
      </trkpt>
      <trkpt lat="61.232369961217046" lon="7.118231020867825">
        <ele>7.83</ele>
        <time>2017-06-19T17:46:52Z</time>
      </trkpt>
      <trkpt lat="61.232325034216046" lon="7.118376027792692">
        <ele>10.710000000000001</ele>
        <time>2017-06-19T17:46:55Z</time>
      </trkpt>
      <trkpt lat="61.232267031446099" lon="7.118409974500537">
        <ele>11.19</ele>
        <time>2017-06-19T17:46:56Z</time>
      </trkpt>
      <trkpt lat="61.23218597844243" lon="7.118412991985679">
        <ele>12.15</ele>
        <time>2017-06-19T17:46:57Z</time>
      </trkpt>
      <trkpt lat="61.232107020914555" lon="7.118410980328918">
        <ele>13.119999999999999</ele>
        <time>2017-06-19T17:46:58Z</time>
      </trkpt>
      <trkpt lat="61.231707036495209" lon="7.118309978395701">
        <ele>15.039999999999999</ele>
        <time>2017-06-19T17:47:06Z</time>
      </trkpt>
      <trkpt lat="61.231656996533275" lon="7.118209982290864">
        <ele>14.56</ele>
        <time>2017-06-19T17:47:08Z</time>
      </trkpt>
      <trkpt lat="61.231644004583359" lon="7.118128007277846">
        <ele>14.08</ele>
        <time>2017-06-19T17:47:09Z</time>
      </trkpt>
      <trkpt lat="61.231637969613075" lon="7.118027005344629">
        <ele>14.08</ele>
        <time>2017-06-19T17:47:10Z</time>
      </trkpt>
      <trkpt lat="61.231632018461823" lon="7.117913011461496">
        <ele>14.08</ele>
        <time>2017-06-19T17:47:11Z</time>
      </trkpt>
      <trkpt lat="61.231636041775346" lon="7.11779298260808">
        <ele>14.08</ele>
        <time>2017-06-19T17:47:12Z</time>
      </trkpt>
      <trkpt lat="61.231649033725262" lon="7.117661973461509">
        <ele>13.6</ele>
        <time>2017-06-19T17:47:13Z</time>
      </trkpt>
      <trkpt lat="61.231675017625093" lon="7.117518978193402">
        <ele>13.6</ele>
        <time>2017-06-19T17:47:14Z</time>
      </trkpt>
      <trkpt lat="61.231706030666828" lon="7.117373971268535">
        <ele>13.119999999999999</ele>
        <time>2017-06-19T17:47:15Z</time>
      </trkpt>
      <trkpt lat="61.231740983203053" lon="7.117223013192415">
        <ele>13.119999999999999</ele>
        <time>2017-06-19T17:47:16Z</time>
      </trkpt>
      <trkpt lat="61.232138033956289" lon="7.11545099504292">
        <ele>13.119999999999999</ele>
        <time>2017-06-19T17:47:28Z</time>
      </trkpt>
      <trkpt lat="61.232182960957289" lon="7.115349993109703">
        <ele>13.119999999999999</ele>
        <time>2017-06-19T17:47:30Z</time>
      </trkpt>
      <trkpt lat="61.232202993705869" lon="7.115328032523394">
        <ele>13.119999999999999</ele>
        <time>2017-06-19T17:47:31Z</time>
      </trkpt>
      <trkpt lat="61.232217997312546" lon="7.115328032523394">
        <ele>13.119999999999999</ele>
        <time>2017-06-19T17:47:32Z</time>
      </trkpt>
      <trkpt lat="61.232258984819055" lon="7.115325015038252">
        <ele>12.630000000000001</ele>
        <time>2017-06-19T17:47:44Z</time>
      </trkpt>
      <trkpt lat="61.232274994254112" lon="7.115352004766464">
        <ele>12.630000000000001</ele>
        <time>2017-06-19T17:47:45Z</time>
      </trkpt>
      <trkpt lat="61.232285974547267" lon="7.115422999486327">
        <ele>12.630000000000001</ele>
        <time>2017-06-19T17:47:46Z</time>
      </trkpt>
      <trkpt lat="61.232286980375648" lon="7.115519978106022">
        <ele>12.630000000000001</ele>
        <time>2017-06-19T17:47:47Z</time>
      </trkpt>
      <trkpt lat="61.232286980375648" lon="7.115622991696">
        <ele>12.630000000000001</ele>
        <time>2017-06-19T17:47:48Z</time>
      </trkpt>
      <trkpt lat="61.23227097094059" lon="7.116074021905661">
        <ele>13.119999999999999</ele>
        <time>2017-06-19T17:47:56Z</time>
      </trkpt>
      <trkpt lat="61.232220008969307" lon="7.116582971066237">
        <ele>13.6</ele>
        <time>2017-06-19T17:48:07Z</time>
      </trkpt>
      <trkpt lat="61.232215985655785" lon="7.116576014086604">
        <ele>13.119999999999999</ele>
        <time>2017-06-19T17:48:18Z</time>
      </trkpt>
      <trkpt lat="61.232226965948939" lon="7.116541983559728">
        <ele>13.119999999999999</ele>
        <time>2017-06-19T17:48:19Z</time>
      </trkpt>
      <trkpt lat="61.232236018404365" lon="7.116476017981768">
        <ele>13.119999999999999</ele>
        <time>2017-06-19T17:48:20Z</time>
      </trkpt>
      <trkpt lat="61.232241969555616" lon="7.116380967199802">
        <ele>13.6</ele>
        <time>2017-06-19T17:48:21Z</time>
      </trkpt>
      <trkpt lat="61.232246998697519" lon="7.116277031600475">
        <ele>13.6</ele>
        <time>2017-06-19T17:48:22Z</time>
      </trkpt>
      <trkpt lat="61.23229100368917" lon="7.115563983097673">
        <ele>11.67</ele>
        <time>2017-06-19T17:48:32Z</time>
      </trkpt>
      <trkpt lat="61.232337020337582" lon="7.115013962611556">
        <ele>14.08</ele>
        <time>2017-06-19T17:48:41Z</time>
      </trkpt>
      <trkpt lat="61.232460988685489" lon="7.114168982952833">
        <ele>17.440000000000001</ele>
        <time>2017-06-19T17:48:53Z</time>
      </trkpt>
      <trkpt lat="61.232579005882144" lon="7.114169988781214">
        <ele>17.440000000000001</ele>
        <time>2017-06-19T17:49:01Z</time>
      </trkpt>
      <trkpt lat="61.232595015317202" lon="7.114148028194904">
        <ele>17.440000000000001</ele>
        <time>2017-06-19T17:49:11Z</time>
      </trkpt>
      <trkpt lat="61.232595015317202" lon="7.114167977124453">
        <ele>18.399999999999999</ele>
        <time>2017-06-19T17:49:26Z</time>
      </trkpt>
      <trkpt lat="61.232588980346918" lon="7.114133024588227">
        <ele>18.879999999999999</ele>
        <time>2017-06-19T17:49:31Z</time>
      </trkpt>
      <trkpt lat="61.232578000053763" lon="7.114126989617944">
        <ele>18.399999999999999</ele>
        <time>2017-06-19T17:49:32Z</time>
      </trkpt>
      <trkpt lat="61.232547992840409" lon="7.114129001274705">
        <ele>17.920000000000002</ele>
        <time>2017-06-19T17:49:33Z</time>
      </trkpt>
      <trkpt lat="61.232512034475803" lon="7.114147022366524">
        <ele>17.440000000000001</ele>
        <time>2017-06-19T17:49:34Z</time>
      </trkpt>
      <trkpt lat="61.232474986463785" lon="7.114179963245988">
        <ele>16.960000000000001</ele>
        <time>2017-06-19T17:49:35Z</time>
      </trkpt>
      <trkpt lat="61.232449002563953" lon="7.11422698572278">
        <ele>16.960000000000001</ele>
        <time>2017-06-19T17:49:36Z</time>
      </trkpt>
      <trkpt lat="61.232428969815373" lon="7.114281971007586">
        <ele>16.48</ele>
        <time>2017-06-19T17:49:37Z</time>
      </trkpt>
      <trkpt lat="61.232412038370967" lon="7.114347014576197">
        <ele>16</ele>
        <time>2017-06-19T17:49:38Z</time>
      </trkpt>
      <trkpt lat="61.232388988137245" lon="7.114438964053989">
        <ele>16</ele>
        <time>2017-06-19T17:49:39Z</time>
      </trkpt>
      <trkpt lat="61.232384964823723" lon="7.114536026492715">
        <ele>16</ele>
        <time>2017-06-19T17:49:40Z</time>
      </trkpt>
      <trkpt lat="61.232383958995342" lon="7.114630993455648">
        <ele>16.48</ele>
        <time>2017-06-19T17:49:41Z</time>
      </trkpt>
      <trkpt lat="61.232385970652103" lon="7.114711040630937">
        <ele>16</ele>
        <time>2017-06-19T17:49:42Z</time>
      </trkpt>
      <trkpt lat="61.232388988137245" lon="7.114793015643954">
        <ele>15.52</ele>
        <time>2017-06-19T17:49:43Z</time>
      </trkpt>
      <trkpt lat="61.232380019500852" lon="7.114953026175499">
        <ele>15.039999999999999</ele>
        <time>2017-06-19T17:49:45Z</time>
      </trkpt>
      <trkpt lat="61.232369039207697" lon="7.115033995360136">
        <ele>14.56</ele>
        <time>2017-06-19T17:49:46Z</time>
      </trkpt>
      <trkpt lat="61.232283962890506" lon="7.115318980067968">
        <ele>12.15</ele>
        <time>2017-06-19T17:49:51Z</time>
      </trkpt>
      <trkpt lat="61.232258984819055" lon="7.115324009209871">
        <ele>12.15</ele>
        <time>2017-06-19T17:49:52Z</time>
      </trkpt>
      <trkpt lat="61.232235012575984" lon="7.115300036966801">
        <ele>11.67</ele>
        <time>2017-06-19T17:49:53Z</time>
      </trkpt>
      <trkpt lat="61.232216991484165" lon="7.115259971469641">
        <ele>11.67</ele>
        <time>2017-06-19T17:49:54Z</time>
      </trkpt>
      <trkpt lat="61.232210034504533" lon="7.115204986184835">
        <ele>11.19</ele>
        <time>2017-06-19T17:49:55Z</time>
      </trkpt>
      <trkpt lat="61.232209028676152" lon="7.115140026435256">
        <ele>11.67</ele>
        <time>2017-06-19T17:49:56Z</time>
      </trkpt>
      <trkpt lat="61.232214979827404" lon="7.11506299674511">
        <ele>11.19</ele>
        <time>2017-06-19T17:49:57Z</time>
      </trkpt>
      <trkpt lat="61.232224032282829" lon="7.114981021732092">
        <ele>11.67</ele>
        <time>2017-06-19T17:49:58Z</time>
      </trkpt>
      <trkpt lat="61.232231995090842" lon="7.114901980385184">
        <ele>11.67</ele>
        <time>2017-06-19T17:49:59Z</time>
      </trkpt>
      <trkpt lat="61.232296032831073" lon="7.114035962149501">
        <ele>15.52</ele>
        <time>2017-06-19T17:50:14Z</time>
      </trkpt>
      <trkpt lat="61.232324028387666" lon="7.113892966881394">
        <ele>15.039999999999999</ele>
        <time>2017-06-19T17:50:23Z</time>
      </trkpt>
      <trkpt lat="61.23231497593224" lon="7.113912999629974">
        <ele>15.039999999999999</ele>
        <time>2017-06-19T17:50:24Z</time>
      </trkpt>
      <trkpt lat="61.232307013124228" lon="7.113930014893413">
        <ele>14.56</ele>
        <time>2017-06-19T17:50:25Z</time>
      </trkpt>
      <trkpt lat="61.232301983982325" lon="7.113972008228302">
        <ele>14.56</ele>
        <time>2017-06-19T17:50:26Z</time>
      </trkpt>
      <trkpt lat="61.232297038659453" lon="7.11403202265501">
        <ele>14.56</ele>
        <time>2017-06-19T17:50:27Z</time>
      </trkpt>
      <trkpt lat="61.232295027002692" lon="7.114103017374873">
        <ele>14.56</ele>
        <time>2017-06-19T17:50:28Z</time>
      </trkpt>
      <trkpt lat="61.232192013412714" lon="7.115194005891681">
        <ele>12.630000000000001</ele>
        <time>2017-06-19T17:50:45Z</time>
      </trkpt>
      <trkpt lat="61.232298966497183" lon="7.115784008055925">
        <ele>14.08</ele>
        <time>2017-06-19T17:50:54Z</time>
      </trkpt>
      <trkpt lat="61.232240041717887" lon="7.116579031571746">
        <ele>15.52</ele>
        <time>2017-06-19T17:51:04Z</time>
      </trkpt>
      <trkpt lat="61.232295027002692" lon="7.116770977154374">
        <ele>15.039999999999999</ele>
        <time>2017-06-19T17:51:07Z</time>
      </trkpt>
      <trkpt lat="61.232330985367298" lon="7.11682403460145">
        <ele>15.039999999999999</ele>
        <time>2017-06-19T17:51:08Z</time>
      </trkpt>
      <trkpt lat="61.232747985050082" lon="7.117371037602425">
        <ele>14.08</ele>
        <time>2017-06-19T17:51:21Z</time>
      </trkpt>
      <trkpt lat="61.232882011681795" lon="7.117312029004097">
        <ele>14.08</ele>
        <time>2017-06-19T17:51:29Z</time>
      </trkpt>
      <trkpt lat="61.23291696421802" lon="7.117259977385402">
        <ele>14.08</ele>
        <time>2017-06-19T17:51:30Z</time>
      </trkpt>
      <trkpt lat="61.232947977259755" lon="7.117182025685906">
        <ele>14.56</ele>
        <time>2017-06-19T17:51:31Z</time>
      </trkpt>
      <trkpt lat="61.233117040246725" lon="7.116225985810161">
        <ele>18.399999999999999</ele>
        <time>2017-06-19T17:51:44Z</time>
      </trkpt>
      <trkpt lat="61.23306498862803" lon="7.116232020780444">
        <ele>17.440000000000001</ele>
        <time>2017-06-19T17:52:00Z</time>
      </trkpt>
      <trkpt lat="61.233073035255075" lon="7.116265967488289">
        <ele>17.920000000000002</ele>
        <time>2017-06-19T17:52:01Z</time>
      </trkpt>
      <trkpt lat="61.233088038861752" lon="7.116313995793462">
        <ele>17.920000000000002</ele>
        <time>2017-06-19T17:52:02Z</time>
      </trkpt>
      <trkpt lat="61.233104970306158" lon="7.116456991061568">
        <ele>17.440000000000001</ele>
        <time>2017-06-19T17:52:04Z</time>
      </trkpt>
      <trkpt lat="61.233089966699481" lon="7.116550030186772">
        <ele>16.960000000000001</ele>
        <time>2017-06-19T17:52:05Z</time>
      </trkpt>
      <trkpt lat="61.233060965314507" lon="7.11665497161448">
        <ele>16.48</ele>
        <time>2017-06-19T17:52:06Z</time>
      </trkpt>
      <trkpt lat="61.233025006949902" lon="7.116767037659884">
        <ele>15.52</ele>
        <time>2017-06-19T17:52:07Z</time>
      </trkpt>
      <trkpt lat="61.232991982251406" lon="7.116880025714636">
        <ele>14.56</ele>
        <time>2017-06-19T17:52:08Z</time>
      </trkpt>
      <trkpt lat="61.232846975326538" lon="7.117262994870544">
        <ele>11.19</ele>
        <time>2017-06-19T17:52:12Z</time>
      </trkpt>
      <trkpt lat="61.232801964506507" lon="7.117282021790743">
        <ele>10.23</ele>
        <time>2017-06-19T17:52:13Z</time>
      </trkpt>
      <trkpt lat="61.232757959514856" lon="7.117281015962362">
        <ele>9.75</ele>
        <time>2017-06-19T17:52:14Z</time>
      </trkpt>
      <trkpt lat="61.232716972008348" lon="7.117261989042163">
        <ele>9.27</ele>
        <time>2017-06-19T17:52:15Z</time>
      </trkpt>
      <trkpt lat="61.23267900198698" lon="7.117234999313951">
        <ele>9.27</ele>
        <time>2017-06-19T17:52:16Z</time>
      </trkpt>
      <trkpt lat="61.232632985338569" lon="7.117192000150681">
        <ele>10.710000000000001</ele>
        <time>2017-06-19T17:52:17Z</time>
      </trkpt>
      <trkpt lat="61.232589986175299" lon="7.117144977673888">
        <ele>11.19</ele>
        <time>2017-06-19T17:52:18Z</time>
      </trkpt>
      <trkpt lat="61.232545981183648" lon="7.117094015702605">
        <ele>11.19</ele>
        <time>2017-06-19T17:52:19Z</time>
      </trkpt>
      <trkpt lat="61.232244987040758" lon="7.116667041555047">
        <ele>11.19</ele>
        <time>2017-06-19T17:52:26Z</time>
      </trkpt>
      <trkpt lat="61.232225960120559" lon="7.116581965237856">
        <ele>11.19</ele>
        <time>2017-06-19T17:52:27Z</time>
      </trkpt>
      <trkpt lat="61.232221014797688" lon="7.116480963304639">
        <ele>10.710000000000001</ele>
        <time>2017-06-19T17:52:28Z</time>
      </trkpt>
      <trkpt lat="61.232224032282829" lon="7.116363029927015">
        <ele>10.710000000000001</ele>
        <time>2017-06-19T17:52:29Z</time>
      </trkpt>
      <trkpt lat="61.2322289776057" lon="7.116244006901979">
        <ele>11.19</ele>
        <time>2017-06-19T17:52:30Z</time>
      </trkpt>
      <trkpt lat="61.232240963727236" lon="7.116124983876944">
        <ele>11.19</ele>
        <time>2017-06-19T17:52:31Z</time>
      </trkpt>
      <trkpt lat="61.232281029224396" lon="7.115691974759102">
        <ele>9.75</ele>
        <time>2017-06-19T17:52:35Z</time>
      </trkpt>
      <trkpt lat="61.232277005910873" lon="7.115580998361111">
        <ele>9.75</ele>
        <time>2017-06-19T17:52:36Z</time>
      </trkpt>
      <trkpt lat="61.232264013960958" lon="7.115478990599513">
        <ele>9.27</ele>
        <time>2017-06-19T17:52:37Z</time>
      </trkpt>
      <trkpt lat="61.232241969555616" lon="7.115378994494677">
        <ele>9.27</ele>
        <time>2017-06-19T17:52:38Z</time>
      </trkpt>
      <trkpt lat="61.232216991484165" lon="7.115294001996517">
        <ele>8.789999999999999</ele>
        <time>2017-06-19T17:52:39Z</time>
      </trkpt>
      <trkpt lat="61.232198970392346" lon="7.115227030590177">
        <ele>9.27</ele>
        <time>2017-06-19T17:52:40Z</time>
      </trkpt>
      <trkpt lat="61.232157982885838" lon="7.115023015066981">
        <ele>9.75</ele>
        <time>2017-06-19T17:52:44Z</time>
      </trkpt>
      <trkpt lat="61.23216200619936" lon="7.114898040890694">
        <ele>9.75</ele>
        <time>2017-06-19T17:52:45Z</time>
      </trkpt>
      <trkpt lat="61.232253033667803" lon="7.113284021615982">
        <ele>12.630000000000001</ele>
        <time>2017-06-19T17:52:53Z</time>
      </trkpt>
      <trkpt lat="61.232140967622399" lon="7.110407017171383">
        <ele>15.039999999999999</ele>
        <time>2017-06-19T17:53:05Z</time>
      </trkpt>
      <trkpt lat="61.232136022299528" lon="7.110169976949692">
        <ele>15.52</ele>
        <time>2017-06-19T17:53:06Z</time>
      </trkpt>
      <trkpt lat="61.23214297927916" lon="7.109940983355045">
        <ele>16</ele>
        <time>2017-06-19T17:53:07Z</time>
      </trkpt>
      <trkpt lat="61.232167035341263" lon="7.109723975881934">
        <ele>16.48</ele>
        <time>2017-06-19T17:53:08Z</time>
      </trkpt>
      <trkpt lat="61.232214979827404" lon="7.109502023085952">
        <ele>16.48</ele>
        <time>2017-06-19T17:53:09Z</time>
      </trkpt>
      <trkpt lat="61.23227197676897" lon="7.109298007562757">
        <ele>16.960000000000001</ele>
        <time>2017-06-19T17:53:10Z</time>
      </trkpt>
      <trkpt lat="61.232338026165962" lon="7.109093992039561">
        <ele>17.440000000000001</ele>
        <time>2017-06-19T17:53:11Z</time>
      </trkpt>
      <trkpt lat="61.232453025877476" lon="7.108656959608197">
        <ele>17.920000000000002</ele>
        <time>2017-06-19T17:53:13Z</time>
      </trkpt>
      <trkpt lat="61.232479009777308" lon="7.108414974063635">
        <ele>18.399999999999999</ele>
        <time>2017-06-19T17:53:14Z</time>
      </trkpt>
      <trkpt lat="61.232484960928559" lon="7.108158990740776">
        <ele>18.879999999999999</ele>
        <time>2017-06-19T17:53:15Z</time>
      </trkpt>
      <trkpt lat="61.232480015605688" lon="7.107906024903059">
        <ele>18.879999999999999</ele>
        <time>2017-06-19T17:53:16Z</time>
      </trkpt>
      <trkpt lat="61.232465011999011" lon="7.107682982459664">
        <ele>18.879999999999999</ele>
        <time>2017-06-19T17:53:17Z</time>
      </trkpt>
      <trkpt lat="61.23244296759367" lon="7.107481984421611">
        <ele>18.879999999999999</ele>
        <time>2017-06-19T17:53:18Z</time>
      </trkpt>
      <trkpt lat="61.232395023107529" lon="7.107002958655357">
        <ele>19.359999999999999</ele>
        <time>2017-06-19T17:53:21Z</time>
      </trkpt>
      <trkpt lat="61.232392005622387" lon="7.106885025277734">
        <ele>19.84</ele>
        <time>2017-06-19T17:53:22Z</time>
      </trkpt>
      <trkpt lat="61.23239703476429" lon="7.106789974495769">
        <ele>19.84</ele>
        <time>2017-06-19T17:53:23Z</time>
      </trkpt>
      <trkpt lat="61.232411032542586" lon="7.106715040281415">
        <ele>19.84</ele>
        <time>2017-06-19T17:53:24Z</time>
      </trkpt>
      <trkpt lat="61.232432993128896" lon="7.106660977005959">
        <ele>19.84</ele>
        <time>2017-06-19T17:53:25Z</time>
      </trkpt>
      <trkpt lat="61.232458977028728" lon="7.106642033904791">
        <ele>19.359999999999999</ele>
        <time>2017-06-19T17:53:26Z</time>
      </trkpt>
      <trkpt lat="61.232487978413701" lon="7.106647985056043">
        <ele>19.359999999999999</ele>
        <time>2017-06-19T17:53:27Z</time>
      </trkpt>
      <trkpt lat="61.232510022819042" lon="7.106681009754539">
        <ele>19.359999999999999</ele>
        <time>2017-06-19T17:53:28Z</time>
      </trkpt>
      <trkpt lat="61.232519997283816" lon="7.106741024181247">
        <ele>18.879999999999999</ele>
        <time>2017-06-19T17:53:29Z</time>
      </trkpt>
      <trkpt lat="61.232516979798675" lon="7.106821993365884">
        <ele>18.879999999999999</ele>
        <time>2017-06-19T17:53:30Z</time>
      </trkpt>
      <trkpt lat="61.23250599950552" lon="7.10692198947072">
        <ele>18.399999999999999</ele>
        <time>2017-06-19T17:53:31Z</time>
      </trkpt>
      <trkpt lat="61.232488984242082" lon="7.107042018324137">
        <ele>17.440000000000001</ele>
        <time>2017-06-19T17:53:32Z</time>
      </trkpt>
      <trkpt lat="61.232478003948927" lon="7.107319962233305">
        <ele>16.960000000000001</ele>
        <time>2017-06-19T17:53:34Z</time>
      </trkpt>
      <trkpt lat="61.232484960928559" lon="7.107463963329792">
        <ele>17.440000000000001</ele>
        <time>2017-06-19T17:53:35Z</time>
      </trkpt>
      <trkpt lat="61.232519997283816" lon="7.108311960473657">
        <ele>17.920000000000002</ele>
        <time>2017-06-19T17:53:41Z</time>
      </trkpt>
      <trkpt lat="61.232513962313533" lon="7.108455961570144">
        <ele>17.920000000000002</ele>
        <time>2017-06-19T17:53:42Z</time>
      </trkpt>
      <trkpt lat="61.232382031157613" lon="7.110149022191763">
        <ele>20.809999999999999</ele>
        <time>2017-06-19T17:53:53Z</time>
      </trkpt>
      <trkpt lat="61.232383958995342" lon="7.110282965004444">
        <ele>20.809999999999999</ele>
        <time>2017-06-19T17:53:54Z</time>
      </trkpt>
      <trkpt lat="61.232392005622387" lon="7.110414979979396">
        <ele>20.809999999999999</ele>
        <time>2017-06-19T17:53:55Z</time>
      </trkpt>
      <trkpt lat="61.232404997572303" lon="7.110527968034148">
        <ele>21.289999999999999</ele>
        <time>2017-06-19T17:53:56Z</time>
      </trkpt>
      <trkpt lat="61.232512034475803" lon="7.111984994262457">
        <ele>18.879999999999999</ele>
        <time>2017-06-19T17:54:06Z</time>
      </trkpt>
      <trkpt lat="61.232559978961945" lon="7.112801978364587">
        <ele>20.32</ele>
        <time>2017-06-19T17:54:13Z</time>
      </trkpt>
      <trkpt lat="61.232580011710525" lon="7.112887976691127">
        <ele>20.32</ele>
        <time>2017-06-19T17:54:14Z</time>
      </trkpt>
      <trkpt lat="61.232603983953595" lon="7.112974980846047">
        <ele>20.809999999999999</ele>
        <time>2017-06-19T17:54:15Z</time>
      </trkpt>
      <trkpt lat="61.23278796672821" lon="7.113456018269062">
        <ele>22.73</ele>
        <time>2017-06-19T17:54:20Z</time>
      </trkpt>
      <trkpt lat="61.233112011104822" lon="7.114026993513107">
        <ele>27.050000000000001</ele>
        <time>2017-06-19T17:54:26Z</time>
      </trkpt>
      <trkpt lat="61.233434965834022" lon="7.11444198153913">
        <ele>30.899999999999999</ele>
        <time>2017-06-19T17:54:31Z</time>
      </trkpt>
      <trkpt lat="61.233488023281097" lon="7.114481963217259">
        <ele>31.379999999999999</ele>
        <time>2017-06-19T17:54:32Z</time>
      </trkpt>
      <trkpt lat="61.233547031879425" lon="7.114515993744135">
        <ele>31.859999999999999</ele>
        <time>2017-06-19T17:54:33Z</time>
      </trkpt>
      <trkpt lat="61.233668988570571" lon="7.114580031484366">
        <ele>33.780000000000001</ele>
        <time>2017-06-19T17:54:35Z</time>
      </trkpt>
      <trkpt lat="61.233723973855376" lon="7.114582965150476">
        <ele>34.740000000000002</ele>
        <time>2017-06-19T17:54:36Z</time>
      </trkpt>
      <trkpt lat="61.233778037130833" lon="7.114580031484366">
        <ele>34.740000000000002</ele>
        <time>2017-06-19T17:54:37Z</time>
      </trkpt>
      <trkpt lat="61.233830004930496" lon="7.114561004564166">
        <ele>35.710000000000001</ele>
        <time>2017-06-19T17:54:38Z</time>
      </trkpt>
      <trkpt lat="61.233875015750527" lon="7.114496966823936">
        <ele>36.670000000000002</ele>
        <time>2017-06-19T17:54:39Z</time>
      </trkpt>
      <trkpt lat="61.233907034620643" lon="7.114412980154157">
        <ele>37.630000000000003</ele>
        <time>2017-06-19T17:54:40Z</time>
      </trkpt>
      <trkpt lat="61.233927989378572" lon="7.114308960735798">
        <ele>38.109999999999999</ele>
        <time>2017-06-19T17:54:41Z</time>
      </trkpt>
      <trkpt lat="61.233937963843346" lon="7.114209970459342">
        <ele>39.07</ele>
        <time>2017-06-19T17:54:42Z</time>
      </trkpt>
      <trkpt lat="61.233938969671726" lon="7.114119026809931">
        <ele>39.549999999999997</ele>
        <time>2017-06-19T17:54:43Z</time>
      </trkpt>
      <trkpt lat="61.233934024348855" lon="7.114020036533475">
        <ele>40.030000000000001</ele>
        <time>2017-06-19T17:54:44Z</time>
      </trkpt>
      <trkpt lat="61.233913991600275" lon="7.113766986876726">
        <ele>41.469999999999999</ele>
        <time>2017-06-19T17:54:46Z</time>
      </trkpt>
      <trkpt lat="61.233894964680076" lon="7.113637989386916">
        <ele>42.439999999999998</ele>
        <time>2017-06-19T17:54:47Z</time>
      </trkpt>
      <trkpt lat="61.233554994687438" lon="7.112268973141909">
        <ele>52.530000000000001</ele>
        <time>2017-06-19T17:54:57Z</time>
      </trkpt>
      <trkpt lat="61.233467990532517" lon="7.111722975969315">
        <ele>55.409999999999997</ele>
        <time>2017-06-19T17:55:04Z</time>
      </trkpt>
      <trkpt lat="61.233471008017659" lon="7.111614011228085">
        <ele>56.859999999999999</ele>
        <time>2017-06-19T17:55:09Z</time>
      </trkpt>
      <trkpt lat="61.233483999967575" lon="7.111577969044447">
        <ele>57.340000000000003</ele>
        <time>2017-06-19T17:55:10Z</time>
      </trkpt>
      <trkpt lat="61.23349498026073" lon="7.111559025943279">
        <ele>57.82</ele>
        <time>2017-06-19T17:55:11Z</time>
      </trkpt>
      <trkpt lat="61.233508978039026" lon="7.111552990972996">
        <ele>57.82</ele>
        <time>2017-06-19T17:55:12Z</time>
      </trkpt>
      <trkpt lat="61.233525993302464" lon="7.111557014286518">
        <ele>58.299999999999997</ele>
        <time>2017-06-19T17:55:13Z</time>
      </trkpt>
      <trkpt lat="61.233544014394283" lon="7.111572017893195">
        <ele>57.82</ele>
        <time>2017-06-19T17:55:14Z</time>
      </trkpt>
      <trkpt lat="61.233669994398952" lon="7.111766980960965">
        <ele>59.259999999999998</ele>
        <time>2017-06-19T17:55:20Z</time>
      </trkpt>
      <trkpt lat="61.233708970248699" lon="7.111844010651112">
        <ele>59.740000000000002</ele>
        <time>2017-06-19T17:55:21Z</time>
      </trkpt>
      <trkpt lat="61.233937963843346" lon="7.112326975911856">
        <ele>63.100000000000001</ele>
        <time>2017-06-19T17:55:30Z</time>
      </trkpt>
      <trkpt lat="61.234068972989917" lon="7.112514981999993">
        <ele>64.549999999999997</ele>
        <time>2017-06-19T17:55:44Z</time>
      </trkpt>
      <trkpt lat="61.234141979366541" lon="7.112596035003662">
        <ele>65.989999999999995</ele>
        <time>2017-06-19T17:55:54Z</time>
      </trkpt>
      <trkpt lat="61.234173998236656" lon="7.112651020288467">
        <ele>65.989999999999995</ele>
        <time>2017-06-19T17:55:55Z</time>
      </trkpt>
      <trkpt lat="61.234212974086404" lon="7.112732995301485">
        <ele>66.469999999999999</ele>
        <time>2017-06-19T17:55:56Z</time>
      </trkpt>
      <trkpt lat="61.234253961592913" lon="7.112825028598309">
        <ele>66.950000000000003</ele>
        <time>2017-06-19T17:55:57Z</time>
      </trkpt>
    </trkseg>
  </trk>

</gpx>